<?xml version="1.0" encoding="UTF-8" standalone="no" ?><gpx xmlns="http://www.topografix.com/GPX/1/1" xmlns:gpxx="http://www.garmin.com/xmlschemas/GpxExtensions/v3" xmlns:wptx1="http://www.garmin.com/xmlschemas/WaypointExtension/v1" xmlns:gpxtpx="http://www.garmin.com/xmlschemas/TrackPointExtension/v1" creator="GuideVTT.com" version="1.1" xmlns:xsi="http://www.w3.org/2001/XMLSchema-instance" xsi:schemaLocation="http://www.topografix.com/GPX/1/1 http://www.topografix.com/GPX/1/1/gpx.xsd http://www.garmin.com/xmlschemas/GpxExtensions/v3 http://www8.garmin.com/xmlschemas/GpxExtensionsv3.xsd http://www.garmin.com/xmlschemas/WaypointExtension/v1 http://www8.garmin.com/xmlschemas/WaypointExtensionv1.xsd http://www.garmin.com/xmlschemas/TrackPointExtension/v1 http://www.garmin.com/xmlschemas/TrackPointExtensionv1.xsd">
<metadata><link href="http://www.garmin.com"><text>Garmin International</text></link><time>2013-06-22T15:13:50Z</time></metadata>
<trk><name>panazol.gpx</name><extensions><gpxx:TrackExtension><gpxx:DisplayColor>Cyan</gpxx:DisplayColor></gpxx:TrackExtension></extensions><trkseg>
<trkpt lat="45.8279" lon="1.309055"><ele>0</ele><time>3.605551242828369-340.70001220703125-148.60000610351563T1.25:0:0Z</time></trkpt>
<trkpt lat="45.827859" lon="1.309094"><ele>0</ele><time>2.8284270763397217-340.5-145.5T1.75:0:0Z</time></trkpt>
<trkpt lat="45.827824" lon="1.309159"><ele>0</ele><time>2.8284270763397217-339.1000061035156-115.5999984741211T1.5:0:0Z</time></trkpt>
<trkpt lat="45.827802" lon="1.309236"><ele>0</ele><time>2.8284270763397217-340.0-109.0999984741211T1.75:0:0Z</time></trkpt>
<trkpt lat="45.827787" lon="1.309308"><ele>0</ele><time>2.8284270763397217-339.8999938964844-108.69999694824219T1.75:0:0Z</time></trkpt>
<trkpt lat="45.827775" lon="1.30939"><ele>0</ele><time>2.8284270763397217-340.20001220703125-107.5999984741211T2.25:0:0Z</time></trkpt>
<trkpt lat="45.827761" lon="1.309465"><ele>0</ele><time>2.8284270763397217-340.8999938964844-107.19999694824219T2.7950849533081055:0:0Z</time></trkpt>
<trkpt lat="45.827739" lon="1.309573"><ele>0</ele><time>2.8284270763397217-341.20001220703125-109.19999694824219T3.5:0:0Z</time></trkpt>
<trkpt lat="45.827738" lon="1.309652"><ele>0</ele><time>3.605551242828369-341.3999938964844-102.0999984741211T3.0:0:0Z</time></trkpt>
<trkpt lat="45.827737" lon="1.309718"><ele>0</ele><time>3.605551242828369-342.70001220703125-104.69999694824219T2.5:0:0Z</time></trkpt>
<trkpt lat="45.827709" lon="1.309806"><ele>0</ele><time>3.605551242828369-342.20001220703125-111.5999984741211T3.25:0:0Z</time></trkpt>
<trkpt lat="45.827698" lon="1.309872"><ele>0</ele><time>3.605551242828369-342.5-108.0999984741211T4.0:0:0Z</time></trkpt>
<trkpt lat="45.827683" lon="1.309977"><ele>0</ele><time>3.605551242828369-342.70001220703125-108.69999694824219T3.75:0:0Z</time></trkpt>
<trkpt lat="45.827648" lon="1.310097"><ele>0</ele><time>3.605551242828369-342.5-108.9000015258789T4.5:0:0Z</time></trkpt>
<trkpt lat="45.827624" lon="1.310152"><ele>0</ele><time>3.605551242828369-342.1000061035156-113.69999694824219T4.75:0:0Z</time></trkpt>
<trkpt lat="45.827606" lon="1.31026"><ele>0</ele><time>3.605551242828369-342.8999938964844-106.9000015258789T4.25:0:0Z</time></trkpt>
<trkpt lat="45.827593" lon="1.310347"><ele>0</ele><time>3.605551242828369-343.6000061035156-106.80000305175781T3.75:0:0Z</time></trkpt>
<trkpt lat="45.82756" lon="1.310448"><ele>0</ele><time>3.605551242828369-343.3999938964844-117.4000015258789T3.5:0:0Z</time></trkpt>
<trkpt lat="45.82756" lon="1.310519"><ele>0</ele><time>4.242640495300293-343.5-107.19999694824219T3.75:0:0Z</time></trkpt>
<trkpt lat="45.827554" lon="1.310584"><ele>0</ele><time>4.242640495300293-343.70001220703125-108.0T4.0:0:0Z</time></trkpt>
<trkpt lat="45.827552" lon="1.310663"><ele>0</ele><time>3.605551242828369-343.70001220703125-104.0T4.25:0:0Z</time></trkpt>
<trkpt lat="45.827543" lon="1.310754"><ele>0</ele><time>4.242640495300293-343.3999938964844-100.0T5.0:0:0Z</time></trkpt>
<trkpt lat="45.827525" lon="1.310835"><ele>0</ele><time>3.605551242828369-345.29998779296875-105.5T2.75:0:0Z</time></trkpt>
<trkpt lat="45.827482" lon="1.310867"><ele>0</ele><time>4.242640495300293-344.20001220703125-115.5T3.0:0:0Z</time></trkpt>
<trkpt lat="45.82743" lon="1.311009"><ele>0</ele><time>4.242640495300293-343.1000061035156-108.5999984741211T5.2737555503845215:0:0Z</time></trkpt>
<trkpt lat="45.827418" lon="1.311103"><ele>0</ele><time>3.605551242828369-342.8999938964844-107.9000015258789T5.5:0:0Z</time></trkpt>
<trkpt lat="45.827418" lon="1.311169"><ele>0</ele><time>3.605551242828369-342.70001220703125-98.9000015258789T5.0:0:0Z</time></trkpt>
<trkpt lat="45.827427" lon="1.311235"><ele>0</ele><time>3.605551242828369-342.1000061035156-92.69999694824219T4.0:0:0Z</time></trkpt>
<trkpt lat="45.827419" lon="1.311358"><ele>0</ele><time>3.605551242828369-341.29998779296875-92.5T4.25:0:0Z</time></trkpt>
<trkpt lat="45.827378" lon="1.311459"><ele>0</ele><time>3.605551242828369-341.5-105.19999694824219T4.0:0:0Z</time></trkpt>
<trkpt lat="45.827357" lon="1.311545"><ele>0</ele><time>4.242640495300293-341.8999938964844-106.30000305175781T3.5:0:0Z</time></trkpt>
<trkpt lat="45.827338" lon="1.311629"><ele>0</ele><time>5.0-341.5-107.69999694824219T4.0:0:0Z</time></trkpt>
<trkpt lat="45.827305" lon="1.311769"><ele>0</ele><time>5.0-341.6000061035156-102.0999984741211T4.0:0:0Z</time></trkpt>
<trkpt lat="45.827335" lon="1.31188"><ele>0</ele><time>5.0-341.20001220703125-79.69999694824219T3.5:0:0Z</time></trkpt>
<trkpt lat="45.827334" lon="1.311966"><ele>0</ele><time>3.605551242828369-338.20001220703125-74.4000015258789T3.535533905029297:0:0Z</time></trkpt>
<trkpt lat="45.827341" lon="1.312039"><ele>0</ele><time>3.605551242828369-337.5-79.5T4.279310703277588:0:0Z</time></trkpt>
<trkpt lat="45.827325" lon="1.312102"><ele>0</ele><time>3.605551242828369-335.8999938964844-87.30000305175781T4.25:0:0Z</time></trkpt>
<trkpt lat="45.827301" lon="1.312169"><ele>0</ele><time>3.605551242828369-334.29998779296875-96.0T4.75:0:0Z</time></trkpt>
<trkpt lat="45.827288" lon="1.312235"><ele>0</ele><time>2.8284270763397217-333.3999938964844-97.5T5.0:0:0Z</time></trkpt>
<trkpt lat="45.827282" lon="1.312306"><ele>0</ele><time>2.8284270763397217-333.29998779296875-95.5T5.25:0:0Z</time></trkpt>
<trkpt lat="45.827276" lon="1.312429"><ele>0</ele><time>3.605551242828369-332.0-92.5999984741211T4.75:0:0Z</time></trkpt>
<trkpt lat="45.827269" lon="1.312504"><ele>0</ele><time>3.605551242828369-332.0-95.30000305175781T4.75:0:0Z</time></trkpt>
<trkpt lat="45.82724" lon="1.312599"><ele>0</ele><time>4.242640495300293-331.1000061035156-100.5999984741211T3.75:0:0Z</time></trkpt>
<trkpt lat="45.827202" lon="1.312733"><ele>0</ele><time>4.242640495300293-329.3999938964844-108.30000305175781T4.279310703277588:0:0Z</time></trkpt>
<trkpt lat="45.827191" lon="1.312816"><ele>0</ele><time>4.242640495300293-328.79998779296875-106.19999694824219T4.776243209838867:0:0Z</time></trkpt>
<trkpt lat="45.827161" lon="1.31288"><ele>0</ele><time>4.242640495300293-328.0-111.0999984741211T4.776243209838867:0:0Z</time></trkpt>
<trkpt lat="45.827117" lon="1.312923"><ele>0</ele><time>4.242640495300293-326.6000061035156-119.19999694824219T4.279310703277588:0:0Z</time></trkpt>
<trkpt lat="45.827064" lon="1.313041"><ele>0</ele><time>5.0-324.29998779296875-121.69999694824219T4.776243209838867:0:0Z</time></trkpt>
<trkpt lat="45.827034" lon="1.313112"><ele>0</ele><time>5.0-323.79998779296875-122.69999694824219T4.776243209838867:0:0Z</time></trkpt>
<trkpt lat="45.82701" lon="1.313185"><ele>0</ele><time>5.0-323.5-121.19999694824219T4.776243209838867:0:0Z</time></trkpt>
<trkpt lat="45.826973" lon="1.313231"><ele>0</ele><time>5.0-323.70001220703125-128.1999969482422T4.5:0:0Z</time></trkpt>
<trkpt lat="45.826929" lon="1.313298"><ele>0</ele><time>5.0-324.3999938964844-130.1999969482422T5.25:0:0Z</time></trkpt>
<trkpt lat="45.82689" lon="1.313349"><ele>0</ele><time>5.0-325.1000061035156-140.10000610351563T4.75:0:0Z</time></trkpt>
<trkpt lat="45.826842" lon="1.313388"><ele>0</ele><time>5.0-325.1000061035156-145.8000030517578T4.75:0:0Z</time></trkpt>
<trkpt lat="45.826782" lon="1.31343"><ele>0</ele><time>5.0-325.70001220703125-155.39999389648438T3.5:0:0Z</time></trkpt>
<trkpt lat="45.826738" lon="1.313472"><ele>0</ele><time>5.0-325.6000061035156-153.5T3.75:0:0Z</time></trkpt>
<trkpt lat="45.826672" lon="1.313509"><ele>0</ele><time>6.7082037925720215-325.70001220703125-155.10000610351563T4.25:0:0Z</time></trkpt>
<trkpt lat="45.826614" lon="1.313552"><ele>0</ele><time>6.7082037925720215-325.8999938964844-152.8000030517578T5.0:0:0Z</time></trkpt>
<trkpt lat="45.82655" lon="1.3136"><ele>0</ele><time>6.7082037925720215-326.1000061035156-150.8000030517578T5.75:0:0Z</time></trkpt>
<trkpt lat="45.826495" lon="1.313648"><ele>0</ele><time>6.7082037925720215-325.6000061035156-148.10000610351563T6.5:0:0Z</time></trkpt>
<trkpt lat="45.826433" lon="1.313698"><ele>0</ele><time>6.7082037925720215-325.6000061035156-146.3000030517578T7.0:0:0Z</time></trkpt>
<trkpt lat="45.8264" lon="1.313775"><ele>0</ele><time>6.7082037925720215-325.20001220703125-140.39999389648438T6.5:0:0Z</time></trkpt>
<trkpt lat="45.82636" lon="1.313822"><ele>0</ele><time>6.7082037925720215-324.8999938964844-143.60000610351563T5.5:0:0Z</time></trkpt>
<trkpt lat="45.826327" lon="1.313869"><ele>0</ele><time>6.7082037925720215-324.29998779296875-142.0T5.25:0:0Z</time></trkpt>
<trkpt lat="45.826293" lon="1.313942"><ele>0</ele><time>5.0-325.0-136.5T5.25:0:0Z</time></trkpt>
<trkpt lat="45.826222" lon="1.31399"><ele>0</ele><time>6.7082037925720215-324.6000061035156-148.3000030517578T4.031128883361816:0:0Z</time></trkpt>
<trkpt lat="45.826156" lon="1.314039"><ele>0</ele><time>6.7082037925720215-323.79998779296875-154.89999389648438T3.25:0:0Z</time></trkpt>
<trkpt lat="45.826111" lon="1.314069"><ele>0</ele><time>6.7082037925720215-324.0-156.8000030517578T3.75:0:0Z</time></trkpt>
<trkpt lat="45.826048" lon="1.314097"><ele>0</ele><time>6.7082037925720215-323.8999938964844-153.6999969482422T3.75:0:0Z</time></trkpt>
<trkpt lat="45.825989" lon="1.314128"><ele>0</ele><time>6.7082037925720215-323.70001220703125-151.6999969482422T3.75:0:0Z</time></trkpt>
<trkpt lat="45.825938" lon="1.314185"><ele>0</ele><time>6.7082037925720215-324.29998779296875-143.6999969482422T3.75:0:0Z</time></trkpt>
<trkpt lat="45.825965" lon="1.314326"><ele>0</ele><time>5.0-323.0-89.19999694824219T4.527692794799805:0:0Z</time></trkpt>
<trkpt lat="45.825932" lon="1.314373"><ele>0</ele><time>5.0-321.1000061035156-97.80000305175781T4.123105525970459:0:0Z</time></trkpt>
<trkpt lat="45.825906" lon="1.314426"><ele>0</ele><time>4.4721360206604-320.0-98.0999984741211T4.123105525970459:0:0Z</time></trkpt>
<trkpt lat="45.825881" lon="1.314537"><ele>0</ele><time>4.4721360206604-320.29998779296875-97.4000015258789T4.031128883361816:0:0Z</time></trkpt>
<trkpt lat="45.825864" lon="1.314651"><ele>0</ele><time>4.4721360206604-320.20001220703125-95.19999694824219T4.25:0:0Z</time></trkpt>
<trkpt lat="45.825866" lon="1.314723"><ele>0</ele><time>4.4721360206604-321.1000061035156-93.5999984741211T4.5:0:0Z</time></trkpt>
<trkpt lat="45.825869" lon="1.314806"><ele>0</ele><time>6.7082037925720215-320.79998779296875-92.4000015258789T5.0:0:0Z</time></trkpt>
<trkpt lat="45.82587" lon="1.314877"><ele>0</ele><time>6.324555397033691-321.1000061035156-91.9000015258789T5.25:0:0Z</time></trkpt>
<trkpt lat="45.825868" lon="1.315002"><ele>0</ele><time>8.5440034866333-321.0-91.4000015258789T4.75:0:0Z</time></trkpt>
<trkpt lat="45.825872" lon="1.315086"><ele>0</ele><time>12.369317054748535-321.5-90.30000305175781T3.5:0:0Z</time></trkpt>
<trkpt lat="45.825987" lon="1.315202"><ele>0</ele><time>6.324555397033691-323.79998779296875-49.599998474121094T4.031128883361816:0:0Z</time></trkpt>
<trkpt lat="45.826022" lon="1.315285"><ele>0</ele><time>6.324555397033691-324.3999938964844-51.79999923706055T4.0:0:0Z</time></trkpt>
<trkpt lat="45.825994" lon="1.315344"><ele>0</ele><time>6.324555397033691-326.20001220703125-83.0T2.5495097637176514:0:0Z</time></trkpt>
<trkpt lat="45.825987" lon="1.315413"><ele>0</ele><time>6.7082037925720215-327.1000061035156-84.9000015258789T2.5:0:0Z</time></trkpt>
<trkpt lat="45.825935" lon="1.315487"><ele>0</ele><time>6.324555397033691-325.8999938964844-101.5999984741211T2.5:0:0Z</time></trkpt>
<trkpt lat="45.825946" lon="1.315575"><ele>0</ele><time>6.324555397033691-331.20001220703125-77.5T2.462214469909668:0:0Z</time></trkpt>
<trkpt lat="45.825972" lon="1.315655"><ele>0</ele><time>6.7082037925720215-331.70001220703125-68.80000305175781T2.3048861026763916:0:0Z</time></trkpt>
<trkpt lat="45.826018" lon="1.315753"><ele>0</ele><time>8.5440034866333-331.8999938964844-62.400001525878906T2.75:0:0Z</time></trkpt>
<trkpt lat="45.826028" lon="1.315833"><ele>0</ele><time>8.5440034866333-332.29998779296875-70.19999694824219T2.75:0:0Z</time></trkpt>
<trkpt lat="45.826053" lon="1.315903"><ele>0</ele><time>6.7082037925720215-331.8999938964844-67.4000015258789T2.25:0:0Z</time></trkpt>
<trkpt lat="45.826086" lon="1.315949"><ele>0</ele><time>6.7082037925720215-332.20001220703125-59.70000076293945T2.25:0:0Z</time></trkpt>
<trkpt lat="45.826113" lon="1.316023"><ele>0</ele><time>8.5440034866333-333.5-58.099998474121094T2.5:0:0Z</time></trkpt>
<trkpt lat="45.826135" lon="1.31608"><ele>0</ele><time>8.5440034866333-333.5-59.29999923706055T2.5:0:0Z</time></trkpt>
<trkpt lat="45.826104" lon="1.316129"><ele>0</ele><time>5.0-334.0-81.80000305175781T2.0:0:0Z</time></trkpt>
<trkpt lat="45.826119" lon="1.316199"><ele>0</ele><time>4.4721360206604-333.6000061035156-78.5T1.75:0:0Z</time></trkpt>
<trkpt lat="45.826133" lon="1.316259"><ele>0</ele><time>3.605551242828369-332.29998779296875-70.5999984741211T1.5:0:0Z</time></trkpt>
<trkpt lat="45.826145" lon="1.316329"><ele>0</ele><time>4.4721360206604-332.20001220703125-83.80000305175781T1.75:0:0Z</time></trkpt>
<trkpt lat="45.826172" lon="1.316442"><ele>0</ele><time>4.4721360206604-330.8999938964844-82.5T3.0:0:0Z</time></trkpt>
<trkpt lat="45.826179" lon="1.316514"><ele>0</ele><time>4.4721360206604-329.79998779296875-87.19999694824219T3.75:0:0Z</time></trkpt>
<trkpt lat="45.826185" lon="1.316621"><ele>0</ele><time>5.0-329.79998779296875-89.5T3.75:0:0Z</time></trkpt>
<trkpt lat="45.826146" lon="1.316672"><ele>0</ele><time>3.605551242828369-328.0-112.0999984741211T4.123105525970459:0:0Z</time></trkpt>
<trkpt lat="45.826129" lon="1.316781"><ele>0</ele><time>3.605551242828369-327.20001220703125-114.0999984741211T3.535533905029297:0:0Z</time></trkpt>
<trkpt lat="45.826123" lon="1.316879"><ele>0</ele><time>4.4721360206604-327.20001220703125-104.30000305175781T3.25:0:0Z</time></trkpt>
<trkpt lat="45.826112" lon="1.31699"><ele>0</ele><time>3.605551242828369-326.0-101.5T3.5:0:0Z</time></trkpt>
<trkpt lat="45.82611" lon="1.317061"><ele>0</ele><time>3.605551242828369-326.20001220703125-99.30000305175781T4.5:0:0Z</time></trkpt>
<trkpt lat="45.826112" lon="1.317131"><ele>0</ele><time>3.605551242828369-326.29998779296875-98.30000305175781T4.5:0:0Z</time></trkpt>
<trkpt lat="45.826108" lon="1.317196"><ele>0</ele><time>3.605551242828369-326.79998779296875-97.69999694824219T4.75:0:0Z</time></trkpt>
<trkpt lat="45.826105" lon="1.317261"><ele>0</ele><time>3.605551242828369-326.3999938964844-97.4000015258789T5.0:0:0Z</time></trkpt>
<trkpt lat="45.826102" lon="1.317331"><ele>0</ele><time>3.605551242828369-326.20001220703125-99.69999694824219T5.0:0:0Z</time></trkpt>
<trkpt lat="45.826101" lon="1.317396"><ele>0</ele><time>3.605551242828369-326.1000061035156-98.0999984741211T5.0:0:0Z</time></trkpt>
<trkpt lat="45.826117" lon="1.31746"><ele>0</ele><time>3.605551242828369-326.5-70.69999694824219T4.854122161865234:0:0Z</time></trkpt>
<trkpt lat="45.826145" lon="1.317559"><ele>0</ele><time>3.605551242828369-327.0-66.4000015258789T3.783186435699463:0:0Z</time></trkpt>
<trkpt lat="45.826131" lon="1.317645"><ele>0</ele><time>3.605551242828369-327.5-83.4000015258789T3.5:0:0Z</time></trkpt>
<trkpt lat="45.826102" lon="1.317713"><ele>0</ele><time>3.605551242828369-326.29998779296875-94.0999984741211T3.041381359100342:0:0Z</time></trkpt>
<trkpt lat="45.826111" lon="1.3178"><ele>0</ele><time>3.605551242828369-327.6000061035156-71.0999984741211T3.75:0:0Z</time></trkpt>
<trkpt lat="45.826121" lon="1.317902"><ele>0</ele><time>3.605551242828369-327.70001220703125-80.30000305175781T3.5:0:0Z</time></trkpt>
<trkpt lat="45.826128" lon="1.317987"><ele>0</ele><time>3.605551242828369-327.8999938964844-80.5T3.5:0:0Z</time></trkpt>
<trkpt lat="45.826147" lon="1.318073"><ele>0</ele><time>3.605551242828369-329.20001220703125-77.4000015258789T3.535533905029297:0:0Z</time></trkpt>
<trkpt lat="45.826166" lon="1.318173"><ele>0</ele><time>3.605551242828369-328.70001220703125-75.0999984741211T4.0:0:0Z</time></trkpt>
<trkpt lat="45.826209" lon="1.318251"><ele>0</ele><time>2.8284270763397217-329.1000061035156-55.29999923706055T3.783186435699463:0:0Z</time></trkpt>
<trkpt lat="45.826245" lon="1.318324"><ele>0</ele><time>3.605551242828369-330.1000061035156-53.5T3.5:0:0Z</time></trkpt>
<trkpt lat="45.82629" lon="1.318403"><ele>0</ele><time>3.605551242828369-330.20001220703125-52.0T3.75:0:0Z</time></trkpt>
<trkpt lat="45.826322" lon="1.318467"><ele>0</ele><time>3.605551242828369-329.20001220703125-57.0T4.776243209838867:0:0Z</time></trkpt>
<trkpt lat="45.82631" lon="1.318576"><ele>0</ele><time>3.605551242828369-328.8999938964844-87.4000015258789T3.5:0:0Z</time></trkpt>
<trkpt lat="45.826272" lon="1.31866"><ele>0</ele><time>3.605551242828369-328.29998779296875-114.9000015258789T3.5:0:0Z</time></trkpt>
<trkpt lat="45.826238" lon="1.318744"><ele>0</ele><time>3.605551242828369-327.70001220703125-115.19999694824219T3.75:0:0Z</time></trkpt>
<trkpt lat="45.826192" lon="1.318834"><ele>0</ele><time>3.605551242828369-325.79998779296875-115.0999984741211T3.5:0:0Z</time></trkpt>
<trkpt lat="45.826171" lon="1.318913"><ele>0</ele><time>3.605551242828369-325.70001220703125-105.69999694824219T3.0:0:0Z</time></trkpt>
<trkpt lat="45.826164" lon="1.318994"><ele>0</ele><time>2.8284270763397217-326.0-94.80000305175781T3.0:0:0Z</time></trkpt>
<trkpt lat="45.826198" lon="1.319079"><ele>0</ele><time>2.8284270763397217-327.6000061035156-68.30000305175781T3.5:0:0Z</time></trkpt>
<trkpt lat="45.826193" lon="1.319175"><ele>0</ele><time>2.8284270763397217-327.79998779296875-81.30000305175781T3.5:0:0Z</time></trkpt>
<trkpt lat="45.826196" lon="1.319269"><ele>0</ele><time>2.8284270763397217-328.20001220703125-82.4000015258789T3.5:0:0Z</time></trkpt>
<trkpt lat="45.826206" lon="1.319367"><ele>0</ele><time>2.8284270763397217-327.70001220703125-82.4000015258789T3.75:0:0Z</time></trkpt>
<trkpt lat="45.826216" lon="1.31946"><ele>0</ele><time>2.8284270763397217-327.5-82.4000015258789T3.75:0:0Z</time></trkpt>
<trkpt lat="45.826229" lon="1.31955"><ele>0</ele><time>2.8284270763397217-327.0-79.0999984741211T3.75:0:0Z</time></trkpt>
<trkpt lat="45.826277" lon="1.319633"><ele>0</ele><time>2.8284270763397217-327.3999938964844-61.900001525878906T4.031128883361816:0:0Z</time></trkpt>
<trkpt lat="45.826303" lon="1.319716"><ele>0</ele><time>2.8284270763397217-327.3999938964844-63.0T3.75:0:0Z</time></trkpt>
<trkpt lat="45.82633" lon="1.319794"><ele>0</ele><time>2.8284270763397217-327.8999938964844-62.70000076293945T3.5:0:0Z</time></trkpt>
<trkpt lat="45.826346" lon="1.319868"><ele>0</ele><time>2.8284270763397217-327.0-63.29999923706055T3.25:0:0Z</time></trkpt>
<trkpt lat="45.826363" lon="1.319951"><ele>0</ele><time>2.8284270763397217-326.6000061035156-64.69999694824219T3.25:0:0Z</time></trkpt>
<trkpt lat="45.82638" lon="1.320019"><ele>0</ele><time>2.8284270763397217-326.1000061035156-57.0T2.0:0:0Z</time></trkpt>
<trkpt lat="45.826413" lon="1.320096"><ele>0</ele><time>2.8284270763397217-324.8999938964844-54.400001525878906T2.25:0:0Z</time></trkpt>
<trkpt lat="45.826437" lon="1.32016"><ele>0</ele><time>2.8284270763397217-324.70001220703125-58.0T2.0:0:0Z</time></trkpt>
<trkpt lat="45.82646" lon="1.320234"><ele>0</ele><time>2.8284270763397217-325.3999938964844-57.900001525878906T2.25:0:0Z</time></trkpt>
<trkpt lat="45.826494" lon="1.320296"><ele>0</ele><time>2.8284270763397217-325.3999938964844-57.599998474121094T2.5:0:0Z</time></trkpt>
<trkpt lat="45.826524" lon="1.320352"><ele>0</ele><time>2.8284270763397217-325.70001220703125-56.599998474121094T2.5:0:0Z</time></trkpt>
<trkpt lat="45.826551" lon="1.320405"><ele>0</ele><time>2.8284270763397217-325.8999938964844-53.20000076293945T2.25:0:0Z</time></trkpt>
<trkpt lat="45.826577" lon="1.320487"><ele>0</ele><time>2.8284270763397217-326.3999938964844-67.19999694824219T2.25:0:0Z</time></trkpt>
<trkpt lat="45.826604" lon="1.320564"><ele>0</ele><time>5.0-326.1000061035156-63.20000076293945T1.25:0:0Z</time></trkpt>
<trkpt lat="45.826643" lon="1.320644"><ele>0</ele><time>5.0-326.70001220703125-61.599998474121094T2.0:0:0Z</time></trkpt>
<trkpt lat="45.826687" lon="1.320723"><ele>0</ele><time>5.0-324.1000061035156-59.0T2.692582368850708:0:0Z</time></trkpt>
<trkpt lat="45.826709" lon="1.320788"><ele>0</ele><time>5.0-322.6000061035156-58.70000076293945T2.5495097637176514:0:0Z</time></trkpt>
<trkpt lat="45.82673" lon="1.320866"><ele>0</ele><time>4.242640495300293-323.1000061035156-66.30000305175781T2.5495097637176514:0:0Z</time></trkpt>
<trkpt lat="45.826749" lon="1.320954"><ele>0</ele><time>4.242640495300293-322.79998779296875-71.5T3.0:0:0Z</time></trkpt>
<trkpt lat="45.826758" lon="1.321022"><ele>0</ele><time>5.0-322.79998779296875-81.5T2.75:0:0Z</time></trkpt>
<trkpt lat="45.826742" lon="1.321115"><ele>0</ele><time>3.605551242828369-322.79998779296875-106.9000015258789T3.0:0:0Z</time></trkpt>
<trkpt lat="45.826712" lon="1.321183"><ele>0</ele><time>2.8284270763397217-323.70001220703125-107.5999984741211T3.0:0:0Z</time></trkpt>
<trkpt lat="45.826711" lon="1.321271"><ele>0</ele><time>2.8284270763397217-324.20001220703125-97.4000015258789T2.75:0:0Z</time></trkpt>
<trkpt lat="45.826702" lon="1.32137"><ele>0</ele><time>3.605551242828369-324.20001220703125-102.0999984741211T2.75:0:0Z</time></trkpt>
<trkpt lat="45.826695" lon="1.321442"><ele>0</ele><time>2.8284270763397217-324.5-88.5T2.25:0:0Z</time></trkpt>
<trkpt lat="45.826715" lon="1.321517"><ele>0</ele><time>2.8284270763397217-323.8999938964844-50.29999923706055T2.0:0:0Z</time></trkpt>
<trkpt lat="45.826775" lon="1.32153"><ele>0</ele><time>2.8284270763397217-323.1000061035156-13.600000381469727T2.75:0:0Z</time></trkpt>
<trkpt lat="45.826827" lon="1.321547"><ele>0</ele><time>2.8284270763397217-323.29998779296875-7.900000095367432T2.75:0:0Z</time></trkpt>
<trkpt lat="45.826879" lon="1.321559"><ele>0</ele><time>2.8284270763397217-322.70001220703125-5.300000190734863T2.75:0:0Z</time></trkpt>
<trkpt lat="45.826928" lon="1.32157"><ele>0</ele><time>3.605551242828369-322.3999938964844-5.900000095367432T2.5:0:0Z</time></trkpt>
<trkpt lat="45.826987" lon="1.32157"><ele>0</ele><time>2.8284270763397217-322.29998779296875-350.79998779296875T2.0:0:0Z</time></trkpt>
<trkpt lat="45.82705" lon="1.321564"><ele>0</ele><time>2.8284270763397217-324.79998779296875-349.79998779296875T1.5:0:0Z</time></trkpt>
<trkpt lat="45.827102" lon="1.321566"><ele>0</ele><time>2.8284270763397217-327.6000061035156-26.0T1.820027470588684:0:0Z</time></trkpt>
<trkpt lat="45.82714" lon="1.321619"><ele>0</ele><time>2.8284270763397217-327.20001220703125-47.70000076293945T1.25:0:0Z</time></trkpt>
<trkpt lat="45.82716" lon="1.321699"><ele>0</ele><time>2.8284270763397217-329.29998779296875-84.30000305175781T1.820027470588684:0:0Z</time></trkpt>
<trkpt lat="45.827164" lon="1.321775"><ele>0</ele><time>2.8284270763397217-330.1000061035156-82.30000305175781T1.25:0:0Z</time></trkpt>
<trkpt lat="45.827175" lon="1.32184"><ele>0</ele><time>2.8284270763397217-330.79998779296875-78.4000015258789T1.25:0:0Z</time></trkpt>
<trkpt lat="45.827189" lon="1.321912"><ele>0</ele><time>3.605551242828369-332.3999938964844-75.0T1.0:0:0Z</time></trkpt>
<trkpt lat="45.827209" lon="1.321977"><ele>0</ele><time>3.605551242828369-334.0-61.70000076293945T1.0:0:0Z</time></trkpt>
<trkpt lat="45.827219" lon="1.32204"><ele>0</ele><time>3.605551242828369-333.8999938964844-82.69999694824219T1.1180340051651:0:0Z</time></trkpt>
<trkpt lat="45.827239" lon="1.322109"><ele>0</ele><time>2.8284270763397217-331.6000061035156-45.099998474121094T1.25:0:0Z</time></trkpt>
<trkpt lat="45.827271" lon="1.322154"><ele>0</ele><time>3.605551242828369-328.6000061035156-30.600000381469727T1.25:0:0Z</time></trkpt>
<trkpt lat="45.827336" lon="1.322191"><ele>0</ele><time>3.605551242828369-329.3999938964844-24.200000762939453T1.75:0:0Z</time></trkpt>
<trkpt lat="45.827378" lon="1.322215"><ele>0</ele><time>3.605551242828369-329.20001220703125-17.700000762939453T2.0:0:0Z</time></trkpt>
<trkpt lat="45.827437" lon="1.322235"><ele>0</ele><time>2.8284270763397217-328.29998779296875-11.699999809265137T1.75:0:0Z</time></trkpt>
<trkpt lat="45.827499" lon="1.322232"><ele>0</ele><time>2.8284270763397217-326.79998779296875-7.099999904632568T2.25:0:0Z</time></trkpt>
<trkpt lat="45.82756" lon="1.322247"><ele>0</ele><time>2.8284270763397217-327.3999938964844-11.0T2.25:0:0Z</time></trkpt>
<trkpt lat="45.827622" lon="1.322267"><ele>0</ele><time>2.8284270763397217-327.0-8.600000381469727T2.25:0:0Z</time></trkpt>
<trkpt lat="45.827682" lon="1.322285"><ele>0</ele><time>3.605551242828369-327.20001220703125-8.899999618530273T2.25:0:0Z</time></trkpt>
<trkpt lat="45.82774" lon="1.322299"><ele>0</ele><time>3.605551242828369-325.8999938964844-6.599999904632568T1.820027470588684:0:0Z</time></trkpt>
<trkpt lat="45.827797" lon="1.322317"><ele>0</ele><time>3.605551242828369-329.0-9.800000190734863T2.0615527629852295:0:0Z</time></trkpt>
<trkpt lat="45.827843" lon="1.322332"><ele>0</ele><time>3.605551242828369-329.3999938964844-11.300000190734863T2.25:0:0Z</time></trkpt>
<trkpt lat="45.827889" lon="1.322338"><ele>0</ele><time>2.8284270763397217-330.0-10.0T2.5495097637176514:0:0Z</time></trkpt>
<trkpt lat="45.827953" lon="1.322348"><ele>0</ele><time>2.8284270763397217-330.3999938964844-10.5T2.5:0:0Z</time></trkpt>
<trkpt lat="45.828" lon="1.322362"><ele>0</ele><time>2.8284270763397217-330.70001220703125-8.199999809265137T2.5:0:0Z</time></trkpt>
<trkpt lat="45.828052" lon="1.322373"><ele>0</ele><time>2.8284270763397217-331.0-10.899999618530273T2.75:0:0Z</time></trkpt>
<trkpt lat="45.82812" lon="1.322393"><ele>0</ele><time>2.8284270763397217-329.6000061035156-12.5T2.75:0:0Z</time></trkpt>
<trkpt lat="45.828171" lon="1.322405"><ele>0</ele><time>2.8284270763397217-326.8999938964844-8.800000190734863T2.015564441680908:0:0Z</time></trkpt>
<trkpt lat="45.828237" lon="1.32243"><ele>0</ele><time>2.8284270763397217-328.29998779296875-10.399999618530273T3.041381359100342:0:0Z</time></trkpt>
<trkpt lat="45.828293" lon="1.322458"><ele>0</ele><time>2.8284270763397217-328.5-12.899999618530273T2.75:0:0Z</time></trkpt>
<trkpt lat="45.828343" lon="1.322472"><ele>0</ele><time>2.8284270763397217-329.3999938964844-7.699999809265137T2.7950849533081055:0:0Z</time></trkpt>
<trkpt lat="45.828396" lon="1.322483"><ele>0</ele><time>2.8284270763397217-328.79998779296875-9.199999809265137T2.75:0:0Z</time></trkpt>
<trkpt lat="45.82845" lon="1.322489"><ele>0</ele><time>2.8284270763397217-328.6000061035156-8.0T2.75:0:0Z</time></trkpt>
<trkpt lat="45.828494" lon="1.322503"><ele>0</ele><time>2.8284270763397217-327.70001220703125-10.5T2.75:0:0Z</time></trkpt>
<trkpt lat="45.828538" lon="1.322525"><ele>0</ele><time>2.8284270763397217-329.1000061035156-9.899999618530273T2.75:0:0Z</time></trkpt>
<trkpt lat="45.828594" lon="1.32254"><ele>0</ele><time>2.8284270763397217-329.29998779296875-6.900000095367432T2.75:0:0Z</time></trkpt>
<trkpt lat="45.82864" lon="1.322553"><ele>0</ele><time>2.8284270763397217-329.20001220703125-9.5T2.75:0:0Z</time></trkpt>
<trkpt lat="45.828692" lon="1.32255"><ele>0</ele><time>2.8284270763397217-331.1000061035156-6.900000095367432T2.0615527629852295:0:0Z</time></trkpt>
<trkpt lat="45.828742" lon="1.322566"><ele>0</ele><time>2.8284270763397217-331.20001220703125-10.899999618530273T2.0:0:0Z</time></trkpt>
<trkpt lat="45.828796" lon="1.322598"><ele>0</ele><time>2.8284270763397217-331.5-9.5T1.25:0:0Z</time></trkpt>
<trkpt lat="45.828847" lon="1.322621"><ele>0</ele><time>2.8284270763397217-332.1000061035156-19.200000762939453T1.5:0:0Z</time></trkpt>
<trkpt lat="45.828894" lon="1.322623"><ele>0</ele><time>3.605551242828369-333.1000061035156-9.699999809265137T1.5:0:0Z</time></trkpt>
<trkpt lat="45.828942" lon="1.322638"><ele>0</ele><time>2.8284270763397217-332.5-10.899999618530273T1.75:0:0Z</time></trkpt>
<trkpt lat="45.828997" lon="1.322652"><ele>0</ele><time>2.8284270763397217-332.70001220703125-10.0T1.75:0:0Z</time></trkpt>
<trkpt lat="45.829048" lon="1.322676"><ele>0</ele><time>3.605551242828369-333.5-13.0T2.0:0:0Z</time></trkpt>
<trkpt lat="45.829105" lon="1.322678"><ele>0</ele><time>2.8284270763397217-334.6000061035156-357.3999938964844T2.0:0:0Z</time></trkpt>
<trkpt lat="45.829159" lon="1.322703"><ele>0</ele><time>2.8284270763397217-334.29998779296875-22.799999237060547T2.0615527629852295:0:0Z</time></trkpt>
<trkpt lat="45.829205" lon="1.322724"><ele>0</ele><time>2.8284270763397217-334.3999938964844-12.5T2.25:0:0Z</time></trkpt>
<trkpt lat="45.829249" lon="1.322747"><ele>0</ele><time>2.8284270763397217-334.29998779296875-19.600000381469727T2.5:0:0Z</time></trkpt>
<trkpt lat="45.829297" lon="1.322758"><ele>0</ele><time>2.8284270763397217-333.20001220703125-11.699999809265137T1.75:0:0Z</time></trkpt>
<trkpt lat="45.829345" lon="1.322765"><ele>0</ele><time>2.8284270763397217-333.6000061035156-5.400000095367432T2.25:0:0Z</time></trkpt>
<trkpt lat="45.829406" lon="1.32278"><ele>0</ele><time>2.8284270763397217-333.70001220703125-5.800000190734863T2.75:0:0Z</time></trkpt>
<trkpt lat="45.829474" lon="1.322775"><ele>0</ele><time>2.8284270763397217-334.29998779296875-353.0T3.25:0:0Z</time></trkpt>
<trkpt lat="45.829538" lon="1.322747"><ele>0</ele><time>2.8284270763397217-334.3999938964844-343.5T3.5:0:0Z</time></trkpt>
<trkpt lat="45.829582" lon="1.3227"><ele>0</ele><time>2.8284270763397217-333.79998779296875-320.0T3.5:0:0Z</time></trkpt>
<trkpt lat="45.829619" lon="1.322631"><ele>0</ele><time>2.8284270763397217-333.3999938964844-313.3999938964844T3.25:0:0Z</time></trkpt>
<trkpt lat="45.829658" lon="1.322563"><ele>0</ele><time>2.8284270763397217-334.8999938964844-311.5T3.25:0:0Z</time></trkpt>
<trkpt lat="45.829703" lon="1.322498"><ele>0</ele><time>2.8284270763397217-335.5-313.0T3.25:0:0Z</time></trkpt>
<trkpt lat="45.829755" lon="1.322459"><ele>0</ele><time>3.605551242828369-336.1000061035156-324.70001220703125T3.0:0:0Z</time></trkpt>
<trkpt lat="45.829824" lon="1.322465"><ele>0</ele><time>2.8284270763397217-336.8999938964844-356.6000061035156T3.25:0:0Z</time></trkpt>
<trkpt lat="45.829872" lon="1.322493"><ele>0</ele><time>2.8284270763397217-333.8999938964844-19.799999237060547T1.5811388492584229:0:0Z</time></trkpt>
<trkpt lat="45.829918" lon="1.322512"><ele>0</ele><time>2.8284270763397217-333.6000061035156-17.299999237060547T2.25:0:0Z</time></trkpt>
<trkpt lat="45.829974" lon="1.322526"><ele>0</ele><time>2.8284270763397217-334.29998779296875-14.699999809265137T2.75:0:0Z</time></trkpt>
<trkpt lat="45.83005" lon="1.322548"><ele>0</ele><time>3.605551242828369-334.8999938964844-9.899999618530273T3.25:0:0Z</time></trkpt>
<trkpt lat="45.830096" lon="1.322557"><ele>0</ele><time>3.605551242828369-336.20001220703125-6.599999904632568T3.5:0:0Z</time></trkpt>
<trkpt lat="45.830165" lon="1.322578"><ele>0</ele><time>3.605551242828369-337.70001220703125-8.699999809265137T3.25:0:0Z</time></trkpt>
<trkpt lat="45.830246" lon="1.322587"><ele>0</ele><time>2.8284270763397217-338.8999938964844-7.099999904632568T3.75:0:0Z</time></trkpt>
<trkpt lat="45.830317" lon="1.322593"><ele>0</ele><time>2.8284270763397217-340.8999938964844-4.900000095367432T3.535533905029297:0:0Z</time></trkpt>
<trkpt lat="45.830384" lon="1.322599"><ele>0</ele><time>2.8284270763397217-341.8999938964844-358.3999938964844T3.5:0:0Z</time></trkpt>
<trkpt lat="45.830442" lon="1.322587"><ele>0</ele><time>2.8284270763397217-342.29998779296875-352.8999938964844T3.25:0:0Z</time></trkpt>
<trkpt lat="45.830505" lon="1.32256"><ele>0</ele><time>2.8284270763397217-341.6000061035156-346.1000061035156T3.25:0:0Z</time></trkpt>
<trkpt lat="45.830574" lon="1.322527"><ele>0</ele><time>2.8284270763397217-341.20001220703125-336.6000061035156T3.75:0:0Z</time></trkpt>
<trkpt lat="45.83061" lon="1.322454"><ele>0</ele><time>2.8284270763397217-341.3999938964844-311.8999938964844T3.5:0:0Z</time></trkpt>
<trkpt lat="45.830646" lon="1.322378"><ele>0</ele><time>2.8284270763397217-342.0-309.0T3.25:0:0Z</time></trkpt>
<trkpt lat="45.830672" lon="1.322301"><ele>0</ele><time>2.8284270763397217-342.70001220703125-299.70001220703125T3.0:0:0Z</time></trkpt>
<trkpt lat="45.830728" lon="1.322196"><ele>0</ele><time>2.8284270763397217-342.3999938964844-309.29998779296875T3.5:0:0Z</time></trkpt>
<trkpt lat="45.830765" lon="1.322133"><ele>0</ele><time>2.8284270763397217-342.1000061035156-314.8999938964844T3.25:0:0Z</time></trkpt>
<trkpt lat="45.830825" lon="1.322087"><ele>0</ele><time>2.8284270763397217-342.70001220703125-333.79998779296875T3.75:0:0Z</time></trkpt>
<trkpt lat="45.830871" lon="1.322134"><ele>0</ele><time>2.8284270763397217-342.3999938964844-21.299999237060547T3.25:0:0Z</time></trkpt>
<trkpt lat="45.830921" lon="1.322194"><ele>0</ele><time>2.8284270763397217-343.6000061035156-42.79999923706055T3.75:0:0Z</time></trkpt>
<trkpt lat="45.830961" lon="1.322254"><ele>0</ele><time>3.605551242828369-343.6000061035156-41.29999923706055T3.25:0:0Z</time></trkpt>
<trkpt lat="45.831002" lon="1.322311"><ele>0</ele><time>3.605551242828369-344.1000061035156-44.0T3.25:0:0Z</time></trkpt>
<trkpt lat="45.831045" lon="1.322344"><ele>0</ele><time>3.605551242828369-347.3999938964844-37.70000076293945T3.8810436725616455:0:0Z</time></trkpt>
<trkpt lat="45.831104" lon="1.322423"><ele>0</ele><time>3.605551242828369-348.29998779296875-40.29999923706055T4.031128883361816:0:0Z</time></trkpt>
<trkpt lat="45.83117" lon="1.322496"><ele>0</ele><time>3.605551242828369-348.29998779296875-38.20000076293945T4.279310703277588:0:0Z</time></trkpt>
<trkpt lat="45.831222" lon="1.322552"><ele>0</ele><time>3.605551242828369-348.5-37.400001525878906T3.25:0:0Z</time></trkpt>
<trkpt lat="45.831287" lon="1.322613"><ele>0</ele><time>3.605551242828369-347.3999938964844-35.099998474121094T3.5:0:0Z</time></trkpt>
<trkpt lat="45.831365" lon="1.322669"><ele>0</ele><time>4.242640495300293-346.8999938964844-31.399999618530273T4.0:0:0Z</time></trkpt>
<trkpt lat="45.83141" lon="1.322709"><ele>0</ele><time>4.242640495300293-346.20001220703125-31.799999237060547T4.25:0:0Z</time></trkpt>
<trkpt lat="45.831477" lon="1.322757"><ele>0</ele><time>3.605551242828369-346.70001220703125-20.0T3.75:0:0Z</time></trkpt>
<trkpt lat="45.831551" lon="1.322799"><ele>0</ele><time>3.605551242828369-346.20001220703125-20.0T3.75:0:0Z</time></trkpt>
<trkpt lat="45.83164" lon="1.322854"><ele>0</ele><time>3.605551242828369-346.3999938964844-19.899999618530273T4.25:0:0Z</time></trkpt>
<trkpt lat="45.831722" lon="1.322891"><ele>0</ele><time>3.605551242828369-346.5-19.399999618530273T4.5:0:0Z</time></trkpt>
<trkpt lat="45.831766" lon="1.322914"><ele>0</ele><time>3.605551242828369-346.1000061035156-20.0T4.5:0:0Z</time></trkpt>
<trkpt lat="45.831816" lon="1.322925"><ele>0</ele><time>3.605551242828369-346.29998779296875-14.100000381469727T4.75:0:0Z</time></trkpt>
<trkpt lat="45.831859" lon="1.322941"><ele>0</ele><time>3.605551242828369-346.70001220703125-15.5T4.75:0:0Z</time></trkpt>
<trkpt lat="45.831938" lon="1.32296"><ele>0</ele><time>4.4721360206604-346.70001220703125-3.200000047683716T4.5:0:0Z</time></trkpt>
<trkpt lat="45.832002" lon="1.322983"><ele>0</ele><time>3.605551242828369-347.0-7.5T4.0:0:0Z</time></trkpt>
<trkpt lat="45.832053" lon="1.323011"><ele>0</ele><time>3.605551242828369-347.1000061035156-12.100000381469727T3.0:0:0Z</time></trkpt>
<trkpt lat="45.832128" lon="1.323032"><ele>0</ele><time>3.605551242828369-348.29998779296875-11.899999618530273T3.0:0:0Z</time></trkpt>
<trkpt lat="45.83217" lon="1.323059"><ele>0</ele><time>3.605551242828369-347.79998779296875-18.799999237060547T3.25:0:0Z</time></trkpt>
<trkpt lat="45.832237" lon="1.323101"><ele>0</ele><time>3.605551242828369-347.5-20.700000762939453T3.75:0:0Z</time></trkpt>
<trkpt lat="45.832309" lon="1.323146"><ele>0</ele><time>3.605551242828369-349.3999938964844-20.200000762939453T3.5:0:0Z</time></trkpt>
<trkpt lat="45.832353" lon="1.323164"><ele>0</ele><time>3.605551242828369-348.6000061035156-19.200000762939453T3.75:0:0Z</time></trkpt>
<trkpt lat="45.832397" lon="1.323189"><ele>0</ele><time>3.605551242828369-347.79998779296875-19.5T4.0:0:0Z</time></trkpt>
<trkpt lat="45.832483" lon="1.323199"><ele>0</ele><time>3.605551242828369-348.5-8.899999618530273T4.0:0:0Z</time></trkpt>
<trkpt lat="45.832533" lon="1.323198"><ele>0</ele><time>3.605551242828369-348.3999938964844-8.0T4.5:0:0Z</time></trkpt>
<trkpt lat="45.83259" lon="1.323212"><ele>0</ele><time>3.605551242828369-347.8999938964844-9.199999809265137T5.0:0:0Z</time></trkpt>
<trkpt lat="45.832657" lon="1.323229"><ele>0</ele><time>3.605551242828369-347.3999938964844-9.699999809265137T5.75:0:0Z</time></trkpt>
<trkpt lat="45.832725" lon="1.323243"><ele>0</ele><time>3.605551242828369-347.70001220703125-6.599999904632568T7.0:0:0Z</time></trkpt>
<trkpt lat="45.832792" lon="1.323265"><ele>0</ele><time>3.605551242828369-348.1000061035156-10.899999618530273T7.0:0:0Z</time></trkpt>
<trkpt lat="45.832841" lon="1.323275"><ele>0</ele><time>3.605551242828369-347.79998779296875-9.100000381469727T6.0:0:0Z</time></trkpt>
<trkpt lat="45.83294" lon="1.323293"><ele>0</ele><time>3.605551242828369-347.79998779296875-4.800000190734863T5.25:0:0Z</time></trkpt>
<trkpt lat="45.833002" lon="1.323308"><ele>0</ele><time>3.605551242828369-347.3999938964844-6.5T5.5:0:0Z</time></trkpt>
<trkpt lat="45.833063" lon="1.323314"><ele>0</ele><time>3.605551242828369-347.6000061035156-5.800000190734863T5.75:0:0Z</time></trkpt>
<trkpt lat="45.833127" lon="1.323332"><ele>0</ele><time>4.242640495300293-348.6000061035156-9.699999809265137T3.75:0:0Z</time></trkpt>
<trkpt lat="45.833166" lon="1.323367"><ele>0</ele><time>4.242640495300293-348.29998779296875-22.899999618530273T3.75:0:0Z</time></trkpt>
<trkpt lat="45.83318" lon="1.323431"><ele>0</ele><time>4.242640495300293-348.20001220703125-43.900001525878906T3.75:0:0Z</time></trkpt>
<trkpt lat="45.833142" lon="1.323541"><ele>0</ele><time>4.242640495300293-347.3999938964844-83.4000015258789T3.5:0:0Z</time></trkpt>
<trkpt lat="45.833116" lon="1.323603"><ele>0</ele><time>3.605551242828369-347.0-96.30000305175781T4.0:0:0Z</time></trkpt>
<trkpt lat="45.833065" lon="1.323708"><ele>0</ele><time>3.605551242828369-346.3999938964844-111.5999984741211T5.25:0:0Z</time></trkpt>
<trkpt lat="45.833028" lon="1.323813"><ele>0</ele><time>3.605551242828369-346.5-115.9000015258789T6.75:0:0Z</time></trkpt>
<trkpt lat="45.832972" lon="1.323942"><ele>0</ele><time>3.605551242828369-347.0-119.9000015258789T7.75:0:0Z</time></trkpt>
<trkpt lat="45.83293" lon="1.324044"><ele>0</ele><time>3.605551242828369-346.8999938964844-120.80000305175781T8.5:0:0Z</time></trkpt>
<trkpt lat="45.832878" lon="1.324134"><ele>0</ele><time>3.605551242828369-345.5-125.4000015258789T7.75:0:0Z</time></trkpt>
<trkpt lat="45.832827" lon="1.324188"><ele>0</ele><time>2.8284270763397217-344.70001220703125-132.5T6.25:0:0Z</time></trkpt>
<trkpt lat="45.832795" lon="1.324256"><ele>0</ele><time>2.8284270763397217-343.8999938964844-125.4000015258789T3.75:0:0Z</time></trkpt>
<trkpt lat="45.832789" lon="1.324328"><ele>0</ele><time>2.8284270763397217-340.6000061035156-96.0999984741211T2.9261748790740967:0:0Z</time></trkpt>
<trkpt lat="45.832782" lon="1.324399"><ele>0</ele><time>2.8284270763397217-339.6000061035156-96.0T2.7950849533081055:0:0Z</time></trkpt>
<trkpt lat="45.832824" lon="1.324458"><ele>0</ele><time>2.8284270763397217-339.8999938964844-48.79999923706055T2.0:0:0Z</time></trkpt>
<trkpt lat="45.832859" lon="1.324502"><ele>0</ele><time>2.8284270763397217-339.3999938964844-43.400001525878906T2.25:0:0Z</time></trkpt>
<trkpt lat="45.832916" lon="1.324547"><ele>0</ele><time>3.605551242828369-338.6000061035156-28.5T2.75:0:0Z</time></trkpt>
<trkpt lat="45.832974" lon="1.324596"><ele>0</ele><time>3.605551242828369-338.3999938964844-26.0T3.0:0:0Z</time></trkpt>
<trkpt lat="45.833047" lon="1.324623"><ele>0</ele><time>3.605551242828369-338.5-16.899999618530273T3.5:0:0Z</time></trkpt>
<trkpt lat="45.8331" lon="1.324657"><ele>0</ele><time>3.605551242828369-339.70001220703125-19.100000381469727T3.25:0:0Z</time></trkpt>
<trkpt lat="45.833141" lon="1.324698"><ele>0</ele><time>3.605551242828369-339.3999938964844-29.100000381469727T3.0:0:0Z</time></trkpt>
<trkpt lat="45.833206" lon="1.32473"><ele>0</ele><time>3.605551242828369-339.6000061035156-25.200000762939453T3.0:0:0Z</time></trkpt>
<trkpt lat="45.83325" lon="1.324752"><ele>0</ele><time>4.4721360206604-339.8999938964844-23.799999237060547T3.25:0:0Z</time></trkpt>
<trkpt lat="45.833288" lon="1.324791"><ele>0</ele><time>4.4721360206604-340.1000061035156-24.5T2.5:0:0Z</time></trkpt>
<trkpt lat="45.833338" lon="1.324811"><ele>0</ele><time>4.4721360206604-340.5-13.0T2.25:0:0Z</time></trkpt>
<trkpt lat="45.833384" lon="1.324841"><ele>0</ele><time>4.4721360206604-340.29998779296875-21.200000762939453T2.25:0:0Z</time></trkpt>
<trkpt lat="45.833456" lon="1.324896"><ele>0</ele><time>4.4721360206604-337.6000061035156-28.299999237060547T1.5:0:0Z</time></trkpt>
<trkpt lat="45.833512" lon="1.324925"><ele>0</ele><time>5.0-336.5-16.700000762939453T2.25:0:0Z</time></trkpt>
<trkpt lat="45.833562" lon="1.324974"><ele>0</ele><time>5.0-336.20001220703125-24.600000381469727T3.0:0:0Z</time></trkpt>
<trkpt lat="45.833601" lon="1.325021"><ele>0</ele><time>5.0-335.79998779296875-32.099998474121094T3.0:0:0Z</time></trkpt>
<trkpt lat="45.8337" lon="1.325072"><ele>0</ele><time>4.4721360206604-337.0-21.399999618530273T4.25:0:0Z</time></trkpt>
<trkpt lat="45.833743" lon="1.325126"><ele>0</ele><time>4.4721360206604-338.0-39.599998474121094T4.031128883361816:0:0Z</time></trkpt>
<trkpt lat="45.833808" lon="1.325214"><ele>0</ele><time>4.4721360206604-338.8999938964844-38.20000076293945T3.535533905029297:0:0Z</time></trkpt>
<trkpt lat="45.833866" lon="1.325246"><ele>0</ele><time>4.4721360206604-340.0-26.399999618530273T2.5:0:0Z</time></trkpt>
<trkpt lat="45.833932" lon="1.325311"><ele>0</ele><time>4.4721360206604-340.8999938964844-38.20000076293945T3.0:0:0Z</time></trkpt>
<trkpt lat="45.83398" lon="1.32536"><ele>0</ele><time>5.0-342.20001220703125-37.5T2.5:0:0Z</time></trkpt>
<trkpt lat="45.834029" lon="1.325428"><ele>0</ele><time>5.0-343.29998779296875-40.400001525878906T3.041381359100342:0:0Z</time></trkpt>
<trkpt lat="45.834092" lon="1.32549"><ele>0</ele><time>5.0-344.29998779296875-36.400001525878906T3.0:0:0Z</time></trkpt>
<trkpt lat="45.834125" lon="1.325556"><ele>0</ele><time>5.0-345.79998779296875-43.29999923706055T2.5495097637176514:0:0Z</time></trkpt>
<trkpt lat="45.83418" lon="1.325616"><ele>0</ele><time>4.242640495300293-348.29998779296875-36.20000076293945T2.7950849533081055:0:0Z</time></trkpt>
<trkpt lat="45.834236" lon="1.325692"><ele>0</ele><time>3.605551242828369-348.79998779296875-32.400001525878906T3.0:0:0Z</time></trkpt>
<trkpt lat="45.834305" lon="1.325747"><ele>0</ele><time>3.605551242828369-350.6000061035156-29.700000762939453T3.041381359100342:0:0Z</time></trkpt>
<trkpt lat="45.834365" lon="1.325814"><ele>0</ele><time>3.605551242828369-349.5-33.29999923706055T3.783186435699463:0:0Z</time></trkpt>
<trkpt lat="45.834421" lon="1.325872"><ele>0</ele><time>3.605551242828369-350.70001220703125-30.0T3.25:0:0Z</time></trkpt>
<trkpt lat="45.834454" lon="1.325916"><ele>0</ele><time>3.605551242828369-350.8999938964844-35.599998474121094T2.75:0:0Z</time></trkpt>
<trkpt lat="45.834492" lon="1.325953"><ele>0</ele><time>3.605551242828369-350.20001220703125-29.299999237060547T2.25:0:0Z</time></trkpt>
<trkpt lat="45.834546" lon="1.326006"><ele>0</ele><time>3.605551242828369-349.3999938964844-28.5T2.5:0:0Z</time></trkpt>
<trkpt lat="45.834604" lon="1.326068"><ele>0</ele><time>3.605551242828369-349.0-30.299999237060547T2.75:0:0Z</time></trkpt>
<trkpt lat="45.834654" lon="1.326121"><ele>0</ele><time>4.4721360206604-349.0-36.5T3.0:0:0Z</time></trkpt>
<trkpt lat="45.834697" lon="1.326145"><ele>0</ele><time>4.4721360206604-348.20001220703125-23.700000762939453T3.0:0:0Z</time></trkpt>
<trkpt lat="45.834743" lon="1.326177"><ele>0</ele><time>5.0-349.79998779296875-23.899999618530273T3.5:0:0Z</time></trkpt>
<trkpt lat="45.834781" lon="1.326215"><ele>0</ele><time>6.7082037925720215-349.5-26.899999618530273T3.75:0:0Z</time></trkpt>
<trkpt lat="45.834828" lon="1.326239"><ele>0</ele><time>6.7082037925720215-349.6000061035156-24.799999237060547T3.75:0:0Z</time></trkpt>
<trkpt lat="45.834898" lon="1.326283"><ele>0</ele><time>5.0-350.29998779296875-23.200000762939453T3.5:0:0Z</time></trkpt>
<trkpt lat="45.83497" lon="1.326345"><ele>0</ele><time>5.0-350.1000061035156-25.200000762939453T3.25:0:0Z</time></trkpt>
<trkpt lat="45.835012" lon="1.326367"><ele>0</ele><time>5.0-350.6000061035156-21.100000381469727T3.25:0:0Z</time></trkpt>
<trkpt lat="45.83506" lon="1.326395"><ele>0</ele><time>4.4721360206604-353.29998779296875-19.200000762939453T4.123105525970459:0:0Z</time></trkpt>
<trkpt lat="45.835128" lon="1.326447"><ele>0</ele><time>3.605551242828369-353.8999938964844-22.899999618530273T3.783186435699463:0:0Z</time></trkpt>
<trkpt lat="45.835197" lon="1.326563"><ele>0</ele><time>3.605551242828369-352.79998779296875-43.400001525878906T4.25:0:0Z</time></trkpt>
<trkpt lat="45.835238" lon="1.32663"><ele>0</ele><time>3.605551242828369-351.5-43.29999923706055T4.25:0:0Z</time></trkpt>
<trkpt lat="45.83527" lon="1.326682"><ele>0</ele><time>4.4721360206604-351.0-44.70000076293945T4.5:0:0Z</time></trkpt>
<trkpt lat="45.835223" lon="1.326762"><ele>0</ele><time>4.4721360206604-350.70001220703125-75.9000015258789T4.0:0:0Z</time></trkpt>
<trkpt lat="45.835184" lon="1.326911"><ele>0</ele><time>4.4721360206604-350.1000061035156-92.0999984741211T4.75:0:0Z</time></trkpt>
<trkpt lat="45.835138" lon="1.326997"><ele>0</ele><time>3.605551242828369-350.5-105.9000015258789T5.771697998046875:0:0Z</time></trkpt>
<trkpt lat="45.835124" lon="1.327074"><ele>0</ele><time>3.605551242828369-351.1000061035156-104.69999694824219T5.75:0:0Z</time></trkpt>
<trkpt lat="45.835111" lon="1.327193"><ele>0</ele><time>3.605551242828369-351.20001220703125-101.0999984741211T4.75:0:0Z</time></trkpt>
<trkpt lat="45.835103" lon="1.327274"><ele>0</ele><time>3.605551242828369-350.8999938964844-98.0T5.25:0:0Z</time></trkpt>
<trkpt lat="45.835088" lon="1.327366"><ele>0</ele><time>3.605551242828369-350.5-100.19999694824219T5.75:0:0Z</time></trkpt>
<trkpt lat="45.835073" lon="1.327458"><ele>0</ele><time>3.605551242828369-350.0-100.9000015258789T6.0:0:0Z</time></trkpt>
<trkpt lat="45.835039" lon="1.327599"><ele>0</ele><time>3.605551242828369-350.0-102.5999984741211T5.25:0:0Z</time></trkpt>
<trkpt lat="45.835022" lon="1.327669"><ele>0</ele><time>3.605551242828369-350.5-103.0T5.25:0:0Z</time></trkpt>
<trkpt lat="45.835004" lon="1.327794"><ele>0</ele><time>3.605551242828369-352.6000061035156-98.9000015258789T4.279310703277588:0:0Z</time></trkpt>
<trkpt lat="45.834977" lon="1.327894"><ele>0</ele><time>2.8284270763397217-352.6000061035156-105.30000305175781T3.75:0:0Z</time></trkpt>
<trkpt lat="45.834936" lon="1.327948"><ele>0</ele><time>2.8284270763397217-351.3999938964844-131.6999969482422T3.288236618041992:0:0Z</time></trkpt>
<trkpt lat="45.834889" lon="1.328015"><ele>0</ele><time>2.8284270763397217-351.70001220703125-135.3000030517578T3.535533905029297:0:0Z</time></trkpt>
<trkpt lat="45.834824" lon="1.328069"><ele>0</ele><time>2.8284270763397217-350.8999938964844-145.60000610351563T4.0:0:0Z</time></trkpt>
<trkpt lat="45.834782" lon="1.328099"><ele>0</ele><time>2.8284270763397217-351.0-150.5T4.5:0:0Z</time></trkpt>
<trkpt lat="45.834733" lon="1.328139"><ele>0</ele><time>2.8284270763397217-350.20001220703125-151.60000610351563T5.522680282592773:0:0Z</time></trkpt>
<trkpt lat="45.834686" lon="1.328164"><ele>0</ele><time>2.8284270763397217-350.5-155.60000610351563T5.25:0:0Z</time></trkpt>
<trkpt lat="45.834607" lon="1.32816"><ele>0</ele><time>2.8284270763397217-350.3999938964844-179.10000610351563T4.5:0:0Z</time></trkpt>
<trkpt lat="45.83456" lon="1.328149"><ele>0</ele><time>3.605551242828369-350.1000061035156-185.39999389648438T4.75:0:0Z</time></trkpt>
<trkpt lat="45.834469" lon="1.328109"><ele>0</ele><time>3.605551242828369-349.5-196.10000610351563T5.0:0:0Z</time></trkpt>
<trkpt lat="45.834412" lon="1.328082"><ele>0</ele><time>3.605551242828369-348.29998779296875-201.10000610351563T4.75:0:0Z</time></trkpt>
<trkpt lat="45.834347" lon="1.328066"><ele>0</ele><time>3.605551242828369-347.20001220703125-190.6999969482422T3.535533905029297:0:0Z</time></trkpt>
<trkpt lat="45.834295" lon="1.328109"><ele>0</ele><time>3.605551242828369-348.1000061035156-151.6999969482422T3.5:0:0Z</time></trkpt>
<trkpt lat="45.834366" lon="1.328167"><ele>0</ele><time>3.605551242828369-348.29998779296875-75.69999694824219T3.783186435699463:0:0Z</time></trkpt>
<trkpt lat="45.834385" lon="1.328246"><ele>0</ele><time>3.605551242828369-348.1000061035156-73.30000305175781T3.75:0:0Z</time></trkpt>
<trkpt lat="45.834432" lon="1.328345"><ele>0</ele><time>2.8284270763397217-346.20001220703125-62.79999923706055T4.25:0:0Z</time></trkpt>
<trkpt lat="45.834449" lon="1.328447"><ele>0</ele><time>2.8284270763397217-345.29998779296875-66.5T4.5:0:0Z</time></trkpt>
<trkpt lat="45.834467" lon="1.328505"><ele>0</ele><time>3.605551242828369-344.79998779296875-66.4000015258789T4.5:0:0Z</time></trkpt>
<trkpt lat="45.834424" lon="1.328625"><ele>0</ele><time>2.8284270763397217-344.70001220703125-106.5T4.0:0:0Z</time></trkpt>
<trkpt lat="45.834372" lon="1.328714"><ele>0</ele><time>2.8284270763397217-345.79998779296875-130.89999389648438T4.527692794799805:0:0Z</time></trkpt>
<trkpt lat="45.834336" lon="1.328754"><ele>0</ele><time>2.8284270763397217-345.1000061035156-130.6999969482422T4.5:0:0Z</time></trkpt>
<trkpt lat="45.834307" lon="1.328804"><ele>0</ele><time>2.8284270763397217-344.6000061035156-133.89999389648438T4.5:0:0Z</time></trkpt>
<trkpt lat="45.834272" lon="1.328845"><ele>0</ele><time>2.8284270763397217-344.0-140.1999969482422T4.75:0:0Z</time></trkpt>
<trkpt lat="45.834234" lon="1.328885"><ele>0</ele><time>2.8284270763397217-344.0-140.39999389648438T4.75:0:0Z</time></trkpt>
<trkpt lat="45.834173" lon="1.328982"><ele>0</ele><time>2.8284270763397217-344.0-132.6999969482422T5.0:0:0Z</time></trkpt>
<trkpt lat="45.834138" lon="1.329029"><ele>0</ele><time>2.8284270763397217-343.6000061035156-133.8000030517578T5.0:0:0Z</time></trkpt>
<trkpt lat="45.834088" lon="1.329113"><ele>0</ele><time>2.8284270763397217-343.6000061035156-133.8000030517578T4.5:0:0Z</time></trkpt>
<trkpt lat="45.834029" lon="1.329191"><ele>0</ele><time>2.8284270763397217-343.3999938964844-135.5T4.5:0:0Z</time></trkpt>
<trkpt lat="45.833977" lon="1.329273"><ele>0</ele><time>2.8284270763397217-343.20001220703125-133.1999969482422T4.25:0:0Z</time></trkpt>
<trkpt lat="45.833928" lon="1.329343"><ele>0</ele><time>2.8284270763397217-343.0-135.5T4.0:0:0Z</time></trkpt>
<trkpt lat="45.833884" lon="1.329401"><ele>0</ele><time>3.605551242828369-343.1000061035156-137.8000030517578T3.5:0:0Z</time></trkpt>
<trkpt lat="45.833854" lon="1.329489"><ele>0</ele><time>2.8284270763397217-345.29998779296875-121.0999984741211T2.692582368850708:0:0Z</time></trkpt>
<trkpt lat="45.833817" lon="1.329534"><ele>0</ele><time>2.8284270763397217-345.8999938964844-129.10000610351563T2.5495097637176514:0:0Z</time></trkpt>
<trkpt lat="45.833768" lon="1.329591"><ele>0</ele><time>2.8284270763397217-346.20001220703125-137.39999389648438T2.0:0:0Z</time></trkpt>
<trkpt lat="45.833713" lon="1.329643"><ele>0</ele><time>2.8284270763397217-345.5-136.89999389648438T1.75:0:0Z</time></trkpt>
<trkpt lat="45.833683" lon="1.329702"><ele>0</ele><time>3.605551242828369-346.29998779296875-134.0T1.5:0:0Z</time></trkpt>
<trkpt lat="45.833656" lon="1.329757"><ele>0</ele><time>3.605551242828369-346.70001220703125-128.39999389648438T1.75:0:0Z</time></trkpt>
<trkpt lat="45.833617" lon="1.329813"><ele>0</ele><time>3.605551242828369-347.5-128.6999969482422T1.5:0:0Z</time></trkpt>
<trkpt lat="45.833587" lon="1.329875"><ele>0</ele><time>3.605551242828369-346.3999938964844-126.5T1.75:0:0Z</time></trkpt>
<trkpt lat="45.833553" lon="1.329925"><ele>0</ele><time>3.605551242828369-347.29998779296875-127.0999984741211T1.5:0:0Z</time></trkpt>
<trkpt lat="45.833505" lon="1.329982"><ele>0</ele><time>3.605551242828369-348.79998779296875-136.89999389648438T1.75:0:0Z</time></trkpt>
<trkpt lat="45.833477" lon="1.330039"><ele>0</ele><time>3.605551242828369-350.5-128.1999969482422T2.0:0:0Z</time></trkpt>
<trkpt lat="45.833419" lon="1.330097"><ele>0</ele><time>3.605551242828369-351.3999938964844-145.8000030517578T2.75:0:0Z</time></trkpt>
<trkpt lat="45.833394" lon="1.330174"><ele>0</ele><time>3.605551242828369-350.6000061035156-130.1999969482422T2.5:0:0Z</time></trkpt>
<trkpt lat="45.833355" lon="1.330227"><ele>0</ele><time>3.605551242828369-350.70001220703125-130.6999969482422T2.5:0:0Z</time></trkpt>
<trkpt lat="45.833309" lon="1.330298"><ele>0</ele><time>3.605551242828369-351.70001220703125-130.1999969482422T2.75:0:0Z</time></trkpt>
<trkpt lat="45.833267" lon="1.330346"><ele>0</ele><time>3.605551242828369-352.0-134.8000030517578T2.75:0:0Z</time></trkpt>
<trkpt lat="45.833258" lon="1.330415"><ele>0</ele><time>3.605551242828369-354.5-114.30000305175781T2.692582368850708:0:0Z</time></trkpt>
<trkpt lat="45.833232" lon="1.330472"><ele>0</ele><time>3.605551242828369-357.1000061035156-115.69999694824219T2.5495097637176514:0:0Z</time></trkpt>
<trkpt lat="45.833184" lon="1.330546"><ele>0</ele><time>4.4721360206604-359.29998779296875-127.5T2.5495097637176514:0:0Z</time></trkpt>
<trkpt lat="45.833161" lon="1.330606"><ele>0</ele><time>3.605551242828369-362.0-124.9000015258789T2.7950849533081055:0:0Z</time></trkpt>
<trkpt lat="45.833123" lon="1.33066"><ele>0</ele><time>3.605551242828369-363.6000061035156-135.10000610351563T2.7950849533081055:0:0Z</time></trkpt>
<trkpt lat="45.833065" lon="1.330717"><ele>0</ele><time>2.8284270763397217-363.0-135.60000610351563T2.7950849533081055:0:0Z</time></trkpt>
<trkpt lat="45.833002" lon="1.330756"><ele>0</ele><time>2.8284270763397217-360.1000061035156-140.6999969482422T3.0:0:0Z</time></trkpt>
<trkpt lat="45.832951" lon="1.330794"><ele>0</ele><time>2.8284270763397217-358.5-145.8000030517578T3.0:0:0Z</time></trkpt>
<trkpt lat="45.832903" lon="1.330854"><ele>0</ele><time>2.8284270763397217-358.6000061035156-136.5T3.5:0:0Z</time></trkpt>
<trkpt lat="45.832859" lon="1.330897"><ele>0</ele><time>2.8284270763397217-357.79998779296875-143.3000030517578T3.0:0:0Z</time></trkpt>
<trkpt lat="45.832786" lon="1.330981"><ele>0</ele><time>2.8284270763397217-357.8999938964844-138.5T3.535533905029297:0:0Z</time></trkpt>
<trkpt lat="45.832733" lon="1.331037"><ele>0</ele><time>2.8284270763397217-357.20001220703125-141.6999969482422T3.75:0:0Z</time></trkpt>
<trkpt lat="45.83268" lon="1.331086"><ele>0</ele><time>2.8284270763397217-357.29998779296875-141.1999969482422T3.5:0:0Z</time></trkpt>
<trkpt lat="45.832636" lon="1.331141"><ele>0</ele><time>2.8284270763397217-357.5-139.39999389648438T3.25:0:0Z</time></trkpt>
<trkpt lat="45.832588" lon="1.331185"><ele>0</ele><time>2.8284270763397217-356.70001220703125-141.6999969482422T3.25:0:0Z</time></trkpt>
<trkpt lat="45.832545" lon="1.331231"><ele>0</ele><time>2.8284270763397217-355.29998779296875-140.1999969482422T3.25:0:0Z</time></trkpt>
<trkpt lat="45.832498" lon="1.33128"><ele>0</ele><time>2.8284270763397217-357.29998779296875-145.39999389648438T3.25:0:0Z</time></trkpt>
<trkpt lat="45.832448" lon="1.33133"><ele>0</ele><time>2.8284270763397217-357.0-147.39999389648438T3.25:0:0Z</time></trkpt>
<trkpt lat="45.832394" lon="1.331387"><ele>0</ele><time>2.8284270763397217-356.79998779296875-142.5T3.5:0:0Z</time></trkpt>
<trkpt lat="45.832337" lon="1.331438"><ele>0</ele><time>2.8284270763397217-356.3999938964844-142.3000030517578T3.75:0:0Z</time></trkpt>
<trkpt lat="45.832287" lon="1.331505"><ele>0</ele><time>2.8284270763397217-356.29998779296875-138.3000030517578T3.75:0:0Z</time></trkpt>
<trkpt lat="45.832239" lon="1.33157"><ele>0</ele><time>2.8284270763397217-357.0-137.5T3.75:0:0Z</time></trkpt>
<trkpt lat="45.832175" lon="1.331636"><ele>0</ele><time>2.8284270763397217-357.1000061035156-142.3000030517578T4.0:0:0Z</time></trkpt>
<trkpt lat="45.832122" lon="1.33169"><ele>0</ele><time>2.8284270763397217-356.8999938964844-142.1999969482422T3.75:0:0Z</time></trkpt>
<trkpt lat="45.832072" lon="1.331753"><ele>0</ele><time>2.8284270763397217-357.79998779296875-141.1999969482422T3.535533905029297:0:0Z</time></trkpt>
<trkpt lat="45.832017" lon="1.331802"><ele>0</ele><time>2.8284270763397217-357.6000061035156-144.5T3.5:0:0Z</time></trkpt>
<trkpt lat="45.831963" lon="1.331856"><ele>0</ele><time>2.8284270763397217-357.29998779296875-142.8000030517578T3.5:0:0Z</time></trkpt>
<trkpt lat="45.831911" lon="1.331907"><ele>0</ele><time>2.8284270763397217-356.79998779296875-145.8000030517578T3.75:0:0Z</time></trkpt>
<trkpt lat="45.831857" lon="1.331968"><ele>0</ele><time>2.8284270763397217-356.3999938964844-139.89999389648438T3.75:0:0Z</time></trkpt>
<trkpt lat="45.831816" lon="1.332038"><ele>0</ele><time>2.8284270763397217-356.5-136.10000610351563T3.75:0:0Z</time></trkpt>
<trkpt lat="45.831763" lon="1.332094"><ele>0</ele><time>2.8284270763397217-357.8999938964844-141.6999969482422T3.535533905029297:0:0Z</time></trkpt>
<trkpt lat="45.831713" lon="1.332156"><ele>0</ele><time>2.8284270763397217-358.0-139.10000610351563T3.75:0:0Z</time></trkpt>
<trkpt lat="45.831667" lon="1.332206"><ele>0</ele><time>2.8284270763397217-358.29998779296875-144.5T3.5:0:0Z</time></trkpt>
<trkpt lat="45.831613" lon="1.332268"><ele>0</ele><time>2.8284270763397217-357.8999938964844-140.6999969482422T3.5:0:0Z</time></trkpt>
<trkpt lat="45.831562" lon="1.332324"><ele>0</ele><time>2.8284270763397217-359.29998779296875-141.10000610351563T3.5:0:0Z</time></trkpt>
<trkpt lat="45.83151" lon="1.332386"><ele>0</ele><time>2.8284270763397217-360.1000061035156-141.3000030517578T3.75:0:0Z</time></trkpt>
<trkpt lat="45.831461" lon="1.332446"><ele>0</ele><time>2.8284270763397217-361.1000061035156-141.6999969482422T3.5:0:0Z</time></trkpt>
<trkpt lat="45.831413" lon="1.33249"><ele>0</ele><time>2.8284270763397217-360.6000061035156-145.6999969482422T3.0:0:0Z</time></trkpt>
<trkpt lat="45.831368" lon="1.332516"><ele>0</ele><time>2.8284270763397217-360.6000061035156-153.1999969482422T2.5:0:0Z</time></trkpt>
<trkpt lat="45.831313" lon="1.332568"><ele>0</ele><time>2.8284270763397217-360.5-150.1999969482422T2.25:0:0Z</time></trkpt>
<trkpt lat="45.831265" lon="1.332608"><ele>0</ele><time>2.8284270763397217-362.79998779296875-151.3000030517578T2.0615527629852295:0:0Z</time></trkpt>
<trkpt lat="45.831203" lon="1.332643"><ele>0</ele><time>3.605551242828369-362.6000061035156-155.60000610351563T3.0:0:0Z</time></trkpt>
<trkpt lat="45.831137" lon="1.332657"><ele>0</ele><time>4.242640495300293-363.1000061035156-166.3000030517578T3.5:0:0Z</time></trkpt>
<trkpt lat="45.831072" lon="1.332689"><ele>0</ele><time>4.242640495300293-363.29998779296875-164.1999969482422T3.5:0:0Z</time></trkpt>
<trkpt lat="45.831018" lon="1.33271"><ele>0</ele><time>3.605551242828369-363.8999938964844-158.89999389648438T3.0:0:0Z</time></trkpt>
<trkpt lat="45.830958" lon="1.332719"><ele>0</ele><time>3.605551242828369-363.3999938964844-163.8000030517578T3.0:0:0Z</time></trkpt>
<trkpt lat="45.830902" lon="1.332742"><ele>0</ele><time>3.605551242828369-362.8999938964844-160.60000610351563T3.0:0:0Z</time></trkpt>
<trkpt lat="45.83085" lon="1.332759"><ele>0</ele><time>3.605551242828369-363.8999938964844-162.5T3.0:0:0Z</time></trkpt>
<trkpt lat="45.830795" lon="1.33278"><ele>0</ele><time>3.605551242828369-365.20001220703125-160.10000610351563T3.288236618041992:0:0Z</time></trkpt>
<trkpt lat="45.830736" lon="1.332802"><ele>0</ele><time>2.8284270763397217-364.8999938964844-161.3000030517578T3.25:0:0Z</time></trkpt>
<trkpt lat="45.830678" lon="1.332832"><ele>0</ele><time>2.8284270763397217-365.0-162.39999389648438T3.25:0:0Z</time></trkpt>
<trkpt lat="45.830619" lon="1.33285"><ele>0</ele><time>3.605551242828369-365.20001220703125-162.0T3.0:0:0Z</time></trkpt>
<trkpt lat="45.830567" lon="1.332873"><ele>0</ele><time>2.8284270763397217-366.1000061035156-161.39999389648438T3.041381359100342:0:0Z</time></trkpt>
<trkpt lat="45.83052" lon="1.332902"><ele>0</ele><time>2.8284270763397217-366.6000061035156-160.1999969482422T2.75:0:0Z</time></trkpt>
<trkpt lat="45.830467" lon="1.332931"><ele>0</ele><time>3.605551242828369-367.1000061035156-163.39999389648438T3.0:0:0Z</time></trkpt>
<trkpt lat="45.830425" lon="1.332963"><ele>0</ele><time>3.605551242828369-367.0-156.8000030517578T2.75:0:0Z</time></trkpt>
<trkpt lat="45.830369" lon="1.332988"><ele>0</ele><time>4.242640495300293-367.8999938964844-158.60000610351563T3.0:0:0Z</time></trkpt>
<trkpt lat="45.830306" lon="1.333022"><ele>0</ele><time>3.605551242828369-368.79998779296875-154.5T3.0:0:0Z</time></trkpt>
<trkpt lat="45.830242" lon="1.333047"><ele>0</ele><time>3.605551242828369-369.20001220703125-156.89999389648438T3.5:0:0Z</time></trkpt>
<trkpt lat="45.830187" lon="1.333073"><ele>0</ele><time>4.242640495300293-369.5-159.5T3.25:0:0Z</time></trkpt>
<trkpt lat="45.830117" lon="1.333098"><ele>0</ele><time>4.242640495300293-370.5-163.6999969482422T3.25:0:0Z</time></trkpt>
<trkpt lat="45.830062" lon="1.33311"><ele>0</ele><time>4.242640495300293-371.1000061035156-166.39999389648438T3.25:0:0Z</time></trkpt>
<trkpt lat="45.830008" lon="1.333145"><ele>0</ele><time>5.0-371.3999938964844-162.10000610351563T3.25:0:0Z</time></trkpt>
<trkpt lat="45.829958" lon="1.333183"><ele>0</ele><time>6.7082037925720215-372.5-158.5T3.0:0:0Z</time></trkpt>
<trkpt lat="45.829915" lon="1.333234"><ele>0</ele><time>5.0-375.3999938964844-153.1999969482422T3.1622776985168457:0:0Z</time></trkpt>
<trkpt lat="45.829859" lon="1.333264"><ele>0</ele><time>5.0-376.20001220703125-155.10000610351563T3.041381359100342:0:0Z</time></trkpt>
<trkpt lat="45.829806" lon="1.333271"><ele>0</ele><time>5.0-377.70001220703125-164.8000030517578T3.25:0:0Z</time></trkpt>
<trkpt lat="45.829737" lon="1.333299"><ele>0</ele><time>6.7082037925720215-378.0-163.6999969482422T3.5:0:0Z</time></trkpt>
<trkpt lat="45.829647" lon="1.333294"><ele>0</ele><time>7.211102485656738-378.70001220703125-172.89999389648438T3.25:0:0Z</time></trkpt>
<trkpt lat="45.829584" lon="1.333281"><ele>0</ele><time>6.7082037925720215-375.79998779296875-167.89999389648438T3.25:0:0Z</time></trkpt>
<trkpt lat="45.829529" lon="1.333344"><ele>0</ele><time>5.0-375.0-144.8000030517578T3.5:0:0Z</time></trkpt>
<trkpt lat="45.829492" lon="1.333432"><ele>0</ele><time>3.605551242828369-374.0-128.6999969482422T3.783186435699463:0:0Z</time></trkpt>
<trkpt lat="45.829448" lon="1.333514"><ele>0</ele><time>3.605551242828369-373.5-127.0T4.031128883361816:0:0Z</time></trkpt>
<trkpt lat="45.829395" lon="1.333601"><ele>0</ele><time>5.0-373.29998779296875-128.5T4.0:0:0Z</time></trkpt>
<trkpt lat="45.829375" lon="1.33371"><ele>0</ele><time>3.605551242828369-374.20001220703125-116.0999984741211T4.5:0:0Z</time></trkpt>
<trkpt lat="45.82933" lon="1.333797"><ele>0</ele><time>3.605551242828369-371.5-117.0T4.25:0:0Z</time></trkpt>
<trkpt lat="45.829301" lon="1.333893"><ele>0</ele><time>3.605551242828369-371.3999938964844-110.69999694824219T4.279310703277588:0:0Z</time></trkpt>
<trkpt lat="45.829266" lon="1.33398"><ele>0</ele><time>2.8284270763397217-370.20001220703125-120.69999694824219T4.0:0:0Z</time></trkpt>
<trkpt lat="45.829235" lon="1.334078"><ele>0</ele><time>2.8284270763397217-371.29998779296875-114.80000305175781T4.031128883361816:0:0Z</time></trkpt>
<trkpt lat="45.829207" lon="1.334173"><ele>0</ele><time>2.8284270763397217-372.0-105.80000305175781T4.123105525970459:0:0Z</time></trkpt>
<trkpt lat="45.829185" lon="1.334263"><ele>0</ele><time>2.8284270763397217-373.0-112.30000305175781T3.783186435699463:0:0Z</time></trkpt>
<trkpt lat="45.829159" lon="1.33435"><ele>0</ele><time>2.8284270763397217-373.3999938964844-112.0999984741211T3.75:0:0Z</time></trkpt>
<trkpt lat="45.82913" lon="1.334442"><ele>0</ele><time>3.605551242828369-373.70001220703125-113.19999694824219T3.75:0:0Z</time></trkpt>
<trkpt lat="45.829106" lon="1.334535"><ele>0</ele><time>3.605551242828369-374.6000061035156-111.9000015258789T3.783186435699463:0:0Z</time></trkpt>
<trkpt lat="45.829079" lon="1.334629"><ele>0</ele><time>3.605551242828369-374.8999938964844-111.5999984741211T3.75:0:0Z</time></trkpt>
<trkpt lat="45.829046" lon="1.334718"><ele>0</ele><time>3.605551242828369-375.20001220703125-113.69999694824219T3.75:0:0Z</time></trkpt>
<trkpt lat="45.829012" lon="1.3348"><ele>0</ele><time>5.0-375.6000061035156-115.80000305175781T3.5:0:0Z</time></trkpt>
<trkpt lat="45.829005" lon="1.334893"><ele>0</ele><time>6.7082037925720215-375.70001220703125-107.9000015258789T3.5:0:0Z</time></trkpt>
<trkpt lat="45.828961" lon="1.334974"><ele>0</ele><time>6.7082037925720215-376.5-114.69999694824219T3.5:0:0Z</time></trkpt>
<trkpt lat="45.828929" lon="1.335032"><ele>0</ele><time>6.7082037925720215-376.3999938964844-116.5999984741211T4.0:0:0Z</time></trkpt>
<trkpt lat="45.82889" lon="1.335069"><ele>0</ele><time>6.7082037925720215-375.5-121.80000305175781T3.75:0:0Z</time></trkpt>
<trkpt lat="45.828868" lon="1.335156"><ele>0</ele><time>6.7082037925720215-376.0-117.5T3.25:0:0Z</time></trkpt>
<trkpt lat="45.828836" lon="1.335239"><ele>0</ele><time>6.7082037925720215-376.29998779296875-117.19999694824219T3.25:0:0Z</time></trkpt>
<trkpt lat="45.82883" lon="1.335303"><ele>0</ele><time>6.7082037925720215-377.0-114.19999694824219T2.75:0:0Z</time></trkpt>
<trkpt lat="45.828794" lon="1.335342"><ele>0</ele><time>8.5440034866333-376.8999938964844-118.5T3.0:0:0Z</time></trkpt>
<trkpt lat="45.828757" lon="1.33546"><ele>0</ele><time>6.7082037925720215-377.70001220703125-112.69999694824219T3.75:0:0Z</time></trkpt>
<trkpt lat="45.828734" lon="1.335538"><ele>0</ele><time>6.7082037925720215-377.70001220703125-117.19999694824219T3.5:0:0Z</time></trkpt>
<trkpt lat="45.828724" lon="1.335617"><ele>0</ele><time>4.4721360206604-379.29998779296875-90.30000305175781T3.4003677368164063:0:0Z</time></trkpt>
<trkpt lat="45.828686" lon="1.335695"><ele>0</ele><time>3.605551242828369-378.5-108.5999984741211T3.535533905029297:0:0Z</time></trkpt>
<trkpt lat="45.828634" lon="1.335839"><ele>0</ele><time>2.8284270763397217-377.29998779296875-109.4000015258789T3.75:0:0Z</time></trkpt>
<trkpt lat="45.828616" lon="1.335898"><ele>0</ele><time>2.8284270763397217-377.20001220703125-108.30000305175781T4.0:0:0Z</time></trkpt>
<trkpt lat="45.828595" lon="1.336005"><ele>0</ele><time>2.8284270763397217-377.29998779296875-107.69999694824219T4.0:0:0Z</time></trkpt>
<trkpt lat="45.828573" lon="1.336112"><ele>0</ele><time>2.8284270763397217-377.5-104.9000015258789T4.25:0:0Z</time></trkpt>
<trkpt lat="45.828554" lon="1.336214"><ele>0</ele><time>2.8284270763397217-377.5-107.80000305175781T4.0:0:0Z</time></trkpt>
<trkpt lat="45.828536" lon="1.336316"><ele>0</ele><time>2.8284270763397217-376.79998779296875-105.0999984741211T4.0:0:0Z</time></trkpt>
<trkpt lat="45.828529" lon="1.336421"><ele>0</ele><time>2.8284270763397217-376.8999938964844-94.9000015258789T3.5:0:0Z</time></trkpt>
<trkpt lat="45.828504" lon="1.336517"><ele>0</ele><time>2.8284270763397217-375.5-104.4000015258789T3.535533905029297:0:0Z</time></trkpt>
<trkpt lat="45.828477" lon="1.336613"><ele>0</ele><time>2.8284270763397217-375.3999938964844-110.19999694824219T3.75:0:0Z</time></trkpt>
<trkpt lat="45.828449" lon="1.336709"><ele>0</ele><time>2.8284270763397217-378.8999938964844-110.5999984741211T3.640054941177368:0:0Z</time></trkpt>
<trkpt lat="45.828413" lon="1.336793"><ele>0</ele><time>2.8284270763397217-378.79998779296875-118.9000015258789T3.783186435699463:0:0Z</time></trkpt>
<trkpt lat="45.828379" lon="1.336874"><ele>0</ele><time>2.8284270763397217-379.29998779296875-116.4000015258789T3.5:0:0Z</time></trkpt>
<trkpt lat="45.828346" lon="1.336944"><ele>0</ele><time>2.8284270763397217-379.29998779296875-119.30000305175781T2.75:0:0Z</time></trkpt>
<trkpt lat="45.828322" lon="1.337004"><ele>0</ele><time>2.8284270763397217-379.79998779296875-121.4000015258789T2.75:0:0Z</time></trkpt>
<trkpt lat="45.828291" lon="1.337073"><ele>0</ele><time>2.8284270763397217-379.3999938964844-120.5T3.0:0:0Z</time></trkpt>
<trkpt lat="45.828271" lon="1.337147"><ele>0</ele><time>2.8284270763397217-379.5-113.0T3.0:0:0Z</time></trkpt>
<trkpt lat="45.828242" lon="1.337217"><ele>0</ele><time>3.605551242828369-379.6000061035156-117.0999984741211T3.0:0:0Z</time></trkpt>
<trkpt lat="45.828198" lon="1.337289"><ele>0</ele><time>3.605551242828369-379.70001220703125-122.30000305175781T3.0:0:0Z</time></trkpt>
<trkpt lat="45.82819" lon="1.337356"><ele>0</ele><time>2.8284270763397217-381.20001220703125-63.400001525878906T3.605551242828369:0:0Z</time></trkpt>
<trkpt lat="45.828174" lon="1.337446"><ele>0</ele><time>2.8284270763397217-382.1000061035156-102.69999694824219T2.25:0:0Z</time></trkpt>
<trkpt lat="45.828143" lon="1.337517"><ele>0</ele><time>2.8284270763397217-382.6000061035156-121.30000305175781T2.7950849533081055:0:0Z</time></trkpt>
<trkpt lat="45.828116" lon="1.337583"><ele>0</ele><time>2.8284270763397217-382.79998779296875-122.19999694824219T2.75:0:0Z</time></trkpt>
<trkpt lat="45.828097" lon="1.337659"><ele>0</ele><time>2.8284270763397217-386.0-114.9000015258789T3.1622776985168457:0:0Z</time></trkpt>
<trkpt lat="45.828074" lon="1.337729"><ele>0</ele><time>2.8284270763397217-386.6000061035156-109.9000015258789T2.7950849533081055:0:0Z</time></trkpt>
<trkpt lat="45.828062" lon="1.337806"><ele>0</ele><time>2.8284270763397217-389.29998779296875-101.9000015258789T3.132491111755371:0:0Z</time></trkpt>
<trkpt lat="45.828061" lon="1.337886"><ele>0</ele><time>2.8284270763397217-390.1000061035156-91.0999984741211T2.7950849533081055:0:0Z</time></trkpt>
<trkpt lat="45.82804" lon="1.33795"><ele>0</ele><time>2.8284270763397217-390.0-106.0999984741211T2.5495097637176514:0:0Z</time></trkpt>
<trkpt lat="45.827988" lon="1.33801"><ele>0</ele><time>2.8284270763397217-389.3999938964844-124.30000305175781T2.75:0:0Z</time></trkpt>
<trkpt lat="45.827951" lon="1.338078"><ele>0</ele><time>2.8284270763397217-388.70001220703125-121.4000015258789T3.0:0:0Z</time></trkpt>
<trkpt lat="45.827899" lon="1.338188"><ele>0</ele><time>2.8284270763397217-388.29998779296875-121.30000305175781T3.0:0:0Z</time></trkpt>
<trkpt lat="45.827872" lon="1.338249"><ele>0</ele><time>2.8284270763397217-388.29998779296875-122.69999694824219T2.75:0:0Z</time></trkpt>
<trkpt lat="45.82785" lon="1.33831"><ele>0</ele><time>2.8284270763397217-388.5-119.0999984741211T2.5:0:0Z</time></trkpt>
<trkpt lat="45.82782" lon="1.33838"><ele>0</ele><time>2.8284270763397217-389.0-118.9000015258789T2.0:0:0Z</time></trkpt>
<trkpt lat="45.827787" lon="1.338442"><ele>0</ele><time>2.8284270763397217-390.20001220703125-129.39999389648438T2.0:0:0Z</time></trkpt>
<trkpt lat="45.827753" lon="1.338516"><ele>0</ele><time>2.8284270763397217-393.1000061035156-136.3000030517578T2.2360680103302:0:0Z</time></trkpt>
<trkpt lat="45.827722" lon="1.338566"><ele>0</ele><time>2.8284270763397217-394.1000061035156-137.3000030517578T2.3048861026763916:0:0Z</time></trkpt>
<trkpt lat="45.827709" lon="1.338655"><ele>0</ele><time>2.8284270763397217-394.6000061035156-117.4000015258789T2.3048861026763916:0:0Z</time></trkpt>
<trkpt lat="45.827691" lon="1.33872"><ele>0</ele><time>2.8284270763397217-394.0-116.5999984741211T2.0:0:0Z</time></trkpt>
<trkpt lat="45.827673" lon="1.338783"><ele>0</ele><time>3.605551242828369-393.8999938964844-115.19999694824219T2.25:0:0Z</time></trkpt>
<trkpt lat="45.827655" lon="1.338846"><ele>0</ele><time>2.8284270763397217-393.29998779296875-111.19999694824219T2.5:0:0Z</time></trkpt>
<trkpt lat="45.827638" lon="1.338912"><ele>0</ele><time>2.8284270763397217-393.20001220703125-105.30000305175781T2.5:0:0Z</time></trkpt>
<trkpt lat="45.827654" lon="1.338991"><ele>0</ele><time>2.8284270763397217-393.79998779296875-76.9000015258789T2.25:0:0Z</time></trkpt>
<trkpt lat="45.827663" lon="1.339058"><ele>0</ele><time>2.8284270763397217-394.3999938964844-71.5999984741211T2.5:0:0Z</time></trkpt>
<trkpt lat="45.827671" lon="1.339146"><ele>0</ele><time>2.8284270763397217-394.70001220703125-82.0999984741211T2.25:0:0Z</time></trkpt>
<trkpt lat="45.827671" lon="1.33921"><ele>0</ele><time>2.8284270763397217-396.0-89.9000015258789T1.1180340051651:0:0Z</time></trkpt>
<trkpt lat="45.827647" lon="1.339291"><ele>0</ele><time>2.8284270763397217-397.3999938964844-105.69999694824219T2.0615527629852295:0:0Z</time></trkpt>
<trkpt lat="45.827613" lon="1.339375"><ele>0</ele><time>2.8284270763397217-399.70001220703125-113.19999694824219T2.3048861026763916:0:0Z</time></trkpt>
<trkpt lat="45.827588" lon="1.339431"><ele>0</ele><time>2.8284270763397217-400.29998779296875-116.4000015258789T2.5495097637176514:0:0Z</time></trkpt>
<trkpt lat="45.827568" lon="1.339511"><ele>0</ele><time>2.8284270763397217-403.1000061035156-112.5999984741211T2.3048861026763916:0:0Z</time></trkpt>
<trkpt lat="45.827525" lon="1.339563"><ele>0</ele><time>2.8284270763397217-402.5-125.69999694824219T2.75:0:0Z</time></trkpt>
<trkpt lat="45.827483" lon="1.339627"><ele>0</ele><time>2.8284270763397217-400.8999938964844-124.19999694824219T3.0:0:0Z</time></trkpt>
<trkpt lat="45.827438" lon="1.339692"><ele>0</ele><time>2.8284270763397217-400.1000061035156-124.4000015258789T3.25:0:0Z</time></trkpt>
<trkpt lat="45.827409" lon="1.339761"><ele>0</ele><time>2.8284270763397217-399.79998779296875-121.0999984741211T3.0:0:0Z</time></trkpt>
<trkpt lat="45.827372" lon="1.339819"><ele>0</ele><time>2.8284270763397217-399.20001220703125-126.0999984741211T3.0:0:0Z</time></trkpt>
<trkpt lat="45.827329" lon="1.339917"><ele>0</ele><time>2.8284270763397217-399.70001220703125-123.19999694824219T3.0:0:0Z</time></trkpt>
<trkpt lat="45.827296" lon="1.339988"><ele>0</ele><time>2.8284270763397217-399.8999938964844-125.30000305175781T3.25:0:0Z</time></trkpt>
<trkpt lat="45.827263" lon="1.34006"><ele>0</ele><time>2.8284270763397217-400.1000061035156-123.5999984741211T3.25:0:0Z</time></trkpt>
<trkpt lat="45.827226" lon="1.34013"><ele>0</ele><time>2.8284270763397217-400.5-124.5999984741211T3.5:0:0Z</time></trkpt>
<trkpt lat="45.827187" lon="1.340203"><ele>0</ele><time>2.8284270763397217-400.20001220703125-121.9000015258789T3.5:0:0Z</time></trkpt>
<trkpt lat="45.82715" lon="1.34028"><ele>0</ele><time>2.8284270763397217-400.20001220703125-124.4000015258789T3.5:0:0Z</time></trkpt>
<trkpt lat="45.827116" lon="1.340361"><ele>0</ele><time>2.8284270763397217-400.5-122.30000305175781T3.75:0:0Z</time></trkpt>
<trkpt lat="45.827076" lon="1.340439"><ele>0</ele><time>2.8284270763397217-401.0-124.5999984741211T3.75:0:0Z</time></trkpt>
<trkpt lat="45.827033" lon="1.340518"><ele>0</ele><time>2.8284270763397217-401.0-123.80000305175781T4.0:0:0Z</time></trkpt>
<trkpt lat="45.826995" lon="1.340607"><ele>0</ele><time>2.8284270763397217-401.1000061035156-123.5999984741211T4.0:0:0Z</time></trkpt>
<trkpt lat="45.826946" lon="1.34069"><ele>0</ele><time>2.8284270763397217-399.8999938964844-126.0999984741211T4.0:0:0Z</time></trkpt>
<trkpt lat="45.826913" lon="1.340766"><ele>0</ele><time>2.8284270763397217-401.20001220703125-121.69999694824219T3.535533905029297:0:0Z</time></trkpt>
<trkpt lat="45.826878" lon="1.340848"><ele>0</ele><time>2.8284270763397217-401.1000061035156-121.80000305175781T3.75:0:0Z</time></trkpt>
<trkpt lat="45.826841" lon="1.34093"><ele>0</ele><time>2.8284270763397217-401.29998779296875-121.4000015258789T3.75:0:0Z</time></trkpt>
<trkpt lat="45.826798" lon="1.341017"><ele>0</ele><time>2.8284270763397217-401.79998779296875-122.69999694824219T4.031128883361816:0:0Z</time></trkpt>
<trkpt lat="45.826762" lon="1.341092"><ele>0</ele><time>2.8284270763397217-402.1000061035156-124.4000015258789T4.031128883361816:0:0Z</time></trkpt>
<trkpt lat="45.826722" lon="1.341182"><ele>0</ele><time>2.8284270763397217-402.3999938964844-118.9000015258789T4.031128883361816:0:0Z</time></trkpt>
<trkpt lat="45.826678" lon="1.341266"><ele>0</ele><time>2.8284270763397217-402.29998779296875-125.0999984741211T4.0:0:0Z</time></trkpt>
<trkpt lat="45.826641" lon="1.341353"><ele>0</ele><time>2.8284270763397217-402.79998779296875-122.80000305175781T4.0:0:0Z</time></trkpt>
<trkpt lat="45.8266" lon="1.341439"><ele>0</ele><time>2.8284270763397217-403.0-127.0T4.0:0:0Z</time></trkpt>
<trkpt lat="45.826566" lon="1.34152"><ele>0</ele><time>2.8284270763397217-402.8999938964844-123.0999984741211T3.75:0:0Z</time></trkpt>
<trkpt lat="45.826519" lon="1.341622"><ele>0</ele><time>2.8284270763397217-402.8999938964844-122.30000305175781T4.5:0:0Z</time></trkpt>
<trkpt lat="45.826488" lon="1.341674"><ele>0</ele><time>2.8284270763397217-402.8999938964844-125.5999984741211T4.75:0:0Z</time></trkpt>
<trkpt lat="45.826437" lon="1.341775"><ele>0</ele><time>2.8284270763397217-402.5-124.5T4.75:0:0Z</time></trkpt>
<trkpt lat="45.826392" lon="1.341877"><ele>0</ele><time>2.8284270763397217-402.5-122.4000015258789T4.75:0:0Z</time></trkpt>
<trkpt lat="45.826339" lon="1.341982"><ele>0</ele><time>3.605551242828369-402.79998779296875-125.5T4.75:0:0Z</time></trkpt>
<trkpt lat="45.82631" lon="1.342034"><ele>0</ele><time>3.605551242828369-402.79998779296875-127.0T4.75:0:0Z</time></trkpt>
<trkpt lat="45.826268" lon="1.342125"><ele>0</ele><time>3.605551242828369-402.8999938964844-124.5999984741211T4.5:0:0Z</time></trkpt>
<trkpt lat="45.826235" lon="1.342218"><ele>0</ele><time>2.8284270763397217-402.79998779296875-119.9000015258789T4.0:0:0Z</time></trkpt>
<trkpt lat="45.82619" lon="1.342304"><ele>0</ele><time>2.8284270763397217-402.3999938964844-121.5T4.0:0:0Z</time></trkpt>
<trkpt lat="45.826142" lon="1.34239"><ele>0</ele><time>3.605551242828369-402.70001220703125-124.4000015258789T4.0:0:0Z</time></trkpt>
<trkpt lat="45.826101" lon="1.342481"><ele>0</ele><time>3.605551242828369-402.8999938964844-123.0999984741211T4.0:0:0Z</time></trkpt>
<trkpt lat="45.826068" lon="1.342571"><ele>0</ele><time>3.605551242828369-402.6000061035156-119.30000305175781T4.0:0:0Z</time></trkpt>
<trkpt lat="45.826026" lon="1.342675"><ele>0</ele><time>3.605551242828369-402.70001220703125-120.0T4.5:0:0Z</time></trkpt>
<trkpt lat="45.826007" lon="1.342766"><ele>0</ele><time>3.605551242828369-403.20001220703125-116.0999984741211T4.0:0:0Z</time></trkpt>
<trkpt lat="45.825975" lon="1.342848"><ele>0</ele><time>3.605551242828369-403.29998779296875-117.19999694824219T3.75:0:0Z</time></trkpt>
<trkpt lat="45.825945" lon="1.34293"><ele>0</ele><time>2.8284270763397217-404.1000061035156-119.19999694824219T3.5:0:0Z</time></trkpt>
<trkpt lat="45.825923" lon="1.343017"><ele>0</ele><time>2.8284270763397217-404.8999938964844-112.0999984741211T3.5:0:0Z</time></trkpt>
<trkpt lat="45.82589" lon="1.34309"><ele>0</ele><time>2.8284270763397217-405.20001220703125-121.4000015258789T3.288236618041992:0:0Z</time></trkpt>
<trkpt lat="45.82586" lon="1.343171"><ele>0</ele><time>2.8284270763397217-405.70001220703125-117.69999694824219T3.5:0:0Z</time></trkpt>
<trkpt lat="45.825835" lon="1.343256"><ele>0</ele><time>3.605551242828369-405.3999938964844-115.5T3.5:0:0Z</time></trkpt>
<trkpt lat="45.825819" lon="1.343353"><ele>0</ele><time>3.605551242828369-406.8999938964844-110.30000305175781T3.75:0:0Z</time></trkpt>
<trkpt lat="45.825795" lon="1.343441"><ele>0</ele><time>3.605551242828369-407.20001220703125-111.0999984741211T3.5:0:0Z</time></trkpt>
<trkpt lat="45.825761" lon="1.343519"><ele>0</ele><time>3.605551242828369-406.70001220703125-113.80000305175781T3.25:0:0Z</time></trkpt>
<trkpt lat="45.825732" lon="1.343604"><ele>0</ele><time>3.605551242828369-407.1000061035156-114.0T3.25:0:0Z</time></trkpt>
<trkpt lat="45.825697" lon="1.343701"><ele>0</ele><time>3.605551242828369-406.6000061035156-117.69999694824219T4.031128883361816:0:0Z</time></trkpt>
<trkpt lat="45.825664" lon="1.343794"><ele>0</ele><time>3.605551242828369-405.79998779296875-115.19999694824219T4.0:0:0Z</time></trkpt>
<trkpt lat="45.82567" lon="1.343874"><ele>0</ele><time>3.605551242828369-408.3999938964844-84.4000015258789T3.1622776985168457:0:0Z</time></trkpt>
<trkpt lat="45.825645" lon="1.343948"><ele>0</ele><time>2.8284270763397217-409.3999938964844-111.9000015258789T3.041381359100342:0:0Z</time></trkpt>
<trkpt lat="45.825618" lon="1.344013"><ele>0</ele><time>2.8284270763397217-408.29998779296875-116.19999694824219T3.041381359100342:0:0Z</time></trkpt>
<trkpt lat="45.825583" lon="1.34409"><ele>0</ele><time>2.8284270763397217-407.5-118.0T2.5:0:0Z</time></trkpt>
<trkpt lat="45.825538" lon="1.344148"><ele>0</ele><time>2.8284270763397217-406.3999938964844-141.8000030517578T1.820027470588684:0:0Z</time></trkpt>
<trkpt lat="45.825494" lon="1.344171"><ele>0</ele><time>2.8284270763397217-407.20001220703125-168.1999969482422T1.5:0:0Z</time></trkpt>
<trkpt lat="45.825434" lon="1.344171"><ele>0</ele><time>2.8284270763397217-407.1000061035156-184.5T1.5:0:0Z</time></trkpt>
<trkpt lat="45.825383" lon="1.344174"><ele>0</ele><time>3.605551242828369-406.20001220703125-182.8000030517578T1.5:0:0Z</time></trkpt>
<trkpt lat="45.82533" lon="1.34417"><ele>0</ele><time>3.605551242828369-405.6000061035156-188.1999969482422T0.5:0:0Z</time></trkpt>
<trkpt lat="45.82526" lon="1.34417"><ele>0</ele><time>3.605551242828369-405.8999938964844-176.5T1.75:0:0Z</time></trkpt>
<trkpt lat="45.825214" lon="1.344138"><ele>0</ele><time>3.605551242828369-412.5-182.60000610351563T2.015564441680908:0:0Z</time></trkpt>
<trkpt lat="45.825162" lon="1.344133"><ele>0</ele><time>3.605551242828369-413.1000061035156-185.10000610351563T2.3048861026763916:0:0Z</time></trkpt>
<trkpt lat="45.825071" lon="1.344136"><ele>0</ele><time>3.605551242828369-412.1000061035156-179.5T3.0:0:0Z</time></trkpt>
<trkpt lat="45.825017" lon="1.344128"><ele>0</ele><time>3.605551242828369-411.29998779296875-183.6999969482422T3.5:0:0Z</time></trkpt>
<trkpt lat="45.824941" lon="1.344113"><ele>0</ele><time>3.605551242828369-413.0-184.6999969482422T3.75:0:0Z</time></trkpt>
<trkpt lat="45.824862" lon="1.344091"><ele>0</ele><time>3.605551242828369-412.29998779296875-189.1999969482422T4.0:0:0Z</time></trkpt>
<trkpt lat="45.824784" lon="1.34408"><ele>0</ele><time>3.605551242828369-412.29998779296875-186.60000610351563T3.75:0:0Z</time></trkpt>
<trkpt lat="45.824737" lon="1.344063"><ele>0</ele><time>3.605551242828369-411.70001220703125-187.10000610351563T4.0:0:0Z</time></trkpt>
<trkpt lat="45.824688" lon="1.344042"><ele>0</ele><time>3.605551242828369-410.3999938964844-190.39999389648438T4.5:0:0Z</time></trkpt>
<trkpt lat="45.824639" lon="1.344028"><ele>0</ele><time>3.605551242828369-410.20001220703125-190.1999969482422T4.25:0:0Z</time></trkpt>
<trkpt lat="45.824555" lon="1.344008"><ele>0</ele><time>3.605551242828369-408.79998779296875-190.8000030517578T4.5:0:0Z</time></trkpt>
<trkpt lat="45.824479" lon="1.34401"><ele>0</ele><time>3.605551242828369-409.29998779296875-186.60000610351563T4.5:0:0Z</time></trkpt>
<trkpt lat="45.824412" lon="1.343995"><ele>0</ele><time>3.605551242828369-409.79998779296875-190.3000030517578T4.0:0:0Z</time></trkpt>
<trkpt lat="45.824324" lon="1.343975"><ele>0</ele><time>3.605551242828369-410.0-187.1999969482422T4.0:0:0Z</time></trkpt>
<trkpt lat="45.82423" lon="1.343967"><ele>0</ele><time>2.8284270763397217-409.6000061035156-187.8000030517578T4.5:0:0Z</time></trkpt>
<trkpt lat="45.824154" lon="1.343966"><ele>0</ele><time>3.605551242828369-408.79998779296875-185.39999389648438T4.25:0:0Z</time></trkpt>
<trkpt lat="45.824073" lon="1.343946"><ele>0</ele><time>2.8284270763397217-406.3999938964844-184.5T4.5:0:0Z</time></trkpt>
<trkpt lat="45.823976" lon="1.343933"><ele>0</ele><time>2.8284270763397217-406.0-183.3000030517578T5.024937629699707:0:0Z</time></trkpt>
<trkpt lat="45.823892" lon="1.343913"><ele>0</ele><time>2.8284270763397217-407.70001220703125-185.8000030517578T4.75:0:0Z</time></trkpt>
<trkpt lat="45.823845" lon="1.343913"><ele>0</ele><time>2.8284270763397217-407.29998779296875-185.89999389648438T4.75:0:0Z</time></trkpt>
<trkpt lat="45.823799" lon="1.343905"><ele>0</ele><time>2.8284270763397217-407.1000061035156-186.89999389648438T4.75:0:0Z</time></trkpt>
<trkpt lat="45.823753" lon="1.343899"><ele>0</ele><time>3.605551242828369-407.29998779296875-186.6999969482422T4.75:0:0Z</time></trkpt>
<trkpt lat="45.823667" lon="1.343895"><ele>0</ele><time>4.242640495300293-407.70001220703125-183.0T4.5:0:0Z</time></trkpt>
<trkpt lat="45.823594" lon="1.34386"><ele>0</ele><time>3.605551242828369-407.70001220703125-184.39999389648438T4.25:0:0Z</time></trkpt>
<trkpt lat="45.823548" lon="1.343854"><ele>0</ele><time>3.605551242828369-407.29998779296875-188.39999389648438T4.5:0:0Z</time></trkpt>
<trkpt lat="45.823459" lon="1.343851"><ele>0</ele><time>3.605551242828369-406.3999938964844-185.3000030517578T4.25:0:0Z</time></trkpt>
<trkpt lat="45.823365" lon="1.343866"><ele>0</ele><time>2.8284270763397217-405.20001220703125-174.6999969482422T5.024937629699707:0:0Z</time></trkpt>
<trkpt lat="45.823319" lon="1.343867"><ele>0</ele><time>2.8284270763397217-405.3999938964844-179.3000030517578T5.024937629699707:0:0Z</time></trkpt>
<trkpt lat="45.823269" lon="1.343862"><ele>0</ele><time>3.605551242828369-405.5-180.3000030517578T5.0:0:0Z</time></trkpt>
<trkpt lat="45.823227" lon="1.343829"><ele>0</ele><time>3.605551242828369-404.79998779296875-194.0T5.0:0:0Z</time></trkpt>
<trkpt lat="45.823175" lon="1.343799"><ele>0</ele><time>3.605551242828369-404.5-196.60000610351563T5.25:0:0Z</time></trkpt>
<trkpt lat="45.823127" lon="1.343755"><ele>0</ele><time>2.8284270763397217-404.5-204.39999389648438T5.5:0:0Z</time></trkpt>
<trkpt lat="45.823061" lon="1.34365"><ele>0</ele><time>2.8284270763397217-403.70001220703125-216.1999969482422T5.2737555503845215:0:0Z</time></trkpt>
<trkpt lat="45.823023" lon="1.343611"><ele>0</ele><time>2.8284270763397217-403.3999938964844-215.8000030517578T5.5:0:0Z</time></trkpt>
<trkpt lat="45.822981" lon="1.343568"><ele>0</ele><time>2.8284270763397217-403.1000061035156-215.39999389648438T5.25:0:0Z</time></trkpt>
<trkpt lat="45.822902" lon="1.343493"><ele>0</ele><time>2.8284270763397217-403.1000061035156-215.0T5.0:0:0Z</time></trkpt>
<trkpt lat="45.822863" lon="1.343459"><ele>0</ele><time>2.8284270763397217-403.1000061035156-213.39999389648438T5.25:0:0Z</time></trkpt>
<trkpt lat="45.822819" lon="1.343417"><ele>0</ele><time>2.8284270763397217-402.6000061035156-212.60000610351563T5.5:0:0Z</time></trkpt>
<trkpt lat="45.822778" lon="1.343373"><ele>0</ele><time>3.605551242828369-402.1000061035156-213.39999389648438T5.5:0:0Z</time></trkpt>
<trkpt lat="45.82274" lon="1.343336"><ele>0</ele><time>3.605551242828369-403.0-212.8000030517578T5.25:0:0Z</time></trkpt>
<trkpt lat="45.8227" lon="1.343305"><ele>0</ele><time>3.605551242828369-402.1000061035156-210.0T5.024937629699707:0:0Z</time></trkpt>
<trkpt lat="45.822659" lon="1.343275"><ele>0</ele><time>3.605551242828369-400.8999938964844-211.5T5.25:0:0Z</time></trkpt>
<trkpt lat="45.822617" lon="1.343246"><ele>0</ele><time>3.605551242828369-401.0-209.10000610351563T5.25:0:0Z</time></trkpt>
<trkpt lat="45.822545" lon="1.343174"><ele>0</ele><time>3.605551242828369-400.0-211.0T5.0:0:0Z</time></trkpt>
<trkpt lat="45.822489" lon="1.343136"><ele>0</ele><time>3.605551242828369-393.79998779296875-208.39999389648438T6.485560894012451:0:0Z</time></trkpt>
<trkpt lat="45.822444" lon="1.343099"><ele>0</ele><time>3.605551242828369-393.5-209.10000610351563T5.590169906616211:0:0Z</time></trkpt>
<trkpt lat="45.822379" lon="1.343038"><ele>0</ele><time>3.605551242828369-393.6000061035156-210.8000030517578T4.75:0:0Z</time></trkpt>
<trkpt lat="45.822301" lon="1.34297"><ele>0</ele><time>3.605551242828369-392.29998779296875-209.60000610351563T5.34438943862915:0:0Z</time></trkpt>
<trkpt lat="45.82223" lon="1.342903"><ele>0</ele><time>3.605551242828369-393.3999938964844-211.0T4.75:0:0Z</time></trkpt>
<trkpt lat="45.822161" lon="1.342832"><ele>0</ele><time>3.605551242828369-394.3999938964844-212.1999969482422T4.75:0:0Z</time></trkpt>
<trkpt lat="45.822114" lon="1.342784"><ele>0</ele><time>3.605551242828369-395.70001220703125-213.3000030517578T5.0:0:0Z</time></trkpt>
<trkpt lat="45.822066" lon="1.342755"><ele>0</ele><time>3.605551242828369-395.8999938964844-207.0T5.25:0:0Z</time></trkpt>
<trkpt lat="45.821988" lon="1.342677"><ele>0</ele><time>3.605551242828369-395.0-214.0T5.25:0:0Z</time></trkpt>
<trkpt lat="45.821916" lon="1.342613"><ele>0</ele><time>3.605551242828369-395.0-209.89999389648438T4.75:0:0Z</time></trkpt>
<trkpt lat="45.821876" lon="1.342579"><ele>0</ele><time>3.605551242828369-394.8999938964844-210.39999389648438T5.0:0:0Z</time></trkpt>
<trkpt lat="45.821799" lon="1.342504"><ele>0</ele><time>3.605551242828369-396.20001220703125-211.3000030517578T5.0:0:0Z</time></trkpt>
<trkpt lat="45.821761" lon="1.34246"><ele>0</ele><time>3.605551242828369-396.5-213.10000610351563T5.0:0:0Z</time></trkpt>
<trkpt lat="45.82169" lon="1.342392"><ele>0</ele><time>3.605551242828369-397.5-212.3000030517578T5.0:0:0Z</time></trkpt>
<trkpt lat="45.82162" lon="1.342318"><ele>0</ele><time>3.605551242828369-397.29998779296875-213.5T4.5:0:0Z</time></trkpt>
<trkpt lat="45.821582" lon="1.342279"><ele>0</ele><time>3.605551242828369-396.6000061035156-213.6999969482422T4.75:0:0Z</time></trkpt>
<trkpt lat="45.821544" lon="1.34224"><ele>0</ele><time>2.8284270763397217-396.6000061035156-213.60000610351563T4.5:0:0Z</time></trkpt>
<trkpt lat="45.8215" lon="1.342199"><ele>0</ele><time>2.8284270763397217-398.3999938964844-211.0T3.535533905029297:0:0Z</time></trkpt>
<trkpt lat="45.821442" lon="1.342144"><ele>0</ele><time>2.8284270763397217-398.8999938964844-213.5T3.75:0:0Z</time></trkpt>
<trkpt lat="45.821383" lon="1.34209"><ele>0</ele><time>3.605551242828369-399.8999938964844-208.8000030517578T3.5:0:0Z</time></trkpt>
<trkpt lat="45.821316" lon="1.342089"><ele>0</ele><time>3.605551242828369-400.8999938964844-183.1999969482422T3.25:0:0Z</time></trkpt>
<trkpt lat="45.82126" lon="1.342155"><ele>0</ele><time>2.8284270763397217-401.8999938964844-141.89999389648438T3.75:0:0Z</time></trkpt>
<trkpt lat="45.821203" lon="1.342209"><ele>0</ele><time>2.8284270763397217-402.8999938964844-141.60000610351563T3.783186435699463:0:0Z</time></trkpt>
<trkpt lat="45.82115" lon="1.342276"><ele>0</ele><time>2.8284270763397217-404.20001220703125-135.0T4.031128883361816:0:0Z</time></trkpt>
<trkpt lat="45.821095" lon="1.34237"><ele>0</ele><time>2.8284270763397217-405.5-125.5T4.776243209838867:0:0Z</time></trkpt>
<trkpt lat="45.821039" lon="1.342439"><ele>0</ele><time>2.8284270763397217-405.1000061035156-138.1999969482422T4.0:0:0Z</time></trkpt>
<trkpt lat="45.82094" lon="1.342569"><ele>0</ele><time>2.8284270763397217-404.79998779296875-136.3000030517578T5.024937629699707:0:0Z</time></trkpt>
<trkpt lat="45.820898" lon="1.342617"><ele>0</ele><time>2.8284270763397217-404.70001220703125-138.39999389648438T5.2737555503845215:0:0Z</time></trkpt>
<trkpt lat="45.820862" lon="1.342663"><ele>0</ele><time>2.8284270763397217-404.3999938964844-139.0T5.25:0:0Z</time></trkpt>
<trkpt lat="45.820829" lon="1.34271"><ele>0</ele><time>2.8284270763397217-404.29998779296875-135.39999389648438T5.25:0:0Z</time></trkpt>
<trkpt lat="45.820787" lon="1.342767"><ele>0</ele><time>2.8284270763397217-404.20001220703125-134.8000030517578T6.0:0:0Z</time></trkpt>
<trkpt lat="45.820749" lon="1.342817"><ele>0</ele><time>2.8284270763397217-404.29998779296875-135.10000610351563T5.75:0:0Z</time></trkpt>
<trkpt lat="45.820713" lon="1.342874"><ele>0</ele><time>3.605551242828369-404.20001220703125-133.8000030517578T6.0:0:0Z</time></trkpt>
<trkpt lat="45.820673" lon="1.342928"><ele>0</ele><time>3.605551242828369-404.20001220703125-134.89999389648438T6.0:0:0Z</time></trkpt>
<trkpt lat="45.820628" lon="1.342994"><ele>0</ele><time>4.4721360206604-404.20001220703125-134.6999969482422T6.5:0:0Z</time></trkpt>
<trkpt lat="45.820577" lon="1.343048"><ele>0</ele><time>3.605551242828369-404.5-137.1999969482422T6.5:0:0Z</time></trkpt>
<trkpt lat="45.820532" lon="1.3431"><ele>0</ele><time>3.605551242828369-404.0-135.6999969482422T6.51920223236084:0:0Z</time></trkpt>
<trkpt lat="45.820496" lon="1.343162"><ele>0</ele><time>3.605551242828369-403.6000061035156-135.8000030517578T6.51920223236084:0:0Z</time></trkpt>
<trkpt lat="45.820457" lon="1.34322"><ele>0</ele><time>3.605551242828369-403.8999938964844-136.39999389648438T6.25:0:0Z</time></trkpt>
<trkpt lat="45.820423" lon="1.343279"><ele>0</ele><time>3.605551242828369-404.3999938964844-138.8000030517578T6.0:0:0Z</time></trkpt>
<trkpt lat="45.820389" lon="1.343325"><ele>0</ele><time>3.605551242828369-404.79998779296875-137.5T5.771697998046875:0:0Z</time></trkpt>
<trkpt lat="45.820356" lon="1.343373"><ele>0</ele><time>3.605551242828369-404.6000061035156-136.8000030517578T5.5:0:0Z</time></trkpt>
<trkpt lat="45.820321" lon="1.343423"><ele>0</ele><time>3.605551242828369-404.5-134.89999389648438T5.75:0:0Z</time></trkpt>
<trkpt lat="45.820285" lon="1.343479"><ele>0</ele><time>4.4721360206604-404.6000061035156-134.3000030517578T5.75:0:0Z</time></trkpt>
<trkpt lat="45.820259" lon="1.34354"><ele>0</ele><time>4.4721360206604-404.3999938964844-128.89999389648438T5.25:0:0Z</time></trkpt>
<trkpt lat="45.820222" lon="1.343588"><ele>0</ele><time>4.4721360206604-404.0-130.89999389648438T5.25:0:0Z</time></trkpt>
<trkpt lat="45.820178" lon="1.343639"><ele>0</ele><time>4.4721360206604-403.70001220703125-138.5T5.522680282592773:0:0Z</time></trkpt>
<trkpt lat="45.820141" lon="1.343682"><ele>0</ele><time>4.4721360206604-403.79998779296875-139.39999389648438T5.75:0:0Z</time></trkpt>
<trkpt lat="45.820108" lon="1.343732"><ele>0</ele><time>4.4721360206604-403.70001220703125-137.8000030517578T5.5:0:0Z</time></trkpt>
<trkpt lat="45.820055" lon="1.343817"><ele>0</ele><time>3.605551242828369-403.8999938964844-137.60000610351563T4.25:0:0Z</time></trkpt>
<trkpt lat="45.819978" lon="1.343907"><ele>0</ele><time>4.4721360206604-403.20001220703125-140.8000030517578T5.0:0:0Z</time></trkpt>
<trkpt lat="45.819943" lon="1.343948"><ele>0</ele><time>4.4721360206604-403.0-134.39999389648438T4.75:0:0Z</time></trkpt>
<trkpt lat="45.819875" lon="1.344033"><ele>0</ele><time>4.4721360206604-402.70001220703125-142.1999969482422T4.75:0:0Z</time></trkpt>
<trkpt lat="45.819811" lon="1.344099"><ele>0</ele><time>4.4721360206604-402.8999938964844-141.10000610351563T4.5:0:0Z</time></trkpt>
<trkpt lat="45.819779" lon="1.344177"><ele>0</ele><time>4.4721360206604-402.79998779296875-129.3000030517578T4.0:0:0Z</time></trkpt>
<trkpt lat="45.81974" lon="1.344266"><ele>0</ele><time>4.4721360206604-403.6000061035156-128.39999389648438T4.0:0:0Z</time></trkpt>
<trkpt lat="45.819686" lon="1.344332"><ele>0</ele><time>4.4721360206604-404.5-132.1999969482422T4.0:0:0Z</time></trkpt>
<trkpt lat="45.819653" lon="1.344382"><ele>0</ele><time>4.4721360206604-404.3999938964844-133.10000610351563T4.25:0:0Z</time></trkpt>
<trkpt lat="45.819614" lon="1.344434"><ele>0</ele><time>3.605551242828369-404.70001220703125-136.0T4.5:0:0Z</time></trkpt>
<trkpt lat="45.819573" lon="1.344488"><ele>0</ele><time>3.605551242828369-404.79998779296875-137.10000610351563T4.5:0:0Z</time></trkpt>
<trkpt lat="45.819521" lon="1.344578"><ele>0</ele><time>3.605551242828369-404.20001220703125-132.89999389648438T4.5:0:0Z</time></trkpt>
<trkpt lat="45.819478" lon="1.344635"><ele>0</ele><time>3.605551242828369-403.6000061035156-133.1999969482422T4.75:0:0Z</time></trkpt>
<trkpt lat="45.819428" lon="1.344681"><ele>0</ele><time>3.605551242828369-403.5-137.10000610351563T5.25:0:0Z</time></trkpt>
<trkpt lat="45.819388" lon="1.344733"><ele>0</ele><time>3.605551242828369-404.1000061035156-140.60000610351563T5.0:0:0Z</time></trkpt>
<trkpt lat="45.819325" lon="1.34481"><ele>0</ele><time>3.605551242828369-406.0-144.39999389648438T4.25:0:0Z</time></trkpt>
<trkpt lat="45.819283" lon="1.344834"><ele>0</ele><time>3.605551242828369-406.20001220703125-143.39999389648438T3.75:0:0Z</time></trkpt>
<trkpt lat="45.819218" lon="1.344877"><ele>0</ele><time>3.605551242828369-407.5-159.60000610351563T3.0:0:0Z</time></trkpt>
<trkpt lat="45.81916" lon="1.344893"><ele>0</ele><time>4.242640495300293-408.0-168.39999389648438T3.25:0:0Z</time></trkpt>
<trkpt lat="45.819112" lon="1.344908"><ele>0</ele><time>4.242640495300293-408.20001220703125-167.8000030517578T3.5:0:0Z</time></trkpt>
<trkpt lat="45.819056" lon="1.344924"><ele>0</ele><time>3.605551242828369-410.3999938964844-163.39999389648438T2.75:0:0Z</time></trkpt>
<trkpt lat="45.819" lon="1.344926"><ele>0</ele><time>3.605551242828369-410.70001220703125-164.39999389648438T2.5:0:0Z</time></trkpt>
<trkpt lat="45.818952" lon="1.344943"><ele>0</ele><time>3.605551242828369-410.79998779296875-164.1999969482422T2.75:0:0Z</time></trkpt>
<trkpt lat="45.818857" lon="1.344963"><ele>0</ele><time>5.0-410.20001220703125-166.0T2.5:0:0Z</time></trkpt>
<trkpt lat="45.81879" lon="1.34498"><ele>0</ele><time>3.605551242828369-411.29998779296875-172.6999969482422T2.75:0:0Z</time></trkpt>
<trkpt lat="45.818723" lon="1.345013"><ele>0</ele><time>3.605551242828369-411.8999938964844-166.0T2.75:0:0Z</time></trkpt>
<trkpt lat="45.818657" lon="1.345073"><ele>0</ele><time>3.605551242828369-412.29998779296875-146.10000610351563T2.75:0:0Z</time></trkpt>
<trkpt lat="45.8186" lon="1.345106"><ele>0</ele><time>3.605551242828369-413.5-152.5T2.5:0:0Z</time></trkpt>
<trkpt lat="45.818522" lon="1.345147"><ele>0</ele><time>3.605551242828369-414.1000061035156-156.3000030517578T3.25:0:0Z</time></trkpt>
<trkpt lat="45.818451" lon="1.345171"><ele>0</ele><time>3.605551242828369-406.29998779296875-155.5T3.36340594291687:0:0Z</time></trkpt>
<trkpt lat="45.818385" lon="1.345208"><ele>0</ele><time>3.605551242828369-405.3999938964844-161.60000610351563T2.9261748790740967:0:0Z</time></trkpt>
<trkpt lat="45.818337" lon="1.345236"><ele>0</ele><time>4.242640495300293-406.20001220703125-158.6999969482422T2.5495097637176514:0:0Z</time></trkpt>
<trkpt lat="45.818291" lon="1.345265"><ele>0</ele><time>5.0-406.79998779296875-153.1999969482422T2.75:0:0Z</time></trkpt>
<trkpt lat="45.818251" lon="1.345305"><ele>0</ele><time>5.0-405.8999938964844-149.6999969482422T3.25:0:0Z</time></trkpt>
<trkpt lat="45.818206" lon="1.345361"><ele>0</ele><time>4.242640495300293-403.0-144.1999969482422T2.9261748790740967:0:0Z</time></trkpt>
<trkpt lat="45.818163" lon="1.345389"><ele>0</ele><time>4.242640495300293-404.0-153.10000610351563T2.7950849533081055:0:0Z</time></trkpt>
<trkpt lat="45.818091" lon="1.34547"><ele>0</ele><time>4.242640495300293-404.70001220703125-139.89999389648438T3.5:0:0Z</time></trkpt>
<trkpt lat="45.818043" lon="1.345506"><ele>0</ele><time>4.242640495300293-404.70001220703125-145.0T4.0:0:0Z</time></trkpt>
<trkpt lat="45.818004" lon="1.345543"><ele>0</ele><time>4.242640495300293-405.0-146.39999389648438T4.0:0:0Z</time></trkpt>
<trkpt lat="45.817954" lon="1.345575"><ele>0</ele><time>4.242640495300293-405.29998779296875-152.1999969482422T4.25:0:0Z</time></trkpt>
<trkpt lat="45.817907" lon="1.345613"><ele>0</ele><time>5.0-405.8999938964844-150.1999969482422T4.0:0:0Z</time></trkpt>
<trkpt lat="45.817858" lon="1.345652"><ele>0</ele><time>5.0-406.70001220703125-151.60000610351563T4.25:0:0Z</time></trkpt>
<trkpt lat="45.817805" lon="1.345671"><ele>0</ele><time>5.0-406.8999938964844-155.39999389648438T4.25:0:0Z</time></trkpt>
<trkpt lat="45.817743" lon="1.345695"><ele>0</ele><time>5.0-407.1000061035156-158.3000030517578T4.5:0:0Z</time></trkpt>
<trkpt lat="45.817683" lon="1.345706"><ele>0</ele><time>5.0-405.6000061035156-169.8000030517578T4.527692794799805:0:0Z</time></trkpt>
<trkpt lat="45.817628" lon="1.345733"><ele>0</ele><time>4.242640495300293-405.6000061035156-169.1999969482422T4.279310703277588:0:0Z</time></trkpt>
<trkpt lat="45.817569" lon="1.345741"><ele>0</ele><time>4.242640495300293-405.5-172.89999389648438T4.776243209838867:0:0Z</time></trkpt>
<trkpt lat="45.817512" lon="1.345755"><ele>0</ele><time>4.242640495300293-404.6000061035156-170.5T4.776243209838867:0:0Z</time></trkpt>
<trkpt lat="45.817452" lon="1.345766"><ele>0</ele><time>3.605551242828369-404.70001220703125-169.89999389648438T4.776243209838867:0:0Z</time></trkpt>
<trkpt lat="45.817404" lon="1.345785"><ele>0</ele><time>3.605551242828369-405.1000061035156-169.39999389648438T4.527692794799805:0:0Z</time></trkpt>
<trkpt lat="45.817357" lon="1.345801"><ele>0</ele><time>3.605551242828369-405.1000061035156-168.1999969482422T4.527692794799805:0:0Z</time></trkpt>
<trkpt lat="45.81731" lon="1.345819"><ele>0</ele><time>3.605551242828369-405.5-165.5T4.75:0:0Z</time></trkpt>
<trkpt lat="45.817265" lon="1.345831"><ele>0</ele><time>3.605551242828369-405.70001220703125-167.3000030517578T4.75:0:0Z</time></trkpt>
<trkpt lat="45.817211" lon="1.345849"><ele>0</ele><time>3.605551242828369-406.3999938964844-168.0T4.75:0:0Z</time></trkpt>
<trkpt lat="45.817162" lon="1.345859"><ele>0</ele><time>3.605551242828369-406.6000061035156-168.3000030517578T4.75:0:0Z</time></trkpt>
<trkpt lat="45.817098" lon="1.345886"><ele>0</ele><time>3.605551242828369-407.0-164.89999389648438T5.25:0:0Z</time></trkpt>
<trkpt lat="45.817052" lon="1.345902"><ele>0</ele><time>3.605551242828369-406.79998779296875-163.1999969482422T5.0:0:0Z</time></trkpt>
<trkpt lat="45.816994" lon="1.345923"><ele>0</ele><time>3.605551242828369-407.6000061035156-163.5T5.5:0:0Z</time></trkpt>
<trkpt lat="45.816945" lon="1.345939"><ele>0</ele><time>3.605551242828369-407.29998779296875-165.3000030517578T5.0:0:0Z</time></trkpt>
<trkpt lat="45.81689" lon="1.345957"><ele>0</ele><time>3.605551242828369-406.70001220703125-165.6999969482422T5.0:0:0Z</time></trkpt>
<trkpt lat="45.816843" lon="1.345976"><ele>0</ele><time>3.605551242828369-406.6000061035156-165.89999389648438T5.25:0:0Z</time></trkpt>
<trkpt lat="45.816789" lon="1.345991"><ele>0</ele><time>4.4721360206604-406.0-166.10000610351563T5.25:0:0Z</time></trkpt>
<trkpt lat="45.816691" lon="1.346005"><ele>0</ele><time>4.4721360206604-406.8999938964844-168.6999969482422T5.0:0:0Z</time></trkpt>
<trkpt lat="45.816641" lon="1.346021"><ele>0</ele><time>3.605551242828369-406.70001220703125-168.89999389648438T4.75:0:0Z</time></trkpt>
<trkpt lat="45.816594" lon="1.346029"><ele>0</ele><time>4.4721360206604-406.70001220703125-170.89999389648438T4.75:0:0Z</time></trkpt>
<trkpt lat="45.81649" lon="1.346061"><ele>0</ele><time>3.605551242828369-406.79998779296875-170.39999389648438T4.75:0:0Z</time></trkpt>
<trkpt lat="45.816434" lon="1.346084"><ele>0</ele><time>3.605551242828369-407.0-169.10000610351563T5.0:0:0Z</time></trkpt>
<trkpt lat="45.816379" lon="1.346105"><ele>0</ele><time>3.605551242828369-407.20001220703125-169.39999389648438T5.0:0:0Z</time></trkpt>
<trkpt lat="45.816246" lon="1.346132"><ele>0</ele><time>2.8284270763397217-409.1000061035156-168.10000610351563T4.527692794799805:0:0Z</time></trkpt>
<trkpt lat="45.816193" lon="1.346155"><ele>0</ele><time>2.8284270763397217-410.29998779296875-169.60000610351563T4.776243209838867:0:0Z</time></trkpt>
<trkpt lat="45.816141" lon="1.346169"><ele>0</ele><time>2.8284270763397217-410.6000061035156-167.3000030517578T5.0:0:0Z</time></trkpt>
<trkpt lat="45.816056" lon="1.346196"><ele>0</ele><time>2.8284270763397217-410.6000061035156-167.1999969482422T4.75:0:0Z</time></trkpt>
<trkpt lat="45.815999" lon="1.346212"><ele>0</ele><time>2.8284270763397217-410.20001220703125-169.3000030517578T5.25:0:0Z</time></trkpt>
<trkpt lat="45.815952" lon="1.346226"><ele>0</ele><time>2.8284270763397217-410.0-170.3000030517578T5.25:0:0Z</time></trkpt>
<trkpt lat="45.815888" lon="1.346238"><ele>0</ele><time>2.8284270763397217-409.79998779296875-170.39999389648438T5.75:0:0Z</time></trkpt>
<trkpt lat="45.815827" lon="1.346241"><ele>0</ele><time>2.8284270763397217-410.0-172.8000030517578T6.0:0:0Z</time></trkpt>
<trkpt lat="45.815767" lon="1.34625"><ele>0</ele><time>2.8284270763397217-410.1000061035156-171.89999389648438T6.0:0:0Z</time></trkpt>
<trkpt lat="45.815713" lon="1.34626"><ele>0</ele><time>2.8284270763397217-410.5-171.5T5.75:0:0Z</time></trkpt>
<trkpt lat="45.815653" lon="1.346269"><ele>0</ele><time>3.605551242828369-410.6000061035156-172.3000030517578T5.75:0:0Z</time></trkpt>
<trkpt lat="45.815594" lon="1.34627"><ele>0</ele><time>3.605551242828369-410.3999938964844-173.10000610351563T5.75:0:0Z</time></trkpt>
<trkpt lat="45.815509" lon="1.346285"><ele>0</ele><time>3.605551242828369-411.1000061035156-173.3000030517578T5.0:0:0Z</time></trkpt>
<trkpt lat="45.815463" lon="1.346296"><ele>0</ele><time>3.605551242828369-411.29998779296875-172.5T5.0:0:0Z</time></trkpt>
<trkpt lat="45.815377" lon="1.346319"><ele>0</ele><time>3.605551242828369-411.1000061035156-168.1999969482422T5.0:0:0Z</time></trkpt>
<trkpt lat="45.815301" lon="1.346344"><ele>0</ele><time>3.605551242828369-411.5-166.5T4.75:0:0Z</time></trkpt>
<trkpt lat="45.815254" lon="1.346356"><ele>0</ele><time>3.605551242828369-411.79998779296875-166.5T4.75:0:0Z</time></trkpt>
<trkpt lat="45.815208" lon="1.346374"><ele>0</ele><time>3.605551242828369-411.8999938964844-166.1999969482422T4.75:0:0Z</time></trkpt>
<trkpt lat="45.815135" lon="1.346394"><ele>0</ele><time>4.4721360206604-413.6000061035156-169.10000610351563T4.25:0:0Z</time></trkpt>
<trkpt lat="45.815066" lon="1.346437"><ele>0</ele><time>3.605551242828369-417.0-174.6999969482422T3.75:0:0Z</time></trkpt>
<trkpt lat="45.81501" lon="1.346448"><ele>0</ele><time>4.242640495300293-417.5-173.6999969482422T3.25:0:0Z</time></trkpt>
<trkpt lat="45.814954" lon="1.346474"><ele>0</ele><time>4.242640495300293-418.0-159.1999969482422T2.0:0:0Z</time></trkpt>
<trkpt lat="45.814904" lon="1.346514"><ele>0</ele><time>5.0-419.79998779296875-189.0T1.75:0:0Z</time></trkpt>
<trkpt lat="45.814849" lon="1.346512"><ele>0</ele><time>5.0-420.6000061035156-179.89999389648438T2.75:0:0Z</time></trkpt>
<trkpt lat="45.814794" lon="1.346525"><ele>0</ele><time>4.242640495300293-419.0-161.5T3.25:0:0Z</time></trkpt>
<trkpt lat="45.814728" lon="1.346543"><ele>0</ele><time>4.4721360206604-415.8999938964844-166.39999389648438T3.5:0:0Z</time></trkpt>
<trkpt lat="45.814656" lon="1.346548"><ele>0</ele><time>3.605551242828369-416.8999938964844-176.0T3.5:0:0Z</time></trkpt>
<trkpt lat="45.814594" lon="1.346495"><ele>0</ele><time>4.242640495300293-415.5-194.60000610351563T3.75:0:0Z</time></trkpt>
<trkpt lat="45.81453" lon="1.346452"><ele>0</ele><time>4.242640495300293-415.5-194.10000610351563T3.75:0:0Z</time></trkpt>
<trkpt lat="45.814453" lon="1.346453"><ele>0</ele><time>4.242640495300293-416.0-177.1999969482422T3.5:0:0Z</time></trkpt>
<trkpt lat="45.814394" lon="1.346432"><ele>0</ele><time>4.242640495300293-416.0-192.10000610351563T3.75:0:0Z</time></trkpt>
<trkpt lat="45.814324" lon="1.346392"><ele>0</ele><time>3.605551242828369-415.6000061035156-207.10000610351563T4.0:0:0Z</time></trkpt>
<trkpt lat="45.81426" lon="1.346318"><ele>0</ele><time>3.605551242828369-416.29998779296875-212.39999389648438T4.25:0:0Z</time></trkpt>
<trkpt lat="45.814196" lon="1.346252"><ele>0</ele><time>2.8284270763397217-416.6000061035156-206.5T4.527692794799805:0:0Z</time></trkpt>
<trkpt lat="45.814154" lon="1.346228"><ele>0</ele><time>2.8284270763397217-416.5-205.3000030517578T4.527692794799805:0:0Z</time></trkpt>
<trkpt lat="45.814072" lon="1.346175"><ele>0</ele><time>2.8284270763397217-416.5-203.8000030517578T4.75:0:0Z</time></trkpt>
<trkpt lat="45.814019" lon="1.34615"><ele>0</ele><time>2.8284270763397217-416.0-200.5T5.25:0:0Z</time></trkpt>
<trkpt lat="45.81397" lon="1.346125"><ele>0</ele><time>2.8284270763397217-415.8999938964844-200.8000030517578T5.5:0:0Z</time></trkpt>
<trkpt lat="45.813926" lon="1.346098"><ele>0</ele><time>2.8284270763397217-415.20001220703125-200.1999969482422T5.5:0:0Z</time></trkpt>
<trkpt lat="45.813876" lon="1.34608"><ele>0</ele><time>2.8284270763397217-415.6000061035156-199.0T5.5:0:0Z</time></trkpt>
<trkpt lat="45.813831" lon="1.346051"><ele>0</ele><time>2.8284270763397217-415.0-199.1999969482422T5.2737555503845215:0:0Z</time></trkpt>
<trkpt lat="45.81378" lon="1.346028"><ele>0</ele><time>2.8284270763397217-415.1000061035156-198.89999389648438T5.25:0:0Z</time></trkpt>
<trkpt lat="45.813707" lon="1.345981"><ele>0</ele><time>2.8284270763397217-415.0-203.6999969482422T5.0:0:0Z</time></trkpt>
<trkpt lat="45.813662" lon="1.34595"><ele>0</ele><time>2.8284270763397217-414.6000061035156-202.60000610351563T5.522680282592773:0:0Z</time></trkpt>
<trkpt lat="45.813618" lon="1.345918"><ele>0</ele><time>2.8284270763397217-414.29998779296875-204.0T5.2737555503845215:0:0Z</time></trkpt>
<trkpt lat="45.81354" lon="1.345881"><ele>0</ele><time>2.8284270763397217-414.0-199.10000610351563T4.75:0:0Z</time></trkpt>
<trkpt lat="45.81348" lon="1.345859"><ele>0</ele><time>2.8284270763397217-414.0-196.5T5.75:0:0Z</time></trkpt>
<trkpt lat="45.813436" lon="1.345838"><ele>0</ele><time>2.8284270763397217-414.0-197.5T5.25:0:0Z</time></trkpt>
<trkpt lat="45.813356" lon="1.345803"><ele>0</ele><time>2.8284270763397217-413.70001220703125-195.8000030517578T4.75:0:0Z</time></trkpt>
<trkpt lat="45.813275" lon="1.345753"><ele>0</ele><time>2.8284270763397217-414.0-201.10000610351563T4.75:0:0Z</time></trkpt>
<trkpt lat="45.813231" lon="1.345735"><ele>0</ele><time>2.8284270763397217-414.20001220703125-199.3000030517578T4.75:0:0Z</time></trkpt>
<trkpt lat="45.813141" lon="1.345696"><ele>0</ele><time>2.8284270763397217-413.6000061035156-197.39999389648438T5.0:0:0Z</time></trkpt>
<trkpt lat="45.813089" lon="1.34567"><ele>0</ele><time>2.8284270763397217-413.8999938964844-197.89999389648438T5.25:0:0Z</time></trkpt>
<trkpt lat="45.813039" lon="1.345651"><ele>0</ele><time>2.8284270763397217-413.1000061035156-196.5T5.25:0:0Z</time></trkpt>
<trkpt lat="45.812991" lon="1.345634"><ele>0</ele><time>2.8284270763397217-413.5-194.39999389648438T5.25:0:0Z</time></trkpt>
<trkpt lat="45.812911" lon="1.345602"><ele>0</ele><time>2.8284270763397217-413.0-198.3000030517578T4.75:0:0Z</time></trkpt>
<trkpt lat="45.812832" lon="1.345573"><ele>0</ele><time>2.8284270763397217-412.70001220703125-196.1999969482422T4.5:0:0Z</time></trkpt>
<trkpt lat="45.812789" lon="1.345552"><ele>0</ele><time>2.8284270763397217-412.8999938964844-198.10000610351563T4.5:0:0Z</time></trkpt>
<trkpt lat="45.812745" lon="1.345532"><ele>0</ele><time>2.8284270763397217-412.79998779296875-197.89999389648438T4.5:0:0Z</time></trkpt>
<trkpt lat="45.812698" lon="1.34551"><ele>0</ele><time>2.8284270763397217-412.79998779296875-196.5T4.5:0:0Z</time></trkpt>
<trkpt lat="45.812611" lon="1.345488"><ele>0</ele><time>2.8284270763397217-413.79998779296875-192.1999969482422T4.5:0:0Z</time></trkpt>
<trkpt lat="45.812559" lon="1.345474"><ele>0</ele><time>2.8284270763397217-413.5-194.39999389648438T4.75:0:0Z</time></trkpt>
<trkpt lat="45.812466" lon="1.345437"><ele>0</ele><time>2.8284270763397217-413.3999938964844-196.0T4.75:0:0Z</time></trkpt>
<trkpt lat="45.812414" lon="1.345414"><ele>0</ele><time>2.8284270763397217-412.79998779296875-195.10000610351563T5.0:0:0Z</time></trkpt>
<trkpt lat="45.812331" lon="1.345372"><ele>0</ele><time>2.8284270763397217-412.6000061035156-198.0T4.5:0:0Z</time></trkpt>
<trkpt lat="45.812244" lon="1.345343"><ele>0</ele><time>2.8284270763397217-413.0-194.0T4.5:0:0Z</time></trkpt>
<trkpt lat="45.812147" lon="1.345311"><ele>0</ele><time>2.8284270763397217-413.20001220703125-196.0T5.0:0:0Z</time></trkpt>
<trkpt lat="45.812102" lon="1.345298"><ele>0</ele><time>2.8284270763397217-413.8999938964844-193.5T4.75:0:0Z</time></trkpt>
<trkpt lat="45.812028" lon="1.345269"><ele>0</ele><time>2.8284270763397217-413.6000061035156-192.89999389648438T4.5:0:0Z</time></trkpt>
<trkpt lat="45.811945" lon="1.345244"><ele>0</ele><time>2.8284270763397217-413.70001220703125-190.5T4.5:0:0Z</time></trkpt>
<trkpt lat="45.811867" lon="1.345218"><ele>0</ele><time>2.8284270763397217-413.3999938964844-191.89999389648438T4.25:0:0Z</time></trkpt>
<trkpt lat="45.811783" lon="1.345177"><ele>0</ele><time>2.8284270763397217-412.29998779296875-197.3000030517578T5.024937629699707:0:0Z</time></trkpt>
<trkpt lat="45.811738" lon="1.345152"><ele>0</ele><time>2.8284270763397217-412.6000061035156-198.6999969482422T4.527692794799805:0:0Z</time></trkpt>
<trkpt lat="45.811687" lon="1.345136"><ele>0</ele><time>2.8284270763397217-412.0-195.60000610351563T4.527692794799805:0:0Z</time></trkpt>
<trkpt lat="45.811608" lon="1.345106"><ele>0</ele><time>2.8284270763397217-410.8999938964844-192.5T4.5:0:0Z</time></trkpt>
<trkpt lat="45.811541" lon="1.345077"><ele>0</ele><time>2.8284270763397217-411.6000061035156-195.3000030517578T4.0:0:0Z</time></trkpt>
<trkpt lat="45.811465" lon="1.345034"><ele>0</ele><time>2.8284270763397217-411.6000061035156-201.5T4.25:0:0Z</time></trkpt>
<trkpt lat="45.811413" lon="1.345019"><ele>0</ele><time>2.8284270763397217-411.79998779296875-197.6999969482422T4.5:0:0Z</time></trkpt>
<trkpt lat="45.811341" lon="1.344984"><ele>0</ele><time>2.8284270763397217-411.8999938964844-195.89999389648438T4.25:0:0Z</time></trkpt>
<trkpt lat="45.811292" lon="1.344968"><ele>0</ele><time>3.605551242828369-412.0-194.8000030517578T4.5:0:0Z</time></trkpt>
<trkpt lat="45.811225" lon="1.344931"><ele>0</ele><time>2.8284270763397217-415.5-197.5T5.942431926727295:0:0Z</time></trkpt>
<trkpt lat="45.811167" lon="1.344905"><ele>0</ele><time>2.8284270763397217-416.20001220703125-196.39999389648438T5.771697998046875:0:0Z</time></trkpt>
<trkpt lat="45.81112" lon="1.344885"><ele>0</ele><time>2.8284270763397217-415.8999938964844-194.10000610351563T4.75:0:0Z</time></trkpt>
<trkpt lat="45.811069" lon="1.34486"><ele>0</ele><time>2.8284270763397217-415.5-195.8000030517578T5.0:0:0Z</time></trkpt>
<trkpt lat="45.810983" lon="1.344822"><ele>0</ele><time>2.8284270763397217-414.79998779296875-195.89999389648438T4.75:0:0Z</time></trkpt>
<trkpt lat="45.810895" lon="1.344795"><ele>0</ele><time>3.605551242828369-414.79998779296875-192.5T4.75:0:0Z</time></trkpt>
<trkpt lat="45.810846" lon="1.344774"><ele>0</ele><time>3.605551242828369-414.70001220703125-193.10000610351563T5.0:0:0Z</time></trkpt>
<trkpt lat="45.810799" lon="1.344749"><ele>0</ele><time>3.605551242828369-415.1000061035156-196.0T5.0:0:0Z</time></trkpt>
<trkpt lat="45.81075" lon="1.344731"><ele>0</ele><time>3.605551242828369-415.20001220703125-197.6999969482422T5.0:0:0Z</time></trkpt>
<trkpt lat="45.810708" lon="1.344701"><ele>0</ele><time>3.605551242828369-415.1000061035156-200.10000610351563T4.75:0:0Z</time></trkpt>
<trkpt lat="45.810661" lon="1.344677"><ele>0</ele><time>3.605551242828369-414.6000061035156-199.60000610351563T4.75:0:0Z</time></trkpt>
<trkpt lat="45.810615" lon="1.344661"><ele>0</ele><time>3.605551242828369-414.29998779296875-198.60000610351563T4.75:0:0Z</time></trkpt>
<trkpt lat="45.81054" lon="1.344623"><ele>0</ele><time>3.605551242828369-414.20001220703125-202.0T4.0:0:0Z</time></trkpt>
<trkpt lat="45.810489" lon="1.344594"><ele>0</ele><time>3.605551242828369-413.20001220703125-201.39999389648438T2.75:0:0Z</time></trkpt>
<trkpt lat="45.810443" lon="1.344586"><ele>0</ele><time>3.605551242828369-412.8999938964844-191.5T2.0:0:0Z</time></trkpt>
<trkpt lat="45.810392" lon="1.34457"><ele>0</ele><time>3.605551242828369-413.3999938964844-194.5T0.5:0:0Z</time></trkpt>
<trkpt lat="45.810353" lon="1.344536"><ele>0</ele><time>2.8284270763397217-413.70001220703125-194.5T0.0:0:0Z</time></trkpt>
<trkpt lat="45.8103" lon="1.344516"><ele>0</ele><time>3.605551242828369-411.8999938964844-189.10000610351563T1.25:0:0Z</time></trkpt>
<trkpt lat="45.810254" lon="1.344497"><ele>0</ele><time>2.8284270763397217-410.29998779296875-174.60000610351563T1.820027470588684:0:0Z</time></trkpt>
<trkpt lat="45.810214" lon="1.344544"><ele>0</ele><time>2.8284270763397217-411.70001220703125-139.3000030517578T2.0615527629852295:0:0Z</time></trkpt>
<trkpt lat="45.810182" lon="1.344615"><ele>0</ele><time>3.605551242828369-411.79998779296875-124.19999694824219T2.5:0:0Z</time></trkpt>
<trkpt lat="45.810151" lon="1.344677"><ele>0</ele><time>4.242640495300293-412.29998779296875-122.69999694824219T2.75:0:0Z</time></trkpt>
<trkpt lat="45.810113" lon="1.344762"><ele>0</ele><time>3.605551242828369-412.5-125.5T3.75:0:0Z</time></trkpt>
<trkpt lat="45.810067" lon="1.344836"><ele>0</ele><time>3.605551242828369-412.6000061035156-134.6999969482422T3.75:0:0Z</time></trkpt>
<trkpt lat="45.810037" lon="1.3449"><ele>0</ele><time>2.8284270763397217-413.29998779296875-130.5T3.0:0:0Z</time></trkpt>
<trkpt lat="45.810006" lon="1.344957"><ele>0</ele><time>2.8284270763397217-413.3999938964844-136.89999389648438T3.0:0:0Z</time></trkpt>
<trkpt lat="45.809944" lon="1.345004"><ele>0</ele><time>2.8284270763397217-417.1000061035156-152.6999969482422T3.640054941177368:0:0Z</time></trkpt>
<trkpt lat="45.809886" lon="1.345011"><ele>0</ele><time>2.8284270763397217-418.1000061035156-178.60000610351563T3.288236618041992:0:0Z</time></trkpt>
<trkpt lat="45.809816" lon="1.344994"><ele>0</ele><time>2.8284270763397217-418.20001220703125-190.5T3.5:0:0Z</time></trkpt>
<trkpt lat="45.809759" lon="1.344942"><ele>0</ele><time>2.8284270763397217-418.0-209.6999969482422T3.5:0:0Z</time></trkpt>
<trkpt lat="45.809715" lon="1.344887"><ele>0</ele><time>2.8284270763397217-417.20001220703125-220.3000030517578T3.25:0:0Z</time></trkpt>
<trkpt lat="45.809668" lon="1.344823"><ele>0</ele><time>2.8284270763397217-416.29998779296875-219.60000610351563T3.25:0:0Z</time></trkpt>
<trkpt lat="45.809622" lon="1.344771"><ele>0</ele><time>2.8284270763397217-417.1000061035156-217.60000610351563T3.535533905029297:0:0Z</time></trkpt>
<trkpt lat="45.809571" lon="1.344709"><ele>0</ele><time>2.8284270763397217-417.0-217.3000030517578T3.783186435699463:0:0Z</time></trkpt>
<trkpt lat="45.8095" lon="1.344653"><ele>0</ele><time>2.8284270763397217-416.70001220703125-207.39999389648438T4.25:0:0Z</time></trkpt>
<trkpt lat="45.809416" lon="1.344653"><ele>0</ele><time>2.8284270763397217-417.1000061035156-181.0T4.5:0:0Z</time></trkpt>
<trkpt lat="45.809334" lon="1.344696"><ele>0</ele><time>2.8284270763397217-417.1000061035156-158.60000610351563T4.75:0:0Z</time></trkpt>
<trkpt lat="45.809278" lon="1.344769"><ele>0</ele><time>2.8284270763397217-417.1000061035156-137.10000610351563T4.527692794799805:0:0Z</time></trkpt>
<trkpt lat="45.809191" lon="1.344863"><ele>0</ele><time>2.8284270763397217-417.29998779296875-140.10000610351563T4.0:0:0Z</time></trkpt>
<trkpt lat="45.809136" lon="1.344917"><ele>0</ele><time>2.8284270763397217-417.29998779296875-144.3000030517578T3.75:0:0Z</time></trkpt>
<trkpt lat="45.809076" lon="1.34495"><ele>0</ele><time>2.8284270763397217-417.5-152.0T3.5:0:0Z</time></trkpt>
<trkpt lat="45.809018" lon="1.344994"><ele>0</ele><time>2.8284270763397217-417.29998779296875-153.60000610351563T3.25:0:0Z</time></trkpt>
<trkpt lat="45.80897" lon="1.345026"><ele>0</ele><time>2.8284270763397217-417.0-155.1999969482422T3.0:0:0Z</time></trkpt>
<trkpt lat="45.808913" lon="1.345063"><ele>0</ele><time>2.8284270763397217-418.20001220703125-157.1999969482422T3.288236618041992:0:0Z</time></trkpt>
<trkpt lat="45.808848" lon="1.345102"><ele>0</ele><time>2.8284270763397217-418.70001220703125-158.10000610351563T3.75:0:0Z</time></trkpt>
<trkpt lat="45.808776" lon="1.345137"><ele>0</ele><time>2.8284270763397217-418.6000061035156-160.1999969482422T4.0:0:0Z</time></trkpt>
<trkpt lat="45.80871" lon="1.345166"><ele>0</ele><time>2.8284270763397217-418.70001220703125-161.1999969482422T4.0:0:0Z</time></trkpt>
<trkpt lat="45.808645" lon="1.345184"><ele>0</ele><time>2.8284270763397217-417.6000061035156-159.1999969482422T3.783186435699463:0:0Z</time></trkpt>
<trkpt lat="45.80858" lon="1.345229"><ele>0</ele><time>2.8284270763397217-417.20001220703125-153.6999969482422T3.75:0:0Z</time></trkpt>
<trkpt lat="45.808546" lon="1.345305"><ele>0</ele><time>2.8284270763397217-418.1000061035156-133.89999389648438T3.5:0:0Z</time></trkpt>
<trkpt lat="45.808544" lon="1.345384"><ele>0</ele><time>4.242640495300293-418.20001220703125-118.4000015258789T3.25:0:0Z</time></trkpt>
<trkpt lat="45.808535" lon="1.345466"><ele>0</ele><time>5.0-417.79998779296875-112.0999984741211T3.0:0:0Z</time></trkpt>
<trkpt lat="45.808501" lon="1.345537"><ele>0</ele><time>4.242640495300293-417.79998779296875-129.3000030517578T2.75:0:0Z</time></trkpt>
<trkpt lat="45.808429" lon="1.345538"><ele>0</ele><time>3.605551242828369-417.29998779296875-167.5T3.0:0:0Z</time></trkpt>
<trkpt lat="45.808357" lon="1.345516"><ele>0</ele><time>3.605551242828369-417.5-186.89999389648438T3.0:0:0Z</time></trkpt>
<trkpt lat="45.808283" lon="1.345503"><ele>0</ele><time>3.605551242828369-414.70001220703125-187.8000030517578T3.640054941177368:0:0Z</time></trkpt>
<trkpt lat="45.808218" lon="1.345498"><ele>0</ele><time>2.8284270763397217-413.79998779296875-188.39999389648438T3.288236618041992:0:0Z</time></trkpt>
<trkpt lat="45.808169" lon="1.345484"><ele>0</ele><time>2.8284270763397217-413.29998779296875-190.39999389648438T4.527692794799805:0:0Z</time></trkpt>
<trkpt lat="45.808092" lon="1.345472"><ele>0</ele><time>2.8284270763397217-412.3999938964844-186.89999389648438T4.031128883361816:0:0Z</time></trkpt>
<trkpt lat="45.808027" lon="1.345462"><ele>0</ele><time>2.8284270763397217-413.0-186.39999389648438T3.5:0:0Z</time></trkpt>
<trkpt lat="45.807957" lon="1.345465"><ele>0</ele><time>2.8284270763397217-413.20001220703125-180.89999389648438T3.5:0:0Z</time></trkpt>
<trkpt lat="45.807888" lon="1.345458"><ele>0</ele><time>3.605551242828369-413.29998779296875-180.0T3.25:0:0Z</time></trkpt>
<trkpt lat="45.807828" lon="1.345439"><ele>0</ele><time>3.605551242828369-413.3999938964844-186.5T3.25:0:0Z</time></trkpt>
<trkpt lat="45.807726" lon="1.345427"><ele>0</ele><time>2.8284270763397217-411.6000061035156-180.89999389648438T4.854122161865234:0:0Z</time></trkpt>
<trkpt lat="45.807676" lon="1.345419"><ele>0</ele><time>2.8284270763397217-412.3999938964844-181.8000030517578T4.776243209838867:0:0Z</time></trkpt>
<trkpt lat="45.807623" lon="1.345408"><ele>0</ele><time>2.8284270763397217-412.70001220703125-183.8000030517578T4.776243209838867:0:0Z</time></trkpt>
<trkpt lat="45.807578" lon="1.345387"><ele>0</ele><time>2.8284270763397217-412.3999938964844-188.39999389648438T4.776243209838867:0:0Z</time></trkpt>
<trkpt lat="45.807507" lon="1.345363"><ele>0</ele><time>3.605551242828369-412.0-191.1999969482422T4.25:0:0Z</time></trkpt>
<trkpt lat="45.807429" lon="1.345321"><ele>0</ele><time>3.605551242828369-412.6000061035156-192.89999389648438T4.25:0:0Z</time></trkpt>
<trkpt lat="45.807351" lon="1.345283"><ele>0</ele><time>3.605551242828369-412.29998779296875-193.89999389648438T4.0:0:0Z</time></trkpt>
<trkpt lat="45.80727" lon="1.345274"><ele>0</ele><time>3.605551242828369-412.20001220703125-183.39999389648438T4.25:0:0Z</time></trkpt>
<trkpt lat="45.807225" lon="1.34528"><ele>0</ele><time>3.605551242828369-412.3999938964844-181.3000030517578T4.25:0:0Z</time></trkpt>
<trkpt lat="45.807176" lon="1.345268"><ele>0</ele><time>3.605551242828369-413.1000061035156-182.5T4.25:0:0Z</time></trkpt>
<trkpt lat="45.807125" lon="1.345262"><ele>0</ele><time>4.242640495300293-412.5-183.1999969482422T4.25:0:0Z</time></trkpt>
<trkpt lat="45.807075" lon="1.345275"><ele>0</ele><time>3.605551242828369-411.6000061035156-180.1999969482422T4.25:0:0Z</time></trkpt>
<trkpt lat="45.807031" lon="1.345257"><ele>0</ele><time>3.605551242828369-412.29998779296875-183.3000030517578T4.5:0:0Z</time></trkpt>
<trkpt lat="45.806952" lon="1.345226"><ele>0</ele><time>3.605551242828369-411.29998779296875-184.8000030517578T4.0:0:0Z</time></trkpt>
<trkpt lat="45.806897" lon="1.345205"><ele>0</ele><time>3.605551242828369-411.0-188.8000030517578T4.25:0:0Z</time></trkpt>
<trkpt lat="45.806797" lon="1.345192"><ele>0</ele><time>3.605551242828369-411.29998779296875-183.0T4.5:0:0Z</time></trkpt>
<trkpt lat="45.806751" lon="1.345183"><ele>0</ele><time>3.605551242828369-411.29998779296875-184.6999969482422T4.5:0:0Z</time></trkpt>
<trkpt lat="45.806705" lon="1.345169"><ele>0</ele><time>3.605551242828369-410.79998779296875-184.5T4.279310703277588:0:0Z</time></trkpt>
<trkpt lat="45.806653" lon="1.345144"><ele>0</ele><time>3.605551242828369-411.79998779296875-185.5T4.25:0:0Z</time></trkpt>
<trkpt lat="45.806579" lon="1.345145"><ele>0</ele><time>4.4721360206604-414.1000061035156-163.8000030517578T4.0:0:0Z</time></trkpt>
<trkpt lat="45.806512" lon="1.345195"><ele>0</ele><time>4.4721360206604-415.29998779296875-150.0T4.25:0:0Z</time></trkpt>
<trkpt lat="45.806502" lon="1.345295"><ele>0</ele><time>4.4721360206604-415.79998779296875-116.5999984741211T4.0:0:0Z</time></trkpt>
<trkpt lat="45.806538" lon="1.345333"><ele>0</ele><time>4.4721360206604-415.5-81.30000305175781T3.75:0:0Z</time></trkpt>
<trkpt lat="45.806543" lon="1.345454"><ele>0</ele><time>4.4721360206604-416.5-81.5999984741211T4.0:0:0Z</time></trkpt>
<trkpt lat="45.806517" lon="1.345562"><ele>0</ele><time>4.4721360206604-416.6000061035156-97.0999984741211T4.0:0:0Z</time></trkpt>
<trkpt lat="45.806497" lon="1.34568"><ele>0</ele><time>6.7082037925720215-417.79998779296875-95.19999694824219T4.0:0:0Z</time></trkpt>
<trkpt lat="45.806486" lon="1.345789"><ele>0</ele><time>6.7082037925720215-418.20001220703125-96.19999694824219T4.0:0:0Z</time></trkpt>
<trkpt lat="45.806484" lon="1.345912"><ele>0</ele><time>6.7082037925720215-417.5-95.30000305175781T4.25:0:0Z</time></trkpt>
<trkpt lat="45.806447" lon="1.34599"><ele>0</ele><time>4.4721360206604-415.8999938964844-104.9000015258789T5.2737555503845215:0:0Z</time></trkpt>
<trkpt lat="45.806444" lon="1.346066"><ele>0</ele><time>4.4721360206604-415.3999938964844-98.9000015258789T5.522680282592773:0:0Z</time></trkpt>
<trkpt lat="45.80645" lon="1.346188"><ele>0</ele><time>3.605551242828369-415.0-84.0T5.0:0:0Z</time></trkpt>
<trkpt lat="45.806463" lon="1.346256"><ele>0</ele><time>3.605551242828369-415.1000061035156-84.0T5.5:0:0Z</time></trkpt>
<trkpt lat="45.806467" lon="1.346329"><ele>0</ele><time>4.4721360206604-415.1000061035156-84.4000015258789T5.25:0:0Z</time></trkpt>
<trkpt lat="45.806457" lon="1.3464"><ele>0</ele><time>4.4721360206604-415.1000061035156-89.80000305175781T5.5:0:0Z</time></trkpt>
<trkpt lat="45.806453" lon="1.346504"><ele>0</ele><time>6.7082037925720215-414.70001220703125-93.30000305175781T4.0:0:0Z</time></trkpt>
<trkpt lat="45.80645" lon="1.346649"><ele>0</ele><time>8.5440034866333-414.79998779296875-91.80000305175781T5.25:0:0Z</time></trkpt>
<trkpt lat="45.806438" lon="1.346725"><ele>0</ele><time>6.7082037925720215-415.20001220703125-95.19999694824219T5.25:0:0Z</time></trkpt>
<trkpt lat="45.806432" lon="1.34679"><ele>0</ele><time>8.5440034866333-415.20001220703125-96.30000305175781T4.75:0:0Z</time></trkpt>
<trkpt lat="45.806413" lon="1.346914"><ele>0</ele><time>8.5440034866333-415.0-98.4000015258789T4.75:0:0Z</time></trkpt>
<trkpt lat="45.806416" lon="1.346986"><ele>0</ele><time>12.369317054748535-415.5-96.0999984741211T4.75:0:0Z</time></trkpt>
<trkpt lat="45.806462" lon="1.347046"><ele>0</ele><time>8.5440034866333-415.6000061035156-86.4000015258789T4.5:0:0Z</time></trkpt>
<trkpt lat="45.806454" lon="1.347112"><ele>0</ele><time>8.5440034866333-415.79998779296875-89.5T4.75:0:0Z</time></trkpt>
<trkpt lat="45.806453" lon="1.347192"><ele>0</ele><time>8.5440034866333-416.1000061035156-89.19999694824219T5.0:0:0Z</time></trkpt>
<trkpt lat="45.80646" lon="1.347305"><ele>0</ele><time>8.5440034866333-415.6000061035156-87.69999694824219T5.75:0:0Z</time></trkpt>
<trkpt lat="45.806456" lon="1.347387"><ele>0</ele><time>8.5440034866333-415.1000061035156-89.0T5.75:0:0Z</time></trkpt>
<trkpt lat="45.806453" lon="1.347458"><ele>0</ele><time>12.369317054748535-415.3999938964844-89.80000305175781T5.25:0:0Z</time></trkpt>
<trkpt lat="45.806358" lon="1.347545"><ele>0</ele><time>6.7082037925720215-415.70001220703125-99.0T4.75:0:0Z</time></trkpt>
<trkpt lat="45.806343" lon="1.347613"><ele>0</ele><time>6.7082037925720215-415.3999938964844-98.5T4.75:0:0Z</time></trkpt>
<trkpt lat="45.806361" lon="1.347757"><ele>0</ele><time>5.0-415.1000061035156-83.0999984741211T5.0:0:0Z</time></trkpt>
<trkpt lat="45.80639" lon="1.347851"><ele>0</ele><time>5.0-414.3999938964844-75.5T5.75:0:0Z</time></trkpt>
<trkpt lat="45.806441" lon="1.347945"><ele>0</ele><time>5.0-413.29998779296875-62.900001525878906T6.25:0:0Z</time></trkpt>
<trkpt lat="45.806556" lon="1.348053"><ele>0</ele><time>4.242640495300293-412.70001220703125-37.29999923706055T6.5:0:0Z</time></trkpt>
<trkpt lat="45.806594" lon="1.348108"><ele>0</ele><time>4.242640495300293-412.70001220703125-35.79999923706055T6.0:0:0Z</time></trkpt>
<trkpt lat="45.806642" lon="1.34815"><ele>0</ele><time>4.242640495300293-412.6000061035156-34.79999923706055T6.0:0:0Z</time></trkpt>
<trkpt lat="45.806693" lon="1.348212"><ele>0</ele><time>3.605551242828369-412.29998779296875-37.79999923706055T6.5:0:0Z</time></trkpt>
<trkpt lat="45.806741" lon="1.348271"><ele>0</ele><time>3.605551242828369-412.0-36.29999923706055T6.75:0:0Z</time></trkpt>
<trkpt lat="45.806795" lon="1.348332"><ele>0</ele><time>3.605551242828369-410.79998779296875-34.79999923706055T6.75:0:0Z</time></trkpt>
<trkpt lat="45.806837" lon="1.348381"><ele>0</ele><time>3.605551242828369-410.20001220703125-36.0T6.25:0:0Z</time></trkpt>
<trkpt lat="45.806901" lon="1.348435"><ele>0</ele><time>3.605551242828369-409.6000061035156-33.29999923706055T6.75:0:0Z</time></trkpt>
<trkpt lat="45.806948" lon="1.348473"><ele>0</ele><time>3.605551242828369-409.29998779296875-31.799999237060547T6.25:0:0Z</time></trkpt>
<trkpt lat="45.806984" lon="1.348526"><ele>0</ele><time>3.605551242828369-409.1000061035156-40.599998474121094T6.0:0:0Z</time></trkpt>
<trkpt lat="45.807033" lon="1.348645"><ele>0</ele><time>3.605551242828369-408.79998779296875-52.599998474121094T5.5:0:0Z</time></trkpt>
<trkpt lat="45.807067" lon="1.348717"><ele>0</ele><time>3.605551242828369-408.8999938964844-54.5T5.75:0:0Z</time></trkpt>
<trkpt lat="45.807097" lon="1.348786"><ele>0</ele><time>3.605551242828369-408.3999938964844-60.29999923706055T6.0:0:0Z</time></trkpt>
<trkpt lat="45.807133" lon="1.348872"><ele>0</ele><time>3.605551242828369-408.70001220703125-62.70000076293945T6.5:0:0Z</time></trkpt>
<trkpt lat="45.807161" lon="1.348971"><ele>0</ele><time>3.605551242828369-408.5-65.80000305175781T7.25:0:0Z</time></trkpt>
<trkpt lat="45.807198" lon="1.34902"><ele>0</ele><time>3.605551242828369-408.70001220703125-56.099998474121094T6.5:0:0Z</time></trkpt>
<trkpt lat="45.807239" lon="1.349093"><ele>0</ele><time>3.605551242828369-408.6000061035156-49.900001525878906T6.75:0:0Z</time></trkpt>
<trkpt lat="45.807276" lon="1.349157"><ele>0</ele><time>3.605551242828369-409.20001220703125-50.29999923706055T6.25:0:0Z</time></trkpt>
<trkpt lat="45.807319" lon="1.349219"><ele>0</ele><time>3.605551242828369-408.70001220703125-49.0T6.25:0:0Z</time></trkpt>
<trkpt lat="45.807371" lon="1.349268"><ele>0</ele><time>3.605551242828369-408.29998779296875-43.0T6.25:0:0Z</time></trkpt>
<trkpt lat="45.807445" lon="1.349335"><ele>0</ele><time>4.242640495300293-408.79998779296875-37.79999923706055T5.25:0:0Z</time></trkpt>
<trkpt lat="45.807492" lon="1.349414"><ele>0</ele><time>4.242640495300293-408.29998779296875-43.79999923706055T5.5:0:0Z</time></trkpt>
<trkpt lat="45.807536" lon="1.349483"><ele>0</ele><time>4.242640495300293-407.8999938964844-44.79999923706055T5.5:0:0Z</time></trkpt>
<trkpt lat="45.807581" lon="1.349523"><ele>0</ele><time>4.242640495300293-408.29998779296875-42.099998474121094T5.0:0:0Z</time></trkpt>
<trkpt lat="45.807654" lon="1.349597"><ele>0</ele><time>5.0-408.1000061035156-34.400001525878906T5.0:0:0Z</time></trkpt>
<trkpt lat="45.807684" lon="1.349681"><ele>0</ele><time>5.0-407.20001220703125-41.900001525878906T5.0:0:0Z</time></trkpt>
<trkpt lat="45.807711" lon="1.349737"><ele>0</ele><time>5.0-407.0-46.599998474121094T4.5:0:0Z</time></trkpt>
<trkpt lat="45.80776" lon="1.349825"><ele>0</ele><time>4.242640495300293-404.5-54.400001525878906T5.83630895614624:0:0Z</time></trkpt>
<trkpt lat="45.807807" lon="1.349906"><ele>0</ele><time>3.605551242828369-404.0-58.5T6.020797252655029:0:0Z</time></trkpt>
<trkpt lat="45.807846" lon="1.349998"><ele>0</ele><time>3.605551242828369-403.79998779296875-58.20000076293945T6.25:0:0Z</time></trkpt>
<trkpt lat="45.807893" lon="1.350048"><ele>0</ele><time>3.605551242828369-404.3999938964844-43.599998474121094T5.75:0:0Z</time></trkpt>
<trkpt lat="45.80793" lon="1.350113"><ele>0</ele><time>3.605551242828369-404.3999938964844-48.70000076293945T6.0:0:0Z</time></trkpt>
<trkpt lat="45.807972" lon="1.35018"><ele>0</ele><time>4.242640495300293-404.6000061035156-48.79999923706055T6.25:0:0Z</time></trkpt>
<trkpt lat="45.808023" lon="1.350248"><ele>0</ele><time>3.605551242828369-403.0-44.70000076293945T7.017834186553955:0:0Z</time></trkpt>
<trkpt lat="45.808075" lon="1.350304"><ele>0</ele><time>3.605551242828369-402.1000061035156-40.70000076293945T6.5:0:0Z</time></trkpt>
<trkpt lat="45.808116" lon="1.350363"><ele>0</ele><time>3.605551242828369-402.3999938964844-40.29999923706055T6.5:0:0Z</time></trkpt>
<trkpt lat="45.808151" lon="1.35041"><ele>0</ele><time>3.605551242828369-402.29998779296875-41.0T5.75:0:0Z</time></trkpt>
<trkpt lat="45.808211" lon="1.350466"><ele>0</ele><time>4.242640495300293-401.79998779296875-41.400001525878906T3.75:0:0Z</time></trkpt>
<trkpt lat="45.808238" lon="1.350524"><ele>0</ele><time>3.605551242828369-400.1000061035156-51.70000076293945T3.5:0:0Z</time></trkpt>
<trkpt lat="45.808258" lon="1.350646"><ele>0</ele><time>4.4721360206604-400.3999938964844-69.0T4.25:0:0Z</time></trkpt>
<trkpt lat="45.808249" lon="1.350733"><ele>0</ele><time>6.324555397033691-400.3999938964844-81.4000015258789T5.25:0:0Z</time></trkpt>
<trkpt lat="45.808249" lon="1.3508"><ele>0</ele><time>6.324555397033691-401.0-84.5999984741211T5.25:0:0Z</time></trkpt>
<trkpt lat="45.808245" lon="1.350876"><ele>0</ele><time>6.324555397033691-400.79998779296875-88.0T5.5:0:0Z</time></trkpt>
<trkpt lat="45.808232" lon="1.350958"><ele>0</ele><time>6.324555397033691-400.79998779296875-92.0T6.0:0:0Z</time></trkpt>
<trkpt lat="45.808196" lon="1.351042"><ele>0</ele><time>6.324555397033691-399.79998779296875-101.19999694824219T6.25:0:0Z</time></trkpt>
<trkpt lat="45.808178" lon="1.351129"><ele>0</ele><time>6.324555397033691-399.79998779296875-101.0T6.5:0:0Z</time></trkpt>
<trkpt lat="45.808158" lon="1.351214"><ele>0</ele><time>6.324555397033691-400.1000061035156-101.9000015258789T6.5:0:0Z</time></trkpt>
<trkpt lat="45.808135" lon="1.351308"><ele>0</ele><time>6.7082037925720215-400.20001220703125-102.4000015258789T6.75:0:0Z</time></trkpt>
<trkpt lat="45.808119" lon="1.351387"><ele>0</ele><time>6.7082037925720215-399.79998779296875-101.80000305175781T6.75:0:0Z</time></trkpt>
<trkpt lat="45.808109" lon="1.351477"><ele>0</ele><time>8.5440034866333-399.70001220703125-101.30000305175781T6.75:0:0Z</time></trkpt>
<trkpt lat="45.808095" lon="1.351563"><ele>0</ele><time>8.5440034866333-399.79998779296875-102.0T6.75:0:0Z</time></trkpt>
<trkpt lat="45.808081" lon="1.351657"><ele>0</ele><time>8.5440034866333-399.70001220703125-101.19999694824219T7.0:0:0Z</time></trkpt>
<trkpt lat="45.808052" lon="1.351746"><ele>0</ele><time>12.369317054748535-399.5-102.80000305175781T7.0:0:0Z</time></trkpt>
<trkpt lat="45.808049" lon="1.351835"><ele>0</ele><time>12.369317054748535-399.0-101.0T7.0:0:0Z</time></trkpt>
<trkpt lat="45.80804" lon="1.352012"><ele>0</ele><time>6.324555397033691-398.5-101.80000305175781T7.0:0:0Z</time></trkpt>
<trkpt lat="45.80801" lon="1.35211"><ele>0</ele><time>4.4721360206604-397.29998779296875-102.30000305175781T7.516648292541504:0:0Z</time></trkpt>
<trkpt lat="45.807997" lon="1.352197"><ele>0</ele><time>4.4721360206604-396.20001220703125-103.4000015258789T7.5:0:0Z</time></trkpt>
<trkpt lat="45.807997" lon="1.352197"><ele>0</ele><time>4.4721360206604-396.20001220703125-103.4000015258789T7.5:0:0Z</time></trkpt>
<trkpt lat="45.807976" lon="1.352292"><ele>0</ele><time>4.4721360206604-395.5-100.80000305175781T7.0:0:0Z</time></trkpt>
<trkpt lat="45.807961" lon="1.352385"><ele>0</ele><time>4.4721360206604-395.20001220703125-100.4000015258789T7.25:0:0Z</time></trkpt>
<trkpt lat="45.807956" lon="1.35247"><ele>0</ele><time>4.4721360206604-394.6000061035156-99.5999984741211T7.0:0:0Z</time></trkpt>
<trkpt lat="45.807949" lon="1.352556"><ele>0</ele><time>4.4721360206604-394.5-99.4000015258789T7.0:0:0Z</time></trkpt>
<trkpt lat="45.807927" lon="1.352622"><ele>0</ele><time>4.4721360206604-394.79998779296875-108.80000305175781T6.25:0:0Z</time></trkpt>
<trkpt lat="45.807905" lon="1.352695"><ele>0</ele><time>4.4721360206604-394.70001220703125-111.5999984741211T5.5:0:0Z</time></trkpt>
<trkpt lat="45.807871" lon="1.352746"><ele>0</ele><time>3.605551242828369-394.6000061035156-133.5T5.5:0:0Z</time></trkpt>
<trkpt lat="45.807823" lon="1.352762"><ele>0</ele><time>3.605551242828369-394.5-153.39999389648438T5.0:0:0Z</time></trkpt>
<trkpt lat="45.807778" lon="1.3528"><ele>0</ele><time>2.8284270763397217-394.3999938964844-149.3000030517578T5.25:0:0Z</time></trkpt>
<trkpt lat="45.80774" lon="1.35284"><ele>0</ele><time>2.8284270763397217-393.5-143.0T4.75:0:0Z</time></trkpt>
<trkpt lat="45.807677" lon="1.352929"><ele>0</ele><time>2.8284270763397217-392.3999938964844-126.4000015258789T5.0:0:0Z</time></trkpt>
<trkpt lat="45.807649" lon="1.352982"><ele>0</ele><time>3.605551242828369-392.3999938964844-127.4000015258789T5.0:0:0Z</time></trkpt>
<trkpt lat="45.807603" lon="1.353038"><ele>0</ele><time>2.8284270763397217-392.29998779296875-133.60000610351563T5.75:0:0Z</time></trkpt>
<trkpt lat="45.807566" lon="1.35311"><ele>0</ele><time>2.8284270763397217-391.8999938964844-131.1999969482422T6.0:0:0Z</time></trkpt>
<trkpt lat="45.807525" lon="1.353181"><ele>0</ele><time>2.8284270763397217-391.1000061035156-132.89999389648438T6.51920223236084:0:0Z</time></trkpt>
<trkpt lat="45.807485" lon="1.353243"><ele>0</ele><time>2.8284270763397217-390.79998779296875-130.89999389648438T6.5:0:0Z</time></trkpt>
<trkpt lat="45.807442" lon="1.353312"><ele>0</ele><time>2.8284270763397217-390.20001220703125-131.10000610351563T6.75:0:0Z</time></trkpt>
<trkpt lat="45.8074" lon="1.353384"><ele>0</ele><time>2.8284270763397217-389.79998779296875-130.39999389648438T7.0:0:0Z</time></trkpt>
<trkpt lat="45.807365" lon="1.353461"><ele>0</ele><time>2.8284270763397217-389.70001220703125-129.3000030517578T7.0:0:0Z</time></trkpt>
<trkpt lat="45.807321" lon="1.353525"><ele>0</ele><time>2.8284270763397217-389.70001220703125-134.3000030517578T7.0:0:0Z</time></trkpt>
<trkpt lat="45.807287" lon="1.353588"><ele>0</ele><time>2.8284270763397217-389.8999938964844-127.80000305175781T6.5:0:0Z</time></trkpt>
<trkpt lat="45.807228" lon="1.353667"><ele>0</ele><time>2.8284270763397217-389.1000061035156-133.5T8.062257766723633:0:0Z</time></trkpt>
<trkpt lat="45.807178" lon="1.353743"><ele>0</ele><time>2.8284270763397217-388.5-132.8000030517578T8.015609741210938:0:0Z</time></trkpt>
<trkpt lat="45.807128" lon="1.353809"><ele>0</ele><time>2.8284270763397217-388.5-131.60000610351563T7.75:0:0Z</time></trkpt>
<trkpt lat="45.807077" lon="1.353893"><ele>0</ele><time>2.8284270763397217-388.5-128.8000030517578T8.25:0:0Z</time></trkpt>
<trkpt lat="45.807029" lon="1.353998"><ele>0</ele><time>2.8284270763397217-387.8999938964844-123.30000305175781T8.75:0:0Z</time></trkpt>
<trkpt lat="45.806981" lon="1.354107"><ele>0</ele><time>2.8284270763397217-387.79998779296875-119.5T9.0:0:0Z</time></trkpt>
<trkpt lat="45.806933" lon="1.354213"><ele>0</ele><time>2.8284270763397217-387.29998779296875-117.69999694824219T8.75:0:0Z</time></trkpt>
<trkpt lat="45.806894" lon="1.35431"><ele>0</ele><time>2.8284270763397217-387.20001220703125-118.4000015258789T8.75:0:0Z</time></trkpt>
<trkpt lat="45.806853" lon="1.354415"><ele>0</ele><time>2.8284270763397217-387.29998779296875-115.69999694824219T9.0:0:0Z</time></trkpt>
<trkpt lat="45.806816" lon="1.354515"><ele>0</ele><time>2.8284270763397217-386.70001220703125-116.5999984741211T8.5:0:0Z</time></trkpt>
<trkpt lat="45.806783" lon="1.354608"><ele>0</ele><time>2.8284270763397217-386.6000061035156-116.5999984741211T8.5:0:0Z</time></trkpt>
<trkpt lat="45.806754" lon="1.354695"><ele>0</ele><time>2.8284270763397217-386.3999938964844-116.4000015258789T8.0:0:0Z</time></trkpt>
<trkpt lat="45.806725" lon="1.354776"><ele>0</ele><time>2.8284270763397217-385.8999938964844-117.5999984741211T7.25:0:0Z</time></trkpt>
<trkpt lat="45.80669" lon="1.354852"><ele>0</ele><time>3.605551242828369-385.79998779296875-119.0999984741211T7.25:0:0Z</time></trkpt>
<trkpt lat="45.806659" lon="1.35493"><ele>0</ele><time>3.605551242828369-385.79998779296875-118.4000015258789T7.25:0:0Z</time></trkpt>
<trkpt lat="45.806616" lon="1.35502"><ele>0</ele><time>3.605551242828369-386.0-121.19999694824219T7.5:0:0Z</time></trkpt>
<trkpt lat="45.80658" lon="1.355103"><ele>0</ele><time>3.605551242828369-386.1000061035156-121.30000305175781T7.25:0:0Z</time></trkpt>
<trkpt lat="45.806551" lon="1.355188"><ele>0</ele><time>3.605551242828369-386.0-118.5999984741211T7.5:0:0Z</time></trkpt>
<trkpt lat="45.806521" lon="1.355295"><ele>0</ele><time>3.605551242828369-386.0-114.69999694824219T8.0:0:0Z</time></trkpt>
<trkpt lat="45.806492" lon="1.355394"><ele>0</ele><time>3.605551242828369-385.70001220703125-113.19999694824219T8.25:0:0Z</time></trkpt>
<trkpt lat="45.80646" lon="1.355513"><ele>0</ele><time>4.4721360206604-385.3999938964844-110.19999694824219T9.25:0:0Z</time></trkpt>
<trkpt lat="45.806428" lon="1.355647"><ele>0</ele><time>4.4721360206604-384.8999938964844-108.0T10.0:0:0Z</time></trkpt>
<trkpt lat="45.806391" lon="1.355775"><ele>0</ele><time>4.4721360206604-384.1000061035156-108.5999984741211T10.012492179870605:0:0Z</time></trkpt>
<trkpt lat="45.80635" lon="1.355917"><ele>0</ele><time>4.4721360206604-382.8999938964844-108.0T10.75:0:0Z</time></trkpt>
<trkpt lat="45.806304" lon="1.356048"><ele>0</ele><time>4.4721360206604-382.79998779296875-111.80000305175781T10.75:0:0Z</time></trkpt>
<trkpt lat="45.806267" lon="1.356158"><ele>0</ele><time>4.4721360206604-383.0-114.30000305175781T9.75:0:0Z</time></trkpt>
<trkpt lat="45.806244" lon="1.356268"><ele>0</ele><time>4.4721360206604-382.6000061035156-112.69999694824219T9.25:0:0Z</time></trkpt>
<trkpt lat="45.806208" lon="1.356383"><ele>0</ele><time>4.4721360206604-382.0-114.0999984741211T8.75:0:0Z</time></trkpt>
<trkpt lat="45.806141" lon="1.356455"><ele>0</ele><time>4.4721360206604-381.79998779296875-131.6999969482422T8.0:0:0Z</time></trkpt>
<trkpt lat="45.806078" lon="1.356541"><ele>0</ele><time>4.4721360206604-381.29998779296875-148.0T5.25:0:0Z</time></trkpt>
<trkpt lat="45.805974" lon="1.356566"><ele>0</ele><time>3.605551242828369-380.79998779296875-169.89999389648438T6.5:0:0Z</time></trkpt>
<trkpt lat="45.805912" lon="1.356586"><ele>0</ele><time>3.605551242828369-380.0-181.10000610351563T6.25:0:0Z</time></trkpt>
<trkpt lat="45.805833" lon="1.356583"><ele>0</ele><time>3.605551242828369-379.79998779296875-186.60000610351563T6.5:0:0Z</time></trkpt>
<trkpt lat="45.805693" lon="1.356566"><ele>0</ele><time>3.605551242828369-379.20001220703125-189.5T6.75:0:0Z</time></trkpt>
<trkpt lat="45.805623" lon="1.356546"><ele>0</ele><time>2.8284270763397217-379.3999938964844-189.60000610351563T6.75:0:0Z</time></trkpt>
<trkpt lat="45.805566" lon="1.35655"><ele>0</ele><time>2.8284270763397217-378.20001220703125-175.89999389648438T5.75:0:0Z</time></trkpt>
<trkpt lat="45.805487" lon="1.356573"><ele>0</ele><time>3.605551242828369-377.29998779296875-164.60000610351563T4.279310703277588:0:0Z</time></trkpt>
<trkpt lat="45.805442" lon="1.356593"><ele>0</ele><time>3.605551242828369-377.0-160.8000030517578T4.5:0:0Z</time></trkpt>
<trkpt lat="45.805405" lon="1.356638"><ele>0</ele><time>3.605551242828369-378.3999938964844-140.39999389648438T4.25:0:0Z</time></trkpt>
<trkpt lat="45.805339" lon="1.356715"><ele>0</ele><time>3.605551242828369-380.1000061035156-134.60000610351563T4.75:0:0Z</time></trkpt>
<trkpt lat="45.805253" lon="1.356806"><ele>0</ele><time>3.605551242828369-379.29998779296875-141.10000610351563T5.522680282592773:0:0Z</time></trkpt>
<trkpt lat="45.805213" lon="1.356852"><ele>0</ele><time>3.605551242828369-378.79998779296875-139.5T4.75:0:0Z</time></trkpt>
<trkpt lat="45.805156" lon="1.356918"><ele>0</ele><time>3.605551242828369-378.79998779296875-133.0T4.0:0:0Z</time></trkpt>
<trkpt lat="45.805101" lon="1.357"><ele>0</ele><time>4.4721360206604-379.20001220703125-134.3000030517578T4.0:0:0Z</time></trkpt>
<trkpt lat="45.805064" lon="1.357056"><ele>0</ele><time>4.4721360206604-379.5-134.89999389648438T4.25:0:0Z</time></trkpt>
<trkpt lat="45.80504" lon="1.357118"><ele>0</ele><time>4.4721360206604-379.20001220703125-122.4000015258789T2.0:0:0Z</time></trkpt>
<trkpt lat="45.804988" lon="1.357203"><ele>0</ele><time>4.4721360206604-380.20001220703125-130.6999969482422T3.0:0:0Z</time></trkpt>
<trkpt lat="45.80492" lon="1.357283"><ele>0</ele><time>4.4721360206604-380.3999938964844-131.0T3.5:0:0Z</time></trkpt>
<trkpt lat="45.804876" lon="1.357347"><ele>0</ele><time>4.4721360206604-380.70001220703125-135.5T4.5:0:0Z</time></trkpt>
<trkpt lat="45.804832" lon="1.357405"><ele>0</ele><time>3.605551242828369-380.8999938964844-132.6999969482422T4.5:0:0Z</time></trkpt>
<trkpt lat="45.804787" lon="1.357472"><ele>0</ele><time>4.4721360206604-380.70001220703125-130.1999969482422T4.0:0:0Z</time></trkpt>
<trkpt lat="45.804777" lon="1.357544"><ele>0</ele><time>5.0-381.5-119.5999984741211T3.75:0:0Z</time></trkpt>
<trkpt lat="45.804754" lon="1.357627"><ele>0</ele><time>6.7082037925720215-381.70001220703125-117.30000305175781T3.75:0:0Z</time></trkpt>
<trkpt lat="45.80472" lon="1.357727"><ele>0</ele><time>8.9442720413208-381.79998779296875-115.80000305175781T4.0:0:0Z</time></trkpt>
<trkpt lat="45.804684" lon="1.357826"><ele>0</ele><time>13.416407585144043-382.29998779296875-118.9000015258789T4.0:0:0Z</time></trkpt>
<trkpt lat="45.804651" lon="1.357926"><ele>0</ele><time>10.0-382.1000061035156-119.5T4.5:0:0Z</time></trkpt>
<trkpt lat="45.804614" lon="1.358022"><ele>0</ele><time>10.0-383.20001220703125-119.0T4.5:0:0Z</time></trkpt>
<trkpt lat="45.804576" lon="1.358123"><ele>0</ele><time>13.416407585144043-383.6000061035156-118.5999984741211T4.25:0:0Z</time></trkpt>
<trkpt lat="45.804545" lon="1.358183"><ele>0</ele><time>13.416407585144043-383.29998779296875-121.5999984741211T4.5:0:0Z</time></trkpt>
<trkpt lat="45.804495" lon="1.358251"><ele>0</ele><time>8.9442720413208-382.5-127.0T5.2737555503845215:0:0Z</time></trkpt>
<trkpt lat="45.804455" lon="1.358344"><ele>0</ele><time>7.211102485656738-381.8999938964844-127.0T4.75:0:0Z</time></trkpt>
<trkpt lat="45.804426" lon="1.358397"><ele>0</ele><time>10.0-382.20001220703125-128.5T4.75:0:0Z</time></trkpt>
<trkpt lat="45.80437" lon="1.358484"><ele>0</ele><time>13.416407585144043-382.1000061035156-131.10000610351563T4.5:0:0Z</time></trkpt>
<trkpt lat="45.804309" lon="1.358574"><ele>0</ele><time>13.416407585144043-382.3999938964844-129.0T4.75:0:0Z</time></trkpt>
<trkpt lat="45.804258" lon="1.358687"><ele>0</ele><time>13.416407585144043-383.1000061035156-125.0T4.75:0:0Z</time></trkpt>
<trkpt lat="45.804219" lon="1.358797"><ele>0</ele><time>10.0-382.20001220703125-123.80000305175781T4.25:0:0Z</time></trkpt>
<trkpt lat="45.804192" lon="1.358854"><ele>0</ele><time>13.416407585144043-381.79998779296875-123.30000305175781T4.5:0:0Z</time></trkpt>
<trkpt lat="45.804165" lon="1.358937"><ele>0</ele><time>13.416407585144043-381.79998779296875-122.19999694824219T4.0:0:0Z</time></trkpt>
<trkpt lat="45.804144" lon="1.358994"><ele>0</ele><time>10.0-382.29998779296875-121.5T4.25:0:0Z</time></trkpt>
<trkpt lat="45.804122" lon="1.359062"><ele>0</ele><time>10.0-382.20001220703125-119.69999694824219T4.25:0:0Z</time></trkpt>
<trkpt lat="45.804094" lon="1.359129"><ele>0</ele><time>8.9442720413208-381.3999938964844-120.19999694824219T4.5:0:0Z</time></trkpt>
<trkpt lat="45.804074" lon="1.359224"><ele>0</ele><time>8.9442720413208-381.70001220703125-117.30000305175781T4.0:0:0Z</time></trkpt>
<trkpt lat="45.804031" lon="1.359321"><ele>0</ele><time>13.416407585144043-381.1000061035156-124.4000015258789T3.75:0:0Z</time></trkpt>
<trkpt lat="45.803998" lon="1.35939"><ele>0</ele><time>13.416407585144043-381.8999938964844-122.80000305175781T3.0:0:0Z</time></trkpt>
<trkpt lat="45.803946" lon="1.359467"><ele>0</ele><time>13.416407585144043-383.5-122.5999984741211T3.25:0:0Z</time></trkpt>
<trkpt lat="45.803906" lon="1.359547"><ele>0</ele><time>13.416407585144043-385.20001220703125-120.30000305175781T4.25:0:0Z</time></trkpt>
<trkpt lat="45.803862" lon="1.359607"><ele>0</ele><time>13.416407585144043-386.8999938964844-125.5999984741211T4.5:0:0Z</time></trkpt>
<trkpt lat="45.803815" lon="1.359657"><ele>0</ele><time>13.416407585144043-388.29998779296875-132.39999389648438T4.75:0:0Z</time></trkpt>
<trkpt lat="45.803759" lon="1.35974"><ele>0</ele><time>13.416407585144043-388.70001220703125-134.3000030517578T4.5:0:0Z</time></trkpt>
<trkpt lat="45.803723" lon="1.35978"><ele>0</ele><time>13.416407585144043-388.8999938964844-135.1999969482422T4.5:0:0Z</time></trkpt>
<trkpt lat="45.803689" lon="1.359833"><ele>0</ele><time>12.649110794067383-389.1000061035156-140.0T4.0:0:0Z</time></trkpt>
<trkpt lat="45.803625" lon="1.359911"><ele>0</ele><time>8.5440034866333-389.29998779296875-139.5T4.0:0:0Z</time></trkpt>
<trkpt lat="45.803576" lon="1.359971"><ele>0</ele><time>6.7082037925720215-389.1000061035156-139.89999389648438T3.75:0:0Z</time></trkpt>
<trkpt lat="45.803532" lon="1.360005"><ele>0</ele><time>4.4721360206604-389.70001220703125-146.10000610351563T3.535533905029297:0:0Z</time></trkpt>
<trkpt lat="45.803479" lon="1.360039"><ele>0</ele><time>3.605551242828369-388.70001220703125-146.39999389648438T3.5:0:0Z</time></trkpt>
<trkpt lat="45.80344" lon="1.360089"><ele>0</ele><time>3.605551242828369-389.3999938964844-139.60000610351563T3.0:0:0Z</time></trkpt>
<trkpt lat="45.803405" lon="1.360135"><ele>0</ele><time>3.605551242828369-388.5-141.1999969482422T3.0:0:0Z</time></trkpt>
<trkpt lat="45.803358" lon="1.360179"><ele>0</ele><time>4.4721360206604-388.6000061035156-142.6999969482422T3.0:0:0Z</time></trkpt>
<trkpt lat="45.803304" lon="1.360225"><ele>0</ele><time>4.4721360206604-389.6000061035156-146.0T3.25:0:0Z</time></trkpt>
<trkpt lat="45.803235" lon="1.360268"><ele>0</ele><time>3.605551242828369-390.5-146.10000610351563T3.041381359100342:0:0Z</time></trkpt>
<trkpt lat="45.803194" lon="1.360318"><ele>0</ele><time>3.605551242828369-391.3999938964844-142.3000030517578T3.0:0:0Z</time></trkpt>
<trkpt lat="45.803165" lon="1.360372"><ele>0</ele><time>6.7082037925720215-391.29998779296875-135.10000610351563T2.75:0:0Z</time></trkpt>
<trkpt lat="45.803123" lon="1.360432"><ele>0</ele><time>8.9442720413208-391.70001220703125-133.3000030517578T3.0:0:0Z</time></trkpt>
<trkpt lat="45.803077" lon="1.360513"><ele>0</ele><time>8.9442720413208-392.0-130.5T2.5:0:0Z</time></trkpt>
<trkpt lat="45.803054" lon="1.360583"><ele>0</ele><time>8.9442720413208-393.3999938964844-119.9000015258789T2.5:0:0Z</time></trkpt>
<trkpt lat="45.803028" lon="1.360645"><ele>0</ele><time>7.211102485656738-393.5-121.19999694824219T2.25:0:0Z</time></trkpt>
<trkpt lat="45.802995" lon="1.360709"><ele>0</ele><time>7.211102485656738-393.1000061035156-119.9000015258789T2.5:0:0Z</time></trkpt>
<trkpt lat="45.802953" lon="1.360774"><ele>0</ele><time>7.211102485656738-391.79998779296875-127.30000305175781T3.041381359100342:0:0Z</time></trkpt>
<trkpt lat="45.80292" lon="1.360842"><ele>0</ele><time>8.9442720413208-391.20001220703125-124.30000305175781T2.75:0:0Z</time></trkpt>
<trkpt lat="45.802897" lon="1.360907"><ele>0</ele><time>8.9442720413208-392.0-122.0T2.75:0:0Z</time></trkpt>
<trkpt lat="45.802858" lon="1.360974"><ele>0</ele><time>13.416407585144043-391.20001220703125-127.69999694824219T3.0:0:0Z</time></trkpt>
<trkpt lat="45.802821" lon="1.361023"><ele>0</ele><time>13.416407585144043-392.3999938964844-132.6999969482422T2.75:0:0Z</time></trkpt>
<trkpt lat="45.802766" lon="1.361073"><ele>0</ele><time>13.416407585144043-393.5-138.8000030517578T3.0:0:0Z</time></trkpt>
<trkpt lat="45.802715" lon="1.361135"><ele>0</ele><time>13.416407585144043-395.0-140.39999389648438T2.75:0:0Z</time></trkpt>
<trkpt lat="45.802667" lon="1.361179"><ele>0</ele><time>12.649110794067383-395.79998779296875-142.0T2.75:0:0Z</time></trkpt>
<trkpt lat="45.802693" lon="1.36125"><ele>0</ele><time>8.9442720413208-398.0-123.0999984741211T2.5:0:0Z</time></trkpt>
<trkpt lat="45.802711" lon="1.361328"><ele>0</ele><time>7.211102485656738-402.6000061035156-99.5999984741211T2.462214469909668:0:0Z</time></trkpt>
<trkpt lat="45.802764" lon="1.361392"><ele>0</ele><time>6.7082037925720215-406.6000061035156-33.0T4.25:0:0Z</time></trkpt>
<trkpt lat="45.802726" lon="1.361466"><ele>0</ele><time>6.324555397033691-405.70001220703125-124.0T2.75:0:0Z</time></trkpt>
<trkpt lat="45.802691" lon="1.361521"><ele>0</ele><time>6.324555397033691-405.1000061035156-118.5999984741211T2.7950849533081055:0:0Z</time></trkpt>
<trkpt lat="45.802651" lon="1.36158"><ele>0</ele><time>6.324555397033691-404.79998779296875-129.1999969482422T2.5:0:0Z</time></trkpt>
<trkpt lat="45.802623" lon="1.361638"><ele>0</ele><time>6.324555397033691-405.3999938964844-116.0999984741211T2.5495097637176514:0:0Z</time></trkpt>
<trkpt lat="45.802578" lon="1.361689"><ele>0</ele><time>6.324555397033691-405.20001220703125-132.89999389648438T2.5:0:0Z</time></trkpt>
<trkpt lat="45.80254" lon="1.361744"><ele>0</ele><time>6.324555397033691-404.70001220703125-131.8000030517578T2.75:0:0Z</time></trkpt>
<trkpt lat="45.802501" lon="1.361792"><ele>0</ele><time>6.7082037925720215-404.79998779296875-135.89999389648438T2.75:0:0Z</time></trkpt>
<trkpt lat="45.802463" lon="1.361833"><ele>0</ele><time>8.9442720413208-405.8999938964844-142.3000030517578T2.75:0:0Z</time></trkpt>
<trkpt lat="45.802394" lon="1.361886"><ele>0</ele><time>8.9442720413208-406.70001220703125-146.5T3.25:0:0Z</time></trkpt>
<trkpt lat="45.802327" lon="1.361947"><ele>0</ele><time>12.649110794067383-406.79998779296875-146.10000610351563T3.5:0:0Z</time></trkpt>
<trkpt lat="45.802259" lon="1.361977"><ele>0</ele><time>12.369317054748535-406.20001220703125-150.3000030517578T3.5:0:0Z</time></trkpt>
<trkpt lat="45.802211" lon="1.362059"><ele>0</ele><time>4.4721360206604-403.8999938964844-129.6999969482422T3.25:0:0Z</time></trkpt>
<trkpt lat="45.802174" lon="1.362129"><ele>0</ele><time>4.4721360206604-404.5-125.80000305175781T3.25:0:0Z</time></trkpt>
<trkpt lat="45.80214" lon="1.362193"><ele>0</ele><time>3.605551242828369-403.8999938964844-127.5T3.25:0:0Z</time></trkpt>
<trkpt lat="45.802111" lon="1.362258"><ele>0</ele><time>3.605551242828369-404.5-124.69999694824219T3.0:0:0Z</time></trkpt>
<trkpt lat="45.80207" lon="1.362321"><ele>0</ele><time>3.605551242828369-403.8999938964844-126.0T3.0:0:0Z</time></trkpt>
<trkpt lat="45.802038" lon="1.362387"><ele>0</ele><time>3.605551242828369-404.29998779296875-126.19999694824219T3.25:0:0Z</time></trkpt>
<trkpt lat="45.802002" lon="1.362437"><ele>0</ele><time>4.4721360206604-404.0-129.39999389648438T3.0:0:0Z</time></trkpt>
<trkpt lat="45.801979" lon="1.362492"><ele>0</ele><time>3.605551242828369-403.70001220703125-137.0T3.288236618041992:0:0Z</time></trkpt>
<trkpt lat="45.801928" lon="1.362551"><ele>0</ele><time>3.605551242828369-402.8999938964844-140.60000610351563T3.535533905029297:0:0Z</time></trkpt>
<trkpt lat="45.801885" lon="1.362623"><ele>0</ele><time>3.605551242828369-403.20001220703125-132.5T3.535533905029297:0:0Z</time></trkpt>
<trkpt lat="45.80184" lon="1.362686"><ele>0</ele><time>3.605551242828369-403.3999938964844-134.5T3.25:0:0Z</time></trkpt>
<trkpt lat="45.801809" lon="1.36277"><ele>0</ele><time>4.4721360206604-403.6000061035156-125.5999984741211T3.25:0:0Z</time></trkpt>
<trkpt lat="45.801766" lon="1.362833"><ele>0</ele><time>6.7082037925720215-404.1000061035156-128.89999389648438T3.25:0:0Z</time></trkpt>
<trkpt lat="45.801732" lon="1.362905"><ele>0</ele><time>3.605551242828369-404.79998779296875-129.39999389648438T3.5:0:0Z</time></trkpt>
<trkpt lat="45.801685" lon="1.362973"><ele>0</ele><time>3.605551242828369-404.29998779296875-130.89999389648438T3.5:0:0Z</time></trkpt>
<trkpt lat="45.801656" lon="1.363034"><ele>0</ele><time>3.605551242828369-404.79998779296875-130.89999389648438T3.5:0:0Z</time></trkpt>
<trkpt lat="45.801632" lon="1.36309"><ele>0</ele><time>5.0-406.0-125.80000305175781T3.041381359100342:0:0Z</time></trkpt>
<trkpt lat="45.8016" lon="1.363156"><ele>0</ele><time>6.7082037925720215-405.8999938964844-126.4000015258789T3.0:0:0Z</time></trkpt>
<trkpt lat="45.801567" lon="1.363223"><ele>0</ele><time>6.7082037925720215-405.8999938964844-126.69999694824219T3.25:0:0Z</time></trkpt>
<trkpt lat="45.801536" lon="1.36329"><ele>0</ele><time>6.7082037925720215-406.20001220703125-126.19999694824219T3.25:0:0Z</time></trkpt>
<trkpt lat="45.801496" lon="1.363354"><ele>0</ele><time>6.7082037925720215-406.6000061035156-130.0T3.25:0:0Z</time></trkpt>
<trkpt lat="45.801466" lon="1.363417"><ele>0</ele><time>6.7082037925720215-405.70001220703125-125.69999694824219T3.25:0:0Z</time></trkpt>
<trkpt lat="45.801437" lon="1.363479"><ele>0</ele><time>5.656854152679443-405.20001220703125-124.5T3.25:0:0Z</time></trkpt>
<trkpt lat="45.801395" lon="1.363542"><ele>0</ele><time>5.656854152679443-404.5-128.1999969482422T3.25:0:0Z</time></trkpt>
<trkpt lat="45.801374" lon="1.363626"><ele>0</ele><time>7.211102485656738-404.70001220703125-124.19999694824219T3.5:0:0Z</time></trkpt>
<trkpt lat="45.801342" lon="1.363682"><ele>0</ele><time>6.7082037925720215-404.70001220703125-126.9000015258789T3.25:0:0Z</time></trkpt>
<trkpt lat="45.801296" lon="1.363727"><ele>0</ele><time>5.0-405.79998779296875-132.39999389648438T3.0:0:0Z</time></trkpt>
<trkpt lat="45.801274" lon="1.363822"><ele>0</ele><time>4.242640495300293-406.3999938964844-126.19999694824219T3.25:0:0Z</time></trkpt>
<trkpt lat="45.801246" lon="1.363896"><ele>0</ele><time>4.242640495300293-406.79998779296875-124.5T3.25:0:0Z</time></trkpt>
<trkpt lat="45.801207" lon="1.363967"><ele>0</ele><time>5.0-406.6000061035156-124.80000305175781T3.25:0:0Z</time></trkpt>
<trkpt lat="45.80118" lon="1.364035"><ele>0</ele><time>5.0-406.20001220703125-122.0999984741211T2.0:0:0Z</time></trkpt>
<trkpt lat="45.801138" lon="1.364083"><ele>0</ele><time>5.0-407.20001220703125-132.89999389648438T1.5:0:0Z</time></trkpt>
<trkpt lat="45.801113" lon="1.364153"><ele>0</ele><time>8.9442720413208-406.5-125.80000305175781T1.75:0:0Z</time></trkpt>
<trkpt lat="45.801058" lon="1.364205"><ele>0</ele><time>13.416407585144043-405.8999938964844-133.89999389648438T2.0:0:0Z</time></trkpt>
<trkpt lat="45.801008" lon="1.364273"><ele>0</ele><time>10.0-406.3999938964844-133.0T2.5:0:0Z</time></trkpt>
<trkpt lat="45.800969" lon="1.364328"><ele>0</ele><time>10.0-407.3999938964844-134.5T2.5:0:0Z</time></trkpt>
<trkpt lat="45.80094" lon="1.364397"><ele>0</ele><time>10.0-409.20001220703125-127.19999694824219T2.25:0:0Z</time></trkpt>
<trkpt lat="45.800874" lon="1.364467"><ele>0</ele><time>10.0-410.70001220703125-135.10000610351563T2.75:0:0Z</time></trkpt>
<trkpt lat="45.800838" lon="1.364532"><ele>0</ele><time>10.0-409.79998779296875-133.6999969482422T2.75:0:0Z</time></trkpt>
<trkpt lat="45.800789" lon="1.36458"><ele>0</ele><time>8.485280990600586-409.8999938964844-141.3000030517578T2.75:0:0Z</time></trkpt>
<trkpt lat="45.800749" lon="1.364647"><ele>0</ele><time>7.211102485656738-409.79998779296875-138.8000030517578T2.75:0:0Z</time></trkpt>
<trkpt lat="45.800711" lon="1.364683"><ele>0</ele><time>7.211102485656738-410.29998779296875-141.6999969482422T2.5:0:0Z</time></trkpt>
<trkpt lat="45.800655" lon="1.364737"><ele>0</ele><time>5.656854152679443-411.20001220703125-140.3000030517578T2.5:0:0Z</time></trkpt>
<trkpt lat="45.80061" lon="1.364786"><ele>0</ele><time>5.0-411.29998779296875-140.6999969482422T2.5:0:0Z</time></trkpt>
<trkpt lat="45.800544" lon="1.364851"><ele>0</ele><time>7.211102485656738-411.79998779296875-142.5T3.0:0:0Z</time></trkpt>
<trkpt lat="45.800494" lon="1.36487"><ele>0</ele><time>8.485280990600586-412.3999938964844-151.60000610351563T2.5:0:0Z</time></trkpt>
<trkpt lat="45.800431" lon="1.364917"><ele>0</ele><time>10.0-413.1000061035156-148.60000610351563T3.0:0:0Z</time></trkpt>
<trkpt lat="45.800374" lon="1.364992"><ele>0</ele><time>10.0-413.5-139.6999969482422T3.0:0:0Z</time></trkpt>
<trkpt lat="45.800309" lon="1.365054"><ele>0</ele><time>11.313708305358887-413.1000061035156-141.1999969482422T3.5:0:0Z</time></trkpt>
<trkpt lat="45.800265" lon="1.365115"><ele>0</ele><time>10.0-414.70001220703125-139.10000610351563T3.25:0:0Z</time></trkpt>
<trkpt lat="45.800204" lon="1.365202"><ele>0</ele><time>13.416407585144043-414.8999938964844-134.39999389648438T4.0:0:0Z</time></trkpt>
<trkpt lat="45.800137" lon="1.365296"><ele>0</ele><time>13.416407585144043-415.6000061035156-131.1999969482422T4.25:0:0Z</time></trkpt>
<trkpt lat="45.800088" lon="1.365396"><ele>0</ele><time>8.9442720413208-416.5-127.5T4.5:0:0Z</time></trkpt>
<trkpt lat="45.800066" lon="1.365455"><ele>0</ele><time>8.9442720413208-416.1000061035156-126.5T4.75:0:0Z</time></trkpt>
<trkpt lat="45.800038" lon="1.365507"><ele>0</ele><time>8.9442720413208-415.8999938964844-126.4000015258789T4.75:0:0Z</time></trkpt>
<trkpt lat="45.799997" lon="1.365567"><ele>0</ele><time>6.7082037925720215-414.70001220703125-127.0999984741211T5.024937629699707:0:0Z</time></trkpt>
<trkpt lat="45.799963" lon="1.365631"><ele>0</ele><time>6.7082037925720215-415.20001220703125-126.5999984741211T5.0:0:0Z</time></trkpt>
<trkpt lat="45.799932" lon="1.365686"><ele>0</ele><time>6.7082037925720215-415.29998779296875-127.0T5.0:0:0Z</time></trkpt>
<trkpt lat="45.799902" lon="1.365742"><ele>0</ele><time>6.7082037925720215-415.1000061035156-126.4000015258789T5.25:0:0Z</time></trkpt>
<trkpt lat="45.799853" lon="1.365832"><ele>0</ele><time>7.211102485656738-414.70001220703125-126.9000015258789T4.75:0:0Z</time></trkpt>
<trkpt lat="45.799822" lon="1.365881"><ele>0</ele><time>7.211102485656738-414.6000061035156-128.6999969482422T4.75:0:0Z</time></trkpt>
<trkpt lat="45.799766" lon="1.365976"><ele>0</ele><time>7.211102485656738-414.79998779296875-126.5999984741211T4.5:0:0Z</time></trkpt>
<trkpt lat="45.799737" lon="1.366026"><ele>0</ele><time>8.9442720413208-414.70001220703125-128.3000030517578T4.5:0:0Z</time></trkpt>
<trkpt lat="45.799684" lon="1.366113"><ele>0</ele><time>13.416407585144043-414.5-131.89999389648438T4.5:0:0Z</time></trkpt>
<trkpt lat="45.799623" lon="1.3662"><ele>0</ele><time>14.422204971313477-414.5-133.0T4.5:0:0Z</time></trkpt>
<trkpt lat="45.799601" lon="1.366271"><ele>0</ele><time>13.416407585144043-413.79998779296875-116.80000305175781T3.783186435699463:0:0Z</time></trkpt>
<trkpt lat="45.799535" lon="1.366365"><ele>0</ele><time>8.5440034866333-414.70001220703125-135.1999969482422T4.0:0:0Z</time></trkpt>
<trkpt lat="45.799477" lon="1.366436"><ele>0</ele><time>6.7082037925720215-415.3999938964844-136.0T4.25:0:0Z</time></trkpt>
<trkpt lat="45.799443" lon="1.366485"><ele>0</ele><time>6.7082037925720215-414.8999938964844-133.5T4.5:0:0Z</time></trkpt>
<trkpt lat="45.799386" lon="1.366572"><ele>0</ele><time>6.7082037925720215-414.79998779296875-132.1999969482422T4.5:0:0Z</time></trkpt>
<trkpt lat="45.799359" lon="1.366626"><ele>0</ele><time>8.9442720413208-414.8999938964844-129.89999389648438T4.75:0:0Z</time></trkpt>
<trkpt lat="45.799326" lon="1.36668"><ele>0</ele><time>13.416407585144043-415.1000061035156-130.1999969482422T5.0:0:0Z</time></trkpt>
<trkpt lat="45.799275" lon="1.366759"><ele>0</ele><time>17.0880069732666-414.8999938964844-132.1999969482422T4.5:0:0Z</time></trkpt>
<trkpt lat="45.799213" lon="1.366855"><ele>0</ele><time>17.8885440826416-415.1000061035156-131.89999389648438T4.75:0:0Z</time></trkpt>
<trkpt lat="45.799175" lon="1.36694"><ele>0</ele><time>14.422204971313477-415.3999938964844-126.30000305175781T4.0:0:0Z</time></trkpt>
<trkpt lat="45.799122" lon="1.367024"><ele>0</ele><time>10.0-414.70001220703125-130.0T4.25:0:0Z</time></trkpt>
<trkpt lat="45.799071" lon="1.367114"><ele>0</ele><time>8.9442720413208-414.0-128.89999389648438T4.5:0:0Z</time></trkpt>
<trkpt lat="45.799013" lon="1.367203"><ele>0</ele><time>6.7082037925720215-414.3999938964844-132.8000030517578T4.5:0:0Z</time></trkpt>
<trkpt lat="45.79895" lon="1.3673"><ele>0</ele><time>6.7082037925720215-413.8999938964844-130.6999969482422T4.75:0:0Z</time></trkpt>
<trkpt lat="45.798898" lon="1.367369"><ele>0</ele><time>6.324555397033691-413.3999938964844-136.1999969482422T4.25:0:0Z</time></trkpt>
<trkpt lat="45.798846" lon="1.367447"><ele>0</ele><time>6.7082037925720215-413.8999938964844-134.60000610351563T4.25:0:0Z</time></trkpt>
<trkpt lat="45.798789" lon="1.367538"><ele>0</ele><time>6.324555397033691-413.79998779296875-130.10000610351563T4.5:0:0Z</time></trkpt>
<trkpt lat="45.798759" lon="1.367588"><ele>0</ele><time>6.324555397033691-413.5-129.8000030517578T4.75:0:0Z</time></trkpt>
<trkpt lat="45.798712" lon="1.367669"><ele>0</ele><time>6.7082037925720215-414.0-130.0T4.5:0:0Z</time></trkpt>
<trkpt lat="45.798659" lon="1.367757"><ele>0</ele><time>6.7082037925720215-414.1000061035156-130.8000030517578T4.5:0:0Z</time></trkpt>
<trkpt lat="45.798631" lon="1.367831"><ele>0</ele><time>6.7082037925720215-414.6000061035156-124.80000305175781T4.25:0:0Z</time></trkpt>
<trkpt lat="45.798602" lon="1.3679"><ele>0</ele><time>6.7082037925720215-414.20001220703125-122.4000015258789T4.75:0:0Z</time></trkpt>
<trkpt lat="45.798563" lon="1.367994"><ele>0</ele><time>8.5440034866333-413.70001220703125-122.19999694824219T4.5:0:0Z</time></trkpt>
<trkpt lat="45.798518" lon="1.368043"><ele>0</ele><time>6.7082037925720215-412.29998779296875-129.5T4.25:0:0Z</time></trkpt>
<trkpt lat="45.798473" lon="1.368115"><ele>0</ele><time>6.324555397033691-412.0-129.89999389648438T4.25:0:0Z</time></trkpt>
<trkpt lat="45.798469" lon="1.36819"><ele>0</ele><time>6.324555397033691-413.20001220703125-98.4000015258789T2.9261748790740967:0:0Z</time></trkpt>
<trkpt lat="45.79844" lon="1.368296"><ele>0</ele><time>6.324555397033691-413.8999938964844-121.0T3.75:0:0Z</time></trkpt>
<trkpt lat="45.798432" lon="1.368388"><ele>0</ele><time>4.4721360206604-415.6000061035156-120.0T4.25:0:0Z</time></trkpt>
<trkpt lat="45.798399" lon="1.368472"><ele>0</ele><time>4.4721360206604-416.0-122.69999694824219T3.75:0:0Z</time></trkpt>
<trkpt lat="45.798354" lon="1.368576"><ele>0</ele><time>6.7082037925720215-415.8999938964844-120.0T4.25:0:0Z</time></trkpt>
<trkpt lat="45.798333" lon="1.368636"><ele>0</ele><time>6.7082037925720215-415.79998779296875-118.30000305175781T4.5:0:0Z</time></trkpt>
<trkpt lat="45.798308" lon="1.368692"><ele>0</ele><time>6.7082037925720215-415.8999938964844-118.69999694824219T4.5:0:0Z</time></trkpt>
<trkpt lat="45.798276" lon="1.368752"><ele>0</ele><time>6.7082037925720215-416.20001220703125-120.19999694824219T4.75:0:0Z</time></trkpt>
<trkpt lat="45.798245" lon="1.368807"><ele>0</ele><time>8.5440034866333-416.5-121.69999694824219T4.75:0:0Z</time></trkpt>
<trkpt lat="45.798217" lon="1.368918"><ele>0</ele><time>8.9442720413208-416.1000061035156-118.0T4.75:0:0Z</time></trkpt>
<trkpt lat="45.798176" lon="1.368971"><ele>0</ele><time>8.5440034866333-415.0-123.19999694824219T5.0:0:0Z</time></trkpt>
<trkpt lat="45.798159" lon="1.369062"><ele>0</ele><time>8.246211051940918-414.5-93.5T4.123105525970459:0:0Z</time></trkpt>
<trkpt lat="45.798108" lon="1.369157"><ele>0</ele><time>8.246211051940918-413.1000061035156-118.4000015258789T4.25:0:0Z</time></trkpt>
<trkpt lat="45.79807" lon="1.369241"><ele>0</ele><time>8.246211051940918-413.20001220703125-111.9000015258789T3.783186435699463:0:0Z</time></trkpt>
<trkpt lat="45.798041" lon="1.369337"><ele>0</ele><time>8.246211051940918-413.0-109.5T4.0:0:0Z</time></trkpt>
<trkpt lat="45.79806" lon="1.369438"><ele>0</ele><time>8.246211051940918-416.0-87.30000305175781T4.123105525970459:0:0Z</time></trkpt>
<trkpt lat="45.798009" lon="1.369531"><ele>0</ele><time>6.324555397033691-415.0-123.5T4.5:0:0Z</time></trkpt>
<trkpt lat="45.797983" lon="1.36963"><ele>0</ele><time>8.246211051940918-415.70001220703125-95.5T4.123105525970459:0:0Z</time></trkpt>
<trkpt lat="45.797944" lon="1.369737"><ele>0</ele><time>8.246211051940918-415.79998779296875-110.4000015258789T4.527692794799805:0:0Z</time></trkpt>
<trkpt lat="45.797922" lon="1.369832"><ele>0</ele><time>8.246211051940918-416.8999938964844-103.30000305175781T3.783186435699463:0:0Z</time></trkpt>
<trkpt lat="45.79788" lon="1.369929"><ele>0</ele><time>8.246211051940918-416.8999938964844-120.80000305175781T4.527692794799805:0:0Z</time></trkpt>
<trkpt lat="45.797856" lon="1.370021"><ele>0</ele><time>8.246211051940918-417.1000061035156-101.9000015258789T3.783186435699463:0:0Z</time></trkpt>
<trkpt lat="45.797862" lon="1.370113"><ele>0</ele><time>6.324555397033691-419.5-74.5T4.038873672485352:0:0Z</time></trkpt>
<trkpt lat="45.797819" lon="1.370239"><ele>0</ele><time>6.324555397033691-419.0-114.0T5.25:0:0Z</time></trkpt>
<trkpt lat="45.797805" lon="1.370305"><ele>0</ele><time>6.324555397033691-419.20001220703125-104.0999984741211T5.2737555503845215:0:0Z</time></trkpt>
<trkpt lat="45.79779" lon="1.370373"><ele>0</ele><time>6.324555397033691-419.6000061035156-103.80000305175781T5.522680282592773:0:0Z</time></trkpt>
<trkpt lat="45.79777" lon="1.370442"><ele>0</ele><time>6.324555397033691-419.8999938964844-106.4000015258789T5.5:0:0Z</time></trkpt>
<trkpt lat="45.797737" lon="1.370502"><ele>0</ele><time>6.324555397033691-419.5-116.0T5.5:0:0Z</time></trkpt>
<trkpt lat="45.797724" lon="1.370569"><ele>0</ele><time>6.324555397033691-419.70001220703125-101.0T5.099019527435303:0:0Z</time></trkpt>
<trkpt lat="45.797693" lon="1.370627"><ele>0</ele><time>6.324555397033691-419.0-122.5T6.020797252655029:0:0Z</time></trkpt>
<trkpt lat="45.797684" lon="1.37069"><ele>0</ele><time>6.324555397033691-420.1000061035156-93.5999984741211T4.98121452331543:0:0Z</time></trkpt>
<trkpt lat="45.797675" lon="1.370753"><ele>0</ele><time>6.324555397033691-420.5-96.0T4.776243209838867:0:0Z</time></trkpt>
<trkpt lat="45.797711" lon="1.370891"><ele>0</ele><time>6.324555397033691-426.20001220703125-71.19999694824219T6.485560894012451:0:0Z</time></trkpt>
<trkpt lat="45.797724" lon="1.370959"><ele>0</ele><time>6.324555397033691-427.20001220703125-68.69999694824219T5.942431926727295:0:0Z</time></trkpt>
<trkpt lat="45.797684" lon="1.371013"><ele>0</ele><time>6.324555397033691-426.3999938964844-111.4000015258789T5.25:0:0Z</time></trkpt>
<trkpt lat="45.797658" lon="1.371073"><ele>0</ele><time>6.324555397033691-426.1000061035156-117.4000015258789T5.25:0:0Z</time></trkpt>
<trkpt lat="45.797627" lon="1.371128"><ele>0</ele><time>6.324555397033691-425.70001220703125-118.30000305175781T5.25:0:0Z</time></trkpt>
<trkpt lat="45.7976" lon="1.371187"><ele>0</ele><time>6.324555397033691-425.5-119.0T5.25:0:0Z</time></trkpt>
<trkpt lat="45.797574" lon="1.371247"><ele>0</ele><time>6.324555397033691-425.70001220703125-116.9000015258789T5.2737555503845215:0:0Z</time></trkpt>
<trkpt lat="45.797538" lon="1.371302"><ele>0</ele><time>6.324555397033691-425.3999938964844-128.39999389648438T5.522680282592773:0:0Z</time></trkpt>
<trkpt lat="45.797505" lon="1.371359"><ele>0</ele><time>6.324555397033691-424.70001220703125-124.0999984741211T5.2737555503845215:0:0Z</time></trkpt>
<trkpt lat="45.797474" lon="1.371414"><ele>0</ele><time>6.324555397033691-424.6000061035156-125.19999694824219T5.25:0:0Z</time></trkpt>
<trkpt lat="45.797409" lon="1.371467"><ele>0</ele><time>6.324555397033691-423.1000061035156-124.0999984741211T5.25:0:0Z</time></trkpt>
<trkpt lat="45.797338" lon="1.371528"><ele>0</ele><time>4.4721360206604-421.70001220703125-129.10000610351563T6.25:0:0Z</time></trkpt>
<trkpt lat="45.7973" lon="1.371575"><ele>0</ele><time>4.4721360206604-420.8999938964844-125.19999694824219T5.25:0:0Z</time></trkpt>
<trkpt lat="45.79727" lon="1.371633"><ele>0</ele><time>3.605551242828369-420.70001220703125-123.5T5.5:0:0Z</time></trkpt>
<trkpt lat="45.797235" lon="1.371687"><ele>0</ele><time>3.605551242828369-419.8999938964844-122.5T5.25:0:0Z</time></trkpt>
<trkpt lat="45.797206" lon="1.371744"><ele>0</ele><time>3.605551242828369-419.70001220703125-122.0T5.5:0:0Z</time></trkpt>
<trkpt lat="45.797153" lon="1.371855"><ele>0</ele><time>3.605551242828369-418.70001220703125-121.69999694824219T5.25:0:0Z</time></trkpt>
<trkpt lat="45.797122" lon="1.371908"><ele>0</ele><time>3.605551242828369-418.3999938964844-123.0999984741211T5.25:0:0Z</time></trkpt>
<trkpt lat="45.797094" lon="1.371965"><ele>0</ele><time>3.605551242828369-418.1000061035156-124.5T5.25:0:0Z</time></trkpt>
<trkpt lat="45.797046" lon="1.372077"><ele>0</ele><time>2.8284270763397217-417.8999938964844-124.0T5.25:0:0Z</time></trkpt>
<trkpt lat="45.797018" lon="1.372131"><ele>0</ele><time>2.8284270763397217-417.6000061035156-122.5T5.25:0:0Z</time></trkpt>
<trkpt lat="45.796967" lon="1.372234"><ele>0</ele><time>2.8284270763397217-417.5-123.19999694824219T5.25:0:0Z</time></trkpt>
<trkpt lat="45.796916" lon="1.372348"><ele>0</ele><time>2.8284270763397217-417.1000061035156-123.30000305175781T5.25:0:0Z</time></trkpt>
<trkpt lat="45.796884" lon="1.37241"><ele>0</ele><time>2.8284270763397217-417.3999938964844-125.5999984741211T5.5:0:0Z</time></trkpt>
<trkpt lat="45.796855" lon="1.372469"><ele>0</ele><time>2.8284270763397217-417.20001220703125-124.30000305175781T5.5:0:0Z</time></trkpt>
<trkpt lat="45.796828" lon="1.372526"><ele>0</ele><time>2.8284270763397217-417.20001220703125-125.30000305175781T5.5:0:0Z</time></trkpt>
<trkpt lat="45.796794" lon="1.372583"><ele>0</ele><time>2.8284270763397217-417.70001220703125-128.10000610351563T5.5:0:0Z</time></trkpt>
<trkpt lat="45.796768" lon="1.372638"><ele>0</ele><time>2.8284270763397217-418.20001220703125-125.19999694824219T5.25:0:0Z</time></trkpt>
<trkpt lat="45.796738" lon="1.372691"><ele>0</ele><time>2.8284270763397217-418.3999938964844-130.89999389648438T5.25:0:0Z</time></trkpt>
<trkpt lat="45.796684" lon="1.372794"><ele>0</ele><time>2.8284270763397217-417.70001220703125-128.10000610351563T5.0:0:0Z</time></trkpt>
<trkpt lat="45.796621" lon="1.372897"><ele>0</ele><time>2.8284270763397217-417.70001220703125-131.0T5.25:0:0Z</time></trkpt>
<trkpt lat="45.796591" lon="1.372956"><ele>0</ele><time>2.8284270763397217-417.79998779296875-128.89999389648438T5.25:0:0Z</time></trkpt>
<trkpt lat="45.796534" lon="1.37306"><ele>0</ele><time>2.8284270763397217-417.79998779296875-127.5T5.25:0:0Z</time></trkpt>
<trkpt lat="45.796504" lon="1.37311"><ele>0</ele><time>2.8284270763397217-417.70001220703125-129.5T5.25:0:0Z</time></trkpt>
<trkpt lat="45.796457" lon="1.373219"><ele>0</ele><time>2.8284270763397217-417.6000061035156-120.69999694824219T5.25:0:0Z</time></trkpt>
<trkpt lat="45.796391" lon="1.373307"><ele>0</ele><time>2.8284270763397217-417.5-128.89999389648438T5.0:0:0Z</time></trkpt>
<trkpt lat="45.796335" lon="1.37341"><ele>0</ele><time>2.8284270763397217-418.20001220703125-133.89999389648438T5.25:0:0Z</time></trkpt>
<trkpt lat="45.796295" lon="1.373451"><ele>0</ele><time>2.8284270763397217-418.5-138.39999389648438T5.0:0:0Z</time></trkpt>
<trkpt lat="45.796226" lon="1.373533"><ele>0</ele><time>2.8284270763397217-418.29998779296875-142.60000610351563T4.5:0:0Z</time></trkpt>
<trkpt lat="45.796175" lon="1.373599"><ele>0</ele><time>2.8284270763397217-418.70001220703125-142.5T4.0:0:0Z</time></trkpt>
<trkpt lat="45.796123" lon="1.373636"><ele>0</ele><time>2.8284270763397217-423.6000061035156-151.10000610351563T3.5794553756713867:0:0Z</time></trkpt>
<trkpt lat="45.796062" lon="1.373694"><ele>0</ele><time>2.8284270763397217-424.1000061035156-143.10000610351563T4.031128883361816:0:0Z</time></trkpt>
<trkpt lat="45.796003" lon="1.37376"><ele>0</ele><time>2.8284270763397217-423.70001220703125-140.1999969482422T4.0:0:0Z</time></trkpt>
<trkpt lat="45.795941" lon="1.37384"><ele>0</ele><time>2.8284270763397217-424.0-131.89999389648438T4.031128883361816:0:0Z</time></trkpt>
<trkpt lat="45.795884" lon="1.373908"><ele>0</ele><time>2.8284270763397217-424.0-137.6999969482422T4.0:0:0Z</time></trkpt>
<trkpt lat="45.795842" lon="1.373978"><ele>0</ele><time>2.8284270763397217-423.8999938964844-131.60000610351563T3.535533905029297:0:0Z</time></trkpt>
<trkpt lat="45.795796" lon="1.37405"><ele>0</ele><time>2.8284270763397217-424.20001220703125-131.8000030517578T3.783186435699463:0:0Z</time></trkpt>
<trkpt lat="45.795753" lon="1.374125"><ele>0</ele><time>2.8284270763397217-424.5-130.1999969482422T3.75:0:0Z</time></trkpt>
<trkpt lat="45.795708" lon="1.374189"><ele>0</ele><time>2.8284270763397217-426.1000061035156-130.8000030517578T3.783186435699463:0:0Z</time></trkpt>
<trkpt lat="45.795662" lon="1.374266"><ele>0</ele><time>2.8284270763397217-426.29998779296875-127.69999694824219T3.5:0:0Z</time></trkpt>
<trkpt lat="45.795621" lon="1.374338"><ele>0</ele><time>2.8284270763397217-426.1000061035156-129.10000610351563T3.5:0:0Z</time></trkpt>
<trkpt lat="45.795585" lon="1.374412"><ele>0</ele><time>2.8284270763397217-425.8999938964844-127.4000015258789T3.5:0:0Z</time></trkpt>
<trkpt lat="45.795552" lon="1.374486"><ele>0</ele><time>2.8284270763397217-426.0-126.0T3.5:0:0Z</time></trkpt>
<trkpt lat="45.795513" lon="1.374563"><ele>0</ele><time>2.8284270763397217-425.70001220703125-124.0T3.5:0:0Z</time></trkpt>
<trkpt lat="45.795478" lon="1.374636"><ele>0</ele><time>2.8284270763397217-425.3999938964844-124.19999694824219T3.5:0:0Z</time></trkpt>
<trkpt lat="45.795425" lon="1.374707"><ele>0</ele><time>2.8284270763397217-426.0-139.5T4.5:0:0Z</time></trkpt>
<trkpt lat="45.795374" lon="1.374789"><ele>0</ele><time>2.8284270763397217-426.0-128.10000610351563T4.25:0:0Z</time></trkpt>
<trkpt lat="45.795351" lon="1.374864"><ele>0</ele><time>2.8284270763397217-425.5-120.0999984741211T3.5:0:0Z</time></trkpt>
<trkpt lat="45.795339" lon="1.37494"><ele>0</ele><time>2.8284270763397217-425.79998779296875-111.5999984741211T3.5:0:0Z</time></trkpt>
<trkpt lat="45.795321" lon="1.375014"><ele>0</ele><time>2.8284270763397217-425.6000061035156-114.5999984741211T3.25:0:0Z</time></trkpt>
<trkpt lat="45.795302" lon="1.375084"><ele>0</ele><time>2.8284270763397217-426.0-115.4000015258789T3.0:0:0Z</time></trkpt>
<trkpt lat="45.795271" lon="1.375198"><ele>0</ele><time>2.8284270763397217-425.3999938964844-113.19999694824219T3.25:0:0Z</time></trkpt>
<trkpt lat="45.795234" lon="1.375277"><ele>0</ele><time>2.8284270763397217-427.20001220703125-118.69999694824219T3.5:0:0Z</time></trkpt>
<trkpt lat="45.795208" lon="1.375349"><ele>0</ele><time>2.8284270763397217-427.8999938964844-118.4000015258789T3.0:0:0Z</time></trkpt>
<trkpt lat="45.79519" lon="1.375431"><ele>0</ele><time>2.8284270763397217-429.20001220703125-117.5999984741211T3.640054941177368:0:0Z</time></trkpt>
<trkpt lat="45.79516" lon="1.375503"><ele>0</ele><time>2.8284270763397217-431.0-118.80000305175781T3.535533905029297:0:0Z</time></trkpt>
<trkpt lat="45.795136" lon="1.375569"><ele>0</ele><time>2.8284270763397217-431.8999938964844-115.4000015258789T3.25:0:0Z</time></trkpt>
<trkpt lat="45.795118" lon="1.375636"><ele>0</ele><time>2.8284270763397217-433.8999938964844-108.80000305175781T3.041381359100342:0:0Z</time></trkpt>
<trkpt lat="45.795101" lon="1.375711"><ele>0</ele><time>2.8284270763397217-434.79998779296875-110.30000305175781T3.041381359100342:0:0Z</time></trkpt>
<trkpt lat="45.795077" lon="1.375795"><ele>0</ele><time>2.8284270763397217-435.0-114.0T3.783186435699463:0:0Z</time></trkpt>
<trkpt lat="45.79506" lon="1.375884"><ele>0</ele><time>2.8284270763397217-435.6000061035156-107.5T3.535533905029297:0:0Z</time></trkpt>
<trkpt lat="45.795048" lon="1.375971"><ele>0</ele><time>2.8284270763397217-435.29998779296875-105.69999694824219T3.75:0:0Z</time></trkpt>
<trkpt lat="45.79503" lon="1.376063"><ele>0</ele><time>2.8284270763397217-434.70001220703125-103.4000015258789T3.5:0:0Z</time></trkpt>
<trkpt lat="45.795001" lon="1.376151"><ele>0</ele><time>2.8284270763397217-435.20001220703125-114.9000015258789T3.783186435699463:0:0Z</time></trkpt>
<trkpt lat="45.794967" lon="1.376235"><ele>0</ele><time>2.8284270763397217-435.6000061035156-120.80000305175781T3.75:0:0Z</time></trkpt>
<trkpt lat="45.794937" lon="1.376329"><ele>0</ele><time>2.8284270763397217-435.20001220703125-114.4000015258789T4.0:0:0Z</time></trkpt>
<trkpt lat="45.794903" lon="1.37642"><ele>0</ele><time>2.8284270763397217-434.5-118.0999984741211T4.0:0:0Z</time></trkpt>
<trkpt lat="45.794878" lon="1.376514"><ele>0</ele><time>2.8284270763397217-434.20001220703125-116.5T4.0:0:0Z</time></trkpt>
<trkpt lat="45.794839" lon="1.376602"><ele>0</ele><time>2.8284270763397217-433.6000061035156-121.0999984741211T4.0:0:0Z</time></trkpt>
<trkpt lat="45.79481" lon="1.376693"><ele>0</ele><time>2.8284270763397217-432.8999938964844-115.4000015258789T4.031128883361816:0:0Z</time></trkpt>
<trkpt lat="45.794775" lon="1.376781"><ele>0</ele><time>2.8284270763397217-432.79998779296875-117.9000015258789T3.75:0:0Z</time></trkpt>
<trkpt lat="45.79474" lon="1.37686"><ele>0</ele><time>2.8284270763397217-432.79998779296875-121.0999984741211T3.75:0:0Z</time></trkpt>
<trkpt lat="45.79472" lon="1.376924"><ele>0</ele><time>3.605551242828369-432.20001220703125-115.80000305175781T3.0:0:0Z</time></trkpt>
<trkpt lat="45.79467" lon="1.376985"><ele>0</ele><time>3.605551242828369-431.70001220703125-133.3000030517578T3.25:0:0Z</time></trkpt>
<trkpt lat="45.794625" lon="1.377042"><ele>0</ele><time>3.605551242828369-430.6000061035156-135.8000030517578T3.5:0:0Z</time></trkpt>
<trkpt lat="45.794581" lon="1.377103"><ele>0</ele><time>3.605551242828369-431.0-135.6999969482422T3.5:0:0Z</time></trkpt>
<trkpt lat="45.794534" lon="1.37716"><ele>0</ele><time>3.605551242828369-432.0-137.39999389648438T3.25:0:0Z</time></trkpt>
<trkpt lat="45.794493" lon="1.377229"><ele>0</ele><time>2.8284270763397217-432.5-134.6999969482422T3.25:0:0Z</time></trkpt>
<trkpt lat="45.794446" lon="1.377276"><ele>0</ele><time>2.8284270763397217-433.79998779296875-145.10000610351563T3.0:0:0Z</time></trkpt>
<trkpt lat="45.794402" lon="1.377313"><ele>0</ele><time>2.8284270763397217-433.6000061035156-152.39999389648438T2.75:0:0Z</time></trkpt>
<trkpt lat="45.794356" lon="1.37734"><ele>0</ele><time>2.8284270763397217-433.79998779296875-154.6999969482422T2.75:0:0Z</time></trkpt>
<trkpt lat="45.794312" lon="1.377372"><ele>0</ele><time>2.8284270763397217-434.79998779296875-152.60000610351563T2.5:0:0Z</time></trkpt>
<trkpt lat="45.794246" lon="1.377406"><ele>0</ele><time>4.242640495300293-435.70001220703125-160.3000030517578T2.75:0:0Z</time></trkpt>
<trkpt lat="45.794208" lon="1.377444"><ele>0</ele><time>7.211102485656738-437.3999938964844-155.10000610351563T2.25:0:0Z</time></trkpt>
<trkpt lat="45.794156" lon="1.377476"><ele>0</ele><time>7.211102485656738-438.6000061035156-158.8000030517578T2.25:0:0Z</time></trkpt>
<trkpt lat="45.794102" lon="1.377502"><ele>0</ele><time>8.485280990600586-438.70001220703125-162.10000610351563T2.5:0:0Z</time></trkpt>
<trkpt lat="45.794059" lon="1.377551"><ele>0</ele><time>8.485280990600586-438.29998779296875-146.60000610351563T2.5495097637176514:0:0Z</time></trkpt>
<trkpt lat="45.794024" lon="1.377599"><ele>0</ele><time>8.485280990600586-438.79998779296875-132.3000030517578T1.5:0:0Z</time></trkpt>
<trkpt lat="45.794005" lon="1.377659"><ele>0</ele><time>8.485280990600586-441.20001220703125-122.80000305175781T1.5:0:0Z</time></trkpt>
<trkpt lat="45.793979" lon="1.377719"><ele>0</ele><time>11.313708305358887-441.79998779296875-128.3000030517578T1.5:0:0Z</time></trkpt>
<trkpt lat="45.793935" lon="1.37776"><ele>0</ele><time>11.313708305358887-442.0-142.6999969482422T2.0:0:0Z</time></trkpt>
<trkpt lat="45.793907" lon="1.377818"><ele>0</ele><time>11.313708305358887-443.6000061035156-139.5T1.5:0:0Z</time></trkpt>
<trkpt lat="45.793867" lon="1.377886"><ele>0</ele><time>10.0-444.29998779296875-131.1999969482422T1.5:0:0Z</time></trkpt>
<trkpt lat="45.793814" lon="1.377944"><ele>0</ele><time>10.0-445.70001220703125-132.39999389648438T1.5:0:0Z</time></trkpt>
<trkpt lat="45.793765" lon="1.377982"><ele>0</ele><time>7.211102485656738-450.1000061035156-145.89999389648438T1.8027756214141846:0:0Z</time></trkpt>
<trkpt lat="45.793735" lon="1.378033"><ele>0</ele><time>5.0-450.8999938964844-134.60000610351563T1.5811388492584229:0:0Z</time></trkpt>
<trkpt lat="45.793681" lon="1.378081"><ele>0</ele><time>8.485280990600586-451.20001220703125-149.10000610351563T1.5:0:0Z</time></trkpt>
<trkpt lat="45.793634" lon="1.378144"><ele>0</ele><time>11.313708305358887-451.79998779296875-137.3000030517578T1.75:0:0Z</time></trkpt>
<trkpt lat="45.793575" lon="1.378171"><ele>0</ele><time>14.422204971313477-451.20001220703125-148.0T2.25:0:0Z</time></trkpt>
<trkpt lat="45.793541" lon="1.378233"><ele>0</ele><time>14.422204971313477-451.1000061035156-137.8000030517578T2.25:0:0Z</time></trkpt>
<trkpt lat="45.793506" lon="1.378307"><ele>0</ele><time>14.422204971313477-451.20001220703125-135.6999969482422T2.5:0:0Z</time></trkpt>
<trkpt lat="45.793452" lon="1.37838"><ele>0</ele><time>7.211102485656738-452.79998779296875-132.60000610351563T1.5:0:0Z</time></trkpt>
<trkpt lat="45.79343" lon="1.378452"><ele>0</ele><time>7.211102485656738-454.20001220703125-119.19999694824219T1.75:0:0Z</time></trkpt>
<trkpt lat="45.793385" lon="1.37851"><ele>0</ele><time>10.0-454.1000061035156-128.10000610351563T2.0:0:0Z</time></trkpt>
<trkpt lat="45.793345" lon="1.378564"><ele>0</ele><time>10.0-455.3999938964844-127.69999694824219T1.75:0:0Z</time></trkpt>
<trkpt lat="45.793321" lon="1.378624"><ele>0</ele><time>8.485280990600586-455.3999938964844-114.5T1.75:0:0Z</time></trkpt>
<trkpt lat="45.7933" lon="1.378695"><ele>0</ele><time>10.0-455.1000061035156-118.0999984741211T1.5:0:0Z</time></trkpt>
<trkpt lat="45.793272" lon="1.378751"><ele>0</ele><time>8.9442720413208-455.79998779296875-120.4000015258789T1.75:0:0Z</time></trkpt>
<trkpt lat="45.793247" lon="1.378825"><ele>0</ele><time>10.0-456.20001220703125-108.9000015258789T1.75:0:0Z</time></trkpt>
<trkpt lat="45.793223" lon="1.378923"><ele>0</ele><time>12.649110794067383-454.8999938964844-108.69999694824219T2.25:0:0Z</time></trkpt>
<trkpt lat="45.793201" lon="1.378999"><ele>0</ele><time>17.0880069732666-454.1000061035156-108.30000305175781T2.5:0:0Z</time></trkpt>
<trkpt lat="45.793155" lon="1.37908"><ele>0</ele><time>24.73863410949707-454.3999938964844-118.69999694824219T2.75:0:0Z</time></trkpt>
<trkpt lat="45.793083" lon="1.379168"><ele>0</ele><time>17.0880069732666-455.29998779296875-125.5999984741211T3.25:0:0Z</time></trkpt>
<trkpt lat="45.793054" lon="1.379217"><ele>0</ele><time>12.649110794067383-456.29998779296875-130.3000030517578T2.75:0:0Z</time></trkpt>
<trkpt lat="45.793025" lon="1.379276"><ele>0</ele><time>8.9442720413208-457.0-130.89999389648438T2.75:0:0Z</time></trkpt>
<trkpt lat="45.792988" lon="1.379338"><ele>0</ele><time>8.5440034866333-457.79998779296875-133.1999969482422T2.75:0:0Z</time></trkpt>
<trkpt lat="45.792965" lon="1.379401"><ele>0</ele><time>6.7082037925720215-460.20001220703125-140.3000030517578T2.5:0:0Z</time></trkpt>
<trkpt lat="45.792928" lon="1.379448"><ele>0</ele><time>7.211102485656738-461.5-137.8000030517578T2.25:0:0Z</time></trkpt>
<trkpt lat="45.792918" lon="1.379526"><ele>0</ele><time>7.211102485656738-463.8999938964844-115.5999984741211T1.0:0:0Z</time></trkpt>
<trkpt lat="45.792894" lon="1.379612"><ele>0</ele><time>6.7082037925720215-464.1000061035156-108.69999694824219T1.75:0:0Z</time></trkpt>
<trkpt lat="45.792879" lon="1.379674"><ele>0</ele><time>7.211102485656738-464.5-112.19999694824219T2.0:0:0Z</time></trkpt>
<trkpt lat="45.792853" lon="1.379753"><ele>0</ele><time>5.0-465.6000061035156-118.30000305175781T2.0615527629852295:0:0Z</time></trkpt>
<trkpt lat="45.792817" lon="1.3798"><ele>0</ele><time>5.0-465.3999938964844-132.1999969482422T1.5:0:0Z</time></trkpt>
<trkpt lat="45.79278" lon="1.379859"><ele>0</ele><time>5.0-463.3999938964844-126.5999984741211T2.0:0:0Z</time></trkpt>
<trkpt lat="45.792751" lon="1.379934"><ele>0</ele><time>6.7082037925720215-463.1000061035156-123.9000015258789T2.0:0:0Z</time></trkpt>
<trkpt lat="45.792716" lon="1.380005"><ele>0</ele><time>6.7082037925720215-460.6000061035156-130.6999969482422T2.75:0:0Z</time></trkpt>
<trkpt lat="45.79269" lon="1.380066"><ele>0</ele><time>6.7082037925720215-459.70001220703125-128.60000610351563T2.5:0:0Z</time></trkpt>
<trkpt lat="45.792655" lon="1.380132"><ele>0</ele><time>8.9442720413208-458.6000061035156-129.39999389648438T2.75:0:0Z</time></trkpt>
<trkpt lat="45.792629" lon="1.380187"><ele>0</ele><time>8.5440034866333-459.1000061035156-128.39999389648438T2.75:0:0Z</time></trkpt>
<trkpt lat="45.792593" lon="1.380234"><ele>0</ele><time>8.9442720413208-459.20001220703125-129.5T3.25:0:0Z</time></trkpt>
<trkpt lat="45.792515" lon="1.380306"><ele>0</ele><time>12.649110794067383-462.20001220703125-136.89999389648438T3.5:0:0Z</time></trkpt>
<trkpt lat="45.792491" lon="1.380363"><ele>0</ele><time>6.7082037925720215-462.79998779296875-138.0T3.535533905029297:0:0Z</time></trkpt>
<trkpt lat="45.792445" lon="1.380426"><ele>0</ele><time>6.7082037925720215-463.70001220703125-122.69999694824219T2.75:0:0Z</time></trkpt>
<trkpt lat="45.79241" lon="1.380488"><ele>0</ele><time>6.7082037925720215-465.0-122.5T2.75:0:0Z</time></trkpt>
<trkpt lat="45.792385" lon="1.380566"><ele>0</ele><time>8.9442720413208-465.8999938964844-118.69999694824219T3.0:0:0Z</time></trkpt>
<trkpt lat="45.792348" lon="1.380633"><ele>0</ele><time>10.0-467.0-121.5999984741211T3.0:0:0Z</time></trkpt>
<trkpt lat="45.792315" lon="1.3807"><ele>0</ele><time>8.9442720413208-465.79998779296875-121.0T3.25:0:0Z</time></trkpt>
<trkpt lat="45.79226" lon="1.380789"><ele>0</ele><time>12.649110794067383-466.5-124.30000305175781T3.75:0:0Z</time></trkpt>
<trkpt lat="45.792297" lon="1.380829"><ele>0</ele><time>12.649110794067383-467.3999938964844-111.5999984741211T3.25:0:0Z</time></trkpt>
<trkpt lat="45.792317" lon="1.380898"><ele>0</ele><time>12.649110794067383-468.1000061035156-105.19999694824219T2.75:0:0Z</time></trkpt>
<trkpt lat="45.792337" lon="1.380968"><ele>0</ele><time>12.649110794067383-469.79998779296875-114.9000015258789T2.0:0:0Z</time></trkpt>
<trkpt lat="45.792405" lon="1.38095"><ele>0</ele><time>13.416407585144043-470.79998779296875-111.0999984741211T0.25:0:0Z</time></trkpt>
<trkpt lat="45.792339" lon="1.380974"><ele>0</ele><time>13.416407585144043-470.5-111.0999984741211T0.0:0:0Z</time></trkpt>
<trkpt lat="45.79235" lon="1.381058"><ele>0</ele><time>13.416407585144043-470.1000061035156-105.69999694824219T1.25:0:0Z</time></trkpt>
<trkpt lat="45.792313" lon="1.381111"><ele>0</ele><time>13.416407585144043-472.20001220703125-114.69999694824219T1.5:0:0Z</time></trkpt>
<trkpt lat="45.792183" lon="1.381118"><ele>0</ele><time>13.416407585144043-468.5-139.5T2.25:0:0Z</time></trkpt>
<trkpt lat="45.792114" lon="1.381197"><ele>0</ele><time>13.416407585144043-467.8999938964844-129.3000030517578T3.0:0:0Z</time></trkpt>
<trkpt lat="45.792069" lon="1.381267"><ele>0</ele><time>13.416407585144043-467.5-127.0T3.0:0:0Z</time></trkpt>
<trkpt lat="45.79203" lon="1.381334"><ele>0</ele><time>12.649110794067383-467.29998779296875-123.9000015258789T2.5:0:0Z</time></trkpt>
<trkpt lat="45.791951" lon="1.381376"><ele>0</ele><time>12.649110794067383-465.29998779296875-137.5T2.5:0:0Z</time></trkpt>
<trkpt lat="45.791882" lon="1.381448"><ele>0</ele><time>8.9442720413208-466.79998779296875-139.5T2.75:0:0Z</time></trkpt>
<trkpt lat="45.791831" lon="1.381524"><ele>0</ele><time>8.5440034866333-467.6000061035156-136.60000610351563T3.0:0:0Z</time></trkpt>
<trkpt lat="45.791783" lon="1.381577"><ele>0</ele><time>8.9442720413208-467.8999938964844-135.10000610351563T3.5:0:0Z</time></trkpt>
<trkpt lat="45.791748" lon="1.381641"><ele>0</ele><time>8.9442720413208-468.5-140.1999969482422T2.0:0:0Z</time></trkpt>
<trkpt lat="45.791689" lon="1.38171"><ele>0</ele><time>10.0-469.70001220703125-140.1999969482422T2.5:0:0Z</time></trkpt>
<trkpt lat="45.791647" lon="1.381773"><ele>0</ele><time>10.0-471.6000061035156-132.10000610351563T4.031128883361816:0:0Z</time></trkpt>
<trkpt lat="45.791601" lon="1.381854"><ele>0</ele><time>10.0-471.3999938964844-129.10000610351563T3.783186435699463:0:0Z</time></trkpt>
<trkpt lat="45.791553" lon="1.381922"><ele>0</ele><time>10.0-471.3999938964844-129.8000030517578T3.5:0:0Z</time></trkpt>
<trkpt lat="45.791515" lon="1.381997"><ele>0</ele><time>10.0-470.5-127.4000015258789T3.5:0:0Z</time></trkpt>
<trkpt lat="45.791479" lon="1.382087"><ele>0</ele><time>10.0-469.1000061035156-123.9000015258789T3.75:0:0Z</time></trkpt>
<trkpt lat="45.791457" lon="1.382144"><ele>0</ele><time>10.0-468.29998779296875-122.19999694824219T4.0:0:0Z</time></trkpt>
<trkpt lat="45.791429" lon="1.382211"><ele>0</ele><time>10.0-467.6000061035156-120.80000305175781T4.25:0:0Z</time></trkpt>
<trkpt lat="45.791403" lon="1.382265"><ele>0</ele><time>13.416407585144043-467.70001220703125-121.19999694824219T4.5:0:0Z</time></trkpt>
<trkpt lat="45.791368" lon="1.382316"><ele>0</ele><time>13.416407585144043-467.20001220703125-125.19999694824219T4.5:0:0Z</time></trkpt>
<trkpt lat="45.791334" lon="1.38237"><ele>0</ele><time>13.416407585144043-466.8999938964844-126.5999984741211T4.75:0:0Z</time></trkpt>
<trkpt lat="45.791301" lon="1.382423"><ele>0</ele><time>10.0-465.0-127.9000015258789T4.776243209838867:0:0Z</time></trkpt>
<trkpt lat="45.791243" lon="1.382508"><ele>0</ele><time>10.0-463.3999938964844-131.8000030517578T4.527692794799805:0:0Z</time></trkpt>
<trkpt lat="45.791187" lon="1.382575"><ele>0</ele><time>10.0-462.20001220703125-133.5T3.288236618041992:0:0Z</time></trkpt>
<trkpt lat="45.79115" lon="1.382627"><ele>0</ele><time>8.9442720413208-462.5-135.3000030517578T4.776243209838867:0:0Z</time></trkpt>
<trkpt lat="45.791115" lon="1.382671"><ele>0</ele><time>8.9442720413208-463.3999938964844-136.10000610351563T4.527692794799805:0:0Z</time></trkpt>
<trkpt lat="45.791048" lon="1.382742"><ele>0</ele><time>10.0-464.0-144.39999389648438T4.5:0:0Z</time></trkpt>
<trkpt lat="45.790993" lon="1.382766"><ele>0</ele><time>10.0-463.20001220703125-151.3000030517578T4.25:0:0Z</time></trkpt>
<trkpt lat="45.790905" lon="1.382814"><ele>0</ele><time>10.0-462.6000061035156-156.10000610351563T4.5:0:0Z</time></trkpt>
<trkpt lat="45.790851" lon="1.382838"><ele>0</ele><time>10.0-462.3999938964844-158.3000030517578T4.75:0:0Z</time></trkpt>
<trkpt lat="45.790764" lon="1.382885"><ele>0</ele><time>14.422204971313477-462.70001220703125-158.39999389648438T4.75:0:0Z</time></trkpt>
<trkpt lat="45.790716" lon="1.382918"><ele>0</ele><time>14.422204971313477-463.8999938964844-157.89999389648438T5.0:0:0Z</time></trkpt>
<trkpt lat="45.79064" lon="1.382953"><ele>0</ele><time>14.422204971313477-465.79998779296875-159.89999389648438T4.5:0:0Z</time></trkpt>
<trkpt lat="45.790595" lon="1.382995"><ele>0</ele><time>13.416407585144043-466.79998779296875-157.39999389648438T4.75:0:0Z</time></trkpt>
<trkpt lat="45.790544" lon="1.383047"><ele>0</ele><time>10.0-468.3999938964844-152.89999389648438T5.2737555503845215:0:0Z</time></trkpt>
<trkpt lat="45.790498" lon="1.383073"><ele>0</ele><time>8.485280990600586-468.8999938964844-154.39999389648438T5.25:0:0Z</time></trkpt>
<trkpt lat="45.790453" lon="1.3831"><ele>0</ele><time>8.485280990600586-469.5-159.89999389648438T5.0:0:0Z</time></trkpt>
<trkpt lat="45.790409" lon="1.383125"><ele>0</ele><time>8.485280990600586-469.6000061035156-161.60000610351563T5.0:0:0Z</time></trkpt>
<trkpt lat="45.790354" lon="1.383121"><ele>0</ele><time>8.9442720413208-468.8999938964844-166.8000030517578T5.25:0:0Z</time></trkpt>
<trkpt lat="45.790302" lon="1.383136"><ele>0</ele><time>8.485280990600586-467.6000061035156-158.10000610351563T2.75:0:0Z</time></trkpt>
<trkpt lat="45.790237" lon="1.383187"><ele>0</ele><time>8.485280990600586-466.5-149.89999389648438T2.75:0:0Z</time></trkpt>
<trkpt lat="45.790189" lon="1.383194"><ele>0</ele><time>8.485280990600586-466.20001220703125-160.6999969482422T1.5:0:0Z</time></trkpt>
<trkpt lat="45.790137" lon="1.383219"><ele>0</ele><time>8.485280990600586-466.1000061035156-146.3000030517578T0.0:0:0Z</time></trkpt>
<trkpt lat="45.790084" lon="1.38325"><ele>0</ele><time>7.211102485656738-465.5-146.0T1.346291184425354:0:0Z</time></trkpt>
<trkpt lat="45.790038" lon="1.383268"><ele>0</ele><time>10.0-466.3999938964844-113.30000305175781T0.0:0:0Z</time></trkpt>
<trkpt lat="45.790029" lon="1.383278"><ele>0</ele><time>10.0-465.8999938964844-113.30000305175781T0.0:0:0Z</time></trkpt>
<trkpt lat="45.789991" lon="1.383312"><ele>0</ele><time>8.485280990600586-466.5-113.30000305175781T0.5:0:0Z</time></trkpt>
<trkpt lat="45.789985" lon="1.383324"><ele>0</ele><time>10.0-465.8999938964844-113.30000305175781T0.5:0:0Z</time></trkpt>
<trkpt lat="45.789969" lon="1.383387"><ele>0</ele><time>7.211102485656738-461.3999938964844-91.5T1.1180340051651:0:0Z</time></trkpt>
<trkpt lat="45.789997" lon="1.383449"><ele>0</ele><time>5.0-462.3999938964844-41.900001525878906T0.9013878107070923:0:0Z</time></trkpt>
<trkpt lat="45.789994" lon="1.383525"><ele>0</ele><time>3.605551242828369-463.5-129.5T1.0:0:0Z</time></trkpt>
<trkpt lat="45.789977" lon="1.383463"><ele>0</ele><time>4.242640495300293-455.79998779296875-252.6999969482422T0.9013878107070923:0:0Z</time></trkpt>
<trkpt lat="45.789954" lon="1.383402"><ele>0</ele><time>6.7082037925720215-455.29998779296875-243.6999969482422T0.5:0:0Z</time></trkpt>
<trkpt lat="45.789979" lon="1.383464"><ele>0</ele><time>13.416407585144043-457.79998779296875-61.099998474121094T0.75:0:0Z</time></trkpt>
<trkpt lat="45.789976" lon="1.383504"><ele>0</ele><time>13.416407585144043-457.29998779296875-61.099998474121094T0.0:0:0Z</time></trkpt>
<trkpt lat="45.789991" lon="1.383559"><ele>0</ele><time>7.211102485656738-459.5-69.80000305175781T0.7071067690849304:0:0Z</time></trkpt>
<trkpt lat="45.789989" lon="1.38357"><ele>0</ele><time>7.211102485656738-459.29998779296875-69.80000305175781T0.7071067690849304:0:0Z</time></trkpt>
<trkpt lat="45.790044" lon="1.383628"><ele>0</ele><time>5.0-460.8999938964844-43.599998474121094T2.5:0:0Z</time></trkpt>
<trkpt lat="45.79005" lon="1.383692"><ele>0</ele><time>5.0-459.8999938964844-73.30000305175781T3.535533905029297:0:0Z</time></trkpt>
<trkpt lat="45.790084" lon="1.383782"><ele>0</ele><time>4.242640495300293-460.0-67.5999984741211T3.75:0:0Z</time></trkpt>
<trkpt lat="45.79012" lon="1.383857"><ele>0</ele><time>4.242640495300293-460.0-60.70000076293945T3.5:0:0Z</time></trkpt>
<trkpt lat="45.790165" lon="1.38391"><ele>0</ele><time>4.242640495300293-459.6000061035156-54.099998474121094T3.25:0:0Z</time></trkpt>
<trkpt lat="45.790198" lon="1.384005"><ele>0</ele><time>4.242640495300293-460.29998779296875-59.099998474121094T3.5:0:0Z</time></trkpt>
<trkpt lat="45.790239" lon="1.384082"><ele>0</ele><time>3.605551242828369-461.29998779296875-54.599998474121094T3.0:0:0Z</time></trkpt>
<trkpt lat="45.790276" lon="1.384132"><ele>0</ele><time>3.605551242828369-462.5-46.400001525878906T2.75:0:0Z</time></trkpt>
<trkpt lat="45.790307" lon="1.384178"><ele>0</ele><time>2.8284270763397217-461.0-46.599998474121094T2.7950849533081055:0:0Z</time></trkpt>
<trkpt lat="45.790346" lon="1.384217"><ele>0</ele><time>2.8284270763397217-461.70001220703125-42.099998474121094T2.7950849533081055:0:0Z</time></trkpt>
<trkpt lat="45.790386" lon="1.38427"><ele>0</ele><time>2.8284270763397217-461.70001220703125-46.099998474121094T3.0:0:0Z</time></trkpt>
<trkpt lat="45.790425" lon="1.384325"><ele>0</ele><time>2.8284270763397217-462.0-42.599998474121094T3.0:0:0Z</time></trkpt>
<trkpt lat="45.790471" lon="1.384394"><ele>0</ele><time>2.8284270763397217-462.0-45.20000076293945T3.25:0:0Z</time></trkpt>
<trkpt lat="45.790525" lon="1.38447"><ele>0</ele><time>2.8284270763397217-460.70001220703125-43.099998474121094T4.279310703277588:0:0Z</time></trkpt>
<trkpt lat="45.790578" lon="1.384555"><ele>0</ele><time>2.8284270763397217-460.5-46.20000076293945T4.5:0:0Z</time></trkpt>
<trkpt lat="45.790641" lon="1.38464"><ele>0</ele><time>2.8284270763397217-460.3999938964844-44.900001525878906T5.0:0:0Z</time></trkpt>
<trkpt lat="45.790678" lon="1.384687"><ele>0</ele><time>2.8284270763397217-460.79998779296875-44.099998474121094T5.0:0:0Z</time></trkpt>
<trkpt lat="45.790714" lon="1.384729"><ele>0</ele><time>2.8284270763397217-461.20001220703125-44.0T5.0:0:0Z</time></trkpt>
<trkpt lat="45.790753" lon="1.384776"><ele>0</ele><time>2.8284270763397217-462.20001220703125-44.599998474121094T5.2737555503845215:0:0Z</time></trkpt>
<trkpt lat="45.790823" lon="1.384862"><ele>0</ele><time>2.8284270763397217-461.8999938964844-37.400001525878906T5.25:0:0Z</time></trkpt>
<trkpt lat="45.790889" lon="1.384937"><ele>0</ele><time>2.8284270763397217-461.70001220703125-44.0T4.5:0:0Z</time></trkpt>
<trkpt lat="45.790957" lon="1.385001"><ele>0</ele><time>2.8284270763397217-461.6000061035156-30.0T4.25:0:0Z</time></trkpt>
<trkpt lat="45.791028" lon="1.385006"><ele>0</ele><time>2.8284270763397217-461.29998779296875-0.5T3.75:0:0Z</time></trkpt>
<trkpt lat="45.791072" lon="1.384986"><ele>0</ele><time>2.8284270763397217-461.3999938964844-349.1000061035156T4.25:0:0Z</time></trkpt>
<trkpt lat="45.79115" lon="1.38495"><ele>0</ele><time>2.8284270763397217-461.0-343.8999938964844T4.5:0:0Z</time></trkpt>
<trkpt lat="45.791193" lon="1.38493"><ele>0</ele><time>2.8284270763397217-461.5-341.3999938964844T4.5:0:0Z</time></trkpt>
<trkpt lat="45.791262" lon="1.384899"><ele>0</ele><time>2.8284270763397217-460.79998779296875-349.3999938964844T3.75:0:0Z</time></trkpt>
<trkpt lat="45.791315" lon="1.384949"><ele>0</ele><time>2.8284270763397217-461.8999938964844-34.70000076293945T3.288236618041992:0:0Z</time></trkpt>
<trkpt lat="45.791274" lon="1.384997"><ele>0</ele><time>2.8284270763397217-464.8999938964844-105.80000305175781T3.132491111755371:0:0Z</time></trkpt>
<trkpt lat="45.791272" lon="1.385104"><ele>0</ele><time>2.8284270763397217-465.3999938964844-95.9000015258789T3.5:0:0Z</time></trkpt>
<trkpt lat="45.791272" lon="1.385285"><ele>0</ele><time>6.7082037925720215-464.6000061035156-93.80000305175781T4.25:0:0Z</time></trkpt>
<trkpt lat="45.791273" lon="1.385412"><ele>0</ele><time>6.7082037925720215-464.3999938964844-92.5T4.75:0:0Z</time></trkpt>
<trkpt lat="45.791268" lon="1.385512"><ele>0</ele><time>6.7082037925720215-466.20001220703125-98.69999694824219T4.031128883361816:0:0Z</time></trkpt>
<trkpt lat="45.791277" lon="1.385635"><ele>0</ele><time>5.0-467.6000061035156-89.4000015258789T4.527692794799805:0:0Z</time></trkpt>
<trkpt lat="45.791279" lon="1.385753"><ele>0</ele><time>5.0-468.6000061035156-87.9000015258789T4.527692794799805:0:0Z</time></trkpt>
<trkpt lat="45.791292" lon="1.38587"><ele>0</ele><time>4.242640495300293-468.6000061035156-85.0T4.5:0:0Z</time></trkpt>
<trkpt lat="45.791293" lon="1.385935"><ele>0</ele><time>5.0-468.20001220703125-84.9000015258789T4.75:0:0Z</time></trkpt>
<trkpt lat="45.791306" lon="1.38601"><ele>0</ele><time>5.0-468.5-83.5999984741211T5.0:0:0Z</time></trkpt>
<trkpt lat="45.791307" lon="1.386129"><ele>0</ele><time>5.0-468.29998779296875-86.5999984741211T4.75:0:0Z</time></trkpt>
<trkpt lat="45.791317" lon="1.386194"><ele>0</ele><time>5.0-468.0-85.5999984741211T4.5:0:0Z</time></trkpt>
<trkpt lat="45.791288" lon="1.386279"><ele>0</ele><time>3.605551242828369-473.5-100.9000015258789T4.038873672485352:0:0Z</time></trkpt>
<trkpt lat="45.791291" lon="1.386377"><ele>0</ele><time>3.605551242828369-474.5-88.0T3.783186435699463:0:0Z</time></trkpt>
<trkpt lat="45.791292" lon="1.386461"><ele>0</ele><time>4.242640495300293-475.5-88.5999984741211T3.041381359100342:0:0Z</time></trkpt>
<trkpt lat="45.791295" lon="1.386543"><ele>0</ele><time>7.211102485656738-475.6000061035156-85.5999984741211T3.0:0:0Z</time></trkpt>
<trkpt lat="45.791318" lon="1.386626"><ele>0</ele><time>13.416407585144043-475.1000061035156-73.5T3.25:0:0Z</time></trkpt>
<trkpt lat="45.791344" lon="1.386706"><ele>0</ele><time>17.8885440826416-475.1000061035156-68.4000015258789T3.5:0:0Z</time></trkpt>
<trkpt lat="45.7914" lon="1.386752"><ele>0</ele><time>14.422204971313477-475.5-54.5T3.25:0:0Z</time></trkpt>
<trkpt lat="45.791443" lon="1.386832"><ele>0</ele><time>13.416407585144043-475.70001220703125-52.900001525878906T3.5:0:0Z</time></trkpt>
<trkpt lat="45.791476" lon="1.386887"><ele>0</ele><time>10.0-477.0-47.20000076293945T2.75:0:0Z</time></trkpt>
<trkpt lat="45.791509" lon="1.386995"><ele>0</ele><time>8.485280990600586-477.70001220703125-58.70000076293945T3.25:0:0Z</time></trkpt>
<trkpt lat="45.79157" lon="1.38706"><ele>0</ele><time>8.485280990600586-478.20001220703125-48.0T3.25:0:0Z</time></trkpt>
<trkpt lat="45.791601" lon="1.387106"><ele>0</ele><time>8.485280990600586-478.70001220703125-49.099998474121094T3.75:0:0Z</time></trkpt>
<trkpt lat="45.791665" lon="1.3872"><ele>0</ele><time>8.485280990600586-474.0-47.20000076293945T3.535533905029297:0:0Z</time></trkpt>
<trkpt lat="45.791711" lon="1.387285"><ele>0</ele><time>8.485280990600586-472.5-49.20000076293945T3.535533905029297:0:0Z</time></trkpt>
<trkpt lat="45.791762" lon="1.387364"><ele>0</ele><time>8.485280990600586-472.20001220703125-46.70000076293945T3.535533905029297:0:0Z</time></trkpt>
<trkpt lat="45.791806" lon="1.387423"><ele>0</ele><time>11.313708305358887-472.70001220703125-44.79999923706055T3.0:0:0Z</time></trkpt>
<trkpt lat="45.791847" lon="1.387466"><ele>0</ele><time>11.313708305358887-473.3999938964844-40.400001525878906T2.5:0:0Z</time></trkpt>
<trkpt lat="45.791901" lon="1.387523"><ele>0</ele><time>14.422204971313477-473.3999938964844-36.20000076293945T3.0:0:0Z</time></trkpt>
<trkpt lat="45.791932" lon="1.387568"><ele>0</ele><time>16.970561981201172-473.8999938964844-38.900001525878906T3.5:0:0Z</time></trkpt>
<trkpt lat="45.791958" lon="1.387629"><ele>0</ele><time>16.970561981201172-473.20001220703125-42.79999923706055T3.5:0:0Z</time></trkpt>
<trkpt lat="45.79199" lon="1.387724"><ele>0</ele><time>16.970561981201172-473.5-47.900001525878906T3.25:0:0Z</time></trkpt>
<trkpt lat="45.792026" lon="1.3878"><ele>0</ele><time>14.422204971313477-474.1000061035156-52.5T3.0:0:0Z</time></trkpt>
<trkpt lat="45.792062" lon="1.387918"><ele>0</ele><time>10.0-473.70001220703125-58.400001525878906T3.783186435699463:0:0Z</time></trkpt>
<trkpt lat="45.7921" lon="1.388"><ele>0</ele><time>10.0-473.70001220703125-54.400001525878906T3.25:0:0Z</time></trkpt>
<trkpt lat="45.792143" lon="1.388075"><ele>0</ele><time>11.313708305358887-473.6000061035156-51.70000076293945T3.0:0:0Z</time></trkpt>
<trkpt lat="45.792188" lon="1.38817"><ele>0</ele><time>14.422204971313477-474.20001220703125-55.20000076293945T3.5:0:0Z</time></trkpt>
<trkpt lat="45.792217" lon="1.388226"><ele>0</ele><time>16.970561981201172-474.29998779296875-54.900001525878906T4.0:0:0Z</time></trkpt>
<trkpt lat="45.79224" lon="1.388283"><ele>0</ele><time>14.422204971313477-473.6000061035156-54.900001525878906T3.75:0:0Z</time></trkpt>
<trkpt lat="45.792289" lon="1.388382"><ele>0</ele><time>16.970561981201172-473.79998779296875-55.400001525878906T4.25:0:0Z</time></trkpt>
<trkpt lat="45.79232" lon="1.388483"><ele>0</ele><time>11.313708305358887-477.0-66.5T3.783186435699463:0:0Z</time></trkpt>
<trkpt lat="45.792354" lon="1.38857"><ele>0</ele><time>14.422204971313477-478.20001220703125-62.599998474121094T3.25:0:0Z</time></trkpt>
<trkpt lat="45.792386" lon="1.388664"><ele>0</ele><time>14.422204971313477-478.5-66.5999984741211T3.5:0:0Z</time></trkpt>
<trkpt lat="45.792422" lon="1.388726"><ele>0</ele><time>14.422204971313477-478.0-59.70000076293945T4.25:0:0Z</time></trkpt>
<trkpt lat="45.792457" lon="1.388822"><ele>0</ele><time>16.970561981201172-478.20001220703125-60.79999923706055T4.0:0:0Z</time></trkpt>
<trkpt lat="45.792497" lon="1.388924"><ele>0</ele><time>16.970561981201172-478.3999938964844-62.79999923706055T4.0:0:0Z</time></trkpt>
<trkpt lat="45.792522" lon="1.389027"><ele>0</ele><time>16.970561981201172-478.3999938964844-69.19999694824219T4.0:0:0Z</time></trkpt>
<trkpt lat="45.792549" lon="1.389111"><ele>0</ele><time>16.970561981201172-478.0-66.4000015258789T3.5:0:0Z</time></trkpt>
<trkpt lat="45.792555" lon="1.38918"><ele>0</ele><time>16.970561981201172-478.3999938964844-72.19999694824219T3.5:0:0Z</time></trkpt>
<trkpt lat="45.792567" lon="1.389286"><ele>0</ele><time>16.970561981201172-479.29998779296875-80.5999984741211T3.25:0:0Z</time></trkpt>
<trkpt lat="45.792612" lon="1.389396"><ele>0</ele><time>16.970561981201172-479.29998779296875-66.80000305175781T3.75:0:0Z</time></trkpt>
<trkpt lat="45.792623" lon="1.38947"><ele>0</ele><time>16.970561981201172-478.3999938964844-68.5999984741211T4.0:0:0Z</time></trkpt>
<trkpt lat="45.792637" lon="1.389571"><ele>0</ele><time>16.970561981201172-478.1000061035156-71.0999984741211T4.5:0:0Z</time></trkpt>
<trkpt lat="45.79265" lon="1.389653"><ele>0</ele><time>16.970561981201172-477.5-72.69999694824219T4.75:0:0Z</time></trkpt>
<trkpt lat="45.792647" lon="1.389745"><ele>0</ele><time>14.422204971313477-476.6000061035156-76.80000305175781T5.0:0:0Z</time></trkpt>
<trkpt lat="45.792661" lon="1.38985"><ele>0</ele><time>11.313708305358887-474.70001220703125-74.69999694824219T3.75:0:0Z</time></trkpt>
<trkpt lat="45.792689" lon="1.389943"><ele>0</ele><time>14.422204971313477-474.20001220703125-71.69999694824219T3.0:0:0Z</time></trkpt>
<trkpt lat="45.792705" lon="1.390008"><ele>0</ele><time>11.313708305358887-476.3999938964844-68.9000015258789T2.25:0:0Z</time></trkpt>
<trkpt lat="45.792703" lon="1.390094"><ele>0</ele><time>14.422204971313477-476.70001220703125-84.19999694824219T1.75:0:0Z</time></trkpt>
<trkpt lat="45.792727" lon="1.390172"><ele>0</ele><time>16.970561981201172-475.6000061035156-77.30000305175781T2.0:0:0Z</time></trkpt>
<trkpt lat="45.79274" lon="1.390276"><ele>0</ele><time>16.970561981201172-476.0-80.9000015258789T2.25:0:0Z</time></trkpt>
<trkpt lat="45.792753" lon="1.390358"><ele>0</ele><time>16.970561981201172-476.29998779296875-78.19999694824219T2.75:0:0Z</time></trkpt>
<trkpt lat="45.792764" lon="1.390463"><ele>0</ele><time>16.970561981201172-478.79998779296875-78.30000305175781T3.0:0:0Z</time></trkpt>
<trkpt lat="45.792801" lon="1.390568"><ele>0</ele><time>16.970561981201172-480.0-61.400001525878906T3.25:0:0Z</time></trkpt>
<trkpt lat="45.792813" lon="1.390644"><ele>0</ele><time>14.422204971313477-480.20001220703125-62.400001525878906T2.75:0:0Z</time></trkpt>
<trkpt lat="45.792845" lon="1.390756"><ele>0</ele><time>10.0-479.79998779296875-60.5T2.5:0:0Z</time></trkpt>
<trkpt lat="45.792877" lon="1.390816"><ele>0</ele><time>10.0-480.70001220703125-52.70000076293945T2.25:0:0Z</time></trkpt>
<trkpt lat="45.792883" lon="1.39095"><ele>0</ele><time>11.313708305358887-482.6000061035156-67.69999694824219T2.25:0:0Z</time></trkpt>
<trkpt lat="45.792899" lon="1.391025"><ele>0</ele><time>14.422204971313477-483.79998779296875-67.5999984741211T2.25:0:0Z</time></trkpt>
<trkpt lat="45.792903" lon="1.391096"><ele>0</ele><time>16.970561981201172-483.8999938964844-69.19999694824219T2.0:0:0Z</time></trkpt>
<trkpt lat="45.792904" lon="1.391183"><ele>0</ele><time>16.970561981201172-483.29998779296875-77.0999984741211T2.25:0:0Z</time></trkpt>
<trkpt lat="45.792924" lon="1.391285"><ele>0</ele><time>16.970561981201172-485.0-79.5T2.5:0:0Z</time></trkpt>
<trkpt lat="45.792919" lon="1.391386"><ele>0</ele><time>14.422204971313477-487.1000061035156-96.80000305175781T3.4003677368164063:0:0Z</time></trkpt>
<trkpt lat="45.792918" lon="1.391479"><ele>0</ele><time>14.422204971313477-487.79998779296875-97.4000015258789T2.7950849533081055:0:0Z</time></trkpt>
<trkpt lat="45.792934" lon="1.391541"><ele>0</ele><time>14.422204971313477-488.0-81.80000305175781T2.25:0:0Z</time></trkpt>
<trkpt lat="45.792961" lon="1.3916"><ele>0</ele><time>14.422204971313477-487.29998779296875-67.0T1.75:0:0Z</time></trkpt>
<trkpt lat="45.792997" lon="1.391715"><ele>0</ele><time>14.422204971313477-485.79998779296875-66.5T2.25:0:0Z</time></trkpt>
<trkpt lat="45.793021" lon="1.391778"><ele>0</ele><time>20.0-485.29998779296875-61.400001525878906T2.0:0:0Z</time></trkpt>
<trkpt lat="45.793027" lon="1.391847"><ele>0</ele><time>20.0-486.6000061035156-71.5T1.75:0:0Z</time></trkpt>
<trkpt lat="45.793033" lon="1.391942"><ele>0</ele><time>16.970561981201172-488.29998779296875-73.19999694824219T1.75:0:0Z</time></trkpt>
<trkpt lat="45.793061" lon="1.392022"><ele>0</ele><time>16.970561981201172-488.20001220703125-62.5T2.25:0:0Z</time></trkpt>
<trkpt lat="45.793095" lon="1.392081"><ele>0</ele><time>14.422204971313477-492.1000061035156-67.5999984741211T1.4142135381698608:0:0Z</time></trkpt>
<trkpt lat="45.793111" lon="1.39214"><ele>0</ele><time>14.422204971313477-493.6000061035156-70.5T1.346291184425354:0:0Z</time></trkpt>
<trkpt lat="45.793103" lon="1.392235"><ele>0</ele><time>11.313708305358887-501.3999938964844-103.0T2.3048861026763916:0:0Z</time></trkpt>
<trkpt lat="45.79312" lon="1.39234"><ele>0</ele><time>11.313708305358887-502.1000061035156-90.69999694824219T1.820027470588684:0:0Z</time></trkpt>
<trkpt lat="45.793142" lon="1.392452"><ele>0</ele><time>14.422204971313477-500.5-84.19999694824219T2.5:0:0Z</time></trkpt>
<trkpt lat="45.793164" lon="1.392522"><ele>0</ele><time>14.422204971313477-500.1000061035156-72.4000015258789T2.25:0:0Z</time></trkpt>
<trkpt lat="45.79319" lon="1.392611"><ele>0</ele><time>16.970561981201172-500.0-66.4000015258789T2.25:0:0Z</time></trkpt>
<trkpt lat="45.793213" lon="1.39269"><ele>0</ele><time>14.422204971313477-500.70001220703125-63.599998474121094T2.0615527629852295:0:0Z</time></trkpt>
<trkpt lat="45.793233" lon="1.392751"><ele>0</ele><time>10.0-500.5-62.5T2.0:0:0Z</time></trkpt>
<trkpt lat="45.793279" lon="1.392798"><ele>0</ele><time>10.0-500.6000061035156-53.20000076293945T1.5:0:0Z</time></trkpt>
<trkpt lat="45.793301" lon="1.392872"><ele>0</ele><time>7.211102485656738-499.79998779296875-63.70000076293945T1.5:0:0Z</time></trkpt>
<trkpt lat="45.793325" lon="1.392958"><ele>0</ele><time>7.211102485656738-499.1000061035156-67.5T1.75:0:0Z</time></trkpt>
<trkpt lat="45.793325" lon="1.393025"><ele>0</ele><time>8.9442720413208-499.0-79.69999694824219T1.5:0:0Z</time></trkpt>
<trkpt lat="45.793326" lon="1.393105"><ele>0</ele><time>14.422204971313477-499.6000061035156-74.9000015258789T1.25:0:0Z</time></trkpt>
<trkpt lat="45.793345" lon="1.393178"><ele>0</ele><time>14.422204971313477-500.79998779296875-79.30000305175781T1.6007810831069946:0:0Z</time></trkpt>
<trkpt lat="45.793352" lon="1.393253"><ele>0</ele><time>11.313708305358887-501.8999938964844-79.0T2.0615527629852295:0:0Z</time></trkpt>
<trkpt lat="45.793366" lon="1.393325"><ele>0</ele><time>11.313708305358887-501.20001220703125-77.0T1.5811388492584229:0:0Z</time></trkpt>
<trkpt lat="45.793369" lon="1.393414"><ele>0</ele><time>14.422204971313477-502.5-82.19999694824219T2.0:0:0Z</time></trkpt>
<trkpt lat="45.793394" lon="1.393486"><ele>0</ele><time>14.422204971313477-502.70001220703125-72.0T1.75:0:0Z</time></trkpt>
<trkpt lat="45.793387" lon="1.393563"><ele>0</ele><time>14.422204971313477-501.20001220703125-99.30000305175781T1.75:0:0Z</time></trkpt>
<trkpt lat="45.793373" lon="1.393625"><ele>0</ele><time>14.422204971313477-500.29998779296875-104.19999694824219T1.75:0:0Z</time></trkpt>
<trkpt lat="45.793389" lon="1.393733"><ele>0</ele><time>14.422204971313477-498.0-87.80000305175781T2.2360680103302:0:0Z</time></trkpt>
<trkpt lat="45.793402" lon="1.393811"><ele>0</ele><time>11.313708305358887-498.29998779296875-77.5T1.75:0:0Z</time></trkpt>
<trkpt lat="45.793424" lon="1.393896"><ele>0</ele><time>14.422204971313477-498.5-67.69999694824219T1.75:0:0Z</time></trkpt>
<trkpt lat="45.793457" lon="1.393969"><ele>0</ele><time>11.313708305358887-499.8999938964844-51.599998474121094T1.75:0:0Z</time></trkpt>
<trkpt lat="45.793486" lon="1.394032"><ele>0</ele><time>10.0-501.20001220703125-52.599998474121094T2.0:0:0Z</time></trkpt>
<trkpt lat="45.793535" lon="1.394088"><ele>0</ele><time>10.0-501.70001220703125-41.20000076293945T2.0:0:0Z</time></trkpt>
<trkpt lat="45.793579" lon="1.394123"><ele>0</ele><time>7.211102485656738-501.1000061035156-29.799999237060547T2.0615527629852295:0:0Z</time></trkpt>
<trkpt lat="45.793621" lon="1.394154"><ele>0</ele><time>5.656854152679443-501.5-21.0T1.5:0:0Z</time></trkpt>
<trkpt lat="45.793679" lon="1.394192"><ele>0</ele><time>8.485280990600586-503.1000061035156-22.0T1.5:0:0Z</time></trkpt>
<trkpt lat="45.793726" lon="1.394209"><ele>0</ele><time>10.0-503.20001220703125-3.700000047683716T1.25:0:0Z</time></trkpt>
<trkpt lat="45.793781" lon="1.39426"><ele>0</ele><time>11.313708305358887-503.3999938964844-31.899999618530273T1.5:0:0Z</time></trkpt>
<trkpt lat="45.793819" lon="1.394309"><ele>0</ele><time>11.313708305358887-503.5-39.5T1.25:0:0Z</time></trkpt>
<trkpt lat="45.79384" lon="1.394373"><ele>0</ele><time>16.970561981201172-504.6000061035156-73.5999984741211T1.25:0:0Z</time></trkpt>
<trkpt lat="45.793862" lon="1.394435"><ele>0</ele><time>14.422204971313477-508.3999938964844-75.30000305175781T0.0:0:0Z</time></trkpt>
<trkpt lat="45.793872" lon="1.394423"><ele>0</ele><time>17.8885440826416-510.1000061035156-75.30000305175781T0.0:0:0Z</time></trkpt>
<trkpt lat="45.793885" lon="1.394481"><ele>0</ele><time>14.422204971313477-508.79998779296875-83.9000015258789T0.75:0:0Z</time></trkpt>
<trkpt lat="45.793882" lon="1.394516"><ele>0</ele><time>14.422204971313477-507.6000061035156-80.9000015258789T1.0:0:0Z</time></trkpt>
<trkpt lat="45.793911" lon="1.394605"><ele>0</ele><time>16.970561981201172-508.29998779296875-66.0T2.0:0:0Z</time></trkpt>
<trkpt lat="45.793927" lon="1.394694"><ele>0</ele><time>20.0-508.1000061035156-70.69999694824219T2.5:0:0Z</time></trkpt>
<trkpt lat="45.793925" lon="1.39478"><ele>0</ele><time>16.970561981201172-508.5-79.5999984741211T3.5:0:0Z</time></trkpt>
<trkpt lat="45.793937" lon="1.39486"><ele>0</ele><time>16.970561981201172-506.70001220703125-78.4000015258789T4.0:0:0Z</time></trkpt>
<trkpt lat="45.793938" lon="1.394928"><ele>0</ele><time>14.422204971313477-506.8999938964844-79.5T4.25:0:0Z</time></trkpt>
<trkpt lat="45.793944" lon="1.395034"><ele>0</ele><time>16.970561981201172-507.5-79.4000015258789T4.25:0:0Z</time></trkpt>
<trkpt lat="45.79395" lon="1.395113"><ele>0</ele><time>16.970561981201172-507.20001220703125-80.0999984741211T4.5:0:0Z</time></trkpt>
<trkpt lat="45.793935" lon="1.395227"><ele>0</ele><time>20.0-507.20001220703125-93.5T3.75:0:0Z</time></trkpt>
<trkpt lat="45.793921" lon="1.39533"><ele>0</ele><time>20.0-507.29998779296875-94.80000305175781T3.75:0:0Z</time></trkpt>
<trkpt lat="45.793928" lon="1.395457"><ele>0</ele><time>20.0-507.29998779296875-90.5999984741211T4.0:0:0Z</time></trkpt>
<trkpt lat="45.793913" lon="1.395524"><ele>0</ele><time>20.0-507.5-95.80000305175781T4.25:0:0Z</time></trkpt>
<trkpt lat="45.793913" lon="1.395595"><ele>0</ele><time>20.0-507.20001220703125-96.19999694824219T4.5:0:0Z</time></trkpt>
<trkpt lat="45.793892" lon="1.395694"><ele>0</ele><time>16.970561981201172-513.2999877929688-104.19999694824219T2.9261748790740967:0:0Z</time></trkpt>
<trkpt lat="45.793867" lon="1.395758"><ele>0</ele><time>16.970561981201172-514.2000122070313-109.5999984741211T3.4003677368164063:0:0Z</time></trkpt>
<trkpt lat="45.793863" lon="1.39584"><ele>0</ele><time>14.422204971313477-511.5-106.5999984741211T3.535533905029297:0:0Z</time></trkpt>
<trkpt lat="45.793832" lon="1.395942"><ele>0</ele><time>10.0-511.29998779296875-112.9000015258789T3.5:0:0Z</time></trkpt>
<trkpt lat="45.79381" lon="1.396025"><ele>0</ele><time>10.0-510.20001220703125-112.5T3.5:0:0Z</time></trkpt>
<trkpt lat="45.793807" lon="1.396091"><ele>0</ele><time>10.0-509.0-107.4000015258789T4.0:0:0Z</time></trkpt>
<trkpt lat="45.793804" lon="1.396199"><ele>0</ele><time>7.211102485656738-509.1000061035156-101.19999694824219T4.0:0:0Z</time></trkpt>
<trkpt lat="45.793789" lon="1.396309"><ele>0</ele><time>7.211102485656738-508.70001220703125-97.5999984741211T4.25:0:0Z</time></trkpt>
<trkpt lat="45.793784" lon="1.396382"><ele>0</ele><time>5.0-508.5-92.4000015258789T5.0:0:0Z</time></trkpt>
<trkpt lat="45.7938" lon="1.396476"><ele>0</ele><time>5.0-507.6000061035156-87.30000305175781T5.5:0:0Z</time></trkpt>
<trkpt lat="45.793806" lon="1.396571"><ele>0</ele><time>6.7082037925720215-507.20001220703125-84.5999984741211T6.25:0:0Z</time></trkpt>
<trkpt lat="45.793841" lon="1.396653"><ele>0</ele><time>6.7082037925720215-506.5-68.9000015258789T6.5:0:0Z</time></trkpt>
<trkpt lat="45.793853" lon="1.396741"><ele>0</ele><time>6.7082037925720215-506.29998779296875-70.4000015258789T6.75:0:0Z</time></trkpt>
<trkpt lat="45.793855" lon="1.396839"><ele>0</ele><time>8.9442720413208-506.0-76.5T7.0:0:0Z</time></trkpt>
<trkpt lat="45.793866" lon="1.396929"><ele>0</ele><time>8.9442720413208-505.8999938964844-78.30000305175781T7.25:0:0Z</time></trkpt>
<trkpt lat="45.793879" lon="1.397035"><ele>0</ele><time>10.0-505.8999938964844-77.19999694824219T7.75:0:0Z</time></trkpt>
<trkpt lat="45.793884" lon="1.397165"><ele>0</ele><time>8.9442720413208-505.8999938964844-78.0999984741211T8.25:0:0Z</time></trkpt>
<trkpt lat="45.793899" lon="1.397259"><ele>0</ele><time>13.416407585144043-505.8999938964844-76.9000015258789T7.75:0:0Z</time></trkpt>
<trkpt lat="45.793916" lon="1.397365"><ele>0</ele><time>13.416407585144043-505.79998779296875-75.9000015258789T7.75:0:0Z</time></trkpt>
<trkpt lat="45.793925" lon="1.397478"><ele>0</ele><time>13.416407585144043-505.79998779296875-76.5T8.0:0:0Z</time></trkpt>
<trkpt lat="45.793968" lon="1.397516"><ele>0</ele><time>10.0-506.3999938964844-72.9000015258789T6.5:0:0Z</time></trkpt>
<trkpt lat="45.793988" lon="1.397578"><ele>0</ele><time>10.0-506.6000061035156-72.9000015258789T5.25:0:0Z</time></trkpt>
<trkpt lat="45.793987" lon="1.39765"><ele>0</ele><time>13.416407585144043-507.0-79.0999984741211T5.0:0:0Z</time></trkpt>
<trkpt lat="45.794008" lon="1.397746"><ele>0</ele><time>14.422204971313477-505.3999938964844-77.0T5.5:0:0Z</time></trkpt>
<trkpt lat="45.794022" lon="1.397834"><ele>0</ele><time>14.422204971313477-504.3999938964844-76.80000305175781T5.25:0:0Z</time></trkpt>
<trkpt lat="45.794016" lon="1.397915"><ele>0</ele><time>14.422204971313477-505.1000061035156-78.0999984741211T4.25:0:0Z</time></trkpt>
<trkpt lat="45.793998" lon="1.397978"><ele>0</ele><time>14.422204971313477-506.0-87.5T3.5:0:0Z</time></trkpt>
<trkpt lat="45.793986" lon="1.398084"><ele>0</ele><time>16.970561981201172-506.3999938964844-92.0999984741211T3.0:0:0Z</time></trkpt>
<trkpt lat="45.79397" lon="1.398194"><ele>0</ele><time>16.970561981201172-508.5-100.4000015258789T2.25:0:0Z</time></trkpt>
<trkpt lat="45.793962" lon="1.398299"><ele>0</ele><time>16.970561981201172-508.5-101.5999984741211T2.5:0:0Z</time></trkpt>
<trkpt lat="45.793946" lon="1.398393"><ele>0</ele><time>16.970561981201172-506.8999938964844-105.9000015258789T2.75:0:0Z</time></trkpt>
<trkpt lat="45.793909" lon="1.398492"><ele>0</ele><time>16.970561981201172-507.3999938964844-122.0999984741211T2.7950849533081055:0:0Z</time></trkpt>
<trkpt lat="45.793881" lon="1.398575"><ele>0</ele><time>16.970561981201172-508.20001220703125-115.0T3.288236618041992:0:0Z</time></trkpt>
<trkpt lat="45.793857" lon="1.398716"><ele>0</ele><time>14.422204971313477-507.6000061035156-107.5T4.5:0:0Z</time></trkpt>
<trkpt lat="45.793853" lon="1.398793"><ele>0</ele><time>14.422204971313477-506.5-103.0T4.75:0:0Z</time></trkpt>
<trkpt lat="45.79385" lon="1.398904"><ele>0</ele><time>14.422204971313477-504.20001220703125-100.30000305175781T5.5:0:0Z</time></trkpt>
<trkpt lat="45.79382" lon="1.398993"><ele>0</ele><time>13.416407585144043-503.70001220703125-104.69999694824219T6.0:0:0Z</time></trkpt>
<trkpt lat="45.793798" lon="1.399063"><ele>0</ele><time>13.416407585144043-503.6000061035156-107.30000305175781T5.25:0:0Z</time></trkpt>
<trkpt lat="45.793778" lon="1.399153"><ele>0</ele><time>13.416407585144043-503.6000061035156-107.4000015258789T6.25:0:0Z</time></trkpt>
<trkpt lat="45.793759" lon="1.399238"><ele>0</ele><time>13.416407585144043-503.70001220703125-109.9000015258789T6.0:0:0Z</time></trkpt>
<trkpt lat="45.793736" lon="1.39933"><ele>0</ele><time>14.422204971313477-502.6000061035156-107.4000015258789T6.5:0:0Z</time></trkpt>
<trkpt lat="45.793722" lon="1.399447"><ele>0</ele><time>14.422204971313477-501.5-104.30000305175781T7.25:0:0Z</time></trkpt>
<trkpt lat="45.793689" lon="1.399577"><ele>0</ele><time>14.422204971313477-501.0-104.80000305175781T8.25:0:0Z</time></trkpt>
<trkpt lat="45.793651" lon="1.399714"><ele>0</ele><time>17.8885440826416-500.1000061035156-108.30000305175781T8.75:0:0Z</time></trkpt>
<trkpt lat="45.793615" lon="1.399853"><ele>0</ele><time>14.422204971313477-499.20001220703125-107.4000015258789T9.25:0:0Z</time></trkpt>
<trkpt lat="45.793585" lon="1.399983"><ele>0</ele><time>14.422204971313477-498.8999938964844-105.4000015258789T9.5:0:0Z</time></trkpt>
<trkpt lat="45.793561" lon="1.400118"><ele>0</ele><time>14.422204971313477-499.0-102.69999694824219T9.5:0:0Z</time></trkpt>
<trkpt lat="45.793544" lon="1.400235"><ele>0</ele><time>13.416407585144043-498.6000061035156-103.0T9.5:0:0Z</time></trkpt>
<trkpt lat="45.793526" lon="1.400356"><ele>0</ele><time>13.416407585144043-498.1000061035156-102.9000015258789T9.5:0:0Z</time></trkpt>
<trkpt lat="45.793516" lon="1.40046"><ele>0</ele><time>13.416407585144043-497.1000061035156-101.30000305175781T8.75:0:0Z</time></trkpt>
<trkpt lat="45.793506" lon="1.400563"><ele>0</ele><time>12.649110794067383-496.8999938964844-100.19999694824219T8.75:0:0Z</time></trkpt>
<trkpt lat="45.793501" lon="1.400666"><ele>0</ele><time>12.649110794067383-496.29998779296875-99.0T8.5:0:0Z</time></trkpt>
<trkpt lat="45.793539" lon="1.400741"><ele>0</ele><time>12.369317054748535-495.3999938964844-89.69999694824219T8.015609741210938:0:0Z</time></trkpt>
<trkpt lat="45.793541" lon="1.400844"><ele>0</ele><time>12.369317054748535-495.5-89.0999984741211T8.0:0:0Z</time></trkpt>
<trkpt lat="45.793547" lon="1.400952"><ele>0</ele><time>12.369317054748535-495.0-89.0999984741211T8.25:0:0Z</time></trkpt>
<trkpt lat="45.793575" lon="1.401047"><ele>0</ele><time>16.278820037841797-494.79998779296875-85.0T7.75:0:0Z</time></trkpt>
<trkpt lat="45.793533" lon="1.401144"><ele>0</ele><time>12.369317054748535-494.29998779296875-92.80000305175781T7.75:0:0Z</time></trkpt>
<trkpt lat="45.793502" lon="1.401244"><ele>0</ele><time>12.369317054748535-493.6000061035156-91.19999694824219T7.75:0:0Z</time></trkpt>
<trkpt lat="45.793466" lon="1.401357"><ele>0</ele><time>12.369317054748535-492.8999938964844-90.0999984741211T8.0:0:0Z</time></trkpt>
<trkpt lat="45.79348" lon="1.401456"><ele>0</ele><time>8.5440034866333-492.5-86.80000305175781T8.0:0:0Z</time></trkpt>
<trkpt lat="45.793489" lon="1.401561"><ele>0</ele><time>8.5440034866333-491.8999938964844-86.0999984741211T8.0:0:0Z</time></trkpt>
<trkpt lat="45.793501" lon="1.40167"><ele>0</ele><time>8.5440034866333-491.70001220703125-84.9000015258789T8.0:0:0Z</time></trkpt>
<trkpt lat="45.793497" lon="1.401762"><ele>0</ele><time>8.5440034866333-491.70001220703125-88.0T7.5:0:0Z</time></trkpt>
<trkpt lat="45.793502" lon="1.40186"><ele>0</ele><time>12.369317054748535-491.70001220703125-86.9000015258789T7.5:0:0Z</time></trkpt>
<trkpt lat="45.793507" lon="1.401961"><ele>0</ele><time>12.369317054748535-491.6000061035156-87.19999694824219T7.75:0:0Z</time></trkpt>
<trkpt lat="45.793509" lon="1.402073"><ele>0</ele><time>12.369317054748535-491.6000061035156-87.30000305175781T8.0:0:0Z</time></trkpt>
<trkpt lat="45.793474" lon="1.402177"><ele>0</ele><time>12.369317054748535-490.70001220703125-92.4000015258789T8.0:0:0Z</time></trkpt>
<trkpt lat="45.793423" lon="1.402287"><ele>0</ele><time>8.9442720413208-489.6000061035156-96.30000305175781T7.75:0:0Z</time></trkpt>
<trkpt lat="45.793396" lon="1.402387"><ele>0</ele><time>8.9442720413208-488.6000061035156-94.9000015258789T7.75:0:0Z</time></trkpt>
<trkpt lat="45.793373" lon="1.40251"><ele>0</ele><time>7.211102485656738-487.29998779296875-91.69999694824219T8.0:0:0Z</time></trkpt>
<trkpt lat="45.793372" lon="1.402629"><ele>0</ele><time>10.0-487.20001220703125-90.69999694824219T8.5:0:0Z</time></trkpt>
<trkpt lat="45.793377" lon="1.402749"><ele>0</ele><time>10.0-486.79998779296875-90.0T9.0:0:0Z</time></trkpt>
<trkpt lat="45.793376" lon="1.402862"><ele>0</ele><time>10.0-486.8999938964844-87.5999984741211T8.75:0:0Z</time></trkpt>
<trkpt lat="45.793393" lon="1.402975"><ele>0</ele><time>10.0-487.0-86.69999694824219T8.5:0:0Z</time></trkpt>
<trkpt lat="45.793401" lon="1.403098"><ele>0</ele><time>8.485280990600586-486.70001220703125-84.0999984741211T8.5:0:0Z</time></trkpt>
<trkpt lat="45.793416" lon="1.40321"><ele>0</ele><time>10.0-486.20001220703125-81.0T8.5:0:0Z</time></trkpt>
<trkpt lat="45.79342" lon="1.403312"><ele>0</ele><time>10.0-485.0-82.0T8.5:0:0Z</time></trkpt>
<trkpt lat="45.793432" lon="1.403424"><ele>0</ele><time>10.0-485.3999938964844-78.69999694824219T8.5:0:0Z</time></trkpt>
<trkpt lat="45.79345" lon="1.403521"><ele>0</ele><time>10.0-485.8999938964844-78.30000305175781T7.75:0:0Z</time></trkpt>
<trkpt lat="45.793463" lon="1.40361"><ele>0</ele><time>10.0-485.79998779296875-78.30000305175781T7.5:0:0Z</time></trkpt>
<trkpt lat="45.793475" lon="1.403701"><ele>0</ele><time>10.0-485.5-83.5999984741211T6.75:0:0Z</time></trkpt>
<trkpt lat="45.793488" lon="1.403789"><ele>0</ele><time>10.0-485.29998779296875-83.80000305175781T6.5:0:0Z</time></trkpt>
<trkpt lat="45.793505" lon="1.403955"><ele>0</ele><time>14.422204971313477-485.1000061035156-81.69999694824219T6.25:0:0Z</time></trkpt>
<trkpt lat="45.793528" lon="1.40409"><ele>0</ele><time>10.0-486.0-78.9000015258789T5.0:0:0Z</time></trkpt>
<trkpt lat="45.793546" lon="1.4042"><ele>0</ele><time>10.0-486.6000061035156-78.4000015258789T4.366062164306641:0:0Z</time></trkpt>
<trkpt lat="45.793552" lon="1.404308"><ele>0</ele><time>7.211102485656738-487.5-83.69999694824219T4.0:0:0Z</time></trkpt>
<trkpt lat="45.793555" lon="1.404406"><ele>0</ele><time>7.211102485656738-486.5-82.0999984741211T3.5:0:0Z</time></trkpt>
<trkpt lat="45.793556" lon="1.40448"><ele>0</ele><time>5.656854152679443-486.70001220703125-86.80000305175781T3.25:0:0Z</time></trkpt>
<trkpt lat="45.793567" lon="1.404567"><ele>0</ele><time>5.0-487.1000061035156-84.5T3.25:0:0Z</time></trkpt>
<trkpt lat="45.793574" lon="1.404656"><ele>0</ele><time>5.0-487.3999938964844-81.30000305175781T2.5:0:0Z</time></trkpt>
<trkpt lat="45.793592" lon="1.404756"><ele>0</ele><time>5.0-487.20001220703125-49.5T3.0:0:0Z</time></trkpt>
<trkpt lat="45.793627" lon="1.404823"><ele>0</ele><time>7.211102485656738-487.29998779296875-57.599998474121094T3.0:0:0Z</time></trkpt>
<trkpt lat="45.79365" lon="1.404918"><ele>0</ele><time>8.485280990600586-487.6000061035156-58.79999923706055T4.0:0:0Z</time></trkpt>
<trkpt lat="45.793685" lon="1.405023"><ele>0</ele><time>7.211102485656738-487.6000061035156-62.70000076293945T4.25:0:0Z</time></trkpt>
<trkpt lat="45.793714" lon="1.405133"><ele>0</ele><time>8.5440034866333-487.3999938964844-67.19999694824219T4.5:0:0Z</time></trkpt>
<trkpt lat="45.79373" lon="1.405194"><ele>0</ele><time>6.7082037925720215-487.3999938964844-66.80000305175781T4.75:0:0Z</time></trkpt>
<trkpt lat="45.793744" lon="1.405263"><ele>0</ele><time>6.7082037925720215-487.0-66.9000015258789T5.2737555503845215:0:0Z</time></trkpt>
<trkpt lat="45.79375" lon="1.405332"><ele>0</ele><time>5.0-487.5-68.9000015258789T5.5:0:0Z</time></trkpt>
<trkpt lat="45.793766" lon="1.405402"><ele>0</ele><time>4.242640495300293-487.5-62.5T5.5:0:0Z</time></trkpt>
<trkpt lat="45.793783" lon="1.405471"><ele>0</ele><time>4.242640495300293-487.3999938964844-68.19999694824219T5.771697998046875:0:0Z</time></trkpt>
<trkpt lat="45.793802" lon="1.405542"><ele>0</ele><time>3.605551242828369-487.6000061035156-68.19999694824219T5.75:0:0Z</time></trkpt>
<trkpt lat="45.793818" lon="1.405606"><ele>0</ele><time>4.242640495300293-487.3999938964844-67.9000015258789T5.75:0:0Z</time></trkpt>
<trkpt lat="45.793834" lon="1.40567"><ele>0</ele><time>5.0-487.29998779296875-69.5T5.5:0:0Z</time></trkpt>
<trkpt lat="45.793851" lon="1.405754"><ele>0</ele><time>5.0-487.70001220703125-71.5T5.75:0:0Z</time></trkpt>
<trkpt lat="45.793867" lon="1.405817"><ele>0</ele><time>5.0-487.6000061035156-71.9000015258789T5.75:0:0Z</time></trkpt>
<trkpt lat="45.793878" lon="1.405885"><ele>0</ele><time>5.656854152679443-486.70001220703125-74.5T5.771697998046875:0:0Z</time></trkpt>
<trkpt lat="45.793887" lon="1.405956"><ele>0</ele><time>8.485280990600586-486.6000061035156-76.5T5.5:0:0Z</time></trkpt>
<trkpt lat="45.793917" lon="1.406066"><ele>0</ele><time>10.0-486.79998779296875-75.80000305175781T5.5:0:0Z</time></trkpt>
<trkpt lat="45.79393" lon="1.40614"><ele>0</ele><time>10.0-486.8999938964844-75.19999694824219T5.75:0:0Z</time></trkpt>
<trkpt lat="45.793944" lon="1.406215"><ele>0</ele><time>14.422204971313477-487.0-74.0T5.75:0:0Z</time></trkpt>
<trkpt lat="45.793994" lon="1.406322"><ele>0</ele><time>14.422204971313477-488.1000061035156-65.80000305175781T5.5:0:0Z</time></trkpt>
<trkpt lat="45.794013" lon="1.406389"><ele>0</ele><time>14.422204971313477-488.3999938964844-66.0999984741211T5.5:0:0Z</time></trkpt>
<trkpt lat="45.794029" lon="1.406451"><ele>0</ele><time>14.422204971313477-488.29998779296875-67.69999694824219T5.25:0:0Z</time></trkpt>
<trkpt lat="45.794049" lon="1.406516"><ele>0</ele><time>16.970561981201172-488.29998779296875-67.0T5.25:0:0Z</time></trkpt>
<trkpt lat="45.794069" lon="1.406577"><ele>0</ele><time>16.970561981201172-488.29998779296875-66.4000015258789T5.25:0:0Z</time></trkpt>
<trkpt lat="45.794121" lon="1.406695"><ele>0</ele><time>16.970561981201172-487.79998779296875-62.70000076293945T5.0:0:0Z</time></trkpt>
<trkpt lat="45.794164" lon="1.406815"><ele>0</ele><time>16.970561981201172-487.1000061035156-61.20000076293945T5.2737555503845215:0:0Z</time></trkpt>
<trkpt lat="45.794196" lon="1.406865"><ele>0</ele><time>16.970561981201172-486.6000061035156-61.400001525878906T4.776243209838867:0:0Z</time></trkpt>
<trkpt lat="45.794218" lon="1.40696"><ele>0</ele><time>16.970561981201172-486.3999938964844-70.0999984741211T3.75:0:0Z</time></trkpt>
<trkpt lat="45.794151" lon="1.407019"><ele>0</ele><time>14.422204971313477-485.29998779296875-148.1999969482422T3.5:0:0Z</time></trkpt>
<trkpt lat="45.794104" lon="1.407045"><ele>0</ele><time>14.422204971313477-485.20001220703125-157.89999389648438T4.5:0:0Z</time></trkpt>
<trkpt lat="45.794012" lon="1.407124"><ele>0</ele><time>11.313708305358887-484.1000061035156-151.5T5.0:0:0Z</time></trkpt>
<trkpt lat="45.793963" lon="1.407155"><ele>0</ele><time>11.313708305358887-483.29998779296875-151.3000030517578T5.2737555503845215:0:0Z</time></trkpt>
<trkpt lat="45.793914" lon="1.407194"><ele>0</ele><time>11.313708305358887-482.79998779296875-152.1999969482422T5.771697998046875:0:0Z</time></trkpt>
<trkpt lat="45.793869" lon="1.40724"><ele>0</ele><time>10.0-482.20001220703125-143.5T5.771697998046875:0:0Z</time></trkpt>
<trkpt lat="45.793823" lon="1.407288"><ele>0</ele><time>10.0-481.3999938964844-145.89999389648438T6.020797252655029:0:0Z</time></trkpt>
<trkpt lat="45.793771" lon="1.407343"><ele>0</ele><time>11.313708305358887-480.70001220703125-145.10000610351563T6.5:0:0Z</time></trkpt>
<trkpt lat="45.793719" lon="1.4074"><ele>0</ele><time>11.313708305358887-480.79998779296875-144.89999389648438T6.75:0:0Z</time></trkpt>
<trkpt lat="45.793674" lon="1.407464"><ele>0</ele><time>11.313708305358887-479.5-140.6999969482422T6.768493175506592:0:0Z</time></trkpt>
<trkpt lat="45.793629" lon="1.407524"><ele>0</ele><time>11.313708305358887-478.79998779296875-138.1999969482422T7.0:0:0Z</time></trkpt>
<trkpt lat="45.793582" lon="1.407582"><ele>0</ele><time>11.313708305358887-479.0-139.1999969482422T7.0:0:0Z</time></trkpt>
<trkpt lat="45.793527" lon="1.407648"><ele>0</ele><time>11.313708305358887-479.5-140.60000610351563T7.5:0:0Z</time></trkpt>
<trkpt lat="45.793462" lon="1.407707"><ele>0</ele><time>11.313708305358887-480.3999938964844-143.0T7.75:0:0Z</time></trkpt>
<trkpt lat="45.793402" lon="1.407755"><ele>0</ele><time>14.422204971313477-479.79998779296875-145.60000610351563T7.75:0:0Z</time></trkpt>
<trkpt lat="45.793346" lon="1.407801"><ele>0</ele><time>14.422204971313477-479.5-148.3000030517578T7.75:0:0Z</time></trkpt>
<trkpt lat="45.793292" lon="1.407847"><ele>0</ele><time>14.422204971313477-479.6000061035156-148.89999389648438T7.5:0:0Z</time></trkpt>
<trkpt lat="45.793231" lon="1.4079"><ele>0</ele><time>14.422204971313477-479.79998779296875-150.6999969482422T7.5:0:0Z</time></trkpt>
<trkpt lat="45.793172" lon="1.407921"><ele>0</ele><time>11.313708305358887-479.70001220703125-158.6999969482422T7.25:0:0Z</time></trkpt>
<trkpt lat="45.79311" lon="1.407941"><ele>0</ele><time>10.0-479.5-164.1999969482422T7.25:0:0Z</time></trkpt>
<trkpt lat="45.793048" lon="1.407966"><ele>0</ele><time>11.313708305358887-479.6000061035156-165.3000030517578T7.0:0:0Z</time></trkpt>
<trkpt lat="45.792983" lon="1.407976"><ele>0</ele><time>11.313708305358887-479.1000061035156-171.5T7.0:0:0Z</time></trkpt>
<trkpt lat="45.792913" lon="1.407971"><ele>0</ele><time>11.313708305358887-478.8999938964844-178.8000030517578T7.25:0:0Z</time></trkpt>
<trkpt lat="45.792846" lon="1.407967"><ele>0</ele><time>14.422204971313477-478.8999938964844-181.3000030517578T7.0:0:0Z</time></trkpt>
<trkpt lat="45.792799" lon="1.407942"><ele>0</ele><time>14.422204971313477-478.8999938964844-190.8000030517578T6.25:0:0Z</time></trkpt>
<trkpt lat="45.79275" lon="1.407921"><ele>0</ele><time>14.422204971313477-478.8999938964844-193.89999389648438T6.25:0:0Z</time></trkpt>
<trkpt lat="45.792695" lon="1.407901"><ele>0</ele><time>14.422204971313477-479.1000061035156-196.1999969482422T6.25:0:0Z</time></trkpt>
<trkpt lat="45.792643" lon="1.407867"><ele>0</ele><time>14.422204971313477-479.0-200.5T6.25:0:0Z</time></trkpt>
<trkpt lat="45.792603" lon="1.407823"><ele>0</ele><time>14.422204971313477-479.29998779296875-206.60000610351563T5.75:0:0Z</time></trkpt>
<trkpt lat="45.792563" lon="1.407764"><ele>0</ele><time>14.422204971313477-482.0-219.89999389648438T6.184658527374268:0:0Z</time></trkpt>
<trkpt lat="45.79252" lon="1.40772"><ele>0</ele><time>14.422204971313477-482.5-215.10000610351563T6.020797252655029:0:0Z</time></trkpt>
<trkpt lat="45.792468" lon="1.407688"><ele>0</ele><time>14.422204971313477-482.3999938964844-209.5T5.75:0:0Z</time></trkpt>
<trkpt lat="45.79242" lon="1.407657"><ele>0</ele><time>14.422204971313477-482.6000061035156-206.1999969482422T5.25:0:0Z</time></trkpt>
<trkpt lat="45.792371" lon="1.407636"><ele>0</ele><time>14.422204971313477-482.6000061035156-205.10000610351563T5.0:0:0Z</time></trkpt>
<trkpt lat="45.792323" lon="1.407614"><ele>0</ele><time>16.970561981201172-482.5-203.39999389648438T5.0:0:0Z</time></trkpt>
<trkpt lat="45.792281" lon="1.407588"><ele>0</ele><time>16.970561981201172-482.70001220703125-203.10000610351563T5.25:0:0Z</time></trkpt>
<trkpt lat="45.792231" lon="1.407563"><ele>0</ele><time>16.970561981201172-482.8999938964844-202.10000610351563T5.0:0:0Z</time></trkpt>
<trkpt lat="45.792172" lon="1.407522"><ele>0</ele><time>14.422204971313477-484.6000061035156-205.3000030517578T6.427480220794678:0:0Z</time></trkpt>
<trkpt lat="45.792109" lon="1.407506"><ele>0</ele><time>13.416407585144043-483.20001220703125-205.39999389648438T6.269968032836914:0:0Z</time></trkpt>
<trkpt lat="45.792059" lon="1.407475"><ele>0</ele><time>13.416407585144043-482.0-205.8000030517578T6.0:0:0Z</time></trkpt>
<trkpt lat="45.792009" lon="1.407439"><ele>0</ele><time>13.416407585144043-482.1000061035156-206.10000610351563T6.0:0:0Z</time></trkpt>
<trkpt lat="45.791958" lon="1.407402"><ele>0</ele><time>14.422204971313477-482.3999938964844-206.5T6.0:0:0Z</time></trkpt>
<trkpt lat="45.791878" lon="1.40734"><ele>0</ele><time>16.970561981201172-482.5-209.39999389648438T5.5:0:0Z</time></trkpt>
<trkpt lat="45.791829" lon="1.407321"><ele>0</ele><time>16.970561981201172-482.29998779296875-205.8000030517578T5.25:0:0Z</time></trkpt>
<trkpt lat="45.791768" lon="1.407291"><ele>0</ele><time>14.422204971313477-482.70001220703125-204.3000030517578T5.75:0:0Z</time></trkpt>
<trkpt lat="45.791722" lon="1.407257"><ele>0</ele><time>14.422204971313477-482.8999938964844-204.60000610351563T5.5:0:0Z</time></trkpt>
<trkpt lat="45.791671" lon="1.407237"><ele>0</ele><time>14.422204971313477-483.1000061035156-202.3000030517578T5.5:0:0Z</time></trkpt>
<trkpt lat="45.791569" lon="1.407204"><ele>0</ele><time>14.422204971313477-482.79998779296875-194.6999969482422T5.5:0:0Z</time></trkpt>
<trkpt lat="45.791515" lon="1.407194"><ele>0</ele><time>11.313708305358887-483.70001220703125-188.10000610351563T5.5:0:0Z</time></trkpt>
<trkpt lat="45.791466" lon="1.407194"><ele>0</ele><time>14.422204971313477-483.6000061035156-183.39999389648438T5.25:0:0Z</time></trkpt>
<trkpt lat="45.791387" lon="1.407212"><ele>0</ele><time>11.313708305358887-483.8999938964844-173.1999969482422T4.5:0:0Z</time></trkpt>
<trkpt lat="45.791303" lon="1.40723"><ele>0</ele><time>14.422204971313477-484.1000061035156-170.8000030517578T4.5:0:0Z</time></trkpt>
<trkpt lat="45.791228" lon="1.407243"><ele>0</ele><time>14.422204971313477-484.6000061035156-168.0T4.25:0:0Z</time></trkpt>
<trkpt lat="45.791139" lon="1.407254"><ele>0</ele><time>14.422204971313477-486.8999938964844-175.89999389648438T4.609772205352783:0:0Z</time></trkpt>
<trkpt lat="45.791014" lon="1.407254"><ele>0</ele><time>11.313708305358887-489.79998779296875-175.0T4.527692794799805:0:0Z</time></trkpt>
<trkpt lat="45.790929" lon="1.407281"><ele>0</ele><time>10.0-489.20001220703125-170.5T4.5:0:0Z</time></trkpt>
<trkpt lat="45.790883" lon="1.407294"><ele>0</ele><time>8.485280990600586-489.1000061035156-171.60000610351563T4.5:0:0Z</time></trkpt>
<trkpt lat="45.790813" lon="1.407309"><ele>0</ele><time>8.485280990600586-488.20001220703125-174.6999969482422T3.75:0:0Z</time></trkpt>
<trkpt lat="45.790746" lon="1.407321"><ele>0</ele><time>10.0-488.20001220703125-173.10000610351563T3.75:0:0Z</time></trkpt>
<trkpt lat="45.790673" lon="1.407313"><ele>0</ele><time>11.313708305358887-489.20001220703125-181.1999969482422T4.279310703277588:0:0Z</time></trkpt>
<trkpt lat="45.790626" lon="1.407321"><ele>0</ele><time>10.0-489.29998779296875-177.39999389648438T4.0:0:0Z</time></trkpt>
<trkpt lat="45.790558" lon="1.407326"><ele>0</ele><time>14.422204971313477-489.3999938964844-177.1999969482422T3.75:0:0Z</time></trkpt>
<trkpt lat="45.790477" lon="1.407346"><ele>0</ele><time>16.970561981201172-489.29998779296875-175.39999389648438T3.0:0:0Z</time></trkpt>
<trkpt lat="45.790436" lon="1.407374"><ele>0</ele><time>11.313708305358887-489.5-168.0T2.75:0:0Z</time></trkpt>
<trkpt lat="45.790379" lon="1.407411"><ele>0</ele><time>11.313708305358887-490.5-164.0T2.75:0:0Z</time></trkpt>
<trkpt lat="45.790326" lon="1.407473"><ele>0</ele><time>11.313708305358887-490.20001220703125-149.8000030517578T2.5:0:0Z</time></trkpt>
<trkpt lat="45.790282" lon="1.407504"><ele>0</ele><time>10.0-491.29998779296875-153.1999969482422T2.5:0:0Z</time></trkpt>
<trkpt lat="45.79022" lon="1.407556"><ele>0</ele><time>10.0-491.5-146.5T2.75:0:0Z</time></trkpt>
<trkpt lat="45.790181" lon="1.407605"><ele>0</ele><time>10.0-490.6000061035156-137.6999969482422T2.75:0:0Z</time></trkpt>
<trkpt lat="45.790137" lon="1.407674"><ele>0</ele><time>10.0-490.70001220703125-131.6999969482422T2.5:0:0Z</time></trkpt>
<trkpt lat="45.790098" lon="1.407749"><ele>0</ele><time>8.9442720413208-490.70001220703125-130.0T3.25:0:0Z</time></trkpt>
<trkpt lat="45.790068" lon="1.407813"><ele>0</ele><time>7.211102485656738-490.70001220703125-118.0999984741211T2.5495097637176514:0:0Z</time></trkpt>
<trkpt lat="45.790044" lon="1.407871"><ele>0</ele><time>8.9442720413208-491.5-120.19999694824219T2.5495097637176514:0:0Z</time></trkpt>
<trkpt lat="45.790005" lon="1.407946"><ele>0</ele><time>10.0-490.79998779296875-125.9000015258789T2.5:0:0Z</time></trkpt>
<trkpt lat="45.789973" lon="1.408018"><ele>0</ele><time>8.9442720413208-490.20001220703125-119.0T2.0:0:0Z</time></trkpt>
<trkpt lat="45.789943" lon="1.40807"><ele>0</ele><time>12.649110794067383-490.5-122.19999694824219T2.25:0:0Z</time></trkpt>
<trkpt lat="45.789926" lon="1.408146"><ele>0</ele><time>13.416407585144043-490.70001220703125-113.30000305175781T2.5:0:0Z</time></trkpt>
<trkpt lat="45.789897" lon="1.408204"><ele>0</ele><time>13.416407585144043-490.70001220703125-112.80000305175781T2.25:0:0Z</time></trkpt>
<trkpt lat="45.789872" lon="1.408281"><ele>0</ele><time>10.0-489.79998779296875-117.9000015258789T2.0:0:0Z</time></trkpt>
<trkpt lat="45.789857" lon="1.408356"><ele>0</ele><time>14.422204971313477-490.1000061035156-107.69999694824219T1.75:0:0Z</time></trkpt>
<trkpt lat="45.789834" lon="1.408425"><ele>0</ele><time>14.422204971313477-490.1000061035156-113.30000305175781T1.75:0:0Z</time></trkpt>
<trkpt lat="45.789792" lon="1.408464"><ele>0</ele><time>14.422204971313477-494.20001220703125-139.39999389648438T0.9013878107070923:0:0Z</time></trkpt>
<trkpt lat="45.789763" lon="1.408516"><ele>0</ele><time>17.8885440826416-498.1000061035156-115.0T0.75:0:0Z</time></trkpt>
<trkpt lat="45.789732" lon="1.408571"><ele>0</ele><time>20.0-498.5-126.0T1.5:0:0Z</time></trkpt>
<trkpt lat="45.789719" lon="1.408662"><ele>0</ele><time>17.8885440826416-494.29998779296875-115.5999984741211T1.5:0:0Z</time></trkpt>
<trkpt lat="45.789656" lon="1.408761"><ele>0</ele><time>13.416407585144043-494.20001220703125-127.5T2.75:0:0Z</time></trkpt>
<trkpt lat="45.789622" lon="1.408817"><ele>0</ele><time>10.0-495.6000061035156-130.3000030517578T2.5:0:0Z</time></trkpt>
<trkpt lat="45.789588" lon="1.40886"><ele>0</ele><time>10.0-495.0-129.8000030517578T2.75:0:0Z</time></trkpt>
<trkpt lat="45.789532" lon="1.408935"><ele>0</ele><time>8.485280990600586-495.70001220703125-134.10000610351563T3.783186435699463:0:0Z</time></trkpt>
<trkpt lat="45.78948" lon="1.40902"><ele>0</ele><time>7.211102485656738-496.0-129.1999969482422T4.0:0:0Z</time></trkpt>
<trkpt lat="45.789431" lon="1.409116"><ele>0</ele><time>6.7082037925720215-496.1000061035156-126.80000305175781T4.0:0:0Z</time></trkpt>
<trkpt lat="45.789397" lon="1.409208"><ele>0</ele><time>6.7082037925720215-495.29998779296875-121.9000015258789T4.0:0:0Z</time></trkpt>
<trkpt lat="45.789371" lon="1.409263"><ele>0</ele><time>6.7082037925720215-495.20001220703125-121.0999984741211T4.25:0:0Z</time></trkpt>
<trkpt lat="45.78933" lon="1.409322"><ele>0</ele><time>7.211102485656738-495.0-126.9000015258789T4.75:0:0Z</time></trkpt>
<trkpt lat="45.789307" lon="1.409381"><ele>0</ele><time>7.211102485656738-494.5-124.5T4.75:0:0Z</time></trkpt>
<trkpt lat="45.78928" lon="1.409484"><ele>0</ele><time>10.0-494.29998779296875-116.80000305175781T4.25:0:0Z</time></trkpt>
<trkpt lat="45.78923" lon="1.409594"><ele>0</ele><time>13.416407585144043-494.3999938964844-120.0T4.5:0:0Z</time></trkpt>
<trkpt lat="45.789203" lon="1.409701"><ele>0</ele><time>13.416407585144043-495.20001220703125-114.5T3.75:0:0Z</time></trkpt>
<trkpt lat="45.789183" lon="1.40978"><ele>0</ele><time>13.416407585144043-495.5-104.69999694824219T3.25:0:0Z</time></trkpt>
<trkpt lat="45.789166" lon="1.409934"><ele>0</ele><time>17.8885440826416-494.3999938964844-90.80000305175781T3.5:0:0Z</time></trkpt>
<trkpt lat="45.789164" lon="1.410012"><ele>0</ele><time>17.8885440826416-495.5-86.5999984741211T3.25:0:0Z</time></trkpt>
<trkpt lat="45.789175" lon="1.410075"><ele>0</ele><time>17.8885440826416-495.6000061035156-77.30000305175781T2.75:0:0Z</time></trkpt>
<trkpt lat="45.788997" lon="1.410216"><ele>0</ele><time>17.8885440826416-495.1000061035156-114.5999984741211T3.75:0:0Z</time></trkpt>
<trkpt lat="45.78882" lon="1.410336"><ele>0</ele><time>13.416407585144043-493.6000061035156-128.5T5.0:0:0Z</time></trkpt>
<trkpt lat="45.788702" lon="1.410461"><ele>0</ele><time>13.416407585144043-492.5-127.69999694824219T6.75:0:0Z</time></trkpt>
<trkpt lat="45.788656" lon="1.410555"><ele>0</ele><time>13.416407585144043-492.79998779296875-127.5999984741211T6.75:0:0Z</time></trkpt>
<trkpt lat="45.788616" lon="1.41063"><ele>0</ele><time>13.416407585144043-492.29998779296875-127.5T6.75:0:0Z</time></trkpt>
<trkpt lat="45.788581" lon="1.410673"><ele>0</ele><time>13.416407585144043-491.70001220703125-132.8000030517578T6.0:0:0Z</time></trkpt>
<trkpt lat="45.788533" lon="1.410736"><ele>0</ele><time>13.416407585144043-491.70001220703125-136.0T6.0:0:0Z</time></trkpt>
<trkpt lat="45.788366" lon="1.410848"><ele>0</ele><time>10.0-487.8999938964844-149.8000030517578T8.310384750366211:0:0Z</time></trkpt>
<trkpt lat="45.788291" lon="1.410906"><ele>0</ele><time>10.0-487.8999938964844-149.10000610351563T8.265137672424316:0:0Z</time></trkpt>
<trkpt lat="45.788211" lon="1.410973"><ele>0</ele><time>7.211102485656738-488.20001220703125-148.8000030517578T7.766112327575684:0:0Z</time></trkpt>
<trkpt lat="45.788153" lon="1.411043"><ele>0</ele><time>10.0-487.70001220703125-145.60000610351563T8.0:0:0Z</time></trkpt>
<trkpt lat="45.788081" lon="1.411086"><ele>0</ele><time>10.0-487.79998779296875-150.1999969482422T8.0:0:0Z</time></trkpt>
<trkpt lat="45.787979" lon="1.41117"><ele>0</ele><time>10.0-487.3999938964844-149.8000030517578T9.0:0:0Z</time></trkpt>
<trkpt lat="45.787897" lon="1.411227"><ele>0</ele><time>10.0-488.20001220703125-150.1999969482422T9.0:0:0Z</time></trkpt>
<trkpt lat="45.787819" lon="1.411304"><ele>0</ele><time>10.0-488.0-148.5T9.25:0:0Z</time></trkpt>
<trkpt lat="45.787719" lon="1.411387"><ele>0</ele><time>10.0-487.8999938964844-148.6999969482422T9.5:0:0Z</time></trkpt>
<trkpt lat="45.787637" lon="1.411486"><ele>0</ele><time>8.9442720413208-488.0-146.89999389648438T10.0:0:0Z</time></trkpt>
<trkpt lat="45.787553" lon="1.411551"><ele>0</ele><time>8.9442720413208-488.0-148.89999389648438T10.25:0:0Z</time></trkpt>
<trkpt lat="45.787451" lon="1.411639"><ele>0</ele><time>8.9442720413208-487.79998779296875-149.10000610351563T10.75:0:0Z</time></trkpt>
<trkpt lat="45.787364" lon="1.411698"><ele>0</ele><time>8.9442720413208-487.70001220703125-151.6999969482422T11.25:0:0Z</time></trkpt>
<trkpt lat="45.787276" lon="1.41176"><ele>0</ele><time>8.9442720413208-487.6000061035156-151.89999389648438T11.5:0:0Z</time></trkpt>
<trkpt lat="45.787173" lon="1.411846"><ele>0</ele><time>8.5440034866333-487.3999938964844-151.39999389648438T12.0:0:0Z</time></trkpt>
<trkpt lat="45.787076" lon="1.411931"><ele>0</ele><time>8.5440034866333-487.1000061035156-150.89999389648438T12.5:0:0Z</time></trkpt>
<trkpt lat="45.786985" lon="1.412003"><ele>0</ele><time>8.5440034866333-486.5-149.89999389648438T12.25:0:0Z</time></trkpt>
<trkpt lat="45.786889" lon="1.412081"><ele>0</ele><time>8.5440034866333-485.79998779296875-149.6999969482422T12.25:0:0Z</time></trkpt>
<trkpt lat="45.786801" lon="1.412129"><ele>0</ele><time>6.7082037925720215-484.20001220703125-150.6999969482422T12.0:0:0Z</time></trkpt>
<trkpt lat="45.786701" lon="1.412224"><ele>0</ele><time>6.7082037925720215-484.5-150.3000030517578T12.25:0:0Z</time></trkpt>
<trkpt lat="45.786629" lon="1.412285"><ele>0</ele><time>6.7082037925720215-484.29998779296875-148.8000030517578T11.25:0:0Z</time></trkpt>
<trkpt lat="45.786541" lon="1.412366"><ele>0</ele><time>6.7082037925720215-484.29998779296875-149.1999969482422T11.0:0:0Z</time></trkpt>
<trkpt lat="45.786456" lon="1.412425"><ele>0</ele><time>6.7082037925720215-484.29998779296875-153.3000030517578T11.0:0:0Z</time></trkpt>
<trkpt lat="45.786366" lon="1.412459"><ele>0</ele><time>6.7082037925720215-484.29998779296875-161.10000610351563T11.0:0:0Z</time></trkpt>
<trkpt lat="45.786289" lon="1.412476"><ele>0</ele><time>6.7082037925720215-484.79998779296875-164.89999389648438T10.0:0:0Z</time></trkpt>
<trkpt lat="45.786192" lon="1.412466"><ele>0</ele><time>6.7082037925720215-483.29998779296875-169.3000030517578T9.5:0:0Z</time></trkpt>
<trkpt lat="45.786122" lon="1.41244"><ele>0</ele><time>6.324555397033691-482.8999938964844-180.8000030517578T8.764273643493652:0:0Z</time></trkpt>
<trkpt lat="45.786042" lon="1.412458"><ele>0</ele><time>6.324555397033691-483.0-179.3000030517578T8.5:0:0Z</time></trkpt>
<trkpt lat="45.785966" lon="1.412449"><ele>0</ele><time>6.324555397033691-482.79998779296875-178.1999969482422T8.5:0:0Z</time></trkpt>
<trkpt lat="45.785891" lon="1.412451"><ele>0</ele><time>6.7082037925720215-482.5-177.1999969482422T8.5:0:0Z</time></trkpt>
<trkpt lat="45.785805" lon="1.412454"><ele>0</ele><time>6.7082037925720215-482.29998779296875-176.6999969482422T9.0:0:0Z</time></trkpt>
<trkpt lat="45.785723" lon="1.412469"><ele>0</ele><time>6.7082037925720215-481.6000061035156-174.8000030517578T9.0:0:0Z</time></trkpt>
<trkpt lat="45.785644" lon="1.412475"><ele>0</ele><time>6.7082037925720215-480.5-174.60000610351563T9.0:0:0Z</time></trkpt>
<trkpt lat="45.785557" lon="1.412495"><ele>0</ele><time>6.7082037925720215-480.29998779296875-173.5T9.5:0:0Z</time></trkpt>
<trkpt lat="45.785462" lon="1.41253"><ele>0</ele><time>6.7082037925720215-480.29998779296875-171.6999969482422T9.75:0:0Z</time></trkpt>
<trkpt lat="45.785368" lon="1.412555"><ele>0</ele><time>6.7082037925720215-480.1000061035156-171.10000610351563T10.0:0:0Z</time></trkpt>
<trkpt lat="45.785283" lon="1.41258"><ele>0</ele><time>6.7082037925720215-480.3999938964844-169.39999389648438T9.75:0:0Z</time></trkpt>
<trkpt lat="45.785205" lon="1.412547"><ele>0</ele><time>6.7082037925720215-479.20001220703125-174.60000610351563T9.25:0:0Z</time></trkpt>
<trkpt lat="45.78513" lon="1.412559"><ele>0</ele><time>6.324555397033691-478.0-174.3000030517578T9.263504028320313:0:0Z</time></trkpt>
<trkpt lat="45.785045" lon="1.412583"><ele>0</ele><time>6.324555397033691-477.6000061035156-173.39999389648438T9.013877868652344:0:0Z</time></trkpt>
<trkpt lat="45.784959" lon="1.412593"><ele>0</ele><time>6.324555397033691-476.5-176.10000610351563T9.552486419677734:0:0Z</time></trkpt>
<trkpt lat="45.784869" lon="1.412603"><ele>0</ele><time>4.4721360206604-475.70001220703125-175.39999389648438T9.762811660766602:0:0Z</time></trkpt>
<trkpt lat="45.784768" lon="1.41262"><ele>0</ele><time>4.4721360206604-474.6000061035156-177.10000610351563T10.60660171508789:0:0Z</time></trkpt>
<trkpt lat="45.784676" lon="1.412622"><ele>0</ele><time>4.4721360206604-473.6000061035156-176.5T10.262187957763672:0:0Z</time></trkpt>
<trkpt lat="45.784591" lon="1.412637"><ele>0</ele><time>4.4721360206604-473.6000061035156-175.60000610351563T9.762811660766602:0:0Z</time></trkpt>
<trkpt lat="45.784513" lon="1.412657"><ele>0</ele><time>4.4721360206604-472.1000061035156-171.60000610351563T9.552486419677734:0:0Z</time></trkpt>
<trkpt lat="45.784422" lon="1.412676"><ele>0</ele><time>4.4721360206604-471.20001220703125-171.8000030517578T9.762811660766602:0:0Z</time></trkpt>
<trkpt lat="45.784241" lon="1.412738"><ele>0</ele><time>6.324555397033691-470.20001220703125-166.89999389648438T10.25:0:0Z</time></trkpt>
<trkpt lat="45.784159" lon="1.412773"><ele>0</ele><time>6.7082037925720215-470.0-164.3000030517578T9.75:0:0Z</time></trkpt>
<trkpt lat="45.784081" lon="1.412807"><ele>0</ele><time>6.7082037925720215-469.8999938964844-163.39999389648438T9.5:0:0Z</time></trkpt>
<trkpt lat="45.784008" lon="1.412829"><ele>0</ele><time>6.7082037925720215-469.5-163.6999969482422T9.25:0:0Z</time></trkpt>
<trkpt lat="45.783927" lon="1.412865"><ele>0</ele><time>6.7082037925720215-469.1000061035156-162.39999389648438T9.25:0:0Z</time></trkpt>
<trkpt lat="45.783872" lon="1.412808"><ele>0</ele><time>5.0-463.70001220703125-163.0T8.75:0:0Z</time></trkpt>
<trkpt lat="45.783795" lon="1.412842"><ele>0</ele><time>4.4721360206604-461.6000061035156-160.1999969482422T9.013877868652344:0:0Z</time></trkpt>
<trkpt lat="45.783714" lon="1.412869"><ele>0</ele><time>3.605551242828369-460.0-160.6999969482422T9.013877868652344:0:0Z</time></trkpt>
<trkpt lat="45.783641" lon="1.412903"><ele>0</ele><time>3.605551242828369-459.0-160.1999969482422T8.75:0:0Z</time></trkpt>
<trkpt lat="45.783566" lon="1.41293"><ele>0</ele><time>3.605551242828369-457.8999938964844-160.1999969482422T9.0:0:0Z</time></trkpt>
<trkpt lat="45.783495" lon="1.412962"><ele>0</ele><time>3.605551242828369-456.1000061035156-164.89999389648438T8.310384750366211:0:0Z</time></trkpt>
<trkpt lat="45.783411" lon="1.413002"><ele>0</ele><time>3.605551242828369-455.70001220703125-159.89999389648438T8.5:0:0Z</time></trkpt>
<trkpt lat="45.783338" lon="1.413052"><ele>0</ele><time>3.605551242828369-455.8999938964844-158.5T8.5:0:0Z</time></trkpt>
<trkpt lat="45.783289" lon="1.413108"><ele>0</ele><time>2.8284270763397217-454.8999938964844-142.6999969482422T8.25:0:0Z</time></trkpt>
<trkpt lat="45.783234" lon="1.413173"><ele>0</ele><time>2.8284270763397217-454.70001220703125-140.0T8.0:0:0Z</time></trkpt>
<trkpt lat="45.783196" lon="1.413244"><ele>0</ele><time>2.8284270763397217-454.5-132.1999969482422T7.5:0:0Z</time></trkpt>
<trkpt lat="45.78315" lon="1.413308"><ele>0</ele><time>2.8284270763397217-454.1000061035156-138.10000610351563T7.25:0:0Z</time></trkpt>
<trkpt lat="45.783081" lon="1.413366"><ele>0</ele><time>3.605551242828369-453.70001220703125-147.60000610351563T8.0:0:0Z</time></trkpt>
<trkpt lat="45.783007" lon="1.413409"><ele>0</ele><time>3.605551242828369-453.5-156.0T8.25:0:0Z</time></trkpt>
<trkpt lat="45.782941" lon="1.413416"><ele>0</ele><time>4.242640495300293-452.8999938964844-164.5T7.75:0:0Z</time></trkpt>
<trkpt lat="45.782864" lon="1.413457"><ele>0</ele><time>4.242640495300293-452.3999938964844-161.89999389648438T8.0:0:0Z</time></trkpt>
<trkpt lat="45.782798" lon="1.413505"><ele>0</ele><time>5.0-452.20001220703125-156.5T8.0:0:0Z</time></trkpt>
<trkpt lat="45.782751" lon="1.413566"><ele>0</ele><time>6.7082037925720215-452.20001220703125-145.5T7.0:0:0Z</time></trkpt>
<trkpt lat="45.78269" lon="1.41361"><ele>0</ele><time>6.7082037925720215-452.3999938964844-149.6999969482422T7.0:0:0Z</time></trkpt>
<trkpt lat="45.782619" lon="1.413641"><ele>0</ele><time>7.211102485656738-451.8999938964844-159.3000030517578T7.0:0:0Z</time></trkpt>
<trkpt lat="45.78254" lon="1.413695"><ele>0</ele><time>10.0-451.3999938964844-159.3000030517578T7.75:0:0Z</time></trkpt>
<trkpt lat="45.782456" lon="1.413689"><ele>0</ele><time>11.313708305358887-450.70001220703125-166.60000610351563T8.0:0:0Z</time></trkpt>
<trkpt lat="45.782379" lon="1.413712"><ele>0</ele><time>14.422204971313477-450.79998779296875-166.6999969482422T8.0:0:0Z</time></trkpt>
<trkpt lat="45.782307" lon="1.413678"><ele>0</ele><time>11.313708305358887-449.5-173.3000030517578T7.766112327575684:0:0Z</time></trkpt>
<trkpt lat="45.782245" lon="1.413708"><ele>0</ele><time>14.422204971313477-448.8999938964844-165.6999969482422T7.5:0:0Z</time></trkpt>
<trkpt lat="45.782175" lon="1.41379"><ele>0</ele><time>14.422204971313477-447.3999938964844-145.89999389648438T8.764273643493652:0:0Z</time></trkpt>
<trkpt lat="45.782114" lon="1.413844"><ele>0</ele><time>13.416407585144043-446.8999938964844-146.10000610351563T8.514693260192871:0:0Z</time></trkpt>
<trkpt lat="45.782046" lon="1.413905"><ele>0</ele><time>13.416407585144043-446.79998779296875-148.1999969482422T8.75:0:0Z</time></trkpt>
<trkpt lat="45.781972" lon="1.41392"><ele>0</ele><time>10.0-445.5-154.10000610351563T8.5:0:0Z</time></trkpt>
<trkpt lat="45.781899" lon="1.413966"><ele>0</ele><time>8.485280990600586-445.20001220703125-154.1999969482422T8.5:0:0Z</time></trkpt>
<trkpt lat="45.781822" lon="1.414002"><ele>0</ele><time>7.211102485656738-444.5-158.3000030517578T8.75:0:0Z</time></trkpt>
<trkpt lat="45.781751" lon="1.414041"><ele>0</ele><time>7.211102485656738-444.70001220703125-157.39999389648438T8.5:0:0Z</time></trkpt>
<trkpt lat="45.781688" lon="1.414074"><ele>0</ele><time>5.0-444.70001220703125-158.8000030517578T7.75:0:0Z</time></trkpt>
<trkpt lat="45.781621" lon="1.414107"><ele>0</ele><time>5.0-444.6000061035156-162.10000610351563T7.5:0:0Z</time></trkpt>
<trkpt lat="45.781567" lon="1.414138"><ele>0</ele><time>4.242640495300293-444.29998779296875-157.6999969482422T6.5:0:0Z</time></trkpt>
<trkpt lat="45.781516" lon="1.414186"><ele>0</ele><time>4.242640495300293-443.79998779296875-146.60000610351563T6.5:0:0Z</time></trkpt>
<trkpt lat="45.781466" lon="1.414237"><ele>0</ele><time>3.605551242828369-443.70001220703125-144.39999389648438T6.5:0:0Z</time></trkpt>
<trkpt lat="45.781418" lon="1.414278"><ele>0</ele><time>3.605551242828369-443.6000061035156-147.1999969482422T6.5:0:0Z</time></trkpt>
<trkpt lat="45.78137" lon="1.414321"><ele>0</ele><time>3.605551242828369-443.70001220703125-148.89999389648438T6.5:0:0Z</time></trkpt>
<trkpt lat="45.781317" lon="1.414352"><ele>0</ele><time>3.605551242828369-443.8999938964844-152.60000610351563T6.5:0:0Z</time></trkpt>
<trkpt lat="45.781254" lon="1.414387"><ele>0</ele><time>3.605551242828369-443.5-157.39999389648438T7.0:0:0Z</time></trkpt>
<trkpt lat="45.781198" lon="1.414419"><ele>0</ele><time>3.605551242828369-443.20001220703125-156.89999389648438T7.25:0:0Z</time></trkpt>
<trkpt lat="45.781143" lon="1.414463"><ele>0</ele><time>2.8284270763397217-442.79998779296875-152.0T7.25:0:0Z</time></trkpt>
<trkpt lat="45.781084" lon="1.414502"><ele>0</ele><time>2.8284270763397217-442.8999938964844-155.8000030517578T7.75:0:0Z</time></trkpt>
<trkpt lat="45.781016" lon="1.414538"><ele>0</ele><time>2.8284270763397217-442.20001220703125-158.8000030517578T7.75:0:0Z</time></trkpt>
<trkpt lat="45.780947" lon="1.414575"><ele>0</ele><time>2.8284270763397217-441.8999938964844-159.10000610351563T8.0:0:0Z</time></trkpt>
<trkpt lat="45.780877" lon="1.414616"><ele>0</ele><time>2.8284270763397217-441.6000061035156-158.0T8.0:0:0Z</time></trkpt>
<trkpt lat="45.780803" lon="1.414658"><ele>0</ele><time>2.8284270763397217-441.3999938964844-158.1999969482422T8.25:0:0Z</time></trkpt>
<trkpt lat="45.780732" lon="1.414695"><ele>0</ele><time>3.605551242828369-441.3999938964844-158.6999969482422T8.25:0:0Z</time></trkpt>
<trkpt lat="45.780666" lon="1.414745"><ele>0</ele><time>4.4721360206604-441.29998779296875-155.60000610351563T8.25:0:0Z</time></trkpt>
<trkpt lat="45.780599" lon="1.414792"><ele>0</ele><time>5.0-441.3999938964844-155.39999389648438T8.0:0:0Z</time></trkpt>
<trkpt lat="45.780535" lon="1.414842"><ele>0</ele><time>6.7082037925720215-441.29998779296875-154.6999969482422T8.0:0:0Z</time></trkpt>
<trkpt lat="45.780489" lon="1.414857"><ele>0</ele><time>6.7082037925720215-441.3999938964844-156.5T7.0:0:0Z</time></trkpt>
<trkpt lat="45.780411" lon="1.414898"><ele>0</ele><time>6.7082037925720215-441.20001220703125-160.1999969482422T7.75:0:0Z</time></trkpt>
<trkpt lat="45.780288" lon="1.414886"><ele>0</ele><time>3.605551242828369-440.20001220703125-171.89999389648438T7.0:0:0Z</time></trkpt>
<trkpt lat="45.780241" lon="1.414912"><ele>0</ele><time>3.605551242828369-439.5-157.5T6.25:0:0Z</time></trkpt>
<trkpt lat="45.780211" lon="1.414966"><ele>0</ele><time>3.605551242828369-437.8999938964844-133.39999389648438T6.0:0:0Z</time></trkpt>
<trkpt lat="45.780177" lon="1.415025"><ele>0</ele><time>3.605551242828369-438.0-131.1999969482422T6.0:0:0Z</time></trkpt>
<trkpt lat="45.780147" lon="1.415109"><ele>0</ele><time>3.605551242828369-438.6000061035156-121.5999984741211T7.0:0:0Z</time></trkpt>
<trkpt lat="45.780117" lon="1.415179"><ele>0</ele><time>2.8284270763397217-438.1000061035156-122.30000305175781T7.0:0:0Z</time></trkpt>
<trkpt lat="45.780082" lon="1.415258"><ele>0</ele><time>2.8284270763397217-438.5-122.30000305175781T7.0:0:0Z</time></trkpt>
<trkpt lat="45.780042" lon="1.415332"><ele>0</ele><time>4.242640495300293-438.5-124.9000015258789T7.0:0:0Z</time></trkpt>
<trkpt lat="45.780008" lon="1.415393"><ele>0</ele><time>5.0-438.5-126.30000305175781T6.75:0:0Z</time></trkpt>
<trkpt lat="45.77997" lon="1.415465"><ele>0</ele><time>7.211102485656738-437.8999938964844-126.0T7.0:0:0Z</time></trkpt>
<trkpt lat="45.77993" lon="1.415537"><ele>0</ele><time>7.211102485656738-438.0-126.19999694824219T7.0:0:0Z</time></trkpt>
<trkpt lat="45.7799" lon="1.415609"><ele>0</ele><time>7.211102485656738-437.79998779296875-125.0999984741211T6.75:0:0Z</time></trkpt>
<trkpt lat="45.779869" lon="1.41567"><ele>0</ele><time>7.211102485656738-437.3999938964844-123.80000305175781T6.5:0:0Z</time></trkpt>
<trkpt lat="45.779835" lon="1.41574"><ele>0</ele><time>7.211102485656738-437.5-125.19999694824219T6.5:0:0Z</time></trkpt>
<trkpt lat="45.779809" lon="1.415803"><ele>0</ele><time>5.0-437.6000061035156-123.9000015258789T6.25:0:0Z</time></trkpt>
<trkpt lat="45.779771" lon="1.415871"><ele>0</ele><time>5.0-436.8999938964844-124.30000305175781T6.25:0:0Z</time></trkpt>
<trkpt lat="45.779738" lon="1.415939"><ele>0</ele><time>4.242640495300293-436.70001220703125-124.0999984741211T6.0:0:0Z</time></trkpt>
<trkpt lat="45.779707" lon="1.416006"><ele>0</ele><time>3.605551242828369-436.70001220703125-124.5T6.5:0:0Z</time></trkpt>
<trkpt lat="45.779681" lon="1.416062"><ele>0</ele><time>3.605551242828369-436.79998779296875-123.30000305175781T5.75:0:0Z</time></trkpt>
<trkpt lat="45.77965" lon="1.416122"><ele>0</ele><time>3.605551242828369-436.70001220703125-124.4000015258789T5.75:0:0Z</time></trkpt>
<trkpt lat="45.779622" lon="1.416186"><ele>0</ele><time>3.605551242828369-436.70001220703125-122.9000015258789T5.75:0:0Z</time></trkpt>
<trkpt lat="45.779595" lon="1.416246"><ele>0</ele><time>3.605551242828369-437.20001220703125-122.80000305175781T5.5:0:0Z</time></trkpt>
<trkpt lat="45.779568" lon="1.416304"><ele>0</ele><time>2.8284270763397217-437.0-123.30000305175781T5.75:0:0Z</time></trkpt>
<trkpt lat="45.779537" lon="1.416363"><ele>0</ele><time>2.8284270763397217-436.8999938964844-126.30000305175781T5.5:0:0Z</time></trkpt>
<trkpt lat="45.779512" lon="1.41642"><ele>0</ele><time>3.605551242828369-437.1000061035156-122.5999984741211T5.25:0:0Z</time></trkpt>
<trkpt lat="45.779478" lon="1.416485"><ele>0</ele><time>3.605551242828369-437.20001220703125-123.5999984741211T5.75:0:0Z</time></trkpt>
<trkpt lat="45.779447" lon="1.416554"><ele>0</ele><time>5.0-436.79998779296875-123.30000305175781T6.269968032836914:0:0Z</time></trkpt>
<trkpt lat="45.779413" lon="1.416616"><ele>0</ele><time>5.0-436.0-124.5999984741211T6.25:0:0Z</time></trkpt>
<trkpt lat="45.779381" lon="1.416676"><ele>0</ele><time>5.0-436.0-125.5999984741211T6.25:0:0Z</time></trkpt>
<trkpt lat="45.779352" lon="1.416741"><ele>0</ele><time>6.7082037925720215-436.20001220703125-124.0T6.25:0:0Z</time></trkpt>
<trkpt lat="45.779321" lon="1.416809"><ele>0</ele><time>6.7082037925720215-436.0-123.19999694824219T6.25:0:0Z</time></trkpt>
<trkpt lat="45.779288" lon="1.416879"><ele>0</ele><time>7.211102485656738-436.20001220703125-123.80000305175781T6.5:0:0Z</time></trkpt>
<trkpt lat="45.77925" lon="1.416956"><ele>0</ele><time>7.211102485656738-436.0-126.69999694824219T6.5:0:0Z</time></trkpt>
<trkpt lat="45.779213" lon="1.417033"><ele>0</ele><time>7.211102485656738-435.8999938964844-123.69999694824219T6.75:0:0Z</time></trkpt>
<trkpt lat="45.779179" lon="1.417102"><ele>0</ele><time>6.7082037925720215-435.6000061035156-123.5999984741211T6.75:0:0Z</time></trkpt>
<trkpt lat="45.779148" lon="1.41717"><ele>0</ele><time>5.0-435.5-123.19999694824219T6.5:0:0Z</time></trkpt>
<trkpt lat="45.779119" lon="1.417234"><ele>0</ele><time>5.0-436.0-125.69999694824219T6.5:0:0Z</time></trkpt>
<trkpt lat="45.779096" lon="1.417298"><ele>0</ele><time>5.0-436.1000061035156-125.30000305175781T6.25:0:0Z</time></trkpt>
<trkpt lat="45.779064" lon="1.417368"><ele>0</ele><time>3.605551242828369-436.3999938964844-122.0999984741211T6.269968032836914:0:0Z</time></trkpt>
<trkpt lat="45.779028" lon="1.417434"><ele>0</ele><time>5.0-435.79998779296875-122.69999694824219T6.25:0:0Z</time></trkpt>
<trkpt lat="45.778992" lon="1.417503"><ele>0</ele><time>5.0-435.20001220703125-123.4000015258789T6.51920223236084:0:0Z</time></trkpt>
<trkpt lat="45.778958" lon="1.417567"><ele>0</ele><time>5.0-435.5-124.9000015258789T6.5:0:0Z</time></trkpt>
<trkpt lat="45.778925" lon="1.417631"><ele>0</ele><time>5.0-435.5-125.0999984741211T6.5:0:0Z</time></trkpt>
<trkpt lat="45.77889" lon="1.417695"><ele>0</ele><time>5.656854152679443-435.0-126.0T6.25:0:0Z</time></trkpt>
<trkpt lat="45.77886" lon="1.417761"><ele>0</ele><time>7.211102485656738-434.6000061035156-124.30000305175781T6.25:0:0Z</time></trkpt>
<trkpt lat="45.778831" lon="1.417824"><ele>0</ele><time>7.211102485656738-434.6000061035156-124.9000015258789T6.0:0:0Z</time></trkpt>
<trkpt lat="45.778799" lon="1.417886"><ele>0</ele><time>7.211102485656738-435.0-125.4000015258789T6.0:0:0Z</time></trkpt>
<trkpt lat="45.77877" lon="1.417945"><ele>0</ele><time>7.211102485656738-434.70001220703125-124.9000015258789T6.0:0:0Z</time></trkpt>
<trkpt lat="45.778741" lon="1.41801"><ele>0</ele><time>7.211102485656738-434.6000061035156-123.69999694824219T6.0:0:0Z</time></trkpt>
<trkpt lat="45.778707" lon="1.418075"><ele>0</ele><time>7.211102485656738-435.0-125.19999694824219T6.0:0:0Z</time></trkpt>
<trkpt lat="45.778686" lon="1.418135"><ele>0</ele><time>7.211102485656738-434.6000061035156-123.9000015258789T5.75:0:0Z</time></trkpt>
<trkpt lat="45.778652" lon="1.418193"><ele>0</ele><time>7.211102485656738-435.0-126.19999694824219T5.75:0:0Z</time></trkpt>
<trkpt lat="45.778628" lon="1.418252"><ele>0</ele><time>7.211102485656738-435.20001220703125-123.69999694824219T5.5:0:0Z</time></trkpt>
<trkpt lat="45.778572" lon="1.418352"><ele>0</ele><time>6.7082037925720215-436.29998779296875-127.4000015258789T4.776243209838867:0:0Z</time></trkpt>
<trkpt lat="45.778521" lon="1.418455"><ele>0</ele><time>7.211102485656738-436.5-123.19999694824219T5.0:0:0Z</time></trkpt>
<trkpt lat="45.778474" lon="1.418556"><ele>0</ele><time>7.211102485656738-436.8999938964844-125.5T4.75:0:0Z</time></trkpt>
<trkpt lat="45.778474" lon="1.418556"><ele>0</ele><time>7.211102485656738-436.8999938964844-125.5T4.75:0:0Z</time></trkpt>
<trkpt lat="45.77843" lon="1.418662"><ele>0</ele><time>7.211102485656738-436.3999938964844-123.0T4.75:0:0Z</time></trkpt>
<trkpt lat="45.77839" lon="1.418762"><ele>0</ele><time>7.211102485656738-435.5-123.4000015258789T4.75:0:0Z</time></trkpt>
<trkpt lat="45.778336" lon="1.418864"><ele>0</ele><time>7.211102485656738-435.3999938964844-125.0999984741211T4.75:0:0Z</time></trkpt>
<trkpt lat="45.77829" lon="1.41896"><ele>0</ele><time>7.211102485656738-436.29998779296875-122.69999694824219T4.776243209838867:0:0Z</time></trkpt>
<trkpt lat="45.778243" lon="1.41905"><ele>0</ele><time>7.211102485656738-436.3999938964844-128.0T4.5:0:0Z</time></trkpt>
<trkpt lat="45.778195" lon="1.419157"><ele>0</ele><time>7.211102485656738-436.5-121.80000305175781T4.75:0:0Z</time></trkpt>
<trkpt lat="45.778144" lon="1.419262"><ele>0</ele><time>7.211102485656738-436.5-123.4000015258789T4.75:0:0Z</time></trkpt>
<trkpt lat="45.778103" lon="1.419363"><ele>0</ele><time>7.211102485656738-437.0-122.30000305175781T4.5:0:0Z</time></trkpt>
<trkpt lat="45.778053" lon="1.41945"><ele>0</ele><time>7.211102485656738-437.29998779296875-129.3000030517578T4.5:0:0Z</time></trkpt>
<trkpt lat="45.778008" lon="1.419545"><ele>0</ele><time>8.9442720413208-436.8999938964844-121.5999984741211T4.5:0:0Z</time></trkpt>
<trkpt lat="45.77796" lon="1.419643"><ele>0</ele><time>8.9442720413208-436.79998779296875-125.19999694824219T4.5:0:0Z</time></trkpt>
<trkpt lat="45.777913" lon="1.419747"><ele>0</ele><time>7.211102485656738-437.6000061035156-125.4000015258789T4.5:0:0Z</time></trkpt>
<trkpt lat="45.777865" lon="1.419844"><ele>0</ele><time>5.0-437.6000061035156-124.80000305175781T4.75:0:0Z</time></trkpt>
<trkpt lat="45.777815" lon="1.419942"><ele>0</ele><time>3.605551242828369-437.20001220703125-123.30000305175781T4.75:0:0Z</time></trkpt>
<trkpt lat="45.777771" lon="1.420042"><ele>0</ele><time>3.605551242828369-437.5-124.4000015258789T4.75:0:0Z</time></trkpt>
<trkpt lat="45.777726" lon="1.420143"><ele>0</ele><time>6.7082037925720215-437.5-124.0T4.75:0:0Z</time></trkpt>
<trkpt lat="45.777693" lon="1.420232"><ele>0</ele><time>6.7082037925720215-438.3999938964844-124.5T4.25:0:0Z</time></trkpt>
<trkpt lat="45.777646" lon="1.420324"><ele>0</ele><time>7.211102485656738-438.6000061035156-123.80000305175781T4.5:0:0Z</time></trkpt>
<trkpt lat="45.777602" lon="1.420403"><ele>0</ele><time>6.7082037925720215-437.6000061035156-128.8000030517578T4.0:0:0Z</time></trkpt>
<trkpt lat="45.777561" lon="1.420479"><ele>0</ele><time>7.211102485656738-437.70001220703125-130.3000030517578T3.75:0:0Z</time></trkpt>
<trkpt lat="45.777506" lon="1.420532"><ele>0</ele><time>6.7082037925720215-438.8999938964844-143.3000030517578T3.783186435699463:0:0Z</time></trkpt>
<trkpt lat="45.777453" lon="1.420586"><ele>0</ele><time>7.211102485656738-439.29998779296875-144.60000610351563T3.5:0:0Z</time></trkpt>
<trkpt lat="45.777403" lon="1.4206"><ele>0</ele><time>5.0-439.70001220703125-169.8000030517578T3.0:0:0Z</time></trkpt>
<trkpt lat="45.777334" lon="1.420596"><ele>0</ele><time>7.211102485656738-439.3999938964844-184.60000610351563T3.25:0:0Z</time></trkpt>
<trkpt lat="45.777267" lon="1.420555"><ele>0</ele><time>7.211102485656738-439.5-202.6999969482422T3.5:0:0Z</time></trkpt>
<trkpt lat="45.777195" lon="1.420512"><ele>0</ele><time>8.485280990600586-439.8999938964844-204.6999969482422T3.75:0:0Z</time></trkpt>
<trkpt lat="45.777124" lon="1.420479"><ele>0</ele><time>7.211102485656738-442.8999938964844-198.3000030517578T4.123105525970459:0:0Z</time></trkpt>
<trkpt lat="45.777074" lon="1.420451"><ele>0</ele><time>8.485280990600586-442.79998779296875-197.60000610351563T3.288236618041992:0:0Z</time></trkpt>
<trkpt lat="45.777021" lon="1.420447"><ele>0</ele><time>7.211102485656738-442.20001220703125-185.1999969482422T3.0:0:0Z</time></trkpt>
<trkpt lat="45.77698" lon="1.420487"><ele>0</ele><time>10.0-442.29998779296875-153.8000030517578T2.25:0:0Z</time></trkpt>
<trkpt lat="45.776954" lon="1.420561"><ele>0</ele><time>10.0-442.6000061035156-121.0T1.75:0:0Z</time></trkpt>
<trkpt lat="45.776934" lon="1.420473"><ele>0</ele><time>25.298221588134766-439.70001220703125-261.3999938964844T1.5:0:0Z</time></trkpt>
<trkpt lat="45.776928" lon="1.420402"><ele>0</ele><time>13.416407585144043-440.29998779296875-226.3000030517578T1.25:0:0Z</time></trkpt>
<trkpt lat="45.776873" lon="1.420382"><ele>0</ele><time>17.0880069732666-439.5-199.8000030517578T1.5:0:0Z</time></trkpt>
<trkpt lat="45.77684" lon="1.420296"><ele>0</ele><time>17.0880069732666-440.3999938964844-227.1999969482422T2.0:0:0Z</time></trkpt>
<trkpt lat="45.776895" lon="1.420315"><ele>0</ele><time>17.0880069732666-438.70001220703125-227.1999969482422T0.25:0:0Z</time></trkpt>
<trkpt lat="45.776809" lon="1.420248"><ele>0</ele><time>8.9442720413208-451.1000061035156-227.1999969482422T0.0:0:0Z</time></trkpt>
<trkpt lat="45.77673" lon="1.420222"><ele>0</ele><time>10.0-454.8999938964844-227.1999969482422T0.0:0:0Z</time></trkpt>
<trkpt lat="45.776584" lon="1.420035"><ele>0</ele><time>17.0880069732666-460.79998779296875-227.1999969482422T0.0:0:0Z</time></trkpt>
<trkpt lat="45.776562" lon="1.419975"><ele>0</ele><time>24.73863410949707-461.29998779296875-227.1999969482422T0.0:0:0Z</time></trkpt>
<trkpt lat="45.776536" lon="1.419953"><ele>0</ele><time>13.416407585144043-473.5-227.1999969482422T0.0:0:0Z</time></trkpt>
<trkpt lat="45.776543" lon="1.419961"><ele>0</ele><time>26.832815170288086-473.3999938964844-44.5T1.25:0:0Z</time></trkpt>
<trkpt lat="45.776599" lon="1.420007"><ele>0</ele><time>14.422204971313477-473.29998779296875-44.5T0.0:0:0Z</time></trkpt>
<trkpt lat="45.776671" lon="1.420075"><ele>0</ele><time>13.416407585144043-468.70001220703125-44.5T0.0:0:0Z</time></trkpt>
<trkpt lat="45.776716" lon="1.420116"><ele>0</ele><time>13.416407585144043-464.6000061035156-44.5T0.0:0:0Z</time></trkpt>
<trkpt lat="45.776759" lon="1.420139"><ele>0</ele><time>10.0-462.29998779296875-44.5T0.0:0:0Z</time></trkpt>
<trkpt lat="45.776807" lon="1.420167"><ele>0</ele><time>10.0-455.20001220703125-44.5T0.0:0:0Z</time></trkpt>
<trkpt lat="45.77685" lon="1.420203"><ele>0</ele><time>5.656854152679443-450.79998779296875-44.5T0.25:0:0Z</time></trkpt>
<trkpt lat="45.77679" lon="1.420206"><ele>0</ele><time>7.211102485656738-449.1000061035156-196.60000610351563T2.5:0:0Z</time></trkpt>
<trkpt lat="45.776724" lon="1.420188"><ele>0</ele><time>7.211102485656738-447.79998779296875-196.6999969482422T3.75:0:0Z</time></trkpt>
<trkpt lat="45.776649" lon="1.420145"><ele>0</ele><time>7.211102485656738-446.6000061035156-203.8000030517578T4.25:0:0Z</time></trkpt>
<trkpt lat="45.776601" lon="1.420105"><ele>0</ele><time>6.7082037925720215-445.5-208.8000030517578T5.024937629699707:0:0Z</time></trkpt>
<trkpt lat="45.776521" lon="1.420052"><ele>0</ele><time>5.0-443.6000061035156-205.89999389648438T5.25:0:0Z</time></trkpt>
<trkpt lat="45.776446" lon="1.420007"><ele>0</ele><time>5.0-442.5-205.8000030517578T5.0:0:0Z</time></trkpt>
<trkpt lat="45.776369" lon="1.419956"><ele>0</ele><time>7.211102485656738-441.70001220703125-205.89999389648438T4.75:0:0Z</time></trkpt>
<trkpt lat="45.776319" lon="1.419926"><ele>0</ele><time>7.211102485656738-441.3999938964844-204.5T5.5:0:0Z</time></trkpt>
<trkpt lat="45.776261" lon="1.419884"><ele>0</ele><time>7.211102485656738-441.79998779296875-204.0T6.5:0:0Z</time></trkpt>
<trkpt lat="45.776203" lon="1.419841"><ele>0</ele><time>7.211102485656738-441.5-205.39999389648438T6.75:0:0Z</time></trkpt>
<trkpt lat="45.776151" lon="1.419805"><ele>0</ele><time>7.211102485656738-441.20001220703125-204.89999389648438T6.75:0:0Z</time></trkpt>
<trkpt lat="45.776094" lon="1.419777"><ele>0</ele><time>7.211102485656738-441.0-200.1999969482422T6.75:0:0Z</time></trkpt>
<trkpt lat="45.77604" lon="1.419746"><ele>0</ele><time>5.656854152679443-440.5-201.6999969482422T6.75:0:0Z</time></trkpt>
<trkpt lat="45.77599" lon="1.419709"><ele>0</ele><time>5.656854152679443-440.1000061035156-204.3000030517578T6.5:0:0Z</time></trkpt>
<trkpt lat="45.775935" lon="1.419673"><ele>0</ele><time>5.0-440.29998779296875-205.60000610351563T6.75:0:0Z</time></trkpt>
<trkpt lat="45.77588" lon="1.419633"><ele>0</ele><time>4.242640495300293-439.8999938964844-205.1999969482422T6.75:0:0Z</time></trkpt>
<trkpt lat="45.775822" lon="1.419595"><ele>0</ele><time>4.242640495300293-439.3999938964844-204.3000030517578T6.75:0:0Z</time></trkpt>
<trkpt lat="45.775767" lon="1.419559"><ele>0</ele><time>4.242640495300293-438.6000061035156-204.10000610351563T6.75:0:0Z</time></trkpt>
<trkpt lat="45.775716" lon="1.419524"><ele>0</ele><time>3.605551242828369-438.8999938964844-205.3000030517578T6.5:0:0Z</time></trkpt>
<trkpt lat="45.775661" lon="1.419493"><ele>0</ele><time>3.605551242828369-439.1000061035156-204.60000610351563T6.5:0:0Z</time></trkpt>
<trkpt lat="45.775608" lon="1.419456"><ele>0</ele><time>3.605551242828369-439.5-207.5T6.25:0:0Z</time></trkpt>
<trkpt lat="45.775561" lon="1.419418"><ele>0</ele><time>3.605551242828369-439.79998779296875-208.39999389648438T6.0:0:0Z</time></trkpt>
<trkpt lat="45.775513" lon="1.41938"><ele>0</ele><time>3.605551242828369-439.70001220703125-209.0T6.0:0:0Z</time></trkpt>
<trkpt lat="45.775468" lon="1.419345"><ele>0</ele><time>4.4721360206604-439.70001220703125-208.89999389648438T5.75:0:0Z</time></trkpt>
<trkpt lat="45.775428" lon="1.4193"><ele>0</ele><time>4.4721360206604-439.29998779296875-213.5T5.5:0:0Z</time></trkpt>
<trkpt lat="45.775386" lon="1.41927"><ele>0</ele><time>3.605551242828369-439.5-211.1999969482422T5.25:0:0Z</time></trkpt>
<trkpt lat="45.775347" lon="1.419229"><ele>0</ele><time>3.605551242828369-439.29998779296875-214.8000030517578T5.25:0:0Z</time></trkpt>
<trkpt lat="45.775309" lon="1.419191"><ele>0</ele><time>3.605551242828369-438.8999938964844-216.10000610351563T5.0:0:0Z</time></trkpt>
<trkpt lat="45.775253" lon="1.419101"><ele>0</ele><time>3.605551242828369-438.79998779296875-226.60000610351563T4.75:0:0Z</time></trkpt>
<trkpt lat="45.775195" lon="1.419045"><ele>0</ele><time>2.8284270763397217-439.0-215.0T4.25:0:0Z</time></trkpt>
<trkpt lat="45.775142" lon="1.418956"><ele>0</ele><time>2.8284270763397217-438.5-220.8000030517578T4.25:0:0Z</time></trkpt>
<trkpt lat="45.775082" lon="1.418912"><ele>0</ele><time>2.8284270763397217-438.3999938964844-218.8000030517578T3.75:0:0Z</time></trkpt>
<trkpt lat="45.775035" lon="1.418842"><ele>0</ele><time>2.8284270763397217-437.70001220703125-216.60000610351563T4.0:0:0Z</time></trkpt>
<trkpt lat="45.77498" lon="1.418772"><ele>0</ele><time>2.8284270763397217-437.6000061035156-218.89999389648438T4.0:0:0Z</time></trkpt>
<trkpt lat="45.77492" lon="1.418704"><ele>0</ele><time>2.8284270763397217-436.79998779296875-218.3000030517578T4.527692794799805:0:0Z</time></trkpt>
<trkpt lat="45.774883" lon="1.418662"><ele>0</ele><time>2.8284270763397217-437.0-217.6999969482422T5.0:0:0Z</time></trkpt>
<trkpt lat="45.774812" lon="1.418588"><ele>0</ele><time>2.8284270763397217-437.1000061035156-218.6999969482422T5.0:0:0Z</time></trkpt>
<trkpt lat="45.774774" lon="1.418545"><ele>0</ele><time>2.8284270763397217-436.70001220703125-218.1999969482422T5.25:0:0Z</time></trkpt>
<trkpt lat="45.774735" lon="1.418503"><ele>0</ele><time>2.8284270763397217-436.6000061035156-216.6999969482422T5.5:0:0Z</time></trkpt>
<trkpt lat="45.774694" lon="1.418452"><ele>0</ele><time>2.8284270763397217-436.5-219.10000610351563T5.5:0:0Z</time></trkpt>
<trkpt lat="45.774655" lon="1.418406"><ele>0</ele><time>2.8284270763397217-436.6000061035156-219.89999389648438T5.5:0:0Z</time></trkpt>
<trkpt lat="45.774617" lon="1.41837"><ele>0</ele><time>2.8284270763397217-436.79998779296875-217.60000610351563T5.5:0:0Z</time></trkpt>
<trkpt lat="45.77458" lon="1.418325"><ele>0</ele><time>2.8284270763397217-437.1000061035156-217.60000610351563T5.25:0:0Z</time></trkpt>
<trkpt lat="45.774537" lon="1.418282"><ele>0</ele><time>2.8284270763397217-437.29998779296875-215.89999389648438T5.5:0:0Z</time></trkpt>
<trkpt lat="45.774496" lon="1.418242"><ele>0</ele><time>2.8284270763397217-437.20001220703125-215.8000030517578T5.5:0:0Z</time></trkpt>
<trkpt lat="45.774459" lon="1.418203"><ele>0</ele><time>2.8284270763397217-437.3999938964844-216.39999389648438T5.5:0:0Z</time></trkpt>
<trkpt lat="45.774421" lon="1.418158"><ele>0</ele><time>2.8284270763397217-436.79998779296875-218.0T5.5:0:0Z</time></trkpt>
<trkpt lat="45.774385" lon="1.418115"><ele>0</ele><time>2.8284270763397217-436.70001220703125-217.1999969482422T5.5:0:0Z</time></trkpt>
<trkpt lat="45.774344" lon="1.418068"><ele>0</ele><time>2.8284270763397217-436.6000061035156-217.0T5.75:0:0Z</time></trkpt>
<trkpt lat="45.774304" lon="1.418031"><ele>0</ele><time>2.8284270763397217-436.3999938964844-216.10000610351563T5.75:0:0Z</time></trkpt>
<trkpt lat="45.774262" lon="1.417993"><ele>0</ele><time>2.8284270763397217-436.3999938964844-214.60000610351563T5.75:0:0Z</time></trkpt>
<trkpt lat="45.774217" lon="1.417956"><ele>0</ele><time>2.8284270763397217-436.3999938964844-211.89999389648438T5.75:0:0Z</time></trkpt>
<trkpt lat="45.774173" lon="1.417921"><ele>0</ele><time>2.8284270763397217-436.5-211.89999389648438T5.75:0:0Z</time></trkpt>
<trkpt lat="45.774123" lon="1.417891"><ele>0</ele><time>2.8284270763397217-436.8999938964844-206.3000030517578T5.522680282592773:0:0Z</time></trkpt>
<trkpt lat="45.77408" lon="1.417855"><ele>0</ele><time>2.8284270763397217-437.20001220703125-214.89999389648438T5.771697998046875:0:0Z</time></trkpt>
<trkpt lat="45.774039" lon="1.417816"><ele>0</ele><time>3.605551242828369-437.0-214.1999969482422T5.5:0:0Z</time></trkpt>
<trkpt lat="45.773999" lon="1.417776"><ele>0</ele><time>3.605551242828369-437.1000061035156-213.8000030517578T5.5:0:0Z</time></trkpt>
<trkpt lat="45.773954" lon="1.417751"><ele>0</ele><time>3.605551242828369-436.8999938964844-209.10000610351563T5.5:0:0Z</time></trkpt>
<trkpt lat="45.773902" lon="1.417713"><ele>0</ele><time>3.605551242828369-437.20001220703125-207.6999969482422T6.0:0:0Z</time></trkpt>
<trkpt lat="45.773847" lon="1.417675"><ele>0</ele><time>4.4721360206604-437.70001220703125-206.89999389648438T6.0:0:0Z</time></trkpt>
<trkpt lat="45.773794" lon="1.41764"><ele>0</ele><time>4.4721360206604-438.0-205.8000030517578T6.25:0:0Z</time></trkpt>
<trkpt lat="45.773747" lon="1.417611"><ele>0</ele><time>6.324555397033691-437.79998779296875-204.5T6.0:0:0Z</time></trkpt>
<trkpt lat="45.773705" lon="1.417569"><ele>0</ele><time>6.324555397033691-438.0-208.5T5.75:0:0Z</time></trkpt>
<trkpt lat="45.773659" lon="1.41754"><ele>0</ele><time>8.246211051940918-438.29998779296875-207.6999969482422T5.5:0:0Z</time></trkpt>
<trkpt lat="45.773571" lon="1.417557"><ele>0</ele><time>12.165525436401367-438.8999938964844-198.0T4.5:0:0Z</time></trkpt>
<trkpt lat="45.773531" lon="1.417597"><ele>0</ele><time>12.369317054748535-439.20001220703125-190.6999969482422T4.0:0:0Z</time></trkpt>
<trkpt lat="45.773474" lon="1.417576"><ele>0</ele><time>12.649110794067383-439.3999938964844-197.1999969482422T3.0:0:0Z</time></trkpt>
<trkpt lat="45.773488" lon="1.417471"><ele>0</ele><time>12.649110794067383-439.0-236.1999969482422T2.5:0:0Z</time></trkpt>
<trkpt lat="45.773479" lon="1.417364"><ele>0</ele><time>13.416407585144043-439.3999938964844-251.3000030517578T3.0:0:0Z</time></trkpt>
<trkpt lat="45.773471" lon="1.417297"><ele>0</ele><time>13.416407585144043-439.1000061035156-252.1999969482422T3.25:0:0Z</time></trkpt>
<trkpt lat="45.773473" lon="1.41723"><ele>0</ele><time>13.416407585144043-438.79998779296875-258.1000061035156T3.5:0:0Z</time></trkpt>
<trkpt lat="45.773453" lon="1.417149"><ele>0</ele><time>14.422204971313477-441.20001220703125-250.6999969482422T3.041381359100342:0:0Z</time></trkpt>
<trkpt lat="45.773409" lon="1.417046"><ele>0</ele><time>10.0-443.5-242.10000610351563T3.783186435699463:0:0Z</time></trkpt>
<trkpt lat="45.773376" lon="1.416936"><ele>0</ele><time>13.416407585144043-443.0-238.5T3.783186435699463:0:0Z</time></trkpt>
<trkpt lat="45.773354" lon="1.416859"><ele>0</ele><time>10.0-442.5-234.5T4.527692794799805:0:0Z</time></trkpt>
<trkpt lat="45.773317" lon="1.416752"><ele>0</ele><time>11.313708305358887-442.29998779296875-236.39999389648438T4.0:0:0Z</time></trkpt>
<trkpt lat="45.773292" lon="1.416674"><ele>0</ele><time>14.422204971313477-443.0-240.89999389648438T3.25:0:0Z</time></trkpt>
<trkpt lat="45.773264" lon="1.416543"><ele>0</ele><time>16.970561981201172-443.6000061035156-246.1999969482422T3.75:0:0Z</time></trkpt>
<trkpt lat="45.773252" lon="1.41648"><ele>0</ele><time>16.970561981201172-444.3999938964844-247.3000030517578T4.0:0:0Z</time></trkpt>
<trkpt lat="45.773214" lon="1.416426"><ele>0</ele><time>14.422204971313477-445.8999938964844-234.89999389648438T3.288236618041992:0:0Z</time></trkpt>
<trkpt lat="45.773129" lon="1.416506"><ele>0</ele><time>14.422204971313477-446.1000061035156-173.8000030517578T4.5:0:0Z</time></trkpt>
<trkpt lat="45.77305" lon="1.416462"><ele>0</ele><time>13.416407585144043-447.3999938964844-181.0T4.5:0:0Z</time></trkpt>
<trkpt lat="45.773004" lon="1.416434"><ele>0</ele><time>13.416407585144043-447.70001220703125-186.3000030517578T4.75:0:0Z</time></trkpt>
<trkpt lat="45.772961" lon="1.416406"><ele>0</ele><time>13.416407585144043-447.3999938964844-187.5T4.75:0:0Z</time></trkpt>
<trkpt lat="45.772943" lon="1.416323"><ele>0</ele><time>14.422204971313477-447.3999938964844-207.1999969482422T3.25:0:0Z</time></trkpt>
<trkpt lat="45.772907" lon="1.41627"><ele>0</ele><time>17.8885440826416-448.79998779296875-206.0T2.75:0:0Z</time></trkpt>
<trkpt lat="45.772876" lon="1.416188"><ele>0</ele><time>20.0-449.0-213.8000030517578T3.0:0:0Z</time></trkpt>
<trkpt lat="45.772851" lon="1.416071"><ele>0</ele><time>20.0-450.1000061035156-216.39999389648438T2.5495097637176514:0:0Z</time></trkpt>
<trkpt lat="45.772835" lon="1.415977"><ele>0</ele><time>20.0-450.20001220703125-224.1999969482422T3.041381359100342:0:0Z</time></trkpt>
<trkpt lat="45.772804" lon="1.415896"><ele>0</ele><time>17.8885440826416-450.79998779296875-226.8000030517578T3.783186435699463:0:0Z</time></trkpt>
<trkpt lat="45.7728" lon="1.415826"><ele>0</ele><time>17.8885440826416-450.79998779296875-228.6999969482422T3.288236618041992:0:0Z</time></trkpt>
<trkpt lat="45.772783" lon="1.415741"><ele>0</ele><time>17.8885440826416-450.3999938964844-232.10000610351563T3.75:0:0Z</time></trkpt>
<trkpt lat="45.772771" lon="1.41567"><ele>0</ele><time>17.8885440826416-450.3999938964844-232.6999969482422T3.75:0:0Z</time></trkpt>
<trkpt lat="45.77275" lon="1.415608"><ele>0</ele><time>17.8885440826416-450.1000061035156-226.89999389648438T3.75:0:0Z</time></trkpt>
<trkpt lat="45.772751" lon="1.415521"><ele>0</ele><time>17.8885440826416-449.79998779296875-235.1999969482422T3.75:0:0Z</time></trkpt>
<trkpt lat="45.772741" lon="1.415426"><ele>0</ele><time>17.8885440826416-450.0-238.0T4.25:0:0Z</time></trkpt>
<trkpt lat="45.772721" lon="1.41536"><ele>0</ele><time>20.0-449.8999938964844-239.6999969482422T4.5:0:0Z</time></trkpt>
<trkpt lat="45.772684" lon="1.415306"><ele>0</ele><time>16.970561981201172-449.6000061035156-233.39999389648438T4.75:0:0Z</time></trkpt>
<trkpt lat="45.772627" lon="1.415268"><ele>0</ele><time>16.970561981201172-449.79998779296875-214.3000030517578T4.25:0:0Z</time></trkpt>
<trkpt lat="45.77258" lon="1.415233"><ele>0</ele><time>16.970561981201172-449.20001220703125-211.60000610351563T4.75:0:0Z</time></trkpt>
<trkpt lat="45.772543" lon="1.415176"><ele>0</ele><time>16.970561981201172-449.0-214.0T4.75:0:0Z</time></trkpt>
<trkpt lat="45.772502" lon="1.41514"><ele>0</ele><time>16.970561981201172-449.0-212.0T5.0:0:0Z</time></trkpt>
<trkpt lat="45.772457" lon="1.415097"><ele>0</ele><time>20.0-448.70001220703125-212.0T5.25:0:0Z</time></trkpt>
<trkpt lat="45.772408" lon="1.415059"><ele>0</ele><time>20.0-448.1000061035156-209.89999389648438T5.5:0:0Z</time></trkpt>
<trkpt lat="45.772361" lon="1.414991"><ele>0</ele><time>20.0-447.8999938964844-212.89999389648438T5.75:0:0Z</time></trkpt>
<trkpt lat="45.772291" lon="1.414939"><ele>0</ele><time>20.0-448.6000061035156-211.5T6.25:0:0Z</time></trkpt>
<trkpt lat="45.772237" lon="1.414896"><ele>0</ele><time>17.8885440826416-448.6000061035156-212.0T6.25:0:0Z</time></trkpt>
<trkpt lat="45.772236" lon="1.414803"><ele>0</ele><time>14.422204971313477-444.20001220703125-214.60000610351563T4.279310703277588:0:0Z</time></trkpt>
<trkpt lat="45.772211" lon="1.414663"><ele>0</ele><time>14.422204971313477-441.29998779296875-223.3000030517578T4.75:0:0Z</time></trkpt>
<trkpt lat="45.772201" lon="1.414527"><ele>0</ele><time>13.416407585144043-438.0-225.3000030517578T5.0:0:0Z</time></trkpt>
<trkpt lat="45.772187" lon="1.414456"><ele>0</ele><time>13.416407585144043-435.29998779296875-231.3000030517578T5.0:0:0Z</time></trkpt>
<trkpt lat="45.772147" lon="1.414317"><ele>0</ele><time>13.416407585144043-433.1000061035156-240.1999969482422T5.0:0:0Z</time></trkpt>
<trkpt lat="45.772104" lon="1.414213"><ele>0</ele><time>14.422204971313477-433.8999938964844-240.89999389648438T4.0:0:0Z</time></trkpt>
<trkpt lat="45.772057" lon="1.414096"><ele>0</ele><time>14.422204971313477-433.20001220703125-238.39999389648438T4.25:0:0Z</time></trkpt>
<trkpt lat="45.772033" lon="1.414021"><ele>0</ele><time>14.422204971313477-432.79998779296875-240.1999969482422T4.75:0:0Z</time></trkpt>
<trkpt lat="45.771999" lon="1.413967"><ele>0</ele><time>14.422204971313477-433.70001220703125-233.1999969482422T4.5:0:0Z</time></trkpt>
<trkpt lat="45.771958" lon="1.413851"><ele>0</ele><time>11.313708305358887-432.20001220703125-229.0T4.25:0:0Z</time></trkpt>
<trkpt lat="45.771925" lon="1.413797"><ele>0</ele><time>11.313708305358887-431.29998779296875-225.39999389648438T4.5:0:0Z</time></trkpt>
<trkpt lat="45.771872" lon="1.413757"><ele>0</ele><time>11.313708305358887-430.3999938964844-213.8000030517578T5.0:0:0Z</time></trkpt>
<trkpt lat="45.771819" lon="1.413744"><ele>0</ele><time>14.422204971313477-429.20001220703125-196.0T5.0:0:0Z</time></trkpt>
<trkpt lat="45.77176" lon="1.413723"><ele>0</ele><time>13.416407585144043-428.29998779296875-198.3000030517578T5.5:0:0Z</time></trkpt>
<trkpt lat="45.771711" lon="1.413688"><ele>0</ele><time>13.416407585144043-428.29998779296875-202.3000030517578T5.5:0:0Z</time></trkpt>
<trkpt lat="45.771654" lon="1.413654"><ele>0</ele><time>13.416407585144043-428.5-202.39999389648438T5.75:0:0Z</time></trkpt>
<trkpt lat="45.771584" lon="1.413597"><ele>0</ele><time>13.416407585144043-427.29998779296875-207.8000030517578T5.0:0:0Z</time></trkpt>
<trkpt lat="45.771535" lon="1.41356"><ele>0</ele><time>13.416407585144043-427.20001220703125-204.3000030517578T5.024937629699707:0:0Z</time></trkpt>
<trkpt lat="45.771449" lon="1.413482"><ele>0</ele><time>10.0-428.70001220703125-206.3000030517578T4.776243209838867:0:0Z</time></trkpt>
<trkpt lat="45.771364" lon="1.413407"><ele>0</ele><time>10.0-428.8999938964844-207.6999969482422T4.75:0:0Z</time></trkpt>
<trkpt lat="45.771328" lon="1.413365"><ele>0</ele><time>10.0-428.29998779296875-212.8000030517578T4.75:0:0Z</time></trkpt>
<trkpt lat="45.771287" lon="1.413327"><ele>0</ele><time>10.0-428.0-211.89999389648438T4.75:0:0Z</time></trkpt>
<trkpt lat="45.771243" lon="1.413286"><ele>0</ele><time>8.485280990600586-428.0-212.0T5.0:0:0Z</time></trkpt>
<trkpt lat="45.77116" lon="1.413238"><ele>0</ele><time>7.211102485656738-427.20001220703125-205.10000610351563T5.0:0:0Z</time></trkpt>
<trkpt lat="45.771124" lon="1.413192"><ele>0</ele><time>6.7082037925720215-427.29998779296875-214.60000610351563T4.75:0:0Z</time></trkpt>
<trkpt lat="45.771061" lon="1.413075"><ele>0</ele><time>5.0-426.29998779296875-234.10000610351563T5.024937629699707:0:0Z</time></trkpt>
<trkpt lat="45.771027" lon="1.413018"><ele>0</ele><time>3.605551242828369-426.0-229.8000030517578T5.2737555503845215:0:0Z</time></trkpt>
<trkpt lat="45.770994" lon="1.412968"><ele>0</ele><time>3.605551242828369-426.5-226.1999969482422T5.25:0:0Z</time></trkpt>
<trkpt lat="45.770961" lon="1.412918"><ele>0</ele><time>2.8284270763397217-426.6000061035156-226.5T5.25:0:0Z</time></trkpt>
<trkpt lat="45.770922" lon="1.412863"><ele>0</ele><time>3.605551242828369-427.0-224.89999389648438T5.5:0:0Z</time></trkpt>
<trkpt lat="45.770853" lon="1.412803"><ele>0</ele><time>2.8284270763397217-427.8999938964844-218.89999389648438T4.279310703277588:0:0Z</time></trkpt>
<trkpt lat="45.770838" lon="1.412722"><ele>0</ele><time>2.8284270763397217-427.20001220703125-267.6000061035156T2.0:0:0Z</time></trkpt>
<trkpt lat="45.770856" lon="1.412638"><ele>0</ele><time>2.8284270763397217-427.0-284.0T3.0:0:0Z</time></trkpt>
<trkpt lat="45.770871" lon="1.412557"><ele>0</ele><time>3.605551242828369-427.70001220703125-283.6000061035156T3.0:0:0Z</time></trkpt>
<trkpt lat="45.770898" lon="1.412478"><ele>0</ele><time>3.605551242828369-427.20001220703125-289.3999938964844T3.25:0:0Z</time></trkpt>
<trkpt lat="45.770929" lon="1.412397"><ele>0</ele><time>3.605551242828369-426.8999938964844-293.3999938964844T3.5:0:0Z</time></trkpt>
<trkpt lat="45.770957" lon="1.412318"><ele>0</ele><time>3.605551242828369-426.20001220703125-292.8999938964844T3.5:0:0Z</time></trkpt>
<trkpt lat="45.77095" lon="1.412212"><ele>0</ele><time>3.605551242828369-426.5-267.79998779296875T3.783186435699463:0:0Z</time></trkpt>
<trkpt lat="45.77092" lon="1.412117"><ele>0</ele><time>2.8284270763397217-427.20001220703125-243.8000030517578T3.75:0:0Z</time></trkpt>
<trkpt lat="45.770861" lon="1.412084"><ele>0</ele><time>2.8284270763397217-426.6000061035156-210.8000030517578T4.25:0:0Z</time></trkpt>
<trkpt lat="45.770793" lon="1.412031"><ele>0</ele><time>2.8284270763397217-425.3999938964844-210.1999969482422T4.5:0:0Z</time></trkpt>
<trkpt lat="45.770719" lon="1.41197"><ele>0</ele><time>2.8284270763397217-426.1000061035156-209.1999969482422T4.5:0:0Z</time></trkpt>
<trkpt lat="45.770653" lon="1.411917"><ele>0</ele><time>4.4721360206604-426.20001220703125-209.0T4.25:0:0Z</time></trkpt>
<trkpt lat="45.77058" lon="1.411872"><ele>0</ele><time>3.605551242828369-426.29998779296875-207.0T4.25:0:0Z</time></trkpt>
<trkpt lat="45.770502" lon="1.411805"><ele>0</ele><time>2.8284270763397217-425.70001220703125-213.10000610351563T4.75:0:0Z</time></trkpt>
<trkpt lat="45.77046" lon="1.411774"><ele>0</ele><time>2.8284270763397217-425.0-210.39999389648438T5.2737555503845215:0:0Z</time></trkpt>
<trkpt lat="45.770414" lon="1.411745"><ele>0</ele><time>2.8284270763397217-424.70001220703125-208.60000610351563T5.5:0:0Z</time></trkpt>
<trkpt lat="45.770355" lon="1.411722"><ele>0</ele><time>2.8284270763397217-424.6000061035156-198.8000030517578T6.5:0:0Z</time></trkpt>
<trkpt lat="45.770283" lon="1.411715"><ele>0</ele><time>2.8284270763397217-424.29998779296875-190.3000030517578T7.25:0:0Z</time></trkpt>
<trkpt lat="45.770218" lon="1.411713"><ele>0</ele><time>2.8284270763397217-424.3999938964844-182.6999969482422T7.0:0:0Z</time></trkpt>
<trkpt lat="45.770155" lon="1.411727"><ele>0</ele><time>2.8284270763397217-424.29998779296875-176.0T7.0:0:0Z</time></trkpt>
<trkpt lat="45.770107" lon="1.411733"><ele>0</ele><time>2.8284270763397217-424.3999938964844-174.39999389648438T5.75:0:0Z</time></trkpt>
<trkpt lat="45.77005" lon="1.411702"><ele>0</ele><time>4.4721360206604-423.70001220703125-193.10000610351563T3.5:0:0Z</time></trkpt>
<trkpt lat="45.770016" lon="1.411615"><ele>0</ele><time>5.0-423.6000061035156-228.1999969482422T3.25:0:0Z</time></trkpt>
<trkpt lat="45.769981" lon="1.411515"><ele>0</ele><time>7.211102485656738-422.8999938964844-241.1999969482422T3.75:0:0Z</time></trkpt>
<trkpt lat="45.769929" lon="1.411363"><ele>0</ele><time>7.211102485656738-421.6000061035156-244.60000610351563T4.25:0:0Z</time></trkpt>
<trkpt lat="45.769904" lon="1.411253"><ele>0</ele><time>5.0-421.3999938964844-247.8000030517578T4.5:0:0Z</time></trkpt>
<trkpt lat="45.769889" lon="1.411192"><ele>0</ele><time>4.242640495300293-421.5-248.3000030517578T4.75:0:0Z</time></trkpt>
<trkpt lat="45.769869" lon="1.411128"><ele>0</ele><time>4.242640495300293-421.20001220703125-246.6999969482422T4.75:0:0Z</time></trkpt>
<trkpt lat="45.769853" lon="1.411064"><ele>0</ele><time>3.605551242828369-421.20001220703125-246.0T4.75:0:0Z</time></trkpt>
<trkpt lat="45.769834" lon="1.411004"><ele>0</ele><time>2.8284270763397217-421.1000061035156-245.1999969482422T4.75:0:0Z</time></trkpt>
<trkpt lat="45.769816" lon="1.410943"><ele>0</ele><time>2.8284270763397217-420.8999938964844-246.5T4.75:0:0Z</time></trkpt>
<trkpt lat="45.769796" lon="1.410839"><ele>0</ele><time>2.8284270763397217-421.79998779296875-250.39999389648438T4.5:0:0Z</time></trkpt>
<trkpt lat="45.76978" lon="1.41072"><ele>0</ele><time>2.8284270763397217-420.5-259.20001220703125T4.776243209838867:0:0Z</time></trkpt>
<trkpt lat="45.76976" lon="1.410617"><ele>0</ele><time>2.8284270763397217-421.3999938964844-255.6999969482422T3.783186435699463:0:0Z</time></trkpt>
<trkpt lat="45.769746" lon="1.410525"><ele>0</ele><time>2.8284270763397217-421.79998779296875-256.3999938964844T3.75:0:0Z</time></trkpt>
<trkpt lat="45.769733" lon="1.410424"><ele>0</ele><time>3.605551242828369-421.8999938964844-257.79998779296875T4.0:0:0Z</time></trkpt>
<trkpt lat="45.769715" lon="1.410314"><ele>0</ele><time>2.8284270763397217-420.70001220703125-257.6000061035156T4.0:0:0Z</time></trkpt>
<trkpt lat="45.769699" lon="1.410216"><ele>0</ele><time>3.605551242828369-420.70001220703125-257.79998779296875T4.0:0:0Z</time></trkpt>
<trkpt lat="45.769689" lon="1.410138"><ele>0</ele><time>3.605551242828369-420.5-252.60000610351563T3.5:0:0Z</time></trkpt>
<trkpt lat="45.76968" lon="1.410034"><ele>0</ele><time>2.8284270763397217-419.79998779296875-255.60000610351563T3.25:0:0Z</time></trkpt>
<trkpt lat="45.769694" lon="1.409939"><ele>0</ele><time>2.8284270763397217-417.8999938964844-278.5T3.288236618041992:0:0Z</time></trkpt>
<trkpt lat="45.769725" lon="1.409852"><ele>0</ele><time>2.8284270763397217-417.70001220703125-292.5T3.0:0:0Z</time></trkpt>
<trkpt lat="45.769757" lon="1.409769"><ele>0</ele><time>2.8284270763397217-417.3999938964844-303.70001220703125T3.25:0:0Z</time></trkpt>
<trkpt lat="45.769792" lon="1.409691"><ele>0</ele><time>2.8284270763397217-417.5-299.1000061035156T3.25:0:0Z</time></trkpt>
<trkpt lat="45.769819" lon="1.40962"><ele>0</ele><time>2.8284270763397217-417.70001220703125-299.20001220703125T3.288236618041992:0:0Z</time></trkpt>
<trkpt lat="45.769854" lon="1.409542"><ele>0</ele><time>2.8284270763397217-417.5-300.20001220703125T3.5:0:0Z</time></trkpt>
<trkpt lat="45.769887" lon="1.40946"><ele>0</ele><time>2.8284270763397217-417.5-300.79998779296875T3.5:0:0Z</time></trkpt>
<trkpt lat="45.769918" lon="1.409386"><ele>0</ele><time>2.8284270763397217-417.5-301.79998779296875T3.5:0:0Z</time></trkpt>
<trkpt lat="45.769949" lon="1.409313"><ele>0</ele><time>2.8284270763397217-417.0-303.0T3.25:0:0Z</time></trkpt>
<trkpt lat="45.769987" lon="1.409232"><ele>0</ele><time>2.8284270763397217-417.0-303.0T3.75:0:0Z</time></trkpt>
<trkpt lat="45.77003" lon="1.409146"><ele>0</ele><time>2.8284270763397217-416.6000061035156-302.0T4.031128883361816:0:0Z</time></trkpt>
<trkpt lat="45.770066" lon="1.409058"><ele>0</ele><time>2.8284270763397217-416.0-301.20001220703125T4.031128883361816:0:0Z</time></trkpt>
<trkpt lat="45.770102" lon="1.408952"><ele>0</ele><time>2.8284270763397217-416.0-295.79998779296875T4.5:0:0Z</time></trkpt>
<trkpt lat="45.770115" lon="1.408844"><ele>0</ele><time>3.605551242828369-416.0-284.79998779296875T4.25:0:0Z</time></trkpt>
<trkpt lat="45.770119" lon="1.408733"><ele>0</ele><time>3.605551242828369-417.0-274.8999938964844T4.25:0:0Z</time></trkpt>
<trkpt lat="45.770114" lon="1.408605"><ele>0</ele><time>2.8284270763397217-417.8999938964844-265.3999938964844T4.527692794799805:0:0Z</time></trkpt>
<trkpt lat="45.770072" lon="1.40846"><ele>0</ele><time>2.8284270763397217-417.79998779296875-239.5T4.25:0:0Z</time></trkpt>
<trkpt lat="45.770004" lon="1.408392"><ele>0</ele><time>3.605551242828369-417.5-224.39999389648438T4.25:0:0Z</time></trkpt>
<trkpt lat="45.769945" lon="1.408331"><ele>0</ele><time>3.605551242828369-417.20001220703125-222.39999389648438T4.0:0:0Z</time></trkpt>
<trkpt lat="45.769901" lon="1.408312"><ele>0</ele><time>3.605551242828369-418.70001220703125-215.10000610351563T4.031128883361816:0:0Z</time></trkpt>
<trkpt lat="45.769843" lon="1.408252"><ele>0</ele><time>3.605551242828369-419.5-217.5T4.031128883361816:0:0Z</time></trkpt>
<trkpt lat="45.769812" lon="1.408174"><ele>0</ele><time>5.0-420.29998779296875-237.3000030517578T3.535533905029297:0:0Z</time></trkpt>
<trkpt lat="45.769809" lon="1.408053"><ele>0</ele><time>5.656854152679443-420.5-256.8999938964844T3.75:0:0Z</time></trkpt>
<trkpt lat="45.769787" lon="1.407907"><ele>0</ele><time>6.7082037925720215-419.8999938964844-255.6999969482422T4.75:0:0Z</time></trkpt>
<trkpt lat="45.769765" lon="1.407819"><ele>0</ele><time>6.7082037925720215-420.1000061035156-253.10000610351563T5.75:0:0Z</time></trkpt>
<trkpt lat="45.76975" lon="1.407722"><ele>0</ele><time>6.7082037925720215-420.1000061035156-251.39999389648438T6.75:0:0Z</time></trkpt>
<trkpt lat="45.769729" lon="1.407629"><ele>0</ele><time>6.7082037925720215-419.8999938964844-248.60000610351563T6.75:0:0Z</time></trkpt>
<trkpt lat="45.769716" lon="1.407541"><ele>0</ele><time>6.7082037925720215-420.5-243.5T7.0:0:0Z</time></trkpt>
<trkpt lat="45.769707" lon="1.407445"><ele>0</ele><time>5.0-418.3999938964844-238.60000610351563T5.75:0:0Z</time></trkpt>
<trkpt lat="45.769705" lon="1.407344"><ele>0</ele><time>5.0-416.3999938964844-246.60000610351563T6.0:0:0Z</time></trkpt>
<trkpt lat="45.769707" lon="1.407267"><ele>0</ele><time>5.0-415.70001220703125-258.8999938964844T5.75:0:0Z</time></trkpt>
<trkpt lat="45.769709" lon="1.40717"><ele>0</ele><time>5.0-415.5-266.8999938964844T6.5:0:0Z</time></trkpt>
<trkpt lat="45.769709" lon="1.407065"><ele>0</ele><time>6.7082037925720215-414.70001220703125-266.70001220703125T7.0:0:0Z</time></trkpt>
<trkpt lat="45.769701" lon="1.406964"><ele>0</ele><time>6.7082037925720215-414.1000061035156-263.20001220703125T7.25:0:0Z</time></trkpt>
<trkpt lat="45.769698" lon="1.406863"><ele>0</ele><time>8.5440034866333-413.6000061035156-265.70001220703125T7.5:0:0Z</time></trkpt>
<trkpt lat="45.769697" lon="1.406763"><ele>0</ele><time>12.369317054748535-413.5-266.8999938964844T7.5:0:0Z</time></trkpt>
<trkpt lat="45.769695" lon="1.406672"><ele>0</ele><time>12.369317054748535-413.3999938964844-266.5T7.5:0:0Z</time></trkpt>
<trkpt lat="45.769826" lon="1.406656"><ele>0</ele><time>6.324555397033691-412.1000061035156-284.29998779296875T7.017834186553955:0:0Z</time></trkpt>
<trkpt lat="45.769849" lon="1.406566"><ele>0</ele><time>4.4721360206604-411.29998779296875-283.29998779296875T6.768493175506592:0:0Z</time></trkpt>
<trkpt lat="45.769872" lon="1.406491"><ele>0</ele><time>4.4721360206604-409.70001220703125-284.8999938964844T6.576473236083984:0:0Z</time></trkpt>
<trkpt lat="45.769894" lon="1.406415"><ele>0</ele><time>3.605551242828369-408.8999938964844-284.20001220703125T6.51920223236084:0:0Z</time></trkpt>
<trkpt lat="45.769913" lon="1.406315"><ele>0</ele><time>4.4721360206604-408.3999938964844-284.8999938964844T7.267220973968506:0:0Z</time></trkpt>
<trkpt lat="45.769925" lon="1.406226"><ele>0</ele><time>4.4721360206604-408.6000061035156-283.6000061035156T7.25:0:0Z</time></trkpt>
<trkpt lat="45.769971" lon="1.406162"><ele>0</ele><time>3.605551242828369-407.70001220703125-295.3999938964844T6.5:0:0Z</time></trkpt>
<trkpt lat="45.769983" lon="1.406026"><ele>0</ele><time>4.242640495300293-407.20001220703125-278.5T5.5:0:0Z</time></trkpt>
<trkpt lat="45.769941" lon="1.405953"><ele>0</ele><time>4.242640495300293-406.3999938964844-241.3000030517578T6.020797252655029:0:0Z</time></trkpt>
<trkpt lat="45.7699" lon="1.405865"><ele>0</ele><time>3.605551242828369-405.8999938964844-235.5T8.514693260192871:0:0Z</time></trkpt>
<trkpt lat="45.769861" lon="1.405789"><ele>0</ele><time>3.605551242828369-405.70001220703125-233.10000610351563T8.0:0:0Z</time></trkpt>
<trkpt lat="45.769818" lon="1.405721"><ele>0</ele><time>3.605551242828369-405.1000061035156-230.6999969482422T7.75:0:0Z</time></trkpt>
<trkpt lat="45.769774" lon="1.405634"><ele>0</ele><time>5.0-404.6000061035156-234.60000610351563T8.015609741210938:0:0Z</time></trkpt>
<trkpt lat="45.76971" lon="1.405568"><ele>0</ele><time>8.485280990600586-404.0-221.60000610351563T4.75:0:0Z</time></trkpt>
<trkpt lat="45.769639" lon="1.405528"><ele>0</ele><time>10.0-404.29998779296875-208.5T4.5:0:0Z</time></trkpt>
<trkpt lat="45.769593" lon="1.405471"><ele>0</ele><time>10.0-404.3999938964844-213.5T5.75:0:0Z</time></trkpt>
<trkpt lat="45.769552" lon="1.405361"><ele>0</ele><time>11.313708305358887-404.6000061035156-224.60000610351563T7.0:0:0Z</time></trkpt>
<trkpt lat="45.769529" lon="1.405216"><ele>0</ele><time>11.313708305358887-403.1000061035156-237.6999969482422T7.5:0:0Z</time></trkpt>
<trkpt lat="45.769476" lon="1.405122"><ele>0</ele><time>14.422204971313477-403.29998779296875-232.6999969482422T8.25:0:0Z</time></trkpt>
<trkpt lat="45.769436" lon="1.404995"><ele>0</ele><time>14.422204971313477-401.5-233.0T8.25:0:0Z</time></trkpt>
<trkpt lat="45.769396" lon="1.404879"><ele>0</ele><time>14.422204971313477-399.70001220703125-232.0T8.5:0:0Z</time></trkpt>
<trkpt lat="45.769382" lon="1.404773"><ele>0</ele><time>14.422204971313477-395.70001220703125-235.8000030517578T8.0:0:0Z</time></trkpt>
<trkpt lat="45.769343" lon="1.404684"><ele>0</ele><time>13.416407585144043-393.8999938964844-235.60000610351563T8.0:0:0Z</time></trkpt>
<trkpt lat="45.769305" lon="1.404615"><ele>0</ele><time>13.416407585144043-391.20001220703125-239.6999969482422T7.31864070892334:0:0Z</time></trkpt>
<trkpt lat="45.769272" lon="1.404536"><ele>0</ele><time>13.416407585144043-389.3999938964844-240.89999389648438T6.768493175506592:0:0Z</time></trkpt>
<trkpt lat="45.769257" lon="1.404452"><ele>0</ele><time>13.416407585144043-388.79998779296875-249.60000610351563T6.75:0:0Z</time></trkpt>
<trkpt lat="45.769244" lon="1.404376"><ele>0</ele><time>13.416407585144043-387.8999938964844-248.5T6.25:0:0Z</time></trkpt>
<trkpt lat="45.769214" lon="1.404306"><ele>0</ele><time>14.422204971313477-387.3999938964844-244.0T6.25:0:0Z</time></trkpt>
<trkpt lat="45.769183" lon="1.404197"><ele>0</ele><time>13.416407585144043-385.70001220703125-250.8000030517578T3.75:0:0Z</time></trkpt>
<trkpt lat="45.769158" lon="1.404091"><ele>0</ele><time>10.0-384.5-250.8000030517578T3.75:0:0Z</time></trkpt>
<trkpt lat="45.769133" lon="1.404032"><ele>0</ele><time>10.0-384.3999938964844-242.39999389648438T2.5:0:0Z</time></trkpt>
<trkpt lat="45.769112" lon="1.40397"><ele>0</ele><time>10.0-383.70001220703125-251.6999969482422T2.75:0:0Z</time></trkpt>
<trkpt lat="45.769092" lon="1.403889"><ele>0</ele><time>8.485280990600586-384.29998779296875-249.5T2.75:0:0Z</time></trkpt>
<trkpt lat="45.769068" lon="1.403806"><ele>0</ele><time>8.485280990600586-383.3999938964844-246.60000610351563T2.0:0:0Z</time></trkpt>
<trkpt lat="45.76905" lon="1.403743"><ele>0</ele><time>8.485280990600586-384.20001220703125-249.3000030517578T2.25:0:0Z</time></trkpt>
<trkpt lat="45.769039" lon="1.40367"><ele>0</ele><time>8.485280990600586-384.79998779296875-253.39999389648438T2.0:0:0Z</time></trkpt>
<trkpt lat="45.769043" lon="1.403582"><ele>0</ele><time>8.485280990600586-383.79998779296875-265.1000061035156T2.75:0:0Z</time></trkpt>
<trkpt lat="45.769042" lon="1.403474"><ele>0</ele><time>7.211102485656738-383.79998779296875-258.3999938964844T2.25:0:0Z</time></trkpt>
<trkpt lat="45.769085" lon="1.403428"><ele>0</ele><time>4.242640495300293-384.5-304.70001220703125T1.5:0:0Z</time></trkpt>
<trkpt lat="45.76912" lon="1.40336"><ele>0</ele><time>2.8284270763397217-384.20001220703125-316.6000061035156T2.0:0:0Z</time></trkpt>
<trkpt lat="45.769156" lon="1.403318"><ele>0</ele><time>2.8284270763397217-384.20001220703125-321.20001220703125T2.5:0:0Z</time></trkpt>
<trkpt lat="45.769198" lon="1.403274"><ele>0</ele><time>2.8284270763397217-384.79998779296875-321.3999938964844T2.7950849533081055:0:0Z</time></trkpt>
<trkpt lat="45.769236" lon="1.403227"><ele>0</ele><time>2.8284270763397217-385.6000061035156-320.8999938964844T2.7950849533081055:0:0Z</time></trkpt>
<trkpt lat="45.769278" lon="1.40318"><ele>0</ele><time>2.8284270763397217-386.79998779296875-321.3999938964844T3.041381359100342:0:0Z</time></trkpt>
<trkpt lat="45.769316" lon="1.403142"><ele>0</ele><time>2.8284270763397217-387.1000061035156-320.70001220703125T2.5:0:0Z</time></trkpt>
<trkpt lat="45.769363" lon="1.40308"><ele>0</ele><time>2.8284270763397217-388.1000061035156-318.3999938964844T2.3048861026763916:0:0Z</time></trkpt>
<trkpt lat="45.769403" lon="1.403021"><ele>0</ele><time>2.8284270763397217-388.0-313.8999938964844T1.75:0:0Z</time></trkpt>
<trkpt lat="45.769452" lon="1.402978"><ele>0</ele><time>2.8284270763397217-388.1000061035156-314.20001220703125T2.25:0:0Z</time></trkpt>
<trkpt lat="45.769495" lon="1.402925"><ele>0</ele><time>2.8284270763397217-389.3999938964844-321.20001220703125T2.25:0:0Z</time></trkpt>
<trkpt lat="45.769549" lon="1.402867"><ele>0</ele><time>2.8284270763397217-389.70001220703125-322.79998779296875T2.5:0:0Z</time></trkpt>
<trkpt lat="45.769582" lon="1.402821"><ele>0</ele><time>2.8284270763397217-390.8999938964844-322.1000061035156T2.5495097637176514:0:0Z</time></trkpt>
<trkpt lat="45.769637" lon="1.402768"><ele>0</ele><time>2.8284270763397217-391.20001220703125-325.29998779296875T2.5:0:0Z</time></trkpt>
<trkpt lat="45.769676" lon="1.40273"><ele>0</ele><time>2.8284270763397217-390.79998779296875-324.0T2.75:0:0Z</time></trkpt>
<trkpt lat="45.769731" lon="1.402662"><ele>0</ele><time>2.8284270763397217-390.20001220703125-321.3999938964844T2.75:0:0Z</time></trkpt>
<trkpt lat="45.769773" lon="1.402618"><ele>0</ele><time>2.8284270763397217-390.5-322.1000061035156T2.75:0:0Z</time></trkpt>
<trkpt lat="45.769812" lon="1.402568"><ele>0</ele><time>2.8284270763397217-390.20001220703125-322.20001220703125T2.75:0:0Z</time></trkpt>
<trkpt lat="45.769856" lon="1.402517"><ele>0</ele><time>2.8284270763397217-390.6000061035156-320.1000061035156T3.25:0:0Z</time></trkpt>
<trkpt lat="45.7699" lon="1.40247"><ele>0</ele><time>2.8284270763397217-390.8999938964844-320.8999938964844T3.0:0:0Z</time></trkpt>
<trkpt lat="45.769943" lon="1.402422"><ele>0</ele><time>2.8284270763397217-391.1000061035156-320.8999938964844T3.0:0:0Z</time></trkpt>
<trkpt lat="45.769984" lon="1.402375"><ele>0</ele><time>2.8284270763397217-391.1000061035156-321.29998779296875T3.0:0:0Z</time></trkpt>
<trkpt lat="45.770028" lon="1.402324"><ele>0</ele><time>2.8284270763397217-391.79998779296875-320.29998779296875T3.288236618041992:0:0Z</time></trkpt>
<trkpt lat="45.770072" lon="1.402276"><ele>0</ele><time>2.8284270763397217-393.1000061035156-321.29998779296875T3.4003677368164063:0:0Z</time></trkpt>
<trkpt lat="45.770118" lon="1.402225"><ele>0</ele><time>2.8284270763397217-393.3999938964844-322.20001220703125T3.25:0:0Z</time></trkpt>
<trkpt lat="45.770164" lon="1.402169"><ele>0</ele><time>2.8284270763397217-393.20001220703125-319.3999938964844T3.25:0:0Z</time></trkpt>
<trkpt lat="45.770205" lon="1.402119"><ele>0</ele><time>2.8284270763397217-393.0-319.5T3.25:0:0Z</time></trkpt>
<trkpt lat="45.770255" lon="1.402067"><ele>0</ele><time>2.8284270763397217-393.29998779296875-322.29998779296875T3.5:0:0Z</time></trkpt>
<trkpt lat="45.770303" lon="1.402018"><ele>0</ele><time>2.8284270763397217-393.1000061035156-321.5T3.25:0:0Z</time></trkpt>
<trkpt lat="45.770343" lon="1.401959"><ele>0</ele><time>2.8284270763397217-393.70001220703125-320.70001220703125T3.288236618041992:0:0Z</time></trkpt>
<trkpt lat="45.770394" lon="1.401905"><ele>0</ele><time>2.8284270763397217-394.70001220703125-323.29998779296875T3.25:0:0Z</time></trkpt>
<trkpt lat="45.770445" lon="1.401845"><ele>0</ele><time>2.8284270763397217-395.79998779296875-321.8999938964844T3.5:0:0Z</time></trkpt>
<trkpt lat="45.770489" lon="1.401787"><ele>0</ele><time>2.8284270763397217-395.79998779296875-321.8999938964844T3.25:0:0Z</time></trkpt>
<trkpt lat="45.770538" lon="1.40174"><ele>0</ele><time>2.8284270763397217-395.79998779296875-321.8999938964844T3.25:0:0Z</time></trkpt>
<trkpt lat="45.770584" lon="1.401686"><ele>0</ele><time>2.8284270763397217-396.70001220703125-320.8999938964844T3.25:0:0Z</time></trkpt>
<trkpt lat="45.770626" lon="1.401642"><ele>0</ele><time>2.8284270763397217-396.8999938964844-323.70001220703125T3.0:0:0Z</time></trkpt>
<trkpt lat="45.770668" lon="1.401586"><ele>0</ele><time>2.8284270763397217-397.0-317.6000061035156T3.25:0:0Z</time></trkpt>
<trkpt lat="45.770717" lon="1.401531"><ele>0</ele><time>2.8284270763397217-397.20001220703125-320.5T3.25:0:0Z</time></trkpt>
<trkpt lat="45.770763" lon="1.40148"><ele>0</ele><time>2.8284270763397217-397.20001220703125-323.3999938964844T3.25:0:0Z</time></trkpt>
<trkpt lat="45.770816" lon="1.401427"><ele>0</ele><time>2.8284270763397217-398.20001220703125-323.6000061035156T3.5:0:0Z</time></trkpt>
<trkpt lat="45.770861" lon="1.401365"><ele>0</ele><time>2.8284270763397217-398.3999938964844-319.70001220703125T3.5:0:0Z</time></trkpt>
<trkpt lat="45.770912" lon="1.401318"><ele>0</ele><time>2.8284270763397217-400.0-321.0T3.4003677368164063:0:0Z</time></trkpt>
<trkpt lat="45.770957" lon="1.401265"><ele>0</ele><time>2.8284270763397217-400.70001220703125-319.8999938964844T3.288236618041992:0:0Z</time></trkpt>
<trkpt lat="45.770997" lon="1.40121"><ele>0</ele><time>2.8284270763397217-400.0-316.79998779296875T3.25:0:0Z</time></trkpt>
<trkpt lat="45.771048" lon="1.401158"><ele>0</ele><time>2.8284270763397217-402.3999938964844-320.0T3.4003677368164063:0:0Z</time></trkpt>
<trkpt lat="45.771095" lon="1.401109"><ele>0</ele><time>2.8284270763397217-403.1000061035156-321.3999938964844T3.288236618041992:0:0Z</time></trkpt>
<trkpt lat="45.771141" lon="1.401056"><ele>0</ele><time>2.8284270763397217-403.20001220703125-322.29998779296875T3.25:0:0Z</time></trkpt>
<trkpt lat="45.771186" lon="1.401007"><ele>0</ele><time>2.8284270763397217-403.29998779296875-324.1000061035156T3.25:0:0Z</time></trkpt>
<trkpt lat="45.771231" lon="1.400957"><ele>0</ele><time>2.8284270763397217-403.0-323.20001220703125T3.25:0:0Z</time></trkpt>
<trkpt lat="45.771275" lon="1.400905"><ele>0</ele><time>2.8284270763397217-404.0-322.79998779296875T3.288236618041992:0:0Z</time></trkpt>
<trkpt lat="45.771316" lon="1.400856"><ele>0</ele><time>2.8284270763397217-404.29998779296875-319.79998779296875T3.041381359100342:0:0Z</time></trkpt>
<trkpt lat="45.771348" lon="1.400798"><ele>0</ele><time>2.8284270763397217-403.20001220703125-307.8999938964844T2.75:0:0Z</time></trkpt>
<trkpt lat="45.771385" lon="1.400746"><ele>0</ele><time>2.8284270763397217-403.29998779296875-314.3999938964844T2.75:0:0Z</time></trkpt>
<trkpt lat="45.771431" lon="1.40069"><ele>0</ele><time>2.8284270763397217-404.1000061035156-319.0T3.288236618041992:0:0Z</time></trkpt>
<trkpt lat="45.771472" lon="1.400635"><ele>0</ele><time>2.8284270763397217-405.3999938964844-316.8999938964844T3.041381359100342:0:0Z</time></trkpt>
<trkpt lat="45.771487" lon="1.400565"><ele>0</ele><time>2.8284270763397217-405.79998779296875-286.29998779296875T3.25:0:0Z</time></trkpt>
<trkpt lat="45.771444" lon="1.4005"><ele>0</ele><time>2.8284270763397217-407.29998779296875-243.39999389648438T3.288236618041992:0:0Z</time></trkpt>
<trkpt lat="45.771414" lon="1.400437"><ele>0</ele><time>2.8284270763397217-407.29998779296875-238.39999389648438T3.0:0:0Z</time></trkpt>
<trkpt lat="45.771383" lon="1.40037"><ele>0</ele><time>2.8284270763397217-408.5-237.89999389648438T2.3048861026763916:0:0Z</time></trkpt>
<trkpt lat="45.771367" lon="1.400278"><ele>0</ele><time>2.8284270763397217-408.3999938964844-253.60000610351563T3.5:0:0Z</time></trkpt>
<trkpt lat="45.771368" lon="1.400193"><ele>0</ele><time>2.8284270763397217-408.29998779296875-268.70001220703125T3.0:0:0Z</time></trkpt>
<trkpt lat="45.771378" lon="1.40012"><ele>0</ele><time>2.8284270763397217-408.1000061035156-275.8999938964844T2.5:0:0Z</time></trkpt>
<trkpt lat="45.771383" lon="1.400048"><ele>0</ele><time>3.605551242828369-408.6000061035156-274.1000061035156T2.75:0:0Z</time></trkpt>
<trkpt lat="45.771326" lon="1.39997"><ele>0</ele><time>2.8284270763397217-412.3999938964844-228.1999969482422T3.1622776985168457:0:0Z</time></trkpt>
<trkpt lat="45.771292" lon="1.399917"><ele>0</ele><time>3.605551242828369-412.79998779296875-228.0T3.041381359100342:0:0Z</time></trkpt>
<trkpt lat="45.771213" lon="1.399882"><ele>0</ele><time>4.4721360206604-411.6000061035156-213.10000610351563T3.5:0:0Z</time></trkpt>
<trkpt lat="45.771152" lon="1.399858"><ele>0</ele><time>6.324555397033691-410.8999938964844-207.10000610351563T3.5:0:0Z</time></trkpt>
<trkpt lat="45.771105" lon="1.399859"><ele>0</ele><time>3.605551242828369-408.79998779296875-194.3000030517578T4.366062164306641:0:0Z</time></trkpt>
<trkpt lat="45.771035" lon="1.399818"><ele>0</ele><time>3.605551242828369-407.20001220703125-194.89999389648438T4.031128883361816:0:0Z</time></trkpt>
<trkpt lat="45.770977" lon="1.399792"><ele>0</ele><time>3.605551242828369-407.0-196.39999389648438T3.535533905029297:0:0Z</time></trkpt>
<trkpt lat="45.770925" lon="1.399739"><ele>0</ele><time>2.8284270763397217-406.6000061035156-204.6999969482422T3.5:0:0Z</time></trkpt>
<trkpt lat="45.770855" lon="1.399727"><ele>0</ele><time>2.8284270763397217-407.0-189.6999969482422T3.75:0:0Z</time></trkpt>
<trkpt lat="45.77079" lon="1.399675"><ele>0</ele><time>2.8284270763397217-407.3999938964844-202.6999969482422T4.0:0:0Z</time></trkpt>
<trkpt lat="45.77072" lon="1.399631"><ele>0</ele><time>2.8284270763397217-407.3999938964844-203.89999389648438T4.25:0:0Z</time></trkpt>
<trkpt lat="45.770595" lon="1.399583"><ele>0</ele><time>6.7082037925720215-408.1000061035156-197.8000030517578T4.5:0:0Z</time></trkpt>
<trkpt lat="45.770514" lon="1.399565"><ele>0</ele><time>8.9442720413208-408.70001220703125-193.1999969482422T4.5:0:0Z</time></trkpt>
<trkpt lat="45.770464" lon="1.39957"><ele>0</ele><time>10.0-409.0-188.1999969482422T4.5:0:0Z</time></trkpt>
<trkpt lat="45.770411" lon="1.399527"><ele>0</ele><time>14.422204971313477-408.3999938964844-189.39999389648438T3.5:0:0Z</time></trkpt>
<trkpt lat="45.770456" lon="1.399398"><ele>0</ele><time>14.422204971313477-408.8999938964844-254.10000610351563T3.041381359100342:0:0Z</time></trkpt>
<trkpt lat="45.770454" lon="1.399299"><ele>0</ele><time>10.0-406.70001220703125-255.8000030517578T3.041381359100342:0:0Z</time></trkpt>
<trkpt lat="45.770465" lon="1.399184"><ele>0</ele><time>11.313708305358887-405.5-276.3999938964844T3.5:0:0Z</time></trkpt>
<trkpt lat="45.770502" lon="1.399078"><ele>0</ele><time>14.422204971313477-405.0-292.6000061035156T4.25:0:0Z</time></trkpt>
<trkpt lat="45.770556" lon="1.398985"><ele>0</ele><time>14.422204971313477-404.3999938964844-303.29998779296875T4.25:0:0Z</time></trkpt>
<trkpt lat="45.770585" lon="1.398927"><ele>0</ele><time>13.416407585144043-404.1000061035156-303.8999938964844T4.75:0:0Z</time></trkpt>
<trkpt lat="45.770615" lon="1.398871"><ele>0</ele><time>13.416407585144043-403.8999938964844-304.5T5.0:0:0Z</time></trkpt>
<trkpt lat="45.770652" lon="1.398806"><ele>0</ele><time>13.416407585144043-403.29998779296875-305.79998779296875T5.5:0:0Z</time></trkpt>
<trkpt lat="45.770681" lon="1.398743"><ele>0</ele><time>12.649110794067383-403.3999938964844-304.8999938964844T5.75:0:0Z</time></trkpt>
<trkpt lat="45.770711" lon="1.398671"><ele>0</ele><time>12.649110794067383-403.79998779296875-303.70001220703125T6.0:0:0Z</time></trkpt>
<trkpt lat="45.770747" lon="1.398613"><ele>0</ele><time>12.649110794067383-404.20001220703125-304.79998779296875T6.0:0:0Z</time></trkpt>
<trkpt lat="45.770762" lon="1.398542"><ele>0</ele><time>10.0-404.20001220703125-301.0T5.75:0:0Z</time></trkpt>
<trkpt lat="45.770787" lon="1.398483"><ele>0</ele><time>7.211102485656738-404.29998779296875-302.29998779296875T5.5:0:0Z</time></trkpt>
<trkpt lat="45.770812" lon="1.398426"><ele>0</ele><time>7.211102485656738-404.20001220703125-301.79998779296875T5.5:0:0Z</time></trkpt>
<trkpt lat="45.770866" lon="1.398381"><ele>0</ele><time>5.656854152679443-403.70001220703125-306.29998779296875T3.75:0:0Z</time></trkpt>
<trkpt lat="45.77089" lon="1.398281"><ele>0</ele><time>4.242640495300293-403.70001220703125-280.6000061035156T3.75:0:0Z</time></trkpt>
<trkpt lat="45.770863" lon="1.39817"><ele>0</ele><time>3.605551242828369-404.29998779296875-251.3000030517578T4.25:0:0Z</time></trkpt>
<trkpt lat="45.770839" lon="1.398108"><ele>0</ele><time>3.605551242828369-405.1000061035156-245.5T4.75:0:0Z</time></trkpt>
<trkpt lat="45.770805" lon="1.398053"><ele>0</ele><time>2.8284270763397217-404.5-234.5T5.25:0:0Z</time></trkpt>
<trkpt lat="45.77078" lon="1.397998"><ele>0</ele><time>2.8284270763397217-404.8999938964844-234.5T5.25:0:0Z</time></trkpt>
<trkpt lat="45.770752" lon="1.397941"><ele>0</ele><time>3.605551242828369-405.29998779296875-235.60000610351563T5.25:0:0Z</time></trkpt>
<trkpt lat="45.770728" lon="1.397883"><ele>0</ele><time>3.605551242828369-405.6000061035156-236.60000610351563T5.25:0:0Z</time></trkpt>
<trkpt lat="45.770703" lon="1.397827"><ele>0</ele><time>4.4721360206604-405.79998779296875-235.0T5.25:0:0Z</time></trkpt>
<trkpt lat="45.770677" lon="1.397737"><ele>0</ele><time>3.605551242828369-404.70001220703125-233.6999969482422T6.0:0:0Z</time></trkpt>
<trkpt lat="45.770637" lon="1.397696"><ele>0</ele><time>3.605551242828369-404.3999938964844-228.8000030517578T6.0:0:0Z</time></trkpt>
<trkpt lat="45.770596" lon="1.39765"><ele>0</ele><time>3.605551242828369-404.20001220703125-224.39999389648438T6.0:0:0Z</time></trkpt>
<trkpt lat="45.770552" lon="1.397601"><ele>0</ele><time>3.605551242828369-403.70001220703125-217.89999389648438T6.0:0:0Z</time></trkpt>
<trkpt lat="45.770499" lon="1.397568"><ele>0</ele><time>3.605551242828369-403.20001220703125-209.60000610351563T6.020797252655029:0:0Z</time></trkpt>
<trkpt lat="45.770444" lon="1.397537"><ele>0</ele><time>3.605551242828369-403.70001220703125-200.10000610351563T6.0:0:0Z</time></trkpt>
<trkpt lat="45.770392" lon="1.397516"><ele>0</ele><time>2.8284270763397217-403.3999938964844-200.10000610351563T6.25:0:0Z</time></trkpt>
<trkpt lat="45.770344" lon="1.397487"><ele>0</ele><time>2.8284270763397217-402.79998779296875-199.6999969482422T6.5:0:0Z</time></trkpt>
<trkpt lat="45.770289" lon="1.397466"><ele>0</ele><time>2.8284270763397217-401.8999938964844-197.5T6.51920223236084:0:0Z</time></trkpt>
<trkpt lat="45.770177" lon="1.397415"><ele>0</ele><time>2.8284270763397217-401.3999938964844-197.5T6.5:0:0Z</time></trkpt>
<trkpt lat="45.770136" lon="1.39737"><ele>0</ele><time>5.0-401.1000061035156-209.6999969482422T3.75:0:0Z</time></trkpt>
<trkpt lat="45.770139" lon="1.397283"><ele>0</ele><time>5.0-400.6000061035156-255.3000030517578T3.0:0:0Z</time></trkpt>
<trkpt lat="45.770145" lon="1.397213"><ele>0</ele><time>5.0-400.70001220703125-274.29998779296875T3.25:0:0Z</time></trkpt>
<trkpt lat="45.770156" lon="1.397117"><ele>0</ele><time>5.656854152679443-400.29998779296875-279.70001220703125T3.5:0:0Z</time></trkpt>
<trkpt lat="45.7702" lon="1.39701"><ele>0</ele><time>5.0-400.29998779296875-292.70001220703125T4.25:0:0Z</time></trkpt>
<trkpt lat="45.770206" lon="1.396944"><ele>0</ele><time>7.211102485656738-401.1000061035156-288.1000061035156T3.5:0:0Z</time></trkpt>
<trkpt lat="45.770218" lon="1.396869"><ele>0</ele><time>8.485280990600586-401.5-286.3999938964844T4.25:0:0Z</time></trkpt>
<trkpt lat="45.770233" lon="1.396802"><ele>0</ele><time>8.485280990600586-401.79998779296875-287.6000061035156T4.5:0:0Z</time></trkpt>
<trkpt lat="45.770255" lon="1.396589"><ele>0</ele><time>8.485280990600586-401.1000061035156-276.70001220703125T6.75:0:0Z</time></trkpt>
<trkpt lat="45.770257" lon="1.396487"><ele>0</ele><time>8.485280990600586-399.8999938964844-270.3999938964844T6.75:0:0Z</time></trkpt>
<trkpt lat="45.770252" lon="1.396388"><ele>0</ele><time>8.485280990600586-399.29998779296875-267.70001220703125T7.0:0:0Z</time></trkpt>
<trkpt lat="45.770252" lon="1.396304"><ele>0</ele><time>8.485280990600586-399.0-267.6000061035156T7.25:0:0Z</time></trkpt>
<trkpt lat="45.770266" lon="1.396201"><ele>0</ele><time>8.485280990600586-397.8999938964844-268.29998779296875T7.5:0:0Z</time></trkpt>
<trkpt lat="45.770262" lon="1.396092"><ele>0</ele><time>7.211102485656738-395.70001220703125-263.5T8.385254859924316:0:0Z</time></trkpt>
<trkpt lat="45.770259" lon="1.395994"><ele>0</ele><time>7.211102485656738-394.3999938964844-263.8999938964844T7.8142499923706055:0:0Z</time></trkpt>
<trkpt lat="45.770251" lon="1.395882"><ele>0</ele><time>7.211102485656738-393.1000061035156-262.3999938964844T8.514693260192871:0:0Z</time></trkpt>
<trkpt lat="45.770259" lon="1.395758"><ele>0</ele><time>8.485280990600586-391.70001220703125-267.20001220703125T9.013877868652344:0:0Z</time></trkpt>
<trkpt lat="45.770265" lon="1.395628"><ele>0</ele><time>8.485280990600586-390.70001220703125-269.5T9.5:0:0Z</time></trkpt>
<trkpt lat="45.770261" lon="1.395516"><ele>0</ele><time>11.313708305358887-390.20001220703125-268.20001220703125T9.25:0:0Z</time></trkpt>
<trkpt lat="45.77025" lon="1.395414"><ele>0</ele><time>10.0-389.70001220703125-260.79998779296875T8.25:0:0Z</time></trkpt>
<trkpt lat="45.770227" lon="1.395321"><ele>0</ele><time>8.485280990600586-388.3999938964844-257.1000061035156T8.015609741210938:0:0Z</time></trkpt>
<trkpt lat="45.770219" lon="1.395221"><ele>0</ele><time>10.0-388.0-259.5T7.75:0:0Z</time></trkpt>
<trkpt lat="45.7702" lon="1.395144"><ele>0</ele><time>10.0-387.5-252.60000610351563T7.0:0:0Z</time></trkpt>
<trkpt lat="45.770196" lon="1.395066"><ele>0</ele><time>10.0-387.70001220703125-261.3999938964844T5.75:0:0Z</time></trkpt>
<trkpt lat="45.770207" lon="1.394975"><ele>0</ele><time>10.0-387.5-274.20001220703125T6.25:0:0Z</time></trkpt>
<trkpt lat="45.770221" lon="1.394865"><ele>0</ele><time>10.0-386.29998779296875-277.8999938964844T7.017834186553955:0:0Z</time></trkpt>
<trkpt lat="45.770238" lon="1.394743"><ele>0</ele><time>10.0-384.1000061035156-279.5T6.75:0:0Z</time></trkpt>
<trkpt lat="45.770218" lon="1.39463"><ele>0</ele><time>11.313708305358887-383.8999938964844-265.5T7.25:0:0Z</time></trkpt>
<trkpt lat="45.770171" lon="1.394517"><ele>0</ele><time>10.0-382.70001220703125-249.6999969482422T8.015609741210938:0:0Z</time></trkpt>
<trkpt lat="45.770146" lon="1.394433"><ele>0</ele><time>8.485280990600586-381.1000061035156-248.0T8.0:0:0Z</time></trkpt>
<trkpt lat="45.770129" lon="1.394339"><ele>0</ele><time>10.0-380.8999938964844-256.70001220703125T7.25:0:0Z</time></trkpt>
<trkpt lat="45.770124" lon="1.394243"><ele>0</ele><time>10.0-380.20001220703125-262.6000061035156T7.25:0:0Z</time></trkpt>
<trkpt lat="45.770119" lon="1.394153"><ele>0</ele><time>13.416407585144043-380.0-269.0T7.0:0:0Z</time></trkpt>
<trkpt lat="45.770132" lon="1.394073"><ele>0</ele><time>14.422204971313477-379.5-278.3999938964844T6.5:0:0Z</time></trkpt>
<trkpt lat="45.770147" lon="1.393989"><ele>0</ele><time>14.422204971313477-378.8999938964844-285.29998779296875T6.25:0:0Z</time></trkpt>
<trkpt lat="45.770165" lon="1.393866"><ele>0</ele><time>14.422204971313477-378.3999938964844-283.0T6.75:0:0Z</time></trkpt>
<trkpt lat="45.770177" lon="1.393759"><ele>0</ele><time>16.970561981201172-377.5-281.70001220703125T7.25:0:0Z</time></trkpt>
<trkpt lat="45.770191" lon="1.393648"><ele>0</ele><time>20.0-376.8999938964844-280.5T7.5:0:0Z</time></trkpt>
<trkpt lat="45.770203" lon="1.393539"><ele>0</ele><time>10.0-379.70001220703125-256.5T4.924428939819336:0:0Z</time></trkpt>
<trkpt lat="45.770202" lon="1.393438"><ele>0</ele><time>8.485280990600586-381.20001220703125-261.8999938964844T3.535533905029297:0:0Z</time></trkpt>
<trkpt lat="45.770206" lon="1.393334"><ele>0</ele><time>8.485280990600586-379.70001220703125-268.5T3.5:0:0Z</time></trkpt>
<trkpt lat="45.770221" lon="1.393226"><ele>0</ele><time>8.485280990600586-377.8999938964844-273.3999938964844T3.0:0:0Z</time></trkpt>
<trkpt lat="45.770286" lon="1.393143"><ele>0</ele><time>7.211102485656738-375.6000061035156-294.6000061035156T3.0:0:0Z</time></trkpt>
<trkpt lat="45.770311" lon="1.393067"><ele>0</ele><time>6.7082037925720215-375.6000061035156-289.6000061035156T2.75:0:0Z</time></trkpt>
<trkpt lat="45.770298" lon="1.392965"><ele>0</ele><time>7.211102485656738-374.3999938964844-261.0T2.5:0:0Z</time></trkpt>
<trkpt lat="45.770301" lon="1.39288"><ele>0</ele><time>3.605551242828369-374.1000061035156-267.3999938964844T2.5:0:0Z</time></trkpt>
<trkpt lat="45.770285" lon="1.392788"><ele>0</ele><time>3.605551242828369-373.70001220703125-259.20001220703125T2.5:0:0Z</time></trkpt>
<trkpt lat="45.770276" lon="1.3927"><ele>0</ele><time>2.8284270763397217-374.20001220703125-260.0T2.25:0:0Z</time></trkpt>
<trkpt lat="45.77029" lon="1.392611"><ele>0</ele><time>2.8284270763397217-374.20001220703125-278.3999938964844T2.0:0:0Z</time></trkpt>
<trkpt lat="45.770317" lon="1.392516"><ele>0</ele><time>2.8284270763397217-375.6000061035156-294.3999938964844T1.75:0:0Z</time></trkpt>
<trkpt lat="45.770347" lon="1.392438"><ele>0</ele><time>2.8284270763397217-375.1000061035156-299.8999938964844T2.0:0:0Z</time></trkpt>
<trkpt lat="45.770364" lon="1.392376"><ele>0</ele><time>2.8284270763397217-376.0-296.8999938964844T2.5:0:0Z</time></trkpt>
<trkpt lat="45.770386" lon="1.392314"><ele>0</ele><time>2.8284270763397217-375.5-293.70001220703125T2.75:0:0Z</time></trkpt>
<trkpt lat="45.77041" lon="1.392257"><ele>0</ele><time>2.8284270763397217-376.20001220703125-297.5T2.5:0:0Z</time></trkpt>
<trkpt lat="45.770433" lon="1.392194"><ele>0</ele><time>2.8284270763397217-377.20001220703125-295.6000061035156T2.75:0:0Z</time></trkpt>
<trkpt lat="45.770452" lon="1.392134"><ele>0</ele><time>2.8284270763397217-378.6000061035156-296.70001220703125T2.7950849533081055:0:0Z</time></trkpt>
<trkpt lat="45.770473" lon="1.392064"><ele>0</ele><time>2.8284270763397217-378.1000061035156-294.6000061035156T2.75:0:0Z</time></trkpt>
<trkpt lat="45.770493" lon="1.392005"><ele>0</ele><time>2.8284270763397217-380.6000061035156-295.3999938964844T2.9261748790740967:0:0Z</time></trkpt>
<trkpt lat="45.770522" lon="1.39194"><ele>0</ele><time>2.8284270763397217-381.29998779296875-298.29998779296875T3.041381359100342:0:0Z</time></trkpt>
<trkpt lat="45.770552" lon="1.391872"><ele>0</ele><time>2.8284270763397217-381.6000061035156-299.8999938964844T3.041381359100342:0:0Z</time></trkpt>
<trkpt lat="45.770578" lon="1.391801"><ele>0</ele><time>2.8284270763397217-381.79998779296875-296.70001220703125T2.75:0:0Z</time></trkpt>
<trkpt lat="45.7706" lon="1.391732"><ele>0</ele><time>2.8284270763397217-380.8999938964844-294.29998779296875T2.75:0:0Z</time></trkpt>
<trkpt lat="45.770617" lon="1.391668"><ele>0</ele><time>2.8284270763397217-381.8999938964844-287.3999938964844T2.75:0:0Z</time></trkpt>
<trkpt lat="45.770635" lon="1.3916"><ele>0</ele><time>2.8284270763397217-381.8999938964844-291.5T2.75:0:0Z</time></trkpt>
<trkpt lat="45.770649" lon="1.391503"><ele>0</ele><time>2.8284270763397217-381.70001220703125-286.5T2.75:0:0Z</time></trkpt>
<trkpt lat="45.770666" lon="1.391431"><ele>0</ele><time>2.8284270763397217-381.5-289.0T2.75:0:0Z</time></trkpt>
<trkpt lat="45.770679" lon="1.391362"><ele>0</ele><time>2.8284270763397217-381.79998779296875-287.1000061035156T2.75:0:0Z</time></trkpt>
<trkpt lat="45.770701" lon="1.391298"><ele>0</ele><time>2.8284270763397217-382.3999938964844-288.0T2.75:0:0Z</time></trkpt>
<trkpt lat="45.770704" lon="1.39123"><ele>0</ele><time>2.8284270763397217-383.5-282.29998779296875T2.5:0:0Z</time></trkpt>
<trkpt lat="45.770711" lon="1.391164"><ele>0</ele><time>2.8284270763397217-383.0-279.1000061035156T2.75:0:0Z</time></trkpt>
<trkpt lat="45.770721" lon="1.391093"><ele>0</ele><time>2.8284270763397217-384.5-287.20001220703125T2.7950849533081055:0:0Z</time></trkpt>
<trkpt lat="45.770735" lon="1.391019"><ele>0</ele><time>2.8284270763397217-384.29998779296875-283.79998779296875T2.75:0:0Z</time></trkpt>
<trkpt lat="45.770752" lon="1.390942"><ele>0</ele><time>2.8284270763397217-384.29998779296875-284.79998779296875T3.0:0:0Z</time></trkpt>
<trkpt lat="45.770751" lon="1.390875"><ele>0</ele><time>2.8284270763397217-385.1000061035156-285.6000061035156T2.75:0:0Z</time></trkpt>
<trkpt lat="45.770764" lon="1.390803"><ele>0</ele><time>2.8284270763397217-385.1000061035156-285.5T2.75:0:0Z</time></trkpt>
<trkpt lat="45.770777" lon="1.390729"><ele>0</ele><time>2.8284270763397217-385.20001220703125-284.6000061035156T2.75:0:0Z</time></trkpt>
<trkpt lat="45.770775" lon="1.39064"><ele>0</ele><time>4.242640495300293-386.20001220703125-279.20001220703125T3.25:0:0Z</time></trkpt>
<trkpt lat="45.770811" lon="1.390534"><ele>0</ele><time>4.242640495300293-388.1000061035156-299.70001220703125T2.3048861026763916:0:0Z</time></trkpt>
<trkpt lat="45.770822" lon="1.390444"><ele>0</ele><time>7.211102485656738-388.70001220703125-295.79998779296875T1.75:0:0Z</time></trkpt>
<trkpt lat="45.770828" lon="1.390357"><ele>0</ele><time>5.0-387.6000061035156-283.5T3.5:0:0Z</time></trkpt>
<trkpt lat="45.770845" lon="1.390267"><ele>0</ele><time>5.0-387.8999938964844-283.79998779296875T3.5:0:0Z</time></trkpt>
<trkpt lat="45.770838" lon="1.390188"><ele>0</ele><time>3.605551242828369-388.5-269.79998779296875T3.25:0:0Z</time></trkpt>
<trkpt lat="45.77084" lon="1.390104"><ele>0</ele><time>3.605551242828369-388.6000061035156-268.6000061035156T3.25:0:0Z</time></trkpt>
<trkpt lat="45.770839" lon="1.390022"><ele>0</ele><time>3.605551242828369-388.8999938964844-268.79998779296875T3.25:0:0Z</time></trkpt>
<trkpt lat="45.770842" lon="1.389934"><ele>0</ele><time>4.242640495300293-388.5-269.0T3.5:0:0Z</time></trkpt>
<trkpt lat="45.77084" lon="1.389841"><ele>0</ele><time>5.0-388.8999938964844-269.79998779296875T3.5:0:0Z</time></trkpt>
<trkpt lat="45.770836" lon="1.38975"><ele>0</ele><time>4.242640495300293-388.70001220703125-267.3999938964844T3.5:0:0Z</time></trkpt>
<trkpt lat="45.770839" lon="1.389648"><ele>0</ele><time>4.242640495300293-388.79998779296875-267.0T3.75:0:0Z</time></trkpt>
<trkpt lat="45.770831" lon="1.389547"><ele>0</ele><time>5.0-388.79998779296875-263.3999938964844T3.75:0:0Z</time></trkpt>
<trkpt lat="45.770808" lon="1.38943"><ele>0</ele><time>5.0-389.3999938964844-257.70001220703125T4.25:0:0Z</time></trkpt>
<trkpt lat="45.770802" lon="1.389327"><ele>0</ele><time>5.0-389.29998779296875-261.1000061035156T4.0:0:0Z</time></trkpt>
<trkpt lat="45.770804" lon="1.389246"><ele>0</ele><time>7.211102485656738-391.8999938964844-267.1000061035156T3.288236618041992:0:0Z</time></trkpt>
<trkpt lat="45.770809" lon="1.389161"><ele>0</ele><time>8.485280990600586-393.8999938964844-269.29998779296875T3.535533905029297:0:0Z</time></trkpt>
<trkpt lat="45.770821" lon="1.389062"><ele>0</ele><time>10.0-394.5-270.6000061035156T3.75:0:0Z</time></trkpt>
<trkpt lat="45.77084" lon="1.388984"><ele>0</ele><time>10.0-394.70001220703125-273.79998779296875T3.041381359100342:0:0Z</time></trkpt>
<trkpt lat="45.770856" lon="1.388895"><ele>0</ele><time>8.485280990600586-394.70001220703125-283.79998779296875T3.0:0:0Z</time></trkpt>
<trkpt lat="45.770861" lon="1.388814"><ele>0</ele><time>7.211102485656738-394.5-275.79998779296875T3.0:0:0Z</time></trkpt>
<trkpt lat="45.77088" lon="1.38874"><ele>0</ele><time>7.211102485656738-394.29998779296875-286.70001220703125T2.75:0:0Z</time></trkpt>
<trkpt lat="45.77089" lon="1.388664"><ele>0</ele><time>5.656854152679443-394.1000061035156-284.20001220703125T2.5:0:0Z</time></trkpt>
<trkpt lat="45.770905" lon="1.388545"><ele>0</ele><time>5.0-393.3999938964844-277.3999938964844T2.5:0:0Z</time></trkpt>
<trkpt lat="45.770917" lon="1.38845"><ele>0</ele><time>5.0-392.8999938964844-274.20001220703125T2.5:0:0Z</time></trkpt>
<trkpt lat="45.770966" lon="1.388258"><ele>0</ele><time>5.0-392.79998779296875-285.5T3.75:0:0Z</time></trkpt>
<trkpt lat="45.770992" lon="1.388149"><ele>0</ele><time>5.0-393.3999938964844-287.0T4.0:0:0Z</time></trkpt>
<trkpt lat="45.771009" lon="1.388077"><ele>0</ele><time>5.0-393.0-286.70001220703125T3.25:0:0Z</time></trkpt>
<trkpt lat="45.771018" lon="1.38801"><ele>0</ele><time>5.0-393.29998779296875-280.3999938964844T2.75:0:0Z</time></trkpt>
<trkpt lat="45.771032" lon="1.387914"><ele>0</ele><time>4.242640495300293-394.6000061035156-266.70001220703125T2.75:0:0Z</time></trkpt>
<trkpt lat="45.771067" lon="1.387874"><ele>0</ele><time>10.0-397.3999938964844-33.20000076293945T0.0:0:0Z</time></trkpt>
<trkpt lat="45.771126" lon="1.387894"><ele>0</ele><time>14.422204971313477-399.29998779296875-25.799999237060547T1.25:0:0Z</time></trkpt>
<trkpt lat="45.77119" lon="1.387918"><ele>0</ele><time>14.422204971313477-398.20001220703125-20.600000381469727T2.0:0:0Z</time></trkpt>
<trkpt lat="45.771249" lon="1.38795"><ele>0</ele><time>16.970561981201172-396.5-18.899999618530273T2.5495097637176514:0:0Z</time></trkpt>
<trkpt lat="45.771294" lon="1.387974"><ele>0</ele><time>16.970561981201172-395.79998779296875-18.399999618530273T3.041381359100342:0:0Z</time></trkpt>
<trkpt lat="45.771343" lon="1.387979"><ele>0</ele><time>16.970561981201172-395.6000061035156-12.899999618530273T3.783186435699463:0:0Z</time></trkpt>
<trkpt lat="45.771416" lon="1.387968"><ele>0</ele><time>16.970561981201172-393.5-7.099999904632568T4.527692794799805:0:0Z</time></trkpt>
<trkpt lat="45.771476" lon="1.388001"><ele>0</ele><time>16.970561981201172-392.29998779296875-10.300000190734863T5.024937629699707:0:0Z</time></trkpt>
<trkpt lat="45.77154" lon="1.388042"><ele>0</ele><time>16.970561981201172-391.1000061035156-16.5T5.522680282592773:0:0Z</time></trkpt>
<trkpt lat="45.771581" lon="1.388117"><ele>0</ele><time>20.0-390.70001220703125-39.20000076293945T3.5:0:0Z</time></trkpt>
<trkpt lat="45.771595" lon="1.388187"><ele>0</ele><time>20.0-390.6000061035156-61.5T3.75:0:0Z</time></trkpt>
<trkpt lat="45.771629" lon="1.388268"><ele>0</ele><time>20.0-390.0-64.19999694824219T4.25:0:0Z</time></trkpt>
<trkpt lat="45.771657" lon="1.388368"><ele>0</ele><time>20.0-389.5-69.0999984741211T5.0:0:0Z</time></trkpt>
<trkpt lat="45.771671" lon="1.388432"><ele>0</ele><time>20.0-389.5-71.0T5.0:0:0Z</time></trkpt>
<trkpt lat="45.771688" lon="1.388517"><ele>0</ele><time>20.0-389.29998779296875-76.19999694824219T5.5:0:0Z</time></trkpt>
<trkpt lat="45.771715" lon="1.388605"><ele>0</ele><time>20.0-388.70001220703125-76.9000015258789T5.25:0:0Z</time></trkpt>
<trkpt lat="45.771748" lon="1.388688"><ele>0</ele><time>20.0-388.8999938964844-72.9000015258789T5.5:0:0Z</time></trkpt>
<trkpt lat="45.771766" lon="1.388765"><ele>0</ele><time>20.0-388.6000061035156-71.69999694824219T5.5:0:0Z</time></trkpt>
<trkpt lat="45.771785" lon="1.388838"><ele>0</ele><time>26.832815170288086-388.29998779296875-69.0T5.5:0:0Z</time></trkpt>
<trkpt lat="45.771832" lon="1.388967"><ele>0</ele><time>16.970561981201172-385.1000061035156-77.69999694824219T6.427480220794678:0:0Z</time></trkpt>
<trkpt lat="45.77186" lon="1.389085"><ele>0</ele><time>16.970561981201172-382.8999938964844-80.4000015258789T6.269968032836914:0:0Z</time></trkpt>
<trkpt lat="45.771878" lon="1.38917"><ele>0</ele><time>16.970561981201172-383.29998779296875-76.30000305175781T6.269968032836914:0:0Z</time></trkpt>
<trkpt lat="45.771913" lon="1.389261"><ele>0</ele><time>16.970561981201172-383.29998779296875-69.0T6.5:0:0Z</time></trkpt>
<trkpt lat="45.771953" lon="1.389348"><ele>0</ele><time>14.422204971313477-382.79998779296875-64.0T6.25:0:0Z</time></trkpt>
<trkpt lat="45.771986" lon="1.389432"><ele>0</ele><time>14.422204971313477-382.29998779296875-62.400001525878906T6.5:0:0Z</time></trkpt>
<trkpt lat="45.772042" lon="1.389626"><ele>0</ele><time>14.422204971313477-382.5-63.70000076293945T7.0:0:0Z</time></trkpt>
<trkpt lat="45.772081" lon="1.389713"><ele>0</ele><time>11.313708305358887-382.5-55.099998474121094T7.0:0:0Z</time></trkpt>
<trkpt lat="45.772135" lon="1.389763"><ele>0</ele><time>14.422204971313477-382.79998779296875-47.099998474121094T7.0:0:0Z</time></trkpt>
<trkpt lat="45.772175" lon="1.389792"><ele>0</ele><time>14.422204971313477-382.0-32.900001525878906T5.75:0:0Z</time></trkpt>
<trkpt lat="45.772218" lon="1.389828"><ele>0</ele><time>14.422204971313477-382.5-29.0T5.5:0:0Z</time></trkpt>
<trkpt lat="45.772257" lon="1.389858"><ele>0</ele><time>14.422204971313477-382.70001220703125-24.700000762939453T5.0:0:0Z</time></trkpt>
<trkpt lat="45.772316" lon="1.38989"><ele>0</ele><time>13.416407585144043-382.79998779296875-19.899999618530273T5.75:0:0Z</time></trkpt>
<trkpt lat="45.772378" lon="1.389924"><ele>0</ele><time>13.416407585144043-383.5-16.399999618530273T6.25:0:0Z</time></trkpt>
<trkpt lat="45.77244" lon="1.389934"><ele>0</ele><time>13.416407585144043-383.29998779296875-6.199999809265137T6.5:0:0Z</time></trkpt>
<trkpt lat="45.77251" lon="1.389926"><ele>0</ele><time>13.416407585144043-383.3999938964844-359.1000061035156T7.25:0:0Z</time></trkpt>
<trkpt lat="45.77258" lon="1.389919"><ele>0</ele><time>14.422204971313477-383.1000061035156-359.29998779296875T7.5:0:0Z</time></trkpt>
<trkpt lat="45.772651" lon="1.389919"><ele>0</ele><time>14.422204971313477-383.70001220703125-355.5T7.5:0:0Z</time></trkpt>
<trkpt lat="45.772713" lon="1.389918"><ele>0</ele><time>13.416407585144043-384.20001220703125-356.1000061035156T7.25:0:0Z</time></trkpt>
<trkpt lat="45.772779" lon="1.389926"><ele>0</ele><time>13.416407585144043-384.3999938964844-358.1000061035156T7.0:0:0Z</time></trkpt>
<trkpt lat="45.772839" lon="1.389914"><ele>0</ele><time>13.416407585144043-384.29998779296875-355.3999938964844T7.0:0:0Z</time></trkpt>
<trkpt lat="45.772905" lon="1.389904"><ele>0</ele><time>14.422204971313477-383.79998779296875-355.6000061035156T7.0:0:0Z</time></trkpt>
<trkpt lat="45.772962" lon="1.389904"><ele>0</ele><time>14.422204971313477-383.70001220703125-358.3999938964844T6.5:0:0Z</time></trkpt>
<trkpt lat="45.773022" lon="1.38995"><ele>0</ele><time>14.422204971313477-383.6000061035156-13.5T6.5:0:0Z</time></trkpt>
<trkpt lat="45.773076" lon="1.389968"><ele>0</ele><time>14.422204971313477-383.3999938964844-16.100000381469727T6.25:0:0Z</time></trkpt>
<trkpt lat="45.773121" lon="1.389983"><ele>0</ele><time>11.313708305358887-383.5-18.100000381469727T6.25:0:0Z</time></trkpt>
<trkpt lat="45.773168" lon="1.390006"><ele>0</ele><time>13.416407585144043-383.5-19.200000762939453T6.0:0:0Z</time></trkpt>
<trkpt lat="45.773215" lon="1.390033"><ele>0</ele><time>13.416407585144043-383.5-20.399999618530273T5.75:0:0Z</time></trkpt>
<trkpt lat="45.773266" lon="1.390073"><ele>0</ele><time>14.422204971313477-383.79998779296875-22.299999237060547T6.0:0:0Z</time></trkpt>
<trkpt lat="45.773324" lon="1.390104"><ele>0</ele><time>14.422204971313477-383.70001220703125-20.899999618530273T6.0:0:0Z</time></trkpt>
<trkpt lat="45.773415" lon="1.390164"><ele>0</ele><time>13.416407585144043-383.8999938964844-23.799999237060547T5.5:0:0Z</time></trkpt>
<trkpt lat="45.773469" lon="1.39021"><ele>0</ele><time>13.416407585144043-383.79998779296875-26.0T4.5:0:0Z</time></trkpt>
<trkpt lat="45.77354" lon="1.390277"><ele>0</ele><time>8.485280990600586-384.29998779296875-28.200000762939453T4.25:0:0Z</time></trkpt>
<trkpt lat="45.77359" lon="1.39032"><ele>0</ele><time>7.211102485656738-384.1000061035156-24.200000762939453T3.5:0:0Z</time></trkpt>
<trkpt lat="45.773632" lon="1.390342"><ele>0</ele><time>5.656854152679443-383.70001220703125-27.0T2.5:0:0Z</time></trkpt>
<trkpt lat="45.773677" lon="1.390368"><ele>0</ele><time>5.656854152679443-384.70001220703125-23.100000381469727T2.5:0:0Z</time></trkpt>
<trkpt lat="45.773728" lon="1.390388"><ele>0</ele><time>5.0-384.6000061035156-14.699999809265137T2.75:0:0Z</time></trkpt>
<trkpt lat="45.773776" lon="1.390403"><ele>0</ele><time>5.0-385.6000061035156-16.799999237060547T2.75:0:0Z</time></trkpt>
<trkpt lat="45.773849" lon="1.390458"><ele>0</ele><time>7.211102485656738-386.6000061035156-24.299999237060547T3.25:0:0Z</time></trkpt>
<trkpt lat="45.773906" lon="1.390485"><ele>0</ele><time>6.7082037925720215-388.29998779296875-21.799999237060547T3.25:0:0Z</time></trkpt>
<trkpt lat="45.77397" lon="1.390538"><ele>0</ele><time>4.242640495300293-388.5-18.700000762939453T2.75:0:0Z</time></trkpt>
<trkpt lat="45.774024" lon="1.390579"><ele>0</ele><time>4.242640495300293-388.5-24.0T2.75:0:0Z</time></trkpt>
<trkpt lat="45.774089" lon="1.390619"><ele>0</ele><time>3.605551242828369-389.0-20.899999618530273T3.0:0:0Z</time></trkpt>
<trkpt lat="45.774141" lon="1.390637"><ele>0</ele><time>5.656854152679443-390.20001220703125-20.200000762939453T2.5:0:0Z</time></trkpt>
<trkpt lat="45.774187" lon="1.390697"><ele>0</ele><time>8.485280990600586-391.6000061035156-41.5T2.5:0:0Z</time></trkpt>
<trkpt lat="45.77422" lon="1.390798"><ele>0</ele><time>11.313708305358887-391.5-57.20000076293945T3.25:0:0Z</time></trkpt>
<trkpt lat="45.774264" lon="1.390906"><ele>0</ele><time>11.313708305358887-389.6000061035156-61.70000076293945T3.783186435699463:0:0Z</time></trkpt>
<trkpt lat="45.774337" lon="1.391061"><ele>0</ele><time>10.0-386.5-62.20000076293945T4.279310703277588:0:0Z</time></trkpt>
<trkpt lat="45.774368" lon="1.391119"><ele>0</ele><time>10.0-385.6000061035156-61.20000076293945T4.5:0:0Z</time></trkpt>
<trkpt lat="45.774387" lon="1.391195"><ele>0</ele><time>13.416407585144043-386.29998779296875-62.900001525878906T4.75:0:0Z</time></trkpt>
<trkpt lat="45.774412" lon="1.391249"><ele>0</ele><time>13.416407585144043-386.29998779296875-61.099998474121094T4.75:0:0Z</time></trkpt>
<trkpt lat="45.774444" lon="1.391308"><ele>0</ele><time>10.0-386.6000061035156-57.900001525878906T5.0:0:0Z</time></trkpt>
<trkpt lat="45.774479" lon="1.391359"><ele>0</ele><time>10.0-386.6000061035156-55.900001525878906T4.75:0:0Z</time></trkpt>
<trkpt lat="45.774509" lon="1.391414"><ele>0</ele><time>8.485280990600586-387.5-55.099998474121094T5.0:0:0Z</time></trkpt>
<trkpt lat="45.774587" lon="1.391518"><ele>0</ele><time>7.211102485656738-387.6000061035156-45.0T5.5:0:0Z</time></trkpt>
<trkpt lat="45.774618" lon="1.391567"><ele>0</ele><time>7.211102485656738-387.3999938964844-46.0T5.5:0:0Z</time></trkpt>
<trkpt lat="45.774649" lon="1.391624"><ele>0</ele><time>7.211102485656738-387.29998779296875-49.900001525878906T5.5:0:0Z</time></trkpt>
<trkpt lat="45.774687" lon="1.391669"><ele>0</ele><time>10.0-387.6000061035156-44.70000076293945T5.5:0:0Z</time></trkpt>
<trkpt lat="45.774722" lon="1.391724"><ele>0</ele><time>13.416407585144043-387.6000061035156-47.0T5.75:0:0Z</time></trkpt>
<trkpt lat="45.774757" lon="1.391778"><ele>0</ele><time>17.8885440826416-387.70001220703125-46.79999923706055T5.75:0:0Z</time></trkpt>
<trkpt lat="45.774802" lon="1.39185"><ele>0</ele><time>25.298221588134766-387.6000061035156-46.70000076293945T6.25:0:0Z</time></trkpt>
<trkpt lat="45.774852" lon="1.391924"><ele>0</ele><time>26.832815170288086-387.8999938964844-46.5T6.5:0:0Z</time></trkpt>
<trkpt lat="45.774899" lon="1.39198"><ele>0</ele><time>34.1760139465332-387.8999938964844-43.400001525878906T6.5:0:0Z</time></trkpt>
<trkpt lat="45.774976" lon="1.392082"><ele>0</ele><time>26.832815170288086-387.79998779296875-43.70000076293945T7.25:0:0Z</time></trkpt>
<trkpt lat="45.775046" lon="1.3922"><ele>0</ele><time>17.8885440826416-387.29998779296875-48.70000076293945T7.25:0:0Z</time></trkpt>
<trkpt lat="45.775088" lon="1.392264"><ele>0</ele><time>13.416407585144043-387.1000061035156-48.29999923706055T7.25:0:0Z</time></trkpt>
<trkpt lat="45.775136" lon="1.392336"><ele>0</ele><time>13.416407585144043-387.29998779296875-45.29999923706055T7.25:0:0Z</time></trkpt>
<trkpt lat="45.775177" lon="1.392393"><ele>0</ele><time>10.0-387.3999938964844-44.599998474121094T7.0:0:0Z</time></trkpt>
<trkpt lat="45.775223" lon="1.39242"><ele>0</ele><time>8.9442720413208-386.79998779296875-28.899999618530273T6.020797252655029:0:0Z</time></trkpt>
<trkpt lat="45.775264" lon="1.392453"><ele>0</ele><time>7.211102485656738-386.29998779296875-27.600000381469727T5.0:0:0Z</time></trkpt>
<trkpt lat="45.775314" lon="1.392474"><ele>0</ele><time>7.211102485656738-386.29998779296875-18.100000381469727T5.5:0:0Z</time></trkpt>
<trkpt lat="45.775367" lon="1.3925"><ele>0</ele><time>7.211102485656738-386.20001220703125-17.799999237060547T5.75:0:0Z</time></trkpt>
<trkpt lat="45.775422" lon="1.392522"><ele>0</ele><time>7.211102485656738-385.79998779296875-17.200000762939453T6.0:0:0Z</time></trkpt>
<trkpt lat="45.775475" lon="1.392545"><ele>0</ele><time>6.7082037925720215-385.79998779296875-17.700000762939453T6.0:0:0Z</time></trkpt>
<trkpt lat="45.775537" lon="1.392567"><ele>0</ele><time>5.0-385.70001220703125-17.0T6.0:0:0Z</time></trkpt>
<trkpt lat="45.77559" lon="1.392597"><ele>0</ele><time>5.0-385.8999938964844-17.899999618530273T5.75:0:0Z</time></trkpt>
<trkpt lat="45.775641" lon="1.392617"><ele>0</ele><time>7.211102485656738-385.6000061035156-18.399999618530273T5.75:0:0Z</time></trkpt>
<trkpt lat="45.77569" lon="1.392671"><ele>0</ele><time>5.0-385.20001220703125-21.799999237060547T5.75:0:0Z</time></trkpt>
<trkpt lat="45.775733" lon="1.392711"><ele>0</ele><time>3.605551242828369-384.29998779296875-21.600000381469727T5.5:0:0Z</time></trkpt>
<trkpt lat="45.77579" lon="1.392733"><ele>0</ele><time>3.605551242828369-384.0-18.299999237060547T5.75:0:0Z</time></trkpt>
<trkpt lat="45.77584" lon="1.392753"><ele>0</ele><time>3.605551242828369-383.5-15.0T5.75:0:0Z</time></trkpt>
<trkpt lat="45.775889" lon="1.392769"><ele>0</ele><time>3.605551242828369-383.6000061035156-9.5T5.522680282592773:0:0Z</time></trkpt>
<trkpt lat="45.775934" lon="1.392785"><ele>0</ele><time>3.605551242828369-383.70001220703125-10.600000381469727T5.2737555503845215:0:0Z</time></trkpt>
<trkpt lat="45.776013" lon="1.392795"><ele>0</ele><time>3.605551242828369-383.70001220703125-3.5999999046325684T4.5:0:0Z</time></trkpt>
<trkpt lat="45.776091" lon="1.392802"><ele>0</ele><time>2.8284270763397217-383.79998779296875-4.800000190734863T4.0:0:0Z</time></trkpt>
<trkpt lat="45.776158" lon="1.392814"><ele>0</ele><time>3.605551242828369-383.70001220703125-7.199999809265137T4.0:0:0Z</time></trkpt>
<trkpt lat="45.776215" lon="1.392823"><ele>0</ele><time>4.4721360206604-383.5-9.100000381469727T3.25:0:0Z</time></trkpt>
<trkpt lat="45.77627" lon="1.392796"><ele>0</ele><time>5.0-384.5-0.0T2.5:0:0Z</time></trkpt>
<trkpt lat="45.776326" lon="1.392835"><ele>0</ele><time>6.324555397033691-384.8999938964844-12.800000190734863T2.5:0:0Z</time></trkpt>
<trkpt lat="45.776375" lon="1.392862"><ele>0</ele><time>4.4721360206604-384.8999938964844-18.700000762939453T3.0:0:0Z</time></trkpt>
<trkpt lat="45.776425" lon="1.392888"><ele>0</ele><time>5.0-384.79998779296875-19.299999237060547T3.0:0:0Z</time></trkpt>
<trkpt lat="45.776485" lon="1.392913"><ele>0</ele><time>5.656854152679443-384.8999938964844-16.399999618530273T3.25:0:0Z</time></trkpt>
<trkpt lat="45.776534" lon="1.392944"><ele>0</ele><time>7.211102485656738-384.79998779296875-23.100000381469727T2.5:0:0Z</time></trkpt>
<trkpt lat="45.776559" lon="1.393024"><ele>0</ele><time>8.485280990600586-385.20001220703125-61.20000076293945T1.5:0:0Z</time></trkpt>
<trkpt lat="45.77653" lon="1.393091"><ele>0</ele><time>10.0-390.8999938964844-61.20000076293945T0.0:0:0Z</time></trkpt>
<trkpt lat="45.776579" lon="1.393111"><ele>0</ele><time>13.416407585144043-389.5-355.6000061035156T1.25:0:0Z</time></trkpt>
<trkpt lat="45.776628" lon="1.393049"><ele>0</ele><time>13.416407585144043-389.5-331.3999938964844T3.0:0:0Z</time></trkpt>
<trkpt lat="45.776685" lon="1.393012"><ele>0</ele><time>13.416407585144043-389.6000061035156-333.1000061035156T3.25:0:0Z</time></trkpt>
<trkpt lat="45.776741" lon="1.392987"><ele>0</ele><time>12.649110794067383-388.5-337.0T3.25:0:0Z</time></trkpt>
<trkpt lat="45.776786" lon="1.392918"><ele>0</ele><time>7.211102485656738-388.5-336.20001220703125T3.5:0:0Z</time></trkpt>
<trkpt lat="45.77684" lon="1.392884"><ele>0</ele><time>5.0-387.29998779296875-337.29998779296875T3.25:0:0Z</time></trkpt>
<trkpt lat="45.776895" lon="1.392863"><ele>0</ele><time>5.0-388.29998779296875-340.6000061035156T3.25:0:0Z</time></trkpt>
<trkpt lat="45.77694" lon="1.392816"><ele>0</ele><time>5.0-388.8999938964844-331.29998779296875T3.0:0:0Z</time></trkpt>
<trkpt lat="45.776986" lon="1.392754"><ele>0</ele><time>7.211102485656738-389.5-317.29998779296875T2.5:0:0Z</time></trkpt>
<trkpt lat="45.777019" lon="1.392685"><ele>0</ele><time>13.416407585144043-389.6000061035156-315.70001220703125T2.5:0:0Z</time></trkpt>
<trkpt lat="45.777048" lon="1.392627"><ele>0</ele><time>8.9442720413208-390.8999938964844-316.29998779296875T2.75:0:0Z</time></trkpt>
<trkpt lat="45.777092" lon="1.392556"><ele>0</ele><time>10.0-391.8999938964844-313.79998779296875T3.0:0:0Z</time></trkpt>
<trkpt lat="45.777127" lon="1.392507"><ele>0</ele><time>10.0-391.6000061035156-313.1000061035156T3.0:0:0Z</time></trkpt>
<trkpt lat="45.77717" lon="1.39243"><ele>0</ele><time>8.485280990600586-390.70001220703125-312.6000061035156T3.25:0:0Z</time></trkpt>
<trkpt lat="45.777212" lon="1.392373"><ele>0</ele><time>10.0-390.79998779296875-313.79998779296875T3.0:0:0Z</time></trkpt>
<trkpt lat="45.777244" lon="1.392307"><ele>0</ele><time>8.485280990600586-390.3999938964844-304.79998779296875T3.0:0:0Z</time></trkpt>
<trkpt lat="45.777253" lon="1.392231"><ele>0</ele><time>7.211102485656738-391.70001220703125-281.29998779296875T2.75:0:0Z</time></trkpt>
<trkpt lat="45.777251" lon="1.392144"><ele>0</ele><time>5.0-392.6000061035156-270.8999938964844T3.25:0:0Z</time></trkpt>
<trkpt lat="45.777239" lon="1.392075"><ele>0</ele><time>4.242640495300293-393.29998779296875-261.29998779296875T3.0:0:0Z</time></trkpt>
<trkpt lat="45.77722" lon="1.392003"><ele>0</ele><time>4.242640495300293-393.6000061035156-253.39999389648438T3.0:0:0Z</time></trkpt>
<trkpt lat="45.777187" lon="1.391918"><ele>0</ele><time>4.242640495300293-394.29998779296875-247.1999969482422T3.25:0:0Z</time></trkpt>
<trkpt lat="45.777175" lon="1.391823"><ele>0</ele><time>5.0-396.20001220703125-260.70001220703125T3.0:0:0Z</time></trkpt>
<trkpt lat="45.777177" lon="1.391741"><ele>0</ele><time>5.0-397.20001220703125-273.8999938964844T3.0:0:0Z</time></trkpt>
<trkpt lat="45.7772" lon="1.39167"><ele>0</ele><time>6.7082037925720215-397.29998779296875-288.5T2.25:0:0Z</time></trkpt>
<trkpt lat="45.777219" lon="1.391582"><ele>0</ele><time>6.7082037925720215-397.1000061035156-282.70001220703125T2.5:0:0Z</time></trkpt>
<trkpt lat="45.777241" lon="1.391509"><ele>0</ele><time>6.7082037925720215-397.20001220703125-287.79998779296875T2.5:0:0Z</time></trkpt>
<trkpt lat="45.777262" lon="1.391446"><ele>0</ele><time>7.211102485656738-397.20001220703125-293.20001220703125T2.5:0:0Z</time></trkpt>
<trkpt lat="45.777288" lon="1.391382"><ele>0</ele><time>8.5440034866333-397.3999938964844-296.6000061035156T2.5:0:0Z</time></trkpt>
<trkpt lat="45.777344" lon="1.391293"><ele>0</ele><time>8.9442720413208-397.29998779296875-315.70001220703125T2.75:0:0Z</time></trkpt>
<trkpt lat="45.777409" lon="1.391232"><ele>0</ele><time>8.9442720413208-397.79998779296875-322.70001220703125T2.75:0:0Z</time></trkpt>
<trkpt lat="45.777462" lon="1.39122"><ele>0</ele><time>6.7082037925720215-396.8999938964844-341.8999938964844T2.25:0:0Z</time></trkpt>
<trkpt lat="45.777527" lon="1.391221"><ele>0</ele><time>8.485280990600586-396.70001220703125-352.3999938964844T2.25:0:0Z</time></trkpt>
<trkpt lat="45.777581" lon="1.391228"><ele>0</ele><time>10.0-396.70001220703125-356.0T2.5:0:0Z</time></trkpt>
<trkpt lat="45.777631" lon="1.391233"><ele>0</ele><time>10.0-398.6000061035156-348.1000061035156T2.75:0:0Z</time></trkpt>
<trkpt lat="45.777694" lon="1.391233"><ele>0</ele><time>13.416407585144043-398.79998779296875-352.20001220703125T2.75:0:0Z</time></trkpt>
<trkpt lat="45.777751" lon="1.391233"><ele>0</ele><time>14.422204971313477-398.1000061035156-351.8999938964844T3.0:0:0Z</time></trkpt>
<trkpt lat="45.777818" lon="1.391228"><ele>0</ele><time>14.422204971313477-400.29998779296875-355.29998779296875T2.75:0:0Z</time></trkpt>
<trkpt lat="45.777887" lon="1.391229"><ele>0</ele><time>14.422204971313477-398.70001220703125-358.0T3.0:0:0Z</time></trkpt>
<trkpt lat="45.777943" lon="1.391206"><ele>0</ele><time>11.313708305358887-400.79998779296875-347.0T2.5:0:0Z</time></trkpt>
<trkpt lat="45.778021" lon="1.391185"><ele>0</ele><time>8.485280990600586-401.3999938964844-350.29998779296875T3.0:0:0Z</time></trkpt>
<trkpt lat="45.778075" lon="1.391168"><ele>0</ele><time>8.485280990600586-400.8999938964844-348.8999938964844T3.0:0:0Z</time></trkpt>
<trkpt lat="45.778139" lon="1.391154"><ele>0</ele><time>7.211102485656738-402.0-350.1000061035156T3.25:0:0Z</time></trkpt>
<trkpt lat="45.778188" lon="1.391146"><ele>0</ele><time>7.211102485656738-401.8999938964844-348.3999938964844T3.0:0:0Z</time></trkpt>
<trkpt lat="45.778236" lon="1.391135"><ele>0</ele><time>7.211102485656738-403.5-345.8999938964844T3.25:0:0Z</time></trkpt>
<trkpt lat="45.778298" lon="1.391128"><ele>0</ele><time>10.0-404.79998779296875-348.70001220703125T3.0:0:0Z</time></trkpt>
<trkpt lat="45.77835" lon="1.391112"><ele>0</ele><time>10.0-405.29998779296875-342.20001220703125T2.75:0:0Z</time></trkpt>
<trkpt lat="45.778406" lon="1.391091"><ele>0</ele><time>8.9442720413208-405.5-344.6000061035156T2.75:0:0Z</time></trkpt>
<trkpt lat="45.778458" lon="1.391052"><ele>0</ele><time>8.9442720413208-405.1000061035156-339.79998779296875T3.0:0:0Z</time></trkpt>
<trkpt lat="45.778508" lon="1.391036"><ele>0</ele><time>8.5440034866333-404.8999938964844-342.8999938964844T3.0:0:0Z</time></trkpt>
<trkpt lat="45.778589" lon="1.391009"><ele>0</ele><time>8.485280990600586-407.8999938964844-338.0T3.25:0:0Z</time></trkpt>
<trkpt lat="45.778636" lon="1.390972"><ele>0</ele><time>8.485280990600586-407.79998779296875-332.8999938964844T3.0:0:0Z</time></trkpt>
<trkpt lat="45.778697" lon="1.390957"><ele>0</ele><time>10.0-408.0-337.70001220703125T3.0:0:0Z</time></trkpt>
<trkpt lat="45.778749" lon="1.390917"><ele>0</ele><time>13.416407585144043-407.5-336.6000061035156T3.0:0:0Z</time></trkpt>
<trkpt lat="45.778799" lon="1.390881"><ele>0</ele><time>12.649110794067383-407.29998779296875-332.70001220703125T3.25:0:0Z</time></trkpt>
<trkpt lat="45.77885" lon="1.390838"><ele>0</ele><time>7.211102485656738-408.29998779296875-325.1000061035156T3.0:0:0Z</time></trkpt>
<trkpt lat="45.778879" lon="1.39075"><ele>0</ele><time>5.0-405.0-307.1000061035156T3.041381359100342:0:0Z</time></trkpt>
<trkpt lat="45.778921" lon="1.390685"><ele>0</ele><time>5.0-405.5-308.70001220703125T3.0:0:0Z</time></trkpt>
<trkpt lat="45.778977" lon="1.390618"><ele>0</ele><time>5.0-406.20001220703125-309.6000061035156T3.25:0:0Z</time></trkpt>
<trkpt lat="45.779008" lon="1.390568"><ele>0</ele><time>5.0-407.1000061035156-313.70001220703125T2.5495097637176514:0:0Z</time></trkpt>
<trkpt lat="45.779038" lon="1.390511"><ele>0</ele><time>5.0-407.20001220703125-308.1000061035156T2.5:0:0Z</time></trkpt>
<trkpt lat="45.77907" lon="1.390459"><ele>0</ele><time>4.4721360206604-407.70001220703125-304.8999938964844T2.5495097637176514:0:0Z</time></trkpt>
<trkpt lat="45.779108" lon="1.390401"><ele>0</ele><time>4.4721360206604-409.1000061035156-316.3999938964844T2.5495097637176514:0:0Z</time></trkpt>
<trkpt lat="45.779142" lon="1.390329"><ele>0</ele><time>4.4721360206604-409.5-305.6000061035156T2.25:0:0Z</time></trkpt>
<trkpt lat="45.77917" lon="1.390268"><ele>0</ele><time>5.0-409.8999938964844-305.8999938964844T2.5:0:0Z</time></trkpt>
<trkpt lat="45.779205" lon="1.390214"><ele>0</ele><time>6.7082037925720215-410.5-307.29998779296875T2.5:0:0Z</time></trkpt>
<trkpt lat="45.779237" lon="1.390159"><ele>0</ele><time>7.211102485656738-410.0-305.8999938964844T2.0:0:0Z</time></trkpt>
<trkpt lat="45.779261" lon="1.390097"><ele>0</ele><time>7.211102485656738-409.8999938964844-303.70001220703125T2.25:0:0Z</time></trkpt>
<trkpt lat="45.779309" lon="1.390045"><ele>0</ele><time>10.0-410.3999938964844-308.29998779296875T2.25:0:0Z</time></trkpt>
<trkpt lat="45.779359" lon="1.390012"><ele>0</ele><time>14.422204971313477-407.70001220703125-317.6000061035156T2.462214469909668:0:0Z</time></trkpt>
<trkpt lat="45.779392" lon="1.38994"><ele>0</ele><time>14.422204971313477-407.20001220703125-314.20001220703125T2.7950849533081055:0:0Z</time></trkpt>
<trkpt lat="45.779421" lon="1.389851"><ele>0</ele><time>16.970561981201172-406.79998779296875-303.0T3.25:0:0Z</time></trkpt>
<trkpt lat="45.779435" lon="1.389759"><ele>0</ele><time>16.970561981201172-408.6000061035156-295.29998779296875T2.25:0:0Z</time></trkpt>
<trkpt lat="45.779453" lon="1.389661"><ele>0</ele><time>22.627416610717773-410.0-292.8999938964844T2.25:0:0Z</time></trkpt>
<trkpt lat="45.779487" lon="1.389575"><ele>0</ele><time>20.0-410.79998779296875-300.70001220703125T2.5:0:0Z</time></trkpt>
<trkpt lat="45.779506" lon="1.389513"><ele>0</ele><time>20.0-411.1000061035156-302.3999938964844T2.75:0:0Z</time></trkpt>
<trkpt lat="45.779544" lon="1.389454"><ele>0</ele><time>16.970561981201172-411.8999938964844-308.1000061035156T2.75:0:0Z</time></trkpt>
<trkpt lat="45.77958" lon="1.389378"><ele>0</ele><time>20.0-412.79998779296875-307.5T2.75:0:0Z</time></trkpt>
<trkpt lat="45.779601" lon="1.38931"><ele>0</ele><time>16.970561981201172-413.20001220703125-301.5T2.5495097637176514:0:0Z</time></trkpt>
<trkpt lat="45.779635" lon="1.389254"><ele>0</ele><time>16.970561981201172-413.3999938964844-304.29998779296875T2.5495097637176514:0:0Z</time></trkpt>
<trkpt lat="45.779653" lon="1.389177"><ele>0</ele><time>16.970561981201172-415.29998779296875-292.5T2.75:0:0Z</time></trkpt>
<trkpt lat="45.779683" lon="1.389113"><ele>0</ele><time>16.970561981201172-417.0-293.3999938964844T3.0:0:0Z</time></trkpt>
<trkpt lat="45.779704" lon="1.389036"><ele>0</ele><time>20.0-418.8999938964844-285.79998779296875T2.5:0:0Z</time></trkpt>
<trkpt lat="45.779707" lon="1.38896"><ele>0</ele><time>20.0-420.70001220703125-281.29998779296875T2.5:0:0Z</time></trkpt>
<trkpt lat="45.779738" lon="1.388886"><ele>0</ele><time>16.970561981201172-419.0-299.0T2.9261748790740967:0:0Z</time></trkpt>
<trkpt lat="45.779763" lon="1.388823"><ele>0</ele><time>16.970561981201172-418.79998779296875-299.20001220703125T2.3048861026763916:0:0Z</time></trkpt>
<trkpt lat="45.77979" lon="1.388739"><ele>0</ele><time>20.0-419.20001220703125-304.70001220703125T2.5:0:0Z</time></trkpt>
<trkpt lat="45.77981" lon="1.388665"><ele>0</ele><time>20.0-420.5-293.0T2.5:0:0Z</time></trkpt>
<trkpt lat="45.779815" lon="1.388582"><ele>0</ele><time>20.0-424.1000061035156-272.79998779296875T1.75:0:0Z</time></trkpt>
<trkpt lat="45.7798" lon="1.388503"><ele>0</ele><time>26.832815170288086-426.3999938964844-249.10000610351563T1.5811388492584229:0:0Z</time></trkpt>
<trkpt lat="45.779817" lon="1.388406"><ele>0</ele><time>26.832815170288086-424.5-285.79998779296875T2.462214469909668:0:0Z</time></trkpt>
<trkpt lat="45.779849" lon="1.388325"><ele>0</ele><time>20.0-425.29998779296875-298.79998779296875T2.3048861026763916:0:0Z</time></trkpt>
<trkpt lat="45.779908" lon="1.388277"><ele>0</ele><time>20.0-425.8999938964844-320.70001220703125T2.5495097637176514:0:0Z</time></trkpt>
<trkpt lat="45.779955" lon="1.388238"><ele>0</ele><time>17.8885440826416-426.1000061035156-329.20001220703125T2.75:0:0Z</time></trkpt>
<trkpt lat="45.779998" lon="1.388209"><ele>0</ele><time>20.0-426.29998779296875-331.20001220703125T2.5:0:0Z</time></trkpt>
<trkpt lat="45.780032" lon="1.388164"><ele>0</ele><time>20.0-426.8999938964844-331.20001220703125T0.0:0:0Z</time></trkpt>
<trkpt lat="45.779997" lon="1.388215"><ele>0</ele><time>20.0-427.8999938964844-331.20001220703125T0.0:0:0Z</time></trkpt>
<trkpt lat="45.780044" lon="1.388196"><ele>0</ele><time>14.422204971313477-429.8999938964844-331.20001220703125T0.0:0:0Z</time></trkpt>
<trkpt lat="45.780082" lon="1.388249"><ele>0</ele><time>20.0-429.20001220703125-65.0999984741211T1.5:0:0Z</time></trkpt>
<trkpt lat="45.780104" lon="1.388312"><ele>0</ele><time>20.0-429.1000061035156-62.70000076293945T2.25:0:0Z</time></trkpt>
<trkpt lat="45.780166" lon="1.388365"><ele>0</ele><time>16.970561981201172-430.29998779296875-44.79999923706055T2.75:0:0Z</time></trkpt>
<trkpt lat="45.780223" lon="1.388443"><ele>0</ele><time>16.970561981201172-431.0-45.400001525878906T3.25:0:0Z</time></trkpt>
<trkpt lat="45.780274" lon="1.388516"><ele>0</ele><time>20.0-431.29998779296875-51.5T3.5:0:0Z</time></trkpt>
<trkpt lat="45.780305" lon="1.388591"><ele>0</ele><time>22.627416610717773-431.5-55.29999923706055T3.75:0:0Z</time></trkpt>
<trkpt lat="45.78034" lon="1.388669"><ele>0</ele><time>28.844409942626953-431.70001220703125-58.400001525878906T3.75:0:0Z</time></trkpt>
<trkpt lat="45.780348" lon="1.388755"><ele>0</ele><time>20.0-431.29998779296875-72.69999694824219T4.25:0:0Z</time></trkpt>
<trkpt lat="45.780364" lon="1.388821"><ele>0</ele><time>20.0-432.6000061035156-70.0T4.25:0:0Z</time></trkpt>
<trkpt lat="45.78039" lon="1.388925"><ele>0</ele><time>14.422204971313477-432.1000061035156-70.0999984741211T4.25:0:0Z</time></trkpt>
<trkpt lat="45.780445" lon="1.389014"><ele>0</ele><time>14.422204971313477-431.6000061035156-59.400001525878906T4.0:0:0Z</time></trkpt>
<trkpt lat="45.780475" lon="1.389087"><ele>0</ele><time>14.422204971313477-432.20001220703125-57.29999923706055T3.5:0:0Z</time></trkpt>
<trkpt lat="45.780527" lon="1.389155"><ele>0</ele><time>20.0-432.20001220703125-52.20000076293945T3.5:0:0Z</time></trkpt>
<trkpt lat="45.780585" lon="1.389221"><ele>0</ele><time>20.0-431.79998779296875-51.70000076293945T3.0:0:0Z</time></trkpt>
<trkpt lat="45.78066" lon="1.389254"><ele>0</ele><time>16.970561981201172-428.1000061035156-21.5T3.5794553756713867:0:0Z</time></trkpt>
<trkpt lat="45.780718" lon="1.389303"><ele>0</ele><time>16.970561981201172-427.5-25.200000762939453T3.041381359100342:0:0Z</time></trkpt>
<trkpt lat="45.780773" lon="1.389365"><ele>0</ele><time>14.422204971313477-427.0-35.20000076293945T3.041381359100342:0:0Z</time></trkpt>
<trkpt lat="45.780841" lon="1.389434"><ele>0</ele><time>14.422204971313477-425.20001220703125-41.5T3.535533905029297:0:0Z</time></trkpt>
<trkpt lat="45.780923" lon="1.389525"><ele>0</ele><time>14.422204971313477-425.6000061035156-26.700000762939453T3.25:0:0Z</time></trkpt>
<trkpt lat="45.780982" lon="1.389578"><ele>0</ele><time>14.422204971313477-426.79998779296875-27.799999237060547T3.5:0:0Z</time></trkpt>
<trkpt lat="45.781017" lon="1.389619"><ele>0</ele><time>13.416407585144043-425.5-31.799999237060547T3.288236618041992:0:0Z</time></trkpt>
<trkpt lat="45.781075" lon="1.389668"><ele>0</ele><time>10.0-424.8999938964844-30.299999237060547T3.288236618041992:0:0Z</time></trkpt>
<trkpt lat="45.781127" lon="1.389715"><ele>0</ele><time>14.422204971313477-425.5-29.700000762939453T3.25:0:0Z</time></trkpt>
<trkpt lat="45.78118" lon="1.389743"><ele>0</ele><time>14.422204971313477-427.0-16.100000381469727T2.75:0:0Z</time></trkpt>
<trkpt lat="45.78123" lon="1.389769"><ele>0</ele><time>16.970561981201172-426.79998779296875-17.0T3.0:0:0Z</time></trkpt>
<trkpt lat="45.781271" lon="1.389812"><ele>0</ele><time>16.970561981201172-427.20001220703125-21.5T3.5:0:0Z</time></trkpt>
<trkpt lat="45.781354" lon="1.389872"><ele>0</ele><time>16.970561981201172-429.29998779296875-16.899999618530273T3.75:0:0Z</time></trkpt>
<trkpt lat="45.781426" lon="1.389897"><ele>0</ele><time>20.0-429.5-12.899999618530273T4.0:0:0Z</time></trkpt>
<trkpt lat="45.781484" lon="1.389888"><ele>0</ele><time>20.0-430.5-5.699999809265137T4.5:0:0Z</time></trkpt>
<trkpt lat="45.781541" lon="1.389882"><ele>0</ele><time>20.0-431.20001220703125-2.0T5.0:0:0Z</time></trkpt>
<trkpt lat="45.781589" lon="1.389873"><ele>0</ele><time>25.298221588134766-431.0-358.8999938964844T5.0:0:0Z</time></trkpt>
<trkpt lat="45.78164" lon="1.389867"><ele>0</ele><time>25.298221588134766-431.20001220703125-356.70001220703125T5.25:0:0Z</time></trkpt>
<trkpt lat="45.781691" lon="1.389873"><ele>0</ele><time>17.8885440826416-431.1000061035156-1.0T5.771697998046875:0:0Z</time></trkpt>
<trkpt lat="45.781748" lon="1.389883"><ele>0</ele><time>17.8885440826416-431.29998779296875-3.4000000953674316T5.75:0:0Z</time></trkpt>
<trkpt lat="45.78181" lon="1.389904"><ele>0</ele><time>17.8885440826416-431.8999938964844-6.0T5.75:0:0Z</time></trkpt>
<trkpt lat="45.781855" lon="1.389922"><ele>0</ele><time>17.8885440826416-432.0-10.300000190734863T5.25:0:0Z</time></trkpt>
<trkpt lat="45.78191" lon="1.389924"><ele>0</ele><time>13.416407585144043-431.6000061035156-3.700000047683716T5.5:0:0Z</time></trkpt>
<trkpt lat="45.781967" lon="1.389914"><ele>0</ele><time>13.416407585144043-431.1000061035156-358.0T5.75:0:0Z</time></trkpt>
<trkpt lat="45.782004" lon="1.389867"><ele>0</ele><time>13.416407585144043-430.70001220703125-340.29998779296875T5.75:0:0Z</time></trkpt>
<trkpt lat="45.782049" lon="1.389825"><ele>0</ele><time>12.649110794067383-431.0-332.3999938964844T6.0:0:0Z</time></trkpt>
<trkpt lat="45.782101" lon="1.389786"><ele>0</ele><time>12.649110794067383-431.1000061035156-329.6000061035156T6.25:0:0Z</time></trkpt>
<trkpt lat="45.782147" lon="1.389747"><ele>0</ele><time>12.369317054748535-431.0-327.6000061035156T6.25:0:0Z</time></trkpt>
<trkpt lat="45.782181" lon="1.389688"><ele>0</ele><time>8.5440034866333-430.70001220703125-322.29998779296875T6.0:0:0Z</time></trkpt>
<trkpt lat="45.782202" lon="1.389617"><ele>0</ele><time>6.7082037925720215-430.6000061035156-317.29998779296875T6.0:0:0Z</time></trkpt>
<trkpt lat="45.782254" lon="1.389585"><ele>0</ele><time>5.0-430.1000061035156-320.70001220703125T5.75:0:0Z</time></trkpt>
<trkpt lat="45.782293" lon="1.389543"><ele>0</ele><time>4.4721360206604-430.29998779296875-320.79998779296875T5.75:0:0Z</time></trkpt>
<trkpt lat="45.782324" lon="1.389494"><ele>0</ele><time>4.4721360206604-430.6000061035156-319.0T5.5:0:0Z</time></trkpt>
<trkpt lat="45.782366" lon="1.389463"><ele>0</ele><time>3.605551242828369-430.79998779296875-329.3999938964844T5.522680282592773:0:0Z</time></trkpt>
<trkpt lat="45.782402" lon="1.389423"><ele>0</ele><time>3.605551242828369-431.0-332.1000061035156T5.25:0:0Z</time></trkpt>
<trkpt lat="45.782444" lon="1.389393"><ele>0</ele><time>3.605551242828369-431.3999938964844-331.79998779296875T5.25:0:0Z</time></trkpt>
<trkpt lat="45.78252" lon="1.389335"><ele>0</ele><time>3.605551242828369-431.20001220703125-332.1000061035156T4.75:0:0Z</time></trkpt>
<trkpt lat="45.782565" lon="1.389254"><ele>0</ele><time>3.605551242828369-432.6000061035156-320.3999938964844T4.25:0:0Z</time></trkpt>
<trkpt lat="45.782609" lon="1.389177"><ele>0</ele><time>2.8284270763397217-432.79998779296875-310.8999938964844T4.0:0:0Z</time></trkpt>
<trkpt lat="45.782633" lon="1.389101"><ele>0</ele><time>2.8284270763397217-433.1000061035156-299.8999938964844T3.535533905029297:0:0Z</time></trkpt>
<trkpt lat="45.782656" lon="1.389025"><ele>0</ele><time>2.8284270763397217-433.8999938964844-294.6000061035156T3.288236618041992:0:0Z</time></trkpt>
<trkpt lat="45.782691" lon="1.388942"><ele>0</ele><time>2.8284270763397217-434.79998779296875-296.79998779296875T3.535533905029297:0:0Z</time></trkpt>
<trkpt lat="45.782729" lon="1.388861"><ele>0</ele><time>3.605551242828369-435.6000061035156-300.79998779296875T3.535533905029297:0:0Z</time></trkpt>
<trkpt lat="45.78277" lon="1.388791"><ele>0</ele><time>4.4721360206604-435.5-304.0T3.5:0:0Z</time></trkpt>
<trkpt lat="45.782803" lon="1.388706"><ele>0</ele><time>3.605551242828369-437.79998779296875-299.8999938964844T3.8810436725616455:0:0Z</time></trkpt>
<trkpt lat="45.782838" lon="1.388623"><ele>0</ele><time>3.605551242828369-439.0-299.8999938964844T3.783186435699463:0:0Z</time></trkpt>
<trkpt lat="45.782877" lon="1.388564"><ele>0</ele><time>3.605551242828369-439.5-303.5T3.288236618041992:0:0Z</time></trkpt>
<trkpt lat="45.782919" lon="1.3885"><ele>0</ele><time>5.0-438.8999938964844-306.29998779296875T3.5:0:0Z</time></trkpt>
<trkpt lat="45.782949" lon="1.388425"><ele>0</ele><time>6.7082037925720215-438.5-303.5T3.5:0:0Z</time></trkpt>
<trkpt lat="45.782981" lon="1.388352"><ele>0</ele><time>6.7082037925720215-439.0-303.1000061035156T3.5:0:0Z</time></trkpt>
<trkpt lat="45.783025" lon="1.388274"><ele>0</ele><time>6.7082037925720215-438.79998779296875-301.6000061035156T3.5:0:0Z</time></trkpt>
<trkpt lat="45.783023" lon="1.388189"><ele>0</ele><time>3.605551242828369-439.29998779296875-284.0T3.25:0:0Z</time></trkpt>
<trkpt lat="45.783051" lon="1.38808"><ele>0</ele><time>2.8284270763397217-441.0-280.29998779296875T4.031128883361816:0:0Z</time></trkpt>
<trkpt lat="45.783074" lon="1.387974"><ele>0</ele><time>2.8284270763397217-442.0-280.0T3.75:0:0Z</time></trkpt>
<trkpt lat="45.783111" lon="1.387887"><ele>0</ele><time>2.8284270763397217-441.3999938964844-292.1000061035156T4.0:0:0Z</time></trkpt>
<trkpt lat="45.783141" lon="1.387792"><ele>0</ele><time>3.605551242828369-441.29998779296875-292.6000061035156T4.0:0:0Z</time></trkpt>
<trkpt lat="45.783176" lon="1.387686"><ele>0</ele><time>4.4721360206604-441.1000061035156-294.20001220703125T4.25:0:0Z</time></trkpt>
<trkpt lat="45.783213" lon="1.387584"><ele>0</ele><time>6.7082037925720215-440.6000061035156-295.20001220703125T4.25:0:0Z</time></trkpt>
<trkpt lat="45.78325" lon="1.387482"><ele>0</ele><time>6.7082037925720215-440.8999938964844-296.70001220703125T4.25:0:0Z</time></trkpt>
<trkpt lat="45.783296" lon="1.387396"><ele>0</ele><time>6.7082037925720215-440.3999938964844-303.0T4.0:0:0Z</time></trkpt>
<trkpt lat="45.783331" lon="1.387321"><ele>0</ele><time>6.7082037925720215-440.1000061035156-301.79998779296875T4.0:0:0Z</time></trkpt>
<trkpt lat="45.783374" lon="1.387233"><ele>0</ele><time>6.7082037925720215-440.1000061035156-302.3999938964844T4.0:0:0Z</time></trkpt>
<trkpt lat="45.783411" lon="1.387134"><ele>0</ele><time>6.7082037925720215-440.1000061035156-300.5T4.0:0:0Z</time></trkpt>
<trkpt lat="45.783447" lon="1.387064"><ele>0</ele><time>4.4721360206604-440.0-303.20001220703125T4.0:0:0Z</time></trkpt>
<trkpt lat="45.783468" lon="1.386971"><ele>0</ele><time>5.0-440.29998779296875-299.1000061035156T3.75:0:0Z</time></trkpt>
<trkpt lat="45.783521" lon="1.38688"><ele>0</ele><time>5.0-441.0-302.0T4.0:0:0Z</time></trkpt>
<trkpt lat="45.783553" lon="1.386831"><ele>0</ele><time>5.0-441.6000061035156-304.6000061035156T4.25:0:0Z</time></trkpt>
<trkpt lat="45.783586" lon="1.386745"><ele>0</ele><time>5.0-441.70001220703125-301.8999938964844T4.0:0:0Z</time></trkpt>
<trkpt lat="45.783624" lon="1.386658"><ele>0</ele><time>4.4721360206604-442.20001220703125-302.1000061035156T3.75:0:0Z</time></trkpt>
<trkpt lat="45.783655" lon="1.386588"><ele>0</ele><time>6.324555397033691-442.6000061035156-303.0T3.5:0:0Z</time></trkpt>
<trkpt lat="45.783662" lon="1.386504"><ele>0</ele><time>4.4721360206604-443.5-293.6000061035156T3.288236618041992:0:0Z</time></trkpt>
<trkpt lat="45.783694" lon="1.386447"><ele>0</ele><time>4.4721360206604-443.8999938964844-302.1000061035156T3.041381359100342:0:0Z</time></trkpt>
<trkpt lat="45.783729" lon="1.386376"><ele>0</ele><time>4.4721360206604-444.70001220703125-304.70001220703125T3.25:0:0Z</time></trkpt>
<trkpt lat="45.783766" lon="1.386302"><ele>0</ele><time>4.4721360206604-445.6000061035156-307.8999938964844T3.25:0:0Z</time></trkpt>
<trkpt lat="45.78384" lon="1.386284"><ele>0</ele><time>3.605551242828369-445.70001220703125-329.29998779296875T3.0:0:0Z</time></trkpt>
<trkpt lat="45.783898" lon="1.386259"><ele>0</ele><time>4.4721360206604-445.5-336.20001220703125T3.0:0:0Z</time></trkpt>
<trkpt lat="45.783952" lon="1.386217"><ele>0</ele><time>4.4721360206604-446.0-332.29998779296875T3.25:0:0Z</time></trkpt>
<trkpt lat="45.784019" lon="1.386191"><ele>0</ele><time>3.605551242828369-447.0-335.70001220703125T3.25:0:0Z</time></trkpt>
<trkpt lat="45.784073" lon="1.386164"><ele>0</ele><time>3.605551242828369-446.1000061035156-334.20001220703125T3.25:0:0Z</time></trkpt>
<trkpt lat="45.784139" lon="1.386137"><ele>0</ele><time>3.605551242828369-446.5-339.3999938964844T3.25:0:0Z</time></trkpt>
<trkpt lat="45.784202" lon="1.386101"><ele>0</ele><time>2.8284270763397217-447.8999938964844-342.0T3.783186435699463:0:0Z</time></trkpt>
<trkpt lat="45.784268" lon="1.386076"><ele>0</ele><time>3.605551242828369-449.20001220703125-346.6000061035156T4.031128883361816:0:0Z</time></trkpt>
<trkpt lat="45.784334" lon="1.386049"><ele>0</ele><time>3.605551242828369-450.0-346.3999938964844T4.0:0:0Z</time></trkpt>
<trkpt lat="45.784411" lon="1.386037"><ele>0</ele><time>4.242640495300293-450.20001220703125-352.79998779296875T4.25:0:0Z</time></trkpt>
<trkpt lat="45.784487" lon="1.386026"><ele>0</ele><time>4.242640495300293-450.79998779296875-353.79998779296875T4.25:0:0Z</time></trkpt>
<trkpt lat="45.784561" lon="1.386025"><ele>0</ele><time>5.0-450.79998779296875-356.1000061035156T4.0:0:0Z</time></trkpt>
<trkpt lat="45.784632" lon="1.386028"><ele>0</ele><time>5.0-450.20001220703125-354.6000061035156T4.25:0:0Z</time></trkpt>
<trkpt lat="45.784677" lon="1.386036"><ele>0</ele><time>5.0-449.8999938964844-358.0T4.25:0:0Z</time></trkpt>
<trkpt lat="45.784756" lon="1.386042"><ele>0</ele><time>4.242640495300293-450.1000061035156-359.0T4.5:0:0Z</time></trkpt>
<trkpt lat="45.78483" lon="1.386053"><ele>0</ele><time>4.242640495300293-449.6000061035156-2.799999952316284T4.279310703277588:0:0Z</time></trkpt>
<trkpt lat="45.784912" lon="1.38607"><ele>0</ele><time>3.605551242828369-450.3999938964844-12.399999618530273T4.5:0:0Z</time></trkpt>
<trkpt lat="45.784992" lon="1.386092"><ele>0</ele><time>3.605551242828369-450.70001220703125-13.0T4.5:0:0Z</time></trkpt>
<trkpt lat="45.785069" lon="1.386114"><ele>0</ele><time>4.242640495300293-450.8999938964844-12.100000381469727T4.25:0:0Z</time></trkpt>
<trkpt lat="45.785128" lon="1.386108"><ele>0</ele><time>4.242640495300293-451.20001220703125-4.099999904632568T3.75:0:0Z</time></trkpt>
<trkpt lat="45.78519" lon="1.386126"><ele>0</ele><time>5.0-451.20001220703125-7.699999809265137T3.75:0:0Z</time></trkpt>
<trkpt lat="45.785251" lon="1.386134"><ele>0</ele><time>5.0-451.3999938964844-7.099999904632568T3.75:0:0Z</time></trkpt>
<trkpt lat="45.785309" lon="1.386132"><ele>0</ele><time>6.7082037925720215-451.6000061035156-359.3999938964844T3.5:0:0Z</time></trkpt>
<trkpt lat="45.785382" lon="1.386146"><ele>0</ele><time>8.9442720413208-451.5-0.20000000298023224T4.0:0:0Z</time></trkpt>
<trkpt lat="45.785449" lon="1.386141"><ele>0</ele><time>13.416407585144043-450.5-358.6000061035156T4.0:0:0Z</time></trkpt>
<trkpt lat="45.785498" lon="1.386139"><ele>0</ele><time>13.416407585144043-450.1000061035156-356.5T4.25:0:0Z</time></trkpt>
<trkpt lat="45.785545" lon="1.386129"><ele>0</ele><time>10.0-450.1000061035156-352.3999938964844T4.5:0:0Z</time></trkpt>
<trkpt lat="45.785628" lon="1.386134"><ele>0</ele><time>7.211102485656738-450.6000061035156-355.1000061035156T4.5:0:0Z</time></trkpt>
<trkpt lat="45.785675" lon="1.386129"><ele>0</ele><time>7.211102485656738-450.5-353.3999938964844T4.5:0:0Z</time></trkpt>
<trkpt lat="45.785747" lon="1.386108"><ele>0</ele><time>6.7082037925720215-450.6000061035156-347.70001220703125T4.25:0:0Z</time></trkpt>
<trkpt lat="45.785822" lon="1.38609"><ele>0</ele><time>6.7082037925720215-449.79998779296875-346.6000061035156T4.25:0:0Z</time></trkpt>
<trkpt lat="45.785905" lon="1.386065"><ele>0</ele><time>6.324555397033691-450.3999938964844-347.6000061035156T4.5:0:0Z</time></trkpt>
<trkpt lat="45.785984" lon="1.386054"><ele>0</ele><time>4.4721360206604-451.6000061035156-348.1000061035156T4.527692794799805:0:0Z</time></trkpt>
<trkpt lat="45.786065" lon="1.386047"><ele>0</ele><time>4.4721360206604-450.8999938964844-349.5T4.279310703277588:0:0Z</time></trkpt>
<trkpt lat="45.78618" lon="1.386031"><ele>0</ele><time>4.4721360206604-450.5-349.8999938964844T4.0:0:0Z</time></trkpt>
<trkpt lat="45.786267" lon="1.386031"><ele>0</ele><time>4.4721360206604-450.3999938964844-354.20001220703125T4.5:0:0Z</time></trkpt>
<trkpt lat="45.78635" lon="1.386011"><ele>0</ele><time>4.4721360206604-450.29998779296875-352.0T4.5:0:0Z</time></trkpt>
<trkpt lat="45.786398" lon="1.386013"><ele>0</ele><time>3.605551242828369-450.3999938964844-354.6000061035156T4.75:0:0Z</time></trkpt>
<trkpt lat="45.786467" lon="1.385977"><ele>0</ele><time>3.605551242828369-449.6000061035156-350.3999938964844T4.75:0:0Z</time></trkpt>
<trkpt lat="45.786522" lon="1.385977"><ele>0</ele><time>3.605551242828369-448.6000061035156-350.8999938964844T5.0:0:0Z</time></trkpt>
<trkpt lat="45.786599" lon="1.385946"><ele>0</ele><time>2.8284270763397217-448.6000061035156-349.20001220703125T4.75:0:0Z</time></trkpt>
<trkpt lat="45.786687" lon="1.385923"><ele>0</ele><time>2.8284270763397217-449.20001220703125-349.20001220703125T5.0:0:0Z</time></trkpt>
<trkpt lat="45.786732" lon="1.385911"><ele>0</ele><time>2.8284270763397217-448.8999938964844-348.79998779296875T5.0:0:0Z</time></trkpt>
<trkpt lat="45.786777" lon="1.385899"><ele>0</ele><time>3.605551242828369-448.70001220703125-348.29998779296875T5.25:0:0Z</time></trkpt>
<trkpt lat="45.786829" lon="1.385894"><ele>0</ele><time>3.605551242828369-449.0-350.79998779296875T5.25:0:0Z</time></trkpt>
<trkpt lat="45.786877" lon="1.385881"><ele>0</ele><time>3.605551242828369-448.8999938964844-350.79998779296875T5.5:0:0Z</time></trkpt>
<trkpt lat="45.786927" lon="1.385873"><ele>0</ele><time>3.605551242828369-449.5-351.0T5.5:0:0Z</time></trkpt>
<trkpt lat="45.786976" lon="1.385857"><ele>0</ele><time>3.605551242828369-449.6000061035156-351.5T5.5:0:0Z</time></trkpt>
<trkpt lat="45.787065" lon="1.38584"><ele>0</ele><time>4.4721360206604-449.1000061035156-350.6000061035156T5.5:0:0Z</time></trkpt>
<trkpt lat="45.787114" lon="1.385824"><ele>0</ele><time>6.324555397033691-449.3999938964844-350.20001220703125T5.5:0:0Z</time></trkpt>
<trkpt lat="45.787165" lon="1.385821"><ele>0</ele><time>6.324555397033691-449.70001220703125-351.20001220703125T5.5:0:0Z</time></trkpt>
<trkpt lat="45.787263" lon="1.385811"><ele>0</ele><time>6.324555397033691-450.3999938964844-351.0T5.25:0:0Z</time></trkpt>
<trkpt lat="45.78731" lon="1.385801"><ele>0</ele><time>4.4721360206604-450.5-350.8999938964844T5.0:0:0Z</time></trkpt>
<trkpt lat="45.787384" lon="1.385779"><ele>0</ele><time>4.242640495300293-451.6000061035156-350.5T4.5:0:0Z</time></trkpt>
<trkpt lat="45.787428" lon="1.385769"><ele>0</ele><time>3.605551242828369-451.8999938964844-351.1000061035156T4.75:0:0Z</time></trkpt>
<trkpt lat="45.787514" lon="1.385749"><ele>0</ele><time>3.605551242828369-452.29998779296875-352.20001220703125T4.75:0:0Z</time></trkpt>
<trkpt lat="45.78756" lon="1.385738"><ele>0</ele><time>3.605551242828369-452.20001220703125-351.6000061035156T5.0:0:0Z</time></trkpt>
<trkpt lat="45.787644" lon="1.385722"><ele>0</ele><time>3.605551242828369-451.5-347.20001220703125T5.0:0:0Z</time></trkpt>
<trkpt lat="45.787686" lon="1.385698"><ele>0</ele><time>4.4721360206604-451.3999938964844-340.3999938964844T5.0:0:0Z</time></trkpt>
<trkpt lat="45.787726" lon="1.385667"><ele>0</ele><time>4.4721360206604-451.29998779296875-335.8999938964844T5.0:0:0Z</time></trkpt>
<trkpt lat="45.787768" lon="1.385639"><ele>0</ele><time>6.7082037925720215-451.3999938964844-335.8999938964844T5.0:0:0Z</time></trkpt>
<trkpt lat="45.78781" lon="1.385568"><ele>0</ele><time>8.9442720413208-451.3999938964844-327.0T6.25:0:0Z</time></trkpt>
<trkpt lat="45.787852" lon="1.385501"><ele>0</ele><time>12.649110794067383-451.1000061035156-323.79998779296875T5.75:0:0Z</time></trkpt>
<trkpt lat="45.787906" lon="1.385419"><ele>0</ele><time>17.0880069732666-451.29998779296875-321.1000061035156T4.75:0:0Z</time></trkpt>
<trkpt lat="45.787952" lon="1.385323"><ele>0</ele><time>25.298221588134766-451.70001220703125-316.79998779296875T4.25:0:0Z</time></trkpt>
<trkpt lat="45.787998" lon="1.385245"><ele>0</ele><time>26.832815170288086-452.1000061035156-316.70001220703125T4.25:0:0Z</time></trkpt>
<trkpt lat="45.78797" lon="1.385175"><ele>0</ele><time>20.0-453.6000061035156-312.6000061035156T2.75:0:0Z</time></trkpt>
<trkpt lat="45.788009" lon="1.385131"><ele>0</ele><time>20.0-454.0-312.70001220703125T2.75:0:0Z</time></trkpt>
<trkpt lat="45.788051" lon="1.385054"><ele>0</ele><time>17.8885440826416-453.79998779296875-310.70001220703125T3.0:0:0Z</time></trkpt>
<trkpt lat="45.788102" lon="1.384982"><ele>0</ele><time>17.8885440826416-453.20001220703125-311.5T3.5:0:0Z</time></trkpt>
<trkpt lat="45.788164" lon="1.384928"><ele>0</ele><time>17.8885440826416-452.29998779296875-315.29998779296875T3.75:0:0Z</time></trkpt>
<trkpt lat="45.788221" lon="1.384879"><ele>0</ele><time>17.0880069732666-452.1000061035156-318.5T3.75:0:0Z</time></trkpt>
<trkpt lat="45.788244" lon="1.384801"><ele>0</ele><time>13.416407585144043-452.20001220703125-316.29998779296875T3.5:0:0Z</time></trkpt>
<trkpt lat="45.788315" lon="1.384757"><ele>0</ele><time>12.649110794067383-451.8999938964844-323.6000061035156T3.75:0:0Z</time></trkpt>
<trkpt lat="45.788376" lon="1.384702"><ele>0</ele><time>12.369317054748535-451.6000061035156-324.8999938964844T4.0:0:0Z</time></trkpt>
<trkpt lat="45.78843" lon="1.38463"><ele>0</ele><time>12.369317054748535-452.79998779296875-324.20001220703125T4.0:0:0Z</time></trkpt>
<trkpt lat="45.788452" lon="1.384552"><ele>0</ele><time>8.5440034866333-453.1000061035156-315.6000061035156T3.5:0:0Z</time></trkpt>
<trkpt lat="45.788507" lon="1.384496"><ele>0</ele><time>12.369317054748535-452.8999938964844-318.20001220703125T3.75:0:0Z</time></trkpt>
<trkpt lat="45.788575" lon="1.384443"><ele>0</ele><time>8.5440034866333-452.79998779296875-321.70001220703125T4.0:0:0Z</time></trkpt>
<trkpt lat="45.788645" lon="1.384388"><ele>0</ele><time>8.5440034866333-453.1000061035156-323.70001220703125T4.0:0:0Z</time></trkpt>
<trkpt lat="45.788726" lon="1.384338"><ele>0</ele><time>6.7082037925720215-452.20001220703125-326.29998779296875T4.25:0:0Z</time></trkpt>
<trkpt lat="45.788787" lon="1.384274"><ele>0</ele><time>6.7082037925720215-452.5-326.5T4.25:0:0Z</time></trkpt>
<trkpt lat="45.788824" lon="1.384232"><ele>0</ele><time>6.324555397033691-452.29998779296875-324.6000061035156T4.5:0:0Z</time></trkpt>
<trkpt lat="45.788853" lon="1.384139"><ele>0</ele><time>5.0-455.70001220703125-321.6000061035156T4.031128883361816:0:0Z</time></trkpt>
<trkpt lat="45.788913" lon="1.3841"><ele>0</ele><time>5.0-456.79998779296875-333.0T4.031128883361816:0:0Z</time></trkpt>
<trkpt lat="45.788998" lon="1.384057"><ele>0</ele><time>4.242640495300293-456.70001220703125-337.3999938964844T4.25:0:0Z</time></trkpt>
<trkpt lat="45.78907" lon="1.38402"><ele>0</ele><time>5.656854152679443-456.79998779296875-337.1000061035156T4.25:0:0Z</time></trkpt>
<trkpt lat="45.789116" lon="1.384003"><ele>0</ele><time>7.211102485656738-457.20001220703125-338.6000061035156T4.5:0:0Z</time></trkpt>
<trkpt lat="45.789162" lon="1.383969"><ele>0</ele><time>7.211102485656738-457.0-338.0T4.75:0:0Z</time></trkpt>
<trkpt lat="45.789229" lon="1.383912"><ele>0</ele><time>10.0-457.1000061035156-332.20001220703125T4.5:0:0Z</time></trkpt>
<trkpt lat="45.789297" lon="1.383859"><ele>0</ele><time>10.0-457.70001220703125-333.1000061035156T4.5:0:0Z</time></trkpt>
<trkpt lat="45.789366" lon="1.383828"><ele>0</ele><time>8.485280990600586-457.20001220703125-334.8999938964844T4.25:0:0Z</time></trkpt>
<trkpt lat="45.789434" lon="1.383758"><ele>0</ele><time>5.0-456.8999938964844-328.1000061035156T4.75:0:0Z</time></trkpt>
<trkpt lat="45.789475" lon="1.383731"><ele>0</ele><time>5.0-456.79998779296875-330.29998779296875T4.75:0:0Z</time></trkpt>
<trkpt lat="45.789544" lon="1.383678"><ele>0</ele><time>5.0-457.3999938964844-329.29998779296875T4.5:0:0Z</time></trkpt>
<trkpt lat="45.789585" lon="1.38365"><ele>0</ele><time>5.0-457.3999938964844-330.3999938964844T4.5:0:0Z</time></trkpt>
<trkpt lat="45.789646" lon="1.383604"><ele>0</ele><time>3.605551242828369-456.20001220703125-332.5T4.031128883361816:0:0Z</time></trkpt>
<trkpt lat="45.789708" lon="1.383558"><ele>0</ele><time>3.605551242828369-455.6000061035156-331.6000061035156T4.031128883361816:0:0Z</time></trkpt>
<trkpt lat="45.789752" lon="1.383516"><ele>0</ele><time>4.242640495300293-456.3999938964844-328.79998779296875T3.0:0:0Z</time></trkpt>
<trkpt lat="45.789802" lon="1.383458"><ele>0</ele><time>7.211102485656738-455.6000061035156-334.20001220703125T2.3048861026763916:0:0Z</time></trkpt>
<trkpt lat="45.789828" lon="1.383394"><ele>0</ele><time>7.211102485656738-459.79998779296875-304.20001220703125T1.25:0:0Z</time></trkpt>
<trkpt lat="45.78983" lon="1.383327"><ele>0</ele><time>11.313708305358887-461.6000061035156-311.3999938964844T0.75:0:0Z</time></trkpt>
<trkpt lat="45.789813" lon="1.383389"><ele>0</ele><time>28.844409942626953-464.1000061035156-311.3999938964844T0.0:0:0Z</time></trkpt>
<trkpt lat="45.78985" lon="1.383335"><ele>0</ele><time>22.627416610717773-461.3999938964844-311.3999938964844T0.25:0:0Z</time></trkpt>
<trkpt lat="45.789896" lon="1.383333"><ele>0</ele><time>16.970561981201172-462.20001220703125-311.3999938964844T0.0:0:0Z</time></trkpt>
<trkpt lat="45.789901" lon="1.383397"><ele>0</ele><time>16.970561981201172-465.20001220703125-311.3999938964844T0.0:0:0Z</time></trkpt>
<trkpt lat="45.789911" lon="1.383466"><ele>0</ele><time>22.627416610717773-463.3999938964844-311.3999938964844T0.0:0:0Z</time></trkpt>
<trkpt lat="45.789876" lon="1.38351"><ele>0</ele><time>28.844409942626953-464.29998779296875-311.3999938964844T0.0:0:0Z</time></trkpt>
<trkpt lat="45.789869" lon="1.383444"><ele>0</ele><time>22.627416610717773-463.0-311.3999938964844T0.25:0:0Z</time></trkpt>
<trkpt lat="45.789896" lon="1.383414"><ele>0</ele><time>33.941123962402344-462.5-327.79998779296875T0.0:0:0Z</time></trkpt>
<trkpt lat="45.789861" lon="1.383378"><ele>0</ele><time>26.832815170288086-462.0-118.0999984741211T0.0:0:0Z</time></trkpt>
<trkpt lat="45.789856" lon="1.383368"><ele>0</ele><time>26.832815170288086-462.20001220703125-118.0999984741211T0.0:0:0Z</time></trkpt>
<trkpt lat="45.789817" lon="1.383329"><ele>0</ele><time>22.627416610717773-463.29998779296875-236.0T0.75:0:0Z</time></trkpt>
<trkpt lat="45.789768" lon="1.383256"><ele>0</ele><time>22.627416610717773-466.0-214.3000030517578T1.5:0:0Z</time></trkpt>
<trkpt lat="45.78972" lon="1.38321"><ele>0</ele><time>22.627416610717773-465.29998779296875-223.5T2.5:0:0Z</time></trkpt>
<trkpt lat="45.789715" lon="1.383001"><ele>0</ele><time>20.0-462.1000061035156-236.8000030517578T3.0:0:0Z</time></trkpt>
<trkpt lat="45.789691" lon="1.382921"><ele>0</ele><time>17.8885440826416-459.6000061035156-237.10000610351563T3.0:0:0Z</time></trkpt>
<trkpt lat="45.789663" lon="1.382853"><ele>0</ele><time>17.8885440826416-458.0-234.60000610351563T3.0:0:0Z</time></trkpt>
<trkpt lat="45.789634" lon="1.382767"><ele>0</ele><time>13.416407585144043-457.8999938964844-237.3000030517578T3.25:0:0Z</time></trkpt>
<trkpt lat="45.789603" lon="1.382696"><ele>0</ele><time>13.416407585144043-457.5-233.8000030517578T3.0:0:0Z</time></trkpt>
<trkpt lat="45.789573" lon="1.382636"><ele>0</ele><time>13.416407585144043-458.3999938964844-231.1999969482422T2.3048861026763916:0:0Z</time></trkpt>
<trkpt lat="45.78954" lon="1.382551"><ele>0</ele><time>10.0-457.6000061035156-235.39999389648438T2.5:0:0Z</time></trkpt>
<trkpt lat="45.789491" lon="1.382463"><ele>0</ele><time>10.0-458.5-227.5T3.0:0:0Z</time></trkpt>
<trkpt lat="45.789457" lon="1.382397"><ele>0</ele><time>10.0-459.3999938964844-230.39999389648438T2.75:0:0Z</time></trkpt>
<trkpt lat="45.789428" lon="1.38233"><ele>0</ele><time>10.0-460.0-236.89999389648438T2.75:0:0Z</time></trkpt>
<trkpt lat="45.789397" lon="1.382269"><ele>0</ele><time>14.422204971313477-460.70001220703125-225.39999389648438T2.7950849533081055:0:0Z</time></trkpt>
<trkpt lat="45.789356" lon="1.382232"><ele>0</ele><time>20.0-462.1000061035156-207.0T1.5:0:0Z</time></trkpt>
<trkpt lat="45.789294" lon="1.382205"><ele>0</ele><time>26.832815170288086-463.0-202.0T1.75:0:0Z</time></trkpt>
<trkpt lat="45.78923" lon="1.382191"><ele>0</ele><time>26.832815170288086-463.8999938964844-196.0T2.0:0:0Z</time></trkpt>
<trkpt lat="45.789172" lon="1.382187"><ele>0</ele><time>26.832815170288086-463.0-189.60000610351563T2.25:0:0Z</time></trkpt>
<trkpt lat="45.789088" lon="1.382186"><ele>0</ele><time>26.832815170288086-463.70001220703125-175.8000030517578T2.25:0:0Z</time></trkpt>
<trkpt lat="45.788996" lon="1.382187"><ele>0</ele><time>28.844409942626953-461.1000061035156-182.60000610351563T3.0:0:0Z</time></trkpt>
<trkpt lat="45.788942" lon="1.382181"><ele>0</ele><time>22.627416610717773-461.0-178.5T2.5:0:0Z</time></trkpt>
<trkpt lat="45.788872" lon="1.382148"><ele>0</ele><time>28.844409942626953-460.6000061035156-191.60000610351563T2.75:0:0Z</time></trkpt>
<trkpt lat="45.788816" lon="1.382082"><ele>0</ele><time>28.844409942626953-461.20001220703125-206.89999389648438T3.0:0:0Z</time></trkpt>
<trkpt lat="45.788782" lon="1.382016"><ele>0</ele><time>28.844409942626953-461.6000061035156-212.89999389648438T2.75:0:0Z</time></trkpt>
<trkpt lat="45.788761" lon="1.381956"><ele>0</ele><time>28.844409942626953-463.1000061035156-218.10000610351563T2.25:0:0Z</time></trkpt>
<trkpt lat="45.788694" lon="1.381896"><ele>0</ele><time>22.627416610717773-467.3999938964844-205.10000610351563T2.9261748790740967:0:0Z</time></trkpt>
<trkpt lat="45.788659" lon="1.381823"><ele>0</ele><time>22.627416610717773-468.20001220703125-206.89999389648438T2.5495097637176514:0:0Z</time></trkpt>
<trkpt lat="45.788607" lon="1.381792"><ele>0</ele><time>22.627416610717773-469.29998779296875-198.0T2.5495097637176514:0:0Z</time></trkpt>
<trkpt lat="45.788571" lon="1.381749"><ele>0</ele><time>22.627416610717773-469.70001220703125-201.8000030517578T2.25:0:0Z</time></trkpt>
<trkpt lat="45.78853" lon="1.381706"><ele>0</ele><time>22.627416610717773-469.79998779296875-208.8000030517578T2.5:0:0Z</time></trkpt>
<trkpt lat="45.788458" lon="1.381681"><ele>0</ele><time>22.627416610717773-468.8999938964844-200.39999389648438T2.75:0:0Z</time></trkpt>
<trkpt lat="45.788397" lon="1.381641"><ele>0</ele><time>22.627416610717773-470.3999938964844-202.60000610351563T2.75:0:0Z</time></trkpt>
<trkpt lat="45.788358" lon="1.381581"><ele>0</ele><time>22.627416610717773-470.1000061035156-213.3000030517578T3.0:0:0Z</time></trkpt>
<trkpt lat="45.788315" lon="1.38153"><ele>0</ele><time>22.627416610717773-470.29998779296875-204.0T2.75:0:0Z</time></trkpt>
<trkpt lat="45.788263" lon="1.381489"><ele>0</ele><time>28.844409942626953-470.20001220703125-207.10000610351563T2.75:0:0Z</time></trkpt>
<trkpt lat="45.788219" lon="1.381447"><ele>0</ele><time>28.844409942626953-470.20001220703125-209.3000030517578T3.75:0:0Z</time></trkpt>
<trkpt lat="45.788163" lon="1.381407"><ele>0</ele><time>28.844409942626953-470.6000061035156-200.89999389648438T3.5:0:0Z</time></trkpt>
<trkpt lat="45.788111" lon="1.381361"><ele>0</ele><time>28.844409942626953-469.8999938964844-201.8000030517578T2.75:0:0Z</time></trkpt>
<trkpt lat="45.788027" lon="1.381308"><ele>0</ele><time>22.627416610717773-468.79998779296875-202.1999969482422T3.0:0:0Z</time></trkpt>
<trkpt lat="45.787973" lon="1.381232"><ele>0</ele><time>22.627416610717773-469.1000061035156-203.5T3.0:0:0Z</time></trkpt>
<trkpt lat="45.787898" lon="1.381189"><ele>0</ele><time>22.627416610717773-469.3999938964844-198.0T2.75:0:0Z</time></trkpt>
<trkpt lat="45.78784" lon="1.381159"><ele>0</ele><time>22.627416610717773-471.1000061035156-192.0T2.75:0:0Z</time></trkpt>
<trkpt lat="45.787786" lon="1.381121"><ele>0</ele><time>22.627416610717773-471.29998779296875-196.60000610351563T2.75:0:0Z</time></trkpt>
<trkpt lat="45.787731" lon="1.381074"><ele>0</ele><time>22.627416610717773-471.79998779296875-203.3000030517578T3.0:0:0Z</time></trkpt>
<trkpt lat="45.787676" lon="1.381031"><ele>0</ele><time>28.844409942626953-472.6000061035156-194.10000610351563T2.75:0:0Z</time></trkpt>
<trkpt lat="45.787602" lon="1.380985"><ele>0</ele><time>28.844409942626953-474.6000061035156-194.5T3.25:0:0Z</time></trkpt>
<trkpt lat="45.787529" lon="1.380956"><ele>0</ele><time>28.844409942626953-474.20001220703125-190.0T3.0:0:0Z</time></trkpt>
<trkpt lat="45.787477" lon="1.380947"><ele>0</ele><time>28.844409942626953-473.8999938964844-189.60000610351563T3.5:0:0Z</time></trkpt>
<trkpt lat="45.787416" lon="1.380922"><ele>0</ele><time>28.844409942626953-473.6000061035156-190.89999389648438T3.5:0:0Z</time></trkpt>
<trkpt lat="45.787358" lon="1.380904"><ele>0</ele><time>35.7770881652832-473.8999938964844-188.6999969482422T3.25:0:0Z</time></trkpt>
<trkpt lat="45.78731" lon="1.380897"><ele>0</ele><time>35.7770881652832-473.79998779296875-186.1999969482422T3.75:0:0Z</time></trkpt>
<trkpt lat="45.787148" lon="1.380913"><ele>0</ele><time>28.844409942626953-471.0-179.3000030517578T5.25:0:0Z</time></trkpt>
<trkpt lat="45.786999" lon="1.380901"><ele>0</ele><time>28.844409942626953-467.8999938964844-187.8000030517578T5.75:0:0Z</time></trkpt>
<trkpt lat="45.786905" lon="1.380859"><ele>0</ele><time>28.844409942626953-466.6000061035156-197.0T6.75:0:0Z</time></trkpt>
<trkpt lat="45.786841" lon="1.380753"><ele>0</ele><time>22.627416610717773-467.20001220703125-210.89999389648438T8.0:0:0Z</time></trkpt>
<trkpt lat="45.786761" lon="1.380687"><ele>0</ele><time>28.844409942626953-467.0-209.6999969482422T8.25:0:0Z</time></trkpt>
<trkpt lat="45.786686" lon="1.380619"><ele>0</ele><time>28.844409942626953-467.0-209.6999969482422T8.75:0:0Z</time></trkpt>
<trkpt lat="45.786603" lon="1.380554"><ele>0</ele><time>28.844409942626953-467.0-208.8000030517578T9.25:0:0Z</time></trkpt>
<trkpt lat="45.786528" lon="1.380487"><ele>0</ele><time>28.844409942626953-467.1000061035156-209.39999389648438T9.0:0:0Z</time></trkpt>
<trkpt lat="45.786466" lon="1.380417"><ele>0</ele><time>28.844409942626953-467.29998779296875-211.0T9.0:0:0Z</time></trkpt>
<trkpt lat="45.786431" lon="1.380244"><ele>0</ele><time>22.627416610717773-464.0-215.39999389648438T9.25:0:0Z</time></trkpt>
<trkpt lat="45.786376" lon="1.380104"><ele>0</ele><time>20.0-463.29998779296875-215.10000610351563T9.25:0:0Z</time></trkpt>
<trkpt lat="45.786324" lon="1.380013"><ele>0</ele><time>20.0-461.3999938964844-213.39999389648438T9.263504028320313:0:0Z</time></trkpt>
<trkpt lat="45.786258" lon="1.379943"><ele>0</ele><time>17.8885440826416-461.20001220703125-214.10000610351563T9.0:0:0Z</time></trkpt>
<trkpt lat="45.786198" lon="1.379873"><ele>0</ele><time>17.8885440826416-461.29998779296875-215.10000610351563T8.75:0:0Z</time></trkpt>
<trkpt lat="45.786137" lon="1.379816"><ele>0</ele><time>17.8885440826416-460.8999938964844-212.89999389648438T8.75:0:0Z</time></trkpt>
<trkpt lat="45.786079" lon="1.379768"><ele>0</ele><time>14.422204971313477-459.20001220703125-212.3000030517578T8.75:0:0Z</time></trkpt>
<trkpt lat="45.786025" lon="1.37971"><ele>0</ele><time>14.422204971313477-457.0-216.8000030517578T8.5:0:0Z</time></trkpt>
<trkpt lat="45.78599" lon="1.379627"><ele>0</ele><time>14.422204971313477-455.79998779296875-228.89999389648438T7.766112327575684:0:0Z</time></trkpt>
<trkpt lat="45.785958" lon="1.37954"><ele>0</ele><time>10.0-455.29998779296875-240.3000030517578T7.25:0:0Z</time></trkpt>
<trkpt lat="45.785926" lon="1.379457"><ele>0</ele><time>10.0-455.1000061035156-241.60000610351563T7.25:0:0Z</time></trkpt>
<trkpt lat="45.785896" lon="1.379377"><ele>0</ele><time>11.313708305358887-455.29998779296875-241.6999969482422T7.25:0:0Z</time></trkpt>
<trkpt lat="45.785872" lon="1.379287"><ele>0</ele><time>11.313708305358887-455.5-244.10000610351563T7.25:0:0Z</time></trkpt>
<trkpt lat="45.785847" lon="1.379216"><ele>0</ele><time>14.422204971313477-455.79998779296875-244.10000610351563T6.75:0:0Z</time></trkpt>
<trkpt lat="45.78582" lon="1.379132"><ele>0</ele><time>11.313708305358887-455.79998779296875-244.0T6.75:0:0Z</time></trkpt>
<trkpt lat="45.785789" lon="1.379059"><ele>0</ele><time>14.422204971313477-455.6000061035156-241.10000610351563T6.5:0:0Z</time></trkpt>
<trkpt lat="45.785753" lon="1.378986"><ele>0</ele><time>11.313708305358887-456.1000061035156-236.5T6.51920223236084:0:0Z</time></trkpt>
<trkpt lat="45.785717" lon="1.378922"><ele>0</ele><time>11.313708305358887-456.29998779296875-234.10000610351563T6.269968032836914:0:0Z</time></trkpt>
<trkpt lat="45.785687" lon="1.378862"><ele>0</ele><time>14.422204971313477-456.6000061035156-235.0T6.0:0:0Z</time></trkpt>
<trkpt lat="45.785657" lon="1.378807"><ele>0</ele><time>14.422204971313477-456.70001220703125-234.1999969482422T5.75:0:0Z</time></trkpt>
<trkpt lat="45.785618" lon="1.378762"><ele>0</ele><time>14.422204971313477-455.79998779296875-229.1999969482422T5.75:0:0Z</time></trkpt>
<trkpt lat="45.785582" lon="1.378706"><ele>0</ele><time>11.313708305358887-455.6000061035156-228.3000030517578T5.75:0:0Z</time></trkpt>
<trkpt lat="45.78555" lon="1.378652"><ele>0</ele><time>10.0-455.29998779296875-227.6999969482422T5.75:0:0Z</time></trkpt>
<trkpt lat="45.785496" lon="1.378544"><ele>0</ele><time>8.485280990600586-452.79998779296875-232.60000610351563T6.020797252655029:0:0Z</time></trkpt>
<trkpt lat="45.785462" lon="1.37848"><ele>0</ele><time>8.485280990600586-452.8999938964844-233.0T5.75:0:0Z</time></trkpt>
<trkpt lat="45.78543" lon="1.378419"><ele>0</ele><time>8.485280990600586-452.20001220703125-233.0T5.75:0:0Z</time></trkpt>
<trkpt lat="45.785403" lon="1.378366"><ele>0</ele><time>8.485280990600586-452.20001220703125-233.39999389648438T5.25:0:0Z</time></trkpt>
<trkpt lat="45.785353" lon="1.378283"><ele>0</ele><time>10.0-451.79998779296875-226.8000030517578T4.25:0:0Z</time></trkpt>
<trkpt lat="45.785299" lon="1.378208"><ele>0</ele><time>8.485280990600586-451.79998779296875-227.1999969482422T4.5:0:0Z</time></trkpt>
<trkpt lat="45.785275" lon="1.378153"><ele>0</ele><time>8.485280990600586-451.29998779296875-235.0T5.0:0:0Z</time></trkpt>
<trkpt lat="45.785248" lon="1.378099"><ele>0</ele><time>8.485280990600586-451.6000061035156-236.0T5.25:0:0Z</time></trkpt>
<trkpt lat="45.785217" lon="1.37804"><ele>0</ele><time>10.0-451.6000061035156-232.3000030517578T5.25:0:0Z</time></trkpt>
<trkpt lat="45.785181" lon="1.377978"><ele>0</ele><time>10.0-451.8999938964844-229.89999389648438T5.75:0:0Z</time></trkpt>
<trkpt lat="45.78514" lon="1.377917"><ele>0</ele><time>10.0-452.20001220703125-227.60000610351563T6.0:0:0Z</time></trkpt>
<trkpt lat="45.78514" lon="1.377917"><ele>0</ele><time>10.0-452.20001220703125-227.60000610351563T6.0:0:0Z</time></trkpt>
<trkpt lat="45.785102" lon="1.377862"><ele>0</ele><time>8.485280990600586-453.0-221.0T6.020797252655029:0:0Z</time></trkpt>
<trkpt lat="45.785058" lon="1.3778"><ele>0</ele><time>8.485280990600586-453.20001220703125-220.8000030517578T6.25:0:0Z</time></trkpt>
<trkpt lat="45.785017" lon="1.377757"><ele>0</ele><time>8.485280990600586-452.0-221.8000030517578T6.0:0:0Z</time></trkpt>
<trkpt lat="45.784978" lon="1.377708"><ele>0</ele><time>8.485280990600586-452.1000061035156-221.3000030517578T5.75:0:0Z</time></trkpt>
<trkpt lat="45.784936" lon="1.37766"><ele>0</ele><time>8.485280990600586-452.29998779296875-219.10000610351563T5.75:0:0Z</time></trkpt>
<trkpt lat="45.784898" lon="1.377614"><ele>0</ele><time>8.485280990600586-452.3999938964844-217.8000030517578T5.75:0:0Z</time></trkpt>
<trkpt lat="45.784852" lon="1.377563"><ele>0</ele><time>8.485280990600586-452.1000061035156-217.6999969482422T6.0:0:0Z</time></trkpt>
<trkpt lat="45.784815" lon="1.377509"><ele>0</ele><time>10.0-451.8999938964844-221.39999389648438T6.0:0:0Z</time></trkpt>
<trkpt lat="45.784777" lon="1.377446"><ele>0</ele><time>10.0-451.79998779296875-225.39999389648438T6.25:0:0Z</time></trkpt>
<trkpt lat="45.784743" lon="1.377393"><ele>0</ele><time>10.0-452.20001220703125-228.0T6.020797252655029:0:0Z</time></trkpt>
<trkpt lat="45.78471" lon="1.377342"><ele>0</ele><time>10.0-452.29998779296875-231.89999389648438T5.2737555503845215:0:0Z</time></trkpt>
<trkpt lat="45.784683" lon="1.377284"><ele>0</ele><time>10.0-452.29998779296875-230.89999389648438T5.5:0:0Z</time></trkpt>
<trkpt lat="45.784651" lon="1.377225"><ele>0</ele><time>10.0-452.70001220703125-229.39999389648438T5.5:0:0Z</time></trkpt>
<trkpt lat="45.784597" lon="1.377113"><ele>0</ele><time>8.485280990600586-453.5-234.10000610351563T5.25:0:0Z</time></trkpt>
<trkpt lat="45.784575" lon="1.377054"><ele>0</ele><time>8.485280990600586-453.6000061035156-236.89999389648438T5.0:0:0Z</time></trkpt>
<trkpt lat="45.78455" lon="1.376989"><ele>0</ele><time>8.485280990600586-454.20001220703125-243.0T5.25:0:0Z</time></trkpt>
<trkpt lat="45.784536" lon="1.376918"><ele>0</ele><time>8.485280990600586-454.29998779296875-249.3000030517578T5.25:0:0Z</time></trkpt>
<trkpt lat="45.784515" lon="1.37686"><ele>0</ele><time>8.485280990600586-455.1000061035156-242.1999969482422T5.25:0:0Z</time></trkpt>
<trkpt lat="45.784491" lon="1.376799"><ele>0</ele><time>8.485280990600586-454.79998779296875-241.8000030517578T5.5:0:0Z</time></trkpt>
<trkpt lat="45.784461" lon="1.376738"><ele>0</ele><time>8.485280990600586-454.79998779296875-240.5T5.5:0:0Z</time></trkpt>
<trkpt lat="45.784424" lon="1.376623"><ele>0</ele><time>8.485280990600586-454.70001220703125-243.39999389648438T5.0:0:0Z</time></trkpt>
<trkpt lat="45.784398" lon="1.37651"><ele>0</ele><time>11.313708305358887-454.5-250.6999969482422T4.75:0:0Z</time></trkpt>
<trkpt lat="45.784362" lon="1.376387"><ele>0</ele><time>11.313708305358887-454.6000061035156-250.10000610351563T5.0:0:0Z</time></trkpt>
<trkpt lat="45.784348" lon="1.376315"><ele>0</ele><time>16.970561981201172-454.5-250.39999389648438T5.25:0:0Z</time></trkpt>
<trkpt lat="45.784339" lon="1.376241"><ele>0</ele><time>16.970561981201172-454.29998779296875-256.29998779296875T5.75:0:0Z</time></trkpt>
<trkpt lat="45.784312" lon="1.376155"><ele>0</ele><time>14.422204971313477-454.20001220703125-252.10000610351563T6.25:0:0Z</time></trkpt>
<trkpt lat="45.784281" lon="1.376044"><ele>0</ele><time>14.422204971313477-452.6000061035156-250.1999969482422T5.024937629699707:0:0Z</time></trkpt>
<trkpt lat="45.784237" lon="1.375927"><ele>0</ele><time>14.422204971313477-448.79998779296875-240.0T5.590169906616211:0:0Z</time></trkpt>
<trkpt lat="45.784216" lon="1.375867"><ele>0</ele><time>14.422204971313477-448.20001220703125-239.5T5.099019527435303:0:0Z</time></trkpt>
<trkpt lat="45.784168" lon="1.375713"><ele>0</ele><time>16.970561981201172-448.5-240.3000030517578T5.75:0:0Z</time></trkpt>
<trkpt lat="45.784128" lon="1.375669"><ele>0</ele><time>16.970561981201172-448.0-233.10000610351563T4.75:0:0Z</time></trkpt>
<trkpt lat="45.784096" lon="1.375608"><ele>0</ele><time>16.970561981201172-447.3999938964844-238.0T5.5:0:0Z</time></trkpt>
<trkpt lat="45.784085" lon="1.375527"><ele>0</ele><time>16.970561981201172-446.6000061035156-255.8000030517578T5.75:0:0Z</time></trkpt>
<trkpt lat="45.784091" lon="1.375423"><ele>0</ele><time>14.422204971313477-446.0-262.5T6.5:0:0Z</time></trkpt>
<trkpt lat="45.784061" lon="1.375328"><ele>0</ele><time>16.970561981201172-445.8999938964844-257.70001220703125T6.5:0:0Z</time></trkpt>
<trkpt lat="45.78402" lon="1.375213"><ele>0</ele><time>16.970561981201172-446.6000061035156-248.8000030517578T7.0:0:0Z</time></trkpt>
<trkpt lat="45.783982" lon="1.375119"><ele>0</ele><time>16.970561981201172-446.20001220703125-241.89999389648438T7.25:0:0Z</time></trkpt>
<trkpt lat="45.783952" lon="1.375023"><ele>0</ele><time>16.970561981201172-446.1000061035156-241.10000610351563T7.5:0:0Z</time></trkpt>
<trkpt lat="45.783908" lon="1.374929"><ele>0</ele><time>20.0-446.70001220703125-239.0T7.75:0:0Z</time></trkpt>
<trkpt lat="45.783866" lon="1.374841"><ele>0</ele><time>20.0-446.70001220703125-236.39999389648438T7.5:0:0Z</time></trkpt>
<trkpt lat="45.783816" lon="1.374754"><ele>0</ele><time>14.422204971313477-446.3999938964844-233.0T7.75:0:0Z</time></trkpt>
<trkpt lat="45.783784" lon="1.374678"><ele>0</ele><time>20.0-445.70001220703125-233.6999969482422T7.017834186553955:0:0Z</time></trkpt>
<trkpt lat="45.783736" lon="1.37459"><ele>0</ele><time>16.970561981201172-445.79998779296875-233.60000610351563T7.766112327575684:0:0Z</time></trkpt>
<trkpt lat="45.783698" lon="1.374502"><ele>0</ele><time>16.970561981201172-445.79998779296875-234.60000610351563T7.5:0:0Z</time></trkpt>
<trkpt lat="45.783657" lon="1.374417"><ele>0</ele><time>20.0-445.8999938964844-234.3000030517578T7.5:0:0Z</time></trkpt>
<trkpt lat="45.78361" lon="1.374345"><ele>0</ele><time>20.0-445.70001220703125-231.89999389648438T7.25:0:0Z</time></trkpt>
<trkpt lat="45.783572" lon="1.374258"><ele>0</ele><time>20.0-445.8999938964844-234.0T7.25:0:0Z</time></trkpt>
<trkpt lat="45.783526" lon="1.374181"><ele>0</ele><time>16.970561981201172-446.5-230.39999389648438T6.75:0:0Z</time></trkpt>
<trkpt lat="45.783492" lon="1.374112"><ele>0</ele><time>16.970561981201172-446.3999938964844-231.0T6.75:0:0Z</time></trkpt>
<trkpt lat="45.783458" lon="1.374054"><ele>0</ele><time>14.422204971313477-445.5-231.89999389648438T6.5:0:0Z</time></trkpt>
<trkpt lat="45.783418" lon="1.373995"><ele>0</ele><time>11.313708305358887-445.6000061035156-230.3000030517578T6.25:0:0Z</time></trkpt>
<trkpt lat="45.783375" lon="1.373928"><ele>0</ele><time>11.313708305358887-446.1000061035156-230.60000610351563T6.75:0:0Z</time></trkpt>
<trkpt lat="45.783343" lon="1.373855"><ele>0</ele><time>10.0-445.8999938964844-231.89999389648438T6.5:0:0Z</time></trkpt>
<trkpt lat="45.783311" lon="1.373794"><ele>0</ele><time>10.0-446.3999938964844-231.5T6.25:0:0Z</time></trkpt>
<trkpt lat="45.78327" lon="1.37374"><ele>0</ele><time>10.0-446.70001220703125-229.5T6.25:0:0Z</time></trkpt>
<trkpt lat="45.783232" lon="1.373677"><ele>0</ele><time>8.485280990600586-446.79998779296875-230.6999969482422T6.0:0:0Z</time></trkpt>
<trkpt lat="45.783198" lon="1.373606"><ele>0</ele><time>8.485280990600586-447.70001220703125-229.6999969482422T6.0:0:0Z</time></trkpt>
<trkpt lat="45.783165" lon="1.373544"><ele>0</ele><time>8.485280990600586-448.20001220703125-228.60000610351563T6.0:0:0Z</time></trkpt>
<trkpt lat="45.783133" lon="1.373485"><ele>0</ele><time>8.485280990600586-448.3999938964844-230.0T5.75:0:0Z</time></trkpt>
<trkpt lat="45.783107" lon="1.373424"><ele>0</ele><time>8.485280990600586-448.5-232.8000030517578T5.75:0:0Z</time></trkpt>
<trkpt lat="45.78307" lon="1.373359"><ele>0</ele><time>8.485280990600586-448.3999938964844-230.60000610351563T6.0:0:0Z</time></trkpt>
<trkpt lat="45.783028" lon="1.373302"><ele>0</ele><time>8.485280990600586-448.5-226.10000610351563T6.0:0:0Z</time></trkpt>
<trkpt lat="45.782994" lon="1.373242"><ele>0</ele><time>8.485280990600586-448.79998779296875-227.6999969482422T6.0:0:0Z</time></trkpt>
<trkpt lat="45.782958" lon="1.373188"><ele>0</ele><time>8.485280990600586-448.3999938964844-227.5T6.0:0:0Z</time></trkpt>
<trkpt lat="45.782919" lon="1.373129"><ele>0</ele><time>10.0-448.70001220703125-226.39999389648438T6.0:0:0Z</time></trkpt>
<trkpt lat="45.78289" lon="1.373073"><ele>0</ele><time>10.0-448.6000061035156-226.39999389648438T5.5:0:0Z</time></trkpt>
<trkpt lat="45.782848" lon="1.373034"><ele>0</ele><time>10.0-448.29998779296875-220.3000030517578T5.25:0:0Z</time></trkpt>
<trkpt lat="45.782813" lon="1.372977"><ele>0</ele><time>10.0-449.20001220703125-228.39999389648438T5.5:0:0Z</time></trkpt>
<trkpt lat="45.782769" lon="1.372909"><ele>0</ele><time>11.313708305358887-449.70001220703125-226.89999389648438T4.0:0:0Z</time></trkpt>
<trkpt lat="45.782709" lon="1.372831"><ele>0</ele><time>10.0-449.8999938964844-224.8000030517578T4.25:0:0Z</time></trkpt>
<trkpt lat="45.78266" lon="1.372766"><ele>0</ele><time>14.422204971313477-450.3999938964844-217.89999389648438T3.75:0:0Z</time></trkpt>
<trkpt lat="45.782614" lon="1.372663"><ele>0</ele><time>11.313708305358887-450.0-231.0T4.25:0:0Z</time></trkpt>
<trkpt lat="45.782571" lon="1.372562"><ele>0</ele><time>11.313708305358887-449.5-237.0T4.75:0:0Z</time></trkpt>
<trkpt lat="45.782536" lon="1.372517"><ele>0</ele><time>11.313708305358887-449.3999938964844-232.39999389648438T5.0:0:0Z</time></trkpt>
<trkpt lat="45.782489" lon="1.372399"><ele>0</ele><time>10.0-449.79998779296875-234.89999389648438T5.2737555503845215:0:0Z</time></trkpt>
<trkpt lat="45.782462" lon="1.372345"><ele>0</ele><time>10.0-450.1000061035156-234.39999389648438T5.2737555503845215:0:0Z</time></trkpt>
<trkpt lat="45.78243" lon="1.372278"><ele>0</ele><time>10.0-451.20001220703125-235.3000030517578T6.082762718200684:0:0Z</time></trkpt>
<trkpt lat="45.782402" lon="1.372226"><ele>0</ele><time>10.0-451.70001220703125-234.10000610351563T5.771697998046875:0:0Z</time></trkpt>
<trkpt lat="45.782367" lon="1.372168"><ele>0</ele><time>10.0-451.70001220703125-235.5T5.75:0:0Z</time></trkpt>
<trkpt lat="45.782347" lon="1.372104"><ele>0</ele><time>10.0-451.5-237.0T5.75:0:0Z</time></trkpt>
<trkpt lat="45.78232" lon="1.372036"><ele>0</ele><time>10.0-451.20001220703125-238.1999969482422T5.75:0:0Z</time></trkpt>
<trkpt lat="45.782295" lon="1.37197"><ele>0</ele><time>10.0-451.5-238.3000030517578T5.75:0:0Z</time></trkpt>
<trkpt lat="45.782234" lon="1.371834"><ele>0</ele><time>10.0-452.0-236.3000030517578T5.75:0:0Z</time></trkpt>
<trkpt lat="45.782211" lon="1.371776"><ele>0</ele><time>10.0-451.0-237.39999389648438T5.75:0:0Z</time></trkpt>
<trkpt lat="45.782181" lon="1.37171"><ele>0</ele><time>10.0-451.29998779296875-237.6999969482422T5.75:0:0Z</time></trkpt>
<trkpt lat="45.782154" lon="1.371648"><ele>0</ele><time>8.485280990600586-451.29998779296875-239.39999389648438T5.75:0:0Z</time></trkpt>
<trkpt lat="45.782133" lon="1.371589"><ele>0</ele><time>8.485280990600586-450.70001220703125-240.89999389648438T5.75:0:0Z</time></trkpt>
<trkpt lat="45.782109" lon="1.371524"><ele>0</ele><time>8.485280990600586-450.20001220703125-243.1999969482422T6.0:0:0Z</time></trkpt>
<trkpt lat="45.782085" lon="1.371453"><ele>0</ele><time>8.485280990600586-450.3999938964844-246.60000610351563T5.75:0:0Z</time></trkpt>
<trkpt lat="45.782066" lon="1.371383"><ele>0</ele><time>8.485280990600586-450.5-246.8000030517578T5.75:0:0Z</time></trkpt>
<trkpt lat="45.782041" lon="1.371315"><ele>0</ele><time>8.485280990600586-450.3999938964844-245.39999389648438T6.0:0:0Z</time></trkpt>
<trkpt lat="45.782025" lon="1.371251"><ele>0</ele><time>11.313708305358887-450.6000061035156-248.10000610351563T5.5:0:0Z</time></trkpt>
<trkpt lat="45.781997" lon="1.371182"><ele>0</ele><time>11.313708305358887-451.20001220703125-244.89999389648438T6.020797252655029:0:0Z</time></trkpt>
<trkpt lat="45.781976" lon="1.371111"><ele>0</ele><time>10.0-451.29998779296875-246.10000610351563T5.75:0:0Z</time></trkpt>
<trkpt lat="45.781956" lon="1.371043"><ele>0</ele><time>10.0-451.6000061035156-246.3000030517578T5.75:0:0Z</time></trkpt>
<trkpt lat="45.781938" lon="1.370974"><ele>0</ele><time>11.313708305358887-451.6000061035156-248.5T5.75:0:0Z</time></trkpt>
<trkpt lat="45.781928" lon="1.370901"><ele>0</ele><time>11.313708305358887-450.6000061035156-251.39999389648438T5.75:0:0Z</time></trkpt>
<trkpt lat="45.781901" lon="1.370767"><ele>0</ele><time>11.313708305358887-448.70001220703125-252.39999389648438T6.0:0:0Z</time></trkpt>
<trkpt lat="45.781884" lon="1.370694"><ele>0</ele><time>10.0-448.8999938964844-251.89999389648438T6.25:0:0Z</time></trkpt>
<trkpt lat="45.781866" lon="1.370618"><ele>0</ele><time>10.0-448.8999938964844-251.3000030517578T6.25:0:0Z</time></trkpt>
<trkpt lat="45.781844" lon="1.370533"><ele>0</ele><time>10.0-448.70001220703125-249.3000030517578T6.5:0:0Z</time></trkpt>
<trkpt lat="45.78182" lon="1.370456"><ele>0</ele><time>11.313708305358887-448.70001220703125-248.3000030517578T6.5:0:0Z</time></trkpt>
<trkpt lat="45.781795" lon="1.370376"><ele>0</ele><time>14.422204971313477-448.6000061035156-247.1999969482422T6.75:0:0Z</time></trkpt>
<trkpt lat="45.781772" lon="1.370292"><ele>0</ele><time>14.422204971313477-448.8999938964844-248.10000610351563T6.75:0:0Z</time></trkpt>
<trkpt lat="45.781756" lon="1.370203"><ele>0</ele><time>14.422204971313477-448.8999938964844-252.5T6.75:0:0Z</time></trkpt>
<trkpt lat="45.781748" lon="1.37011"><ele>0</ele><time>14.422204971313477-448.70001220703125-254.5T6.75:0:0Z</time></trkpt>
<trkpt lat="45.781735" lon="1.370017"><ele>0</ele><time>14.422204971313477-449.0-257.70001220703125T7.0:0:0Z</time></trkpt>
<trkpt lat="45.781723" lon="1.369932"><ele>0</ele><time>13.416407585144043-449.5-260.8999938964844T6.75:0:0Z</time></trkpt>
<trkpt lat="45.781717" lon="1.36984"><ele>0</ele><time>10.0-449.3999938964844-261.79998779296875T7.0:0:0Z</time></trkpt>
<trkpt lat="45.781714" lon="1.369754"><ele>0</ele><time>10.0-449.29998779296875-262.20001220703125T7.0:0:0Z</time></trkpt>
<trkpt lat="45.78171" lon="1.369662"><ele>0</ele><time>8.485280990600586-448.8999938964844-262.6000061035156T7.25:0:0Z</time></trkpt>
<trkpt lat="45.781703" lon="1.36957"><ele>0</ele><time>8.485280990600586-449.20001220703125-262.70001220703125T7.25:0:0Z</time></trkpt>
<trkpt lat="45.781698" lon="1.36948"><ele>0</ele><time>13.416407585144043-449.20001220703125-263.1000061035156T7.0:0:0Z</time></trkpt>
<trkpt lat="45.781683" lon="1.36939"><ele>0</ele><time>13.416407585144043-448.8999938964844-260.79998779296875T7.25:0:0Z</time></trkpt>
<trkpt lat="45.781677" lon="1.369322"><ele>0</ele><time>17.0880069732666-448.3999938964844-261.8999938964844T6.5:0:0Z</time></trkpt>
<trkpt lat="45.781669" lon="1.369241"><ele>0</ele><time>17.8885440826416-448.5-261.79998779296875T6.25:0:0Z</time></trkpt>
<trkpt lat="45.78166" lon="1.369159"><ele>0</ele><time>20.0-448.29998779296875-261.79998779296875T6.25:0:0Z</time></trkpt>
<trkpt lat="45.781681" lon="1.369037"><ele>0</ele><time>16.970561981201172-448.29998779296875-273.1000061035156T7.0:0:0Z</time></trkpt>
<trkpt lat="45.781693" lon="1.368963"><ele>0</ele><time>14.422204971313477-448.1000061035156-274.6000061035156T6.75:0:0Z</time></trkpt>
<trkpt lat="45.781687" lon="1.368889"><ele>0</ele><time>13.416407585144043-447.8999938964844-268.8999938964844T6.5:0:0Z</time></trkpt>
<trkpt lat="45.781685" lon="1.368798"><ele>0</ele><time>13.416407585144043-447.8999938964844-268.6000061035156T7.0:0:0Z</time></trkpt>
<trkpt lat="45.781664" lon="1.368688"><ele>0</ele><time>10.0-447.70001220703125-263.70001220703125T7.5:0:0Z</time></trkpt>
<trkpt lat="45.781667" lon="1.368589"><ele>0</ele><time>10.0-447.5-265.5T8.0:0:0Z</time></trkpt>
<trkpt lat="45.781656" lon="1.368491"><ele>0</ele><time>8.485280990600586-446.79998779296875-263.8999938964844T7.75:0:0Z</time></trkpt>
<trkpt lat="45.781624" lon="1.368366"><ele>0</ele><time>8.485280990600586-446.6000061035156-257.0T9.013877868652344:0:0Z</time></trkpt>
<trkpt lat="45.781606" lon="1.368247"><ele>0</ele><time>10.0-446.29998779296875-258.1000061035156T9.25:0:0Z</time></trkpt>
<trkpt lat="45.7816" lon="1.368109"><ele>0</ele><time>10.0-446.0-261.5T9.75:0:0Z</time></trkpt>
<trkpt lat="45.781591" lon="1.367973"><ele>0</ele><time>10.0-445.6000061035156-260.6000061035156T9.5:0:0Z</time></trkpt>
<trkpt lat="45.781581" lon="1.367849"><ele>0</ele><time>10.0-445.6000061035156-261.0T9.5:0:0Z</time></trkpt>
<trkpt lat="45.781561" lon="1.367726"><ele>0</ele><time>10.0-445.29998779296875-259.70001220703125T9.75:0:0Z</time></trkpt>
<trkpt lat="45.78153" lon="1.367609"><ele>0</ele><time>10.0-443.8999938964844-254.8000030517578T9.5:0:0Z</time></trkpt>
<trkpt lat="45.781502" lon="1.367474"><ele>0</ele><time>10.0-442.20001220703125-255.60000610351563T9.762811660766602:0:0Z</time></trkpt>
<trkpt lat="45.781466" lon="1.367361"><ele>0</ele><time>8.485280990600586-440.1000061035156-255.60000610351563T9.75:0:0Z</time></trkpt>
<trkpt lat="45.781447" lon="1.367246"><ele>0</ele><time>8.485280990600586-439.1000061035156-260.6000061035156T9.51314926147461:0:0Z</time></trkpt>
<trkpt lat="45.781429" lon="1.367123"><ele>0</ele><time>8.485280990600586-437.8999938964844-260.0T9.51314926147461:0:0Z</time></trkpt>
<trkpt lat="45.78143" lon="1.367011"><ele>0</ele><time>8.485280990600586-436.79998779296875-264.20001220703125T9.25:0:0Z</time></trkpt>
<trkpt lat="45.781429" lon="1.366889"><ele>0</ele><time>10.0-436.6000061035156-268.6000061035156T9.25:0:0Z</time></trkpt>
<trkpt lat="45.781433" lon="1.36677"><ele>0</ele><time>14.422204971313477-436.29998779296875-270.5T9.25:0:0Z</time></trkpt>
<trkpt lat="45.781435" lon="1.366644"><ele>0</ele><time>10.0-435.20001220703125-271.20001220703125T9.263504028320313:0:0Z</time></trkpt>
<trkpt lat="45.781434" lon="1.366531"><ele>0</ele><time>10.0-435.0-268.29998779296875T8.75:0:0Z</time></trkpt>
<trkpt lat="45.781426" lon="1.366305"><ele>0</ele><time>11.313708305358887-434.70001220703125-268.5T8.5:0:0Z</time></trkpt>
<trkpt lat="45.781425" lon="1.366198"><ele>0</ele><time>14.422204971313477-434.70001220703125-268.70001220703125T8.5:0:0Z</time></trkpt>
<trkpt lat="45.781422" lon="1.366098"><ele>0</ele><time>11.313708305358887-434.29998779296875-266.79998779296875T8.0:0:0Z</time></trkpt>
<trkpt lat="45.78142" lon="1.365998"><ele>0</ele><time>11.313708305358887-433.70001220703125-267.8999938964844T7.75:0:0Z</time></trkpt>
<trkpt lat="45.781418" lon="1.365907"><ele>0</ele><time>14.422204971313477-433.5-268.8999938964844T7.25:0:0Z</time></trkpt>
<trkpt lat="45.781415" lon="1.365836"><ele>0</ele><time>14.422204971313477-433.0-269.70001220703125T6.25:0:0Z</time></trkpt>
<trkpt lat="45.781415" lon="1.365728"><ele>0</ele><time>13.416407585144043-432.8999938964844-279.20001220703125T4.75:0:0Z</time></trkpt>
<trkpt lat="45.781463" lon="1.365618"><ele>0</ele><time>14.422204971313477-432.5-299.1000061035156T5.0:0:0Z</time></trkpt>
<trkpt lat="45.781542" lon="1.365597"><ele>0</ele><time>14.422204971313477-431.6000061035156-335.5T4.5:0:0Z</time></trkpt>
<trkpt lat="45.781627" lon="1.365591"><ele>0</ele><time>20.0-432.0-347.1000061035156T4.25:0:0Z</time></trkpt>
<trkpt lat="45.781692" lon="1.365612"><ele>0</ele><time>28.844409942626953-432.29998779296875-6.900000095367432T2.75:0:0Z</time></trkpt>
<trkpt lat="45.781722" lon="1.365667"><ele>0</ele><time>22.627416610717773-432.0-26.200000762939453T3.0:0:0Z</time></trkpt>
<trkpt lat="45.781769" lon="1.365735"><ele>0</ele><time>20.0-431.70001220703125-36.29999923706055T3.5:0:0Z</time></trkpt>
<trkpt lat="45.781838" lon="1.365791"><ele>0</ele><time>28.844409942626953-431.70001220703125-28.100000381469727T4.0:0:0Z</time></trkpt>
<trkpt lat="45.781894" lon="1.365831"><ele>0</ele><time>28.844409942626953-431.79998779296875-28.299999237060547T4.5:0:0Z</time></trkpt>
<trkpt lat="45.781947" lon="1.365859"><ele>0</ele><time>28.844409942626953-431.70001220703125-23.799999237060547T5.25:0:0Z</time></trkpt>
<trkpt lat="45.781996" lon="1.365892"><ele>0</ele><time>28.844409942626953-431.79998779296875-24.799999237060547T5.5:0:0Z</time></trkpt>
<trkpt lat="45.782048" lon="1.365931"><ele>0</ele><time>28.844409942626953-431.79998779296875-26.0T5.5:0:0Z</time></trkpt>
<trkpt lat="45.782096" lon="1.365974"><ele>0</ele><time>28.844409942626953-431.79998779296875-27.799999237060547T5.5:0:0Z</time></trkpt>
<trkpt lat="45.782144" lon="1.366034"><ele>0</ele><time>28.844409942626953-431.5-29.100000381469727T5.75:0:0Z</time></trkpt>
<trkpt lat="45.78218" lon="1.366074"><ele>0</ele><time>26.832815170288086-430.8999938964844-28.399999618530273T5.5:0:0Z</time></trkpt>
<trkpt lat="45.782222" lon="1.366103"><ele>0</ele><time>26.832815170288086-431.1000061035156-27.0T5.5:0:0Z</time></trkpt>
<trkpt lat="45.782264" lon="1.366126"><ele>0</ele><time>26.832815170288086-430.8999938964844-23.899999618530273T5.0:0:0Z</time></trkpt>
<trkpt lat="45.782313" lon="1.366147"><ele>0</ele><time>26.832815170288086-430.70001220703125-23.700000762939453T5.25:0:0Z</time></trkpt>
<trkpt lat="45.78236" lon="1.366208"><ele>0</ele><time>26.832815170288086-430.70001220703125-32.29999923706055T5.5:0:0Z</time></trkpt>
<trkpt lat="45.782402" lon="1.366248"><ele>0</ele><time>26.832815170288086-430.6000061035156-34.79999923706055T5.5:0:0Z</time></trkpt>
<trkpt lat="45.782441" lon="1.366285"><ele>0</ele><time>26.832815170288086-430.5-36.0T5.5:0:0Z</time></trkpt>
<trkpt lat="45.782478" lon="1.366335"><ele>0</ele><time>28.844409942626953-430.5-39.099998474121094T5.5:0:0Z</time></trkpt>
<trkpt lat="45.782519" lon="1.366383"><ele>0</ele><time>26.832815170288086-430.29998779296875-39.599998474121094T5.5:0:0Z</time></trkpt>
<trkpt lat="45.782552" lon="1.366456"><ele>0</ele><time>28.844409942626953-430.3999938964844-43.400001525878906T5.5:0:0Z</time></trkpt>
<trkpt lat="45.782593" lon="1.366509"><ele>0</ele><time>34.1760139465332-430.70001220703125-43.099998474121094T5.75:0:0Z</time></trkpt>
<trkpt lat="45.78266" lon="1.366617"><ele>0</ele><time>26.832815170288086-430.3999938964844-45.599998474121094T5.5:0:0Z</time></trkpt>
<trkpt lat="45.78273" lon="1.366708"><ele>0</ele><time>26.832815170288086-430.0-40.29999923706055T5.25:0:0Z</time></trkpt>
<trkpt lat="45.782763" lon="1.366762"><ele>0</ele><time>20.0-429.8999938964844-39.29999923706055T5.25:0:0Z</time></trkpt>
<trkpt lat="45.78284" lon="1.366823"><ele>0</ele><time>20.0-430.20001220703125-34.70000076293945T5.25:0:0Z</time></trkpt>
<trkpt lat="45.782882" lon="1.366865"><ele>0</ele><time>20.0-430.20001220703125-35.29999923706055T5.25:0:0Z</time></trkpt>
<trkpt lat="45.782952" lon="1.366908"><ele>0</ele><time>17.8885440826416-430.70001220703125-32.20000076293945T4.75:0:0Z</time></trkpt>
<trkpt lat="45.783029" lon="1.366966"><ele>0</ele><time>17.8885440826416-430.79998779296875-30.0T4.75:0:0Z</time></trkpt>
<trkpt lat="45.783092" lon="1.367018"><ele>0</ele><time>14.422204971313477-431.0-38.29999923706055T4.75:0:0Z</time></trkpt>
<trkpt lat="45.783146" lon="1.367095"><ele>0</ele><time>14.422204971313477-430.5-47.70000076293945T4.25:0:0Z</time></trkpt>
<trkpt lat="45.783163" lon="1.367157"><ele>0</ele><time>11.313708305358887-429.6000061035156-62.70000076293945T4.25:0:0Z</time></trkpt>
<trkpt lat="45.783206" lon="1.36724"><ele>0</ele><time>10.0-430.29998779296875-56.0T4.0:0:0Z</time></trkpt>
<trkpt lat="45.783267" lon="1.367362"><ele>0</ele><time>11.313708305358887-431.20001220703125-59.5T4.0:0:0Z</time></trkpt>
<trkpt lat="45.783305" lon="1.367452"><ele>0</ele><time>8.485280990600586-430.70001220703125-58.70000076293945T4.0:0:0Z</time></trkpt>
<trkpt lat="45.783355" lon="1.36753"><ele>0</ele><time>10.0-431.1000061035156-50.79999923706055T3.75:0:0Z</time></trkpt>
<trkpt lat="45.783399" lon="1.367609"><ele>0</ele><time>8.485280990600586-433.5-55.400001525878906T4.031128883361816:0:0Z</time></trkpt>
<trkpt lat="45.783429" lon="1.367699"><ele>0</ele><time>8.485280990600586-435.20001220703125-61.70000076293945T4.031128883361816:0:0Z</time></trkpt>
<trkpt lat="45.783457" lon="1.367791"><ele>0</ele><time>8.485280990600586-435.5-63.099998474121094T3.75:0:0Z</time></trkpt>
<trkpt lat="45.783475" lon="1.367888"><ele>0</ele><time>8.485280990600586-436.1000061035156-69.0T3.75:0:0Z</time></trkpt>
<trkpt lat="45.7835" lon="1.367969"><ele>0</ele><time>8.485280990600586-437.0-69.19999694824219T3.75:0:0Z</time></trkpt>
<trkpt lat="45.783525" lon="1.368066"><ele>0</ele><time>8.485280990600586-437.3999938964844-67.9000015258789T3.783186435699463:0:0Z</time></trkpt>
<trkpt lat="45.783558" lon="1.368161"><ele>0</ele><time>8.485280990600586-437.70001220703125-61.400001525878906T3.75:0:0Z</time></trkpt>
<trkpt lat="45.783606" lon="1.368239"><ele>0</ele><time>8.485280990600586-438.29998779296875-50.5T4.0:0:0Z</time></trkpt>
<trkpt lat="45.783662" lon="1.368319"><ele>0</ele><time>8.485280990600586-439.20001220703125-43.79999923706055T4.527692794799805:0:0Z</time></trkpt>
<trkpt lat="45.783719" lon="1.368394"><ele>0</ele><time>8.485280990600586-440.6000061035156-45.5T4.25:0:0Z</time></trkpt>
<trkpt lat="45.783772" lon="1.368475"><ele>0</ele><time>8.485280990600586-440.8999938964844-47.400001525878906T4.25:0:0Z</time></trkpt>
<trkpt lat="45.783821" lon="1.368565"><ele>0</ele><time>10.0-440.70001220703125-49.400001525878906T4.25:0:0Z</time></trkpt>
<trkpt lat="45.783866" lon="1.36866"><ele>0</ele><time>10.0-440.3999938964844-52.20000076293945T4.25:0:0Z</time></trkpt>
<trkpt lat="45.783909" lon="1.368752"><ele>0</ele><time>10.0-440.20001220703125-53.70000076293945T4.25:0:0Z</time></trkpt>
<trkpt lat="45.783934" lon="1.368805"><ele>0</ele><time>11.313708305358887-440.1000061035156-54.0T4.5:0:0Z</time></trkpt>
<trkpt lat="45.783969" lon="1.368904"><ele>0</ele><time>10.0-439.0-57.29999923706055T4.5:0:0Z</time></trkpt>
<trkpt lat="45.783997" lon="1.368957"><ele>0</ele><time>10.0-438.8999938964844-55.70000076293945T4.75:0:0Z</time></trkpt>
<trkpt lat="45.784039" lon="1.369058"><ele>0</ele><time>10.0-438.20001220703125-55.5T4.5:0:0Z</time></trkpt>
<trkpt lat="45.784093" lon="1.369158"><ele>0</ele><time>8.485280990600586-439.3999938964844-54.400001525878906T4.527692794799805:0:0Z</time></trkpt>
<trkpt lat="45.784143" lon="1.369255"><ele>0</ele><time>8.485280990600586-438.79998779296875-54.599998474121094T4.5:0:0Z</time></trkpt>
<trkpt lat="45.784169" lon="1.36931"><ele>0</ele><time>10.0-439.29998779296875-53.900001525878906T4.75:0:0Z</time></trkpt>
<trkpt lat="45.784218" lon="1.369397"><ele>0</ele><time>11.313708305358887-439.70001220703125-50.5T4.5:0:0Z</time></trkpt>
<trkpt lat="45.78427" lon="1.369481"><ele>0</ele><time>11.313708305358887-439.3999938964844-46.599998474121094T4.5:0:0Z</time></trkpt>
<trkpt lat="45.784324" lon="1.369561"><ele>0</ele><time>10.0-439.0-44.29999923706055T4.25:0:0Z</time></trkpt>
<trkpt lat="45.784374" lon="1.3696"><ele>0</ele><time>8.485280990600586-439.6000061035156-33.5T3.5:0:0Z</time></trkpt>
<trkpt lat="45.784426" lon="1.369648"><ele>0</ele><time>10.0-439.70001220703125-29.5T3.5:0:0Z</time></trkpt>
<trkpt lat="45.784475" lon="1.369669"><ele>0</ele><time>13.416407585144043-438.8999938964844-26.799999237060547T3.0:0:0Z</time></trkpt>
<trkpt lat="45.784524" lon="1.369718"><ele>0</ele><time>8.485280990600586-439.70001220703125-36.20000076293945T2.25:0:0Z</time></trkpt>
<trkpt lat="45.784585" lon="1.36975"><ele>0</ele><time>8.485280990600586-440.29998779296875-22.100000381469727T2.25:0:0Z</time></trkpt>
<trkpt lat="45.784633" lon="1.369769"><ele>0</ele><time>8.485280990600586-439.8999938964844-18.0T2.5:0:0Z</time></trkpt>
<trkpt lat="45.784677" lon="1.369791"><ele>0</ele><time>8.485280990600586-439.79998779296875-23.899999618530273T2.5:0:0Z</time></trkpt>
<trkpt lat="45.784735" lon="1.369815"><ele>0</ele><time>10.0-440.6000061035156-22.0T2.25:0:0Z</time></trkpt>
<trkpt lat="45.784786" lon="1.369867"><ele>0</ele><time>8.485280990600586-440.6000061035156-24.399999618530273T2.5:0:0Z</time></trkpt>
<trkpt lat="45.784831" lon="1.369905"><ele>0</ele><time>8.485280990600586-441.20001220703125-30.299999237060547T2.75:0:0Z</time></trkpt>
<trkpt lat="45.784879" lon="1.369942"><ele>0</ele><time>10.0-441.5-32.20000076293945T2.75:0:0Z</time></trkpt>
<trkpt lat="45.784934" lon="1.369992"><ele>0</ele><time>14.422204971313477-441.79998779296875-32.099998474121094T3.25:0:0Z</time></trkpt>
<trkpt lat="45.784993" lon="1.370037"><ele>0</ele><time>14.422204971313477-441.70001220703125-31.200000762939453T3.5:0:0Z</time></trkpt>
<trkpt lat="45.785042" lon="1.370102"><ele>0</ele><time>14.422204971313477-441.70001220703125-33.0T3.5:0:0Z</time></trkpt>
<trkpt lat="45.785107" lon="1.370141"><ele>0</ele><time>14.422204971313477-442.20001220703125-30.899999618530273T3.5:0:0Z</time></trkpt>
<trkpt lat="45.785146" lon="1.370175"><ele>0</ele><time>14.422204971313477-441.6000061035156-30.0T3.75:0:0Z</time></trkpt>
<trkpt lat="45.785206" lon="1.370206"><ele>0</ele><time>11.313708305358887-441.0-25.700000762939453T3.75:0:0Z</time></trkpt>
<trkpt lat="45.78528" lon="1.370243"><ele>0</ele><time>11.313708305358887-441.79998779296875-20.0T4.25:0:0Z</time></trkpt>
<trkpt lat="45.785361" lon="1.370276"><ele>0</ele><time>14.422204971313477-441.0-18.0T4.25:0:0Z</time></trkpt>
<trkpt lat="45.785434" lon="1.370313"><ele>0</ele><time>14.422204971313477-441.20001220703125-18.399999618530273T4.25:0:0Z</time></trkpt>
<trkpt lat="45.785478" lon="1.370339"><ele>0</ele><time>14.422204971313477-441.20001220703125-19.5T4.5:0:0Z</time></trkpt>
<trkpt lat="45.785527" lon="1.370373"><ele>0</ele><time>14.422204971313477-441.20001220703125-21.399999618530273T4.75:0:0Z</time></trkpt>
<trkpt lat="45.785572" lon="1.370401"><ele>0</ele><time>14.422204971313477-441.0-21.899999618530273T5.0:0:0Z</time></trkpt>
<trkpt lat="45.785622" lon="1.370431"><ele>0</ele><time>20.0-441.20001220703125-21.399999618530273T5.25:0:0Z</time></trkpt>
<trkpt lat="45.785665" lon="1.370459"><ele>0</ele><time>20.0-441.5-22.5T5.25:0:0Z</time></trkpt>
<trkpt lat="45.785711" lon="1.370483"><ele>0</ele><time>26.832815170288086-441.5-21.5T5.5:0:0Z</time></trkpt>
<trkpt lat="45.785759" lon="1.370516"><ele>0</ele><time>26.832815170288086-442.5-20.0T5.5:0:0Z</time></trkpt>
<trkpt lat="45.785809" lon="1.370546"><ele>0</ele><time>20.0-443.1000061035156-20.299999237060547T5.5:0:0Z</time></trkpt>
<trkpt lat="45.785896" lon="1.370582"><ele>0</ele><time>20.0-443.3999938964844-14.199999809265137T5.0:0:0Z</time></trkpt>
<trkpt lat="45.785961" lon="1.370604"><ele>0</ele><time>26.832815170288086-443.1000061035156-13.300000190734863T5.75:0:0Z</time></trkpt>
<trkpt lat="45.786013" lon="1.37062"><ele>0</ele><time>28.844409942626953-443.1000061035156-12.600000381469727T5.75:0:0Z</time></trkpt>
<trkpt lat="45.786074" lon="1.370641"><ele>0</ele><time>28.844409942626953-443.29998779296875-10.800000190734863T6.25:0:0Z</time></trkpt>
<trkpt lat="45.786129" lon="1.370645"><ele>0</ele><time>28.844409942626953-443.29998779296875-8.899999618530273T6.25:0:0Z</time></trkpt>
<trkpt lat="45.786207" lon="1.370662"><ele>0</ele><time>33.941123962402344-443.3999938964844-8.5T7.25:0:0Z</time></trkpt>
<trkpt lat="45.786272" lon="1.37068"><ele>0</ele><time>33.941123962402344-443.5-10.199999809265137T7.5:0:0Z</time></trkpt>
<trkpt lat="45.786338" lon="1.370712"><ele>0</ele><time>33.941123962402344-443.5-13.800000190734863T7.5:0:0Z</time></trkpt>
<trkpt lat="45.786382" lon="1.370738"><ele>0</ele><time>33.941123962402344-443.1000061035156-19.600000381469727T7.0:0:0Z</time></trkpt>
<trkpt lat="45.786461" lon="1.370776"><ele>0</ele><time>33.941123962402344-443.1000061035156-18.399999618530273T7.75:0:0Z</time></trkpt>
<trkpt lat="45.786532" lon="1.370837"><ele>0</ele><time>33.941123962402344-442.8999938964844-23.399999618530273T7.5:0:0Z</time></trkpt>
<trkpt lat="45.786622" lon="1.370849"><ele>0</ele><time>33.941123962402344-443.0-16.5T7.75:0:0Z</time></trkpt>
<trkpt lat="45.786693" lon="1.370878"><ele>0</ele><time>33.941123962402344-443.3999938964844-16.5T7.75:0:0Z</time></trkpt>
<trkpt lat="45.786764" lon="1.370906"><ele>0</ele><time>33.941123962402344-443.20001220703125-16.0T8.0:0:0Z</time></trkpt>
<trkpt lat="45.786844" lon="1.370938"><ele>0</ele><time>33.941123962402344-443.29998779296875-17.299999237060547T8.0:0:0Z</time></trkpt>
<trkpt lat="45.786882" lon="1.371008"><ele>0</ele><time>40.0-442.6000061035156-23.700000762939453T7.5:0:0Z</time></trkpt>
<trkpt lat="45.786952" lon="1.371071"><ele>0</ele><time>28.844409942626953-441.5-21.200000762939453T7.0:0:0Z</time></trkpt>
<trkpt lat="45.787062" lon="1.371172"><ele>0</ele><time>28.844409942626953-439.6000061035156-20.700000762939453T6.5:0:0Z</time></trkpt>
<trkpt lat="45.787118" lon="1.371207"><ele>0</ele><time>28.844409942626953-439.6000061035156-21.299999237060547T6.25:0:0Z</time></trkpt>
<trkpt lat="45.787209" lon="1.371253"><ele>0</ele><time>28.844409942626953-439.79998779296875-18.100000381469727T5.0:0:0Z</time></trkpt>
<trkpt lat="45.787253" lon="1.371293"><ele>0</ele><time>28.844409942626953-441.0-22.899999618530273T5.0:0:0Z</time></trkpt>
<trkpt lat="45.787296" lon="1.371326"><ele>0</ele><time>28.844409942626953-441.0-26.200000762939453T5.0:0:0Z</time></trkpt>
<trkpt lat="45.787326" lon="1.371478"><ele>0</ele><time>20.0-436.79998779296875-43.0T5.5:0:0Z</time></trkpt>
<trkpt lat="45.787366" lon="1.371566"><ele>0</ele><time>16.970561981201172-434.5-45.29999923706055T5.75:0:0Z</time></trkpt>
<trkpt lat="45.787409" lon="1.371643"><ele>0</ele><time>14.422204971313477-433.20001220703125-44.900001525878906T6.5:0:0Z</time></trkpt>
<trkpt lat="45.787457" lon="1.371713"><ele>0</ele><time>11.313708305358887-433.1000061035156-43.29999923706055T6.75:0:0Z</time></trkpt>
<trkpt lat="45.787504" lon="1.371772"><ele>0</ele><time>16.970561981201172-432.3999938964844-42.20000076293945T6.75:0:0Z</time></trkpt>
<trkpt lat="45.787556" lon="1.371828"><ele>0</ele><time>16.970561981201172-432.20001220703125-39.29999923706055T7.0:0:0Z</time></trkpt>
<trkpt lat="45.787604" lon="1.371885"><ele>0</ele><time>20.0-432.0-38.400001525878906T7.0:0:0Z</time></trkpt>
<trkpt lat="45.787661" lon="1.371933"><ele>0</ele><time>26.832815170288086-432.3999938964844-37.70000076293945T7.0:0:0Z</time></trkpt>
<trkpt lat="45.78771" lon="1.371985"><ele>0</ele><time>26.832815170288086-432.6000061035156-37.79999923706055T7.0:0:0Z</time></trkpt>
<trkpt lat="45.787764" lon="1.372042"><ele>0</ele><time>34.1760139465332-432.79998779296875-37.70000076293945T7.0:0:0Z</time></trkpt>
<trkpt lat="45.7878" lon="1.37209"><ele>0</ele><time>34.1760139465332-433.1000061035156-36.70000076293945T6.75:0:0Z</time></trkpt>
<trkpt lat="45.787851" lon="1.372124"><ele>0</ele><time>25.298221588134766-431.79998779296875-29.700000762939453T6.75:0:0Z</time></trkpt>
<trkpt lat="45.787907" lon="1.372167"><ele>0</ele><time>26.832815170288086-431.5-29.0T6.75:0:0Z</time></trkpt>
<trkpt lat="45.787951" lon="1.372194"><ele>0</ele><time>26.832815170288086-431.70001220703125-26.600000381469727T5.75:0:0Z</time></trkpt>
<trkpt lat="45.787994" lon="1.37223"><ele>0</ele><time>26.832815170288086-431.70001220703125-29.0T5.5:0:0Z</time></trkpt>
<trkpt lat="45.788033" lon="1.372314"><ele>0</ele><time>26.832815170288086-431.29998779296875-44.400001525878906T6.0:0:0Z</time></trkpt>
<trkpt lat="45.788076" lon="1.372371"><ele>0</ele><time>20.0-431.0-43.20000076293945T5.75:0:0Z</time></trkpt>
<trkpt lat="45.788111" lon="1.372422"><ele>0</ele><time>28.844409942626953-431.1000061035156-43.70000076293945T5.75:0:0Z</time></trkpt>
<trkpt lat="45.78815" lon="1.372486"><ele>0</ele><time>28.844409942626953-431.3999938964844-45.400001525878906T5.75:0:0Z</time></trkpt>
<trkpt lat="45.788176" lon="1.372545"><ele>0</ele><time>28.844409942626953-431.3999938964844-48.79999923706055T4.25:0:0Z</time></trkpt>
<trkpt lat="45.788209" lon="1.372637"><ele>0</ele><time>28.844409942626953-432.3999938964844-58.20000076293945T4.776243209838867:0:0Z</time></trkpt>
<trkpt lat="45.788233" lon="1.372701"><ele>0</ele><time>28.844409942626953-432.1000061035156-59.599998474121094T5.0:0:0Z</time></trkpt>
<trkpt lat="45.788249" lon="1.372776"><ele>0</ele><time>28.844409942626953-432.29998779296875-66.30000305175781T5.25:0:0Z</time></trkpt>
<trkpt lat="45.788284" lon="1.372843"><ele>0</ele><time>28.844409942626953-432.20001220703125-55.0T5.25:0:0Z</time></trkpt>
<trkpt lat="45.78832" lon="1.372898"><ele>0</ele><time>28.844409942626953-432.0-46.79999923706055T5.25:0:0Z</time></trkpt>
<trkpt lat="45.788343" lon="1.372972"><ele>0</ele><time>28.844409942626953-432.0-59.5T5.5:0:0Z</time></trkpt>
<trkpt lat="45.788375" lon="1.373043"><ele>0</ele><time>28.844409942626953-432.29998779296875-60.400001525878906T5.75:0:0Z</time></trkpt>
<trkpt lat="45.78842" lon="1.373121"><ele>0</ele><time>28.844409942626953-432.1000061035156-49.70000076293945T5.75:0:0Z</time></trkpt>
<trkpt lat="45.788455" lon="1.373186"><ele>0</ele><time>28.844409942626953-431.79998779296875-49.5T5.75:0:0Z</time></trkpt>
<trkpt lat="45.788492" lon="1.373261"><ele>0</ele><time>28.844409942626953-431.5-47.599998474121094T5.75:0:0Z</time></trkpt>
<trkpt lat="45.788535" lon="1.373345"><ele>0</ele><time>35.7770881652832-431.29998779296875-48.79999923706055T6.0:0:0Z</time></trkpt>
<trkpt lat="45.788608" lon="1.373359"><ele>0</ele><time>28.844409942626953-430.8999938964844-27.600000381469727T5.0:0:0Z</time></trkpt>
<trkpt lat="45.788736" lon="1.373412"><ele>0</ele><time>28.844409942626953-430.3999938964844-18.899999618530273T5.5:0:0Z</time></trkpt>
<trkpt lat="45.788808" lon="1.373428"><ele>0</ele><time>28.844409942626953-430.5-10.300000190734863T6.25:0:0Z</time></trkpt>
<trkpt lat="45.788867" lon="1.373443"><ele>0</ele><time>28.844409942626953-430.1000061035156-7.900000095367432T6.0:0:0Z</time></trkpt>
<trkpt lat="45.788923" lon="1.373463"><ele>0</ele><time>28.844409942626953-429.8999938964844-10.300000190734863T6.25:0:0Z</time></trkpt>
<trkpt lat="45.788978" lon="1.373489"><ele>0</ele><time>28.844409942626953-429.6000061035156-9.600000381469727T6.25:0:0Z</time></trkpt>
<trkpt lat="45.78903" lon="1.373537"><ele>0</ele><time>28.844409942626953-429.20001220703125-11.100000381469727T6.0:0:0Z</time></trkpt>
<trkpt lat="45.789081" lon="1.373558"><ele>0</ele><time>35.7770881652832-429.70001220703125-10.199999809265137T5.75:0:0Z</time></trkpt>
<trkpt lat="45.789152" lon="1.37357"><ele>0</ele><time>35.7770881652832-429.70001220703125-8.100000381469727T5.75:0:0Z</time></trkpt>
<trkpt lat="45.789238" lon="1.373616"><ele>0</ele><time>28.844409942626953-428.6000061035156-20.799999237060547T6.0:0:0Z</time></trkpt>
<trkpt lat="45.789327" lon="1.373664"><ele>0</ele><time>28.844409942626953-427.20001220703125-19.899999618530273T6.25:0:0Z</time></trkpt>
<trkpt lat="45.789414" lon="1.373708"><ele>0</ele><time>28.844409942626953-425.29998779296875-15.100000381469727T6.0:0:0Z</time></trkpt>
<trkpt lat="45.789473" lon="1.373671"><ele>0</ele><time>28.844409942626953-425.29998779296875-350.1000061035156T6.0:0:0Z</time></trkpt>
<trkpt lat="45.789528" lon="1.373662"><ele>0</ele><time>28.844409942626953-425.20001220703125-350.5T5.75:0:0Z</time></trkpt>
<trkpt lat="45.789581" lon="1.373666"><ele>0</ele><time>28.844409942626953-425.20001220703125-357.6000061035156T5.75:0:0Z</time></trkpt>
<trkpt lat="45.789627" lon="1.37367"><ele>0</ele><time>28.844409942626953-425.29998779296875-3.5999999046325684T5.25:0:0Z</time></trkpt>
<trkpt lat="45.789648" lon="1.373778"><ele>0</ele><time>28.844409942626953-425.20001220703125-39.5T4.25:0:0Z</time></trkpt>
<trkpt lat="45.789683" lon="1.373827"><ele>0</ele><time>26.832815170288086-424.5-37.70000076293945T4.75:0:0Z</time></trkpt>
<trkpt lat="45.789744" lon="1.373875"><ele>0</ele><time>28.844409942626953-424.79998779296875-26.799999237060547T6.0:0:0Z</time></trkpt>
<trkpt lat="45.789817" lon="1.373977"><ele>0</ele><time>26.832815170288086-424.79998779296875-38.79999923706055T7.75:0:0Z</time></trkpt>
<trkpt lat="45.789889" lon="1.374069"><ele>0</ele><time>26.832815170288086-423.5-39.0T8.25:0:0Z</time></trkpt>
<trkpt lat="45.789955" lon="1.374142"><ele>0</ele><time>28.844409942626953-423.5-37.599998474121094T8.25:0:0Z</time></trkpt>
<trkpt lat="45.790023" lon="1.374197"><ele>0</ele><time>28.844409942626953-423.20001220703125-33.5T8.25:0:0Z</time></trkpt>
<trkpt lat="45.790103" lon="1.374194"><ele>0</ele><time>28.844409942626953-423.0-18.5T7.5:0:0Z</time></trkpt>
<trkpt lat="45.790181" lon="1.37423"><ele>0</ele><time>28.844409942626953-422.70001220703125-17.799999237060547T7.75:0:0Z</time></trkpt>
<trkpt lat="45.790259" lon="1.374257"><ele>0</ele><time>28.844409942626953-422.6000061035156-17.700000762939453T7.0:0:0Z</time></trkpt>
<trkpt lat="45.790332" lon="1.374283"><ele>0</ele><time>28.844409942626953-423.70001220703125-21.100000381469727T6.25:0:0Z</time></trkpt>
<trkpt lat="45.790389" lon="1.374312"><ele>0</ele><time>28.844409942626953-423.29998779296875-19.899999618530273T6.25:0:0Z</time></trkpt>
<trkpt lat="45.790449" lon="1.374352"><ele>0</ele><time>28.844409942626953-421.79998779296875-21.700000762939453T6.75:0:0Z</time></trkpt>
<trkpt lat="45.790514" lon="1.374382"><ele>0</ele><time>28.844409942626953-421.8999938964844-21.5T6.75:0:0Z</time></trkpt>
<trkpt lat="45.790573" lon="1.374415"><ele>0</ele><time>28.844409942626953-421.5-19.700000762939453T6.5:0:0Z</time></trkpt>
<trkpt lat="45.790614" lon="1.374445"><ele>0</ele><time>40.0-421.79998779296875-21.100000381469727T6.0:0:0Z</time></trkpt>
<trkpt lat="45.790662" lon="1.374462"><ele>0</ele><time>33.941123962402344-421.6000061035156-17.100000381469727T5.75:0:0Z</time></trkpt>
<trkpt lat="45.790715" lon="1.374476"><ele>0</ele><time>40.0-421.5-16.100000381469727T5.5:0:0Z</time></trkpt>
<trkpt lat="45.79077" lon="1.374483"><ele>0</ele><time>40.0-421.29998779296875-9.600000381469727T5.5:0:0Z</time></trkpt>
<trkpt lat="45.790869" lon="1.374501"><ele>0</ele><time>28.844409942626953-420.79998779296875-12.600000381469727T4.25:0:0Z</time></trkpt>
<trkpt lat="45.790935" lon="1.374568"><ele>0</ele><time>28.844409942626953-421.79998779296875-25.299999237060547T3.0:0:0Z</time></trkpt>
<trkpt lat="45.790982" lon="1.374578"><ele>0</ele><time>28.844409942626953-421.3999938964844-19.899999618530273T2.75:0:0Z</time></trkpt>
<trkpt lat="45.791032" lon="1.374599"><ele>0</ele><time>28.844409942626953-422.3999938964844-16.399999618530273T2.5:0:0Z</time></trkpt>
<trkpt lat="45.791107" lon="1.374636"><ele>0</ele><time>28.844409942626953-422.79998779296875-13.899999618530273T2.5:0:0Z</time></trkpt>
<trkpt lat="45.791163" lon="1.374718"><ele>0</ele><time>28.844409942626953-421.70001220703125-30.600000381469727T2.0:0:0Z</time></trkpt>
<trkpt lat="45.791222" lon="1.37473"><ele>0</ele><time>28.844409942626953-422.0-10.899999618530273T2.0:0:0Z</time></trkpt>
<trkpt lat="45.791295" lon="1.374758"><ele>0</ele><time>26.832815170288086-421.70001220703125-7.599999904632568T2.25:0:0Z</time></trkpt>
<trkpt lat="45.791382" lon="1.374769"><ele>0</ele><time>26.832815170288086-420.3999938964844-358.1000061035156T2.25:0:0Z</time></trkpt>
<trkpt lat="45.791436" lon="1.374779"><ele>0</ele><time>26.832815170288086-419.3999938964844-5.099999904632568T3.0:0:0Z</time></trkpt>
<trkpt lat="45.791481" lon="1.374775"><ele>0</ele><time>26.832815170288086-419.1000061035156-4.5T3.25:0:0Z</time></trkpt>
<trkpt lat="45.791535" lon="1.374812"><ele>0</ele><time>26.832815170288086-418.29998779296875-10.0T3.0:0:0Z</time></trkpt>
<trkpt lat="45.791608" lon="1.37485"><ele>0</ele><time>20.0-418.6000061035156-12.100000381469727T3.5:0:0Z</time></trkpt>
<trkpt lat="45.791682" lon="1.374869"><ele>0</ele><time>20.0-418.3999938964844-8.100000381469727T3.041381359100342:0:0Z</time></trkpt>
<trkpt lat="45.791725" lon="1.374891"><ele>0</ele><time>20.0-417.20001220703125-11.800000190734863T3.288236618041992:0:0Z</time></trkpt>
<trkpt lat="45.791795" lon="1.374906"><ele>0</ele><time>20.0-418.3999938964844-12.300000190734863T4.031128883361816:0:0Z</time></trkpt>
<trkpt lat="45.791853" lon="1.374926"><ele>0</ele><time>16.970561981201172-419.29998779296875-15.100000381469727T4.0:0:0Z</time></trkpt>
<trkpt lat="45.791934" lon="1.374945"><ele>0</ele><time>16.970561981201172-418.79998779296875-8.899999618530273T3.75:0:0Z</time></trkpt>
<trkpt lat="45.792" lon="1.374987"><ele>0</ele><time>16.970561981201172-417.5-19.200000762939453T3.5:0:0Z</time></trkpt>
<trkpt lat="45.792061" lon="1.375037"><ele>0</ele><time>16.970561981201172-417.6000061035156-31.200000762939453T3.783186435699463:0:0Z</time></trkpt>
<trkpt lat="45.792124" lon="1.375073"><ele>0</ele><time>11.313708305358887-417.70001220703125-15.800000190734863T3.5:0:0Z</time></trkpt>
<trkpt lat="45.792182" lon="1.375105"><ele>0</ele><time>11.313708305358887-417.8999938964844-17.200000762939453T3.5:0:0Z</time></trkpt>
<trkpt lat="45.792242" lon="1.37513"><ele>0</ele><time>11.313708305358887-417.79998779296875-18.0T3.5:0:0Z</time></trkpt>
<trkpt lat="45.792303" lon="1.375158"><ele>0</ele><time>14.422204971313477-418.1000061035156-17.799999237060547T3.25:0:0Z</time></trkpt>
<trkpt lat="45.792417" lon="1.375212"><ele>0</ele><time>11.313708305358887-420.1000061035156-16.5T3.5:0:0Z</time></trkpt>
<trkpt lat="45.792465" lon="1.375221"><ele>0</ele><time>10.0-420.79998779296875-11.199999809265137T4.031128883361816:0:0Z</time></trkpt>
<trkpt lat="45.79254" lon="1.375254"><ele>0</ele><time>10.0-421.20001220703125-12.800000190734863T4.0:0:0Z</time></trkpt>
<trkpt lat="45.792622" lon="1.375306"><ele>0</ele><time>10.0-421.8999938964844-23.700000762939453T4.25:0:0Z</time></trkpt>
<trkpt lat="45.792692" lon="1.375355"><ele>0</ele><time>10.0-422.0-24.799999237060547T4.25:0:0Z</time></trkpt>
<trkpt lat="45.792766" lon="1.375404"><ele>0</ele><time>10.0-422.20001220703125-25.799999237060547T4.25:0:0Z</time></trkpt>
<trkpt lat="45.792841" lon="1.375438"><ele>0</ele><time>10.0-422.5-18.700000762939453T4.25:0:0Z</time></trkpt>
<trkpt lat="45.792887" lon="1.375454"><ele>0</ele><time>10.0-422.3999938964844-15.300000190734863T4.5:0:0Z</time></trkpt>
<trkpt lat="45.792974" lon="1.375465"><ele>0</ele><time>10.0-422.29998779296875-6.599999904632568T4.5:0:0Z</time></trkpt>
<trkpt lat="45.793055" lon="1.375467"><ele>0</ele><time>13.416407585144043-422.5-1.2999999523162842T4.25:0:0Z</time></trkpt>
<trkpt lat="45.793137" lon="1.375482"><ele>0</ele><time>13.416407585144043-423.20001220703125-3.5T4.5:0:0Z</time></trkpt>
<trkpt lat="45.793209" lon="1.375516"><ele>0</ele><time>13.416407585144043-421.79998779296875-11.300000190734863T4.25:0:0Z</time></trkpt>
<trkpt lat="45.793281" lon="1.375529"><ele>0</ele><time>10.0-423.70001220703125-10.899999618530273T4.031128883361816:0:0Z</time></trkpt>
<trkpt lat="45.793353" lon="1.375548"><ele>0</ele><time>10.0-424.5-11.399999618530273T4.031128883361816:0:0Z</time></trkpt>
<trkpt lat="45.793426" lon="1.37559"><ele>0</ele><time>10.0-425.8999938964844-21.799999237060547T4.279310703277588:0:0Z</time></trkpt>
<trkpt lat="45.793495" lon="1.375633"><ele>0</ele><time>10.0-426.3999938964844-24.799999237060547T4.279310703277588:0:0Z</time></trkpt>
<trkpt lat="45.793557" lon="1.375661"><ele>0</ele><time>10.0-426.8999938964844-22.0T4.0:0:0Z</time></trkpt>
<trkpt lat="45.793621" lon="1.375713"><ele>0</ele><time>10.0-426.20001220703125-27.600000381469727T4.0:0:0Z</time></trkpt>
<trkpt lat="45.793688" lon="1.375769"><ele>0</ele><time>10.0-426.6000061035156-29.600000381469727T4.25:0:0Z</time></trkpt>
<trkpt lat="45.793761" lon="1.375822"><ele>0</ele><time>14.422204971313477-426.70001220703125-28.899999618530273T4.25:0:0Z</time></trkpt>
<trkpt lat="45.793819" lon="1.375872"><ele>0</ele><time>14.422204971313477-426.8999938964844-33.20000076293945T4.0:0:0Z</time></trkpt>
<trkpt lat="45.793873" lon="1.375945"><ele>0</ele><time>14.422204971313477-427.20001220703125-40.20000076293945T4.25:0:0Z</time></trkpt>
<trkpt lat="45.79393" lon="1.376002"><ele>0</ele><time>13.416407585144043-427.6000061035156-38.0T3.75:0:0Z</time></trkpt>
<trkpt lat="45.793987" lon="1.376066"><ele>0</ele><time>13.416407585144043-427.6000061035156-38.599998474121094T4.0:0:0Z</time></trkpt>
<trkpt lat="45.794048" lon="1.376141"><ele>0</ele><time>10.0-427.70001220703125-40.0T4.25:0:0Z</time></trkpt>
<trkpt lat="45.794112" lon="1.376194"><ele>0</ele><time>8.485280990600586-428.3999938964844-30.799999237060547T4.279310703277588:0:0Z</time></trkpt>
<trkpt lat="45.794176" lon="1.376246"><ele>0</ele><time>8.485280990600586-427.70001220703125-25.100000381469727T4.25:0:0Z</time></trkpt>
<trkpt lat="45.794242" lon="1.376258"><ele>0</ele><time>10.0-427.70001220703125-10.399999618530273T4.0:0:0Z</time></trkpt>
<trkpt lat="45.794321" lon="1.376273"><ele>0</ele><time>10.0-427.8999938964844-4.900000095367432T4.25:0:0Z</time></trkpt>
<trkpt lat="45.794393" lon="1.376279"><ele>0</ele><time>10.0-427.3999938964844-2.5999999046325684T4.527692794799805:0:0Z</time></trkpt>
<trkpt lat="45.794482" lon="1.376287"><ele>0</ele><time>7.211102485656738-427.0-358.0T5.0:0:0Z</time></trkpt>
<trkpt lat="45.794572" lon="1.37628"><ele>0</ele><time>8.485280990600586-427.29998779296875-356.0T5.0:0:0Z</time></trkpt>
<trkpt lat="45.79465" lon="1.376274"><ele>0</ele><time>10.0-427.8999938964844-356.1000061035156T4.5:0:0Z</time></trkpt>
<trkpt lat="45.794717" lon="1.376275"><ele>0</ele><time>10.0-427.20001220703125-356.6000061035156T4.25:0:0Z</time></trkpt>
<trkpt lat="45.794784" lon="1.376259"><ele>0</ele><time>13.416407585144043-427.20001220703125-354.6000061035156T4.0:0:0Z</time></trkpt>
<trkpt lat="45.794866" lon="1.376245"><ele>0</ele><time>10.0-428.0-356.79998779296875T4.25:0:0Z</time></trkpt>
<trkpt lat="45.794934" lon="1.376235"><ele>0</ele><time>8.9442720413208-428.6000061035156-351.8999938964844T4.0:0:0Z</time></trkpt>
<trkpt lat="45.794985" lon="1.376185"><ele>0</ele><time>8.9442720413208-429.5-334.79998779296875T2.25:0:0Z</time></trkpt>
<trkpt lat="45.795026" lon="1.376219"><ele>0</ele><time>11.313708305358887-429.8999938964844-83.0999984741211T0.0:0:0Z</time></trkpt>
<trkpt lat="45.795067" lon="1.376173"><ele>0</ele><time>8.485280990600586-431.29998779296875-302.20001220703125T3.0:0:0Z</time></trkpt>
<trkpt lat="45.795074" lon="1.376065"><ele>0</ele><time>10.0-428.5-287.79998779296875T3.75:0:0Z</time></trkpt>
<trkpt lat="45.795079" lon="1.375969"><ele>0</ele><time>11.313708305358887-427.70001220703125-283.20001220703125T3.5:0:0Z</time></trkpt>
<trkpt lat="45.795088" lon="1.375891"><ele>0</ele><time>16.970561981201172-427.5-284.29998779296875T3.25:0:0Z</time></trkpt>
<trkpt lat="45.795086" lon="1.375815"><ele>0</ele><time>20.0-428.1000061035156-284.70001220703125T3.0:0:0Z</time></trkpt>
<trkpt lat="45.795088" lon="1.375743"><ele>0</ele><time>17.8885440826416-429.29998779296875-287.29998779296875T3.0:0:0Z</time></trkpt>
<trkpt lat="45.795122" lon="1.375633"><ele>0</ele><time>14.422204971313477-428.79998779296875-295.79998779296875T3.25:0:0Z</time></trkpt>
<trkpt lat="45.795158" lon="1.375589"><ele>0</ele><time>14.422204971313477-429.20001220703125-307.79998779296875T3.0:0:0Z</time></trkpt>
<trkpt lat="45.795177" lon="1.375506"><ele>0</ele><time>10.0-428.70001220703125-288.29998779296875T2.75:0:0Z</time></trkpt>
<trkpt lat="45.795197" lon="1.375421"><ele>0</ele><time>8.485280990600586-427.79998779296875-292.6000061035156T3.25:0:0Z</time></trkpt>
<trkpt lat="45.795234" lon="1.375356"><ele>0</ele><time>8.485280990600586-425.79998779296875-309.8999938964844T2.9261748790740967:0:0Z</time></trkpt>
<trkpt lat="45.795266" lon="1.375298"><ele>0</ele><time>11.313708305358887-425.20001220703125-307.1000061035156T3.041381359100342:0:0Z</time></trkpt>
<trkpt lat="45.795297" lon="1.375215"><ele>0</ele><time>14.422204971313477-424.6000061035156-300.29998779296875T3.535533905029297:0:0Z</time></trkpt>
<trkpt lat="45.795318" lon="1.375151"><ele>0</ele><time>20.0-424.6000061035156-298.29998779296875T3.0:0:0Z</time></trkpt>
<trkpt lat="45.795329" lon="1.375078"><ele>0</ele><time>26.832815170288086-424.20001220703125-294.29998779296875T2.25:0:0Z</time></trkpt>
<trkpt lat="45.795342" lon="1.375003"><ele>0</ele><time>20.0-424.0-294.6000061035156T2.0:0:0Z</time></trkpt>
<trkpt lat="45.795374" lon="1.374946"><ele>0</ele><time>20.0-423.5-299.79998779296875T2.0:0:0Z</time></trkpt>
<trkpt lat="45.795391" lon="1.374884"><ele>0</ele><time>17.8885440826416-422.8999938964844-291.8999938964844T2.5495097637176514:0:0Z</time></trkpt>
<trkpt lat="45.795425" lon="1.374837"><ele>0</ele><time>17.0880069732666-422.5-296.3999938964844T2.5:0:0Z</time></trkpt>
<trkpt lat="45.795471" lon="1.374766"><ele>0</ele><time>17.8885440826416-422.1000061035156-301.20001220703125T2.5:0:0Z</time></trkpt>
<trkpt lat="45.795495" lon="1.374685"><ele>0</ele><time>17.8885440826416-421.79998779296875-299.1000061035156T3.0:0:0Z</time></trkpt>
<trkpt lat="45.795534" lon="1.374644"><ele>0</ele><time>17.0880069732666-420.5-320.20001220703125T2.3048861026763916:0:0Z</time></trkpt>
<trkpt lat="45.795569" lon="1.37459"><ele>0</ele><time>13.416407585144043-419.8999938964844-310.1000061035156T2.5495097637176514:0:0Z</time></trkpt>
<trkpt lat="45.795594" lon="1.374506"><ele>0</ele><time>17.8885440826416-420.0-300.5T3.25:0:0Z</time></trkpt>
<trkpt lat="45.795632" lon="1.374427"><ele>0</ele><time>20.0-420.0-302.29998779296875T3.75:0:0Z</time></trkpt>
<trkpt lat="45.795654" lon="1.374369"><ele>0</ele><time>17.8885440826416-420.20001220703125-300.6000061035156T4.25:0:0Z</time></trkpt>
<trkpt lat="45.795666" lon="1.374301"><ele>0</ele><time>14.422204971313477-422.0-301.29998779296875T4.5:0:0Z</time></trkpt>
<trkpt lat="45.795693" lon="1.374241"><ele>0</ele><time>14.422204971313477-422.1000061035156-301.6000061035156T5.0:0:0Z</time></trkpt>
<trkpt lat="45.795714" lon="1.37417"><ele>0</ele><time>14.422204971313477-423.0-306.70001220703125T5.5:0:0Z</time></trkpt>
<trkpt lat="45.795748" lon="1.374111"><ele>0</ele><time>16.970561981201172-422.8999938964844-308.79998779296875T5.75:0:0Z</time></trkpt>
<trkpt lat="45.795797" lon="1.374029"><ele>0</ele><time>14.422204971313477-423.0-309.0T6.75:0:0Z</time></trkpt>
<trkpt lat="45.795844" lon="1.373947"><ele>0</ele><time>20.0-423.0-309.0T7.25:0:0Z</time></trkpt>
<trkpt lat="45.795888" lon="1.373881"><ele>0</ele><time>17.8885440826416-423.0-310.3999938964844T7.25:0:0Z</time></trkpt>
<trkpt lat="45.795938" lon="1.373811"><ele>0</ele><time>26.832815170288086-423.1000061035156-311.79998779296875T7.5:0:0Z</time></trkpt>
<trkpt lat="45.795979" lon="1.373743"><ele>0</ele><time>20.0-423.6000061035156-315.1000061035156T7.5:0:0Z</time></trkpt>
<trkpt lat="45.796086" lon="1.373596"><ele>0</ele><time>20.0-423.1000061035156-318.1000061035156T7.25:0:0Z</time></trkpt>
<trkpt lat="45.796142" lon="1.373537"><ele>0</ele><time>20.0-422.8999938964844-320.29998779296875T7.5:0:0Z</time></trkpt>
<trkpt lat="45.796207" lon="1.373477"><ele>0</ele><time>20.0-422.79998779296875-321.0T8.0:0:0Z</time></trkpt>
<trkpt lat="45.79628" lon="1.373431"><ele>0</ele><time>16.970561981201172-421.70001220703125-321.79998779296875T8.0:0:0Z</time></trkpt>
<trkpt lat="45.796334" lon="1.373352"><ele>0</ele><time>14.422204971313477-420.8999938964844-318.5T8.265137672424316:0:0Z</time></trkpt>
<trkpt lat="45.796387" lon="1.373276"><ele>0</ele><time>13.416407585144043-419.79998779296875-315.79998779296875T8.5:0:0Z</time></trkpt>
<trkpt lat="45.796441" lon="1.373186"><ele>0</ele><time>13.416407585144043-419.6000061035156-310.29998779296875T9.0:0:0Z</time></trkpt>
<trkpt lat="45.7965" lon="1.37309"><ele>0</ele><time>13.416407585144043-419.0-309.8999938964844T9.5:0:0Z</time></trkpt>
<trkpt lat="45.796559" lon="1.37299"><ele>0</ele><time>10.0-419.6000061035156-309.79998779296875T9.75:0:0Z</time></trkpt>
<trkpt lat="45.79662" lon="1.372885"><ele>0</ele><time>10.0-419.29998779296875-309.29998779296875T10.5:0:0Z</time></trkpt>
<trkpt lat="45.796674" lon="1.37278"><ele>0</ele><time>10.0-420.0-309.29998779296875T10.5:0:0Z</time></trkpt>
<trkpt lat="45.796741" lon="1.37267"><ele>0</ele><time>8.485280990600586-419.79998779296875-308.79998779296875T11.25:0:0Z</time></trkpt>
<trkpt lat="45.796809" lon="1.372571"><ele>0</ele><time>8.485280990600586-418.79998779296875-309.79998779296875T11.0:0:0Z</time></trkpt>
<trkpt lat="45.796873" lon="1.37245"><ele>0</ele><time>7.211102485656738-418.29998779296875-306.8999938964844T11.75:0:0Z</time></trkpt>
<trkpt lat="45.79693" lon="1.372322"><ele>0</ele><time>7.211102485656738-417.6000061035156-303.79998779296875T12.25:0:0Z</time></trkpt>
<trkpt lat="45.79699" lon="1.37219"><ele>0</ele><time>7.211102485656738-417.0-302.8999938964844T12.0:0:0Z</time></trkpt>
<trkpt lat="45.797043" lon="1.372057"><ele>0</ele><time>7.211102485656738-417.3999938964844-300.79998779296875T12.0:0:0Z</time></trkpt>
<trkpt lat="45.797107" lon="1.371921"><ele>0</ele><time>7.211102485656738-417.0-302.20001220703125T12.25:0:0Z</time></trkpt>
<trkpt lat="45.79717" lon="1.371788"><ele>0</ele><time>8.485280990600586-416.5-302.79998779296875T12.25:0:0Z</time></trkpt>
<trkpt lat="45.79722" lon="1.371658"><ele>0</ele><time>8.485280990600586-416.5-301.8999938964844T12.0:0:0Z</time></trkpt>
<trkpt lat="45.797275" lon="1.371529"><ele>0</ele><time>8.485280990600586-416.6000061035156-301.79998779296875T11.75:0:0Z</time></trkpt>
<trkpt lat="45.797329" lon="1.371404"><ele>0</ele><time>10.0-416.6000061035156-302.0T11.5:0:0Z</time></trkpt>
<trkpt lat="45.797382" lon="1.37129"><ele>0</ele><time>13.416407585144043-416.20001220703125-301.29998779296875T11.25:0:0Z</time></trkpt>
<trkpt lat="45.797437" lon="1.37117"><ele>0</ele><time>14.422204971313477-415.79998779296875-301.3999938964844T11.25:0:0Z</time></trkpt>
<trkpt lat="45.797475" lon="1.371071"><ele>0</ele><time>14.422204971313477-416.20001220703125-300.70001220703125T10.25:0:0Z</time></trkpt>
<trkpt lat="45.797521" lon="1.370955"><ele>0</ele><time>16.970561981201172-416.1000061035156-299.20001220703125T10.25:0:0Z</time></trkpt>
<trkpt lat="45.797561" lon="1.370839"><ele>0</ele><time>14.422204971313477-416.0-298.20001220703125T10.5:0:0Z</time></trkpt>
<trkpt lat="45.797604" lon="1.370737"><ele>0</ele><time>14.422204971313477-416.20001220703125-298.6000061035156T10.0:0:0Z</time></trkpt>
<trkpt lat="45.797641" lon="1.370644"><ele>0</ele><time>14.422204971313477-416.1000061035156-299.29998779296875T9.5:0:0Z</time></trkpt>
<trkpt lat="45.797694" lon="1.370545"><ele>0</ele><time>14.422204971313477-416.0-300.1000061035156T9.5:0:0Z</time></trkpt>
<trkpt lat="45.797729" lon="1.370456"><ele>0</ele><time>16.970561981201172-415.8999938964844-299.70001220703125T9.0:0:0Z</time></trkpt>
<trkpt lat="45.797751" lon="1.370378"><ele>0</ele><time>16.970561981201172-415.70001220703125-298.20001220703125T7.5:0:0Z</time></trkpt>
<trkpt lat="45.797778" lon="1.370311"><ele>0</ele><time>16.970561981201172-415.6000061035156-297.8999938964844T6.75:0:0Z</time></trkpt>
<trkpt lat="45.797805" lon="1.370246"><ele>0</ele><time>20.0-415.5-298.6000061035156T6.25:0:0Z</time></trkpt>
<trkpt lat="45.797829" lon="1.370175"><ele>0</ele><time>20.0-415.3999938964844-298.5T6.25:0:0Z</time></trkpt>
<trkpt lat="45.797866" lon="1.370101"><ele>0</ele><time>22.627416610717773-415.5-299.29998779296875T6.25:0:0Z</time></trkpt>
<trkpt lat="45.797893" lon="1.370028"><ele>0</ele><time>28.844409942626953-415.6000061035156-299.0T6.25:0:0Z</time></trkpt>
<trkpt lat="45.797905" lon="1.369955"><ele>0</ele><time>35.7770881652832-415.79998779296875-293.70001220703125T6.0:0:0Z</time></trkpt>
<trkpt lat="45.797937" lon="1.369842"><ele>0</ele><time>28.844409942626953-416.3999938964844-288.79998779296875T5.0:0:0Z</time></trkpt>
<trkpt lat="45.797984" lon="1.369739"><ele>0</ele><time>28.844409942626953-416.5-300.20001220703125T5.25:0:0Z</time></trkpt>
<trkpt lat="45.798034" lon="1.36964"><ele>0</ele><time>28.844409942626953-416.70001220703125-301.29998779296875T5.0:0:0Z</time></trkpt>
<trkpt lat="45.798071" lon="1.369553"><ele>0</ele><time>28.844409942626953-417.1000061035156-299.5T5.5:0:0Z</time></trkpt>
<trkpt lat="45.798108" lon="1.369463"><ele>0</ele><time>28.844409942626953-417.29998779296875-298.70001220703125T6.5:0:0Z</time></trkpt>
<trkpt lat="45.798137" lon="1.369373"><ele>0</ele><time>28.844409942626953-417.70001220703125-297.20001220703125T6.75:0:0Z</time></trkpt>
<trkpt lat="45.798162" lon="1.369298"><ele>0</ele><time>28.844409942626953-417.70001220703125-296.79998779296875T6.75:0:0Z</time></trkpt>
<trkpt lat="45.798187" lon="1.369216"><ele>0</ele><time>28.844409942626953-417.79998779296875-294.3999938964844T6.75:0:0Z</time></trkpt>
<trkpt lat="45.798217" lon="1.369129"><ele>0</ele><time>28.844409942626953-418.0-294.29998779296875T7.0:0:0Z</time></trkpt>
<trkpt lat="45.798237" lon="1.36906"><ele>0</ele><time>28.844409942626953-417.79998779296875-293.70001220703125T6.5:0:0Z</time></trkpt>
<trkpt lat="45.798277" lon="1.368972"><ele>0</ele><time>28.844409942626953-418.5-296.8999938964844T6.75:0:0Z</time></trkpt>
<trkpt lat="45.798304" lon="1.368883"><ele>0</ele><time>28.844409942626953-418.8999938964844-295.8999938964844T6.75:0:0Z</time></trkpt>
<trkpt lat="45.79833" lon="1.368809"><ele>0</ele><time>28.844409942626953-418.6000061035156-295.5T6.25:0:0Z</time></trkpt>
<trkpt lat="45.798353" lon="1.368739"><ele>0</ele><time>28.844409942626953-418.3999938964844-296.0T6.0:0:0Z</time></trkpt>
<trkpt lat="45.798369" lon="1.368669"><ele>0</ele><time>28.844409942626953-418.6000061035156-295.1000061035156T5.75:0:0Z</time></trkpt>
<trkpt lat="45.798381" lon="1.368567"><ele>0</ele><time>26.832815170288086-416.29998779296875-297.29998779296875T5.5:0:0Z</time></trkpt>
<trkpt lat="45.798404" lon="1.368506"><ele>0</ele><time>20.0-415.70001220703125-299.20001220703125T5.5:0:0Z</time></trkpt>
<trkpt lat="45.79844" lon="1.368441"><ele>0</ele><time>20.0-415.1000061035156-303.0T5.5:0:0Z</time></trkpt>
<trkpt lat="45.798496" lon="1.368325"><ele>0</ele><time>20.0-415.3999938964844-300.70001220703125T5.0:0:0Z</time></trkpt>
<trkpt lat="45.79853" lon="1.36826"><ele>0</ele><time>20.0-415.29998779296875-304.79998779296875T5.5:0:0Z</time></trkpt>
<trkpt lat="45.798561" lon="1.368202"><ele>0</ele><time>20.0-415.5-305.70001220703125T5.5:0:0Z</time></trkpt>
<trkpt lat="45.798611" lon="1.368105"><ele>0</ele><time>20.0-415.29998779296875-304.0T4.5:0:0Z</time></trkpt>
<trkpt lat="45.798641" lon="1.368052"><ele>0</ele><time>20.0-415.3999938964844-305.79998779296875T4.75:0:0Z</time></trkpt>
<trkpt lat="45.798676" lon="1.367968"><ele>0</ele><time>20.0-415.29998779296875-300.5T5.75:0:0Z</time></trkpt>
<trkpt lat="45.798708" lon="1.367881"><ele>0</ele><time>22.627416610717773-415.20001220703125-297.5T6.75:0:0Z</time></trkpt>
<trkpt lat="45.798723" lon="1.367801"><ele>0</ele><time>20.0-414.8999938964844-297.0T6.25:0:0Z</time></trkpt>
<trkpt lat="45.798752" lon="1.36774"><ele>0</ele><time>20.0-414.20001220703125-305.3999938964844T6.25:0:0Z</time></trkpt>
<trkpt lat="45.798795" lon="1.367664"><ele>0</ele><time>16.970561981201172-413.3999938964844-313.29998779296875T6.0:0:0Z</time></trkpt>
<trkpt lat="45.798837" lon="1.367593"><ele>0</ele><time>16.970561981201172-412.6000061035156-311.5T6.5:0:0Z</time></trkpt>
<trkpt lat="45.798883" lon="1.367503"><ele>0</ele><time>16.970561981201172-412.0-309.8999938964844T6.75:0:0Z</time></trkpt>
<trkpt lat="45.79891" lon="1.367416"><ele>0</ele><time>14.422204971313477-411.3999938964844-304.5T6.25:0:0Z</time></trkpt>
<trkpt lat="45.798952" lon="1.367334"><ele>0</ele><time>13.416407585144043-410.8999938964844-307.5T6.75:0:0Z</time></trkpt>
<trkpt lat="45.798991" lon="1.367264"><ele>0</ele><time>17.0880069732666-411.20001220703125-311.6000061035156T6.75:0:0Z</time></trkpt>
<trkpt lat="45.79904" lon="1.367186"><ele>0</ele><time>17.8885440826416-411.20001220703125-312.1000061035156T7.25:0:0Z</time></trkpt>
<trkpt lat="45.799083" lon="1.367107"><ele>0</ele><time>17.8885440826416-411.79998779296875-311.29998779296875T7.5:0:0Z</time></trkpt>
<trkpt lat="45.799126" lon="1.367028"><ele>0</ele><time>14.422204971313477-412.0-307.6000061035156T7.25:0:0Z</time></trkpt>
<trkpt lat="45.799164" lon="1.366958"><ele>0</ele><time>14.422204971313477-412.29998779296875-308.1000061035156T7.0:0:0Z</time></trkpt>
<trkpt lat="45.799208" lon="1.366886"><ele>0</ele><time>14.422204971313477-411.8999938964844-309.70001220703125T7.0:0:0Z</time></trkpt>
<trkpt lat="45.799259" lon="1.366808"><ele>0</ele><time>13.416407585144043-412.5-309.79998779296875T7.25:0:0Z</time></trkpt>
<trkpt lat="45.799299" lon="1.366737"><ele>0</ele><time>13.416407585144043-412.6000061035156-309.79998779296875T7.25:0:0Z</time></trkpt>
<trkpt lat="45.799336" lon="1.366674"><ele>0</ele><time>13.416407585144043-412.3999938964844-310.70001220703125T7.25:0:0Z</time></trkpt>
<trkpt lat="45.799391" lon="1.36661"><ele>0</ele><time>13.416407585144043-411.8999938964844-316.0T7.25:0:0Z</time></trkpt>
<trkpt lat="45.799424" lon="1.366546"><ele>0</ele><time>13.416407585144043-411.0-312.0T6.5:0:0Z</time></trkpt>
<trkpt lat="45.799479" lon="1.366436"><ele>0</ele><time>13.416407585144043-410.1000061035156-312.1000061035156T6.0:0:0Z</time></trkpt>
<trkpt lat="45.799513" lon="1.366378"><ele>0</ele><time>13.416407585144043-410.29998779296875-310.20001220703125T6.0:0:0Z</time></trkpt>
<trkpt lat="45.799541" lon="1.366324"><ele>0</ele><time>14.422204971313477-410.20001220703125-309.70001220703125T5.75:0:0Z</time></trkpt>
<trkpt lat="45.799577" lon="1.366284"><ele>0</ele><time>14.422204971313477-409.79998779296875-315.79998779296875T5.0:0:0Z</time></trkpt>
<trkpt lat="45.799618" lon="1.366225"><ele>0</ele><time>10.0-409.0-310.70001220703125T5.5:0:0Z</time></trkpt>
<trkpt lat="45.799644" lon="1.366169"><ele>0</ele><time>10.0-410.0-306.6000061035156T5.25:0:0Z</time></trkpt>
<trkpt lat="45.799677" lon="1.366114"><ele>0</ele><time>10.0-409.70001220703125-308.29998779296875T5.5:0:0Z</time></trkpt>
<trkpt lat="45.799712" lon="1.366053"><ele>0</ele><time>10.0-409.70001220703125-311.70001220703125T5.5:0:0Z</time></trkpt>
<trkpt lat="45.799769" lon="1.365971"><ele>0</ele><time>10.0-409.20001220703125-312.8999938964844T5.0:0:0Z</time></trkpt>
<trkpt lat="45.799823" lon="1.365871"><ele>0</ele><time>10.0-409.0-310.5T5.25:0:0Z</time></trkpt>
<trkpt lat="45.799881" lon="1.365751"><ele>0</ele><time>10.0-410.20001220703125-306.79998779296875T5.771697998046875:0:0Z</time></trkpt>
<trkpt lat="45.799911" lon="1.365701"><ele>0</ele><time>10.0-410.1000061035156-309.6000061035156T5.25:0:0Z</time></trkpt>
<trkpt lat="45.799948" lon="1.365649"><ele>0</ele><time>10.0-410.20001220703125-310.3999938964844T5.25:0:0Z</time></trkpt>
<trkpt lat="45.799981" lon="1.365601"><ele>0</ele><time>10.0-410.5-309.0T5.0:0:0Z</time></trkpt>
<trkpt lat="45.800017" lon="1.365548"><ele>0</ele><time>10.0-410.8999938964844-311.5T5.0:0:0Z</time></trkpt>
<trkpt lat="45.800077" lon="1.365435"><ele>0</ele><time>10.0-411.29998779296875-308.0T5.25:0:0Z</time></trkpt>
<trkpt lat="45.800126" lon="1.365342"><ele>0</ele><time>10.0-411.70001220703125-303.79998779296875T4.75:0:0Z</time></trkpt>
<trkpt lat="45.800162" lon="1.365255"><ele>0</ele><time>10.0-412.5-295.79998779296875T4.25:0:0Z</time></trkpt>
<trkpt lat="45.800165" lon="1.365146"><ele>0</ele><time>10.0-412.3999938964844-274.29998779296875T4.25:0:0Z</time></trkpt>
<trkpt lat="45.800114" lon="1.36505"><ele>0</ele><time>10.0-412.5-239.3000030517578T4.5:0:0Z</time></trkpt>
<trkpt lat="45.800088" lon="1.364994"><ele>0</ele><time>11.313708305358887-412.5-235.0T4.75:0:0Z</time></trkpt>
<trkpt lat="45.800059" lon="1.36494"><ele>0</ele><time>11.313708305358887-412.20001220703125-236.89999389648438T5.0:0:0Z</time></trkpt>
<trkpt lat="45.800027" lon="1.364875"><ele>0</ele><time>14.422204971313477-412.1000061035156-236.3000030517578T5.5:0:0Z</time></trkpt>
<trkpt lat="45.799931" lon="1.364689"><ele>0</ele><time>14.422204971313477-411.8999938964844-233.3000030517578T6.0:0:0Z</time></trkpt>
<trkpt lat="45.799891" lon="1.364621"><ele>0</ele><time>17.8885440826416-411.29998779296875-232.89999389648438T6.25:0:0Z</time></trkpt>
<trkpt lat="45.799862" lon="1.364548"><ele>0</ele><time>17.8885440826416-411.29998779296875-234.89999389648438T6.5:0:0Z</time></trkpt>
<trkpt lat="45.799826" lon="1.364482"><ele>0</ele><time>17.8885440826416-411.3999938964844-233.0T6.5:0:0Z</time></trkpt>
<trkpt lat="45.799793" lon="1.364413"><ele>0</ele><time>17.8885440826416-411.20001220703125-234.39999389648438T6.75:0:0Z</time></trkpt>
<trkpt lat="45.799752" lon="1.364338"><ele>0</ele><time>17.8885440826416-411.1000061035156-232.60000610351563T6.75:0:0Z</time></trkpt>
<trkpt lat="45.799712" lon="1.364262"><ele>0</ele><time>20.0-411.0-232.60000610351563T7.0:0:0Z</time></trkpt>
<trkpt lat="45.799675" lon="1.364187"><ele>0</ele><time>20.0-411.1000061035156-233.3000030517578T7.0:0:0Z</time></trkpt>
<trkpt lat="45.799636" lon="1.364113"><ele>0</ele><time>20.0-411.1000061035156-233.39999389648438T7.0:0:0Z</time></trkpt>
<trkpt lat="45.799605" lon="1.36405"><ele>0</ele><time>20.0-410.79998779296875-233.3000030517578T6.75:0:0Z</time></trkpt>
<trkpt lat="45.799572" lon="1.363968"><ele>0</ele><time>20.0-410.5-235.10000610351563T6.75:0:0Z</time></trkpt>
<trkpt lat="45.799546" lon="1.363886"><ele>0</ele><time>14.422204971313477-409.5-236.60000610351563T6.75:0:0Z</time></trkpt>
<trkpt lat="45.799496" lon="1.363823"><ele>0</ele><time>14.422204971313477-409.5-224.60000610351563T6.75:0:0Z</time></trkpt>
<trkpt lat="45.799462" lon="1.363755"><ele>0</ele><time>14.422204971313477-409.1000061035156-230.0T6.75:0:0Z</time></trkpt>
<trkpt lat="45.799428" lon="1.363685"><ele>0</ele><time>10.0-410.1000061035156-233.10000610351563T6.5:0:0Z</time></trkpt>
<trkpt lat="45.799399" lon="1.363613"><ele>0</ele><time>10.0-410.5-234.5T6.5:0:0Z</time></trkpt>
<trkpt lat="45.799363" lon="1.363541"><ele>0</ele><time>13.416407585144043-410.6000061035156-234.60000610351563T6.75:0:0Z</time></trkpt>
<trkpt lat="45.799329" lon="1.363467"><ele>0</ele><time>13.416407585144043-410.6000061035156-235.5T6.75:0:0Z</time></trkpt>
<trkpt lat="45.799295" lon="1.36339"><ele>0</ele><time>13.416407585144043-410.6000061035156-236.0T7.0:0:0Z</time></trkpt>
<trkpt lat="45.799264" lon="1.363322"><ele>0</ele><time>13.416407585144043-410.70001220703125-235.3000030517578T6.75:0:0Z</time></trkpt>
<trkpt lat="45.799231" lon="1.363234"><ele>0</ele><time>14.422204971313477-410.79998779296875-237.0T7.0:0:0Z</time></trkpt>
<trkpt lat="45.799191" lon="1.363158"><ele>0</ele><time>14.422204971313477-410.29998779296875-235.60000610351563T7.25:0:0Z</time></trkpt>
<trkpt lat="45.799159" lon="1.363086"><ele>0</ele><time>14.422204971313477-410.3999938964844-233.6999969482422T7.0:0:0Z</time></trkpt>
<trkpt lat="45.799123" lon="1.36301"><ele>0</ele><time>14.422204971313477-410.6000061035156-234.10000610351563T7.0:0:0Z</time></trkpt>
<trkpt lat="45.799085" lon="1.362937"><ele>0</ele><time>14.422204971313477-410.5-234.1999969482422T7.0:0:0Z</time></trkpt>
<trkpt lat="45.79905" lon="1.362875"><ele>0</ele><time>13.416407585144043-409.29998779296875-233.39999389648438T7.0:0:0Z</time></trkpt>
<trkpt lat="45.799011" lon="1.362805"><ele>0</ele><time>13.416407585144043-408.79998779296875-234.5T7.0:0:0Z</time></trkpt>
<trkpt lat="45.798974" lon="1.362729"><ele>0</ele><time>13.416407585144043-408.6000061035156-233.60000610351563T7.25:0:0Z</time></trkpt>
<trkpt lat="45.798938" lon="1.362653"><ele>0</ele><time>13.416407585144043-408.3999938964844-234.60000610351563T7.25:0:0Z</time></trkpt>
<trkpt lat="45.798899" lon="1.362575"><ele>0</ele><time>13.416407585144043-408.3999938964844-235.0T7.25:0:0Z</time></trkpt>
<trkpt lat="45.798857" lon="1.362499"><ele>0</ele><time>14.422204971313477-408.29998779296875-233.5T7.25:0:0Z</time></trkpt>
<trkpt lat="45.798819" lon="1.362417"><ele>0</ele><time>14.422204971313477-408.29998779296875-234.10000610351563T7.25:0:0Z</time></trkpt>
<trkpt lat="45.798785" lon="1.362336"><ele>0</ele><time>17.8885440826416-408.20001220703125-235.3000030517578T7.25:0:0Z</time></trkpt>
<trkpt lat="45.798754" lon="1.362264"><ele>0</ele><time>25.298221588134766-408.29998779296875-235.10000610351563T7.0:0:0Z</time></trkpt>
<trkpt lat="45.798713" lon="1.3622"><ele>0</ele><time>25.298221588134766-408.20001220703125-232.10000610351563T6.75:0:0Z</time></trkpt>
<trkpt lat="45.798689" lon="1.362137"><ele>0</ele><time>25.298221588134766-408.29998779296875-235.3000030517578T6.5:0:0Z</time></trkpt>
<trkpt lat="45.798662" lon="1.362073"><ele>0</ele><time>26.832815170288086-408.3999938964844-235.5T6.25:0:0Z</time></trkpt>
<trkpt lat="45.798621" lon="1.361976"><ele>0</ele><time>14.422204971313477-407.3999938964844-238.10000610351563T4.5:0:0Z</time></trkpt>
<trkpt lat="45.798626" lon="1.361871"><ele>0</ele><time>14.422204971313477-407.6000061035156-267.70001220703125T4.25:0:0Z</time></trkpt>
<trkpt lat="45.79866" lon="1.361813"><ele>0</ele><time>14.422204971313477-407.1000061035156-296.79998779296875T5.0:0:0Z</time></trkpt>
<trkpt lat="45.798685" lon="1.361739"><ele>0</ele><time>14.422204971313477-407.1000061035156-296.5T5.25:0:0Z</time></trkpt>
<trkpt lat="45.798737" lon="1.361624"><ele>0</ele><time>14.422204971313477-407.0-300.6000061035156T5.25:0:0Z</time></trkpt>
<trkpt lat="45.798761" lon="1.361567"><ele>0</ele><time>17.8885440826416-407.0-300.5T5.25:0:0Z</time></trkpt>
<trkpt lat="45.798781" lon="1.361501"><ele>0</ele><time>11.313708305358887-406.0-297.1000061035156T5.25:0:0Z</time></trkpt>
<trkpt lat="45.798805" lon="1.361423"><ele>0</ele><time>11.313708305358887-406.1000061035156-297.79998779296875T5.75:0:0Z</time></trkpt>
<trkpt lat="45.798845" lon="1.361312"><ele>0</ele><time>8.485280990600586-405.3999938964844-298.3999938964844T5.024937629699707:0:0Z</time></trkpt>
<trkpt lat="45.798865" lon="1.361249"><ele>0</ele><time>8.485280990600586-405.1000061035156-296.8999938964844T5.0:0:0Z</time></trkpt>
<trkpt lat="45.79888" lon="1.361186"><ele>0</ele><time>8.485280990600586-405.8999938964844-296.8999938964844T5.0:0:0Z</time></trkpt>
<trkpt lat="45.798901" lon="1.36112"><ele>0</ele><time>8.485280990600586-406.5-295.79998779296875T5.25:0:0Z</time></trkpt>
<trkpt lat="45.798936" lon="1.360998"><ele>0</ele><time>10.0-407.1000061035156-297.1000061035156T5.25:0:0Z</time></trkpt>
<trkpt lat="45.798966" lon="1.360938"><ele>0</ele><time>10.0-406.0-299.70001220703125T5.522680282592773:0:0Z</time></trkpt>
<trkpt lat="45.798986" lon="1.360879"><ele>0</ele><time>10.0-405.6000061035156-298.5T5.771697998046875:0:0Z</time></trkpt>
<trkpt lat="45.79901" lon="1.360818"><ele>0</ele><time>8.485280990600586-406.3999938964844-296.3999938964844T5.771697998046875:0:0Z</time></trkpt>
<trkpt lat="45.799034" lon="1.360752"><ele>0</ele><time>8.485280990600586-406.6000061035156-296.20001220703125T5.75:0:0Z</time></trkpt>
<trkpt lat="45.799076" lon="1.360614"><ele>0</ele><time>10.0-407.1000061035156-292.29998779296875T6.0:0:0Z</time></trkpt>
<trkpt lat="45.799104" lon="1.360543"><ele>0</ele><time>13.416407585144043-407.20001220703125-291.79998779296875T6.0:0:0Z</time></trkpt>
<trkpt lat="45.799119" lon="1.360473"><ele>0</ele><time>13.416407585144043-407.0-289.5T5.75:0:0Z</time></trkpt>
<trkpt lat="45.799142" lon="1.360399"><ele>0</ele><time>13.416407585144043-406.70001220703125-289.3999938964844T5.75:0:0Z</time></trkpt>
<trkpt lat="45.79916" lon="1.360331"><ele>0</ele><time>17.8885440826416-406.29998779296875-289.70001220703125T5.75:0:0Z</time></trkpt>
<trkpt lat="45.79917" lon="1.360266"><ele>0</ele><time>17.8885440826416-406.0-284.6000061035156T5.5:0:0Z</time></trkpt>
<trkpt lat="45.799185" lon="1.360203"><ele>0</ele><time>20.0-405.79998779296875-285.20001220703125T5.5:0:0Z</time></trkpt>
<trkpt lat="45.799201" lon="1.360141"><ele>0</ele><time>26.832815170288086-405.5-285.70001220703125T5.5:0:0Z</time></trkpt>
<trkpt lat="45.799218" lon="1.360078"><ele>0</ele><time>26.832815170288086-405.29998779296875-286.29998779296875T5.5:0:0Z</time></trkpt>
<trkpt lat="45.799228" lon="1.360011"><ele>0</ele><time>34.1760139465332-405.20001220703125-284.79998779296875T5.5:0:0Z</time></trkpt>
<trkpt lat="45.799229" lon="1.359932"><ele>0</ele><time>34.1760139465332-404.8999938964844-279.70001220703125T5.5:0:0Z</time></trkpt>
<trkpt lat="45.799252" lon="1.359847"><ele>0</ele><time>26.832815170288086-404.70001220703125-284.29998779296875T5.75:0:0Z</time></trkpt>
<trkpt lat="45.799278" lon="1.359772"><ele>0</ele><time>26.832815170288086-404.79998779296875-288.8999938964844T6.0:0:0Z</time></trkpt>
<trkpt lat="45.799292" lon="1.359707"><ele>0</ele><time>34.1760139465332-404.8999938964844-289.70001220703125T5.75:0:0Z</time></trkpt>
<trkpt lat="45.799315" lon="1.359644"><ele>0</ele><time>34.1760139465332-404.70001220703125-291.70001220703125T5.75:0:0Z</time></trkpt>
<trkpt lat="45.799382" lon="1.359525"><ele>0</ele><time>34.1760139465332-404.70001220703125-298.8999938964844T5.75:0:0Z</time></trkpt>
<trkpt lat="45.799391" lon="1.359453"><ele>0</ele><time>26.832815170288086-405.0-299.3999938964844T5.75:0:0Z</time></trkpt>
<trkpt lat="45.799422" lon="1.359398"><ele>0</ele><time>26.832815170288086-405.0-298.70001220703125T5.75:0:0Z</time></trkpt>
<trkpt lat="45.799446" lon="1.359332"><ele>0</ele><time>26.832815170288086-405.6000061035156-296.20001220703125T5.75:0:0Z</time></trkpt>
<trkpt lat="45.799473" lon="1.359271"><ele>0</ele><time>26.832815170288086-405.3999938964844-297.1000061035156T5.75:0:0Z</time></trkpt>
<trkpt lat="45.7995" lon="1.359213"><ele>0</ele><time>26.832815170288086-405.29998779296875-299.5T5.75:0:0Z</time></trkpt>
<trkpt lat="45.799537" lon="1.35916"><ele>0</ele><time>26.832815170288086-405.20001220703125-304.0T5.25:0:0Z</time></trkpt>
<trkpt lat="45.799581" lon="1.359112"><ele>0</ele><time>26.832815170288086-405.6000061035156-306.20001220703125T5.0:0:0Z</time></trkpt>
<trkpt lat="45.799611" lon="1.359048"><ele>0</ele><time>26.832815170288086-405.6000061035156-303.29998779296875T5.5:0:0Z</time></trkpt>
<trkpt lat="45.799606" lon="1.358954"><ele>0</ele><time>26.832815170288086-404.6000061035156-300.29998779296875T5.75:0:0Z</time></trkpt>
<trkpt lat="45.799595" lon="1.358864"><ele>0</ele><time>17.8885440826416-404.0-274.3999938964844T6.020797252655029:0:0Z</time></trkpt>
<trkpt lat="45.799602" lon="1.35878"><ele>0</ele><time>14.422204971313477-405.8999938964844-258.8999938964844T6.768493175506592:0:0Z</time></trkpt>
<trkpt lat="45.799592" lon="1.3587"><ele>0</ele><time>10.0-406.6000061035156-254.10000610351563T6.25:0:0Z</time></trkpt>
<trkpt lat="45.799568" lon="1.358627"><ele>0</ele><time>11.313708305358887-406.5-250.1999969482422T6.25:0:0Z</time></trkpt>
<trkpt lat="45.799534" lon="1.358556"><ele>0</ele><time>14.422204971313477-406.0-244.5T6.25:0:0Z</time></trkpt>
<trkpt lat="45.799493" lon="1.358492"><ele>0</ele><time>14.422204971313477-405.70001220703125-237.5T6.25:0:0Z</time></trkpt>
<trkpt lat="45.799453" lon="1.358422"><ele>0</ele><time>14.422204971313477-405.29998779296875-235.3000030517578T6.5:0:0Z</time></trkpt>
<trkpt lat="45.799421" lon="1.358369"><ele>0</ele><time>14.422204971313477-405.20001220703125-233.89999389648438T6.0:0:0Z</time></trkpt>
<trkpt lat="45.799391" lon="1.358302"><ele>0</ele><time>20.0-405.20001220703125-235.3000030517578T6.25:0:0Z</time></trkpt>
<trkpt lat="45.799329" lon="1.358189"><ele>0</ele><time>20.0-404.6000061035156-230.6999969482422T6.0:0:0Z</time></trkpt>
<trkpt lat="45.799298" lon="1.358129"><ele>0</ele><time>22.627416610717773-404.6000061035156-231.3000030517578T6.0:0:0Z</time></trkpt>
<trkpt lat="45.799247" lon="1.358069"><ele>0</ele><time>22.627416610717773-405.20001220703125-228.3000030517578T6.25:0:0Z</time></trkpt>
<trkpt lat="45.799198" lon="1.358003"><ele>0</ele><time>28.844409942626953-405.0-227.1999969482422T6.25:0:0Z</time></trkpt>
<trkpt lat="45.799157" lon="1.357943"><ele>0</ele><time>28.844409942626953-404.8999938964844-227.10000610351563T6.25:0:0Z</time></trkpt>
<trkpt lat="45.799115" lon="1.35787"><ele>0</ele><time>28.844409942626953-404.79998779296875-227.6999969482422T6.5:0:0Z</time></trkpt>
<trkpt lat="45.799081" lon="1.357812"><ele>0</ele><time>20.0-404.79998779296875-227.39999389648438T6.25:0:0Z</time></trkpt>
<trkpt lat="45.799041" lon="1.357743"><ele>0</ele><time>20.0-404.6000061035156-226.8000030517578T6.5:0:0Z</time></trkpt>
<trkpt lat="45.79899" lon="1.357686"><ele>0</ele><time>17.8885440826416-404.0-225.1999969482422T6.5:0:0Z</time></trkpt>
<trkpt lat="45.798958" lon="1.357621"><ele>0</ele><time>17.8885440826416-404.20001220703125-225.10000610351563T6.5:0:0Z</time></trkpt>
<trkpt lat="45.798921" lon="1.357561"><ele>0</ele><time>17.8885440826416-404.3999938964844-227.3000030517578T6.5:0:0Z</time></trkpt>
<trkpt lat="45.798865" lon="1.357493"><ele>0</ele><time>14.422204971313477-404.70001220703125-223.60000610351563T6.75:0:0Z</time></trkpt>
<trkpt lat="45.798828" lon="1.357437"><ele>0</ele><time>14.422204971313477-403.8999938964844-225.5T6.75:0:0Z</time></trkpt>
<trkpt lat="45.79879" lon="1.357381"><ele>0</ele><time>14.422204971313477-402.8999938964844-223.6999969482422T6.25:0:0Z</time></trkpt>
<trkpt lat="45.798746" lon="1.357319"><ele>0</ele><time>10.0-404.1000061035156-223.5T6.823671817779541:0:0Z</time></trkpt>
<trkpt lat="45.798704" lon="1.357259"><ele>0</ele><time>10.0-404.3999938964844-225.1999969482422T6.768493175506592:0:0Z</time></trkpt>
<trkpt lat="45.798666" lon="1.357198"><ele>0</ele><time>10.0-404.20001220703125-227.5T6.75:0:0Z</time></trkpt>
<trkpt lat="45.798623" lon="1.357135"><ele>0</ele><time>10.0-404.0-226.5T6.75:0:0Z</time></trkpt>
<trkpt lat="45.798582" lon="1.357077"><ele>0</ele><time>10.0-403.70001220703125-226.39999389648438T6.75:0:0Z</time></trkpt>
<trkpt lat="45.798543" lon="1.357017"><ele>0</ele><time>10.0-403.29998779296875-226.5T6.75:0:0Z</time></trkpt>
<trkpt lat="45.798505" lon="1.356944"><ele>0</ele><time>10.0-403.5-230.3000030517578T6.5:0:0Z</time></trkpt>
<trkpt lat="45.798471" lon="1.356882"><ele>0</ele><time>8.485280990600586-403.5-230.6999969482422T6.25:0:0Z</time></trkpt>
<trkpt lat="45.798437" lon="1.356816"><ele>0</ele><time>10.0-403.70001220703125-231.89999389648438T6.5:0:0Z</time></trkpt>
<trkpt lat="45.798389" lon="1.356678"><ele>0</ele><time>14.422204971313477-404.29998779296875-239.0T6.25:0:0Z</time></trkpt>
<trkpt lat="45.798347" lon="1.356606"><ele>0</ele><time>14.422204971313477-404.6000061035156-237.6999969482422T6.75:0:0Z</time></trkpt>
<trkpt lat="45.798323" lon="1.356529"><ele>0</ele><time>14.422204971313477-404.5-241.60000610351563T6.75:0:0Z</time></trkpt>
<trkpt lat="45.798297" lon="1.356451"><ele>0</ele><time>13.416407585144043-404.5-240.3000030517578T6.5:0:0Z</time></trkpt>
<trkpt lat="45.798253" lon="1.356388"><ele>0</ele><time>13.416407585144043-404.6000061035156-231.5T6.75:0:0Z</time></trkpt>
<trkpt lat="45.798213" lon="1.356322"><ele>0</ele><time>13.416407585144043-404.5-227.1999969482422T6.75:0:0Z</time></trkpt>
<trkpt lat="45.798153" lon="1.356252"><ele>0</ele><time>10.0-404.20001220703125-223.39999389648438T7.5:0:0Z</time></trkpt>
<trkpt lat="45.798104" lon="1.356206"><ele>0</ele><time>10.0-403.6000061035156-214.5T7.25:0:0Z</time></trkpt>
<trkpt lat="45.797537" lon="1.356125"><ele>0</ele><time>10.0-399.79998779296875-182.8000030517578T8.0:0:0Z</time></trkpt>
<trkpt lat="45.797466" lon="1.356141"><ele>0</ele><time>8.485280990600586-398.79998779296875-180.89999389648438T8.0:0:0Z</time></trkpt>
<trkpt lat="45.797399" lon="1.356133"><ele>0</ele><time>8.485280990600586-398.3999938964844-182.8000030517578T7.75:0:0Z</time></trkpt>
<trkpt lat="45.797337" lon="1.356121"><ele>0</ele><time>7.211102485656738-398.6000061035156-185.10000610351563T7.5:0:0Z</time></trkpt>
<trkpt lat="45.797264" lon="1.356101"><ele>0</ele><time>5.0-398.3999938964844-187.3000030517578T7.5:0:0Z</time></trkpt>
<trkpt lat="45.797197" lon="1.356086"><ele>0</ele><time>5.0-398.0-189.39999389648438T7.5:0:0Z</time></trkpt>
<trkpt lat="45.797129" lon="1.35607"><ele>0</ele><time>4.242640495300293-397.79998779296875-190.0T7.5:0:0Z</time></trkpt>
<trkpt lat="45.797065" lon="1.356041"><ele>0</ele><time>4.242640495300293-396.20001220703125-194.6999969482422T7.766112327575684:0:0Z</time></trkpt>
<trkpt lat="45.797001" lon="1.356012"><ele>0</ele><time>3.605551242828369-395.3999938964844-195.39999389648438T7.766112327575684:0:0Z</time></trkpt>
<trkpt lat="45.796935" lon="1.355979"><ele>0</ele><time>3.605551242828369-395.1000061035156-196.5T7.766112327575684:0:0Z</time></trkpt>
<trkpt lat="45.796871" lon="1.35596"><ele>0</ele><time>3.605551242828369-395.0-195.0T7.5:0:0Z</time></trkpt>
<trkpt lat="45.796811" lon="1.35594"><ele>0</ele><time>3.605551242828369-394.70001220703125-196.0T7.0:0:0Z</time></trkpt>
<trkpt lat="45.79675" lon="1.3559"><ele>0</ele><time>3.605551242828369-394.70001220703125-201.10000610351563T7.25:0:0Z</time></trkpt>
<trkpt lat="45.796678" lon="1.355856"><ele>0</ele><time>3.605551242828369-393.79998779296875-203.1999969482422T7.75:0:0Z</time></trkpt>
<trkpt lat="45.796617" lon="1.355816"><ele>0</ele><time>3.605551242828369-393.70001220703125-203.0T7.25:0:0Z</time></trkpt>
<trkpt lat="45.79655" lon="1.355764"><ele>0</ele><time>3.605551242828369-392.3999938964844-206.6999969482422T8.310384750366211:0:0Z</time></trkpt>
<trkpt lat="45.796476" lon="1.355709"><ele>0</ele><time>3.605551242828369-391.5-207.3000030517578T8.265137672424316:0:0Z</time></trkpt>
<trkpt lat="45.796405" lon="1.355658"><ele>0</ele><time>3.605551242828369-390.70001220703125-208.10000610351563T8.265137672424316:0:0Z</time></trkpt>
<trkpt lat="45.796336" lon="1.355599"><ele>0</ele><time>3.605551242828369-390.6000061035156-210.5T8.0:0:0Z</time></trkpt>
<trkpt lat="45.796272" lon="1.355534"><ele>0</ele><time>3.605551242828369-390.8999938964844-213.6999969482422T8.25:0:0Z</time></trkpt>
<trkpt lat="45.796206" lon="1.355465"><ele>0</ele><time>4.4721360206604-390.6000061035156-214.6999969482422T8.5:0:0Z</time></trkpt>
<trkpt lat="45.796156" lon="1.355407"><ele>0</ele><time>4.4721360206604-390.3999938964844-216.60000610351563T7.75:0:0Z</time></trkpt>
<trkpt lat="45.796111" lon="1.355338"><ele>0</ele><time>3.605551242828369-390.6000061035156-220.6999969482422T7.75:0:0Z</time></trkpt>
<trkpt lat="45.796057" lon="1.355268"><ele>0</ele><time>3.605551242828369-390.8999938964844-220.8000030517578T7.5:0:0Z</time></trkpt>
<trkpt lat="45.79601" lon="1.355204"><ele>0</ele><time>4.4721360206604-390.79998779296875-220.1999969482422T7.5:0:0Z</time></trkpt>
<trkpt lat="45.795968" lon="1.355145"><ele>0</ele><time>4.4721360206604-390.5-221.3000030517578T6.51920223236084:0:0Z</time></trkpt>
<trkpt lat="45.795923" lon="1.355093"><ele>0</ele><time>3.605551242828369-390.8999938964844-219.89999389648438T6.5:0:0Z</time></trkpt>
<trkpt lat="45.795862" lon="1.355043"><ele>0</ele><time>3.605551242828369-390.5-216.10000610351563T5.5:0:0Z</time></trkpt>
<trkpt lat="45.795825" lon="1.354986"><ele>0</ele><time>3.605551242828369-389.79998779296875-212.8000030517578T5.25:0:0Z</time></trkpt>
<trkpt lat="45.795743" lon="1.355"><ele>0</ele><time>3.605551242828369-388.6000061035156-156.5T5.0:0:0Z</time></trkpt>
<trkpt lat="45.795696" lon="1.355044"><ele>0</ele><time>3.605551242828369-388.79998779296875-148.5T5.5:0:0Z</time></trkpt>
<trkpt lat="45.795669" lon="1.355118"><ele>0</ele><time>3.605551242828369-388.70001220703125-128.5T6.0:0:0Z</time></trkpt>
<trkpt lat="45.795639" lon="1.355176"><ele>0</ele><time>3.605551242828369-388.79998779296875-127.9000015258789T6.0:0:0Z</time></trkpt>
<trkpt lat="45.795599" lon="1.355242"><ele>0</ele><time>3.605551242828369-388.70001220703125-129.1999969482422T6.75:0:0Z</time></trkpt>
<trkpt lat="45.795557" lon="1.355305"><ele>0</ele><time>2.8284270763397217-389.1000061035156-128.0T7.0:0:0Z</time></trkpt>
<trkpt lat="45.795509" lon="1.355392"><ele>0</ele><time>2.8284270763397217-388.3999938964844-128.1999969482422T7.5:0:0Z</time></trkpt>
<trkpt lat="45.795462" lon="1.35547"><ele>0</ele><time>2.8284270763397217-388.29998779296875-128.5T7.75:0:0Z</time></trkpt>
<trkpt lat="45.795419" lon="1.355544"><ele>0</ele><time>2.8284270763397217-387.6000061035156-128.60000610351563T7.75:0:0Z</time></trkpt>
<trkpt lat="45.795384" lon="1.355613"><ele>0</ele><time>2.8284270763397217-387.70001220703125-123.69999694824219T7.25:0:0Z</time></trkpt>
<trkpt lat="45.795344" lon="1.35569"><ele>0</ele><time>2.8284270763397217-387.20001220703125-124.5T7.5:0:0Z</time></trkpt>
<trkpt lat="45.795294" lon="1.355773"><ele>0</ele><time>2.8284270763397217-387.79998779296875-126.80000305175781T8.0:0:0Z</time></trkpt>
<trkpt lat="45.79525" lon="1.355854"><ele>0</ele><time>2.8284270763397217-387.29998779296875-128.3000030517578T8.0:0:0Z</time></trkpt>
<trkpt lat="45.795197" lon="1.355932"><ele>0</ele><time>2.8284270763397217-388.0-130.60000610351563T8.0:0:0Z</time></trkpt>
<trkpt lat="45.79509" lon="1.3561"><ele>0</ele><time>2.8284270763397217-387.8999938964844-130.8000030517578T8.514693260192871:0:0Z</time></trkpt>
<trkpt lat="45.795034" lon="1.356187"><ele>0</ele><time>2.8284270763397217-388.29998779296875-130.60000610351563T8.75:0:0Z</time></trkpt>
<trkpt lat="45.794983" lon="1.356275"><ele>0</ele><time>2.8284270763397217-388.6000061035156-134.0T9.0:0:0Z</time></trkpt>
<trkpt lat="45.79494" lon="1.356366"><ele>0</ele><time>2.8284270763397217-388.70001220703125-128.89999389648438T8.5:0:0Z</time></trkpt>
<trkpt lat="45.794895" lon="1.356451"><ele>0</ele><time>2.8284270763397217-388.5-127.5T8.75:0:0Z</time></trkpt>
<trkpt lat="45.794822" lon="1.356545"><ele>0</ele><time>2.8284270763397217-388.0-131.6999969482422T9.0:0:0Z</time></trkpt>
<trkpt lat="45.794765" lon="1.356645"><ele>0</ele><time>2.8284270763397217-388.5-130.3000030517578T9.263504028320313:0:0Z</time></trkpt>
<trkpt lat="45.794708" lon="1.356727"><ele>0</ele><time>2.8284270763397217-388.0-134.89999389648438T8.764273643493652:0:0Z</time></trkpt>
<trkpt lat="45.794656" lon="1.356802"><ele>0</ele><time>2.8284270763397217-388.0-133.39999389648438T8.5:0:0Z</time></trkpt>
<trkpt lat="45.79462" lon="1.356873"><ele>0</ele><time>2.8284270763397217-388.20001220703125-131.10000610351563T7.75:0:0Z</time></trkpt>
<trkpt lat="45.794585" lon="1.356943"><ele>0</ele><time>2.8284270763397217-387.6000061035156-129.5T7.25:0:0Z</time></trkpt>
<trkpt lat="45.794563" lon="1.357012"><ele>0</ele><time>2.8284270763397217-387.29998779296875-122.9000015258789T6.25:0:0Z</time></trkpt>
<trkpt lat="45.794539" lon="1.357073"><ele>0</ele><time>2.8284270763397217-387.20001220703125-122.30000305175781T5.75:0:0Z</time></trkpt>
<trkpt lat="45.794502" lon="1.357126"><ele>0</ele><time>2.8284270763397217-387.3999938964844-129.1999969482422T5.5:0:0Z</time></trkpt>
<trkpt lat="45.794472" lon="1.357181"><ele>0</ele><time>2.8284270763397217-387.70001220703125-122.5999984741211T5.0:0:0Z</time></trkpt>
<trkpt lat="45.794424" lon="1.357259"><ele>0</ele><time>2.8284270763397217-388.1000061035156-136.39999389648438T3.75:0:0Z</time></trkpt>
<trkpt lat="45.794365" lon="1.357254"><ele>0</ele><time>3.605551242828369-387.79998779296875-195.6999969482422T3.0:0:0Z</time></trkpt>
<trkpt lat="45.794301" lon="1.357167"><ele>0</ele><time>3.605551242828369-386.6000061035156-219.89999389648438T4.25:0:0Z</time></trkpt>
<trkpt lat="45.794269" lon="1.357119"><ele>0</ele><time>3.605551242828369-386.29998779296875-225.89999389648438T4.5:0:0Z</time></trkpt>
<trkpt lat="45.794221" lon="1.357017"><ele>0</ele><time>3.605551242828369-385.79998779296875-238.3000030517578T4.5:0:0Z</time></trkpt>
<trkpt lat="45.794174" lon="1.356948"><ele>0</ele><time>3.605551242828369-386.79998779296875-232.5T5.522680282592773:0:0Z</time></trkpt>
<trkpt lat="45.79413" lon="1.3569"><ele>0</ele><time>3.605551242828369-386.29998779296875-230.39999389648438T5.5:0:0Z</time></trkpt>
<trkpt lat="45.794067" lon="1.356795"><ele>0</ele><time>3.605551242828369-386.20001220703125-228.0T5.25:0:0Z</time></trkpt>
<trkpt lat="45.794019" lon="1.356745"><ele>0</ele><time>3.605551242828369-385.70001220703125-220.5T5.25:0:0Z</time></trkpt>
<trkpt lat="45.793986" lon="1.356684"><ele>0</ele><time>3.605551242828369-385.8999938964844-229.1999969482422T5.5:0:0Z</time></trkpt>
<trkpt lat="45.793942" lon="1.356632"><ele>0</ele><time>3.605551242828369-386.1000061035156-223.3000030517578T6.0:0:0Z</time></trkpt>
<trkpt lat="45.793891" lon="1.356594"><ele>0</ele><time>3.605551242828369-387.0-213.6999969482422T5.5:0:0Z</time></trkpt>
<trkpt lat="45.793834" lon="1.356566"><ele>0</ele><time>3.605551242828369-387.6000061035156-202.89999389648438T6.0:0:0Z</time></trkpt>
<trkpt lat="45.793788" lon="1.356537"><ele>0</ele><time>3.605551242828369-387.79998779296875-206.10000610351563T5.5:0:0Z</time></trkpt>
<trkpt lat="45.793718" lon="1.356453"><ele>0</ele><time>3.605551242828369-388.6000061035156-216.3000030517578T5.0:0:0Z</time></trkpt>
<trkpt lat="45.79368" lon="1.35641"><ele>0</ele><time>3.605551242828369-388.70001220703125-213.89999389648438T5.0:0:0Z</time></trkpt>
<trkpt lat="45.793636" lon="1.356383"><ele>0</ele><time>3.605551242828369-389.1000061035156-208.8000030517578T5.0:0:0Z</time></trkpt>
<trkpt lat="45.793544" lon="1.356329"><ele>0</ele><time>3.605551242828369-388.70001220703125-199.39999389648438T5.25:0:0Z</time></trkpt>
<trkpt lat="45.793506" lon="1.356282"><ele>0</ele><time>3.605551242828369-389.1000061035156-208.6999969482422T5.0:0:0Z</time></trkpt>
<trkpt lat="45.793467" lon="1.356234"><ele>0</ele><time>3.605551242828369-388.79998779296875-209.89999389648438T4.75:0:0Z</time></trkpt>
<trkpt lat="45.793416" lon="1.356157"><ele>0</ele><time>3.605551242828369-389.6000061035156-213.6999969482422T3.75:0:0Z</time></trkpt>
<trkpt lat="45.793362" lon="1.356086"><ele>0</ele><time>4.4721360206604-390.1000061035156-208.8000030517578T3.5:0:0Z</time></trkpt>
<trkpt lat="45.793304" lon="1.356063"><ele>0</ele><time>4.4721360206604-389.8999938964844-195.10000610351563T3.25:0:0Z</time></trkpt>
<trkpt lat="45.793237" lon="1.356045"><ele>0</ele><time>5.0-389.70001220703125-191.89999389648438T4.25:0:0Z</time></trkpt>
<trkpt lat="45.79317" lon="1.356001"><ele>0</ele><time>6.7082037925720215-388.3999938964844-206.10000610351563T4.75:0:0Z</time></trkpt>
<trkpt lat="45.793106" lon="1.355941"><ele>0</ele><time>5.0-387.5-209.1999969482422T5.25:0:0Z</time></trkpt>
<trkpt lat="45.793039" lon="1.355879"><ele>0</ele><time>6.7082037925720215-387.0-210.8000030517578T3.75:0:0Z</time></trkpt>
<trkpt lat="45.79299" lon="1.355828"><ele>0</ele><time>6.7082037925720215-387.20001220703125-221.89999389648438T2.75:0:0Z</time></trkpt>
<trkpt lat="45.792913" lon="1.355754"><ele>0</ele><time>6.7082037925720215-385.8999938964844-221.1999969482422T4.527692794799805:0:0Z</time></trkpt>
<trkpt lat="45.792881" lon="1.355623"><ele>0</ele><time>6.7082037925720215-386.6000061035156-235.3000030517578T5.75:0:0Z</time></trkpt>
<trkpt lat="45.79285" lon="1.35552"><ele>0</ele><time>8.5440034866333-386.5-242.3000030517578T6.75:0:0Z</time></trkpt>
<trkpt lat="45.792858" lon="1.355424"><ele>0</ele><time>8.5440034866333-387.0-253.1999969482422T6.5:0:0Z</time></trkpt>
<trkpt lat="45.792838" lon="1.355271"><ele>0</ele><time>8.5440034866333-386.79998779296875-258.20001220703125T4.75:0:0Z</time></trkpt>
<trkpt lat="45.792783" lon="1.355119"><ele>0</ele><time>8.5440034866333-386.0-254.39999389648438T5.75:0:0Z</time></trkpt>
<trkpt lat="45.792764" lon="1.355034"><ele>0</ele><time>8.5440034866333-386.5-250.89999389648438T6.0:0:0Z</time></trkpt>
<trkpt lat="45.792761" lon="1.35496"><ele>0</ele><time>6.7082037925720215-386.3999938964844-258.6000061035156T5.0:0:0Z</time></trkpt>
<trkpt lat="45.792732" lon="1.354855"><ele>0</ele><time>6.7082037925720215-386.0-256.3999938964844T5.5:0:0Z</time></trkpt>
<trkpt lat="45.792722" lon="1.354774"><ele>0</ele><time>6.7082037925720215-386.1000061035156-257.79998779296875T5.25:0:0Z</time></trkpt>
<trkpt lat="45.792692" lon="1.354693"><ele>0</ele><time>6.7082037925720215-386.29998779296875-251.8000030517578T5.0:0:0Z</time></trkpt>
<trkpt lat="45.792677" lon="1.354603"><ele>0</ele><time>6.324555397033691-386.70001220703125-253.39999389648438T4.75:0:0Z</time></trkpt>
<trkpt lat="45.792681" lon="1.354531"><ele>0</ele><time>6.324555397033691-387.3999938964844-259.6000061035156T4.75:0:0Z</time></trkpt>
<trkpt lat="45.792676" lon="1.354453"><ele>0</ele><time>8.246211051940918-387.70001220703125-260.20001220703125T5.0:0:0Z</time></trkpt>
<trkpt lat="45.792674" lon="1.354381"><ele>0</ele><time>8.246211051940918-388.0-261.70001220703125T5.0:0:0Z</time></trkpt>
<trkpt lat="45.792698" lon="1.354309"><ele>0</ele><time>8.246211051940918-388.20001220703125-271.0T5.25:0:0Z</time></trkpt>
<trkpt lat="45.792683" lon="1.354243"><ele>0</ele><time>8.246211051940918-388.1000061035156-267.3999938964844T5.25:0:0Z</time></trkpt>
<trkpt lat="45.792679" lon="1.354173"><ele>0</ele><time>12.165525436401367-388.0-268.6000061035156T5.25:0:0Z</time></trkpt>
<trkpt lat="45.79268" lon="1.354078"><ele>0</ele><time>8.246211051940918-388.1000061035156-268.8999938964844T6.020797252655029:0:0Z</time></trkpt>
<trkpt lat="45.792681" lon="1.353995"><ele>0</ele><time>8.246211051940918-388.20001220703125-268.6000061035156T6.0:0:0Z</time></trkpt>
<trkpt lat="45.792665" lon="1.353919"><ele>0</ele><time>8.246211051940918-388.1000061035156-265.3999938964844T5.75:0:0Z</time></trkpt>
<trkpt lat="45.792658" lon="1.353836"><ele>0</ele><time>8.246211051940918-388.1000061035156-264.6000061035156T6.0:0:0Z</time></trkpt>
<trkpt lat="45.792612" lon="1.353704"><ele>0</ele><time>8.246211051940918-387.70001220703125-258.8999938964844T7.75:0:0Z</time></trkpt>
<trkpt lat="45.7926" lon="1.353577"><ele>0</ele><time>6.324555397033691-385.5-261.70001220703125T7.017834186553955:0:0Z</time></trkpt>
<trkpt lat="45.792584" lon="1.353472"><ele>0</ele><time>6.324555397033691-385.6000061035156-265.20001220703125T7.25:0:0Z</time></trkpt>
<trkpt lat="45.792563" lon="1.353357"><ele>0</ele><time>6.324555397033691-385.79998779296875-265.20001220703125T7.5:0:0Z</time></trkpt>
<trkpt lat="45.792562" lon="1.35325"><ele>0</ele><time>6.324555397033691-386.1000061035156-265.70001220703125T7.75:0:0Z</time></trkpt>
<trkpt lat="45.792561" lon="1.353145"><ele>0</ele><time>8.246211051940918-386.1000061035156-266.8999938964844T7.75:0:0Z</time></trkpt>
<trkpt lat="45.792557" lon="1.353065"><ele>0</ele><time>8.246211051940918-386.20001220703125-267.70001220703125T6.5:0:0Z</time></trkpt>
<trkpt lat="45.792553" lon="1.352991"><ele>0</ele><time>8.246211051940918-386.3999938964844-264.70001220703125T2.5:0:0Z</time></trkpt>
<trkpt lat="45.792535" lon="1.352927"><ele>0</ele><time>8.246211051940918-386.20001220703125-261.79998779296875T4.0:0:0Z</time></trkpt>
<trkpt lat="45.792531" lon="1.352829"><ele>0</ele><time>6.324555397033691-386.8999938964844-257.3999938964844T3.25:0:0Z</time></trkpt>
<trkpt lat="45.792527" lon="1.352763"><ele>0</ele><time>8.246211051940918-387.6000061035156-260.1000061035156T4.0:0:0Z</time></trkpt>
<trkpt lat="45.792544" lon="1.352645"><ele>0</ele><time>8.246211051940918-388.79998779296875-265.70001220703125T3.75:0:0Z</time></trkpt>
<trkpt lat="45.792556" lon="1.352541"><ele>0</ele><time>12.165525436401367-389.20001220703125-274.79998779296875T3.0:0:0Z</time></trkpt>
<trkpt lat="45.79258" lon="1.352481"><ele>0</ele><time>8.246211051940918-389.79998779296875-280.29998779296875T3.25:0:0Z</time></trkpt>
<trkpt lat="45.792629" lon="1.352421"><ele>0</ele><time>8.246211051940918-388.6000061035156-279.6000061035156T3.5:0:0Z</time></trkpt>
<trkpt lat="45.792675" lon="1.352363"><ele>0</ele><time>8.246211051940918-388.5-281.0T4.0:0:0Z</time></trkpt>
<trkpt lat="45.792703" lon="1.352238"><ele>0</ele><time>8.246211051940918-386.29998779296875-281.3999938964844T4.0:0:0Z</time></trkpt>
<trkpt lat="45.792703" lon="1.352117"><ele>0</ele><time>8.246211051940918-386.8999938964844-279.0T4.0:0:0Z</time></trkpt>
<trkpt lat="45.792699" lon="1.352015"><ele>0</ele><time>6.324555397033691-386.0-271.29998779296875T3.25:0:0Z</time></trkpt>
<trkpt lat="45.792693" lon="1.351907"><ele>0</ele><time>8.246211051940918-386.29998779296875-270.3999938964844T3.5:0:0Z</time></trkpt>
<trkpt lat="45.792692" lon="1.351836"><ele>0</ele><time>4.4721360206604-383.70001220703125-249.10000610351563T2.75:0:0Z</time></trkpt>
<trkpt lat="45.792651" lon="1.351755"><ele>0</ele><time>3.605551242828369-383.79998779296875-235.60000610351563T3.25:0:0Z</time></trkpt>
<trkpt lat="45.792604" lon="1.351673"><ele>0</ele><time>3.605551242828369-383.5-234.89999389648438T3.5:0:0Z</time></trkpt>
<trkpt lat="45.792555" lon="1.351609"><ele>0</ele><time>3.605551242828369-383.79998779296875-229.0T3.5:0:0Z</time></trkpt>
<trkpt lat="45.79253" lon="1.351547"><ele>0</ele><time>3.605551242828369-385.1000061035156-228.3000030517578T2.5:0:0Z</time></trkpt>
<trkpt lat="45.792491" lon="1.351482"><ele>0</ele><time>3.605551242828369-386.0-227.89999389648438T2.75:0:0Z</time></trkpt>
<trkpt lat="45.792483" lon="1.351413"><ele>0</ele><time>3.605551242828369-387.6000061035156-242.5T2.5:0:0Z</time></trkpt>
<trkpt lat="45.79245" lon="1.351338"><ele>0</ele><time>4.4721360206604-387.1000061035156-241.1999969482422T2.75:0:0Z</time></trkpt>
<trkpt lat="45.79246" lon="1.351262"><ele>0</ele><time>6.324555397033691-388.5-256.8999938964844T2.75:0:0Z</time></trkpt>
<trkpt lat="45.792418" lon="1.351203"><ele>0</ele><time>4.4721360206604-388.6000061035156-244.89999389648438T2.0:0:0Z</time></trkpt>
<trkpt lat="45.792396" lon="1.351121"><ele>0</ele><time>3.605551242828369-388.70001220703125-236.6999969482422T2.25:0:0Z</time></trkpt>
<trkpt lat="45.792395" lon="1.351044"><ele>0</ele><time>3.605551242828369-390.1000061035156-246.39999389648438T1.75:0:0Z</time></trkpt>
<trkpt lat="45.792393" lon="1.350979"><ele>0</ele><time>2.8284270763397217-391.3999938964844-252.3000030517578T2.25:0:0Z</time></trkpt>
<trkpt lat="45.792374" lon="1.350915"><ele>0</ele><time>2.8284270763397217-391.1000061035156-250.60000610351563T2.25:0:0Z</time></trkpt>
<trkpt lat="45.792343" lon="1.350865"><ele>0</ele><time>6.7082037925720215-388.20001220703125-231.60000610351563T0.0:0:0Z</time></trkpt>
<trkpt lat="45.792343" lon="1.350865"><ele>0</ele><time>8.9442720413208-388.20001220703125-231.60000610351563T0.0:0:0Z</time></trkpt>
<trkpt lat="45.792359" lon="1.350847"><ele>0</ele><time>4.4721360206604-387.79998779296875-310.5T2.5495097637176514:0:0Z</time></trkpt>
<trkpt lat="45.792376" lon="1.350804"><ele>0</ele><time>4.4721360206604-388.0-302.79998779296875T2.75:0:0Z</time></trkpt>
<trkpt lat="45.792375" lon="1.350702"><ele>0</ele><time>3.605551242828369-385.6000061035156-266.0T3.041381359100342:0:0Z</time></trkpt>
<trkpt lat="45.792415" lon="1.350637"><ele>0</ele><time>3.605551242828369-386.3999938964844-298.20001220703125T4.5:0:0Z</time></trkpt>
<trkpt lat="45.792434" lon="1.350577"><ele>0</ele><time>3.605551242828369-386.20001220703125-287.0T4.776243209838867:0:0Z</time></trkpt>
<trkpt lat="45.792449" lon="1.35051"><ele>0</ele><time>3.605551242828369-386.6000061035156-286.8999938964844T4.776243209838867:0:0Z</time></trkpt>
<trkpt lat="45.792474" lon="1.350442"><ele>0</ele><time>3.605551242828369-386.5-289.70001220703125T5.5:0:0Z</time></trkpt>
<trkpt lat="45.79249" lon="1.350367"><ele>0</ele><time>2.8284270763397217-387.0-272.20001220703125T5.0:0:0Z</time></trkpt>
<trkpt lat="45.792489" lon="1.35025"><ele>0</ele><time>2.8284270763397217-387.70001220703125-255.10000610351563T4.5:0:0Z</time></trkpt>
<trkpt lat="45.792451" lon="1.350158"><ele>0</ele><time>2.8284270763397217-387.0-241.60000610351563T4.25:0:0Z</time></trkpt>
<trkpt lat="45.792403" lon="1.350095"><ele>0</ele><time>2.8284270763397217-386.6000061035156-228.10000610351563T3.75:0:0Z</time></trkpt>
<trkpt lat="45.792355" lon="1.350052"><ele>0</ele><time>2.8284270763397217-387.0-218.10000610351563T3.5:0:0Z</time></trkpt>
<trkpt lat="45.792249" lon="1.349963"><ele>0</ele><time>2.8284270763397217-388.20001220703125-214.60000610351563T4.25:0:0Z</time></trkpt>
<trkpt lat="45.792205" lon="1.349934"><ele>0</ele><time>2.8284270763397217-389.1000061035156-211.39999389648438T4.5:0:0Z</time></trkpt>
<trkpt lat="45.792171" lon="1.349881"><ele>0</ele><time>3.605551242828369-389.0-214.89999389648438T4.75:0:0Z</time></trkpt>
<trkpt lat="45.792129" lon="1.349852"><ele>0</ele><time>3.605551242828369-389.5-212.60000610351563T4.75:0:0Z</time></trkpt>
<trkpt lat="45.792085" lon="1.349828"><ele>0</ele><time>2.8284270763397217-390.20001220703125-208.89999389648438T4.75:0:0Z</time></trkpt>
<trkpt lat="45.79198" lon="1.349765"><ele>0</ele><time>2.8284270763397217-384.0-202.60000610351563T6.5:0:0Z</time></trkpt>
<trkpt lat="45.791946" lon="1.349719"><ele>0</ele><time>2.8284270763397217-384.29998779296875-208.5T5.590169906616211:0:0Z</time></trkpt>
<trkpt lat="45.791908" lon="1.349676"><ele>0</ele><time>2.8284270763397217-384.6000061035156-211.8000030517578T5.2737555503845215:0:0Z</time></trkpt>
<trkpt lat="45.791845" lon="1.349594"><ele>0</ele><time>2.8284270763397217-385.79998779296875-216.39999389648438T4.776243209838867:0:0Z</time></trkpt>
<trkpt lat="45.791793" lon="1.349528"><ele>0</ele><time>2.8284270763397217-387.8999938964844-212.1999969482422T4.527692794799805:0:0Z</time></trkpt>
<trkpt lat="45.791732" lon="1.349479"><ele>0</ele><time>2.8284270763397217-388.20001220703125-211.39999389648438T4.0:0:0Z</time></trkpt>
<trkpt lat="45.791668" lon="1.349401"><ele>0</ele><time>3.605551242828369-388.1000061035156-218.39999389648438T4.25:0:0Z</time></trkpt>
<trkpt lat="45.791686" lon="1.349301"><ele>0</ele><time>3.605551242828369-389.70001220703125-258.3999938964844T3.783186435699463:0:0Z</time></trkpt>
<trkpt lat="45.79167" lon="1.349208"><ele>0</ele><time>3.605551242828369-388.79998779296875-260.70001220703125T3.25:0:0Z</time></trkpt>
<trkpt lat="45.791625" lon="1.349115"><ele>0</ele><time>3.605551242828369-395.1000061035156-241.10000610351563T4.4721360206604:0:0Z</time></trkpt>
<trkpt lat="45.79164" lon="1.349019"><ele>0</ele><time>3.605551242828369-397.8999938964844-262.29998779296875T3.640054941177368:0:0Z</time></trkpt>
<trkpt lat="45.791674" lon="1.348972"><ele>0</ele><time>3.605551242828369-398.5-281.5T3.535533905029297:0:0Z</time></trkpt>
<trkpt lat="45.791725" lon="1.348884"><ele>0</ele><time>4.4721360206604-399.5-293.6000061035156T3.783186435699463:0:0Z</time></trkpt>
<trkpt lat="45.791789" lon="1.348847"><ele>0</ele><time>3.605551242828369-397.20001220703125-316.0T4.527692794799805:0:0Z</time></trkpt>
<trkpt lat="45.791831" lon="1.348804"><ele>0</ele><time>3.605551242828369-396.70001220703125-313.5T4.527692794799805:0:0Z</time></trkpt>
<trkpt lat="45.791866" lon="1.348758"><ele>0</ele><time>3.605551242828369-396.70001220703125-312.29998779296875T4.5:0:0Z</time></trkpt>
<trkpt lat="45.791899" lon="1.348708"><ele>0</ele><time>3.605551242828369-396.79998779296875-310.79998779296875T4.75:0:0Z</time></trkpt>
<trkpt lat="45.791958" lon="1.348618"><ele>0</ele><time>3.605551242828369-396.5-312.6000061035156T4.75:0:0Z</time></trkpt>
<trkpt lat="45.792022" lon="1.348522"><ele>0</ele><time>3.605551242828369-396.79998779296875-311.79998779296875T5.0:0:0Z</time></trkpt>
<trkpt lat="45.792088" lon="1.348431"><ele>0</ele><time>4.4721360206604-396.79998779296875-312.3999938964844T5.0:0:0Z</time></trkpt>
<trkpt lat="45.792144" lon="1.348338"><ele>0</ele><time>4.4721360206604-396.29998779296875-310.20001220703125T4.75:0:0Z</time></trkpt>
<trkpt lat="45.792176" lon="1.348291"><ele>0</ele><time>4.4721360206604-396.1000061035156-310.6000061035156T4.75:0:0Z</time></trkpt>
<trkpt lat="45.792235" lon="1.348211"><ele>0</ele><time>4.4721360206604-396.3999938964844-313.6000061035156T4.5:0:0Z</time></trkpt>
<trkpt lat="45.792269" lon="1.348163"><ele>0</ele><time>4.4721360206604-396.5-311.8999938964844T4.75:0:0Z</time></trkpt>
<trkpt lat="45.792295" lon="1.348109"><ele>0</ele><time>4.4721360206604-396.79998779296875-310.6000061035156T4.75:0:0Z</time></trkpt>
<trkpt lat="45.792332" lon="1.348015"><ele>0</ele><time>3.605551242828369-396.8999938964844-305.3999938964844T4.5:0:0Z</time></trkpt>
<trkpt lat="45.792371" lon="1.347923"><ele>0</ele><time>3.605551242828369-396.6000061035156-302.5T4.25:0:0Z</time></trkpt>
<trkpt lat="45.792399" lon="1.347833"><ele>0</ele><time>3.605551242828369-396.3999938964844-296.5T4.0:0:0Z</time></trkpt>
<trkpt lat="45.792415" lon="1.347724"><ele>0</ele><time>4.4721360206604-396.5-289.5T4.0:0:0Z</time></trkpt>
<trkpt lat="45.7924" lon="1.3476"><ele>0</ele><time>4.4721360206604-395.29998779296875-277.79998779296875T4.5:0:0Z</time></trkpt>
<trkpt lat="45.792419" lon="1.347481"><ele>0</ele><time>4.4721360206604-394.79998779296875-281.8999938964844T4.5:0:0Z</time></trkpt>
<trkpt lat="45.792397" lon="1.347424"><ele>0</ele><time>4.4721360206604-395.79998779296875-252.3000030517578T4.366062164306641:0:0Z</time></trkpt>
<trkpt lat="45.792357" lon="1.347269"><ele>0</ele><time>4.4721360206604-397.6000061035156-253.5T4.031128883361816:0:0Z</time></trkpt>
<trkpt lat="45.792333" lon="1.347184"><ele>0</ele><time>4.4721360206604-397.5-252.60000610351563T3.75:0:0Z</time></trkpt>
<trkpt lat="45.792309" lon="1.347077"><ele>0</ele><time>4.4721360206604-397.29998779296875-253.3000030517578T4.25:0:0Z</time></trkpt>
<trkpt lat="45.792282" lon="1.346967"><ele>0</ele><time>3.605551242828369-397.8999938964844-252.89999389648438T4.5:0:0Z</time></trkpt>
<trkpt lat="45.792236" lon="1.346877"><ele>0</ele><time>3.605551242828369-397.1000061035156-242.60000610351563T4.0:0:0Z</time></trkpt>
<trkpt lat="45.792192" lon="1.346813"><ele>0</ele><time>2.8284270763397217-397.29998779296875-230.8000030517578T3.5:0:0Z</time></trkpt>
<trkpt lat="45.792148" lon="1.346733"><ele>0</ele><time>2.8284270763397217-398.20001220703125-230.0T3.5:0:0Z</time></trkpt>
<trkpt lat="45.792096" lon="1.346649"><ele>0</ele><time>3.605551242828369-398.0-230.39999389648438T3.75:0:0Z</time></trkpt>
<trkpt lat="45.792041" lon="1.346566"><ele>0</ele><time>3.605551242828369-399.6000061035156-226.39999389648438T3.75:0:0Z</time></trkpt>
<trkpt lat="45.791955" lon="1.346513"><ele>0</ele><time>3.605551242828369-405.1000061035156-213.3000030517578T6.7314558029174805:0:0Z</time></trkpt>
<trkpt lat="45.791919" lon="1.34647"><ele>0</ele><time>3.605551242828369-405.29998779296875-215.3000030517578T6.082762718200684:0:0Z</time></trkpt>
<trkpt lat="45.791876" lon="1.346427"><ele>0</ele><time>3.605551242828369-405.3999938964844-215.5T5.771697998046875:0:0Z</time></trkpt>
<trkpt lat="45.791839" lon="1.346388"><ele>0</ele><time>3.605551242828369-405.6000061035156-216.10000610351563T5.5:0:0Z</time></trkpt>
<trkpt lat="45.791798" lon="1.346308"><ele>0</ele><time>5.0-404.29998779296875-222.60000610351563T4.75:0:0Z</time></trkpt>
<trkpt lat="45.791733" lon="1.346238"><ele>0</ele><time>6.7082037925720215-404.29998779296875-218.6999969482422T4.0:0:0Z</time></trkpt>
<trkpt lat="45.791706" lon="1.346161"><ele>0</ele><time>6.7082037925720215-403.3999938964844-227.1999969482422T4.5:0:0Z</time></trkpt>
<trkpt lat="45.791674" lon="1.346047"><ele>0</ele><time>8.5440034866333-401.8999938964844-234.89999389648438T5.5:0:0Z</time></trkpt>
<trkpt lat="45.791618" lon="1.345929"><ele>0</ele><time>8.246211051940918-400.1000061035156-232.0T5.25:0:0Z</time></trkpt>
<trkpt lat="45.791728" lon="1.345889"><ele>0</ele><time>4.4721360206604-399.8999938964844-275.20001220703125T3.0:0:0Z</time></trkpt>
<trkpt lat="45.791806" lon="1.345814"><ele>0</ele><time>3.605551242828369-399.8999938964844-324.0T4.25:0:0Z</time></trkpt>
<trkpt lat="45.791853" lon="1.345774"><ele>0</ele><time>3.605551242828369-400.5-328.0T4.75:0:0Z</time></trkpt>
<trkpt lat="45.791911" lon="1.345731"><ele>0</ele><time>3.605551242828369-400.5-328.70001220703125T5.25:0:0Z</time></trkpt>
<trkpt lat="45.791956" lon="1.345701"><ele>0</ele><time>3.605551242828369-400.0-330.1000061035156T5.25:0:0Z</time></trkpt>
<trkpt lat="45.792001" lon="1.345664"><ele>0</ele><time>3.605551242828369-399.79998779296875-329.1000061035156T5.5:0:0Z</time></trkpt>
<trkpt lat="45.792052" lon="1.345629"><ele>0</ele><time>2.8284270763397217-399.5-333.29998779296875T5.5:0:0Z</time></trkpt>
<trkpt lat="45.792099" lon="1.345603"><ele>0</ele><time>2.8284270763397217-398.8999938964844-333.3999938964844T5.5:0:0Z</time></trkpt>
<trkpt lat="45.792146" lon="1.34557"><ele>0</ele><time>2.8284270763397217-399.5-332.79998779296875T5.5:0:0Z</time></trkpt>
<trkpt lat="45.792194" lon="1.345538"><ele>0</ele><time>2.8284270763397217-399.3999938964844-333.1000061035156T5.5:0:0Z</time></trkpt>
<trkpt lat="45.792239" lon="1.345502"><ele>0</ele><time>2.8284270763397217-399.3999938964844-333.20001220703125T5.25:0:0Z</time></trkpt>
<trkpt lat="45.792292" lon="1.345463"><ele>0</ele><time>2.8284270763397217-399.29998779296875-332.6000061035156T5.75:0:0Z</time></trkpt>
<trkpt lat="45.792334" lon="1.345428"><ele>0</ele><time>2.8284270763397217-399.1000061035156-331.79998779296875T5.5:0:0Z</time></trkpt>
<trkpt lat="45.792383" lon="1.345389"><ele>0</ele><time>2.8284270763397217-399.1000061035156-331.0T5.75:0:0Z</time></trkpt>
<trkpt lat="45.792431" lon="1.345353"><ele>0</ele><time>2.8284270763397217-398.79998779296875-330.8999938964844T6.0:0:0Z</time></trkpt>
<trkpt lat="45.792476" lon="1.345318"><ele>0</ele><time>2.8284270763397217-398.79998779296875-330.70001220703125T5.75:0:0Z</time></trkpt>
<trkpt lat="45.792523" lon="1.345279"><ele>0</ele><time>2.8284270763397217-398.8999938964844-332.3999938964844T6.020797252655029:0:0Z</time></trkpt>
<trkpt lat="45.792574" lon="1.345243"><ele>0</ele><time>2.8284270763397217-398.79998779296875-333.5T6.0:0:0Z</time></trkpt>
<trkpt lat="45.792618" lon="1.345216"><ele>0</ele><time>2.8284270763397217-398.6000061035156-335.0T5.75:0:0Z</time></trkpt>
<trkpt lat="45.792671" lon="1.345189"><ele>0</ele><time>2.8284270763397217-399.0-337.6000061035156T5.75:0:0Z</time></trkpt>
<trkpt lat="45.792729" lon="1.345172"><ele>0</ele><time>2.8284270763397217-398.5-341.20001220703125T6.0:0:0Z</time></trkpt>
<trkpt lat="45.792786" lon="1.345161"><ele>0</ele><time>2.8284270763397217-398.5-349.8999938964844T6.0:0:0Z</time></trkpt>
<trkpt lat="45.792885" lon="1.345143"><ele>0</ele><time>2.8284270763397217-397.8999938964844-352.29998779296875T5.75:0:0Z</time></trkpt>
<trkpt lat="45.792933" lon="1.345145"><ele>0</ele><time>3.605551242828369-397.70001220703125-357.79998779296875T5.5:0:0Z</time></trkpt>
<trkpt lat="45.793011" lon="1.345146"><ele>0</ele><time>3.605551242828369-398.70001220703125-353.5T4.5:0:0Z</time></trkpt>
<trkpt lat="45.793063" lon="1.345147"><ele>0</ele><time>3.605551242828369-398.70001220703125-354.70001220703125T4.75:0:0Z</time></trkpt>
<trkpt lat="45.793114" lon="1.345136"><ele>0</ele><time>2.8284270763397217-398.29998779296875-354.0T5.0:0:0Z</time></trkpt>
<trkpt lat="45.79319" lon="1.345072"><ele>0</ele><time>2.8284270763397217-398.20001220703125-331.20001220703125T5.0:0:0Z</time></trkpt>
<trkpt lat="45.793217" lon="1.344984"><ele>0</ele><time>2.8284270763397217-398.20001220703125-306.8999938964844T4.0:0:0Z</time></trkpt>
<trkpt lat="45.793229" lon="1.344908"><ele>0</ele><time>3.605551242828369-397.8999938964844-291.8999938964844T3.0:0:0Z</time></trkpt>
<trkpt lat="45.793195" lon="1.344853"><ele>0</ele><time>3.605551242828369-399.3999938964844-266.1000061035156T2.25:0:0Z</time></trkpt>
<trkpt lat="45.793144" lon="1.344781"><ele>0</ele><time>3.605551242828369-401.20001220703125-251.1999969482422T2.5:0:0Z</time></trkpt>
<trkpt lat="45.79311" lon="1.344694"><ele>0</ele><time>3.605551242828369-400.1000061035156-246.8000030517578T2.75:0:0Z</time></trkpt>
<trkpt lat="45.793072" lon="1.344604"><ele>0</ele><time>3.605551242828369-400.70001220703125-245.5T3.25:0:0Z</time></trkpt>
<trkpt lat="45.793043" lon="1.344531"><ele>0</ele><time>3.605551242828369-400.8999938964844-240.8000030517578T3.0:0:0Z</time></trkpt>
<trkpt lat="45.793017" lon="1.344436"><ele>0</ele><time>3.605551242828369-400.3999938964844-246.0T3.25:0:0Z</time></trkpt>
<trkpt lat="45.792906" lon="1.34433"><ele>0</ele><time>3.605551242828369-412.20001220703125-215.1999969482422T7.106335163116455:0:0Z</time></trkpt>
<trkpt lat="45.792868" lon="1.344225"><ele>0</ele><time>3.605551242828369-414.0-227.60000610351563T5.099019527435303:0:0Z</time></trkpt>
<trkpt lat="45.792844" lon="1.344121"><ele>0</ele><time>3.605551242828369-413.20001220703125-236.5T4.5:0:0Z</time></trkpt>
<trkpt lat="45.792819" lon="1.344022"><ele>0</ele><time>4.4721360206604-411.20001220703125-242.1999969482422T4.0:0:0Z</time></trkpt>
<trkpt lat="45.792795" lon="1.343921"><ele>0</ele><time>6.324555397033691-410.20001220703125-245.39999389648438T4.0:0:0Z</time></trkpt>
<trkpt lat="45.792798" lon="1.343853"><ele>0</ele><time>4.4721360206604-410.79998779296875-256.5T4.527692794799805:0:0Z</time></trkpt>
<trkpt lat="45.79279" lon="1.343745"><ele>0</ele><time>4.4721360206604-408.29998779296875-262.20001220703125T4.0:0:0Z</time></trkpt>
<trkpt lat="45.792913" lon="1.34368"><ele>0</ele><time>3.605551242828369-404.3999938964844-309.29998779296875T3.75:0:0Z</time></trkpt>
<trkpt lat="45.792959" lon="1.34365"><ele>0</ele><time>3.605551242828369-403.5-320.20001220703125T4.25:0:0Z</time></trkpt>
<trkpt lat="45.793007" lon="1.343609"><ele>0</ele><time>3.605551242828369-402.70001220703125-321.5T4.75:0:0Z</time></trkpt>
<trkpt lat="45.79308" lon="1.343546"><ele>0</ele><time>3.605551242828369-401.20001220703125-327.20001220703125T4.75:0:0Z</time></trkpt>
<trkpt lat="45.793134" lon="1.343501"><ele>0</ele><time>3.605551242828369-401.0-325.70001220703125T5.25:0:0Z</time></trkpt>
<trkpt lat="45.793175" lon="1.343464"><ele>0</ele><time>3.605551242828369-401.0-326.5T5.25:0:0Z</time></trkpt>
<trkpt lat="45.79324" lon="1.343395"><ele>0</ele><time>2.8284270763397217-400.8999938964844-326.6000061035156T4.75:0:0Z</time></trkpt>
<trkpt lat="45.793313" lon="1.343325"><ele>0</ele><time>3.605551242828369-400.79998779296875-325.5T5.0:0:0Z</time></trkpt>
<trkpt lat="45.793357" lon="1.34327"><ele>0</ele><time>3.605551242828369-400.29998779296875-322.1000061035156T5.5:0:0Z</time></trkpt>
<trkpt lat="45.793408" lon="1.343209"><ele>0</ele><time>3.605551242828369-400.1000061035156-318.1000061035156T6.75:0:0Z</time></trkpt>
<trkpt lat="45.793461" lon="1.34316"><ele>0</ele><time>4.4721360206604-399.6000061035156-324.3999938964844T6.5:0:0Z</time></trkpt>
<trkpt lat="45.793504" lon="1.343115"><ele>0</ele><time>4.4721360206604-399.1000061035156-323.79998779296875T6.25:0:0Z</time></trkpt>
<trkpt lat="45.793546" lon="1.343059"><ele>0</ele><time>4.4721360206604-398.3999938964844-320.20001220703125T6.25:0:0Z</time></trkpt>
<trkpt lat="45.793608" lon="1.343007"><ele>0</ele><time>4.4721360206604-397.29998779296875-319.8999938964844T6.768493175506592:0:0Z</time></trkpt>
<trkpt lat="45.793683" lon="1.342949"><ele>0</ele><time>4.4721360206604-396.6000061035156-323.3999938964844T7.75:0:0Z</time></trkpt>
<trkpt lat="45.79375" lon="1.342895"><ele>0</ele><time>3.605551242828369-395.0-322.8999938964844T7.75:0:0Z</time></trkpt>
<trkpt lat="45.793806" lon="1.342838"><ele>0</ele><time>4.4721360206604-394.5-324.70001220703125T7.5:0:0Z</time></trkpt>
<trkpt lat="45.793875" lon="1.342777"><ele>0</ele><time>3.605551242828369-394.6000061035156-324.29998779296875T7.5:0:0Z</time></trkpt>
<trkpt lat="45.793932" lon="1.342715"><ele>0</ele><time>2.8284270763397217-394.6000061035156-323.3999938964844T7.5:0:0Z</time></trkpt>
<trkpt lat="45.793993" lon="1.342657"><ele>0</ele><time>2.8284270763397217-395.3999938964844-324.3999938964844T7.25:0:0Z</time></trkpt>
<trkpt lat="45.794049" lon="1.342593"><ele>0</ele><time>2.8284270763397217-395.6000061035156-324.0T7.75:0:0Z</time></trkpt>
<trkpt lat="45.794094" lon="1.34255"><ele>0</ele><time>2.8284270763397217-394.70001220703125-324.5T6.5:0:0Z</time></trkpt>
<trkpt lat="45.794151" lon="1.342461"><ele>0</ele><time>2.8284270763397217-395.20001220703125-314.20001220703125T5.0:0:0Z</time></trkpt>
<trkpt lat="45.794185" lon="1.342409"><ele>0</ele><time>2.8284270763397217-395.8999938964844-310.3999938964844T5.0:0:0Z</time></trkpt>
<trkpt lat="45.79421" lon="1.342314"><ele>0</ele><time>2.8284270763397217-396.79998779296875-293.29998779296875T4.5:0:0Z</time></trkpt>
<trkpt lat="45.794223" lon="1.342231"><ele>0</ele><time>2.8284270763397217-397.6000061035156-289.20001220703125T3.25:0:0Z</time></trkpt>
<trkpt lat="45.794234" lon="1.342133"><ele>0</ele><time>3.605551242828369-397.6000061035156-282.79998779296875T3.5:0:0Z</time></trkpt>
<trkpt lat="45.794235" lon="1.342022"><ele>0</ele><time>3.605551242828369-398.29998779296875-277.6000061035156T4.25:0:0Z</time></trkpt>
<trkpt lat="45.794256" lon="1.341961"><ele>0</ele><time>3.605551242828369-398.0-282.8999938964844T4.25:0:0Z</time></trkpt>
<trkpt lat="45.79427" lon="1.341894"><ele>0</ele><time>3.605551242828369-398.3999938964844-283.79998779296875T4.75:0:0Z</time></trkpt>
<trkpt lat="45.794281" lon="1.341778"><ele>0</ele><time>5.0-398.1000061035156-277.8999938964844T4.25:0:0Z</time></trkpt>
<trkpt lat="45.794289" lon="1.34171"><ele>0</ele><time>4.242640495300293-397.29998779296875-277.6000061035156T4.25:0:0Z</time></trkpt>
<trkpt lat="45.794314" lon="1.341588"><ele>0</ele><time>4.242640495300293-397.29998779296875-278.79998779296875T4.5:0:0Z</time></trkpt>
<trkpt lat="45.794345" lon="1.341497"><ele>0</ele><time>3.605551242828369-399.29998779296875-289.29998779296875T5.34438943862915:0:0Z</time></trkpt>
<trkpt lat="45.794365" lon="1.341412"><ele>0</ele><time>3.605551242828369-400.0-285.3999938964844T5.25:0:0Z</time></trkpt>
<trkpt lat="45.794356" lon="1.341315"><ele>0</ele><time>3.605551242828369-396.6000061035156-266.0T7.386643409729004:0:0Z</time></trkpt>
<trkpt lat="45.794356" lon="1.341229"><ele>0</ele><time>3.605551242828369-395.0-268.6000061035156T6.184658527374268:0:0Z</time></trkpt>
<trkpt lat="45.794361" lon="1.341152"><ele>0</ele><time>2.8284270763397217-395.5-268.79998779296875T5.771697998046875:0:0Z</time></trkpt>
<trkpt lat="45.794361" lon="1.341052"><ele>0</ele><time>2.8284270763397217-395.6000061035156-270.6000061035156T5.75:0:0Z</time></trkpt>
<trkpt lat="45.794358" lon="1.34097"><ele>0</ele><time>3.605551242828369-395.3999938964844-270.8999938964844T5.5:0:0Z</time></trkpt>
<trkpt lat="45.794366" lon="1.340894"><ele>0</ele><time>3.605551242828369-395.3999938964844-275.5T5.75:0:0Z</time></trkpt>
<trkpt lat="45.794376" lon="1.34082"><ele>0</ele><time>4.4721360206604-395.6000061035156-276.6000061035156T5.5:0:0Z</time></trkpt>
<trkpt lat="45.794396" lon="1.340746"><ele>0</ele><time>6.324555397033691-395.79998779296875-281.0T5.5:0:0Z</time></trkpt>
<trkpt lat="45.794402" lon="1.340677"><ele>0</ele><time>6.324555397033691-395.6000061035156-280.70001220703125T5.25:0:0Z</time></trkpt>
<trkpt lat="45.794424" lon="1.340613"><ele>0</ele><time>8.246211051940918-395.8999938964844-283.1000061035156T5.25:0:0Z</time></trkpt>
<trkpt lat="45.794454" lon="1.340537"><ele>0</ele><time>8.246211051940918-396.1000061035156-285.8999938964844T5.25:0:0Z</time></trkpt>
<trkpt lat="45.794485" lon="1.340461"><ele>0</ele><time>6.324555397033691-397.20001220703125-287.6000061035156T5.25:0:0Z</time></trkpt>
<trkpt lat="45.794487" lon="1.340341"><ele>0</ele><time>4.4721360206604-397.3999938964844-287.6000061035156T5.0:0:0Z</time></trkpt>
<trkpt lat="45.794503" lon="1.340277"><ele>0</ele><time>4.4721360206604-397.29998779296875-286.6000061035156T5.0:0:0Z</time></trkpt>
<trkpt lat="45.794531" lon="1.34021"><ele>0</ele><time>3.605551242828369-398.5-291.3999938964844T5.522680282592773:0:0Z</time></trkpt>
<trkpt lat="45.794556" lon="1.340143"><ele>0</ele><time>3.605551242828369-399.1000061035156-291.0T5.2737555503845215:0:0Z</time></trkpt>
<trkpt lat="45.794565" lon="1.340072"><ele>0</ele><time>3.605551242828369-398.8999938964844-285.70001220703125T5.0:0:0Z</time></trkpt>
<trkpt lat="45.794604" lon="1.339983"><ele>0</ele><time>3.605551242828369-400.3999938964844-293.6000061035156T7.158910751342773:0:0Z</time></trkpt>
<trkpt lat="45.794619" lon="1.339903"><ele>0</ele><time>3.605551242828369-400.5-292.29998779296875T6.269968032836914:0:0Z</time></trkpt>
<trkpt lat="45.794638" lon="1.339824"><ele>0</ele><time>3.605551242828369-400.6000061035156-290.1000061035156T6.269968032836914:0:0Z</time></trkpt>
<trkpt lat="45.794644" lon="1.339745"><ele>0</ele><time>3.605551242828369-400.3999938964844-283.3999938964844T6.0:0:0Z</time></trkpt>
<trkpt lat="45.794658" lon="1.339674"><ele>0</ele><time>3.605551242828369-400.20001220703125-285.8999938964844T5.75:0:0Z</time></trkpt>
<trkpt lat="45.794662" lon="1.339587"><ele>0</ele><time>4.4721360206604-400.20001220703125-280.29998779296875T6.25:0:0Z</time></trkpt>
<trkpt lat="45.794674" lon="1.339469"><ele>0</ele><time>4.4721360206604-399.6000061035156-279.5T7.75:0:0Z</time></trkpt>
<trkpt lat="45.794716" lon="1.339313"><ele>0</ele><time>4.4721360206604-399.1000061035156-282.3999938964844T9.25:0:0Z</time></trkpt>
<trkpt lat="45.794741" lon="1.339174"><ele>0</ele><time>4.4721360206604-398.5-283.0T9.75:0:0Z</time></trkpt>
<trkpt lat="45.794761" lon="1.339042"><ele>0</ele><time>4.4721360206604-398.3999938964844-282.0T10.0:0:0Z</time></trkpt>
<trkpt lat="45.794775" lon="1.338927"><ele>0</ele><time>4.4721360206604-398.0-282.70001220703125T9.5:0:0Z</time></trkpt>
<trkpt lat="45.794795" lon="1.338812"><ele>0</ele><time>4.4721360206604-397.8999938964844-284.20001220703125T9.0:0:0Z</time></trkpt>
<trkpt lat="45.794799" lon="1.33869"><ele>0</ele><time>6.324555397033691-397.20001220703125-282.0T9.25:0:0Z</time></trkpt>
<trkpt lat="45.79468" lon="1.338565"><ele>0</ele><time>4.4721360206604-405.5-251.5T10.957303047180176:0:0Z</time></trkpt>
<trkpt lat="45.794658" lon="1.338451"><ele>0</ele><time>4.4721360206604-408.0-250.89999389648438T9.823441505432129:0:0Z</time></trkpt>
<trkpt lat="45.794629" lon="1.338329"><ele>0</ele><time>6.324555397033691-407.0-249.89999389648438T9.552486419677734:0:0Z</time></trkpt>
<trkpt lat="45.794615" lon="1.338221"><ele>0</ele><time>6.324555397033691-407.3999938964844-252.5T8.764273643493652:0:0Z</time></trkpt>
<trkpt lat="45.794616" lon="1.338126"><ele>0</ele><time>6.324555397033691-408.0-255.39999389648438T8.015609741210938:0:0Z</time></trkpt>
<trkpt lat="45.794752" lon="1.338025"><ele>0</ele><time>6.7082037925720215-407.3999938964844-290.20001220703125T7.75:0:0Z</time></trkpt>
<trkpt lat="45.794795" lon="1.337939"><ele>0</ele><time>6.7082037925720215-407.8999938964844-293.6000061035156T7.5:0:0Z</time></trkpt>
<trkpt lat="45.794828" lon="1.337848"><ele>0</ele><time>8.5440034866333-408.0-294.29998779296875T7.5:0:0Z</time></trkpt>
<trkpt lat="45.794869" lon="1.33775"><ele>0</ele><time>8.5440034866333-408.20001220703125-294.6000061035156T7.75:0:0Z</time></trkpt>
<trkpt lat="45.794935" lon="1.337647"><ele>0</ele><time>8.5440034866333-408.8999938964844-295.20001220703125T8.5:0:0Z</time></trkpt>
<trkpt lat="45.794965" lon="1.337519"><ele>0</ele><time>12.369317054748535-408.8999938964844-291.3999938964844T9.25:0:0Z</time></trkpt>
<trkpt lat="45.794979" lon="1.337411"><ele>0</ele><time>12.369317054748535-408.79998779296875-289.29998779296875T9.25:0:0Z</time></trkpt>
<trkpt lat="45.795028" lon="1.337268"><ele>0</ele><time>12.369317054748535-408.1000061035156-281.5T9.5:0:0Z</time></trkpt>
<trkpt lat="45.795054" lon="1.337126"><ele>0</ele><time>12.369317054748535-408.3999938964844-280.70001220703125T9.75:0:0Z</time></trkpt>
<trkpt lat="45.795039" lon="1.337016"><ele>0</ele><time>12.369317054748535-408.20001220703125-276.6000061035156T9.0:0:0Z</time></trkpt>
<trkpt lat="45.79505" lon="1.336944"><ele>0</ele><time>12.369317054748535-408.29998779296875-278.3999938964844T6.75:0:0Z</time></trkpt>
<trkpt lat="45.795032" lon="1.336877"><ele>0</ele><time>12.369317054748535-408.1000061035156-271.1000061035156T6.0:0:0Z</time></trkpt>
<trkpt lat="45.795085" lon="1.336861"><ele>0</ele><time>8.5440034866333-407.79998779296875-258.3999938964844T3.288236618041992:0:0Z</time></trkpt>
<trkpt lat="45.795107" lon="1.336689"><ele>0</ele><time>7.211102485656738-408.3999938964844-259.79998779296875T5.75:0:0Z</time></trkpt>
<trkpt lat="45.795126" lon="1.336525"><ele>0</ele><time>6.7082037925720215-408.70001220703125-262.1000061035156T6.75:0:0Z</time></trkpt>
<trkpt lat="45.795141" lon="1.336391"><ele>0</ele><time>6.7082037925720215-409.0-264.1000061035156T6.5:0:0Z</time></trkpt>
<trkpt lat="45.795161" lon="1.336293"><ele>0</ele><time>6.7082037925720215-408.20001220703125-272.3999938964844T6.0:0:0Z</time></trkpt>
<trkpt lat="45.795166" lon="1.33621"><ele>0</ele><time>6.7082037925720215-408.0-273.79998779296875T5.5:0:0Z</time></trkpt>
<trkpt lat="45.795168" lon="1.336133"><ele>0</ele><time>8.5440034866333-407.70001220703125-274.0T5.0:0:0Z</time></trkpt>
<trkpt lat="45.795194" lon="1.336021"><ele>0</ele><time>6.324555397033691-407.1000061035156-283.1000061035156T4.0:0:0Z</time></trkpt>
<trkpt lat="45.79522" lon="1.335929"><ele>0</ele><time>6.324555397033691-406.20001220703125-283.5T3.5:0:0Z</time></trkpt>
<trkpt lat="45.795277" lon="1.335815"><ele>0</ele><time>6.324555397033691-404.8999938964844-285.79998779296875T4.0:0:0Z</time></trkpt>
<trkpt lat="45.795311" lon="1.335742"><ele>0</ele><time>6.324555397033691-405.70001220703125-291.79998779296875T5.0:0:0Z</time></trkpt>
<trkpt lat="45.795342" lon="1.33563"><ele>0</ele><time>6.324555397033691-404.29998779296875-291.79998779296875T4.0:0:0Z</time></trkpt>
<trkpt lat="45.795366" lon="1.335532"><ele>0</ele><time>8.246211051940918-404.6000061035156-291.1000061035156T3.0:0:0Z</time></trkpt>
<trkpt lat="45.795402" lon="1.335464"><ele>0</ele><time>6.324555397033691-403.70001220703125-303.3999938964844T2.75:0:0Z</time></trkpt>
<trkpt lat="45.795443" lon="1.335383"><ele>0</ele><time>6.324555397033691-403.5-301.0T3.0:0:0Z</time></trkpt>
<trkpt lat="45.795491" lon="1.335297"><ele>0</ele><time>6.324555397033691-402.5-295.6000061035156T2.75:0:0Z</time></trkpt>
<trkpt lat="45.79552" lon="1.335212"><ele>0</ele><time>6.324555397033691-401.70001220703125-279.70001220703125T2.75:0:0Z</time></trkpt>
<trkpt lat="45.795529" lon="1.335109"><ele>0</ele><time>4.4721360206604-401.1000061035156-276.70001220703125T2.75:0:0Z</time></trkpt>
<trkpt lat="45.795545" lon="1.33503"><ele>0</ele><time>6.324555397033691-399.79998779296875-267.70001220703125T1.75:0:0Z</time></trkpt>
<trkpt lat="45.795534" lon="1.334932"><ele>0</ele><time>6.324555397033691-399.79998779296875-262.29998779296875T2.25:0:0Z</time></trkpt>
<trkpt lat="45.795534" lon="1.334858"><ele>0</ele><time>4.4721360206604-399.20001220703125-266.20001220703125T1.75:0:0Z</time></trkpt>
<trkpt lat="45.795517" lon="1.334728"><ele>0</ele><time>6.324555397033691-398.0-259.8999938964844T2.5:0:0Z</time></trkpt>
<trkpt lat="45.795509" lon="1.334638"><ele>0</ele><time>6.324555397033691-397.79998779296875-261.6000061035156T2.75:0:0Z</time></trkpt>
<trkpt lat="45.795519" lon="1.334533"><ele>0</ele><time>6.324555397033691-397.3999938964844-269.79998779296875T3.25:0:0Z</time></trkpt>
<trkpt lat="45.795523" lon="1.334434"><ele>0</ele><time>6.324555397033691-396.79998779296875-270.29998779296875T3.041381359100342:0:0Z</time></trkpt>
<trkpt lat="45.795541" lon="1.334317"><ele>0</ele><time>6.324555397033691-397.0-271.1000061035156T3.5:0:0Z</time></trkpt>
<trkpt lat="45.795563" lon="1.334235"><ele>0</ele><time>6.324555397033691-396.6000061035156-272.79998779296875T2.75:0:0Z</time></trkpt>
<trkpt lat="45.795572" lon="1.334148"><ele>0</ele><time>4.4721360206604-396.6000061035156-267.0T2.75:0:0Z</time></trkpt>
<trkpt lat="45.795549" lon="1.334071"><ele>0</ele><time>3.605551242828369-396.5-266.29998779296875T2.75:0:0Z</time></trkpt>
<trkpt lat="45.795545" lon="1.333959"><ele>0</ele><time>4.4721360206604-396.79998779296875-265.20001220703125T3.25:0:0Z</time></trkpt>
<trkpt lat="45.795583" lon="1.333852"><ele>0</ele><time>4.4721360206604-398.0-277.8999938964844T3.25:0:0Z</time></trkpt>
<trkpt lat="45.795597" lon="1.333755"><ele>0</ele><time>4.4721360206604-397.29998779296875-279.20001220703125T2.75:0:0Z</time></trkpt>
<trkpt lat="45.79558" lon="1.333676"><ele>0</ele><time>4.4721360206604-401.1000061035156-250.5T2.9261748790740967:0:0Z</time></trkpt>
<trkpt lat="45.795568" lon="1.333603"><ele>0</ele><time>4.4721360206604-402.29998779296875-249.89999389648438T2.692582368850708:0:0Z</time></trkpt>
<trkpt lat="45.795564" lon="1.333535"><ele>0</ele><time>4.4721360206604-402.29998779296875-249.89999389648438T2.5495097637176514:0:0Z</time></trkpt>
<trkpt lat="45.79555" lon="1.333448"><ele>0</ele><time>5.0-402.0-252.3000030517578T3.0:0:0Z</time></trkpt>
<trkpt lat="45.795555" lon="1.333338"><ele>0</ele><time>6.7082037925720215-402.1000061035156-261.8999938964844T3.5:0:0Z</time></trkpt>
<trkpt lat="45.795559" lon="1.333249"><ele>0</ele><time>6.7082037925720215-401.3999938964844-264.5T3.25:0:0Z</time></trkpt>
<trkpt lat="45.795577" lon="1.333122"><ele>0</ele><time>6.7082037925720215-400.70001220703125-269.5T3.75:0:0Z</time></trkpt>
<trkpt lat="45.795588" lon="1.333009"><ele>0</ele><time>6.324555397033691-399.8999938964844-270.70001220703125T4.0:0:0Z</time></trkpt>
<trkpt lat="45.795592" lon="1.332901"><ele>0</ele><time>6.324555397033691-399.6000061035156-271.29998779296875T4.25:0:0Z</time></trkpt>
<trkpt lat="45.795592" lon="1.332901"><ele>0</ele><time>6.324555397033691-399.6000061035156-271.29998779296875T4.25:0:0Z</time></trkpt>
<trkpt lat="45.795606" lon="1.33279"><ele>0</ele><time>4.4721360206604-399.5-270.1000061035156T4.25:0:0Z</time></trkpt>
<trkpt lat="45.795605" lon="1.332686"><ele>0</ele><time>4.4721360206604-400.0-270.79998779296875T4.0:0:0Z</time></trkpt>
<trkpt lat="45.79561" lon="1.33258"><ele>0</ele><time>4.4721360206604-398.6000061035156-269.3999938964844T4.0:0:0Z</time></trkpt>
<trkpt lat="45.795635" lon="1.332466"><ele>0</ele><time>4.4721360206604-396.79998779296875-272.6000061035156T4.25:0:0Z</time></trkpt>
<trkpt lat="45.795633" lon="1.332368"><ele>0</ele><time>4.4721360206604-396.8999938964844-270.20001220703125T4.0:0:0Z</time></trkpt>
<trkpt lat="45.795631" lon="1.332266"><ele>0</ele><time>4.4721360206604-397.1000061035156-269.5T3.75:0:0Z</time></trkpt>
<trkpt lat="45.795625" lon="1.332167"><ele>0</ele><time>4.4721360206604-396.5-266.29998779296875T3.75:0:0Z</time></trkpt>
<trkpt lat="45.795616" lon="1.33206"><ele>0</ele><time>4.4721360206604-396.6000061035156-263.70001220703125T4.0:0:0Z</time></trkpt>
<trkpt lat="45.795614" lon="1.331949"><ele>0</ele><time>4.4721360206604-397.20001220703125-264.29998779296875T4.0:0:0Z</time></trkpt>
<trkpt lat="45.795615" lon="1.331848"><ele>0</ele><time>4.4721360206604-397.5-267.0T3.75:0:0Z</time></trkpt>
<trkpt lat="45.795617" lon="1.331778"><ele>0</ele><time>4.4721360206604-395.79998779296875-270.20001220703125T3.288236618041992:0:0Z</time></trkpt>
<trkpt lat="45.795612" lon="1.331712"><ele>0</ele><time>4.4721360206604-394.70001220703125-265.5T2.5495097637176514:0:0Z</time></trkpt>
<trkpt lat="45.795604" lon="1.331613"><ele>0</ele><time>3.605551242828369-395.29998779296875-261.1000061035156T3.75:0:0Z</time></trkpt>
<trkpt lat="45.795599" lon="1.331523"><ele>0</ele><time>3.605551242828369-395.1000061035156-260.8999938964844T3.5:0:0Z</time></trkpt>
<trkpt lat="45.795596" lon="1.331433"><ele>0</ele><time>5.0-396.0-264.0T3.5:0:0Z</time></trkpt>
<trkpt lat="45.795584" lon="1.331329"><ele>0</ele><time>6.7082037925720215-396.3999938964844-261.29998779296875T3.75:0:0Z</time></trkpt>
<trkpt lat="45.795575" lon="1.331225"><ele>0</ele><time>6.7082037925720215-396.70001220703125-263.0T4.25:0:0Z</time></trkpt>
<trkpt lat="45.795556" lon="1.331142"><ele>0</ele><time>6.7082037925720215-396.5-257.5T3.5:0:0Z</time></trkpt>
<trkpt lat="45.795538" lon="1.331078"><ele>0</ele><time>6.7082037925720215-396.8999938964844-255.5T4.0:0:0Z</time></trkpt>
<trkpt lat="45.795524" lon="1.331003"><ele>0</ele><time>6.324555397033691-397.1000061035156-252.6999969482422T4.25:0:0Z</time></trkpt>
<trkpt lat="45.795499" lon="1.330936"><ele>0</ele><time>4.4721360206604-397.8999938964844-253.8000030517578T4.25:0:0Z</time></trkpt>
<trkpt lat="45.795509" lon="1.330851"><ele>0</ele><time>4.4721360206604-396.5-263.0T5.024937629699707:0:0Z</time></trkpt>
<trkpt lat="45.795532" lon="1.330704"><ele>0</ele><time>4.4721360206604-396.8999938964844-286.79998779296875T5.25:0:0Z</time></trkpt>
<trkpt lat="45.79553" lon="1.330639"><ele>0</ele><time>4.4721360206604-398.20001220703125-272.29998779296875T3.75:0:0Z</time></trkpt>
<trkpt lat="45.795553" lon="1.330553"><ele>0</ele><time>3.605551242828369-397.79998779296875-305.29998779296875T1.25:0:0Z</time></trkpt>
<trkpt lat="45.795596" lon="1.330531"><ele>0</ele><time>3.605551242828369-397.79998779296875-305.29998779296875T0.0:0:0Z</time></trkpt>
<trkpt lat="45.795592" lon="1.330532"><ele>0</ele><time>3.605551242828369-398.29998779296875-305.29998779296875T0.0:0:0Z</time></trkpt>
<trkpt lat="45.795616" lon="1.330486"><ele>0</ele><time>3.605551242828369-399.0-311.1000061035156T1.75:0:0Z</time></trkpt>
<trkpt lat="45.795635" lon="1.330455"><ele>0</ele><time>3.605551242828369-399.6000061035156-313.6000061035156T2.5:0:0Z</time></trkpt>
<trkpt lat="45.795682" lon="1.330388"><ele>0</ele><time>4.4721360206604-400.5-315.0T3.25:0:0Z</time></trkpt>
<trkpt lat="45.795763" lon="1.330348"><ele>0</ele><time>4.4721360206604-400.70001220703125-332.6000061035156T4.25:0:0Z</time></trkpt>
<trkpt lat="45.795834" lon="1.33028"><ele>0</ele><time>4.4721360206604-400.5-328.29998779296875T4.5:0:0Z</time></trkpt>
<trkpt lat="45.795883" lon="1.33021"><ele>0</ele><time>3.605551242828369-400.8999938964844-320.70001220703125T4.25:0:0Z</time></trkpt>
<trkpt lat="45.795927" lon="1.330125"><ele>0</ele><time>3.605551242828369-400.1000061035156-319.5T4.25:0:0Z</time></trkpt>
<trkpt lat="45.795986" lon="1.330042"><ele>0</ele><time>3.605551242828369-399.6000061035156-315.8999938964844T4.25:0:0Z</time></trkpt>
<trkpt lat="45.796008" lon="1.329924"><ele>0</ele><time>3.605551242828369-400.20001220703125-292.5T4.5:0:0Z</time></trkpt>
<trkpt lat="45.796032" lon="1.329803"><ele>0</ele><time>3.605551242828369-399.8999938964844-287.8999938964844T5.0:0:0Z</time></trkpt>
<trkpt lat="45.796018" lon="1.329644"><ele>0</ele><time>3.605551242828369-398.5-264.3999938964844T6.020797252655029:0:0Z</time></trkpt>
<trkpt lat="45.796005" lon="1.329551"><ele>0</ele><time>3.605551242828369-398.3999938964844-261.0T6.25:0:0Z</time></trkpt>
<trkpt lat="45.795998" lon="1.329472"><ele>0</ele><time>3.605551242828369-397.5-260.20001220703125T6.768493175506592:0:0Z</time></trkpt>
<trkpt lat="45.795987" lon="1.329377"><ele>0</ele><time>2.8284270763397217-396.8999938964844-259.3999938964844T7.017834186553955:0:0Z</time></trkpt>
<trkpt lat="45.795977" lon="1.329287"><ele>0</ele><time>2.8284270763397217-396.70001220703125-259.1000061035156T7.0:0:0Z</time></trkpt>
<trkpt lat="45.795939" lon="1.329097"><ele>0</ele><time>2.8284270763397217-398.1000061035156-255.10000610351563T7.766112327575684:0:0Z</time></trkpt>
<trkpt lat="45.795927" lon="1.328995"><ele>0</ele><time>3.605551242828369-398.20001220703125-258.5T8.0:0:0Z</time></trkpt>
<trkpt lat="45.795917" lon="1.328884"><ele>0</ele><time>3.605551242828369-398.1000061035156-261.0T8.5:0:0Z</time></trkpt>
<trkpt lat="45.795963" lon="1.328765"><ele>0</ele><time>3.605551242828369-396.5-284.29998779296875T9.013877868652344:0:0Z</time></trkpt>
<trkpt lat="45.795985" lon="1.328653"><ele>0</ele><time>3.605551242828369-396.29998779296875-286.6000061035156T9.013877868652344:0:0Z</time></trkpt>
<trkpt lat="45.796019" lon="1.328536"><ele>0</ele><time>3.605551242828369-396.29998779296875-290.5T9.25:0:0Z</time></trkpt>
<trkpt lat="45.796056" lon="1.328412"><ele>0</ele><time>3.605551242828369-396.5-292.6000061035156T9.75:0:0Z</time></trkpt>
<trkpt lat="45.796094" lon="1.328299"><ele>0</ele><time>4.4721360206604-396.3999938964844-294.8999938964844T9.75:0:0Z</time></trkpt>
<trkpt lat="45.796166" lon="1.328251"><ele>0</ele><time>4.4721360206604-396.0-309.20001220703125T8.5:0:0Z</time></trkpt>
<trkpt lat="45.796277" lon="1.328204"><ele>0</ele><time>3.605551242828369-394.3999938964844-327.1000061035156T10.012492179870605:0:0Z</time></trkpt>
<trkpt lat="45.796354" lon="1.328141"><ele>0</ele><time>3.605551242828369-393.8999938964844-329.29998779296875T9.762811660766602:0:0Z</time></trkpt>
<trkpt lat="45.796429" lon="1.328097"><ele>0</ele><time>3.605551242828369-393.5-335.8999938964844T9.25:0:0Z</time></trkpt>
<trkpt lat="45.796537" lon="1.328052"><ele>0</ele><time>3.605551242828369-393.5-341.0T10.0:0:0Z</time></trkpt>
<trkpt lat="45.796656" lon="1.328081"><ele>0</ele><time>3.605551242828369-392.6000061035156-0.8999999761581421T9.762811660766602:0:0Z</time></trkpt>
<trkpt lat="45.796732" lon="1.328088"><ele>0</ele><time>3.605551242828369-391.79998779296875-4.099999904632568T9.75:0:0Z</time></trkpt>
<trkpt lat="45.796809" lon="1.328109"><ele>0</ele><time>3.605551242828369-391.20001220703125-6.699999809265137T9.25:0:0Z</time></trkpt>
<trkpt lat="45.79688" lon="1.328131"><ele>0</ele><time>5.0-390.70001220703125-7.699999809265137T9.0:0:0Z</time></trkpt>
<trkpt lat="45.796951" lon="1.328148"><ele>0</ele><time>6.7082037925720215-390.5-6.699999809265137T8.75:0:0Z</time></trkpt>
<trkpt lat="45.797049" lon="1.32812"><ele>0</ele><time>6.7082037925720215-390.29998779296875-356.6000061035156T9.5:0:0Z</time></trkpt>
<trkpt lat="45.797138" lon="1.328057"><ele>0</ele><time>5.0-388.6000061035156-342.70001220703125T10.049875259399414:0:0Z</time></trkpt>
<trkpt lat="45.797219" lon="1.328027"><ele>0</ele><time>5.0-387.8999938964844-341.0T10.012492179870605:0:0Z</time></trkpt>
<trkpt lat="45.797297" lon="1.327992"><ele>0</ele><time>5.0-388.0-340.5T9.5:0:0Z</time></trkpt>
<trkpt lat="45.797366" lon="1.327949"><ele>0</ele><time>6.7082037925720215-388.0-337.6000061035156T9.0:0:0Z</time></trkpt>
<trkpt lat="45.797427" lon="1.327877"><ele>0</ele><time>6.7082037925720215-387.29998779296875-333.29998779296875T8.5:0:0Z</time></trkpt>
<trkpt lat="45.797451" lon="1.327789"><ele>0</ele><time>6.324555397033691-387.6000061035156-324.29998779296875T7.25:0:0Z</time></trkpt>
<trkpt lat="45.797486" lon="1.327709"><ele>0</ele><time>4.4721360206604-386.3999938964844-322.5T6.51920223236084:0:0Z</time></trkpt>
<trkpt lat="45.79753" lon="1.327645"><ele>0</ele><time>4.4721360206604-385.8999938964844-316.20001220703125T6.768493175506592:0:0Z</time></trkpt>
<trkpt lat="45.797567" lon="1.327566"><ele>0</ele><time>4.4721360206604-386.29998779296875-307.6000061035156T7.267220973968506:0:0Z</time></trkpt>
<trkpt lat="45.797608" lon="1.327483"><ele>0</ele><time>3.605551242828369-386.0-311.1000061035156T6.768493175506592:0:0Z</time></trkpt>
<trkpt lat="45.797666" lon="1.327419"><ele>0</ele><time>3.605551242828369-385.1000061035156-315.0T7.25:0:0Z</time></trkpt>
<trkpt lat="45.797719" lon="1.327321"><ele>0</ele><time>4.4721360206604-384.6000061035156-306.1000061035156T8.75:0:0Z</time></trkpt>
<trkpt lat="45.797773" lon="1.327236"><ele>0</ele><time>3.605551242828369-383.5-303.29998779296875T9.0:0:0Z</time></trkpt>
<trkpt lat="45.797825" lon="1.327158"><ele>0</ele><time>2.8284270763397217-381.6000061035156-299.70001220703125T8.5:0:0Z</time></trkpt>
<trkpt lat="45.79786" lon="1.327062"><ele>0</ele><time>2.8284270763397217-381.6000061035156-296.20001220703125T8.25:0:0Z</time></trkpt>
<trkpt lat="45.79789" lon="1.326965"><ele>0</ele><time>2.8284270763397217-381.79998779296875-296.6000061035156T8.0:0:0Z</time></trkpt>
<trkpt lat="45.797912" lon="1.326871"><ele>0</ele><time>2.8284270763397217-381.70001220703125-295.1000061035156T8.0:0:0Z</time></trkpt>
<trkpt lat="45.797959" lon="1.32677"><ele>0</ele><time>2.8284270763397217-381.3999938964844-299.79998779296875T8.25:0:0Z</time></trkpt>
<trkpt lat="45.798007" lon="1.32667"><ele>0</ele><time>2.8284270763397217-381.79998779296875-305.79998779296875T8.5:0:0Z</time></trkpt>
<trkpt lat="45.798056" lon="1.326595"><ele>0</ele><time>2.8284270763397217-381.29998779296875-311.8999938964844T8.0:0:0Z</time></trkpt>
<trkpt lat="45.798105" lon="1.326532"><ele>0</ele><time>2.8284270763397217-381.6000061035156-317.20001220703125T7.5:0:0Z</time></trkpt>
<trkpt lat="45.798151" lon="1.326467"><ele>0</ele><time>2.8284270763397217-381.70001220703125-315.5T7.25:0:0Z</time></trkpt>
<trkpt lat="45.798194" lon="1.326412"><ele>0</ele><time>2.8284270763397217-380.79998779296875-316.20001220703125T7.0:0:0Z</time></trkpt>
<trkpt lat="45.798239" lon="1.326359"><ele>0</ele><time>2.8284270763397217-381.3999938964844-318.29998779296875T7.0:0:0Z</time></trkpt>
<trkpt lat="45.798293" lon="1.326305"><ele>0</ele><time>2.8284270763397217-381.79998779296875-323.5T7.0:0:0Z</time></trkpt>
<trkpt lat="45.798359" lon="1.326256"><ele>0</ele><time>2.8284270763397217-382.0-329.5T7.0:0:0Z</time></trkpt>
<trkpt lat="45.798417" lon="1.326236"><ele>0</ele><time>2.8284270763397217-381.8999938964844-341.1000061035156T7.0:0:0Z</time></trkpt>
<trkpt lat="45.798482" lon="1.326224"><ele>0</ele><time>2.8284270763397217-381.8999938964844-347.79998779296875T7.0:0:0Z</time></trkpt>
<trkpt lat="45.798547" lon="1.32621"><ele>0</ele><time>2.8284270763397217-382.1000061035156-348.70001220703125T7.25:0:0Z</time></trkpt>
<trkpt lat="45.798616" lon="1.326189"><ele>0</ele><time>3.605551242828369-381.79998779296875-346.3999938964844T7.5:0:0Z</time></trkpt>
<trkpt lat="45.798677" lon="1.326158"><ele>0</ele><time>3.605551242828369-381.0-338.3999938964844T7.5:0:0Z</time></trkpt>
<trkpt lat="45.798729" lon="1.326101"><ele>0</ele><time>3.605551242828369-380.8999938964844-330.0T7.25:0:0Z</time></trkpt>
<trkpt lat="45.798788" lon="1.326039"><ele>0</ele><time>3.605551242828369-380.79998779296875-322.20001220703125T8.25:0:0Z</time></trkpt>
<trkpt lat="45.798839" lon="1.32596"><ele>0</ele><time>4.4721360206604-380.6000061035156-316.5T8.5:0:0Z</time></trkpt>
<trkpt lat="45.798898" lon="1.325859"><ele>0</ele><time>6.324555397033691-380.3999938964844-311.79998779296875T9.25:0:0Z</time></trkpt>
<trkpt lat="45.798954" lon="1.325758"><ele>0</ele><time>6.7082037925720215-380.1000061035156-309.1000061035156T9.75:0:0Z</time></trkpt>
<trkpt lat="45.798987" lon="1.325604"><ele>0</ele><time>6.324555397033691-380.1000061035156-302.79998779296875T10.75:0:0Z</time></trkpt>
<trkpt lat="45.799016" lon="1.325487"><ele>0</ele><time>6.324555397033691-380.0-299.8999938964844T10.5:0:0Z</time></trkpt>
<trkpt lat="45.799053" lon="1.325376"><ele>0</ele><time>6.324555397033691-379.70001220703125-298.79998779296875T10.0:0:0Z</time></trkpt>
<trkpt lat="45.799126" lon="1.32528"><ele>0</ele><time>4.4721360206604-376.6000061035156-307.8999938964844T9.708244323730469:0:0Z</time></trkpt>
<trkpt lat="45.799176" lon="1.325193"><ele>0</ele><time>4.4721360206604-375.0-309.70001220703125T9.05538558959961:0:0Z</time></trkpt>
<trkpt lat="45.799227" lon="1.325118"><ele>0</ele><time>4.4721360206604-373.3999938964844-309.20001220703125T9.013877868652344:0:0Z</time></trkpt>
<trkpt lat="45.799303" lon="1.325007"><ele>0</ele><time>4.4721360206604-372.8999938964844-308.5T9.51314926147461:0:0Z</time></trkpt>
<trkpt lat="45.799342" lon="1.32492"><ele>0</ele><time>4.4721360206604-372.29998779296875-308.8999938964844T9.25:0:0Z</time></trkpt>
<trkpt lat="45.799393" lon="1.32483"><ele>0</ele><time>4.4721360206604-370.8999938964844-310.70001220703125T9.013877868652344:0:0Z</time></trkpt>
<trkpt lat="45.799439" lon="1.324743"><ele>0</ele><time>4.4721360206604-369.70001220703125-310.29998779296875T8.514693260192871:0:0Z</time></trkpt>
<trkpt lat="45.799487" lon="1.32465"><ele>0</ele><time>4.4721360206604-369.1000061035156-308.8999938964844T8.5:0:0Z</time></trkpt>
<trkpt lat="45.799497" lon="1.32456"><ele>0</ele><time>4.4721360206604-368.29998779296875-297.6000061035156T7.267220973968506:0:0Z</time></trkpt>
<trkpt lat="45.79952" lon="1.324473"><ele>0</ele><time>4.4721360206604-367.0-296.29998779296875T7.017834186553955:0:0Z</time></trkpt>
<trkpt lat="45.799535" lon="1.324393"><ele>0</ele><time>4.4721360206604-366.5-296.0T6.269968032836914:0:0Z</time></trkpt>
<trkpt lat="45.799561" lon="1.324324"><ele>0</ele><time>4.4721360206604-365.5-300.29998779296875T6.020797252655029:0:0Z</time></trkpt>
<trkpt lat="45.799613" lon="1.324239"><ele>0</ele><time>4.4721360206604-364.3999938964844-305.29998779296875T6.5:0:0Z</time></trkpt>
<trkpt lat="45.799651" lon="1.324168"><ele>0</ele><time>6.324555397033691-363.6000061035156-308.0T6.75:0:0Z</time></trkpt>
<trkpt lat="45.799797" lon="1.324079"><ele>0</ele><time>4.4721360206604-360.70001220703125-326.5T10.796411514282227:0:0Z</time></trkpt>
<trkpt lat="45.799877" lon="1.324"><ele>0</ele><time>4.4721360206604-359.3999938964844-326.5T10.761621475219727:0:0Z</time></trkpt>
<trkpt lat="45.799961" lon="1.323902"><ele>0</ele><time>4.4721360206604-359.0-322.70001220703125T11.0:0:0Z</time></trkpt>
<trkpt lat="45.800035" lon="1.323806"><ele>0</ele><time>6.7082037925720215-358.20001220703125-321.0T11.0:0:0Z</time></trkpt>
<trkpt lat="45.800095" lon="1.323736"><ele>0</ele><time>5.0-357.5-323.8999938964844T9.75:0:0Z</time></trkpt>
<trkpt lat="45.800178" lon="1.323646"><ele>0</ele><time>4.4721360206604-357.1000061035156-325.8999938964844T9.5:0:0Z</time></trkpt>
<trkpt lat="45.800274" lon="1.323603"><ele>0</ele><time>4.4721360206604-355.70001220703125-331.1000061035156T9.25:0:0Z</time></trkpt>
<trkpt lat="45.800347" lon="1.32358"><ele>0</ele><time>4.4721360206604-354.70001220703125-335.8999938964844T9.0:0:0Z</time></trkpt>
<trkpt lat="45.800414" lon="1.32354"><ele>0</ele><time>4.4721360206604-353.8999938964844-335.5T8.5:0:0Z</time></trkpt>
<trkpt lat="45.800466" lon="1.323506"><ele>0</ele><time>4.4721360206604-353.70001220703125-333.3999938964844T7.25:0:0Z</time></trkpt>
<trkpt lat="45.800529" lon="1.323444"><ele>0</ele><time>6.324555397033691-354.0-326.79998779296875T8.0:0:0Z</time></trkpt>
<trkpt lat="45.800565" lon="1.323398"><ele>0</ele><time>6.324555397033691-353.6000061035156-325.70001220703125T6.75:0:0Z</time></trkpt>
<trkpt lat="45.800619" lon="1.323348"><ele>0</ele><time>4.4721360206604-353.79998779296875-324.5T6.5:0:0Z</time></trkpt>
<trkpt lat="45.800672" lon="1.323289"><ele>0</ele><time>4.4721360206604-353.79998779296875-318.1000061035156T6.25:0:0Z</time></trkpt>
<trkpt lat="45.800738" lon="1.323233"><ele>0</ele><time>3.605551242828369-353.6000061035156-321.5T6.75:0:0Z</time></trkpt>
<trkpt lat="45.800787" lon="1.323174"><ele>0</ele><time>3.605551242828369-354.20001220703125-320.6000061035156T7.0:0:0Z</time></trkpt>
<trkpt lat="45.800849" lon="1.323112"><ele>0</ele><time>3.605551242828369-354.0-327.0T7.25:0:0Z</time></trkpt>
<trkpt lat="45.800942" lon="1.323066"><ele>0</ele><time>2.8284270763397217-354.6000061035156-329.0T6.75:0:0Z</time></trkpt>
<trkpt lat="45.800996" lon="1.323023"><ele>0</ele><time>3.605551242828369-354.29998779296875-330.5T6.75:0:0Z</time></trkpt>
<trkpt lat="45.801039" lon="1.32299"><ele>0</ele><time>2.8284270763397217-354.6000061035156-331.70001220703125T5.75:0:0Z</time></trkpt>
<trkpt lat="45.801111" lon="1.322928"><ele>0</ele><time>2.8284270763397217-355.1000061035156-326.8999938964844T5.25:0:0Z</time></trkpt>
<trkpt lat="45.801151" lon="1.322886"><ele>0</ele><time>2.8284270763397217-354.3999938964844-323.8999938964844T5.0:0:0Z</time></trkpt>
<trkpt lat="45.801208" lon="1.322794"><ele>0</ele><time>3.605551242828369-354.79998779296875-316.20001220703125T5.25:0:0Z</time></trkpt>
<trkpt lat="45.801271" lon="1.322702"><ele>0</ele><time>3.605551242828369-354.20001220703125-315.0T5.25:0:0Z</time></trkpt>
<trkpt lat="45.801304" lon="1.322653"><ele>0</ele><time>3.605551242828369-354.3999938964844-313.1000061035156T5.25:0:0Z</time></trkpt>
<trkpt lat="45.801348" lon="1.322587"><ele>0</ele><time>2.8284270763397217-355.1000061035156-310.6000061035156T5.5:0:0Z</time></trkpt>
<trkpt lat="45.801381" lon="1.322526"><ele>0</ele><time>2.8284270763397217-355.5-311.1000061035156T5.75:0:0Z</time></trkpt>
<trkpt lat="45.801452" lon="1.322418"><ele>0</ele><time>2.8284270763397217-354.79998779296875-311.6000061035156T6.51920223236084:0:0Z</time></trkpt>
<trkpt lat="45.801497" lon="1.32235"><ele>0</ele><time>2.8284270763397217-354.3999938964844-313.1000061035156T6.5:0:0Z</time></trkpt>
<trkpt lat="45.801534" lon="1.322284"><ele>0</ele><time>2.8284270763397217-354.6000061035156-310.8999938964844T6.75:0:0Z</time></trkpt>
<trkpt lat="45.801582" lon="1.322215"><ele>0</ele><time>2.8284270763397217-354.8999938964844-313.20001220703125T6.75:0:0Z</time></trkpt>
<trkpt lat="45.80162" lon="1.322143"><ele>0</ele><time>2.8284270763397217-354.70001220703125-308.70001220703125T6.75:0:0Z</time></trkpt>
<trkpt lat="45.801662" lon="1.322082"><ele>0</ele><time>2.8284270763397217-354.70001220703125-308.79998779296875T6.5:0:0Z</time></trkpt>
<trkpt lat="45.801706" lon="1.32203"><ele>0</ele><time>2.8284270763397217-354.20001220703125-310.70001220703125T6.25:0:0Z</time></trkpt>
<trkpt lat="45.801749" lon="1.321967"><ele>0</ele><time>2.8284270763397217-353.8999938964844-310.6000061035156T6.25:0:0Z</time></trkpt>
<trkpt lat="45.80179" lon="1.321901"><ele>0</ele><time>2.8284270763397217-352.79998779296875-310.0T6.51920223236084:0:0Z</time></trkpt>
<trkpt lat="45.80183" lon="1.321837"><ele>0</ele><time>2.8284270763397217-352.5-309.8999938964844T6.269968032836914:0:0Z</time></trkpt>
<trkpt lat="45.801867" lon="1.321774"><ele>0</ele><time>2.8284270763397217-352.3999938964844-309.79998779296875T6.25:0:0Z</time></trkpt>
<trkpt lat="45.801903" lon="1.321711"><ele>0</ele><time>2.8284270763397217-352.29998779296875-308.79998779296875T6.25:0:0Z</time></trkpt>
<trkpt lat="45.801954" lon="1.321596"><ele>0</ele><time>2.8284270763397217-352.1000061035156-305.1000061035156T5.25:0:0Z</time></trkpt>
<trkpt lat="45.801983" lon="1.321533"><ele>0</ele><time>3.605551242828369-352.1000061035156-304.3999938964844T5.5:0:0Z</time></trkpt>
<trkpt lat="45.802008" lon="1.321473"><ele>0</ele><time>3.605551242828369-352.1000061035156-304.0T5.25:0:0Z</time></trkpt>
<trkpt lat="45.802022" lon="1.32141"><ele>0</ele><time>3.605551242828369-351.79998779296875-299.6000061035156T5.25:0:0Z</time></trkpt>
<trkpt lat="45.802041" lon="1.321346"><ele>0</ele><time>4.4721360206604-351.79998779296875-295.70001220703125T5.25:0:0Z</time></trkpt>
<trkpt lat="45.802062" lon="1.321275"><ele>0</ele><time>4.4721360206604-351.70001220703125-291.5T5.25:0:0Z</time></trkpt>
<trkpt lat="45.802101" lon="1.321197"><ele>0</ele><time>6.324555397033691-351.29998779296875-298.20001220703125T5.5:0:0Z</time></trkpt>
<trkpt lat="45.802125" lon="1.321156"><ele>0</ele><time>3.605551242828369-348.5-320.29998779296875T0.0:0:0Z</time></trkpt>
<trkpt lat="45.802159" lon="1.321127"><ele>0</ele><time>2.8284270763397217-349.3999938964844-320.29998779296875T0.5:0:0Z</time></trkpt>
<trkpt lat="45.802178" lon="1.321134"><ele>0</ele><time>2.8284270763397217-349.70001220703125-11.800000190734863T1.25:0:0Z</time></trkpt>
<trkpt lat="45.802219" lon="1.321214"><ele>0</ele><time>3.605551242828369-349.6000061035156-66.0T2.75:0:0Z</time></trkpt>
<trkpt lat="45.802213" lon="1.321281"><ele>0</ele><time>3.605551242828369-350.70001220703125-92.0999984741211T4.031128883361816:0:0Z</time></trkpt>
<trkpt lat="45.802213" lon="1.321347"><ele>0</ele><time>3.605551242828369-350.8999938964844-93.0999984741211T4.5:0:0Z</time></trkpt>
<trkpt lat="45.802217" lon="1.321475"><ele>0</ele><time>3.605551242828369-350.5-89.69999694824219T4.75:0:0Z</time></trkpt>
<trkpt lat="45.802221" lon="1.321544"><ele>0</ele><time>3.605551242828369-350.8999938964844-87.80000305175781T5.0:0:0Z</time></trkpt>
<trkpt lat="45.802215" lon="1.321609"><ele>0</ele><time>3.605551242828369-350.8999938964844-91.9000015258789T5.25:0:0Z</time></trkpt>
<trkpt lat="45.802224" lon="1.321685"><ele>0</ele><time>3.605551242828369-351.1000061035156-88.0T5.5:0:0Z</time></trkpt>
<trkpt lat="45.802233" lon="1.321765"><ele>0</ele><time>3.605551242828369-351.29998779296875-87.5999984741211T5.75:0:0Z</time></trkpt>
<trkpt lat="45.802254" lon="1.321847"><ele>0</ele><time>3.605551242828369-351.0-81.69999694824219T6.0:0:0Z</time></trkpt>
<trkpt lat="45.802267" lon="1.321931"><ele>0</ele><time>3.605551242828369-350.8999938964844-82.5T6.5:0:0Z</time></trkpt>
<trkpt lat="45.80228" lon="1.322017"><ele>0</ele><time>3.605551242828369-350.79998779296875-82.0999984741211T6.5:0:0Z</time></trkpt>
<trkpt lat="45.802289" lon="1.322115"><ele>0</ele><time>3.605551242828369-349.8999938964844-86.5999984741211T7.0:0:0Z</time></trkpt>
<trkpt lat="45.802289" lon="1.322206"><ele>0</ele><time>3.605551242828369-348.6000061035156-87.69999694824219T7.0:0:0Z</time></trkpt>
<trkpt lat="45.802295" lon="1.322308"><ele>0</ele><time>3.605551242828369-348.8999938964844-87.0999984741211T7.25:0:0Z</time></trkpt>
<trkpt lat="45.802313" lon="1.322408"><ele>0</ele><time>3.605551242828369-348.3999938964844-84.0T7.5:0:0Z</time></trkpt>
<trkpt lat="45.802323" lon="1.322501"><ele>0</ele><time>3.605551242828369-349.29998779296875-85.80000305175781T7.267220973968506:0:0Z</time></trkpt>
<trkpt lat="45.802316" lon="1.322594"><ele>0</ele><time>3.605551242828369-349.0-85.5999984741211T7.5:0:0Z</time></trkpt>
<trkpt lat="45.802334" lon="1.322677"><ele>0</ele><time>3.605551242828369-348.79998779296875-82.0T7.25:0:0Z</time></trkpt>
<trkpt lat="45.802347" lon="1.322767"><ele>0</ele><time>3.605551242828369-348.70001220703125-79.9000015258789T7.25:0:0Z</time></trkpt>
<trkpt lat="45.802363" lon="1.322862"><ele>0</ele><time>4.4721360206604-349.0-78.5T7.25:0:0Z</time></trkpt>
<trkpt lat="45.802378" lon="1.322961"><ele>0</ele><time>4.4721360206604-348.79998779296875-77.9000015258789T7.5:0:0Z</time></trkpt>
<trkpt lat="45.802431" lon="1.32305"><ele>0</ele><time>3.605551242828369-348.5-67.80000305175781T7.5:0:0Z</time></trkpt>
<trkpt lat="45.802454" lon="1.323149"><ele>0</ele><time>3.605551242828369-348.20001220703125-68.9000015258789T7.75:0:0Z</time></trkpt>
<trkpt lat="45.802496" lon="1.323243"><ele>0</ele><time>3.605551242828369-347.79998779296875-64.5999984741211T8.25:0:0Z</time></trkpt>
<trkpt lat="45.802528" lon="1.323335"><ele>0</ele><time>2.8284270763397217-348.20001220703125-62.599998474121094T8.0:0:0Z</time></trkpt>
<trkpt lat="45.802569" lon="1.323417"><ele>0</ele><time>2.8284270763397217-347.6000061035156-60.20000076293945T7.75:0:0Z</time></trkpt>
<trkpt lat="45.802605" lon="1.323502"><ele>0</ele><time>2.8284270763397217-347.8999938964844-58.900001525878906T7.5:0:0Z</time></trkpt>
<trkpt lat="45.802633" lon="1.323578"><ele>0</ele><time>2.8284270763397217-348.3999938964844-57.900001525878906T7.25:0:0Z</time></trkpt>
<trkpt lat="45.802667" lon="1.323655"><ele>0</ele><time>2.8284270763397217-348.3999938964844-56.29999923706055T7.25:0:0Z</time></trkpt>
<trkpt lat="45.802701" lon="1.323725"><ele>0</ele><time>3.605551242828369-348.3999938964844-55.29999923706055T7.0:0:0Z</time></trkpt>
<trkpt lat="45.802729" lon="1.323791"><ele>0</ele><time>3.605551242828369-348.5-55.5T6.75:0:0Z</time></trkpt>
<trkpt lat="45.802766" lon="1.323854"><ele>0</ele><time>3.605551242828369-348.5-52.400001525878906T6.75:0:0Z</time></trkpt>
<trkpt lat="45.802811" lon="1.323881"><ele>0</ele><time>3.605551242828369-348.5-37.599998474121094T6.0:0:0Z</time></trkpt>
<trkpt lat="45.802855" lon="1.323923"><ele>0</ele><time>3.605551242828369-348.20001220703125-29.299999237060547T5.5:0:0Z</time></trkpt>
<trkpt lat="45.8029" lon="1.323943"><ele>0</ele><time>3.605551242828369-348.0-19.799999237060547T5.0:0:0Z</time></trkpt>
<trkpt lat="45.802957" lon="1.323907"><ele>0</ele><time>3.605551242828369-346.8999938964844-345.3999938964844T3.75:0:0Z</time></trkpt>
<trkpt lat="45.802952" lon="1.323826"><ele>0</ele><time>3.605551242828369-346.6000061035156-295.5T3.25:0:0Z</time></trkpt>
<trkpt lat="45.80295" lon="1.323729"><ele>0</ele><time>3.605551242828369-344.70001220703125-286.1000061035156T3.5:0:0Z</time></trkpt>
<trkpt lat="45.803001" lon="1.323671"><ele>0</ele><time>2.8284270763397217-344.5-318.8999938964844T3.25:0:0Z</time></trkpt>
<trkpt lat="45.80306" lon="1.323595"><ele>0</ele><time>2.8284270763397217-345.5-318.3999938964844T4.0:0:0Z</time></trkpt>
<trkpt lat="45.803116" lon="1.323539"><ele>0</ele><time>2.8284270763397217-344.0-324.79998779296875T3.75:0:0Z</time></trkpt>
<trkpt lat="45.803159" lon="1.323475"><ele>0</ele><time>2.8284270763397217-345.8999938964844-318.0T3.75:0:0Z</time></trkpt>
<trkpt lat="45.803215" lon="1.323409"><ele>0</ele><time>2.8284270763397217-346.70001220703125-317.29998779296875T4.0:0:0Z</time></trkpt>
<trkpt lat="45.803275" lon="1.323328"><ele>0</ele><time>2.8284270763397217-345.3999938964844-314.5T4.5:0:0Z</time></trkpt>
<trkpt lat="45.803334" lon="1.323244"><ele>0</ele><time>2.8284270763397217-347.0-314.5T4.527692794799805:0:0Z</time></trkpt>
<trkpt lat="45.80337" lon="1.3232"><ele>0</ele><time>2.8284270763397217-347.1000061035156-315.29998779296875T4.527692794799805:0:0Z</time></trkpt>
<trkpt lat="45.803438" lon="1.323117"><ele>0</ele><time>2.8284270763397217-346.6000061035156-316.29998779296875T4.75:0:0Z</time></trkpt>
<trkpt lat="45.803498" lon="1.323029"><ele>0</ele><time>2.8284270763397217-346.1000061035156-313.6000061035156T4.75:0:0Z</time></trkpt>
<trkpt lat="45.803556" lon="1.322931"><ele>0</ele><time>2.8284270763397217-344.70001220703125-312.79998779296875T4.75:0:0Z</time></trkpt>
<trkpt lat="45.803617" lon="1.322842"><ele>0</ele><time>2.8284270763397217-344.70001220703125-310.70001220703125T4.5:0:0Z</time></trkpt>
<trkpt lat="45.803662" lon="1.322747"><ele>0</ele><time>2.8284270763397217-343.29998779296875-308.70001220703125T4.25:0:0Z</time></trkpt>
<trkpt lat="45.803716" lon="1.322655"><ele>0</ele><time>2.8284270763397217-342.5-307.6000061035156T4.25:0:0Z</time></trkpt>
<trkpt lat="45.803752" lon="1.322568"><ele>0</ele><time>3.605551242828369-342.70001220703125-303.70001220703125T4.25:0:0Z</time></trkpt>
<trkpt lat="45.803794" lon="1.322461"><ele>0</ele><time>3.605551242828369-342.79998779296875-299.70001220703125T4.75:0:0Z</time></trkpt>
<trkpt lat="45.803809" lon="1.322393"><ele>0</ele><time>4.4721360206604-343.20001220703125-299.5T3.0:0:0Z</time></trkpt>
<trkpt lat="45.803839" lon="1.322278"><ele>0</ele><time>6.324555397033691-342.79998779296875-294.0T3.75:0:0Z</time></trkpt>
<trkpt lat="45.803885" lon="1.32217"><ele>0</ele><time>6.324555397033691-342.8999938964844-293.5T4.25:0:0Z</time></trkpt>
<trkpt lat="45.803918" lon="1.322121"><ele>0</ele><time>6.324555397033691-342.70001220703125-300.5T4.25:0:0Z</time></trkpt>
<trkpt lat="45.803957" lon="1.32201"><ele>0</ele><time>6.324555397033691-342.3999938964844-301.1000061035156T4.5:0:0Z</time></trkpt>
<trkpt lat="45.803998" lon="1.321934"><ele>0</ele><time>4.4721360206604-341.20001220703125-296.70001220703125T5.2737555503845215:0:0Z</time></trkpt>
<trkpt lat="45.804036" lon="1.321874"><ele>0</ele><time>4.4721360206604-341.1000061035156-297.70001220703125T5.0:0:0Z</time></trkpt>
<trkpt lat="45.804055" lon="1.321805"><ele>0</ele><time>4.4721360206604-340.79998779296875-297.20001220703125T5.0:0:0Z</time></trkpt>
<trkpt lat="45.804084" lon="1.321743"><ele>0</ele><time>4.4721360206604-340.6000061035156-298.6000061035156T5.0:0:0Z</time></trkpt>
<trkpt lat="45.804119" lon="1.321674"><ele>0</ele><time>4.4721360206604-340.3999938964844-300.3999938964844T5.0:0:0Z</time></trkpt>
<trkpt lat="45.804195" lon="1.321564"><ele>0</ele><time>6.7082037925720215-339.29998779296875-311.8999938964844T5.5:0:0Z</time></trkpt>
<trkpt lat="45.804259" lon="1.321503"><ele>0</ele><time>6.7082037925720215-338.79998779296875-323.29998779296875T6.0:0:0Z</time></trkpt>
<trkpt lat="45.804295" lon="1.321383"><ele>0</ele><time>6.7082037925720215-338.79998779296875-309.79998779296875T5.25:0:0Z</time></trkpt>
<trkpt lat="45.804326" lon="1.321327"><ele>0</ele><time>6.7082037925720215-338.79998779296875-312.79998779296875T4.75:0:0Z</time></trkpt>
<trkpt lat="45.804394" lon="1.321231"><ele>0</ele><time>4.4721360206604-338.3999938964844-317.8999938964844T5.25:0:0Z</time></trkpt>
<trkpt lat="45.804435" lon="1.321185"><ele>0</ele><time>4.4721360206604-338.3999938964844-324.20001220703125T5.0:0:0Z</time></trkpt>
<trkpt lat="45.804473" lon="1.321147"><ele>0</ele><time>5.0-338.5-324.29998779296875T5.0:0:0Z</time></trkpt>
<trkpt lat="45.804517" lon="1.321069"><ele>0</ele><time>5.0-339.8999938964844-318.3999938964844T3.75:0:0Z</time></trkpt>
<trkpt lat="45.804566" lon="1.321013"><ele>0</ele><time>5.0-340.79998779296875-322.5T2.75:0:0Z</time></trkpt>
<trkpt lat="45.804605" lon="1.32096"><ele>0</ele><time>4.4721360206604-342.79998779296875-321.20001220703125T2.3048861026763916:0:0Z</time></trkpt>
<trkpt lat="45.80465" lon="1.320929"><ele>0</ele><time>4.4721360206604-342.3999938964844-319.79998779296875T2.75:0:0Z</time></trkpt>
<trkpt lat="45.804721" lon="1.320872"><ele>0</ele><time>3.605551242828369-343.0-315.3999938964844T3.5:0:0Z</time></trkpt>
<trkpt lat="45.804762" lon="1.320842"><ele>0</ele><time>3.605551242828369-342.70001220703125-315.6000061035156T4.0:0:0Z</time></trkpt>
<trkpt lat="45.804818" lon="1.32075"><ele>0</ele><time>3.605551242828369-343.20001220703125-311.20001220703125T4.527692794799805:0:0Z</time></trkpt>
<trkpt lat="45.804862" lon="1.320655"><ele>0</ele><time>4.4721360206604-343.6000061035156-308.3999938964844T4.25:0:0Z</time></trkpt>
<trkpt lat="45.804899" lon="1.320613"><ele>0</ele><time>4.4721360206604-344.3999938964844-312.70001220703125T4.5:0:0Z</time></trkpt>
<trkpt lat="45.804943" lon="1.320576"><ele>0</ele><time>4.4721360206604-345.0-318.0T4.5:0:0Z</time></trkpt>
<trkpt lat="45.805002" lon="1.320505"><ele>0</ele><time>4.4721360206604-345.70001220703125-319.8999938964844T4.25:0:0Z</time></trkpt>
<trkpt lat="45.80507" lon="1.320429"><ele>0</ele><time>4.4721360206604-345.8999938964844-324.20001220703125T4.25:0:0Z</time></trkpt>
<trkpt lat="45.805145" lon="1.320398"><ele>0</ele><time>4.4721360206604-343.29998779296875-329.20001220703125T5.0:0:0Z</time></trkpt>
<trkpt lat="45.805217" lon="1.320373"><ele>0</ele><time>4.242640495300293-341.70001220703125-335.20001220703125T5.5:0:0Z</time></trkpt>
<trkpt lat="45.805266" lon="1.320346"><ele>0</ele><time>4.242640495300293-341.70001220703125-340.20001220703125T5.75:0:0Z</time></trkpt>
<trkpt lat="45.80532" lon="1.320343"><ele>0</ele><time>5.0-341.5-346.79998779296875T5.5:0:0Z</time></trkpt>
<trkpt lat="45.80539" lon="1.320362"><ele>0</ele><time>5.0-340.8999938964844-358.70001220703125T6.0:0:0Z</time></trkpt>
<trkpt lat="45.80544" lon="1.320413"><ele>0</ele><time>5.656854152679443-340.29998779296875-16.399999618530273T5.75:0:0Z</time></trkpt>
<trkpt lat="45.805498" lon="1.320469"><ele>0</ele><time>7.211102485656738-339.79998779296875-24.100000381469727T5.75:0:0Z</time></trkpt>
<trkpt lat="45.805535" lon="1.320545"><ele>0</ele><time>7.211102485656738-340.1000061035156-34.599998474121094T5.75:0:0Z</time></trkpt>
<trkpt lat="45.805567" lon="1.320622"><ele>0</ele><time>7.211102485656738-340.0-45.900001525878906T5.75:0:0Z</time></trkpt>
<trkpt lat="45.805606" lon="1.320675"><ele>0</ele><time>8.485280990600586-341.20001220703125-52.599998474121094T6.0:0:0Z</time></trkpt>
<trkpt lat="45.805638" lon="1.320735"><ele>0</ele><time>8.485280990600586-341.20001220703125-52.599998474121094T5.75:0:0Z</time></trkpt>
<trkpt lat="45.805663" lon="1.320806"><ele>0</ele><time>8.485280990600586-341.5-55.29999923706055T5.75:0:0Z</time></trkpt>
<trkpt lat="45.805667" lon="1.320882"><ele>0</ele><time>8.485280990600586-341.70001220703125-66.0T5.5:0:0Z</time></trkpt>
<trkpt lat="45.805711" lon="1.321007"><ele>0</ele><time>7.211102485656738-343.20001220703125-70.0T5.75:0:0Z</time></trkpt>
<trkpt lat="45.805732" lon="1.321077"><ele>0</ele><time>7.211102485656738-345.20001220703125-70.0T5.75:0:0Z</time></trkpt>
<trkpt lat="45.80576" lon="1.321165"><ele>0</ele><time>7.211102485656738-345.0-68.9000015258789T6.0:0:0Z</time></trkpt>
<trkpt lat="45.805788" lon="1.321242"><ele>0</ele><time>7.211102485656738-345.1000061035156-67.0T6.0:0:0Z</time></trkpt>
<trkpt lat="45.805802" lon="1.321325"><ele>0</ele><time>7.211102485656738-345.70001220703125-69.30000305175781T6.25:0:0Z</time></trkpt>
<trkpt lat="45.805837" lon="1.321376"><ele>0</ele><time>7.211102485656738-346.6000061035156-62.099998474121094T6.0:0:0Z</time></trkpt>
<trkpt lat="45.805844" lon="1.321448"><ele>0</ele><time>7.211102485656738-346.70001220703125-68.5999984741211T6.269968032836914:0:0Z</time></trkpt>
<trkpt lat="45.80586" lon="1.321524"><ele>0</ele><time>5.0-346.70001220703125-70.0999984741211T6.25:0:0Z</time></trkpt>
<trkpt lat="45.805885" lon="1.321593"><ele>0</ele><time>5.0-347.6000061035156-66.5999984741211T5.5:0:0Z</time></trkpt>
<trkpt lat="45.805914" lon="1.321656"><ele>0</ele><time>5.0-347.8999938964844-61.400001525878906T5.75:0:0Z</time></trkpt>
<trkpt lat="45.805937" lon="1.321727"><ele>0</ele><time>5.0-347.5-63.099998474121094T5.5:0:0Z</time></trkpt>
<trkpt lat="45.805962" lon="1.321804"><ele>0</ele><time>5.0-348.3999938964844-66.9000015258789T5.75:0:0Z</time></trkpt>
<trkpt lat="45.805983" lon="1.321894"><ele>0</ele><time>5.0-349.20001220703125-70.4000015258789T6.25:0:0Z</time></trkpt>
<trkpt lat="45.806011" lon="1.32196"><ele>0</ele><time>5.0-349.8999938964844-62.400001525878906T6.0:0:0Z</time></trkpt>
<trkpt lat="45.80603" lon="1.322021"><ele>0</ele><time>5.0-350.29998779296875-63.599998474121094T5.5:0:0Z</time></trkpt>
<trkpt lat="45.806051" lon="1.322093"><ele>0</ele><time>5.0-351.8999938964844-61.29999923706055T6.082762718200684:0:0Z</time></trkpt>
<trkpt lat="45.806083" lon="1.322204"><ele>0</ele><time>4.242640495300293-352.29998779296875-53.0T4.75:0:0Z</time></trkpt>
<trkpt lat="45.806112" lon="1.322297"><ele>0</ele><time>5.0-352.0-53.79999923706055T3.75:0:0Z</time></trkpt>
<trkpt lat="45.806154" lon="1.322341"><ele>0</ele><time>5.0-352.5-44.599998474121094T4.25:0:0Z</time></trkpt>
<trkpt lat="45.806196" lon="1.322372"><ele>0</ele><time>5.0-352.70001220703125-32.5T4.5:0:0Z</time></trkpt>
<trkpt lat="45.806255" lon="1.322418"><ele>0</ele><time>5.656854152679443-353.70001220703125-25.299999237060547T5.5:0:0Z</time></trkpt>
<trkpt lat="45.806317" lon="1.322449"><ele>0</ele><time>5.656854152679443-354.8999938964844-20.600000381469727T6.0:0:0Z</time></trkpt>
<trkpt lat="45.806365" lon="1.32242"><ele>0</ele><time>5.0-357.1000061035156-4.599999904632568T5.024937629699707:0:0Z</time></trkpt>
<trkpt lat="45.806421" lon="1.32242"><ele>0</ele><time>5.0-357.20001220703125-359.29998779296875T5.2737555503845215:0:0Z</time></trkpt>
<trkpt lat="45.806481" lon="1.322416"><ele>0</ele><time>5.656854152679443-357.0-356.79998779296875T5.75:0:0Z</time></trkpt>
<trkpt lat="45.806532" lon="1.322395"><ele>0</ele><time>7.211102485656738-357.0-351.3999938964844T5.75:0:0Z</time></trkpt>
<trkpt lat="45.80658" lon="1.322372"><ele>0</ele><time>7.211102485656738-356.8999938964844-348.5T5.5:0:0Z</time></trkpt>
<trkpt lat="45.806623" lon="1.322342"><ele>0</ele><time>8.485280990600586-356.70001220703125-344.5T5.0:0:0Z</time></trkpt>
<trkpt lat="45.806675" lon="1.32232"><ele>0</ele><time>8.485280990600586-356.6000061035156-339.79998779296875T5.0:0:0Z</time></trkpt>
<trkpt lat="45.806729" lon="1.322292"><ele>0</ele><time>10.0-356.6000061035156-339.20001220703125T5.5:0:0Z</time></trkpt>
<trkpt lat="45.806782" lon="1.32223"><ele>0</ele><time>8.485280990600586-356.8999938964844-335.0T5.75:0:0Z</time></trkpt>
<trkpt lat="45.806818" lon="1.32219"><ele>0</ele><time>8.485280990600586-356.5-331.79998779296875T5.25:0:0Z</time></trkpt>
<trkpt lat="45.806875" lon="1.322169"><ele>0</ele><time>7.211102485656738-357.0-335.1000061035156T4.75:0:0Z</time></trkpt>
<trkpt lat="45.806933" lon="1.322133"><ele>0</ele><time>7.211102485656738-356.3999938964844-333.29998779296875T5.5:0:0Z</time></trkpt>
<trkpt lat="45.806979" lon="1.322101"><ele>0</ele><time>7.211102485656738-356.70001220703125-331.20001220703125T5.5:0:0Z</time></trkpt>
<trkpt lat="45.807059" lon="1.322032"><ele>0</ele><time>6.7082037925720215-353.8999938964844-329.8999938964844T6.0:0:0Z</time></trkpt>
<trkpt lat="45.807088" lon="1.321961"><ele>0</ele><time>5.0-352.6000061035156-319.79998779296875T6.0:0:0Z</time></trkpt>
<trkpt lat="45.807123" lon="1.321892"><ele>0</ele><time>6.7082037925720215-352.3999938964844-318.20001220703125T6.0:0:0Z</time></trkpt>
<trkpt lat="45.807168" lon="1.321851"><ele>0</ele><time>7.211102485656738-352.6000061035156-326.29998779296875T5.5:0:0Z</time></trkpt>
<trkpt lat="45.807239" lon="1.32179"><ele>0</ele><time>7.211102485656738-352.3999938964844-329.5T4.75:0:0Z</time></trkpt>
<trkpt lat="45.807269" lon="1.321695"><ele>0</ele><time>6.7082037925720215-352.70001220703125-314.79998779296875T4.0:0:0Z</time></trkpt>
<trkpt lat="45.807331" lon="1.321687"><ele>0</ele><time>6.7082037925720215-352.5-328.79998779296875T3.25:0:0Z</time></trkpt>
<trkpt lat="45.807396" lon="1.321689"><ele>0</ele><time>6.7082037925720215-351.0-337.3999938964844T3.5:0:0Z</time></trkpt>
<trkpt lat="45.807455" lon="1.321623"><ele>0</ele><time>5.0-350.70001220703125-327.79998779296875T3.25:0:0Z</time></trkpt>
<trkpt lat="45.807481" lon="1.321568"><ele>0</ele><time>5.0-352.29998779296875-315.8999938964844T3.783186435699463:0:0Z</time></trkpt>
<trkpt lat="45.807533" lon="1.321508"><ele>0</ele><time>4.242640495300293-353.5-324.1000061035156T3.288236618041992:0:0Z</time></trkpt>
<trkpt lat="45.807586" lon="1.321496"><ele>0</ele><time>3.605551242828369-351.1000061035156-340.0T2.0615527629852295:0:0Z</time></trkpt>
<trkpt lat="45.807632" lon="1.321465"><ele>0</ele><time>4.242640495300293-351.6000061035156-334.1000061035156T2.25:0:0Z</time></trkpt>
<trkpt lat="45.807674" lon="1.321434"><ele>0</ele><time>5.0-352.6000061035156-334.20001220703125T3.0:0:0Z</time></trkpt>
<trkpt lat="45.807725" lon="1.321395"><ele>0</ele><time>5.0-353.70001220703125-336.79998779296875T2.5:0:0Z</time></trkpt>
<trkpt lat="45.807774" lon="1.321351"><ele>0</ele><time>5.0-354.3999938964844-337.20001220703125T2.5:0:0Z</time></trkpt>
<trkpt lat="45.807829" lon="1.321315"><ele>0</ele><time>5.0-356.3999938964844-338.0T2.25:0:0Z</time></trkpt>
<trkpt lat="45.80791" lon="1.321302"><ele>0</ele><time>5.0-354.6000061035156-352.70001220703125T2.5:0:0Z</time></trkpt>
<trkpt lat="45.807978" lon="1.321252"><ele>0</ele><time>4.4721360206604-352.79998779296875-328.8999938964844T2.7950849533081055:0:0Z</time></trkpt>
<trkpt lat="45.808017" lon="1.321199"><ele>0</ele><time>3.605551242828369-351.70001220703125-316.3999938964844T2.25:0:0Z</time></trkpt>
<trkpt lat="45.808047" lon="1.321137"><ele>0</ele><time>4.4721360206604-352.5-309.0T2.5:0:0Z</time></trkpt>
<trkpt lat="45.808093" lon="1.321066"><ele>0</ele><time>4.4721360206604-353.79998779296875-319.6000061035156T2.0:0:0Z</time></trkpt>
<trkpt lat="45.808165" lon="1.321053"><ele>0</ele><time>3.605551242828369-354.20001220703125-355.70001220703125T1.75:0:0Z</time></trkpt>
<trkpt lat="45.808226" lon="1.321115"><ele>0</ele><time>3.605551242828369-356.20001220703125-66.0999984741211T1.5811388492584229:0:0Z</time></trkpt>
<trkpt lat="45.808265" lon="1.321185"><ele>0</ele><time>3.605551242828369-353.3999938964844-63.099998474121094T2.0:0:0Z</time></trkpt>
<trkpt lat="45.808288" lon="1.321253"><ele>0</ele><time>4.4721360206604-352.29998779296875-66.30000305175781T1.25:0:0Z</time></trkpt>
<trkpt lat="45.808302" lon="1.321315"><ele>0</ele><time>4.4721360206604-356.6000061035156-64.0T1.4142135381698608:0:0Z</time></trkpt>
<trkpt lat="45.808343" lon="1.321347"><ele>0</ele><time>4.4721360206604-355.8999938964844-21.0T1.0:0:0Z</time></trkpt>
<trkpt lat="45.80839" lon="1.321334"><ele>0</ele><time>3.605551242828369-355.70001220703125-345.70001220703125T1.25:0:0Z</time></trkpt>
<trkpt lat="45.808438" lon="1.321306"><ele>0</ele><time>3.605551242828369-356.29998779296875-331.79998779296875T1.0:0:0Z</time></trkpt>
<trkpt lat="45.808479" lon="1.321272"><ele>0</ele><time>3.605551242828369-358.29998779296875-328.5T1.25:0:0Z</time></trkpt>
<trkpt lat="45.808528" lon="1.321242"><ele>0</ele><time>4.4721360206604-358.8999938964844-331.1000061035156T1.25:0:0Z</time></trkpt>
<trkpt lat="45.80858" lon="1.321214"><ele>0</ele><time>4.4721360206604-359.8999938964844-349.20001220703125T1.25:0:0Z</time></trkpt>
<trkpt lat="45.808638" lon="1.321199"><ele>0</ele><time>4.4721360206604-360.8999938964844-344.8999938964844T2.0:0:0Z</time></trkpt>
<trkpt lat="45.8087" lon="1.321177"><ele>0</ele><time>5.0-361.6000061035156-346.5T1.5:0:0Z</time></trkpt>
<trkpt lat="45.808745" lon="1.321142"><ele>0</ele><time>5.0-362.1000061035156-348.20001220703125T1.5:0:0Z</time></trkpt>
<trkpt lat="45.8088" lon="1.321117"><ele>0</ele><time>5.0-360.8999938964844-349.5T2.0:0:0Z</time></trkpt>
<trkpt lat="45.808847" lon="1.321145"><ele>0</ele><time>5.0-362.79998779296875-1.7000000476837158T2.0:0:0Z</time></trkpt>
<trkpt lat="45.80891" lon="1.321172"><ele>0</ele><time>5.0-365.79998779296875-15.0T1.5811388492584229:0:0Z</time></trkpt>
<trkpt lat="45.808954" lon="1.321197"><ele>0</ele><time>5.0-366.0-36.5T1.5:0:0Z</time></trkpt>
<trkpt lat="45.808992" lon="1.321296"><ele>0</ele><time>3.605551242828369-365.6000061035156-63.29999923706055T2.0:0:0Z</time></trkpt>
<trkpt lat="45.809009" lon="1.321375"><ele>0</ele><time>4.4721360206604-365.3999938964844-71.4000015258789T2.0:0:0Z</time></trkpt>
<trkpt lat="45.80906" lon="1.321443"><ele>0</ele><time>3.605551242828369-368.20001220703125-66.19999694824219T2.0:0:0Z</time></trkpt>
<trkpt lat="45.809095" lon="1.321515"><ele>0</ele><time>3.605551242828369-370.1000061035156-65.5T2.25:0:0Z</time></trkpt>
<trkpt lat="45.809113" lon="1.321574"><ele>0</ele><time>3.605551242828369-371.79998779296875-68.5999984741211T1.820027470588684:0:0Z</time></trkpt>
<trkpt lat="45.809144" lon="1.321636"><ele>0</ele><time>3.605551242828369-373.3999938964844-64.19999694824219T2.0615527629852295:0:0Z</time></trkpt>
<trkpt lat="45.809158" lon="1.321703"><ele>0</ele><time>3.605551242828369-372.79998779296875-70.30000305175781T2.25:0:0Z</time></trkpt>
<trkpt lat="45.809181" lon="1.321773"><ele>0</ele><time>3.605551242828369-371.6000061035156-66.0T2.5:0:0Z</time></trkpt>
<trkpt lat="45.809206" lon="1.321838"><ele>0</ele><time>2.8284270763397217-372.5-60.70000076293945T2.5:0:0Z</time></trkpt>
<trkpt lat="45.809242" lon="1.321904"><ele>0</ele><time>2.8284270763397217-372.70001220703125-50.5T2.25:0:0Z</time></trkpt>
<trkpt lat="45.809274" lon="1.321972"><ele>0</ele><time>2.8284270763397217-373.0-48.099998474121094T2.0:0:0Z</time></trkpt>
<trkpt lat="45.809314" lon="1.32201"><ele>0</ele><time>2.8284270763397217-372.29998779296875-29.5T2.7950849533081055:0:0Z</time></trkpt>
<trkpt lat="45.809358" lon="1.322039"><ele>0</ele><time>2.8284270763397217-371.8999938964844-23.299999237060547T2.75:0:0Z</time></trkpt>
<trkpt lat="45.809411" lon="1.322071"><ele>0</ele><time>2.8284270763397217-372.0-18.899999618530273T3.0:0:0Z</time></trkpt>
<trkpt lat="45.809474" lon="1.322097"><ele>0</ele><time>3.605551242828369-372.20001220703125-13.899999618530273T3.25:0:0Z</time></trkpt>
<trkpt lat="45.809537" lon="1.322127"><ele>0</ele><time>2.8284270763397217-374.20001220703125-13.899999618530273T2.75:0:0Z</time></trkpt>
<trkpt lat="45.809594" lon="1.322149"><ele>0</ele><time>2.8284270763397217-375.0-13.600000381469727T3.25:0:0Z</time></trkpt>
<trkpt lat="45.809654" lon="1.322179"><ele>0</ele><time>2.8284270763397217-375.29998779296875-13.800000190734863T3.5:0:0Z</time></trkpt>
<trkpt lat="45.809717" lon="1.322196"><ele>0</ele><time>3.605551242828369-375.5-11.300000190734863T3.5:0:0Z</time></trkpt>
<trkpt lat="45.809764" lon="1.322194"><ele>0</ele><time>5.0-375.3999938964844-5.5T4.0:0:0Z</time></trkpt>
<trkpt lat="45.809888" lon="1.322208"><ele>0</ele><time>4.242640495300293-374.29998779296875-3.9000000953674316T6.020797252655029:0:0Z</time></trkpt>
<trkpt lat="45.809933" lon="1.322212"><ele>0</ele><time>3.605551242828369-373.0-4.099999904632568T6.020797252655029:0:0Z</time></trkpt>
<trkpt lat="45.809979" lon="1.322205"><ele>0</ele><time>3.605551242828369-372.20001220703125-0.5T6.269968032836914:0:0Z</time></trkpt>
<trkpt lat="45.810027" lon="1.322202"><ele>0</ele><time>4.4721360206604-371.70001220703125-0.4000000059604645T6.25:0:0Z</time></trkpt>
<trkpt lat="45.81008" lon="1.322203"><ele>0</ele><time>4.4721360206604-371.5-1.100000023841858T6.25:0:0Z</time></trkpt>
<trkpt lat="45.810126" lon="1.322205"><ele>0</ele><time>6.7082037925720215-371.1000061035156-1.5T6.0:0:0Z</time></trkpt>
<trkpt lat="45.810178" lon="1.322206"><ele>0</ele><time>6.7082037925720215-370.8999938964844-1.100000023841858T6.0:0:0Z</time></trkpt>
<trkpt lat="45.810223" lon="1.322201"><ele>0</ele><time>6.7082037925720215-370.6000061035156-0.10000000149011612T5.75:0:0Z</time></trkpt>
<trkpt lat="45.810271" lon="1.322202"><ele>0</ele><time>4.4721360206604-369.8999938964844-5.099999904632568T5.5:0:0Z</time></trkpt>
<trkpt lat="45.810317" lon="1.322228"><ele>0</ele><time>4.4721360206604-370.1000061035156-14.699999809265137T5.25:0:0Z</time></trkpt>
<trkpt lat="45.810361" lon="1.322244"><ele>0</ele><time>4.4721360206604-370.20001220703125-15.699999809265137T5.0:0:0Z</time></trkpt>
<trkpt lat="45.810438" lon="1.32225"><ele>0</ele><time>5.0-369.8999938964844-17.5T4.75:0:0Z</time></trkpt>
<trkpt lat="45.810517" lon="1.322293"><ele>0</ele><time>5.0-370.70001220703125-17.899999618530273T4.75:0:0Z</time></trkpt>
<trkpt lat="45.810558" lon="1.322332"><ele>0</ele><time>4.242640495300293-371.20001220703125-14.699999809265137T4.75:0:0Z</time></trkpt>
<trkpt lat="45.810635" lon="1.322369"><ele>0</ele><time>4.242640495300293-372.1000061035156-15.899999618530273T4.75:0:0Z</time></trkpt>
<trkpt lat="45.810713" lon="1.322385"><ele>0</ele><time>5.0-372.5-13.800000190734863T4.75:0:0Z</time></trkpt>
<trkpt lat="45.810802" lon="1.322413"><ele>0</ele><time>5.656854152679443-372.5-12.800000190734863T4.75:0:0Z</time></trkpt>
<trkpt lat="45.810868" lon="1.322475"><ele>0</ele><time>3.605551242828369-369.3999938964844-17.299999237060547T4.527692794799805:0:0Z</time></trkpt>
<trkpt lat="45.810945" lon="1.322538"><ele>0</ele><time>3.605551242828369-367.79998779296875-26.700000762939453T4.5:0:0Z</time></trkpt>
<trkpt lat="45.810984" lon="1.322574"><ele>0</ele><time>3.605551242828369-367.20001220703125-31.100000381469727T4.75:0:0Z</time></trkpt>
<trkpt lat="45.811036" lon="1.322615"><ele>0</ele><time>3.605551242828369-367.0-32.20000076293945T5.0:0:0Z</time></trkpt>
<trkpt lat="45.811099" lon="1.322693"><ele>0</ele><time>3.605551242828369-367.3999938964844-38.900001525878906T4.75:0:0Z</time></trkpt>
<trkpt lat="45.811131" lon="1.322738"><ele>0</ele><time>3.605551242828369-367.6000061035156-39.900001525878906T4.75:0:0Z</time></trkpt>
<trkpt lat="45.81117" lon="1.322777"><ele>0</ele><time>3.605551242828369-367.6000061035156-39.29999923706055T4.75:0:0Z</time></trkpt>
<trkpt lat="45.811232" lon="1.322861"><ele>0</ele><time>3.605551242828369-367.79998779296875-43.5T4.75:0:0Z</time></trkpt>
<trkpt lat="45.811269" lon="1.322907"><ele>0</ele><time>3.605551242828369-368.79998779296875-43.5T4.75:0:0Z</time></trkpt>
<trkpt lat="45.811317" lon="1.32298"><ele>0</ele><time>3.605551242828369-369.0-41.599998474121094T4.25:0:0Z</time></trkpt>
<trkpt lat="45.811374" lon="1.323042"><ele>0</ele><time>3.605551242828369-368.5-37.70000076293945T3.75:0:0Z</time></trkpt>
<trkpt lat="45.811411" lon="1.323096"><ele>0</ele><time>2.8284270763397217-369.0-44.0T3.0:0:0Z</time></trkpt>
<trkpt lat="45.811444" lon="1.32315"><ele>0</ele><time>3.605551242828369-369.1000061035156-46.599998474121094T3.0:0:0Z</time></trkpt>
<trkpt lat="45.811482" lon="1.323234"><ele>0</ele><time>3.605551242828369-368.79998779296875-57.099998474121094T3.5:0:0Z</time></trkpt>
<trkpt lat="45.811508" lon="1.323314"><ele>0</ele><time>3.605551242828369-369.20001220703125-58.5T3.25:0:0Z</time></trkpt>
<trkpt lat="45.81153" lon="1.323397"><ele>0</ele><time>3.605551242828369-369.3999938964844-70.0999984741211T3.0:0:0Z</time></trkpt>
<trkpt lat="45.811517" lon="1.32349"><ele>0</ele><time>2.8284270763397217-370.6000061035156-92.0999984741211T3.041381359100342:0:0Z</time></trkpt>
<trkpt lat="45.81152" lon="1.323558"><ele>0</ele><time>2.8284270763397217-371.0-92.0T2.5:0:0Z</time></trkpt>
<trkpt lat="45.811513" lon="1.323628"><ele>0</ele><time>3.605551242828369-372.0-98.0T2.5:0:0Z</time></trkpt>
<trkpt lat="45.811522" lon="1.323693"><ele>0</ele><time>3.605551242828369-371.8999938964844-84.0999984741211T2.5:0:0Z</time></trkpt>
<trkpt lat="45.811559" lon="1.323745"><ele>0</ele><time>3.605551242828369-372.70001220703125-59.29999923706055T1.75:0:0Z</time></trkpt>
<trkpt lat="45.811569" lon="1.32381"><ele>0</ele><time>2.8284270763397217-373.0-86.69999694824219T2.0:0:0Z</time></trkpt>
<trkpt lat="45.811548" lon="1.323906"><ele>0</ele><time>2.8284270763397217-375.1000061035156-99.5999984741211T2.25:0:0Z</time></trkpt>
<trkpt lat="45.811525" lon="1.323994"><ele>0</ele><time>2.8284270763397217-375.6000061035156-109.30000305175781T2.25:0:0Z</time></trkpt>
<trkpt lat="45.811497" lon="1.324077"><ele>0</ele><time>2.8284270763397217-374.8999938964844-110.5T2.25:0:0Z</time></trkpt>
<trkpt lat="45.811474" lon="1.324144"><ele>0</ele><time>2.8284270763397217-373.5-106.9000015258789T1.5:0:0Z</time></trkpt>
<trkpt lat="45.811467" lon="1.32422"><ele>0</ele><time>2.8284270763397217-370.8999938964844-96.19999694824219T1.25:0:0Z</time></trkpt>
<trkpt lat="45.811495" lon="1.324275"><ele>0</ele><time>2.8284270763397217-371.1000061035156-40.0T2.0615527629852295:0:0Z</time></trkpt>
<trkpt lat="45.811558" lon="1.32431"><ele>0</ele><time>3.605551242828369-370.79998779296875-19.0T3.0:0:0Z</time></trkpt>
<trkpt lat="45.811607" lon="1.324325"><ele>0</ele><time>2.8284270763397217-371.6000061035156-12.800000190734863T3.75:0:0Z</time></trkpt>
<trkpt lat="45.811681" lon="1.324301"><ele>0</ele><time>2.8284270763397217-371.8999938964844-344.79998779296875T3.75:0:0Z</time></trkpt>
<trkpt lat="45.811742" lon="1.324237"><ele>0</ele><time>3.605551242828369-372.1000061035156-327.1000061035156T4.25:0:0Z</time></trkpt>
<trkpt lat="45.811781" lon="1.324195"><ele>0</ele><time>3.605551242828369-372.29998779296875-323.8999938964844T4.75:0:0Z</time></trkpt>
<trkpt lat="45.811823" lon="1.324155"><ele>0</ele><time>3.605551242828369-372.6000061035156-324.70001220703125T5.0:0:0Z</time></trkpt>
<trkpt lat="45.811897" lon="1.324133"><ele>0</ele><time>2.8284270763397217-373.3999938964844-336.29998779296875T5.75:0:0Z</time></trkpt>
<trkpt lat="45.811953" lon="1.324108"><ele>0</ele><time>2.8284270763397217-373.79998779296875-336.8999938964844T5.75:0:0Z</time></trkpt>
<trkpt lat="45.812011" lon="1.324062"><ele>0</ele><time>2.8284270763397217-373.0-330.29998779296875T7.071067810058594:0:0Z</time></trkpt>
<trkpt lat="45.812066" lon="1.324022"><ele>0</ele><time>2.8284270763397217-373.79998779296875-332.0T6.269968032836914:0:0Z</time></trkpt>
<trkpt lat="45.812116" lon="1.323977"><ele>0</ele><time>2.8284270763397217-374.29998779296875-328.6000061035156T6.768493175506592:0:0Z</time></trkpt>
<trkpt lat="45.812169" lon="1.323938"><ele>0</ele><time>2.8284270763397217-374.29998779296875-331.29998779296875T6.5:0:0Z</time></trkpt>
<trkpt lat="45.812213" lon="1.3239"><ele>0</ele><time>2.8284270763397217-374.5-329.6000061035156T6.25:0:0Z</time></trkpt>
<trkpt lat="45.812271" lon="1.323858"><ele>0</ele><time>2.8284270763397217-374.8999938964844-333.1000061035156T6.5:0:0Z</time></trkpt>
<trkpt lat="45.812323" lon="1.323825"><ele>0</ele><time>2.8284270763397217-375.29998779296875-335.29998779296875T6.5:0:0Z</time></trkpt>
<trkpt lat="45.812389" lon="1.323837"><ele>0</ele><time>2.8284270763397217-375.0-351.70001220703125T6.5:0:0Z</time></trkpt>
<trkpt lat="45.812443" lon="1.323824"><ele>0</ele><time>2.8284270763397217-375.1000061035156-350.8999938964844T6.5:0:0Z</time></trkpt>
<trkpt lat="45.812501" lon="1.32381"><ele>0</ele><time>3.605551242828369-375.0-351.20001220703125T6.5:0:0Z</time></trkpt>
<trkpt lat="45.812562" lon="1.32378"><ele>0</ele><time>3.605551242828369-374.8999938964844-345.5T6.75:0:0Z</time></trkpt>
<trkpt lat="45.812624" lon="1.323759"><ele>0</ele><time>3.605551242828369-374.8999938964844-345.70001220703125T6.75:0:0Z</time></trkpt>
<trkpt lat="45.812683" lon="1.323731"><ele>0</ele><time>4.4721360206604-375.5-344.79998779296875T6.75:0:0Z</time></trkpt>
<trkpt lat="45.812731" lon="1.323705"><ele>0</ele><time>6.324555397033691-375.70001220703125-343.29998779296875T6.5:0:0Z</time></trkpt>
<trkpt lat="45.812787" lon="1.323675"><ele>0</ele><time>6.324555397033691-375.79998779296875-341.79998779296875T6.5:0:0Z</time></trkpt>
<trkpt lat="45.812835" lon="1.323627"><ele>0</ele><time>6.7082037925720215-375.6000061035156-339.3999938964844T6.25:0:0Z</time></trkpt>
<trkpt lat="45.812883" lon="1.323558"><ele>0</ele><time>3.605551242828369-375.29998779296875-338.0T6.25:0:0Z</time></trkpt>
<trkpt lat="45.81294" lon="1.323524"><ele>0</ele><time>3.605551242828369-375.3999938964844-337.29998779296875T6.25:0:0Z</time></trkpt>
<trkpt lat="45.812994" lon="1.323476"><ele>0</ele><time>3.605551242828369-374.70001220703125-334.20001220703125T6.5:0:0Z</time></trkpt>
<trkpt lat="45.813051" lon="1.323442"><ele>0</ele><time>3.605551242828369-375.1000061035156-333.29998779296875T6.75:0:0Z</time></trkpt>
<trkpt lat="45.813107" lon="1.323394"><ele>0</ele><time>2.8284270763397217-374.0-331.79998779296875T6.75:0:0Z</time></trkpt>
<trkpt lat="45.813155" lon="1.323368"><ele>0</ele><time>2.8284270763397217-374.3999938964844-334.70001220703125T6.0:0:0Z</time></trkpt>
<trkpt lat="45.813215" lon="1.32332"><ele>0</ele><time>3.605551242828369-373.70001220703125-337.70001220703125T4.25:0:0Z</time></trkpt>
<trkpt lat="45.813279" lon="1.323295"><ele>0</ele><time>3.605551242828369-376.20001220703125-351.1000061035156T2.462214469909668:0:0Z</time></trkpt>
<trkpt lat="45.813318" lon="1.323331"><ele>0</ele><time>3.605551242828369-374.3999938964844-70.80000305175781T1.5:0:0Z</time></trkpt>
<trkpt lat="45.813332" lon="1.323427"><ele>0</ele><time>2.8284270763397217-374.1000061035156-72.5999984741211T2.5:0:0Z</time></trkpt>
<trkpt lat="45.813354" lon="1.323494"><ele>0</ele><time>2.8284270763397217-373.5-67.5999984741211T2.75:0:0Z</time></trkpt>
<trkpt lat="45.813379" lon="1.323566"><ele>0</ele><time>2.8284270763397217-373.1000061035156-64.0T3.0:0:0Z</time></trkpt>
<trkpt lat="45.813391" lon="1.323636"><ele>0</ele><time>2.8284270763397217-372.8999938964844-71.0T2.75:0:0Z</time></trkpt>
<trkpt lat="45.813381" lon="1.323713"><ele>0</ele><time>3.605551242828369-372.70001220703125-94.0999984741211T3.25:0:0Z</time></trkpt>
<trkpt lat="45.813352" lon="1.323788"><ele>0</ele><time>3.605551242828369-374.0-107.19999694824219T3.5:0:0Z</time></trkpt>
<trkpt lat="45.813345" lon="1.323881"><ele>0</ele><time>3.605551242828369-374.70001220703125-104.0999984741211T3.5:0:0Z</time></trkpt>
<trkpt lat="45.813338" lon="1.323964"><ele>0</ele><time>3.605551242828369-374.79998779296875-99.0999984741211T3.5:0:0Z</time></trkpt>
<trkpt lat="45.813321" lon="1.324059"><ele>0</ele><time>4.4721360206604-375.29998779296875-102.5999984741211T3.5:0:0Z</time></trkpt>
<trkpt lat="45.813296" lon="1.324133"><ele>0</ele><time>4.4721360206604-376.29998779296875-108.19999694824219T3.25:0:0Z</time></trkpt>
<trkpt lat="45.81327" lon="1.32421"><ele>0</ele><time>3.605551242828369-376.79998779296875-109.9000015258789T3.041381359100342:0:0Z</time></trkpt>
<trkpt lat="45.81325" lon="1.324272"><ele>0</ele><time>3.605551242828369-377.70001220703125-109.5999984741211T2.5495097637176514:0:0Z</time></trkpt>
<trkpt lat="45.813294" lon="1.324294"><ele>0</ele><time>3.605551242828369-372.70001220703125-41.20000076293945T3.9051249027252197:0:0Z</time></trkpt>
<trkpt lat="45.813343" lon="1.324323"><ele>0</ele><time>3.605551242828369-369.8999938964844-17.600000381469727T3.3541018962860107:0:0Z</time></trkpt>
<trkpt lat="45.813413" lon="1.324311"><ele>0</ele><time>4.4721360206604-369.8999938964844-357.29998779296875T3.783186435699463:0:0Z</time></trkpt>
<trkpt lat="45.813479" lon="1.324264"><ele>0</ele><time>4.4721360206604-370.1000061035156-343.0T3.75:0:0Z</time></trkpt>
<trkpt lat="45.813527" lon="1.324213"><ele>0</ele><time>4.4721360206604-369.79998779296875-334.5T3.25:0:0Z</time></trkpt>
<trkpt lat="45.813609" lon="1.324174"><ele>0</ele><time>6.324555397033691-369.8999938964844-336.20001220703125T3.75:0:0Z</time></trkpt>
<trkpt lat="45.81365" lon="1.324135"><ele>0</ele><time>4.4721360206604-370.6000061035156-329.29998779296875T4.0:0:0Z</time></trkpt>
<trkpt lat="45.813728" lon="1.324084"><ele>0</ele><time>3.605551242828369-371.5-329.0T4.25:0:0Z</time></trkpt>
<trkpt lat="45.813791" lon="1.324022"><ele>0</ele><time>3.605551242828369-372.8999938964844-325.8999938964844T4.5:0:0Z</time></trkpt>
<trkpt lat="45.813831" lon="1.32397"><ele>0</ele><time>3.605551242828369-374.3999938964844-323.6000061035156T5.25:0:0Z</time></trkpt>
<trkpt lat="45.813876" lon="1.323925"><ele>0</ele><time>3.605551242828369-374.6000061035156-324.3999938964844T5.5:0:0Z</time></trkpt>
<trkpt lat="45.813926" lon="1.323887"><ele>0</ele><time>3.605551242828369-374.5-327.8999938964844T5.5:0:0Z</time></trkpt>
<trkpt lat="45.813973" lon="1.323888"><ele>0</ele><time>3.605551242828369-374.70001220703125-349.5T5.0:0:0Z</time></trkpt>
<trkpt lat="45.814021" lon="1.32389"><ele>0</ele><time>3.605551242828369-374.79998779296875-357.70001220703125T5.0:0:0Z</time></trkpt>
<trkpt lat="45.8141" lon="1.323874"><ele>0</ele><time>3.605551242828369-376.8999938964844-357.5T4.776243209838867:0:0Z</time></trkpt>
<trkpt lat="45.814178" lon="1.32388"><ele>0</ele><time>3.605551242828369-377.6000061035156-1.5T4.279310703277588:0:0Z</time></trkpt>
<trkpt lat="45.814255" lon="1.323899"><ele>0</ele><time>3.605551242828369-377.20001220703125-5.199999809265137T4.0:0:0Z</time></trkpt>
<trkpt lat="45.814311" lon="1.323913"><ele>0</ele><time>3.605551242828369-378.20001220703125-8.600000381469727T3.5:0:0Z</time></trkpt>
<trkpt lat="45.814364" lon="1.323937"><ele>0</ele><time>3.605551242828369-378.5-11.800000190734863T3.25:0:0Z</time></trkpt>
<trkpt lat="45.814425" lon="1.323956"><ele>0</ele><time>3.605551242828369-378.0-10.800000190734863T3.25:0:0Z</time></trkpt>
<trkpt lat="45.814476" lon="1.323953"><ele>0</ele><time>3.605551242828369-378.70001220703125-3.4000000953674316T3.0:0:0Z</time></trkpt>
<trkpt lat="45.814545" lon="1.323954"><ele>0</ele><time>3.605551242828369-378.5-1.100000023841858T3.5:0:0Z</time></trkpt>
<trkpt lat="45.814608" lon="1.323943"><ele>0</ele><time>3.605551242828369-380.0-355.3999938964844T3.288236618041992:0:0Z</time></trkpt>
<trkpt lat="45.814675" lon="1.323949"><ele>0</ele><time>3.605551242828369-378.79998779296875-353.79998779296875T3.8810436725616455:0:0Z</time></trkpt>
<trkpt lat="45.814728" lon="1.323952"><ele>0</ele><time>3.605551242828369-379.3999938964844-354.29998779296875T4.123105525970459:0:0Z</time></trkpt>
<trkpt lat="45.814813" lon="1.323946"><ele>0</ele><time>2.8284270763397217-379.20001220703125-356.29998779296875T4.279310703277588:0:0Z</time></trkpt>
<trkpt lat="45.814894" lon="1.323941"><ele>0</ele><time>3.605551242828369-379.20001220703125-356.8999938964844T4.25:0:0Z</time></trkpt>
<trkpt lat="45.81494" lon="1.323949"><ele>0</ele><time>3.605551242828369-378.6000061035156-359.3999938964844T4.5:0:0Z</time></trkpt>
<trkpt lat="45.814994" lon="1.323948"><ele>0</ele><time>3.605551242828369-377.29998779296875-352.3999938964844T4.75:0:0Z</time></trkpt>
<trkpt lat="45.815041" lon="1.323935"><ele>0</ele><time>3.605551242828369-377.0-350.8999938964844T5.0:0:0Z</time></trkpt>
<trkpt lat="45.815091" lon="1.323929"><ele>0</ele><time>3.605551242828369-377.3999938964844-353.3999938964844T5.25:0:0Z</time></trkpt>
<trkpt lat="45.815145" lon="1.323921"><ele>0</ele><time>3.605551242828369-377.1000061035156-351.0T5.5:0:0Z</time></trkpt>
<trkpt lat="45.815189" lon="1.3239"><ele>0</ele><time>3.605551242828369-376.70001220703125-347.6000061035156T5.25:0:0Z</time></trkpt>
<trkpt lat="45.815265" lon="1.323867"><ele>0</ele><time>4.4721360206604-377.20001220703125-350.29998779296875T4.75:0:0Z</time></trkpt>
<trkpt lat="45.815317" lon="1.323861"><ele>0</ele><time>3.605551242828369-378.20001220703125-347.79998779296875T4.75:0:0Z</time></trkpt>
<trkpt lat="45.815389" lon="1.323816"><ele>0</ele><time>3.605551242828369-378.29998779296875-342.1000061035156T4.5:0:0Z</time></trkpt>
<trkpt lat="45.815458" lon="1.323778"><ele>0</ele><time>4.4721360206604-379.1000061035156-341.20001220703125T4.25:0:0Z</time></trkpt>
<trkpt lat="45.815529" lon="1.323739"><ele>0</ele><time>4.4721360206604-379.0-336.8999938964844T4.0:0:0Z</time></trkpt>
<trkpt lat="45.815602" lon="1.323723"><ele>0</ele><time>4.4721360206604-378.1000061035156-342.20001220703125T3.75:0:0Z</time></trkpt>
<trkpt lat="45.815691" lon="1.323673"><ele>0</ele><time>4.4721360206604-377.8999938964844-333.29998779296875T4.5:0:0Z</time></trkpt>
<trkpt lat="45.815741" lon="1.323665"><ele>0</ele><time>4.4721360206604-378.20001220703125-337.5T4.5:0:0Z</time></trkpt>
<trkpt lat="45.815806" lon="1.323622"><ele>0</ele><time>4.4721360206604-378.8999938964844-339.70001220703125T4.25:0:0Z</time></trkpt>
<trkpt lat="45.815882" lon="1.323607"><ele>0</ele><time>3.605551242828369-380.5-348.79998779296875T4.031128883361816:0:0Z</time></trkpt>
<trkpt lat="45.815958" lon="1.323587"><ele>0</ele><time>3.605551242828369-380.20001220703125-349.5T4.25:0:0Z</time></trkpt>
<trkpt lat="45.816006" lon="1.323603"><ele>0</ele><time>3.605551242828369-379.79998779296875-3.700000047683716T4.5:0:0Z</time></trkpt>
<trkpt lat="45.816088" lon="1.323627"><ele>0</ele><time>2.8284270763397217-378.70001220703125-10.0T4.527692794799805:0:0Z</time></trkpt>
<trkpt lat="45.816164" lon="1.323652"><ele>0</ele><time>2.8284270763397217-378.79998779296875-13.0T4.5:0:0Z</time></trkpt>
<trkpt lat="45.816238" lon="1.323697"><ele>0</ele><time>2.8284270763397217-380.29998779296875-21.0T4.527692794799805:0:0Z</time></trkpt>
<trkpt lat="45.816315" lon="1.323736"><ele>0</ele><time>3.605551242828369-380.1000061035156-20.100000381469727T4.5:0:0Z</time></trkpt>
<trkpt lat="45.816391" lon="1.323774"><ele>0</ele><time>3.605551242828369-380.5-20.600000381469727T4.5:0:0Z</time></trkpt>
<trkpt lat="45.816438" lon="1.323809"><ele>0</ele><time>4.4721360206604-380.3999938964844-20.899999618530273T4.75:0:0Z</time></trkpt>
<trkpt lat="45.816501" lon="1.323853"><ele>0</ele><time>3.605551242828369-380.79998779296875-23.799999237060547T4.25:0:0Z</time></trkpt>
<trkpt lat="45.816577" lon="1.323901"><ele>0</ele><time>3.605551242828369-381.0-23.5T4.5:0:0Z</time></trkpt>
<trkpt lat="45.816621" lon="1.323923"><ele>0</ele><time>4.242640495300293-381.20001220703125-21.899999618530273T4.75:0:0Z</time></trkpt>
<trkpt lat="45.816666" lon="1.323944"><ele>0</ele><time>5.0-381.29998779296875-21.299999237060547T4.75:0:0Z</time></trkpt>
<trkpt lat="45.816751" lon="1.324003"><ele>0</ele><time>4.4721360206604-381.0-22.399999618530273T5.0:0:0Z</time></trkpt>
<trkpt lat="45.816793" lon="1.324035"><ele>0</ele><time>4.4721360206604-380.70001220703125-21.700000762939453T4.75:0:0Z</time></trkpt>
<trkpt lat="45.816859" lon="1.324056"><ele>0</ele><time>4.4721360206604-381.70001220703125-15.800000190734863T4.25:0:0Z</time></trkpt>
<trkpt lat="45.81693" lon="1.324106"><ele>0</ele><time>4.4721360206604-388.6000061035156-21.200000762939453T5.0:0:0Z</time></trkpt>
<trkpt lat="45.817025" lon="1.324166"><ele>0</ele><time>3.605551242828369-391.3999938964844-22.100000381469727T4.123105525970459:0:0Z</time></trkpt>
<trkpt lat="45.817092" lon="1.324184"><ele>0</ele><time>6.324555397033691-392.0-16.799999237060547T3.041381359100342:0:0Z</time></trkpt>
<trkpt lat="45.817148" lon="1.324207"><ele>0</ele><time>6.324555397033691-392.20001220703125-19.100000381469727T3.25:0:0Z</time></trkpt>
<trkpt lat="45.817211" lon="1.324236"><ele>0</ele><time>6.324555397033691-392.70001220703125-18.700000762939453T4.0:0:0Z</time></trkpt>
<trkpt lat="45.817259" lon="1.324238"><ele>0</ele><time>6.324555397033691-392.79998779296875-10.5T4.25:0:0Z</time></trkpt>
<trkpt lat="45.817315" lon="1.324217"><ele>0</ele><time>6.7082037925720215-393.29998779296875-357.6000061035156T4.5:0:0Z</time></trkpt>
<trkpt lat="45.817386" lon="1.32421"><ele>0</ele><time>6.7082037925720215-392.6000061035156-354.0T5.0:0:0Z</time></trkpt>
<trkpt lat="45.817471" lon="1.324179"><ele>0</ele><time>6.324555397033691-391.29998779296875-345.3999938964844T5.75:0:0Z</time></trkpt>
<trkpt lat="45.817536" lon="1.324139"><ele>0</ele><time>6.324555397033691-390.79998779296875-338.0T6.5:0:0Z</time></trkpt>
<trkpt lat="45.817583" lon="1.3241"><ele>0</ele><time>6.324555397033691-391.3999938964844-332.5T6.25:0:0Z</time></trkpt>
<trkpt lat="45.817655" lon="1.324068"><ele>0</ele><time>6.324555397033691-390.8999938964844-337.20001220703125T6.75:0:0Z</time></trkpt>
<trkpt lat="45.817746" lon="1.324036"><ele>0</ele><time>4.4721360206604-389.3999938964844-340.0T8.015609741210938:0:0Z</time></trkpt>
<trkpt lat="45.817826" lon="1.324002"><ele>0</ele><time>4.4721360206604-388.70001220703125-339.5T8.265137672424316:0:0Z</time></trkpt>
<trkpt lat="45.8179" lon="1.323977"><ele>0</ele><time>4.4721360206604-388.0-337.70001220703125T7.75:0:0Z</time></trkpt>
<trkpt lat="45.817961" lon="1.323943"><ele>0</ele><time>4.4721360206604-388.0-339.3999938964844T7.5:0:0Z</time></trkpt>
<trkpt lat="45.818026" lon="1.3239"><ele>0</ele><time>4.4721360206604-387.79998779296875-336.1000061035156T7.25:0:0Z</time></trkpt>
<trkpt lat="45.818104" lon="1.323868"><ele>0</ele><time>4.4721360206604-387.29998779296875-340.29998779296875T7.5:0:0Z</time></trkpt>
<trkpt lat="45.818183" lon="1.323838"><ele>0</ele><time>5.0-387.29998779296875-342.1000061035156T7.75:0:0Z</time></trkpt>
<trkpt lat="45.818256" lon="1.323808"><ele>0</ele><time>3.605551242828369-384.29998779296875-341.5T7.75:0:0Z</time></trkpt>
<trkpt lat="45.818323" lon="1.323776"><ele>0</ele><time>3.605551242828369-385.1000061035156-340.70001220703125T7.75:0:0Z</time></trkpt>
<trkpt lat="45.818391" lon="1.323748"><ele>0</ele><time>3.605551242828369-384.8999938964844-341.20001220703125T7.75:0:0Z</time></trkpt>
<trkpt lat="45.818453" lon="1.323718"><ele>0</ele><time>3.605551242828369-384.20001220703125-341.0T7.25:0:0Z</time></trkpt>
<trkpt lat="45.81851" lon="1.323693"><ele>0</ele><time>3.605551242828369-383.70001220703125-342.70001220703125T7.0:0:0Z</time></trkpt>
<trkpt lat="45.818561" lon="1.323671"><ele>0</ele><time>3.605551242828369-383.79998779296875-345.1000061035156T6.25:0:0Z</time></trkpt>
<trkpt lat="45.818619" lon="1.32366"><ele>0</ele><time>3.605551242828369-383.79998779296875-349.3999938964844T5.5:0:0Z</time></trkpt>
<trkpt lat="45.818688" lon="1.323641"><ele>0</ele><time>3.605551242828369-383.3999938964844-350.70001220703125T3.75:0:0Z</time></trkpt>
<trkpt lat="45.818734" lon="1.323652"><ele>0</ele><time>2.8284270763397217-383.79998779296875-3.4000000953674316T1.5:0:0Z</time></trkpt>
<trkpt lat="45.818779" lon="1.323673"><ele>0</ele><time>2.8284270763397217-380.5-345.3999938964844T2.0:0:0Z</time></trkpt>
<trkpt lat="45.818807" lon="1.323613"><ele>0</ele><time>2.8284270763397217-377.79998779296875-293.6000061035156T2.5:0:0Z</time></trkpt>
<trkpt lat="45.818811" lon="1.323527"><ele>0</ele><time>2.8284270763397217-379.3999938964844-280.3999938964844T2.3048861026763916:0:0Z</time></trkpt>
<trkpt lat="45.818835" lon="1.323433"><ele>0</ele><time>2.8284270763397217-380.1000061035156-288.70001220703125T3.535533905029297:0:0Z</time></trkpt>
<trkpt lat="45.818864" lon="1.323369"><ele>0</ele><time>2.8284270763397217-380.0-297.0T4.5:0:0Z</time></trkpt>
<trkpt lat="45.818912" lon="1.323269"><ele>0</ele><time>3.605551242828369-380.0-301.8999938964844T4.75:0:0Z</time></trkpt>
<trkpt lat="45.818932" lon="1.323198"><ele>0</ele><time>3.605551242828369-379.6000061035156-300.3999938964844T5.25:0:0Z</time></trkpt>
<trkpt lat="45.818954" lon="1.323126"><ele>0</ele><time>3.605551242828369-379.3999938964844-299.6000061035156T5.25:0:0Z</time></trkpt>
<trkpt lat="45.818972" lon="1.323061"><ele>0</ele><time>3.605551242828369-379.20001220703125-298.5T5.25:0:0Z</time></trkpt>
<trkpt lat="45.818999" lon="1.323001"><ele>0</ele><time>3.605551242828369-379.20001220703125-300.3999938964844T5.0:0:0Z</time></trkpt>
<trkpt lat="45.819023" lon="1.322939"><ele>0</ele><time>3.605551242828369-379.29998779296875-300.29998779296875T5.25:0:0Z</time></trkpt>
<trkpt lat="45.819049" lon="1.322858"><ele>0</ele><time>3.605551242828369-379.29998779296875-295.8999938964844T6.0:0:0Z</time></trkpt>
<trkpt lat="45.819074" lon="1.322791"><ele>0</ele><time>3.605551242828369-379.20001220703125-297.6000061035156T5.75:0:0Z</time></trkpt>
<trkpt lat="45.819089" lon="1.322717"><ele>0</ele><time>3.605551242828369-378.79998779296875-294.1000061035156T5.75:0:0Z</time></trkpt>
<trkpt lat="45.819117" lon="1.322643"><ele>0</ele><time>3.605551242828369-378.6000061035156-292.79998779296875T6.25:0:0Z</time></trkpt>
<trkpt lat="45.819128" lon="1.322564"><ele>0</ele><time>3.605551242828369-378.3999938964844-288.5T6.0:0:0Z</time></trkpt>
<trkpt lat="45.819141" lon="1.32249"><ele>0</ele><time>3.605551242828369-378.29998779296875-285.79998779296875T5.75:0:0Z</time></trkpt>
<trkpt lat="45.819147" lon="1.322422"><ele>0</ele><time>3.605551242828369-377.70001220703125-282.29998779296875T5.25:0:0Z</time></trkpt>
<trkpt lat="45.81916" lon="1.322283"><ele>0</ele><time>3.605551242828369-377.29998779296875-273.6000061035156T5.5:0:0Z</time></trkpt>
<trkpt lat="45.819146" lon="1.322216"><ele>0</ele><time>2.8284270763397217-378.0-257.79998779296875T5.2737555503845215:0:0Z</time></trkpt>
<trkpt lat="45.81913" lon="1.322096"><ele>0</ele><time>2.8284270763397217-377.1000061035156-250.89999389648438T4.75:0:0Z</time></trkpt>
<trkpt lat="45.819117" lon="1.322027"><ele>0</ele><time>2.8284270763397217-376.79998779296875-254.1999969482422T5.0:0:0Z</time></trkpt>
<trkpt lat="45.81911" lon="1.321954"><ele>0</ele><time>2.8284270763397217-377.0-256.8999938964844T5.25:0:0Z</time></trkpt>
<trkpt lat="45.819105" lon="1.321884"><ele>0</ele><time>2.8284270763397217-377.5-260.70001220703125T5.25:0:0Z</time></trkpt>
<trkpt lat="45.819102" lon="1.321815"><ele>0</ele><time>2.8284270763397217-377.1000061035156-261.8999938964844T5.0:0:0Z</time></trkpt>
<trkpt lat="45.819085" lon="1.321685"><ele>0</ele><time>2.8284270763397217-376.29998779296875-255.3000030517578T4.75:0:0Z</time></trkpt>
<trkpt lat="45.81907" lon="1.321568"><ele>0</ele><time>2.8284270763397217-376.20001220703125-256.5T5.0:0:0Z</time></trkpt>
<trkpt lat="45.819057" lon="1.321495"><ele>0</ele><time>3.605551242828369-376.3999938964844-257.3999938964844T5.25:0:0Z</time></trkpt>
<trkpt lat="45.81903" lon="1.321366"><ele>0</ele><time>3.605551242828369-376.20001220703125-254.60000610351563T5.25:0:0Z</time></trkpt>
<trkpt lat="45.819018" lon="1.321297"><ele>0</ele><time>3.605551242828369-376.29998779296875-255.8000030517578T5.25:0:0Z</time></trkpt>
<trkpt lat="45.818993" lon="1.321179"><ele>0</ele><time>3.605551242828369-376.70001220703125-256.1000061035156T5.0:0:0Z</time></trkpt>
<trkpt lat="45.818973" lon="1.321102"><ele>0</ele><time>3.605551242828369-376.0-250.10000610351563T3.5:0:0Z</time></trkpt>
<trkpt lat="45.818954" lon="1.321031"><ele>0</ele><time>4.4721360206604-376.0-247.5T3.0:0:0Z</time></trkpt>
<trkpt lat="45.818959" lon="1.320952"><ele>0</ele><time>4.4721360206604-375.8999938964844-257.79998779296875T3.25:0:0Z</time></trkpt>
<trkpt lat="45.818972" lon="1.32087"><ele>0</ele><time>3.605551242828369-375.70001220703125-268.0T4.0:0:0Z</time></trkpt>
<trkpt lat="45.818995" lon="1.320797"><ele>0</ele><time>3.605551242828369-375.5-277.5T4.5:0:0Z</time></trkpt>
<trkpt lat="45.819005" lon="1.320732"><ele>0</ele><time>3.605551242828369-375.79998779296875-278.0T4.75:0:0Z</time></trkpt>
<trkpt lat="45.818997" lon="1.320662"><ele>0</ele><time>3.605551242828369-374.8999938964844-270.8999938964844T4.527692794799805:0:0Z</time></trkpt>
<trkpt lat="45.818995" lon="1.320593"><ele>0</ele><time>3.605551242828369-374.6000061035156-270.3999938964844T4.75:0:0Z</time></trkpt>
<trkpt lat="45.818989" lon="1.320519"><ele>0</ele><time>3.605551242828369-375.70001220703125-267.70001220703125T4.75:0:0Z</time></trkpt>
<trkpt lat="45.818986" lon="1.320441"><ele>0</ele><time>3.605551242828369-375.20001220703125-266.70001220703125T5.0:0:0Z</time></trkpt>
<trkpt lat="45.818995" lon="1.32036"><ele>0</ele><time>4.242640495300293-375.1000061035156-270.70001220703125T5.25:0:0Z</time></trkpt>
<trkpt lat="45.819034" lon="1.320279"><ele>0</ele><time>4.242640495300293-374.8999938964844-281.79998779296875T5.5:0:0Z</time></trkpt>
<trkpt lat="45.81906" lon="1.320194"><ele>0</ele><time>5.0-375.0-285.8999938964844T5.75:0:0Z</time></trkpt>
<trkpt lat="45.819072" lon="1.320091"><ele>0</ele><time>5.0-374.8999938964844-284.70001220703125T6.0:0:0Z</time></trkpt>
<trkpt lat="45.819087" lon="1.320012"><ele>0</ele><time>5.0-374.8999938964844-283.3999938964844T6.0:0:0Z</time></trkpt>
<trkpt lat="45.819098" lon="1.31991"><ele>0</ele><time>5.0-374.70001220703125-282.20001220703125T6.25:0:0Z</time></trkpt>
<trkpt lat="45.819107" lon="1.319808"><ele>0</ele><time>6.324555397033691-374.3999938964844-280.5T6.5:0:0Z</time></trkpt>
<trkpt lat="45.819102" lon="1.319706"><ele>0</ele><time>4.4721360206604-373.29998779296875-275.79998779296875T6.576473236083984:0:0Z</time></trkpt>
<trkpt lat="45.819107" lon="1.319623"><ele>0</ele><time>3.605551242828369-373.20001220703125-273.79998779296875T6.51920223236084:0:0Z</time></trkpt>
<trkpt lat="45.819102" lon="1.319532"><ele>0</ele><time>3.605551242828369-373.3999938964844-267.20001220703125T6.5:0:0Z</time></trkpt>
<trkpt lat="45.819078" lon="1.319428"><ele>0</ele><time>3.605551242828369-374.1000061035156-259.8999938964844T7.0:0:0Z</time></trkpt>
<trkpt lat="45.819059" lon="1.319328"><ele>0</ele><time>3.605551242828369-375.6000061035156-260.8999938964844T7.25:0:0Z</time></trkpt>
<trkpt lat="45.819024" lon="1.319218"><ele>0</ele><time>3.605551242828369-376.5-247.89999389648438T8.25:0:0Z</time></trkpt>
<trkpt lat="45.819011" lon="1.319122"><ele>0</ele><time>3.605551242828369-376.8999938964844-249.89999389648438T8.0:0:0Z</time></trkpt>
<trkpt lat="45.819002" lon="1.319038"><ele>0</ele><time>3.605551242828369-377.1000061035156-254.3000030517578T7.25:0:0Z</time></trkpt>
<trkpt lat="45.818994" lon="1.318959"><ele>0</ele><time>3.605551242828369-376.8999938964844-255.39999389648438T6.75:0:0Z</time></trkpt>
<trkpt lat="45.818986" lon="1.318879"><ele>0</ele><time>3.605551242828369-376.1000061035156-256.70001220703125T6.75:0:0Z</time></trkpt>
<trkpt lat="45.818982" lon="1.318801"><ele>0</ele><time>3.605551242828369-375.0-255.5T6.5:0:0Z</time></trkpt>
<trkpt lat="45.818975" lon="1.318721"><ele>0</ele><time>3.605551242828369-374.79998779296875-257.5T6.5:0:0Z</time></trkpt>
<trkpt lat="45.818966" lon="1.318643"><ele>0</ele><time>2.8284270763397217-373.79998779296875-256.0T6.25:0:0Z</time></trkpt>
<trkpt lat="45.818951" lon="1.318565"><ele>0</ele><time>2.8284270763397217-373.8999938964844-255.6999969482422T6.25:0:0Z</time></trkpt>
<trkpt lat="45.818933" lon="1.318487"><ele>0</ele><time>3.605551242828369-373.8999938964844-254.5T6.25:0:0Z</time></trkpt>
<trkpt lat="45.818911" lon="1.318412"><ele>0</ele><time>4.242640495300293-374.1000061035156-252.60000610351563T6.25:0:0Z</time></trkpt>
<trkpt lat="45.818887" lon="1.318337"><ele>0</ele><time>5.0-374.29998779296875-250.10000610351563T6.25:0:0Z</time></trkpt>
<trkpt lat="45.818881" lon="1.318269"><ele>0</ele><time>7.211102485656738-373.8999938964844-253.1999969482422T6.0:0:0Z</time></trkpt>
<trkpt lat="45.818865" lon="1.318146"><ele>0</ele><time>5.0-373.8999938964844-257.3999938964844T5.25:0:0Z</time></trkpt>
<trkpt lat="45.818862" lon="1.318063"><ele>0</ele><time>5.0-373.70001220703125-259.20001220703125T5.75:0:0Z</time></trkpt>
<trkpt lat="45.818839" lon="1.317987"><ele>0</ele><time>5.0-374.0-254.10000610351563T5.75:0:0Z</time></trkpt>
<trkpt lat="45.818821" lon="1.317918"><ele>0</ele><time>5.0-374.0-249.10000610351563T5.5:0:0Z</time></trkpt>
<trkpt lat="45.818769" lon="1.317828"><ele>0</ele><time>4.242640495300293-373.8999938964844-235.39999389648438T4.75:0:0Z</time></trkpt>
<trkpt lat="45.818734" lon="1.317729"><ele>0</ele><time>5.0-373.5-239.0T4.5:0:0Z</time></trkpt>
<trkpt lat="45.81871" lon="1.317582"><ele>0</ele><time>5.656854152679443-373.70001220703125-247.89999389648438T5.0:0:0Z</time></trkpt>
<trkpt lat="45.818688" lon="1.3175"><ele>0</ele><time>6.7082037925720215-373.70001220703125-243.3000030517578T5.25:0:0Z</time></trkpt>
<trkpt lat="45.818662" lon="1.317369"><ele>0</ele><time>6.7082037925720215-373.3999938964844-244.39999389648438T6.0:0:0Z</time></trkpt>
<trkpt lat="45.818736" lon="1.317298"><ele>0</ele><time>6.324555397033691-371.8999938964844-273.70001220703125T5.099019527435303:0:0Z</time></trkpt>
<trkpt lat="45.818736" lon="1.317232"><ele>0</ele><time>6.324555397033691-371.3999938964844-273.3999938964844T5.024937629699707:0:0Z</time></trkpt>
<trkpt lat="45.818706" lon="1.317161"><ele>0</ele><time>6.324555397033691-371.29998779296875-251.10000610351563T5.2737555503845215:0:0Z</time></trkpt>
<trkpt lat="45.818691" lon="1.317092"><ele>0</ele><time>6.324555397033691-371.20001220703125-252.60000610351563T5.5:0:0Z</time></trkpt>
<trkpt lat="45.818656" lon="1.317011"><ele>0</ele><time>4.4721360206604-370.6000061035156-251.5T5.5:0:0Z</time></trkpt>
<trkpt lat="45.818629" lon="1.316895"><ele>0</ele><time>4.4721360206604-370.3999938964844-251.89999389648438T4.75:0:0Z</time></trkpt>
<trkpt lat="45.81858" lon="1.316762"><ele>0</ele><time>5.0-371.29998779296875-250.89999389648438T5.25:0:0Z</time></trkpt>
<trkpt lat="45.818562" lon="1.316701"><ele>0</ele><time>5.0-371.3999938964844-250.39999389648438T5.25:0:0Z</time></trkpt>
<trkpt lat="45.818547" lon="1.316633"><ele>0</ele><time>5.0-371.3999938964844-251.3000030517578T5.25:0:0Z</time></trkpt>
<trkpt lat="45.818493" lon="1.316558"><ele>0</ele><time>5.0-372.0-232.39999389648438T4.25:0:0Z</time></trkpt>
<trkpt lat="45.818479" lon="1.316476"><ele>0</ele><time>6.7082037925720215-372.70001220703125-241.8000030517578T5.0:0:0Z</time></trkpt>
<trkpt lat="45.81845" lon="1.316294"><ele>0</ele><time>4.4721360206604-371.70001220703125-248.1999969482422T6.75:0:0Z</time></trkpt>
<trkpt lat="45.818445" lon="1.316218"><ele>0</ele><time>4.4721360206604-371.70001220703125-250.39999389648438T6.0:0:0Z</time></trkpt>
<trkpt lat="45.81846" lon="1.316109"><ele>0</ele><time>4.4721360206604-371.5-265.3999938964844T4.25:0:0Z</time></trkpt>
<trkpt lat="45.818504" lon="1.316047"><ele>0</ele><time>3.605551242828369-370.79998779296875-294.20001220703125T4.5:0:0Z</time></trkpt>
<trkpt lat="45.818537" lon="1.316"><ele>0</ele><time>3.605551242828369-371.29998779296875-309.79998779296875T5.0:0:0Z</time></trkpt>
<trkpt lat="45.818591" lon="1.316025"><ele>0</ele><time>3.605551242828369-371.70001220703125-341.6000061035156T4.5:0:0Z</time></trkpt>
<trkpt lat="45.818655" lon="1.316002"><ele>0</ele><time>4.4721360206604-371.3999938964844-341.79998779296875T6.0:0:0Z</time></trkpt>
<trkpt lat="45.818708" lon="1.315977"><ele>0</ele><time>5.0-371.6000061035156-342.3999938964844T6.0:0:0Z</time></trkpt>
<trkpt lat="45.818768" lon="1.315952"><ele>0</ele><time>6.7082037925720215-372.79998779296875-344.1000061035156T6.5:0:0Z</time></trkpt>
<trkpt lat="45.818831" lon="1.315929"><ele>0</ele><time>6.7082037925720215-373.0-344.0T6.75:0:0Z</time></trkpt>
<trkpt lat="45.818883" lon="1.315897"><ele>0</ele><time>8.5440034866333-373.29998779296875-342.0T6.5:0:0Z</time></trkpt>
<trkpt lat="45.818948" lon="1.315922"><ele>0</ele><time>5.0-373.5-344.1000061035156T6.5:0:0Z</time></trkpt>
<trkpt lat="45.819002" lon="1.315915"><ele>0</ele><time>5.0-373.3999938964844-343.5T6.0:0:0Z</time></trkpt>
<trkpt lat="45.81909" lon="1.315876"><ele>0</ele><time>5.0-373.5-344.70001220703125T5.5:0:0Z</time></trkpt>
<trkpt lat="45.819136" lon="1.315861"><ele>0</ele><time>5.0-373.6000061035156-344.70001220703125T5.5:0:0Z</time></trkpt>
<trkpt lat="45.819186" lon="1.315824"><ele>0</ele><time>3.605551242828369-373.79998779296875-343.79998779296875T5.5:0:0Z</time></trkpt>
<trkpt lat="45.819234" lon="1.315807"><ele>0</ele><time>3.605551242828369-373.6000061035156-344.29998779296875T5.5:0:0Z</time></trkpt>
<trkpt lat="45.81928" lon="1.315788"><ele>0</ele><time>5.0-373.5-345.5T5.5:0:0Z</time></trkpt>
<trkpt lat="45.81933" lon="1.31577"><ele>0</ele><time>5.0-373.6000061035156-346.0T5.75:0:0Z</time></trkpt>
<trkpt lat="45.819379" lon="1.315755"><ele>0</ele><time>6.7082037925720215-373.8999938964844-347.79998779296875T5.75:0:0Z</time></trkpt>
<trkpt lat="45.819441" lon="1.315733"><ele>0</ele><time>6.7082037925720215-374.29998779296875-347.3999938964844T6.0:0:0Z</time></trkpt>
<trkpt lat="45.819509" lon="1.315786"><ele>0</ele><time>6.7082037925720215-374.3999938964844-1.100000023841858T6.0:0:0Z</time></trkpt>
<trkpt lat="45.819558" lon="1.315783"><ele>0</ele><time>6.7082037925720215-374.1000061035156-3.0T5.75:0:0Z</time></trkpt>
<trkpt lat="45.819604" lon="1.315786"><ele>0</ele><time>8.5440034866333-373.79998779296875-6.0T5.5:0:0Z</time></trkpt>
<trkpt lat="45.819661" lon="1.315884"><ele>0</ele><time>8.5440034866333-374.0-25.399999618530273T6.0:0:0Z</time></trkpt>
<trkpt lat="45.819714" lon="1.315985"><ele>0</ele><time>8.5440034866333-374.5-34.599998474121094T6.5:0:0Z</time></trkpt>
<trkpt lat="45.819748" lon="1.316066"><ele>0</ele><time>7.211102485656738-374.6000061035156-44.29999923706055T6.25:0:0Z</time></trkpt>
<trkpt lat="45.819813" lon="1.316149"><ele>0</ele><time>7.211102485656738-374.5-41.099998474121094T6.75:0:0Z</time></trkpt>
<trkpt lat="45.819854" lon="1.316193"><ele>0</ele><time>7.211102485656738-374.5-42.70000076293945T6.75:0:0Z</time></trkpt>
<trkpt lat="45.819899" lon="1.31625"><ele>0</ele><time>7.211102485656738-373.70001220703125-45.099998474121094T6.25:0:0Z</time></trkpt>
<trkpt lat="45.819947" lon="1.316309"><ele>0</ele><time>7.211102485656738-373.5-43.599998474121094T6.25:0:0Z</time></trkpt>
<trkpt lat="45.819996" lon="1.316347"><ele>0</ele><time>5.656854152679443-373.3999938964844-39.29999923706055T6.25:0:0Z</time></trkpt>
<trkpt lat="45.820044" lon="1.316385"><ele>0</ele><time>5.0-373.29998779296875-39.70000076293945T6.0:0:0Z</time></trkpt>
<trkpt lat="45.820099" lon="1.316426"><ele>0</ele><time>6.7082037925720215-372.8999938964844-35.79999923706055T6.0:0:0Z</time></trkpt>
<trkpt lat="45.82016" lon="1.316514"><ele>0</ele><time>7.211102485656738-373.20001220703125-40.70000076293945T5.25:0:0Z</time></trkpt>
<trkpt lat="45.820199" lon="1.316557"><ele>0</ele><time>7.211102485656738-373.29998779296875-37.099998474121094T5.25:0:0Z</time></trkpt>
<trkpt lat="45.820245" lon="1.316597"><ele>0</ele><time>7.211102485656738-373.29998779296875-32.79999923706055T5.25:0:0Z</time></trkpt>
<trkpt lat="45.820299" lon="1.316596"><ele>0</ele><time>7.211102485656738-373.3999938964844-18.0T5.25:0:0Z</time></trkpt>
<trkpt lat="45.820327" lon="1.316542"><ele>0</ele><time>5.0-369.8999938964844-326.5T4.506938934326172:0:0Z</time></trkpt>
<trkpt lat="45.820374" lon="1.316539"><ele>0</ele><time>5.0-369.0-321.29998779296875T4.776243209838867:0:0Z</time></trkpt>
<trkpt lat="45.82042" lon="1.316473"><ele>0</ele><time>4.4721360206604-368.0-316.0T6.51920223236084:0:0Z</time></trkpt>
<trkpt lat="45.820468" lon="1.31643"><ele>0</ele><time>3.605551242828369-367.29998779296875-317.20001220703125T6.51920223236084:0:0Z</time></trkpt>
<trkpt lat="45.820515" lon="1.316373"><ele>0</ele><time>3.605551242828369-367.3999938964844-317.5T6.5:0:0Z</time></trkpt>
<trkpt lat="45.820557" lon="1.316324"><ele>0</ele><time>3.605551242828369-367.5-319.1000061035156T6.0:0:0Z</time></trkpt>
<trkpt lat="45.820586" lon="1.316253"><ele>0</ele><time>3.605551242828369-367.5-309.79998779296875T6.25:0:0Z</time></trkpt>
<trkpt lat="45.820614" lon="1.316201"><ele>0</ele><time>4.4721360206604-367.3999938964844-311.6000061035156T5.5:0:0Z</time></trkpt>
<trkpt lat="45.820664" lon="1.316123"><ele>0</ele><time>4.4721360206604-367.20001220703125-310.70001220703125T6.25:0:0Z</time></trkpt>
<trkpt lat="45.820729" lon="1.316053"><ele>0</ele><time>4.4721360206604-367.79998779296875-312.8999938964844T7.25:0:0Z</time></trkpt>
<trkpt lat="45.820782" lon="1.315985"><ele>0</ele><time>3.605551242828369-368.1000061035156-316.0T7.25:0:0Z</time></trkpt>
<trkpt lat="45.820836" lon="1.315917"><ele>0</ele><time>3.605551242828369-368.20001220703125-317.79998779296875T7.25:0:0Z</time></trkpt>
<trkpt lat="45.820891" lon="1.31584"><ele>0</ele><time>3.605551242828369-368.1000061035156-318.3999938964844T7.75:0:0Z</time></trkpt>
<trkpt lat="45.820949" lon="1.31579"><ele>0</ele><time>3.605551242828369-368.0-323.5T7.5:0:0Z</time></trkpt>
<trkpt lat="45.821" lon="1.315754"><ele>0</ele><time>3.605551242828369-368.0-329.8999938964844T7.0:0:0Z</time></trkpt>
<trkpt lat="45.821057" lon="1.315695"><ele>0</ele><time>3.605551242828369-367.1000061035156-325.0T7.25:0:0Z</time></trkpt>
<trkpt lat="45.8211" lon="1.315649"><ele>0</ele><time>3.605551242828369-367.29998779296875-325.1000061035156T6.5:0:0Z</time></trkpt>
<trkpt lat="45.821157" lon="1.315594"><ele>0</ele><time>4.4721360206604-367.0-325.6000061035156T6.75:0:0Z</time></trkpt>
<trkpt lat="45.821228" lon="1.315532"><ele>0</ele><time>4.4721360206604-366.0-325.20001220703125T7.5:0:0Z</time></trkpt>
<trkpt lat="45.821288" lon="1.31547"><ele>0</ele><time>3.605551242828369-366.0-327.70001220703125T7.75:0:0Z</time></trkpt>
<trkpt lat="45.821395" lon="1.315423"><ele>0</ele><time>2.8284270763397217-363.20001220703125-329.8999938964844T8.25:0:0Z</time></trkpt>
<trkpt lat="45.821468" lon="1.315361"><ele>0</ele><time>2.8284270763397217-362.70001220703125-328.6000061035156T8.25:0:0Z</time></trkpt>
<trkpt lat="45.821527" lon="1.315297"><ele>0</ele><time>2.8284270763397217-362.70001220703125-324.6000061035156T8.25:0:0Z</time></trkpt>
<trkpt lat="45.821589" lon="1.315231"><ele>0</ele><time>2.8284270763397217-362.79998779296875-322.8999938964844T8.25:0:0Z</time></trkpt>
<trkpt lat="45.821656" lon="1.315173"><ele>0</ele><time>2.8284270763397217-362.20001220703125-325.70001220703125T8.25:0:0Z</time></trkpt>
<trkpt lat="45.821712" lon="1.315118"><ele>0</ele><time>2.8284270763397217-361.70001220703125-327.8999938964844T7.75:0:0Z</time></trkpt>
<trkpt lat="45.82178" lon="1.315062"><ele>0</ele><time>2.8284270763397217-361.0-328.0T8.0:0:0Z</time></trkpt>
<trkpt lat="45.821835" lon="1.315009"><ele>0</ele><time>2.8284270763397217-359.6000061035156-325.1000061035156T7.766112327575684:0:0Z</time></trkpt>
<trkpt lat="45.821894" lon="1.314963"><ele>0</ele><time>2.8284270763397217-359.3999938964844-329.70001220703125T7.267220973968506:0:0Z</time></trkpt>
<trkpt lat="45.821952" lon="1.314911"><ele>0</ele><time>2.8284270763397217-358.79998779296875-329.29998779296875T7.25:0:0Z</time></trkpt>
<trkpt lat="45.822018" lon="1.314865"><ele>0</ele><time>2.8284270763397217-358.20001220703125-332.0T7.25:0:0Z</time></trkpt>
<trkpt lat="45.822078" lon="1.314821"><ele>0</ele><time>3.605551242828369-358.29998779296875-331.79998779296875T7.5:0:0Z</time></trkpt>
<trkpt lat="45.822141" lon="1.314754"><ele>0</ele><time>3.605551242828369-358.1000061035156-326.29998779296875T8.25:0:0Z</time></trkpt>
<trkpt lat="45.822166" lon="1.314692"><ele>0</ele><time>3.605551242828369-357.6000061035156-319.79998779296875T7.0:0:0Z</time></trkpt>
<trkpt lat="45.822215" lon="1.31458"><ele>0</ele><time>3.605551242828369-357.29998779296875-311.20001220703125T5.5:0:0Z</time></trkpt>
<trkpt lat="45.822251" lon="1.314531"><ele>0</ele><time>3.605551242828369-356.8999938964844-313.70001220703125T5.5:0:0Z</time></trkpt>
<trkpt lat="45.822311" lon="1.314467"><ele>0</ele><time>2.8284270763397217-357.1000061035156-317.6000061035156T6.0:0:0Z</time></trkpt>
<trkpt lat="45.822354" lon="1.314426"><ele>0</ele><time>2.8284270763397217-356.3999938964844-318.20001220703125T5.25:0:0Z</time></trkpt>
<trkpt lat="45.822391" lon="1.31434"><ele>0</ele><time>3.605551242828369-355.6000061035156-306.29998779296875T3.75:0:0Z</time></trkpt>
<trkpt lat="45.822396" lon="1.314199"><ele>0</ele><time>2.8284270763397217-353.5-280.20001220703125T5.7008771896362305:0:0Z</time></trkpt>
<trkpt lat="45.822407" lon="1.314118"><ele>0</ele><time>3.605551242828369-353.29998779296875-275.20001220703125T5.2737555503845215:0:0Z</time></trkpt>
<trkpt lat="45.822401" lon="1.314052"><ele>0</ele><time>3.605551242828369-353.0-264.0T4.776243209838867:0:0Z</time></trkpt>
<trkpt lat="45.822401" lon="1.313949"><ele>0</ele><time>3.605551242828369-352.3999938964844-263.20001220703125T6.0:0:0Z</time></trkpt>
<trkpt lat="45.822389" lon="1.31385"><ele>0</ele><time>3.605551242828369-352.20001220703125-261.5T6.75:0:0Z</time></trkpt>
<trkpt lat="45.822406" lon="1.313734"><ele>0</ele><time>3.605551242828369-351.8999938964844-275.5T4.5:0:0Z</time></trkpt>
<trkpt lat="45.822469" lon="1.313668"><ele>0</ele><time>4.242640495300293-351.20001220703125-326.20001220703125T3.0:0:0Z</time></trkpt>
<trkpt lat="45.82255" lon="1.313663"><ele>0</ele><time>5.0-351.6000061035156-13.100000381469727T3.25:0:0Z</time></trkpt>
<trkpt lat="45.822596" lon="1.313669"><ele>0</ele><time>5.0-351.3999938964844-21.299999237060547T4.0:0:0Z</time></trkpt>
<trkpt lat="45.822653" lon="1.313705"><ele>0</ele><time>5.0-351.20001220703125-25.100000381469727T5.25:0:0Z</time></trkpt>
<trkpt lat="45.822779" lon="1.313775"><ele>0</ele><time>6.7082037925720215-349.70001220703125-16.700000762939453T4.5:0:0Z</time></trkpt>
<trkpt lat="45.822842" lon="1.313746"><ele>0</ele><time>4.4721360206604-348.5-348.8999938964844T4.75:0:0Z</time></trkpt>
<trkpt lat="45.822914" lon="1.313722"><ele>0</ele><time>4.4721360206604-346.8999938964844-329.5T5.5:0:0Z</time></trkpt>
<trkpt lat="45.822943" lon="1.313672"><ele>0</ele><time>4.4721360206604-346.3999938964844-319.6000061035156T5.25:0:0Z</time></trkpt>
<trkpt lat="45.822994" lon="1.313588"><ele>0</ele><time>4.4721360206604-345.70001220703125-315.20001220703125T4.5:0:0Z</time></trkpt>
<trkpt lat="45.823055" lon="1.313542"><ele>0</ele><time>3.605551242828369-349.29998779296875-337.8999938964844T3.535533905029297:0:0Z</time></trkpt>
<trkpt lat="45.8231" lon="1.313563"><ele>0</ele><time>3.605551242828369-353.1000061035156-23.200000762939453T3.535533905029297:0:0Z</time></trkpt>
<trkpt lat="45.823153" lon="1.313584"><ele>0</ele><time>3.605551242828369-354.6000061035156-18.799999237060547T2.692582368850708:0:0Z</time></trkpt>
<trkpt lat="45.823203" lon="1.313581"><ele>0</ele><time>3.605551242828369-354.3999938964844-1.7000000476837158T2.75:0:0Z</time></trkpt>
<trkpt lat="45.823271" lon="1.313559"><ele>0</ele><time>3.605551242828369-354.0-350.70001220703125T3.25:0:0Z</time></trkpt>
<trkpt lat="45.82332" lon="1.313567"><ele>0</ele><time>4.4721360206604-352.8999938964844-352.0T3.5:0:0Z</time></trkpt>
<trkpt lat="45.823401" lon="1.313504"><ele>0</ele><time>4.4721360206604-350.6000061035156-340.5T4.25:0:0Z</time></trkpt>
<trkpt lat="45.823457" lon="1.313485"><ele>0</ele><time>5.0-350.3999938964844-341.29998779296875T4.5:0:0Z</time></trkpt>
<trkpt lat="45.823494" lon="1.313446"><ele>0</ele><time>5.0-350.0-336.29998779296875T4.75:0:0Z</time></trkpt>
<trkpt lat="45.823557" lon="1.313409"><ele>0</ele><time>5.0-349.29998779296875-336.29998779296875T5.25:0:0Z</time></trkpt>
<trkpt lat="45.823604" lon="1.313382"><ele>0</ele><time>5.0-349.1000061035156-338.79998779296875T5.0:0:0Z</time></trkpt>
<trkpt lat="45.823692" lon="1.313364"><ele>0</ele><time>4.4721360206604-346.6000061035156-335.5T6.25:0:0Z</time></trkpt>
<trkpt lat="45.823735" lon="1.313343"><ele>0</ele><time>4.4721360206604-345.5-336.8999938964844T5.25:0:0Z</time></trkpt>
<trkpt lat="45.823772" lon="1.313302"><ele>0</ele><time>4.4721360206604-343.79998779296875-325.5T5.0:0:0Z</time></trkpt>
<trkpt lat="45.823822" lon="1.313249"><ele>0</ele><time>4.4721360206604-342.29998779296875-318.20001220703125T5.522680282592773:0:0Z</time></trkpt>
<trkpt lat="45.823854" lon="1.313193"><ele>0</ele><time>4.4721360206604-341.5-311.79998779296875T5.5:0:0Z</time></trkpt>
<trkpt lat="45.823894" lon="1.313117"><ele>0</ele><time>3.605551242828369-340.70001220703125-311.3999938964844T6.75:0:0Z</time></trkpt>
<trkpt lat="45.823943" lon="1.313035"><ele>0</ele><time>3.605551242828369-338.3999938964844-307.70001220703125T6.75:0:0Z</time></trkpt>
<trkpt lat="45.823994" lon="1.312976"><ele>0</ele><time>3.605551242828369-337.0-311.1000061035156T6.25:0:0Z</time></trkpt>
<trkpt lat="45.824076" lon="1.312895"><ele>0</ele><time>3.605551242828369-334.20001220703125-323.5T4.75:0:0Z</time></trkpt>
<trkpt lat="45.824148" lon="1.31282"><ele>0</ele><time>4.4721360206604-333.5-324.79998779296875T4.75:0:0Z</time></trkpt>
<trkpt lat="45.824223" lon="1.312743"><ele>0</ele><time>5.0-333.0-329.20001220703125T5.25:0:0Z</time></trkpt>
<trkpt lat="45.824278" lon="1.312708"><ele>0</ele><time>6.7082037925720215-332.70001220703125-330.6000061035156T6.0:0:0Z</time></trkpt>
<trkpt lat="45.824315" lon="1.312665"><ele>0</ele><time>5.0-332.3999938964844-329.8999938964844T5.75:0:0Z</time></trkpt>
<trkpt lat="45.824377" lon="1.31268"><ele>0</ele><time>5.0-330.8999938964844-348.8999938964844T5.83630895614624:0:0Z</time></trkpt>
<trkpt lat="45.824431" lon="1.312648"><ele>0</ele><time>5.0-329.3999938964844-347.20001220703125T5.771697998046875:0:0Z</time></trkpt>
<trkpt lat="45.824475" lon="1.312593"><ele>0</ele><time>5.0-328.29998779296875-340.1000061035156T5.25:0:0Z</time></trkpt>
<trkpt lat="45.824508" lon="1.312544"><ele>0</ele><time>5.0-327.20001220703125-338.5T4.776243209838867:0:0Z</time></trkpt>
<trkpt lat="45.824539" lon="1.312496"><ele>0</ele><time>5.0-326.8999938964844-333.70001220703125T4.25:0:0Z</time></trkpt>
<trkpt lat="45.824585" lon="1.312414"><ele>0</ele><time>5.0-326.29998779296875-325.0T4.5:0:0Z</time></trkpt>
<trkpt lat="45.824655" lon="1.312319"><ele>0</ele><time>7.211102485656738-325.8999938964844-324.70001220703125T5.0:0:0Z</time></trkpt>
<trkpt lat="45.824686" lon="1.312224"><ele>0</ele><time>5.0-325.0-319.1000061035156T3.5:0:0Z</time></trkpt>
<trkpt lat="45.82472" lon="1.312156"><ele>0</ele><time>5.0-324.79998779296875-317.1000061035156T3.0:0:0Z</time></trkpt>
<trkpt lat="45.824767" lon="1.31207"><ele>0</ele><time>5.0-323.5-319.0T3.0:0:0Z</time></trkpt>
<trkpt lat="45.824836" lon="1.312007"><ele>0</ele><time>5.0-322.0-333.5T2.75:0:0Z</time></trkpt>
<trkpt lat="45.824882" lon="1.312009"><ele>0</ele><time>5.0-322.1000061035156-13.199999809265137T2.3048861026763916:0:0Z</time></trkpt>
<trkpt lat="45.824942" lon="1.312029"><ele>0</ele><time>5.0-321.70001220703125-26.299999237060547T2.75:0:0Z</time></trkpt>
<trkpt lat="45.824956" lon="1.312093"><ele>0</ele><time>4.4721360206604-322.70001220703125-58.599998474121094T2.5:0:0Z</time></trkpt>
<trkpt lat="45.825009" lon="1.312138"><ele>0</ele><time>4.4721360206604-322.8999938964844-28.799999237060547T2.5:0:0Z</time></trkpt>
<trkpt lat="45.825049" lon="1.312189"><ele>0</ele><time>4.4721360206604-323.70001220703125-36.5T3.0:0:0Z</time></trkpt>
<trkpt lat="45.825089" lon="1.312247"><ele>0</ele><time>5.0-325.0-45.900001525878906T3.5:0:0Z</time></trkpt>
<trkpt lat="45.825125" lon="1.312304"><ele>0</ele><time>5.0-325.6000061035156-50.20000076293945T3.75:0:0Z</time></trkpt>
<trkpt lat="45.825161" lon="1.312345"><ele>0</ele><time>5.0-325.3999938964844-46.70000076293945T4.0:0:0Z</time></trkpt>
<trkpt lat="45.825221" lon="1.312427"><ele>0</ele><time>7.211102485656738-325.79998779296875-44.0T4.0:0:0Z</time></trkpt>
<trkpt lat="45.825274" lon="1.312474"><ele>0</ele><time>7.211102485656738-325.1000061035156-40.599998474121094T3.75:0:0Z</time></trkpt>
<trkpt lat="45.825319" lon="1.312571"><ele>0</ele><time>6.7082037925720215-327.5-60.099998474121094T2.75:0:0Z</time></trkpt>
<trkpt lat="45.825374" lon="1.31267"><ele>0</ele><time>6.7082037925720215-328.29998779296875-58.5T3.25:0:0Z</time></trkpt>
<trkpt lat="45.825406" lon="1.312752"><ele>0</ele><time>6.7082037925720215-328.8999938964844-61.70000076293945T3.75:0:0Z</time></trkpt>
<trkpt lat="45.825423" lon="1.312841"><ele>0</ele><time>7.211102485656738-328.79998779296875-66.9000015258789T3.75:0:0Z</time></trkpt>
<trkpt lat="45.825456" lon="1.312951"><ele>0</ele><time>8.485280990600586-329.29998779296875-65.69999694824219T3.75:0:0Z</time></trkpt>
<trkpt lat="45.825515" lon="1.313008"><ele>0</ele><time>8.9442720413208-330.20001220703125-52.29999923706055T3.25:0:0Z</time></trkpt>
<trkpt lat="45.825542" lon="1.313106"><ele>0</ele><time>8.9442720413208-328.8999938964844-57.79999923706055T3.5:0:0Z</time></trkpt>
<trkpt lat="45.825581" lon="1.313196"><ele>0</ele><time>8.5440034866333-329.20001220703125-63.400001525878906T4.0:0:0Z</time></trkpt>
<trkpt lat="45.82559" lon="1.313306"><ele>0</ele><time>8.9442720413208-328.6000061035156-64.5999984741211T4.25:0:0Z</time></trkpt>
<trkpt lat="45.825567" lon="1.31341"><ele>0</ele><time>6.7082037925720215-328.79998779296875-75.5T4.0:0:0Z</time></trkpt>
<trkpt lat="45.825608" lon="1.313506"><ele>0</ele><time>6.7082037925720215-328.8999938964844-64.5T3.75:0:0Z</time></trkpt>
<trkpt lat="45.825625" lon="1.313566"><ele>0</ele><time>6.7082037925720215-329.1000061035156-68.30000305175781T3.75:0:0Z</time></trkpt>
<trkpt lat="45.825645" lon="1.313645"><ele>0</ele><time>6.7082037925720215-328.29998779296875-66.69999694824219T4.0:0:0Z</time></trkpt>
<trkpt lat="45.825689" lon="1.313712"><ele>0</ele><time>6.7082037925720215-328.3999938964844-61.400001525878906T4.5:0:0Z</time></trkpt>
<trkpt lat="45.825744" lon="1.313771"><ele>0</ele><time>7.211102485656738-328.1000061035156-51.900001525878906T5.0:0:0Z</time></trkpt>
<trkpt lat="45.825774" lon="1.313832"><ele>0</ele><time>7.211102485656738-327.8999938964844-55.29999923706055T4.75:0:0Z</time></trkpt>
<trkpt lat="45.825817" lon="1.313924"><ele>0</ele><time>8.5440034866333-327.29998779296875-52.20000076293945T4.5:0:0Z</time></trkpt>
<trkpt lat="45.825867" lon="1.313932"><ele>0</ele><time>6.7082037925720215-325.20001220703125-12.600000381469727T3.0:0:0Z</time></trkpt>
<trkpt lat="45.825947" lon="1.31391"><ele>0</ele><time>6.7082037925720215-324.20001220703125-348.29998779296875T3.25:0:0Z</time></trkpt>
<trkpt lat="45.825997" lon="1.313858"><ele>0</ele><time>6.7082037925720215-324.79998779296875-340.0T3.25:0:0Z</time></trkpt>
<trkpt lat="45.826066" lon="1.313818"><ele>0</ele><time>6.7082037925720215-324.8999938964844-338.8999938964844T3.25:0:0Z</time></trkpt>
<trkpt lat="45.826103" lon="1.313779"><ele>0</ele><time>6.324555397033691-324.3999938964844-332.8999938964844T3.75:0:0Z</time></trkpt>
<trkpt lat="45.826143" lon="1.31375"><ele>0</ele><time>6.324555397033691-324.6000061035156-328.3999938964844T3.5:0:0Z</time></trkpt>
<trkpt lat="45.826205" lon="1.313666"><ele>0</ele><time>6.324555397033691-324.1000061035156-319.3999938964844T4.75:0:0Z</time></trkpt>
<trkpt lat="45.82626" lon="1.313614"><ele>0</ele><time>6.324555397033691-323.1000061035156-315.1000061035156T5.25:0:0Z</time></trkpt>
<trkpt lat="45.826313" lon="1.313582"><ele>0</ele><time>6.324555397033691-323.0-320.8999938964844T5.0:0:0Z</time></trkpt>
<trkpt lat="45.826354" lon="1.313547"><ele>0</ele><time>6.324555397033691-322.79998779296875-323.5T4.75:0:0Z</time></trkpt>
<trkpt lat="45.826413" lon="1.31349"><ele>0</ele><time>6.324555397033691-322.5-324.70001220703125T4.0:0:0Z</time></trkpt>
<trkpt lat="45.826443" lon="1.313426"><ele>0</ele><time>6.324555397033691-322.5-320.6000061035156T3.25:0:0Z</time></trkpt>
<trkpt lat="45.826498" lon="1.313377"><ele>0</ele><time>6.324555397033691-323.29998779296875-323.29998779296875T3.25:0:0Z</time></trkpt>
<trkpt lat="45.826587" lon="1.313361"><ele>0</ele><time>6.324555397033691-325.3999938964844-334.29998779296875T3.0:0:0Z</time></trkpt>
<trkpt lat="45.826682" lon="1.313334"><ele>0</ele><time>6.324555397033691-325.79998779296875-334.0T3.5:0:0Z</time></trkpt>
<trkpt lat="45.826748" lon="1.313331"><ele>0</ele><time>6.324555397033691-325.29998779296875-343.70001220703125T3.75:0:0Z</time></trkpt>
<trkpt lat="45.826806" lon="1.313266"><ele>0</ele><time>6.324555397033691-324.6000061035156-329.6000061035156T3.75:0:0Z</time></trkpt>
<trkpt lat="45.826859" lon="1.313213"><ele>0</ele><time>6.324555397033691-324.29998779296875-326.6000061035156T3.5:0:0Z</time></trkpt>
<trkpt lat="45.826933" lon="1.313154"><ele>0</ele><time>6.324555397033691-324.8999938964844-323.20001220703125T4.0:0:0Z</time></trkpt>
<trkpt lat="45.826982" lon="1.313085"><ele>0</ele><time>6.324555397033691-325.70001220703125-315.79998779296875T3.75:0:0Z</time></trkpt>
<trkpt lat="45.827032" lon="1.313026"><ele>0</ele><time>6.324555397033691-325.5-314.29998779296875T3.25:0:0Z</time></trkpt>
<trkpt lat="45.827042" lon="1.312947"><ele>0</ele><time>3.605551242828369-325.1000061035156-303.79998779296875T3.25:0:0Z</time></trkpt>
<trkpt lat="45.827076" lon="1.312862"><ele>0</ele><time>3.605551242828369-325.1000061035156-300.5T3.25:0:0Z</time></trkpt>
<trkpt lat="45.827113" lon="1.312783"><ele>0</ele><time>3.605551242828369-325.1000061035156-301.20001220703125T3.25:0:0Z</time></trkpt>
<trkpt lat="45.827159" lon="1.3127"><ele>0</ele><time>3.605551242828369-324.20001220703125-304.0T3.25:0:0Z</time></trkpt>
<trkpt lat="45.827179" lon="1.312623"><ele>0</ele><time>3.605551242828369-324.3999938964844-301.29998779296875T3.041381359100342:0:0Z</time></trkpt>
<trkpt lat="45.827178" lon="1.312543"><ele>0</ele><time>3.605551242828369-325.6000061035156-290.1000061035156T2.75:0:0Z</time></trkpt>
<trkpt lat="45.827199" lon="1.31246"><ele>0</ele><time>4.242640495300293-324.70001220703125-286.5T2.75:0:0Z</time></trkpt>
<trkpt lat="45.82723" lon="1.312404"><ele>0</ele><time>4.242640495300293-324.1000061035156-290.3999938964844T3.0:0:0Z</time></trkpt>
<trkpt lat="45.827274" lon="1.312312"><ele>0</ele><time>5.0-326.0-295.70001220703125T3.25:0:0Z</time></trkpt>
<trkpt lat="45.827286" lon="1.312211"><ele>0</ele><time>5.0-325.20001220703125-285.79998779296875T3.0:0:0Z</time></trkpt>
<trkpt lat="45.827262" lon="1.312139"><ele>0</ele><time>4.242640495300293-326.1000061035156-274.29998779296875T3.0:0:0Z</time></trkpt>
<trkpt lat="45.827248" lon="1.312042"><ele>0</ele><time>2.8284270763397217-327.6000061035156-264.1000061035156T3.041381359100342:0:0Z</time></trkpt>
<trkpt lat="45.827241" lon="1.311972"><ele>0</ele><time>2.8284270763397217-327.70001220703125-260.1000061035156T2.5:0:0Z</time></trkpt>
<trkpt lat="45.827228" lon="1.311897"><ele>0</ele><time>2.8284270763397217-330.1000061035156-256.8999938964844T3.4003677368164063:0:0Z</time></trkpt>
<trkpt lat="45.827215" lon="1.311817"><ele>0</ele><time>2.8284270763397217-331.20001220703125-256.20001220703125T2.7950849533081055:0:0Z</time></trkpt>
<trkpt lat="45.827212" lon="1.311741"><ele>0</ele><time>2.8284270763397217-331.3999938964844-262.8999938964844T3.0:0:0Z</time></trkpt>
<trkpt lat="45.827219" lon="1.311646"><ele>0</ele><time>3.605551242828369-331.5-272.8999938964844T3.5:0:0Z</time></trkpt>
<trkpt lat="45.827226" lon="1.311547"><ele>0</ele><time>4.4721360206604-332.29998779296875-277.3999938964844T3.5:0:0Z</time></trkpt>
<trkpt lat="45.827256" lon="1.311467"><ele>0</ele><time>6.324555397033691-332.1000061035156-284.6000061035156T3.5:0:0Z</time></trkpt>
<trkpt lat="45.827286" lon="1.31137"><ele>0</ele><time>6.324555397033691-332.29998779296875-288.3999938964844T3.75:0:0Z</time></trkpt>
<trkpt lat="45.827316" lon="1.3113"><ele>0</ele><time>6.324555397033691-332.6000061035156-291.0T3.0:0:0Z</time></trkpt>
<trkpt lat="45.827294" lon="1.31119"><ele>0</ele><time>6.324555397033691-333.70001220703125-279.3999938964844T3.25:0:0Z</time></trkpt>
<trkpt lat="45.827306" lon="1.311109"><ele>0</ele><time>6.324555397033691-334.20001220703125-276.1000061035156T3.0:0:0Z</time></trkpt>
<trkpt lat="45.82736" lon="1.311031"><ele>0</ele><time>4.4721360206604-336.29998779296875-287.70001220703125T3.25:0:0Z</time></trkpt>
<trkpt lat="45.827387" lon="1.310948"><ele>0</ele><time>4.4721360206604-336.29998779296875-288.3999938964844T3.25:0:0Z</time></trkpt>
<trkpt lat="45.82741" lon="1.310867"><ele>0</ele><time>4.4721360206604-336.79998779296875-287.0T3.25:0:0Z</time></trkpt>
<trkpt lat="45.827439" lon="1.310771"><ele>0</ele><time>4.4721360206604-337.29998779296875-289.29998779296875T3.25:0:0Z</time></trkpt>
<trkpt lat="45.827461" lon="1.31071"><ele>0</ele><time>6.324555397033691-336.79998779296875-290.29998779296875T3.75:0:0Z</time></trkpt>
<trkpt lat="45.827489" lon="1.310607"><ele>0</ele><time>6.324555397033691-336.20001220703125-290.20001220703125T3.75:0:0Z</time></trkpt>
<trkpt lat="45.827517" lon="1.310506"><ele>0</ele><time>8.246211051940918-335.8999938964844-291.0T3.75:0:0Z</time></trkpt>
<trkpt lat="45.827569" lon="1.310422"><ele>0</ele><time>8.246211051940918-336.1000061035156-297.5T3.5:0:0Z</time></trkpt>
<trkpt lat="45.827588" lon="1.310343"><ele>0</ele><time>6.324555397033691-336.79998779296875-299.3999938964844T3.25:0:0Z</time></trkpt>
<trkpt lat="45.827588" lon="1.310249"><ele>0</ele><time>6.324555397033691-337.0-292.70001220703125T3.25:0:0Z</time></trkpt>
<trkpt lat="45.827585" lon="1.310157"><ele>0</ele><time>4.4721360206604-337.1000061035156-290.5T3.0:0:0Z</time></trkpt>
<trkpt lat="45.82762" lon="1.310051"><ele>0</ele><time>4.4721360206604-337.3999938964844-290.20001220703125T3.75:0:0Z</time></trkpt>
<trkpt lat="45.827658" lon="1.309954"><ele>0</ele><time>4.4721360206604-337.8999938964844-296.20001220703125T3.75:0:0Z</time></trkpt>
<trkpt lat="45.827682" lon="1.309856"><ele>0</ele><time>6.324555397033691-337.70001220703125-291.79998779296875T3.75:0:0Z</time></trkpt>
<trkpt lat="45.827713" lon="1.309768"><ele>0</ele><time>6.324555397033691-338.6000061035156-292.1000061035156T3.5:0:0Z</time></trkpt>
<trkpt lat="45.827722" lon="1.309678"><ele>0</ele><time>6.324555397033691-338.70001220703125-291.0T3.0:0:0Z</time></trkpt>
<trkpt lat="45.827746" lon="1.309592"><ele>0</ele><time>6.324555397033691-339.1000061035156-290.8999938964844T3.5:0:0Z</time></trkpt>
<trkpt lat="45.827773" lon="1.30951"><ele>0</ele><time>4.4721360206604-339.79998779296875-283.1000061035156T3.0:0:0Z</time></trkpt>
<trkpt lat="45.827758" lon="1.309405"><ele>0</ele><time>3.605551242828369-343.70001220703125-284.1000061035156T3.816084384918213:0:0Z</time></trkpt>
<trkpt lat="45.827772" lon="1.309307"><ele>0</ele><time>3.605551242828369-344.8999938964844-282.6000061035156T3.4003677368164063:0:0Z</time></trkpt>
<trkpt lat="45.82778" lon="1.309226"><ele>0</ele><time>3.605551242828369-344.0-285.0T3.0:0:0Z</time></trkpt>
<trkpt lat="45.827825" lon="1.309186"><ele>0</ele><time>3.605551242828369-338.70001220703125-311.3999938964844T4.4721360206604:0:0Z</time></trkpt>
<trkpt lat="45.827862" lon="1.309117"><ele>0</ele><time>3.605551242828369-335.6000061035156-314.5T3.1622776985168457:0:0Z</time></trkpt>
<trkpt lat="45.827881" lon="1.309045"><ele>0</ele><time>3.605551242828369-334.70001220703125-300.29998779296875T2.7950849533081055:0:0Z</time></trkpt>
<trkpt lat="45.827862" lon="1.30898"><ele>0</ele><time>3.605551242828369-335.0-265.29998779296875T0.0:0:0Z</time></trkpt>
<trkpt lat="45.827878" lon="1.308919"><ele>0</ele><time>3.605551242828369-337.6000061035156-305.0T0.75:0:0Z</time></trkpt>
<trkpt lat="45.827937" lon="1.308888"><ele>0</ele><time>3.605551242828369-347.29998779296875-353.6000061035156T1.5811388492584229:0:0Z</time></trkpt>
<trkpt lat="45.827987" lon="1.308931"><ele>0</ele><time>3.605551242828369-344.3999938964844-38.900001525878906T1.0:0:0Z</time></trkpt>
</trkseg></trk></gpx>